<?xml version="1.0" encoding="UTF-8" standalone="no" ?>
<gpx xmlns="http://www.topografix.com/GPX/1/1" xmlns:xsi="http://www.w3.org/2001/XMLSchema-instance" xsi:schemaLocation="http://www.topografix.com/GPX/1/1 http://www.topografix.com/GPX/1/1/gpx.xsd" version="1.1" creator="VisuGPX - https://www.visugpx.com">
  <metadata>
    <name>thezac masquieres mauroux</name>
    <desc><![CDATA[aaaaaaaaaaaaaaaaaaaaaaaaaaaaaaaaaaaaaaaaaaaaaaaaaaaaaaaaaaaaaaaaaaaaaaaaaaaaaaaaaaaaaa]]></desc>
  </metadata>
  <trk>
    <name><![CDATA[Cycling]]></name>
    <trkseg>
      <trkpt lat="44.4309" lon="1.0157">
        <ele>219</ele>
        <time>2017-05-28T06:49:34.000Z</time>
      </trkpt>
      <trkpt lat="44.43092" lon="1.01567">
        <ele>219</ele>
        <time>2017-05-28T06:49:35.000Z</time>
      </trkpt>
      <trkpt lat="44.43094" lon="1.01564">
        <ele>219</ele>
        <time>2017-05-28T06:49:36.000Z</time>
      </trkpt>
      <trkpt lat="44.43096" lon="1.01562">
        <ele>219</ele>
        <time>2017-05-28T06:49:37.000Z</time>
      </trkpt>
      <trkpt lat="44.43098" lon="1.01559">
        <ele>218.9</ele>
        <time>2017-05-28T06:49:38.000Z</time>
      </trkpt>
      <trkpt lat="44.43101" lon="1.01555">
        <ele>218.9</ele>
        <time>2017-05-28T06:49:39.000Z</time>
      </trkpt>
      <trkpt lat="44.43103" lon="1.01552">
        <ele>218.8</ele>
        <time>2017-05-28T06:49:40.000Z</time>
      </trkpt>
      <trkpt lat="44.43106" lon="1.01549">
        <ele>218.7</ele>
        <time>2017-05-28T06:49:41.000Z</time>
      </trkpt>
      <trkpt lat="44.43108" lon="1.01546">
        <ele>218.6</ele>
        <time>2017-05-28T06:49:42.000Z</time>
      </trkpt>
      <trkpt lat="44.43111" lon="1.01542">
        <ele>218.5</ele>
        <time>2017-05-28T06:49:43.000Z</time>
      </trkpt>
      <trkpt lat="44.43114" lon="1.01539">
        <ele>218.4</ele>
        <time>2017-05-28T06:49:44.000Z</time>
      </trkpt>
      <trkpt lat="44.43117" lon="1.01536">
        <ele>218.3</ele>
        <time>2017-05-28T06:49:45.000Z</time>
      </trkpt>
      <trkpt lat="44.4312" lon="1.01532">
        <ele>218.1</ele>
        <time>2017-05-28T06:49:46.000Z</time>
      </trkpt>
      <trkpt lat="44.43123" lon="1.01529">
        <ele>217.9</ele>
        <time>2017-05-28T06:49:47.000Z</time>
      </trkpt>
      <trkpt lat="44.43126" lon="1.01525">
        <ele>217.7</ele>
        <time>2017-05-28T06:49:48.000Z</time>
      </trkpt>
      <trkpt lat="44.43129" lon="1.01522">
        <ele>217.5</ele>
        <time>2017-05-28T06:49:49.000Z</time>
      </trkpt>
      <trkpt lat="44.43133" lon="1.01519">
        <ele>217.3</ele>
        <time>2017-05-28T06:49:50.000Z</time>
      </trkpt>
      <trkpt lat="44.43136" lon="1.01515">
        <ele>217</ele>
        <time>2017-05-28T06:49:51.000Z</time>
      </trkpt>
      <trkpt lat="44.43139" lon="1.01512">
        <ele>216.8</ele>
        <time>2017-05-28T06:49:52.000Z</time>
      </trkpt>
      <trkpt lat="44.43143" lon="1.01508">
        <ele>216.5</ele>
        <time>2017-05-28T06:49:53.000Z</time>
      </trkpt>
      <trkpt lat="44.43146" lon="1.01505">
        <ele>216.2</ele>
        <time>2017-05-28T06:49:54.000Z</time>
      </trkpt>
      <trkpt lat="44.4315" lon="1.01501">
        <ele>215.9</ele>
        <time>2017-05-28T06:49:55.000Z</time>
      </trkpt>
      <trkpt lat="44.43153" lon="1.01498">
        <ele>215.5</ele>
        <time>2017-05-28T06:49:56.000Z</time>
      </trkpt>
      <trkpt lat="44.43157" lon="1.01495">
        <ele>215.2</ele>
        <time>2017-05-28T06:49:57.000Z</time>
      </trkpt>
      <trkpt lat="44.43161" lon="1.01491">
        <ele>214.8</ele>
        <time>2017-05-28T06:49:58.000Z</time>
      </trkpt>
      <trkpt lat="44.43164" lon="1.01488">
        <ele>214.4</ele>
        <time>2017-05-28T06:49:59.000Z</time>
      </trkpt>
      <trkpt lat="44.43168" lon="1.01485">
        <ele>214.1</ele>
        <time>2017-05-28T06:50:00.000Z</time>
      </trkpt>
      <trkpt lat="44.43172" lon="1.01482">
        <ele>214</ele>
        <time>2017-05-28T06:50:01.000Z</time>
      </trkpt>
      <trkpt lat="44.43176" lon="1.01479">
        <ele>213.9</ele>
        <time>2017-05-28T06:50:02.000Z</time>
      </trkpt>
      <trkpt lat="44.4318" lon="1.01476">
        <ele>213.7</ele>
        <time>2017-05-28T06:50:03.000Z</time>
      </trkpt>
      <trkpt lat="44.43184" lon="1.01473">
        <ele>213.6</ele>
        <time>2017-05-28T06:50:04.000Z</time>
      </trkpt>
      <trkpt lat="44.43187" lon="1.0147">
        <ele>213.5</ele>
        <time>2017-05-28T06:50:05.000Z</time>
      </trkpt>
      <trkpt lat="44.43191" lon="1.01467">
        <ele>213.4</ele>
        <time>2017-05-28T06:50:06.000Z</time>
      </trkpt>
      <trkpt lat="44.43195" lon="1.01464">
        <ele>213.3</ele>
        <time>2017-05-28T06:50:07.000Z</time>
      </trkpt>
      <trkpt lat="44.43199" lon="1.01462">
        <ele>213.3</ele>
        <time>2017-05-28T06:50:08.000Z</time>
      </trkpt>
      <trkpt lat="44.43203" lon="1.01459">
        <ele>213.2</ele>
        <time>2017-05-28T06:50:09.000Z</time>
      </trkpt>
      <trkpt lat="44.43206" lon="1.01456">
        <ele>213.1</ele>
        <time>2017-05-28T06:50:10.000Z</time>
      </trkpt>
      <trkpt lat="44.4321" lon="1.01453">
        <ele>213</ele>
        <time>2017-05-28T06:50:11.000Z</time>
      </trkpt>
      <trkpt lat="44.43213" lon="1.01451">
        <ele>212.9</ele>
        <time>2017-05-28T06:50:12.000Z</time>
      </trkpt>
      <trkpt lat="44.43217" lon="1.01448">
        <ele>212.8</ele>
        <time>2017-05-28T06:50:13.000Z</time>
      </trkpt>
      <trkpt lat="44.4322" lon="1.01445">
        <ele>212.8</ele>
        <time>2017-05-28T06:50:14.000Z</time>
      </trkpt>
      <trkpt lat="44.43223" lon="1.01442">
        <ele>212.7</ele>
        <time>2017-05-28T06:50:15.000Z</time>
      </trkpt>
      <trkpt lat="44.43226" lon="1.01439">
        <ele>212.6</ele>
        <time>2017-05-28T06:50:16.000Z</time>
      </trkpt>
      <trkpt lat="44.43229" lon="1.01436">
        <ele>212.5</ele>
        <time>2017-05-28T06:50:17.000Z</time>
      </trkpt>
      <trkpt lat="44.43232" lon="1.01432">
        <ele>212.4</ele>
        <time>2017-05-28T06:50:18.000Z</time>
      </trkpt>
      <trkpt lat="44.43235" lon="1.01429">
        <ele>212.2</ele>
        <time>2017-05-28T06:50:19.000Z</time>
      </trkpt>
      <trkpt lat="44.43237" lon="1.01425">
        <ele>212.1</ele>
        <time>2017-05-28T06:50:20.000Z</time>
      </trkpt>
      <trkpt lat="44.43239" lon="1.01422">
        <ele>212</ele>
        <time>2017-05-28T06:50:21.000Z</time>
      </trkpt>
      <trkpt lat="44.43241" lon="1.01418">
        <ele>211.9</ele>
        <time>2017-05-28T06:50:22.000Z</time>
      </trkpt>
      <trkpt lat="44.43244" lon="1.01415">
        <ele>211.7</ele>
        <time>2017-05-28T06:50:23.000Z</time>
      </trkpt>
      <trkpt lat="44.43246" lon="1.01411">
        <ele>211.5</ele>
        <time>2017-05-28T06:50:24.000Z</time>
      </trkpt>
      <trkpt lat="44.43248" lon="1.01407">
        <ele>211.3</ele>
        <time>2017-05-28T06:50:25.000Z</time>
      </trkpt>
      <trkpt lat="44.4325" lon="1.01404">
        <ele>211.1</ele>
        <time>2017-05-28T06:50:26.000Z</time>
      </trkpt>
      <trkpt lat="44.43252" lon="1.014">
        <ele>210.9</ele>
        <time>2017-05-28T06:50:27.000Z</time>
      </trkpt>
      <trkpt lat="44.43254" lon="1.01397">
        <ele>210.7</ele>
        <time>2017-05-28T06:50:28.000Z</time>
      </trkpt>
      <trkpt lat="44.43256" lon="1.01394">
        <ele>210.5</ele>
        <time>2017-05-28T06:50:29.000Z</time>
      </trkpt>
      <trkpt lat="44.43258" lon="1.0139">
        <ele>210.3</ele>
        <time>2017-05-28T06:50:30.000Z</time>
      </trkpt>
      <trkpt lat="44.4326" lon="1.01387">
        <ele>210.1</ele>
        <time>2017-05-28T06:50:31.000Z</time>
      </trkpt>
      <trkpt lat="44.43262" lon="1.01384">
        <ele>209.9</ele>
        <time>2017-05-28T06:50:32.000Z</time>
      </trkpt>
      <trkpt lat="44.43265" lon="1.01382">
        <ele>209.7</ele>
        <time>2017-05-28T06:50:33.000Z</time>
      </trkpt>
      <trkpt lat="44.43267" lon="1.01379">
        <ele>209.6</ele>
        <time>2017-05-28T06:50:34.000Z</time>
      </trkpt>
      <trkpt lat="44.4327" lon="1.01376">
        <ele>209.4</ele>
        <time>2017-05-28T06:50:35.000Z</time>
      </trkpt>
      <trkpt lat="44.43273" lon="1.01374">
        <ele>209.3</ele>
        <time>2017-05-28T06:50:36.000Z</time>
      </trkpt>
      <trkpt lat="44.43275" lon="1.01371">
        <ele>209.1</ele>
        <time>2017-05-28T06:50:37.000Z</time>
      </trkpt>
      <trkpt lat="44.43278" lon="1.01368">
        <ele>209</ele>
        <time>2017-05-28T06:50:38.000Z</time>
      </trkpt>
      <trkpt lat="44.43281" lon="1.01365">
        <ele>208.8</ele>
        <time>2017-05-28T06:50:39.000Z</time>
      </trkpt>
      <trkpt lat="44.43285" lon="1.01363">
        <ele>208.7</ele>
        <time>2017-05-28T06:50:40.000Z</time>
      </trkpt>
      <trkpt lat="44.43288" lon="1.0136">
        <ele>208.5</ele>
        <time>2017-05-28T06:50:41.000Z</time>
      </trkpt>
      <trkpt lat="44.43291" lon="1.01356">
        <ele>208.3</ele>
        <time>2017-05-28T06:50:42.000Z</time>
      </trkpt>
      <trkpt lat="44.43295" lon="1.01353">
        <ele>208.1</ele>
        <time>2017-05-28T06:50:43.000Z</time>
      </trkpt>
      <trkpt lat="44.43299" lon="1.01349">
        <ele>207.8</ele>
        <time>2017-05-28T06:50:44.000Z</time>
      </trkpt>
      <trkpt lat="44.43302" lon="1.01344">
        <ele>207.5</ele>
        <time>2017-05-28T06:50:45.000Z</time>
      </trkpt>
      <trkpt lat="44.43306" lon="1.01339">
        <ele>207.1</ele>
        <time>2017-05-28T06:50:46.000Z</time>
      </trkpt>
      <trkpt lat="44.43309" lon="1.01333">
        <ele>206.7</ele>
        <time>2017-05-28T06:50:47.000Z</time>
      </trkpt>
      <trkpt lat="44.43313" lon="1.01327">
        <ele>206.6</ele>
        <time>2017-05-28T06:50:48.000Z</time>
      </trkpt>
      <trkpt lat="44.43317" lon="1.01321">
        <ele>206.5</ele>
        <time>2017-05-28T06:50:49.000Z</time>
      </trkpt>
      <trkpt lat="44.43321" lon="1.01314">
        <ele>206.5</ele>
        <time>2017-05-28T06:50:50.000Z</time>
      </trkpt>
      <trkpt lat="44.43325" lon="1.01308">
        <ele>206.5</ele>
        <time>2017-05-28T06:50:51.000Z</time>
      </trkpt>
      <trkpt lat="44.4333" lon="1.01301">
        <ele>206.5</ele>
        <time>2017-05-28T06:50:52.000Z</time>
      </trkpt>
      <trkpt lat="44.43336" lon="1.01295">
        <ele>206.6</ele>
        <time>2017-05-28T06:50:53.000Z</time>
      </trkpt>
      <trkpt lat="44.43342" lon="1.01289">
        <ele>206.5</ele>
        <time>2017-05-28T06:50:54.000Z</time>
      </trkpt>
      <trkpt lat="44.43348" lon="1.01283">
        <ele>206.4</ele>
        <time>2017-05-28T06:50:55.000Z</time>
      </trkpt>
      <trkpt lat="44.43355" lon="1.01278">
        <ele>206.2</ele>
        <time>2017-05-28T06:50:56.000Z</time>
      </trkpt>
      <trkpt lat="44.43362" lon="1.01274">
        <ele>206</ele>
        <time>2017-05-28T06:50:57.000Z</time>
      </trkpt>
      <trkpt lat="44.43368" lon="1.0127">
        <ele>205.7</ele>
        <time>2017-05-28T06:50:58.000Z</time>
      </trkpt>
      <trkpt lat="44.43375" lon="1.01265">
        <ele>205.3</ele>
        <time>2017-05-28T06:50:59.000Z</time>
      </trkpt>
      <trkpt lat="44.43381" lon="1.01259">
        <ele>204.8</ele>
        <time>2017-05-28T06:51:00.000Z</time>
      </trkpt>
      <trkpt lat="44.43386" lon="1.01251">
        <ele>204.2</ele>
        <time>2017-05-28T06:51:01.000Z</time>
      </trkpt>
      <trkpt lat="44.43392" lon="1.01244">
        <ele>203.5</ele>
        <time>2017-05-28T06:51:02.000Z</time>
      </trkpt>
      <trkpt lat="44.43396" lon="1.01236">
        <ele>202.8</ele>
        <time>2017-05-28T06:51:03.000Z</time>
      </trkpt>
      <trkpt lat="44.434" lon="1.01229">
        <ele>202.1</ele>
        <time>2017-05-28T06:51:04.000Z</time>
      </trkpt>
      <trkpt lat="44.43404" lon="1.01221">
        <ele>201.3</ele>
        <time>2017-05-28T06:51:05.000Z</time>
      </trkpt>
      <trkpt lat="44.43407" lon="1.01213">
        <ele>200.5</ele>
        <time>2017-05-28T06:51:06.000Z</time>
      </trkpt>
      <trkpt lat="44.4341" lon="1.01206">
        <ele>199.8</ele>
        <time>2017-05-28T06:51:07.000Z</time>
      </trkpt>
      <trkpt lat="44.43413" lon="1.01198">
        <ele>199</ele>
        <time>2017-05-28T06:51:08.000Z</time>
      </trkpt>
      <trkpt lat="44.43415" lon="1.01191">
        <ele>198.2</ele>
        <time>2017-05-28T06:51:09.000Z</time>
      </trkpt>
      <trkpt lat="44.43417" lon="1.01183">
        <ele>197.4</ele>
        <time>2017-05-28T06:51:10.000Z</time>
      </trkpt>
      <trkpt lat="44.43418" lon="1.01176">
        <ele>197</ele>
        <time>2017-05-28T06:51:11.000Z</time>
      </trkpt>
      <trkpt lat="44.43419" lon="1.01168">
        <ele>196.5</ele>
        <time>2017-05-28T06:51:12.000Z</time>
      </trkpt>
      <trkpt lat="44.43421" lon="1.0116">
        <ele>196.1</ele>
        <time>2017-05-28T06:51:13.000Z</time>
      </trkpt>
      <trkpt lat="44.43422" lon="1.01152">
        <ele>195.8</ele>
        <time>2017-05-28T06:51:14.000Z</time>
      </trkpt>
      <trkpt lat="44.43423" lon="1.01143">
        <ele>195.3</ele>
        <time>2017-05-28T06:51:15.000Z</time>
      </trkpt>
      <trkpt lat="44.43424" lon="1.01134">
        <ele>194.9</ele>
        <time>2017-05-28T06:51:16.000Z</time>
      </trkpt>
      <trkpt lat="44.43425" lon="1.01124">
        <ele>194.4</ele>
        <time>2017-05-28T06:51:17.000Z</time>
      </trkpt>
      <trkpt lat="44.43426" lon="1.01114">
        <ele>193.9</ele>
        <time>2017-05-28T06:51:18.000Z</time>
      </trkpt>
      <trkpt lat="44.43427" lon="1.01104">
        <ele>193.4</ele>
        <time>2017-05-28T06:51:19.000Z</time>
      </trkpt>
      <trkpt lat="44.43428" lon="1.01093">
        <ele>192.8</ele>
        <time>2017-05-28T06:51:20.000Z</time>
      </trkpt>
      <trkpt lat="44.43429" lon="1.01081">
        <ele>192.2</ele>
        <time>2017-05-28T06:51:21.000Z</time>
      </trkpt>
      <trkpt lat="44.43431" lon="1.01069">
        <ele>191.3</ele>
        <time>2017-05-28T06:51:22.000Z</time>
      </trkpt>
      <trkpt lat="44.43433" lon="1.01057">
        <ele>190.3</ele>
        <time>2017-05-28T06:51:23.000Z</time>
      </trkpt>
      <trkpt lat="44.43435" lon="1.01044">
        <ele>189.4</ele>
        <time>2017-05-28T06:51:24.000Z</time>
      </trkpt>
      <trkpt lat="44.43437" lon="1.01032">
        <ele>188.4</ele>
        <time>2017-05-28T06:51:25.000Z</time>
      </trkpt>
      <trkpt lat="44.43439" lon="1.01019">
        <ele>187.3</ele>
        <time>2017-05-28T06:51:26.000Z</time>
      </trkpt>
      <trkpt lat="44.43441" lon="1.01006">
        <ele>186.3</ele>
        <time>2017-05-28T06:51:27.000Z</time>
      </trkpt>
      <trkpt lat="44.43444" lon="1.00992">
        <ele>185.2</ele>
        <time>2017-05-28T06:51:28.000Z</time>
      </trkpt>
      <trkpt lat="44.43447" lon="1.00979">
        <ele>184</ele>
        <time>2017-05-28T06:51:29.000Z</time>
      </trkpt>
      <trkpt lat="44.43449" lon="1.00966">
        <ele>182.8</ele>
        <time>2017-05-28T06:51:30.000Z</time>
      </trkpt>
      <trkpt lat="44.43452" lon="1.00953">
        <ele>181.5</ele>
        <time>2017-05-28T06:51:31.000Z</time>
      </trkpt>
      <trkpt lat="44.43454" lon="1.00941">
        <ele>180.2</ele>
        <time>2017-05-28T06:51:32.000Z</time>
      </trkpt>
      <trkpt lat="44.43456" lon="1.00928">
        <ele>178.8</ele>
        <time>2017-05-28T06:51:33.000Z</time>
      </trkpt>
      <trkpt lat="44.43458" lon="1.00916">
        <ele>177.5</ele>
        <time>2017-05-28T06:51:34.000Z</time>
      </trkpt>
      <trkpt lat="44.4346" lon="1.00905">
        <ele>177.9</ele>
        <time>2017-05-28T06:51:35.000Z</time>
      </trkpt>
      <trkpt lat="44.43463" lon="1.00895">
        <ele>178</ele>
        <time>2017-05-28T06:51:36.000Z</time>
      </trkpt>
      <trkpt lat="44.43466" lon="1.00886">
        <ele>177.9</ele>
        <time>2017-05-28T06:51:37.000Z</time>
      </trkpt>
      <trkpt lat="44.4347" lon="1.00878">
        <ele>177.6</ele>
        <time>2017-05-28T06:51:38.000Z</time>
      </trkpt>
      <trkpt lat="44.43475" lon="1.00871">
        <ele>177</ele>
        <time>2017-05-28T06:51:39.000Z</time>
      </trkpt>
      <trkpt lat="44.4348" lon="1.00865">
        <ele>176.2</ele>
        <time>2017-05-28T06:51:40.000Z</time>
      </trkpt>
      <trkpt lat="44.43485" lon="1.00859">
        <ele>175.2</ele>
        <time>2017-05-28T06:51:41.000Z</time>
      </trkpt>
      <trkpt lat="44.43491" lon="1.00853">
        <ele>174</ele>
        <time>2017-05-28T06:51:42.000Z</time>
      </trkpt>
      <trkpt lat="44.43496" lon="1.00847">
        <ele>172.7</ele>
        <time>2017-05-28T06:51:43.000Z</time>
      </trkpt>
      <trkpt lat="44.43502" lon="1.00841">
        <ele>171.7</ele>
        <time>2017-05-28T06:51:44.000Z</time>
      </trkpt>
      <trkpt lat="44.43507" lon="1.00835">
        <ele>171.4</ele>
        <time>2017-05-28T06:51:45.000Z</time>
      </trkpt>
      <trkpt lat="44.43513" lon="1.00829">
        <ele>171.8</ele>
        <time>2017-05-28T06:51:46.000Z</time>
      </trkpt>
      <trkpt lat="44.43518" lon="1.00823">
        <ele>172.3</ele>
        <time>2017-05-28T06:51:47.000Z</time>
      </trkpt>
      <trkpt lat="44.43523" lon="1.00817">
        <ele>172.6</ele>
        <time>2017-05-28T06:51:48.000Z</time>
      </trkpt>
      <trkpt lat="44.43529" lon="1.00811">
        <ele>172.8</ele>
        <time>2017-05-28T06:51:49.000Z</time>
      </trkpt>
      <trkpt lat="44.43534" lon="1.00805">
        <ele>172.7</ele>
        <time>2017-05-28T06:51:50.000Z</time>
      </trkpt>
      <trkpt lat="44.43539" lon="1.00799">
        <ele>172.5</ele>
        <time>2017-05-28T06:51:51.000Z</time>
      </trkpt>
      <trkpt lat="44.43545" lon="1.00794">
        <ele>172</ele>
        <time>2017-05-28T06:51:52.000Z</time>
      </trkpt>
      <trkpt lat="44.4355" lon="1.00788">
        <ele>171.4</ele>
        <time>2017-05-28T06:51:53.000Z</time>
      </trkpt>
      <trkpt lat="44.43555" lon="1.00782">
        <ele>170.6</ele>
        <time>2017-05-28T06:51:54.000Z</time>
      </trkpt>
      <trkpt lat="44.43561" lon="1.00777">
        <ele>169.6</ele>
        <time>2017-05-28T06:51:55.000Z</time>
      </trkpt>
      <trkpt lat="44.43566" lon="1.00772">
        <ele>168.4</ele>
        <time>2017-05-28T06:51:56.000Z</time>
      </trkpt>
      <trkpt lat="44.43572" lon="1.00767">
        <ele>167.1</ele>
        <time>2017-05-28T06:51:57.000Z</time>
      </trkpt>
      <trkpt lat="44.43578" lon="1.00763">
        <ele>165.6</ele>
        <time>2017-05-28T06:51:58.000Z</time>
      </trkpt>
      <trkpt lat="44.43584" lon="1.00759">
        <ele>164.1</ele>
        <time>2017-05-28T06:51:59.000Z</time>
      </trkpt>
      <trkpt lat="44.43589" lon="1.00755">
        <ele>163.1</ele>
        <time>2017-05-28T06:52:00.000Z</time>
      </trkpt>
      <trkpt lat="44.43594" lon="1.00752">
        <ele>162.3</ele>
        <time>2017-05-28T06:52:01.000Z</time>
      </trkpt>
      <trkpt lat="44.43598" lon="1.0075">
        <ele>161.6</ele>
        <time>2017-05-28T06:52:02.000Z</time>
      </trkpt>
      <trkpt lat="44.43602" lon="1.00748">
        <ele>161.4</ele>
        <time>2017-05-28T06:52:03.000Z</time>
      </trkpt>
      <trkpt lat="44.43606" lon="1.00747">
        <ele>161.2</ele>
        <time>2017-05-28T06:52:04.000Z</time>
      </trkpt>
      <trkpt lat="44.43609" lon="1.00746">
        <ele>161.1</ele>
        <time>2017-05-28T06:52:05.000Z</time>
      </trkpt>
      <trkpt lat="44.43612" lon="1.00744">
        <ele>160.9</ele>
        <time>2017-05-28T06:52:06.000Z</time>
      </trkpt>
      <trkpt lat="44.43615" lon="1.00742">
        <ele>160.8</ele>
        <time>2017-05-28T06:52:07.000Z</time>
      </trkpt>
      <trkpt lat="44.43618" lon="1.00741">
        <ele>160.6</ele>
        <time>2017-05-28T06:52:08.000Z</time>
      </trkpt>
      <trkpt lat="44.43621" lon="1.00739">
        <ele>160.5</ele>
        <time>2017-05-28T06:52:09.000Z</time>
      </trkpt>
      <trkpt lat="44.43624" lon="1.00737">
        <ele>160.4</ele>
        <time>2017-05-28T06:52:10.000Z</time>
      </trkpt>
      <trkpt lat="44.43627" lon="1.00735">
        <ele>160.2</ele>
        <time>2017-05-28T06:52:11.000Z</time>
      </trkpt>
      <trkpt lat="44.43629" lon="1.00733">
        <ele>160.1</ele>
        <time>2017-05-28T06:52:12.000Z</time>
      </trkpt>
      <trkpt lat="44.43632" lon="1.00731">
        <ele>159.9</ele>
        <time>2017-05-28T06:52:13.000Z</time>
      </trkpt>
      <trkpt lat="44.43635" lon="1.00729">
        <ele>159.7</ele>
        <time>2017-05-28T06:52:14.000Z</time>
      </trkpt>
      <trkpt lat="44.43638" lon="1.00727">
        <ele>159.6</ele>
        <time>2017-05-28T06:52:15.000Z</time>
      </trkpt>
      <trkpt lat="44.43641" lon="1.00724">
        <ele>159.4</ele>
        <time>2017-05-28T06:52:16.000Z</time>
      </trkpt>
      <trkpt lat="44.43644" lon="1.00721">
        <ele>159.2</ele>
        <time>2017-05-28T06:52:17.000Z</time>
      </trkpt>
      <trkpt lat="44.43646" lon="1.00718">
        <ele>159</ele>
        <time>2017-05-28T06:52:18.000Z</time>
      </trkpt>
      <trkpt lat="44.43649" lon="1.00714">
        <ele>158.9</ele>
        <time>2017-05-28T06:52:19.000Z</time>
      </trkpt>
      <trkpt lat="44.43652" lon="1.0071">
        <ele>158.6</ele>
        <time>2017-05-28T06:52:20.000Z</time>
      </trkpt>
      <trkpt lat="44.43655" lon="1.00706">
        <ele>158.4</ele>
        <time>2017-05-28T06:52:21.000Z</time>
      </trkpt>
      <trkpt lat="44.43659" lon="1.00703">
        <ele>158</ele>
        <time>2017-05-28T06:52:22.000Z</time>
      </trkpt>
      <trkpt lat="44.43662" lon="1.00699">
        <ele>157.5</ele>
        <time>2017-05-28T06:52:23.000Z</time>
      </trkpt>
      <trkpt lat="44.43666" lon="1.00697">
        <ele>157</ele>
        <time>2017-05-28T06:52:24.000Z</time>
      </trkpt>
      <trkpt lat="44.43671" lon="1.00695">
        <ele>156.7</ele>
        <time>2017-05-28T06:52:25.000Z</time>
      </trkpt>
      <trkpt lat="44.43676" lon="1.00695">
        <ele>156.5</ele>
        <time>2017-05-28T06:52:26.000Z</time>
      </trkpt>
      <trkpt lat="44.43681" lon="1.00695">
        <ele>156.2</ele>
        <time>2017-05-28T06:52:27.000Z</time>
      </trkpt>
      <trkpt lat="44.43687" lon="1.00695">
        <ele>155.9</ele>
        <time>2017-05-28T06:52:28.000Z</time>
      </trkpt>
      <trkpt lat="44.43693" lon="1.00693">
        <ele>155.7</ele>
        <time>2017-05-28T06:52:29.000Z</time>
      </trkpt>
      <trkpt lat="44.43699" lon="1.00689">
        <ele>155.4</ele>
        <time>2017-05-28T06:52:30.000Z</time>
      </trkpt>
      <trkpt lat="44.43705" lon="1.00684">
        <ele>155.1</ele>
        <time>2017-05-28T06:52:31.000Z</time>
      </trkpt>
      <trkpt lat="44.4371" lon="1.00678">
        <ele>154.8</ele>
        <time>2017-05-28T06:52:32.000Z</time>
      </trkpt>
      <trkpt lat="44.43714" lon="1.0067">
        <ele>154.6</ele>
        <time>2017-05-28T06:52:33.000Z</time>
      </trkpt>
      <trkpt lat="44.43717" lon="1.00661">
        <ele>154.4</ele>
        <time>2017-05-28T06:52:34.000Z</time>
      </trkpt>
      <trkpt lat="44.43719" lon="1.00652">
        <ele>154.3</ele>
        <time>2017-05-28T06:52:35.000Z</time>
      </trkpt>
      <trkpt lat="44.43721" lon="1.00643">
        <ele>154.2</ele>
        <time>2017-05-28T06:52:36.000Z</time>
      </trkpt>
      <trkpt lat="44.43722" lon="1.00634">
        <ele>154.2</ele>
        <time>2017-05-28T06:52:37.000Z</time>
      </trkpt>
      <trkpt lat="44.43722" lon="1.00625">
        <ele>154.2</ele>
        <time>2017-05-28T06:52:38.000Z</time>
      </trkpt>
      <trkpt lat="44.43723" lon="1.00617">
        <ele>154.2</ele>
        <time>2017-05-28T06:52:39.000Z</time>
      </trkpt>
      <trkpt lat="44.43724" lon="1.00609">
        <ele>154.1</ele>
        <time>2017-05-28T06:52:40.000Z</time>
      </trkpt>
      <trkpt lat="44.43726" lon="1.00601">
        <ele>154.1</ele>
        <time>2017-05-28T06:52:41.000Z</time>
      </trkpt>
      <trkpt lat="44.43728" lon="1.00594">
        <ele>154</ele>
        <time>2017-05-28T06:52:42.000Z</time>
      </trkpt>
      <trkpt lat="44.43731" lon="1.00587">
        <ele>153.9</ele>
        <time>2017-05-28T06:52:43.000Z</time>
      </trkpt>
      <trkpt lat="44.43733" lon="1.00582">
        <ele>153.9</ele>
        <time>2017-05-28T06:52:44.000Z</time>
      </trkpt>
      <trkpt lat="44.43736" lon="1.00578">
        <ele>154</ele>
        <time>2017-05-28T06:52:45.000Z</time>
      </trkpt>
      <trkpt lat="44.43739" lon="1.00575">
        <ele>154.1</ele>
        <time>2017-05-28T06:52:46.000Z</time>
      </trkpt>
      <trkpt lat="44.43741" lon="1.00573">
        <ele>154.2</ele>
        <time>2017-05-28T06:52:47.000Z</time>
      </trkpt>
      <trkpt lat="44.43744" lon="1.00573">
        <ele>154.1</ele>
        <time>2017-05-28T06:52:48.000Z</time>
      </trkpt>
      <trkpt lat="44.43746" lon="1.00573">
        <ele>154</ele>
        <time>2017-05-28T06:52:49.000Z</time>
      </trkpt>
      <trkpt lat="44.43748" lon="1.00575">
        <ele>153.8</ele>
        <time>2017-05-28T06:52:50.000Z</time>
      </trkpt>
      <trkpt lat="44.4375" lon="1.00577">
        <ele>153.5</ele>
        <time>2017-05-28T06:52:51.000Z</time>
      </trkpt>
      <trkpt lat="44.43751" lon="1.0058">
        <ele>153.8</ele>
        <time>2017-05-28T06:52:52.000Z</time>
      </trkpt>
      <trkpt lat="44.43753" lon="1.00584">
        <ele>154.2</ele>
        <time>2017-05-28T06:52:53.000Z</time>
      </trkpt>
      <trkpt lat="44.43755" lon="1.00587">
        <ele>154.8</ele>
        <time>2017-05-28T06:52:54.000Z</time>
      </trkpt>
      <trkpt lat="44.43756" lon="1.0059">
        <ele>155.3</ele>
        <time>2017-05-28T06:52:55.000Z</time>
      </trkpt>
      <trkpt lat="44.43757" lon="1.00594">
        <ele>155.7</ele>
        <time>2017-05-28T06:52:56.000Z</time>
      </trkpt>
      <trkpt lat="44.43759" lon="1.00598">
        <ele>156.2</ele>
        <time>2017-05-28T06:52:57.000Z</time>
      </trkpt>
      <trkpt lat="44.4376" lon="1.00601">
        <ele>156.5</ele>
        <time>2017-05-28T06:52:58.000Z</time>
      </trkpt>
      <trkpt lat="44.43761" lon="1.00605">
        <ele>156.8</ele>
        <time>2017-05-28T06:52:59.000Z</time>
      </trkpt>
      <trkpt lat="44.43761" lon="1.00609">
        <ele>157</ele>
        <time>2017-05-28T06:53:00.000Z</time>
      </trkpt>
      <trkpt lat="44.43762" lon="1.00613">
        <ele>157.2</ele>
        <time>2017-05-28T06:53:01.000Z</time>
      </trkpt>
      <trkpt lat="44.43763" lon="1.00617">
        <ele>157.3</ele>
        <time>2017-05-28T06:53:02.000Z</time>
      </trkpt>
      <trkpt lat="44.43763" lon="1.00622">
        <ele>157.4</ele>
        <time>2017-05-28T06:53:03.000Z</time>
      </trkpt>
      <trkpt lat="44.43763" lon="1.00626">
        <ele>157.3</ele>
        <time>2017-05-28T06:53:04.000Z</time>
      </trkpt>
      <trkpt lat="44.43763" lon="1.00631">
        <ele>157.3</ele>
        <time>2017-05-28T06:53:05.000Z</time>
      </trkpt>
      <trkpt lat="44.43763" lon="1.00636">
        <ele>157.1</ele>
        <time>2017-05-28T06:53:06.000Z</time>
      </trkpt>
      <trkpt lat="44.43763" lon="1.0064">
        <ele>156.9</ele>
        <time>2017-05-28T06:53:07.000Z</time>
      </trkpt>
      <trkpt lat="44.43762" lon="1.00645">
        <ele>156.6</ele>
        <time>2017-05-28T06:53:08.000Z</time>
      </trkpt>
      <trkpt lat="44.43761" lon="1.0065">
        <ele>156.2</ele>
        <time>2017-05-28T06:53:09.000Z</time>
      </trkpt>
      <trkpt lat="44.43761" lon="1.00656">
        <ele>155.9</ele>
        <time>2017-05-28T06:53:10.000Z</time>
      </trkpt>
      <trkpt lat="44.4376" lon="1.00661">
        <ele>155.4</ele>
        <time>2017-05-28T06:53:11.000Z</time>
      </trkpt>
      <trkpt lat="44.43759" lon="1.00666">
        <ele>155</ele>
        <time>2017-05-28T06:53:12.000Z</time>
      </trkpt>
      <trkpt lat="44.43758" lon="1.00671">
        <ele>154.7</ele>
        <time>2017-05-28T06:53:13.000Z</time>
      </trkpt>
      <trkpt lat="44.43757" lon="1.00677">
        <ele>154.6</ele>
        <time>2017-05-28T06:53:14.000Z</time>
      </trkpt>
      <trkpt lat="44.43756" lon="1.00682">
        <ele>154.4</ele>
        <time>2017-05-28T06:53:15.000Z</time>
      </trkpt>
      <trkpt lat="44.43755" lon="1.00688">
        <ele>154.2</ele>
        <time>2017-05-28T06:53:16.000Z</time>
      </trkpt>
      <trkpt lat="44.43754" lon="1.00693">
        <ele>154.1</ele>
        <time>2017-05-28T06:53:17.000Z</time>
      </trkpt>
      <trkpt lat="44.43753" lon="1.00699">
        <ele>153.9</ele>
        <time>2017-05-28T06:53:18.000Z</time>
      </trkpt>
      <trkpt lat="44.43752" lon="1.00704">
        <ele>153.7</ele>
        <time>2017-05-28T06:53:19.000Z</time>
      </trkpt>
      <trkpt lat="44.43751" lon="1.00709">
        <ele>153.5</ele>
        <time>2017-05-28T06:53:20.000Z</time>
      </trkpt>
      <trkpt lat="44.4375" lon="1.00715">
        <ele>153.2</ele>
        <time>2017-05-28T06:53:21.000Z</time>
      </trkpt>
      <trkpt lat="44.43749" lon="1.0072">
        <ele>153.3</ele>
        <time>2017-05-28T06:53:22.000Z</time>
      </trkpt>
      <trkpt lat="44.43747" lon="1.00726">
        <ele>153.5</ele>
        <time>2017-05-28T06:53:23.000Z</time>
      </trkpt>
      <trkpt lat="44.43745" lon="1.00731">
        <ele>153.7</ele>
        <time>2017-05-28T06:53:24.000Z</time>
      </trkpt>
      <trkpt lat="44.43744" lon="1.00737">
        <ele>153.8</ele>
        <time>2017-05-28T06:53:25.000Z</time>
      </trkpt>
      <trkpt lat="44.43743" lon="1.00743">
        <ele>153.9</ele>
        <time>2017-05-28T06:53:26.000Z</time>
      </trkpt>
      <trkpt lat="44.43742" lon="1.00749">
        <ele>154.1</ele>
        <time>2017-05-28T06:53:27.000Z</time>
      </trkpt>
      <trkpt lat="44.43741" lon="1.00755">
        <ele>154.4</ele>
        <time>2017-05-28T06:53:28.000Z</time>
      </trkpt>
      <trkpt lat="44.43741" lon="1.00761">
        <ele>154.9</ele>
        <time>2017-05-28T06:53:29.000Z</time>
      </trkpt>
      <trkpt lat="44.43742" lon="1.00768">
        <ele>155.4</ele>
        <time>2017-05-28T06:53:30.000Z</time>
      </trkpt>
      <trkpt lat="44.43743" lon="1.00775">
        <ele>155.8</ele>
        <time>2017-05-28T06:53:31.000Z</time>
      </trkpt>
      <trkpt lat="44.43745" lon="1.00783">
        <ele>156.2</ele>
        <time>2017-05-28T06:53:32.000Z</time>
      </trkpt>
      <trkpt lat="44.43747" lon="1.0079">
        <ele>156.6</ele>
        <time>2017-05-28T06:53:33.000Z</time>
      </trkpt>
      <trkpt lat="44.43749" lon="1.00798">
        <ele>156.9</ele>
        <time>2017-05-28T06:53:34.000Z</time>
      </trkpt>
      <trkpt lat="44.43751" lon="1.00805">
        <ele>157.6</ele>
        <time>2017-05-28T06:53:35.000Z</time>
      </trkpt>
      <trkpt lat="44.43753" lon="1.00812">
        <ele>158.6</ele>
        <time>2017-05-28T06:53:36.000Z</time>
      </trkpt>
      <trkpt lat="44.43755" lon="1.00819">
        <ele>159.4</ele>
        <time>2017-05-28T06:53:37.000Z</time>
      </trkpt>
      <trkpt lat="44.43757" lon="1.00826">
        <ele>160.2</ele>
        <time>2017-05-28T06:53:38.000Z</time>
      </trkpt>
      <trkpt lat="44.43759" lon="1.00832">
        <ele>160.9</ele>
        <time>2017-05-28T06:53:39.000Z</time>
      </trkpt>
      <trkpt lat="44.4376" lon="1.00838">
        <ele>161.5</ele>
        <time>2017-05-28T06:53:40.000Z</time>
      </trkpt>
      <trkpt lat="44.43762" lon="1.00843">
        <ele>162</ele>
        <time>2017-05-28T06:53:41.000Z</time>
      </trkpt>
      <trkpt lat="44.43763" lon="1.00847">
        <ele>162.5</ele>
        <time>2017-05-28T06:53:42.000Z</time>
      </trkpt>
      <trkpt lat="44.43764" lon="1.00851">
        <ele>162.9</ele>
        <time>2017-05-28T06:53:43.000Z</time>
      </trkpt>
      <trkpt lat="44.43766" lon="1.00854">
        <ele>163.3</ele>
        <time>2017-05-28T06:53:44.000Z</time>
      </trkpt>
      <trkpt lat="44.43767" lon="1.00856">
        <ele>163.7</ele>
        <time>2017-05-28T06:53:45.000Z</time>
      </trkpt>
      <trkpt lat="44.43769" lon="1.00858">
        <ele>164</ele>
        <time>2017-05-28T06:53:46.000Z</time>
      </trkpt>
      <trkpt lat="44.4377" lon="1.0086">
        <ele>164.4</ele>
        <time>2017-05-28T06:53:47.000Z</time>
      </trkpt>
      <trkpt lat="44.43772" lon="1.00861">
        <ele>164.7</ele>
        <time>2017-05-28T06:53:48.000Z</time>
      </trkpt>
      <trkpt lat="44.43773" lon="1.00862">
        <ele>165</ele>
        <time>2017-05-28T06:53:49.000Z</time>
      </trkpt>
      <trkpt lat="44.43775" lon="1.00863">
        <ele>165.3</ele>
        <time>2017-05-28T06:53:50.000Z</time>
      </trkpt>
      <trkpt lat="44.43776" lon="1.00865">
        <ele>165.5</ele>
        <time>2017-05-28T06:53:51.000Z</time>
      </trkpt>
      <trkpt lat="44.43778" lon="1.00866">
        <ele>165.8</ele>
        <time>2017-05-28T06:53:52.000Z</time>
      </trkpt>
      <trkpt lat="44.43779" lon="1.00868">
        <ele>166.1</ele>
        <time>2017-05-28T06:53:53.000Z</time>
      </trkpt>
      <trkpt lat="44.4378" lon="1.0087">
        <ele>166.3</ele>
        <time>2017-05-28T06:53:54.000Z</time>
      </trkpt>
      <trkpt lat="44.43782" lon="1.00872">
        <ele>166.6</ele>
        <time>2017-05-28T06:53:55.000Z</time>
      </trkpt>
      <trkpt lat="44.43783" lon="1.00874">
        <ele>166.8</ele>
        <time>2017-05-28T06:53:56.000Z</time>
      </trkpt>
      <trkpt lat="44.43784" lon="1.00876">
        <ele>167</ele>
        <time>2017-05-28T06:53:57.000Z</time>
      </trkpt>
      <trkpt lat="44.43785" lon="1.00878">
        <ele>167.2</ele>
        <time>2017-05-28T06:53:58.000Z</time>
      </trkpt>
      <trkpt lat="44.43787" lon="1.0088">
        <ele>167.4</ele>
        <time>2017-05-28T06:53:59.000Z</time>
      </trkpt>
      <trkpt lat="44.43788" lon="1.00883">
        <ele>167.6</ele>
        <time>2017-05-28T06:54:00.000Z</time>
      </trkpt>
      <trkpt lat="44.43789" lon="1.00885">
        <ele>167.8</ele>
        <time>2017-05-28T06:54:01.000Z</time>
      </trkpt>
      <trkpt lat="44.4379" lon="1.00887">
        <ele>168</ele>
        <time>2017-05-28T06:54:02.000Z</time>
      </trkpt>
      <trkpt lat="44.43792" lon="1.00889">
        <ele>168.2</ele>
        <time>2017-05-28T06:54:03.000Z</time>
      </trkpt>
      <trkpt lat="44.43793" lon="1.00891">
        <ele>168.4</ele>
        <time>2017-05-28T06:54:04.000Z</time>
      </trkpt>
      <trkpt lat="44.43794" lon="1.00892">
        <ele>168.5</ele>
        <time>2017-05-28T06:54:05.000Z</time>
      </trkpt>
      <trkpt lat="44.43796" lon="1.00894">
        <ele>168.7</ele>
        <time>2017-05-28T06:54:06.000Z</time>
      </trkpt>
      <trkpt lat="44.43797" lon="1.00896">
        <ele>168.8</ele>
        <time>2017-05-28T06:54:07.000Z</time>
      </trkpt>
      <trkpt lat="44.43799" lon="1.00898">
        <ele>169</ele>
        <time>2017-05-28T06:54:08.000Z</time>
      </trkpt>
      <trkpt lat="44.438" lon="1.00899">
        <ele>169.1</ele>
        <time>2017-05-28T06:54:09.000Z</time>
      </trkpt>
      <trkpt lat="44.43801" lon="1.00901">
        <ele>169.2</ele>
        <time>2017-05-28T06:54:10.000Z</time>
      </trkpt>
      <trkpt lat="44.43802" lon="1.00903">
        <ele>169.3</ele>
        <time>2017-05-28T06:54:11.000Z</time>
      </trkpt>
      <trkpt lat="44.43803" lon="1.00906">
        <ele>169.4</ele>
        <time>2017-05-28T06:54:12.000Z</time>
      </trkpt>
      <trkpt lat="44.43804" lon="1.00908">
        <ele>169.5</ele>
        <time>2017-05-28T06:54:13.000Z</time>
      </trkpt>
      <trkpt lat="44.43805" lon="1.00909">
        <ele>169.5</ele>
        <time>2017-05-28T06:54:14.000Z</time>
      </trkpt>
      <trkpt lat="44.43806" lon="1.0091">
        <ele>169.6</ele>
        <time>2017-05-28T06:54:15.000Z</time>
      </trkpt>
      <trkpt lat="44.43807" lon="1.0091">
        <ele>169.7</ele>
        <time>2017-05-28T06:54:16.000Z</time>
      </trkpt>
      <trkpt lat="44.43808" lon="1.00909">
        <ele>169.8</ele>
        <time>2017-05-28T06:54:17.000Z</time>
      </trkpt>
      <trkpt lat="44.43809" lon="1.00907">
        <ele>169.9</ele>
        <time>2017-05-28T06:54:18.000Z</time>
      </trkpt>
      <trkpt lat="44.43809" lon="1.00906">
        <ele>170</ele>
        <time>2017-05-28T06:54:19.000Z</time>
      </trkpt>
      <trkpt lat="44.43809" lon="1.00904">
        <ele>170.1</ele>
        <time>2017-05-28T06:54:20.000Z</time>
      </trkpt>
      <trkpt lat="44.43809" lon="1.00902">
        <ele>170.2</ele>
        <time>2017-05-28T06:54:21.000Z</time>
      </trkpt>
      <trkpt lat="44.43809" lon="1.00899">
        <ele>170.3</ele>
        <time>2017-05-28T06:54:22.000Z</time>
      </trkpt>
      <trkpt lat="44.43809" lon="1.00897">
        <ele>170.3</ele>
        <time>2017-05-28T06:54:23.000Z</time>
      </trkpt>
      <trkpt lat="44.43809" lon="1.00895">
        <ele>170.4</ele>
        <time>2017-05-28T06:54:24.000Z</time>
      </trkpt>
      <trkpt lat="44.43809" lon="1.00892">
        <ele>170.4</ele>
        <time>2017-05-28T06:54:25.000Z</time>
      </trkpt>
      <trkpt lat="44.43808" lon="1.0089">
        <ele>170.5</ele>
        <time>2017-05-28T06:54:26.000Z</time>
      </trkpt>
      <trkpt lat="44.43808" lon="1.00887">
        <ele>170.5</ele>
        <time>2017-05-28T06:54:27.000Z</time>
      </trkpt>
      <trkpt lat="44.43807" lon="1.00884">
        <ele>170.5</ele>
        <time>2017-05-28T06:54:28.000Z</time>
      </trkpt>
      <trkpt lat="44.43807" lon="1.00882">
        <ele>170.5</ele>
        <time>2017-05-28T06:54:29.000Z</time>
      </trkpt>
      <trkpt lat="44.43806" lon="1.00879">
        <ele>170.5</ele>
        <time>2017-05-28T06:54:30.000Z</time>
      </trkpt>
      <trkpt lat="44.43806" lon="1.00876">
        <ele>170.5</ele>
        <time>2017-05-28T06:54:31.000Z</time>
      </trkpt>
      <trkpt lat="44.43805" lon="1.00874">
        <ele>170.5</ele>
        <time>2017-05-28T06:54:32.000Z</time>
      </trkpt>
      <trkpt lat="44.43805" lon="1.00871">
        <ele>170.5</ele>
        <time>2017-05-28T06:54:33.000Z</time>
      </trkpt>
      <trkpt lat="44.43805" lon="1.00869">
        <ele>170.5</ele>
        <time>2017-05-28T06:54:34.000Z</time>
      </trkpt>
      <trkpt lat="44.43804" lon="1.00866">
        <ele>170.5</ele>
        <time>2017-05-28T06:54:35.000Z</time>
      </trkpt>
      <trkpt lat="44.43804" lon="1.00864">
        <ele>170.5</ele>
        <time>2017-05-28T06:54:36.000Z</time>
      </trkpt>
      <trkpt lat="44.43804" lon="1.00861">
        <ele>170.6</ele>
        <time>2017-05-28T06:54:37.000Z</time>
      </trkpt>
      <trkpt lat="44.43804" lon="1.00859">
        <ele>170.6</ele>
        <time>2017-05-28T06:54:38.000Z</time>
      </trkpt>
      <trkpt lat="44.43803" lon="1.00856">
        <ele>170.6</ele>
        <time>2017-05-28T06:54:39.000Z</time>
      </trkpt>
      <trkpt lat="44.43803" lon="1.00854">
        <ele>170.6</ele>
        <time>2017-05-28T06:54:40.000Z</time>
      </trkpt>
      <trkpt lat="44.43803" lon="1.00851">
        <ele>170.7</ele>
        <time>2017-05-28T06:54:41.000Z</time>
      </trkpt>
      <trkpt lat="44.43803" lon="1.00849">
        <ele>170.7</ele>
        <time>2017-05-28T06:54:42.000Z</time>
      </trkpt>
      <trkpt lat="44.43803" lon="1.00847">
        <ele>170.7</ele>
        <time>2017-05-28T06:54:43.000Z</time>
      </trkpt>
      <trkpt lat="44.43803" lon="1.00844">
        <ele>170.8</ele>
        <time>2017-05-28T06:54:44.000Z</time>
      </trkpt>
      <trkpt lat="44.43803" lon="1.00842">
        <ele>170.8</ele>
        <time>2017-05-28T06:54:45.000Z</time>
      </trkpt>
      <trkpt lat="44.43802" lon="1.0084">
        <ele>170.8</ele>
        <time>2017-05-28T06:54:46.000Z</time>
      </trkpt>
      <trkpt lat="44.43802" lon="1.00838">
        <ele>170.8</ele>
        <time>2017-05-28T06:54:47.000Z</time>
      </trkpt>
      <trkpt lat="44.43802" lon="1.00835">
        <ele>170.8</ele>
        <time>2017-05-28T06:54:48.000Z</time>
      </trkpt>
      <trkpt lat="44.43802" lon="1.00833">
        <ele>170.8</ele>
        <time>2017-05-28T06:54:49.000Z</time>
      </trkpt>
      <trkpt lat="44.43802" lon="1.00831">
        <ele>170.7</ele>
        <time>2017-05-28T06:54:50.000Z</time>
      </trkpt>
      <trkpt lat="44.43801" lon="1.00829">
        <ele>170.7</ele>
        <time>2017-05-28T06:54:51.000Z</time>
      </trkpt>
      <trkpt lat="44.43801" lon="1.00826">
        <ele>170.7</ele>
        <time>2017-05-28T06:54:52.000Z</time>
      </trkpt>
      <trkpt lat="44.43802" lon="1.00824">
        <ele>170.7</ele>
        <time>2017-05-28T06:54:53.000Z</time>
      </trkpt>
      <trkpt lat="44.43802" lon="1.00822">
        <ele>170.8</ele>
        <time>2017-05-28T06:54:54.000Z</time>
      </trkpt>
      <trkpt lat="44.43802" lon="1.0082">
        <ele>170.9</ele>
        <time>2017-05-28T06:54:55.000Z</time>
      </trkpt>
      <trkpt lat="44.43803" lon="1.00818">
        <ele>171</ele>
        <time>2017-05-28T06:54:56.000Z</time>
      </trkpt>
      <trkpt lat="44.43803" lon="1.00815">
        <ele>171.1</ele>
        <time>2017-05-28T06:54:57.000Z</time>
      </trkpt>
      <trkpt lat="44.43804" lon="1.00813">
        <ele>171.2</ele>
        <time>2017-05-28T06:54:58.000Z</time>
      </trkpt>
      <trkpt lat="44.43804" lon="1.00811">
        <ele>171.4</ele>
        <time>2017-05-28T06:54:59.000Z</time>
      </trkpt>
      <trkpt lat="44.43805" lon="1.00809">
        <ele>171.5</ele>
        <time>2017-05-28T06:55:00.000Z</time>
      </trkpt>
      <trkpt lat="44.43805" lon="1.00806">
        <ele>171.6</ele>
        <time>2017-05-28T06:55:01.000Z</time>
      </trkpt>
      <trkpt lat="44.43805" lon="1.00804">
        <ele>171.7</ele>
        <time>2017-05-28T06:55:02.000Z</time>
      </trkpt>
      <trkpt lat="44.43806" lon="1.00802">
        <ele>171.8</ele>
        <time>2017-05-28T06:55:03.000Z</time>
      </trkpt>
      <trkpt lat="44.43806" lon="1.008">
        <ele>171.9</ele>
        <time>2017-05-28T06:55:04.000Z</time>
      </trkpt>
      <trkpt lat="44.43806" lon="1.00797">
        <ele>172</ele>
        <time>2017-05-28T06:55:05.000Z</time>
      </trkpt>
      <trkpt lat="44.43807" lon="1.00795">
        <ele>172.1</ele>
        <time>2017-05-28T06:55:06.000Z</time>
      </trkpt>
      <trkpt lat="44.43807" lon="1.00793">
        <ele>172.1</ele>
        <time>2017-05-28T06:55:07.000Z</time>
      </trkpt>
      <trkpt lat="44.43807" lon="1.00791">
        <ele>172.2</ele>
        <time>2017-05-28T06:55:08.000Z</time>
      </trkpt>
      <trkpt lat="44.43807" lon="1.00789">
        <ele>172.2</ele>
        <time>2017-05-28T06:55:09.000Z</time>
      </trkpt>
      <trkpt lat="44.43807" lon="1.00787">
        <ele>172.2</ele>
        <time>2017-05-28T06:55:10.000Z</time>
      </trkpt>
      <trkpt lat="44.43807" lon="1.00785">
        <ele>172.2</ele>
        <time>2017-05-28T06:55:11.000Z</time>
      </trkpt>
      <trkpt lat="44.43807" lon="1.00782">
        <ele>172.3</ele>
        <time>2017-05-28T06:55:12.000Z</time>
      </trkpt>
      <trkpt lat="44.43807" lon="1.0078">
        <ele>172.4</ele>
        <time>2017-05-28T06:55:13.000Z</time>
      </trkpt>
      <trkpt lat="44.43808" lon="1.00777">
        <ele>172.7</ele>
        <time>2017-05-28T06:55:14.000Z</time>
      </trkpt>
      <trkpt lat="44.4381" lon="1.00776">
        <ele>173.2</ele>
        <time>2017-05-28T06:55:15.000Z</time>
      </trkpt>
      <trkpt lat="44.43812" lon="1.00776">
        <ele>173.7</ele>
        <time>2017-05-28T06:55:16.000Z</time>
      </trkpt>
      <trkpt lat="44.43813" lon="1.00778">
        <ele>174</ele>
        <time>2017-05-28T06:55:17.000Z</time>
      </trkpt>
      <trkpt lat="44.43813" lon="1.0078">
        <ele>174.1</ele>
        <time>2017-05-28T06:55:18.000Z</time>
      </trkpt>
      <trkpt lat="44.43813" lon="1.00783">
        <ele>174.1</ele>
        <time>2017-05-28T06:55:19.000Z</time>
      </trkpt>
      <trkpt lat="44.43814" lon="1.00785">
        <ele>174.2</ele>
        <time>2017-05-28T06:55:20.000Z</time>
      </trkpt>
      <trkpt lat="44.43814" lon="1.00788">
        <ele>174.3</ele>
        <time>2017-05-28T06:55:21.000Z</time>
      </trkpt>
      <trkpt lat="44.43815" lon="1.0079">
        <ele>174.4</ele>
        <time>2017-05-28T06:55:22.000Z</time>
      </trkpt>
      <trkpt lat="44.43816" lon="1.00793">
        <ele>174.6</ele>
        <time>2017-05-28T06:55:23.000Z</time>
      </trkpt>
      <trkpt lat="44.43816" lon="1.00795">
        <ele>174.7</ele>
        <time>2017-05-28T06:55:24.000Z</time>
      </trkpt>
      <trkpt lat="44.43817" lon="1.00797">
        <ele>174.9</ele>
        <time>2017-05-28T06:55:25.000Z</time>
      </trkpt>
      <trkpt lat="44.43818" lon="1.00799">
        <ele>175.2</ele>
        <time>2017-05-28T06:55:26.000Z</time>
      </trkpt>
      <trkpt lat="44.43819" lon="1.00801">
        <ele>175.3</ele>
        <time>2017-05-28T06:55:27.000Z</time>
      </trkpt>
      <trkpt lat="44.4382" lon="1.00803">
        <ele>175.4</ele>
        <time>2017-05-28T06:55:28.000Z</time>
      </trkpt>
      <trkpt lat="44.4382" lon="1.00805">
        <ele>175.5</ele>
        <time>2017-05-28T06:55:29.000Z</time>
      </trkpt>
      <trkpt lat="44.43821" lon="1.00807">
        <ele>175.7</ele>
        <time>2017-05-28T06:55:30.000Z</time>
      </trkpt>
      <trkpt lat="44.43821" lon="1.00809">
        <ele>175.7</ele>
        <time>2017-05-28T06:55:31.000Z</time>
      </trkpt>
      <trkpt lat="44.43822" lon="1.00811">
        <ele>175.9</ele>
        <time>2017-05-28T06:55:32.000Z</time>
      </trkpt>
      <trkpt lat="44.43823" lon="1.00812">
        <ele>176.1</ele>
        <time>2017-05-28T06:55:33.000Z</time>
      </trkpt>
      <trkpt lat="44.43824" lon="1.00812">
        <ele>176.3</ele>
        <time>2017-05-28T06:55:34.000Z</time>
      </trkpt>
      <trkpt lat="44.43824" lon="1.00812">
        <ele>176.5</ele>
        <time>2017-05-28T06:55:35.000Z</time>
      </trkpt>
      <trkpt lat="44.43825" lon="1.00811">
        <ele>176.7</ele>
        <time>2017-05-28T06:55:36.000Z</time>
      </trkpt>
      <trkpt lat="44.43825" lon="1.0081">
        <ele>176.8</ele>
        <time>2017-05-28T06:55:37.000Z</time>
      </trkpt>
      <trkpt lat="44.43825" lon="1.00807">
        <ele>176.8</ele>
        <time>2017-05-28T06:55:38.000Z</time>
      </trkpt>
      <trkpt lat="44.43825" lon="1.00805">
        <ele>176.9</ele>
        <time>2017-05-28T06:55:39.000Z</time>
      </trkpt>
      <trkpt lat="44.43825" lon="1.00802">
        <ele>176.9</ele>
        <time>2017-05-28T06:55:40.000Z</time>
      </trkpt>
      <trkpt lat="44.43825" lon="1.00799">
        <ele>177.1</ele>
        <time>2017-05-28T06:55:41.000Z</time>
      </trkpt>
      <trkpt lat="44.43826" lon="1.00797">
        <ele>177.2</ele>
        <time>2017-05-28T06:55:42.000Z</time>
      </trkpt>
      <trkpt lat="44.43826" lon="1.00795">
        <ele>177.4</ele>
        <time>2017-05-28T06:55:43.000Z</time>
      </trkpt>
      <trkpt lat="44.43826" lon="1.00792">
        <ele>177.6</ele>
        <time>2017-05-28T06:55:44.000Z</time>
      </trkpt>
      <trkpt lat="44.43827" lon="1.0079">
        <ele>177.8</ele>
        <time>2017-05-28T06:55:45.000Z</time>
      </trkpt>
      <trkpt lat="44.43827" lon="1.00787">
        <ele>177.9</ele>
        <time>2017-05-28T06:55:46.000Z</time>
      </trkpt>
      <trkpt lat="44.43828" lon="1.00785">
        <ele>178.1</ele>
        <time>2017-05-28T06:55:47.000Z</time>
      </trkpt>
      <trkpt lat="44.43828" lon="1.00782">
        <ele>178.3</ele>
        <time>2017-05-28T06:55:48.000Z</time>
      </trkpt>
      <trkpt lat="44.43828" lon="1.0078">
        <ele>178.4</ele>
        <time>2017-05-28T06:55:49.000Z</time>
      </trkpt>
      <trkpt lat="44.43829" lon="1.00777">
        <ele>178.6</ele>
        <time>2017-05-28T06:55:50.000Z</time>
      </trkpt>
      <trkpt lat="44.43829" lon="1.00775">
        <ele>178.8</ele>
        <time>2017-05-28T06:55:51.000Z</time>
      </trkpt>
      <trkpt lat="44.43829" lon="1.00772">
        <ele>178.9</ele>
        <time>2017-05-28T06:55:52.000Z</time>
      </trkpt>
      <trkpt lat="44.43829" lon="1.0077">
        <ele>179.1</ele>
        <time>2017-05-28T06:55:53.000Z</time>
      </trkpt>
      <trkpt lat="44.4383" lon="1.00767">
        <ele>179.2</ele>
        <time>2017-05-28T06:55:54.000Z</time>
      </trkpt>
      <trkpt lat="44.4383" lon="1.00765">
        <ele>179.4</ele>
        <time>2017-05-28T06:55:55.000Z</time>
      </trkpt>
      <trkpt lat="44.4383" lon="1.00762">
        <ele>179.6</ele>
        <time>2017-05-28T06:55:56.000Z</time>
      </trkpt>
      <trkpt lat="44.43831" lon="1.0076">
        <ele>179.8</ele>
        <time>2017-05-28T06:55:57.000Z</time>
      </trkpt>
      <trkpt lat="44.43831" lon="1.00757">
        <ele>179.9</ele>
        <time>2017-05-28T06:55:58.000Z</time>
      </trkpt>
      <trkpt lat="44.43831" lon="1.00755">
        <ele>180.1</ele>
        <time>2017-05-28T06:55:59.000Z</time>
      </trkpt>
      <trkpt lat="44.43831" lon="1.00752">
        <ele>180.3</ele>
        <time>2017-05-28T06:56:00.000Z</time>
      </trkpt>
      <trkpt lat="44.43832" lon="1.0075">
        <ele>180.5</ele>
        <time>2017-05-28T06:56:01.000Z</time>
      </trkpt>
      <trkpt lat="44.43832" lon="1.00748">
        <ele>180.6</ele>
        <time>2017-05-28T06:56:02.000Z</time>
      </trkpt>
      <trkpt lat="44.43832" lon="1.00745">
        <ele>180.7</ele>
        <time>2017-05-28T06:56:03.000Z</time>
      </trkpt>
      <trkpt lat="44.43833" lon="1.00743">
        <ele>180.8</ele>
        <time>2017-05-28T06:56:04.000Z</time>
      </trkpt>
      <trkpt lat="44.43833" lon="1.00741">
        <ele>180.9</ele>
        <time>2017-05-28T06:56:05.000Z</time>
      </trkpt>
      <trkpt lat="44.43834" lon="1.00738">
        <ele>181.1</ele>
        <time>2017-05-28T06:56:06.000Z</time>
      </trkpt>
      <trkpt lat="44.43834" lon="1.00736">
        <ele>181.2</ele>
        <time>2017-05-28T06:56:07.000Z</time>
      </trkpt>
      <trkpt lat="44.43834" lon="1.00734">
        <ele>181.3</ele>
        <time>2017-05-28T06:56:08.000Z</time>
      </trkpt>
      <trkpt lat="44.43835" lon="1.00732">
        <ele>181.5</ele>
        <time>2017-05-28T06:56:09.000Z</time>
      </trkpt>
      <trkpt lat="44.43835" lon="1.00729">
        <ele>181.6</ele>
        <time>2017-05-28T06:56:10.000Z</time>
      </trkpt>
      <trkpt lat="44.43835" lon="1.00727">
        <ele>181.7</ele>
        <time>2017-05-28T06:56:11.000Z</time>
      </trkpt>
      <trkpt lat="44.43836" lon="1.00725">
        <ele>181.8</ele>
        <time>2017-05-28T06:56:12.000Z</time>
      </trkpt>
      <trkpt lat="44.43836" lon="1.00723">
        <ele>182</ele>
        <time>2017-05-28T06:56:13.000Z</time>
      </trkpt>
      <trkpt lat="44.43836" lon="1.00721">
        <ele>182.1</ele>
        <time>2017-05-28T06:56:14.000Z</time>
      </trkpt>
      <trkpt lat="44.43837" lon="1.00719">
        <ele>182.2</ele>
        <time>2017-05-28T06:56:15.000Z</time>
      </trkpt>
      <trkpt lat="44.43837" lon="1.00717">
        <ele>182.3</ele>
        <time>2017-05-28T06:56:16.000Z</time>
      </trkpt>
      <trkpt lat="44.43837" lon="1.00714">
        <ele>182.4</ele>
        <time>2017-05-28T06:56:17.000Z</time>
      </trkpt>
      <trkpt lat="44.43838" lon="1.00712">
        <ele>182.5</ele>
        <time>2017-05-28T06:56:18.000Z</time>
      </trkpt>
      <trkpt lat="44.43838" lon="1.0071">
        <ele>182.7</ele>
        <time>2017-05-28T06:56:19.000Z</time>
      </trkpt>
      <trkpt lat="44.43838" lon="1.00708">
        <ele>182.8</ele>
        <time>2017-05-28T06:56:20.000Z</time>
      </trkpt>
      <trkpt lat="44.43839" lon="1.00705">
        <ele>182.9</ele>
        <time>2017-05-28T06:56:21.000Z</time>
      </trkpt>
      <trkpt lat="44.43839" lon="1.00703">
        <ele>183</ele>
        <time>2017-05-28T06:56:22.000Z</time>
      </trkpt>
      <trkpt lat="44.43839" lon="1.00701">
        <ele>183.1</ele>
        <time>2017-05-28T06:56:23.000Z</time>
      </trkpt>
      <trkpt lat="44.4384" lon="1.00698">
        <ele>183.3</ele>
        <time>2017-05-28T06:56:24.000Z</time>
      </trkpt>
      <trkpt lat="44.4384" lon="1.00696">
        <ele>183.4</ele>
        <time>2017-05-28T06:56:25.000Z</time>
      </trkpt>
      <trkpt lat="44.4384" lon="1.00694">
        <ele>183.5</ele>
        <time>2017-05-28T06:56:26.000Z</time>
      </trkpt>
      <trkpt lat="44.43841" lon="1.00692">
        <ele>183.7</ele>
        <time>2017-05-28T06:56:27.000Z</time>
      </trkpt>
      <trkpt lat="44.43841" lon="1.0069">
        <ele>183.8</ele>
        <time>2017-05-28T06:56:28.000Z</time>
      </trkpt>
      <trkpt lat="44.43841" lon="1.00688">
        <ele>183.9</ele>
        <time>2017-05-28T06:56:29.000Z</time>
      </trkpt>
      <trkpt lat="44.43842" lon="1.00686">
        <ele>184</ele>
        <time>2017-05-28T06:56:30.000Z</time>
      </trkpt>
      <trkpt lat="44.43842" lon="1.00684">
        <ele>184.1</ele>
        <time>2017-05-28T06:56:31.000Z</time>
      </trkpt>
      <trkpt lat="44.43842" lon="1.00682">
        <ele>184.2</ele>
        <time>2017-05-28T06:56:32.000Z</time>
      </trkpt>
      <trkpt lat="44.43842" lon="1.00679">
        <ele>184.2</ele>
        <time>2017-05-28T06:56:33.000Z</time>
      </trkpt>
      <trkpt lat="44.43843" lon="1.00677">
        <ele>184.3</ele>
        <time>2017-05-28T06:56:34.000Z</time>
      </trkpt>
      <trkpt lat="44.43843" lon="1.00675">
        <ele>184.4</ele>
        <time>2017-05-28T06:56:35.000Z</time>
      </trkpt>
      <trkpt lat="44.43843" lon="1.00673">
        <ele>184.4</ele>
        <time>2017-05-28T06:56:36.000Z</time>
      </trkpt>
      <trkpt lat="44.43843" lon="1.00671">
        <ele>184.5</ele>
        <time>2017-05-28T06:56:37.000Z</time>
      </trkpt>
      <trkpt lat="44.43843" lon="1.00668">
        <ele>184.6</ele>
        <time>2017-05-28T06:56:38.000Z</time>
      </trkpt>
      <trkpt lat="44.43844" lon="1.00666">
        <ele>184.8</ele>
        <time>2017-05-28T06:56:39.000Z</time>
      </trkpt>
      <trkpt lat="44.43844" lon="1.00664">
        <ele>185.1</ele>
        <time>2017-05-28T06:56:40.000Z</time>
      </trkpt>
      <trkpt lat="44.43845" lon="1.00662">
        <ele>185.3</ele>
        <time>2017-05-28T06:56:41.000Z</time>
      </trkpt>
      <trkpt lat="44.43845" lon="1.00659">
        <ele>185.6</ele>
        <time>2017-05-28T06:56:42.000Z</time>
      </trkpt>
      <trkpt lat="44.43845" lon="1.00657">
        <ele>185.8</ele>
        <time>2017-05-28T06:56:43.000Z</time>
      </trkpt>
      <trkpt lat="44.43845" lon="1.00656">
        <ele>185.9</ele>
        <time>2017-05-28T06:56:44.000Z</time>
      </trkpt>
      <trkpt lat="44.43845" lon="1.00654">
        <ele>185.9</ele>
        <time>2017-05-28T06:56:45.000Z</time>
      </trkpt>
      <trkpt lat="44.43845" lon="1.00652">
        <ele>186</ele>
        <time>2017-05-28T06:56:46.000Z</time>
      </trkpt>
      <trkpt lat="44.43845" lon="1.0065">
        <ele>186</ele>
        <time>2017-05-28T06:56:47.000Z</time>
      </trkpt>
      <trkpt lat="44.43845" lon="1.00648">
        <ele>186.2</ele>
        <time>2017-05-28T06:56:48.000Z</time>
      </trkpt>
      <trkpt lat="44.43845" lon="1.00646">
        <ele>186.3</ele>
        <time>2017-05-28T06:56:49.000Z</time>
      </trkpt>
      <trkpt lat="44.43846" lon="1.00643">
        <ele>186.5</ele>
        <time>2017-05-28T06:56:50.000Z</time>
      </trkpt>
      <trkpt lat="44.43846" lon="1.00641">
        <ele>186.7</ele>
        <time>2017-05-28T06:56:51.000Z</time>
      </trkpt>
      <trkpt lat="44.43846" lon="1.00638">
        <ele>186.9</ele>
        <time>2017-05-28T06:56:52.000Z</time>
      </trkpt>
      <trkpt lat="44.43846" lon="1.00636">
        <ele>187.1</ele>
        <time>2017-05-28T06:56:53.000Z</time>
      </trkpt>
      <trkpt lat="44.43846" lon="1.00633">
        <ele>187.2</ele>
        <time>2017-05-28T06:56:54.000Z</time>
      </trkpt>
      <trkpt lat="44.43846" lon="1.00631">
        <ele>187.4</ele>
        <time>2017-05-28T06:56:55.000Z</time>
      </trkpt>
      <trkpt lat="44.43847" lon="1.00629">
        <ele>187.5</ele>
        <time>2017-05-28T06:56:56.000Z</time>
      </trkpt>
      <trkpt lat="44.43847" lon="1.00626">
        <ele>187.7</ele>
        <time>2017-05-28T06:56:57.000Z</time>
      </trkpt>
      <trkpt lat="44.43847" lon="1.00624">
        <ele>187.8</ele>
        <time>2017-05-28T06:56:58.000Z</time>
      </trkpt>
      <trkpt lat="44.43847" lon="1.00622">
        <ele>187.9</ele>
        <time>2017-05-28T06:56:59.000Z</time>
      </trkpt>
      <trkpt lat="44.43847" lon="1.00619">
        <ele>188</ele>
        <time>2017-05-28T06:57:00.000Z</time>
      </trkpt>
      <trkpt lat="44.43847" lon="1.00617">
        <ele>188.1</ele>
        <time>2017-05-28T06:57:01.000Z</time>
      </trkpt>
      <trkpt lat="44.43847" lon="1.00615">
        <ele>188.3</ele>
        <time>2017-05-28T06:57:02.000Z</time>
      </trkpt>
      <trkpt lat="44.43847" lon="1.00613">
        <ele>188.3</ele>
        <time>2017-05-28T06:57:03.000Z</time>
      </trkpt>
      <trkpt lat="44.43847" lon="1.0061">
        <ele>188.4</ele>
        <time>2017-05-28T06:57:04.000Z</time>
      </trkpt>
      <trkpt lat="44.43847" lon="1.00608">
        <ele>188.5</ele>
        <time>2017-05-28T06:57:05.000Z</time>
      </trkpt>
      <trkpt lat="44.43847" lon="1.00606">
        <ele>188.6</ele>
        <time>2017-05-28T06:57:06.000Z</time>
      </trkpt>
      <trkpt lat="44.43847" lon="1.00604">
        <ele>188.7</ele>
        <time>2017-05-28T06:57:07.000Z</time>
      </trkpt>
      <trkpt lat="44.43846" lon="1.00602">
        <ele>188.8</ele>
        <time>2017-05-28T06:57:08.000Z</time>
      </trkpt>
      <trkpt lat="44.43846" lon="1.00599">
        <ele>188.8</ele>
        <time>2017-05-28T06:57:09.000Z</time>
      </trkpt>
      <trkpt lat="44.43846" lon="1.00597">
        <ele>188.9</ele>
        <time>2017-05-28T06:57:10.000Z</time>
      </trkpt>
      <trkpt lat="44.43846" lon="1.00595">
        <ele>188.9</ele>
        <time>2017-05-28T06:57:11.000Z</time>
      </trkpt>
      <trkpt lat="44.43846" lon="1.00593">
        <ele>189</ele>
        <time>2017-05-28T06:57:12.000Z</time>
      </trkpt>
      <trkpt lat="44.43846" lon="1.00591">
        <ele>189.1</ele>
        <time>2017-05-28T06:57:13.000Z</time>
      </trkpt>
      <trkpt lat="44.43846" lon="1.00588">
        <ele>189.1</ele>
        <time>2017-05-28T06:57:14.000Z</time>
      </trkpt>
      <trkpt lat="44.43845" lon="1.00586">
        <ele>189.2</ele>
        <time>2017-05-28T06:57:15.000Z</time>
      </trkpt>
      <trkpt lat="44.43845" lon="1.00584">
        <ele>189.3</ele>
        <time>2017-05-28T06:57:16.000Z</time>
      </trkpt>
      <trkpt lat="44.43845" lon="1.00582">
        <ele>189.3</ele>
        <time>2017-05-28T06:57:17.000Z</time>
      </trkpt>
      <trkpt lat="44.43845" lon="1.00579">
        <ele>189.4</ele>
        <time>2017-05-28T06:57:18.000Z</time>
      </trkpt>
      <trkpt lat="44.43845" lon="1.00577">
        <ele>189.4</ele>
        <time>2017-05-28T06:57:19.000Z</time>
      </trkpt>
      <trkpt lat="44.43844" lon="1.00575">
        <ele>189.4</ele>
        <time>2017-05-28T06:57:20.000Z</time>
      </trkpt>
      <trkpt lat="44.43844" lon="1.00573">
        <ele>189.5</ele>
        <time>2017-05-28T06:57:21.000Z</time>
      </trkpt>
      <trkpt lat="44.43844" lon="1.0057">
        <ele>189.5</ele>
        <time>2017-05-28T06:57:22.000Z</time>
      </trkpt>
      <trkpt lat="44.43844" lon="1.00568">
        <ele>189.6</ele>
        <time>2017-05-28T06:57:23.000Z</time>
      </trkpt>
      <trkpt lat="44.43844" lon="1.00566">
        <ele>189.6</ele>
        <time>2017-05-28T06:57:24.000Z</time>
      </trkpt>
      <trkpt lat="44.43843" lon="1.00563">
        <ele>189.6</ele>
        <time>2017-05-28T06:57:25.000Z</time>
      </trkpt>
      <trkpt lat="44.43843" lon="1.00561">
        <ele>189.7</ele>
        <time>2017-05-28T06:57:26.000Z</time>
      </trkpt>
      <trkpt lat="44.43843" lon="1.00559">
        <ele>189.8</ele>
        <time>2017-05-28T06:57:27.000Z</time>
      </trkpt>
      <trkpt lat="44.43843" lon="1.00557">
        <ele>189.8</ele>
        <time>2017-05-28T06:57:28.000Z</time>
      </trkpt>
      <trkpt lat="44.43843" lon="1.00554">
        <ele>189.9</ele>
        <time>2017-05-28T06:57:29.000Z</time>
      </trkpt>
      <trkpt lat="44.43842" lon="1.00552">
        <ele>190</ele>
        <time>2017-05-28T06:57:30.000Z</time>
      </trkpt>
      <trkpt lat="44.43843" lon="1.0055">
        <ele>190.1</ele>
        <time>2017-05-28T06:57:31.000Z</time>
      </trkpt>
      <trkpt lat="44.43843" lon="1.00548">
        <ele>190.3</ele>
        <time>2017-05-28T06:57:32.000Z</time>
      </trkpt>
      <trkpt lat="44.43843" lon="1.00546">
        <ele>190.5</ele>
        <time>2017-05-28T06:57:33.000Z</time>
      </trkpt>
      <trkpt lat="44.43844" lon="1.00544">
        <ele>190.7</ele>
        <time>2017-05-28T06:57:34.000Z</time>
      </trkpt>
      <trkpt lat="44.43845" lon="1.00542">
        <ele>191</ele>
        <time>2017-05-28T06:57:35.000Z</time>
      </trkpt>
      <trkpt lat="44.43846" lon="1.00541">
        <ele>191.3</ele>
        <time>2017-05-28T06:57:36.000Z</time>
      </trkpt>
      <trkpt lat="44.43847" lon="1.0054">
        <ele>191.5</ele>
        <time>2017-05-28T06:57:37.000Z</time>
      </trkpt>
      <trkpt lat="44.43847" lon="1.00539">
        <ele>191.6</ele>
        <time>2017-05-28T06:57:38.000Z</time>
      </trkpt>
      <trkpt lat="44.43847" lon="1.00538">
        <ele>191.7</ele>
        <time>2017-05-28T06:57:39.000Z</time>
      </trkpt>
      <trkpt lat="44.43848" lon="1.00538">
        <ele>191.7</ele>
        <time>2017-05-28T06:57:40.000Z</time>
      </trkpt>
      <trkpt lat="44.43848" lon="1.00538">
        <ele>191.7</ele>
        <time>2017-05-28T06:57:41.000Z</time>
      </trkpt>
      <trkpt lat="44.43848" lon="1.00538">
        <ele>191.7</ele>
        <time>2017-05-28T06:57:42.000Z</time>
      </trkpt>
      <trkpt lat="44.43848" lon="1.00538">
        <ele>191.7</ele>
        <time>2017-05-28T06:57:43.000Z</time>
      </trkpt>
      <trkpt lat="44.43848" lon="1.00537">
        <ele>191.7</ele>
        <time>2017-05-28T06:57:44.000Z</time>
      </trkpt>
      <trkpt lat="44.43848" lon="1.00537">
        <ele>191.8</ele>
        <time>2017-05-28T06:57:45.000Z</time>
      </trkpt>
      <trkpt lat="44.43848" lon="1.00537">
        <ele>191.8</ele>
        <time>2017-05-28T06:57:46.000Z</time>
      </trkpt>
      <trkpt lat="44.43848" lon="1.00537">
        <ele>191.8</ele>
        <time>2017-05-28T06:57:47.000Z</time>
      </trkpt>
      <trkpt lat="44.43848" lon="1.00537">
        <ele>191.9</ele>
        <time>2017-05-28T06:57:48.000Z</time>
      </trkpt>
      <trkpt lat="44.43848" lon="1.00536">
        <ele>191.9</ele>
        <time>2017-05-28T06:57:49.000Z</time>
      </trkpt>
      <trkpt lat="44.43848" lon="1.00536">
        <ele>191.9</ele>
        <time>2017-05-28T06:57:50.000Z</time>
      </trkpt>
      <trkpt lat="44.43848" lon="1.00536">
        <ele>192</ele>
        <time>2017-05-28T06:57:51.000Z</time>
      </trkpt>
      <trkpt lat="44.43848" lon="1.00536">
        <ele>192</ele>
        <time>2017-05-28T06:57:52.000Z</time>
      </trkpt>
      <trkpt lat="44.43849" lon="1.00536">
        <ele>192</ele>
        <time>2017-05-28T06:57:53.000Z</time>
      </trkpt>
      <trkpt lat="44.43849" lon="1.00536">
        <ele>192</ele>
        <time>2017-05-28T06:57:54.000Z</time>
      </trkpt>
      <trkpt lat="44.43849" lon="1.00536">
        <ele>192</ele>
        <time>2017-05-28T06:57:55.000Z</time>
      </trkpt>
      <trkpt lat="44.43849" lon="1.00536">
        <ele>192</ele>
        <time>2017-05-28T06:57:56.000Z</time>
      </trkpt>
      <trkpt lat="44.43849" lon="1.00536">
        <ele>192</ele>
        <time>2017-05-28T06:57:57.000Z</time>
      </trkpt>
      <trkpt lat="44.43849" lon="1.00536">
        <ele>192</ele>
        <time>2017-05-28T06:57:58.000Z</time>
      </trkpt>
      <trkpt lat="44.43849" lon="1.00536">
        <ele>192</ele>
        <time>2017-05-28T06:57:59.000Z</time>
      </trkpt>
      <trkpt lat="44.43849" lon="1.00536">
        <ele>192</ele>
        <time>2017-05-28T06:58:00.000Z</time>
      </trkpt>
      <trkpt lat="44.43849" lon="1.00536">
        <ele>192</ele>
        <time>2017-05-28T06:58:01.000Z</time>
      </trkpt>
      <trkpt lat="44.43849" lon="1.00536">
        <ele>192</ele>
        <time>2017-05-28T06:58:02.000Z</time>
      </trkpt>
      <trkpt lat="44.43849" lon="1.00536">
        <ele>192</ele>
        <time>2017-05-28T06:58:03.000Z</time>
      </trkpt>
      <trkpt lat="44.43849" lon="1.00536">
        <ele>192</ele>
        <time>2017-05-28T06:58:04.000Z</time>
      </trkpt>
      <trkpt lat="44.43849" lon="1.00536">
        <ele>192</ele>
        <time>2017-05-28T06:58:05.000Z</time>
      </trkpt>
      <trkpt lat="44.43849" lon="1.00536">
        <ele>192</ele>
        <time>2017-05-28T06:58:06.000Z</time>
      </trkpt>
      <trkpt lat="44.43849" lon="1.00535">
        <ele>192.1</ele>
        <time>2017-05-28T06:58:07.000Z</time>
      </trkpt>
      <trkpt lat="44.43849" lon="1.00535">
        <ele>192.1</ele>
        <time>2017-05-28T06:58:08.000Z</time>
      </trkpt>
      <trkpt lat="44.43849" lon="1.00535">
        <ele>192.1</ele>
        <time>2017-05-28T06:58:09.000Z</time>
      </trkpt>
      <trkpt lat="44.43849" lon="1.00535">
        <ele>192.1</ele>
        <time>2017-05-28T06:58:10.000Z</time>
      </trkpt>
      <trkpt lat="44.43849" lon="1.00535">
        <ele>192.2</ele>
        <time>2017-05-28T06:58:11.000Z</time>
      </trkpt>
      <trkpt lat="44.43849" lon="1.00534">
        <ele>192.2</ele>
        <time>2017-05-28T06:58:12.000Z</time>
      </trkpt>
      <trkpt lat="44.43849" lon="1.00534">
        <ele>192.2</ele>
        <time>2017-05-28T06:58:13.000Z</time>
      </trkpt>
      <trkpt lat="44.4385" lon="1.00533">
        <ele>192.3</ele>
        <time>2017-05-28T06:58:14.000Z</time>
      </trkpt>
      <trkpt lat="44.4385" lon="1.00532">
        <ele>192.5</ele>
        <time>2017-05-28T06:58:15.000Z</time>
      </trkpt>
      <trkpt lat="44.43851" lon="1.0053">
        <ele>192.7</ele>
        <time>2017-05-28T06:58:16.000Z</time>
      </trkpt>
      <trkpt lat="44.43852" lon="1.00528">
        <ele>193</ele>
        <time>2017-05-28T06:58:17.000Z</time>
      </trkpt>
      <trkpt lat="44.43853" lon="1.00525">
        <ele>193.3</ele>
        <time>2017-05-28T06:58:18.000Z</time>
      </trkpt>
      <trkpt lat="44.43855" lon="1.00522">
        <ele>193.7</ele>
        <time>2017-05-28T06:58:19.000Z</time>
      </trkpt>
      <trkpt lat="44.43856" lon="1.00519">
        <ele>194.1</ele>
        <time>2017-05-28T06:58:20.000Z</time>
      </trkpt>
      <trkpt lat="44.43858" lon="1.00517">
        <ele>194.4</ele>
        <time>2017-05-28T06:58:21.000Z</time>
      </trkpt>
      <trkpt lat="44.43859" lon="1.00515">
        <ele>194.6</ele>
        <time>2017-05-28T06:58:22.000Z</time>
      </trkpt>
      <trkpt lat="44.4386" lon="1.00512">
        <ele>194.9</ele>
        <time>2017-05-28T06:58:23.000Z</time>
      </trkpt>
      <trkpt lat="44.43861" lon="1.00509">
        <ele>195.2</ele>
        <time>2017-05-28T06:58:24.000Z</time>
      </trkpt>
      <trkpt lat="44.43863" lon="1.00507">
        <ele>195.5</ele>
        <time>2017-05-28T06:58:25.000Z</time>
      </trkpt>
      <trkpt lat="44.43865" lon="1.00505">
        <ele>195.8</ele>
        <time>2017-05-28T06:58:26.000Z</time>
      </trkpt>
      <trkpt lat="44.43867" lon="1.00503">
        <ele>196.1</ele>
        <time>2017-05-28T06:58:27.000Z</time>
      </trkpt>
      <trkpt lat="44.43869" lon="1.00503">
        <ele>196.5</ele>
        <time>2017-05-28T06:58:28.000Z</time>
      </trkpt>
      <trkpt lat="44.43871" lon="1.00503">
        <ele>196.9</ele>
        <time>2017-05-28T06:58:29.000Z</time>
      </trkpt>
      <trkpt lat="44.43873" lon="1.00504">
        <ele>197.2</ele>
        <time>2017-05-28T06:58:30.000Z</time>
      </trkpt>
      <trkpt lat="44.43875" lon="1.00506">
        <ele>197.5</ele>
        <time>2017-05-28T06:58:31.000Z</time>
      </trkpt>
      <trkpt lat="44.43877" lon="1.00507">
        <ele>197.8</ele>
        <time>2017-05-28T06:58:32.000Z</time>
      </trkpt>
      <trkpt lat="44.43879" lon="1.00509">
        <ele>198.2</ele>
        <time>2017-05-28T06:58:33.000Z</time>
      </trkpt>
      <trkpt lat="44.43881" lon="1.0051">
        <ele>198.5</ele>
        <time>2017-05-28T06:58:34.000Z</time>
      </trkpt>
      <trkpt lat="44.43882" lon="1.00512">
        <ele>198.7</ele>
        <time>2017-05-28T06:58:35.000Z</time>
      </trkpt>
      <trkpt lat="44.43884" lon="1.00514">
        <ele>199</ele>
        <time>2017-05-28T06:58:36.000Z</time>
      </trkpt>
      <trkpt lat="44.43885" lon="1.00516">
        <ele>199.3</ele>
        <time>2017-05-28T06:58:37.000Z</time>
      </trkpt>
      <trkpt lat="44.43887" lon="1.00518">
        <ele>199.6</ele>
        <time>2017-05-28T06:58:38.000Z</time>
      </trkpt>
      <trkpt lat="44.43888" lon="1.0052">
        <ele>199.9</ele>
        <time>2017-05-28T06:58:39.000Z</time>
      </trkpt>
      <trkpt lat="44.43889" lon="1.00522">
        <ele>200.1</ele>
        <time>2017-05-28T06:58:40.000Z</time>
      </trkpt>
      <trkpt lat="44.4389" lon="1.00524">
        <ele>200.4</ele>
        <time>2017-05-28T06:58:41.000Z</time>
      </trkpt>
      <trkpt lat="44.43891" lon="1.00526">
        <ele>200.7</ele>
        <time>2017-05-28T06:58:42.000Z</time>
      </trkpt>
      <trkpt lat="44.43892" lon="1.00528">
        <ele>200.9</ele>
        <time>2017-05-28T06:58:43.000Z</time>
      </trkpt>
      <trkpt lat="44.43893" lon="1.0053">
        <ele>201.2</ele>
        <time>2017-05-28T06:58:44.000Z</time>
      </trkpt>
      <trkpt lat="44.43894" lon="1.00533">
        <ele>201.4</ele>
        <time>2017-05-28T06:58:45.000Z</time>
      </trkpt>
      <trkpt lat="44.43895" lon="1.00535">
        <ele>201.7</ele>
        <time>2017-05-28T06:58:46.000Z</time>
      </trkpt>
      <trkpt lat="44.43896" lon="1.00537">
        <ele>202</ele>
        <time>2017-05-28T06:58:47.000Z</time>
      </trkpt>
      <trkpt lat="44.43897" lon="1.00539">
        <ele>202.3</ele>
        <time>2017-05-28T06:58:48.000Z</time>
      </trkpt>
      <trkpt lat="44.43898" lon="1.00541">
        <ele>202.5</ele>
        <time>2017-05-28T06:58:49.000Z</time>
      </trkpt>
      <trkpt lat="44.43899" lon="1.00544">
        <ele>202.8</ele>
        <time>2017-05-28T06:58:50.000Z</time>
      </trkpt>
      <trkpt lat="44.439" lon="1.00546">
        <ele>203.1</ele>
        <time>2017-05-28T06:58:51.000Z</time>
      </trkpt>
      <trkpt lat="44.43901" lon="1.00548">
        <ele>203.4</ele>
        <time>2017-05-28T06:58:52.000Z</time>
      </trkpt>
      <trkpt lat="44.43902" lon="1.0055">
        <ele>203.7</ele>
        <time>2017-05-28T06:58:53.000Z</time>
      </trkpt>
      <trkpt lat="44.43903" lon="1.00553">
        <ele>204</ele>
        <time>2017-05-28T06:58:54.000Z</time>
      </trkpt>
      <trkpt lat="44.43904" lon="1.00555">
        <ele>204.3</ele>
        <time>2017-05-28T06:58:55.000Z</time>
      </trkpt>
      <trkpt lat="44.43905" lon="1.00557">
        <ele>204.6</ele>
        <time>2017-05-28T06:58:56.000Z</time>
      </trkpt>
      <trkpt lat="44.43906" lon="1.0056">
        <ele>204.9</ele>
        <time>2017-05-28T06:58:57.000Z</time>
      </trkpt>
      <trkpt lat="44.43907" lon="1.00562">
        <ele>205.2</ele>
        <time>2017-05-28T06:58:58.000Z</time>
      </trkpt>
      <trkpt lat="44.43907" lon="1.00564">
        <ele>205.5</ele>
        <time>2017-05-28T06:58:59.000Z</time>
      </trkpt>
      <trkpt lat="44.43908" lon="1.00567">
        <ele>205.9</ele>
        <time>2017-05-28T06:59:00.000Z</time>
      </trkpt>
      <trkpt lat="44.43909" lon="1.00569">
        <ele>206.2</ele>
        <time>2017-05-28T06:59:01.000Z</time>
      </trkpt>
      <trkpt lat="44.4391" lon="1.00571">
        <ele>206.5</ele>
        <time>2017-05-28T06:59:02.000Z</time>
      </trkpt>
      <trkpt lat="44.43911" lon="1.00574">
        <ele>206.9</ele>
        <time>2017-05-28T06:59:03.000Z</time>
      </trkpt>
      <trkpt lat="44.43912" lon="1.00576">
        <ele>207.2</ele>
        <time>2017-05-28T06:59:04.000Z</time>
      </trkpt>
      <trkpt lat="44.43912" lon="1.00579">
        <ele>207.5</ele>
        <time>2017-05-28T06:59:05.000Z</time>
      </trkpt>
      <trkpt lat="44.43913" lon="1.00581">
        <ele>207.9</ele>
        <time>2017-05-28T06:59:06.000Z</time>
      </trkpt>
      <trkpt lat="44.43914" lon="1.00583">
        <ele>208.3</ele>
        <time>2017-05-28T06:59:07.000Z</time>
      </trkpt>
      <trkpt lat="44.43915" lon="1.00586">
        <ele>208.5</ele>
        <time>2017-05-28T06:59:08.000Z</time>
      </trkpt>
      <trkpt lat="44.43916" lon="1.00588">
        <ele>208.8</ele>
        <time>2017-05-28T06:59:09.000Z</time>
      </trkpt>
      <trkpt lat="44.43917" lon="1.0059">
        <ele>209.1</ele>
        <time>2017-05-28T06:59:10.000Z</time>
      </trkpt>
      <trkpt lat="44.43917" lon="1.00593">
        <ele>209.2</ele>
        <time>2017-05-28T06:59:11.000Z</time>
      </trkpt>
      <trkpt lat="44.43919" lon="1.00594">
        <ele>209.2</ele>
        <time>2017-05-28T06:59:12.000Z</time>
      </trkpt>
      <trkpt lat="44.4392" lon="1.00596">
        <ele>209.3</ele>
        <time>2017-05-28T06:59:13.000Z</time>
      </trkpt>
      <trkpt lat="44.43921" lon="1.00597">
        <ele>209.3</ele>
        <time>2017-05-28T06:59:14.000Z</time>
      </trkpt>
      <trkpt lat="44.43922" lon="1.00597">
        <ele>209.3</ele>
        <time>2017-05-28T06:59:15.000Z</time>
      </trkpt>
      <trkpt lat="44.43924" lon="1.00598">
        <ele>209.3</ele>
        <time>2017-05-28T06:59:16.000Z</time>
      </trkpt>
      <trkpt lat="44.43926" lon="1.00598">
        <ele>209.3</ele>
        <time>2017-05-28T06:59:17.000Z</time>
      </trkpt>
      <trkpt lat="44.43928" lon="1.00599">
        <ele>209.3</ele>
        <time>2017-05-28T06:59:18.000Z</time>
      </trkpt>
      <trkpt lat="44.4393" lon="1.006">
        <ele>209.3</ele>
        <time>2017-05-28T06:59:19.000Z</time>
      </trkpt>
      <trkpt lat="44.43931" lon="1.00602">
        <ele>209.4</ele>
        <time>2017-05-28T06:59:20.000Z</time>
      </trkpt>
      <trkpt lat="44.43932" lon="1.00604">
        <ele>209.4</ele>
        <time>2017-05-28T06:59:21.000Z</time>
      </trkpt>
      <trkpt lat="44.43933" lon="1.00606">
        <ele>209.5</ele>
        <time>2017-05-28T06:59:22.000Z</time>
      </trkpt>
      <trkpt lat="44.43934" lon="1.00609">
        <ele>209.6</ele>
        <time>2017-05-28T06:59:23.000Z</time>
      </trkpt>
      <trkpt lat="44.43934" lon="1.00611">
        <ele>209.7</ele>
        <time>2017-05-28T06:59:24.000Z</time>
      </trkpt>
      <trkpt lat="44.43935" lon="1.00613">
        <ele>209.8</ele>
        <time>2017-05-28T06:59:25.000Z</time>
      </trkpt>
      <trkpt lat="44.43935" lon="1.00616">
        <ele>209.9</ele>
        <time>2017-05-28T06:59:26.000Z</time>
      </trkpt>
      <trkpt lat="44.43935" lon="1.00618">
        <ele>210</ele>
        <time>2017-05-28T06:59:27.000Z</time>
      </trkpt>
      <trkpt lat="44.43936" lon="1.0062">
        <ele>210.1</ele>
        <time>2017-05-28T06:59:28.000Z</time>
      </trkpt>
      <trkpt lat="44.43936" lon="1.00622">
        <ele>210.2</ele>
        <time>2017-05-28T06:59:29.000Z</time>
      </trkpt>
      <trkpt lat="44.43936" lon="1.00625">
        <ele>210.3</ele>
        <time>2017-05-28T06:59:30.000Z</time>
      </trkpt>
      <trkpt lat="44.43937" lon="1.00627">
        <ele>210.4</ele>
        <time>2017-05-28T06:59:31.000Z</time>
      </trkpt>
      <trkpt lat="44.43937" lon="1.00629">
        <ele>210.5</ele>
        <time>2017-05-28T06:59:32.000Z</time>
      </trkpt>
      <trkpt lat="44.43937" lon="1.00631">
        <ele>210.7</ele>
        <time>2017-05-28T06:59:33.000Z</time>
      </trkpt>
      <trkpt lat="44.43938" lon="1.00633">
        <ele>210.8</ele>
        <time>2017-05-28T06:59:34.000Z</time>
      </trkpt>
      <trkpt lat="44.43938" lon="1.00636">
        <ele>210.9</ele>
        <time>2017-05-28T06:59:35.000Z</time>
      </trkpt>
      <trkpt lat="44.43938" lon="1.00638">
        <ele>211</ele>
        <time>2017-05-28T06:59:36.000Z</time>
      </trkpt>
      <trkpt lat="44.43939" lon="1.0064">
        <ele>211.1</ele>
        <time>2017-05-28T06:59:37.000Z</time>
      </trkpt>
      <trkpt lat="44.43939" lon="1.00642">
        <ele>211.2</ele>
        <time>2017-05-28T06:59:38.000Z</time>
      </trkpt>
      <trkpt lat="44.4394" lon="1.00645">
        <ele>211.3</ele>
        <time>2017-05-28T06:59:39.000Z</time>
      </trkpt>
      <trkpt lat="44.4394" lon="1.00647">
        <ele>211.5</ele>
        <time>2017-05-28T06:59:40.000Z</time>
      </trkpt>
      <trkpt lat="44.4394" lon="1.00649">
        <ele>211.6</ele>
        <time>2017-05-28T06:59:41.000Z</time>
      </trkpt>
      <trkpt lat="44.43941" lon="1.00652">
        <ele>211.7</ele>
        <time>2017-05-28T06:59:42.000Z</time>
      </trkpt>
      <trkpt lat="44.43941" lon="1.00654">
        <ele>211.9</ele>
        <time>2017-05-28T06:59:43.000Z</time>
      </trkpt>
      <trkpt lat="44.43942" lon="1.00656">
        <ele>212</ele>
        <time>2017-05-28T06:59:44.000Z</time>
      </trkpt>
      <trkpt lat="44.43942" lon="1.00659">
        <ele>212.1</ele>
        <time>2017-05-28T06:59:45.000Z</time>
      </trkpt>
      <trkpt lat="44.43943" lon="1.00661">
        <ele>212.3</ele>
        <time>2017-05-28T06:59:46.000Z</time>
      </trkpt>
      <trkpt lat="44.43943" lon="1.00664">
        <ele>212.4</ele>
        <time>2017-05-28T06:59:47.000Z</time>
      </trkpt>
      <trkpt lat="44.43943" lon="1.00666">
        <ele>212.6</ele>
        <time>2017-05-28T06:59:48.000Z</time>
      </trkpt>
      <trkpt lat="44.43944" lon="1.00668">
        <ele>212.6</ele>
        <time>2017-05-28T06:59:49.000Z</time>
      </trkpt>
      <trkpt lat="44.43944" lon="1.0067">
        <ele>212.6</ele>
        <time>2017-05-28T06:59:50.000Z</time>
      </trkpt>
      <trkpt lat="44.43944" lon="1.00673">
        <ele>212.6</ele>
        <time>2017-05-28T06:59:51.000Z</time>
      </trkpt>
      <trkpt lat="44.43944" lon="1.00675">
        <ele>212.6</ele>
        <time>2017-05-28T06:59:52.000Z</time>
      </trkpt>
      <trkpt lat="44.43943" lon="1.00677">
        <ele>212.6</ele>
        <time>2017-05-28T06:59:53.000Z</time>
      </trkpt>
      <trkpt lat="44.43943" lon="1.00678">
        <ele>212.6</ele>
        <time>2017-05-28T06:59:54.000Z</time>
      </trkpt>
      <trkpt lat="44.43942" lon="1.0068">
        <ele>212.5</ele>
        <time>2017-05-28T06:59:55.000Z</time>
      </trkpt>
      <trkpt lat="44.4394" lon="1.00681">
        <ele>212.4</ele>
        <time>2017-05-28T06:59:56.000Z</time>
      </trkpt>
      <trkpt lat="44.43938" lon="1.00682">
        <ele>212.3</ele>
        <time>2017-05-28T06:59:57.000Z</time>
      </trkpt>
      <trkpt lat="44.43935" lon="1.00683">
        <ele>212.1</ele>
        <time>2017-05-28T06:59:58.000Z</time>
      </trkpt>
      <trkpt lat="44.43932" lon="1.00684">
        <ele>211.9</ele>
        <time>2017-05-28T06:59:59.000Z</time>
      </trkpt>
      <trkpt lat="44.43928" lon="1.00685">
        <ele>211.6</ele>
        <time>2017-05-28T07:00:00.000Z</time>
      </trkpt>
      <trkpt lat="44.43924" lon="1.00688">
        <ele>211.3</ele>
        <time>2017-05-28T07:00:01.000Z</time>
      </trkpt>
      <trkpt lat="44.43919" lon="1.00692">
        <ele>210.8</ele>
        <time>2017-05-28T07:00:02.000Z</time>
      </trkpt>
      <trkpt lat="44.43913" lon="1.00695">
        <ele>209.4</ele>
        <time>2017-05-28T07:00:03.000Z</time>
      </trkpt>
      <trkpt lat="44.43908" lon="1.007">
        <ele>207.6</ele>
        <time>2017-05-28T07:00:04.000Z</time>
      </trkpt>
      <trkpt lat="44.43905" lon="1.00709">
        <ele>206.2</ele>
        <time>2017-05-28T07:00:05.000Z</time>
      </trkpt>
      <trkpt lat="44.43903" lon="1.00718">
        <ele>205.6</ele>
        <time>2017-05-28T07:00:06.000Z</time>
      </trkpt>
      <trkpt lat="44.43903" lon="1.00727">
        <ele>205.5</ele>
        <time>2017-05-28T07:00:07.000Z</time>
      </trkpt>
      <trkpt lat="44.43904" lon="1.00737">
        <ele>205.8</ele>
        <time>2017-05-28T07:00:08.000Z</time>
      </trkpt>
      <trkpt lat="44.43906" lon="1.00746">
        <ele>206.2</ele>
        <time>2017-05-28T07:00:09.000Z</time>
      </trkpt>
      <trkpt lat="44.43907" lon="1.00754">
        <ele>206.5</ele>
        <time>2017-05-28T07:00:10.000Z</time>
      </trkpt>
      <trkpt lat="44.43908" lon="1.00763">
        <ele>206.6</ele>
        <time>2017-05-28T07:00:11.000Z</time>
      </trkpt>
      <trkpt lat="44.43909" lon="1.00771">
        <ele>206.8</ele>
        <time>2017-05-28T07:00:12.000Z</time>
      </trkpt>
      <trkpt lat="44.4391" lon="1.00779">
        <ele>206.9</ele>
        <time>2017-05-28T07:00:13.000Z</time>
      </trkpt>
      <trkpt lat="44.43911" lon="1.00788">
        <ele>207.1</ele>
        <time>2017-05-28T07:00:14.000Z</time>
      </trkpt>
      <trkpt lat="44.43912" lon="1.00796">
        <ele>207.3</ele>
        <time>2017-05-28T07:00:15.000Z</time>
      </trkpt>
      <trkpt lat="44.43913" lon="1.00804">
        <ele>207.5</ele>
        <time>2017-05-28T07:00:16.000Z</time>
      </trkpt>
      <trkpt lat="44.43914" lon="1.00811">
        <ele>207.7</ele>
        <time>2017-05-28T07:00:17.000Z</time>
      </trkpt>
      <trkpt lat="44.43915" lon="1.00819">
        <ele>207.9</ele>
        <time>2017-05-28T07:00:18.000Z</time>
      </trkpt>
      <trkpt lat="44.43916" lon="1.00826">
        <ele>208</ele>
        <time>2017-05-28T07:00:19.000Z</time>
      </trkpt>
      <trkpt lat="44.43917" lon="1.00833">
        <ele>208.1</ele>
        <time>2017-05-28T07:00:20.000Z</time>
      </trkpt>
      <trkpt lat="44.43918" lon="1.00839">
        <ele>207.8</ele>
        <time>2017-05-28T07:00:21.000Z</time>
      </trkpt>
      <trkpt lat="44.43919" lon="1.00846">
        <ele>207.5</ele>
        <time>2017-05-28T07:00:22.000Z</time>
      </trkpt>
      <trkpt lat="44.4392" lon="1.00851">
        <ele>207.2</ele>
        <time>2017-05-28T07:00:23.000Z</time>
      </trkpt>
      <trkpt lat="44.4392" lon="1.00857">
        <ele>206.9</ele>
        <time>2017-05-28T07:00:24.000Z</time>
      </trkpt>
      <trkpt lat="44.43921" lon="1.00862">
        <ele>206.7</ele>
        <time>2017-05-28T07:00:25.000Z</time>
      </trkpt>
      <trkpt lat="44.43922" lon="1.00868">
        <ele>206.4</ele>
        <time>2017-05-28T07:00:26.000Z</time>
      </trkpt>
      <trkpt lat="44.43923" lon="1.00873">
        <ele>206.3</ele>
        <time>2017-05-28T07:00:27.000Z</time>
      </trkpt>
      <trkpt lat="44.43923" lon="1.00878">
        <ele>206.1</ele>
        <time>2017-05-28T07:00:28.000Z</time>
      </trkpt>
      <trkpt lat="44.43924" lon="1.00883">
        <ele>205.9</ele>
        <time>2017-05-28T07:00:29.000Z</time>
      </trkpt>
      <trkpt lat="44.43925" lon="1.00888">
        <ele>205.7</ele>
        <time>2017-05-28T07:00:30.000Z</time>
      </trkpt>
      <trkpt lat="44.43926" lon="1.00894">
        <ele>205.5</ele>
        <time>2017-05-28T07:00:31.000Z</time>
      </trkpt>
      <trkpt lat="44.43926" lon="1.009">
        <ele>205.3</ele>
        <time>2017-05-28T07:00:32.000Z</time>
      </trkpt>
      <trkpt lat="44.43927" lon="1.00907">
        <ele>205.1</ele>
        <time>2017-05-28T07:00:33.000Z</time>
      </trkpt>
      <trkpt lat="44.43928" lon="1.00913">
        <ele>204.9</ele>
        <time>2017-05-28T07:00:34.000Z</time>
      </trkpt>
      <trkpt lat="44.43929" lon="1.0092">
        <ele>204.9</ele>
        <time>2017-05-28T07:00:35.000Z</time>
      </trkpt>
      <trkpt lat="44.4393" lon="1.00928">
        <ele>205</ele>
        <time>2017-05-28T07:00:36.000Z</time>
      </trkpt>
      <trkpt lat="44.43931" lon="1.00935">
        <ele>205.1</ele>
        <time>2017-05-28T07:00:37.000Z</time>
      </trkpt>
      <trkpt lat="44.43931" lon="1.00943">
        <ele>205.2</ele>
        <time>2017-05-28T07:00:38.000Z</time>
      </trkpt>
      <trkpt lat="44.43932" lon="1.0095">
        <ele>205.4</ele>
        <time>2017-05-28T07:00:39.000Z</time>
      </trkpt>
      <trkpt lat="44.43933" lon="1.00958">
        <ele>205.5</ele>
        <time>2017-05-28T07:00:40.000Z</time>
      </trkpt>
      <trkpt lat="44.43934" lon="1.00966">
        <ele>205.6</ele>
        <time>2017-05-28T07:00:41.000Z</time>
      </trkpt>
      <trkpt lat="44.43935" lon="1.00974">
        <ele>205.7</ele>
        <time>2017-05-28T07:00:42.000Z</time>
      </trkpt>
      <trkpt lat="44.43936" lon="1.00981">
        <ele>205.8</ele>
        <time>2017-05-28T07:00:43.000Z</time>
      </trkpt>
      <trkpt lat="44.43937" lon="1.00989">
        <ele>206</ele>
        <time>2017-05-28T07:00:44.000Z</time>
      </trkpt>
      <trkpt lat="44.43938" lon="1.00997">
        <ele>206.1</ele>
        <time>2017-05-28T07:00:45.000Z</time>
      </trkpt>
      <trkpt lat="44.43939" lon="1.01004">
        <ele>206</ele>
        <time>2017-05-28T07:00:46.000Z</time>
      </trkpt>
      <trkpt lat="44.4394" lon="1.01012">
        <ele>205.9</ele>
        <time>2017-05-28T07:00:47.000Z</time>
      </trkpt>
      <trkpt lat="44.43941" lon="1.01019">
        <ele>205.7</ele>
        <time>2017-05-28T07:00:48.000Z</time>
      </trkpt>
      <trkpt lat="44.43942" lon="1.01026">
        <ele>205.6</ele>
        <time>2017-05-28T07:00:49.000Z</time>
      </trkpt>
      <trkpt lat="44.43943" lon="1.01032">
        <ele>205.4</ele>
        <time>2017-05-28T07:00:50.000Z</time>
      </trkpt>
      <trkpt lat="44.43944" lon="1.0104">
        <ele>205.2</ele>
        <time>2017-05-28T07:00:51.000Z</time>
      </trkpt>
      <trkpt lat="44.43945" lon="1.01047">
        <ele>204.9</ele>
        <time>2017-05-28T07:00:52.000Z</time>
      </trkpt>
      <trkpt lat="44.43946" lon="1.01054">
        <ele>204.8</ele>
        <time>2017-05-28T07:00:53.000Z</time>
      </trkpt>
      <trkpt lat="44.43948" lon="1.01061">
        <ele>204.9</ele>
        <time>2017-05-28T07:00:54.000Z</time>
      </trkpt>
      <trkpt lat="44.43952" lon="1.01067">
        <ele>205.4</ele>
        <time>2017-05-28T07:00:55.000Z</time>
      </trkpt>
      <trkpt lat="44.43956" lon="1.01071">
        <ele>206.1</ele>
        <time>2017-05-28T07:00:56.000Z</time>
      </trkpt>
      <trkpt lat="44.4396" lon="1.01073">
        <ele>207</ele>
        <time>2017-05-28T07:00:57.000Z</time>
      </trkpt>
      <trkpt lat="44.43964" lon="1.01073">
        <ele>208</ele>
        <time>2017-05-28T07:00:58.000Z</time>
      </trkpt>
      <trkpt lat="44.43967" lon="1.01073">
        <ele>208.8</ele>
        <time>2017-05-28T07:00:59.000Z</time>
      </trkpt>
      <trkpt lat="44.4397" lon="1.01072">
        <ele>209.5</ele>
        <time>2017-05-28T07:01:00.000Z</time>
      </trkpt>
      <trkpt lat="44.43973" lon="1.0107">
        <ele>210.2</ele>
        <time>2017-05-28T07:01:01.000Z</time>
      </trkpt>
      <trkpt lat="44.43975" lon="1.01069">
        <ele>210.9</ele>
        <time>2017-05-28T07:01:02.000Z</time>
      </trkpt>
      <trkpt lat="44.43977" lon="1.01068">
        <ele>211.5</ele>
        <time>2017-05-28T07:01:03.000Z</time>
      </trkpt>
      <trkpt lat="44.4398" lon="1.01067">
        <ele>212.2</ele>
        <time>2017-05-28T07:01:04.000Z</time>
      </trkpt>
      <trkpt lat="44.43982" lon="1.01066">
        <ele>212.8</ele>
        <time>2017-05-28T07:01:05.000Z</time>
      </trkpt>
      <trkpt lat="44.43985" lon="1.01065">
        <ele>213.5</ele>
        <time>2017-05-28T07:01:06.000Z</time>
      </trkpt>
      <trkpt lat="44.43987" lon="1.01064">
        <ele>214.1</ele>
        <time>2017-05-28T07:01:07.000Z</time>
      </trkpt>
      <trkpt lat="44.4399" lon="1.01064">
        <ele>214.7</ele>
        <time>2017-05-28T07:01:08.000Z</time>
      </trkpt>
      <trkpt lat="44.43992" lon="1.01063">
        <ele>215.4</ele>
        <time>2017-05-28T07:01:09.000Z</time>
      </trkpt>
      <trkpt lat="44.43995" lon="1.01063">
        <ele>216</ele>
        <time>2017-05-28T07:01:10.000Z</time>
      </trkpt>
      <trkpt lat="44.43997" lon="1.01063">
        <ele>216.6</ele>
        <time>2017-05-28T07:01:11.000Z</time>
      </trkpt>
      <trkpt lat="44.44" lon="1.01062">
        <ele>217.2</ele>
        <time>2017-05-28T07:01:12.000Z</time>
      </trkpt>
      <trkpt lat="44.44002" lon="1.01062">
        <ele>217.4</ele>
        <time>2017-05-28T07:01:13.000Z</time>
      </trkpt>
      <trkpt lat="44.44004" lon="1.01062">
        <ele>217.6</ele>
        <time>2017-05-28T07:01:14.000Z</time>
      </trkpt>
      <trkpt lat="44.44007" lon="1.01062">
        <ele>217.8</ele>
        <time>2017-05-28T07:01:15.000Z</time>
      </trkpt>
      <trkpt lat="44.44009" lon="1.01061">
        <ele>218</ele>
        <time>2017-05-28T07:01:16.000Z</time>
      </trkpt>
      <trkpt lat="44.44011" lon="1.01061">
        <ele>218.2</ele>
        <time>2017-05-28T07:01:17.000Z</time>
      </trkpt>
      <trkpt lat="44.44013" lon="1.01061">
        <ele>218.4</ele>
        <time>2017-05-28T07:01:18.000Z</time>
      </trkpt>
      <trkpt lat="44.44015" lon="1.0106">
        <ele>218.5</ele>
        <time>2017-05-28T07:01:19.000Z</time>
      </trkpt>
      <trkpt lat="44.44016" lon="1.0106">
        <ele>218.7</ele>
        <time>2017-05-28T07:01:20.000Z</time>
      </trkpt>
      <trkpt lat="44.44018" lon="1.0106">
        <ele>218.8</ele>
        <time>2017-05-28T07:01:21.000Z</time>
      </trkpt>
      <trkpt lat="44.4402" lon="1.0106">
        <ele>219</ele>
        <time>2017-05-28T07:01:22.000Z</time>
      </trkpt>
      <trkpt lat="44.44022" lon="1.0106">
        <ele>219.2</ele>
        <time>2017-05-28T07:01:23.000Z</time>
      </trkpt>
      <trkpt lat="44.44024" lon="1.0106">
        <ele>219.3</ele>
        <time>2017-05-28T07:01:24.000Z</time>
      </trkpt>
      <trkpt lat="44.44027" lon="1.0106">
        <ele>219.5</ele>
        <time>2017-05-28T07:01:25.000Z</time>
      </trkpt>
      <trkpt lat="44.44029" lon="1.0106">
        <ele>219.7</ele>
        <time>2017-05-28T07:01:26.000Z</time>
      </trkpt>
      <trkpt lat="44.44031" lon="1.0106">
        <ele>219.8</ele>
        <time>2017-05-28T07:01:27.000Z</time>
      </trkpt>
      <trkpt lat="44.44033" lon="1.0106">
        <ele>220</ele>
        <time>2017-05-28T07:01:28.000Z</time>
      </trkpt>
      <trkpt lat="44.44034" lon="1.0106">
        <ele>220.1</ele>
        <time>2017-05-28T07:01:29.000Z</time>
      </trkpt>
      <trkpt lat="44.44036" lon="1.0106">
        <ele>220.2</ele>
        <time>2017-05-28T07:01:30.000Z</time>
      </trkpt>
      <trkpt lat="44.44037" lon="1.0106">
        <ele>220.3</ele>
        <time>2017-05-28T07:01:31.000Z</time>
      </trkpt>
      <trkpt lat="44.44038" lon="1.0106">
        <ele>220.4</ele>
        <time>2017-05-28T07:01:32.000Z</time>
      </trkpt>
      <trkpt lat="44.44039" lon="1.0106">
        <ele>220.5</ele>
        <time>2017-05-28T07:01:33.000Z</time>
      </trkpt>
      <trkpt lat="44.44041" lon="1.0106">
        <ele>220.6</ele>
        <time>2017-05-28T07:01:34.000Z</time>
      </trkpt>
      <trkpt lat="44.44043" lon="1.0106">
        <ele>220.8</ele>
        <time>2017-05-28T07:01:35.000Z</time>
      </trkpt>
      <trkpt lat="44.44045" lon="1.0106">
        <ele>220.9</ele>
        <time>2017-05-28T07:01:36.000Z</time>
      </trkpt>
      <trkpt lat="44.44047" lon="1.01061">
        <ele>221.1</ele>
        <time>2017-05-28T07:01:37.000Z</time>
      </trkpt>
      <trkpt lat="44.44049" lon="1.01063">
        <ele>221.2</ele>
        <time>2017-05-28T07:01:38.000Z</time>
      </trkpt>
      <trkpt lat="44.4405" lon="1.01065">
        <ele>221.2</ele>
        <time>2017-05-28T07:01:39.000Z</time>
      </trkpt>
      <trkpt lat="44.44051" lon="1.01068">
        <ele>221.3</ele>
        <time>2017-05-28T07:01:40.000Z</time>
      </trkpt>
      <trkpt lat="44.44052" lon="1.01071">
        <ele>221.2</ele>
        <time>2017-05-28T07:01:41.000Z</time>
      </trkpt>
      <trkpt lat="44.44052" lon="1.01074">
        <ele>221.2</ele>
        <time>2017-05-28T07:01:42.000Z</time>
      </trkpt>
      <trkpt lat="44.44053" lon="1.01077">
        <ele>221.3</ele>
        <time>2017-05-28T07:01:43.000Z</time>
      </trkpt>
      <trkpt lat="44.44054" lon="1.0108">
        <ele>221.3</ele>
        <time>2017-05-28T07:01:44.000Z</time>
      </trkpt>
      <trkpt lat="44.44056" lon="1.01083">
        <ele>221.4</ele>
        <time>2017-05-28T07:01:45.000Z</time>
      </trkpt>
      <trkpt lat="44.44057" lon="1.01085">
        <ele>221.4</ele>
        <time>2017-05-28T07:01:46.000Z</time>
      </trkpt>
      <trkpt lat="44.44059" lon="1.01088">
        <ele>221.4</ele>
        <time>2017-05-28T07:01:47.000Z</time>
      </trkpt>
      <trkpt lat="44.4406" lon="1.01091">
        <ele>221.4</ele>
        <time>2017-05-28T07:01:48.000Z</time>
      </trkpt>
      <trkpt lat="44.44061" lon="1.01094">
        <ele>221.4</ele>
        <time>2017-05-28T07:01:49.000Z</time>
      </trkpt>
      <trkpt lat="44.44062" lon="1.01096">
        <ele>221.3</ele>
        <time>2017-05-28T07:01:50.000Z</time>
      </trkpt>
      <trkpt lat="44.44062" lon="1.01099">
        <ele>221.3</ele>
        <time>2017-05-28T07:01:51.000Z</time>
      </trkpt>
      <trkpt lat="44.44063" lon="1.01102">
        <ele>221.2</ele>
        <time>2017-05-28T07:01:52.000Z</time>
      </trkpt>
      <trkpt lat="44.44064" lon="1.01105">
        <ele>221.2</ele>
        <time>2017-05-28T07:01:53.000Z</time>
      </trkpt>
      <trkpt lat="44.44064" lon="1.01107">
        <ele>221.1</ele>
        <time>2017-05-28T07:01:54.000Z</time>
      </trkpt>
      <trkpt lat="44.44065" lon="1.0111">
        <ele>221.1</ele>
        <time>2017-05-28T07:01:55.000Z</time>
      </trkpt>
      <trkpt lat="44.44066" lon="1.01113">
        <ele>221.1</ele>
        <time>2017-05-28T07:01:56.000Z</time>
      </trkpt>
      <trkpt lat="44.44066" lon="1.01116">
        <ele>221</ele>
        <time>2017-05-28T07:01:57.000Z</time>
      </trkpt>
      <trkpt lat="44.44067" lon="1.01119">
        <ele>221</ele>
        <time>2017-05-28T07:01:58.000Z</time>
      </trkpt>
      <trkpt lat="44.44068" lon="1.01122">
        <ele>221</ele>
        <time>2017-05-28T07:01:59.000Z</time>
      </trkpt>
      <trkpt lat="44.44069" lon="1.01125">
        <ele>221</ele>
        <time>2017-05-28T07:02:00.000Z</time>
      </trkpt>
      <trkpt lat="44.44069" lon="1.01128">
        <ele>221</ele>
        <time>2017-05-28T07:02:01.000Z</time>
      </trkpt>
      <trkpt lat="44.4407" lon="1.01132">
        <ele>220.9</ele>
        <time>2017-05-28T07:02:02.000Z</time>
      </trkpt>
      <trkpt lat="44.44071" lon="1.01135">
        <ele>220.9</ele>
        <time>2017-05-28T07:02:03.000Z</time>
      </trkpt>
      <trkpt lat="44.44071" lon="1.01139">
        <ele>220.8</ele>
        <time>2017-05-28T07:02:04.000Z</time>
      </trkpt>
      <trkpt lat="44.44072" lon="1.01143">
        <ele>220.8</ele>
        <time>2017-05-28T07:02:05.000Z</time>
      </trkpt>
      <trkpt lat="44.44073" lon="1.01148">
        <ele>220.7</ele>
        <time>2017-05-28T07:02:06.000Z</time>
      </trkpt>
      <trkpt lat="44.44073" lon="1.01152">
        <ele>220.6</ele>
        <time>2017-05-28T07:02:07.000Z</time>
      </trkpt>
      <trkpt lat="44.44074" lon="1.01157">
        <ele>220.6</ele>
        <time>2017-05-28T07:02:08.000Z</time>
      </trkpt>
      <trkpt lat="44.44074" lon="1.01162">
        <ele>220.4</ele>
        <time>2017-05-28T07:02:09.000Z</time>
      </trkpt>
      <trkpt lat="44.44074" lon="1.01168">
        <ele>220.3</ele>
        <time>2017-05-28T07:02:10.000Z</time>
      </trkpt>
      <trkpt lat="44.44075" lon="1.01174">
        <ele>220</ele>
        <time>2017-05-28T07:02:11.000Z</time>
      </trkpt>
      <trkpt lat="44.44075" lon="1.0118">
        <ele>219.7</ele>
        <time>2017-05-28T07:02:12.000Z</time>
      </trkpt>
      <trkpt lat="44.44076" lon="1.01186">
        <ele>219.4</ele>
        <time>2017-05-28T07:02:13.000Z</time>
      </trkpt>
      <trkpt lat="44.44076" lon="1.01192">
        <ele>219.1</ele>
        <time>2017-05-28T07:02:14.000Z</time>
      </trkpt>
      <trkpt lat="44.44077" lon="1.01199">
        <ele>218.7</ele>
        <time>2017-05-28T07:02:15.000Z</time>
      </trkpt>
      <trkpt lat="44.44077" lon="1.01207">
        <ele>218.3</ele>
        <time>2017-05-28T07:02:16.000Z</time>
      </trkpt>
      <trkpt lat="44.44078" lon="1.01215">
        <ele>217.9</ele>
        <time>2017-05-28T07:02:17.000Z</time>
      </trkpt>
      <trkpt lat="44.44079" lon="1.01222">
        <ele>217.7</ele>
        <time>2017-05-28T07:02:18.000Z</time>
      </trkpt>
      <trkpt lat="44.44081" lon="1.01227">
        <ele>217.8</ele>
        <time>2017-05-28T07:02:19.000Z</time>
      </trkpt>
      <trkpt lat="44.44084" lon="1.0123">
        <ele>218.2</ele>
        <time>2017-05-28T07:02:20.000Z</time>
      </trkpt>
      <trkpt lat="44.44087" lon="1.01231">
        <ele>218.4</ele>
        <time>2017-05-28T07:02:21.000Z</time>
      </trkpt>
      <trkpt lat="44.4409" lon="1.0123">
        <ele>218.6</ele>
        <time>2017-05-28T07:02:22.000Z</time>
      </trkpt>
      <trkpt lat="44.44093" lon="1.01228">
        <ele>218.9</ele>
        <time>2017-05-28T07:02:23.000Z</time>
      </trkpt>
      <trkpt lat="44.44096" lon="1.01226">
        <ele>219.2</ele>
        <time>2017-05-28T07:02:24.000Z</time>
      </trkpt>
      <trkpt lat="44.44098" lon="1.01225">
        <ele>219.4</ele>
        <time>2017-05-28T07:02:25.000Z</time>
      </trkpt>
      <trkpt lat="44.44101" lon="1.01224">
        <ele>219.7</ele>
        <time>2017-05-28T07:02:26.000Z</time>
      </trkpt>
      <trkpt lat="44.44104" lon="1.01223">
        <ele>219.9</ele>
        <time>2017-05-28T07:02:27.000Z</time>
      </trkpt>
      <trkpt lat="44.44107" lon="1.01222">
        <ele>220.1</ele>
        <time>2017-05-28T07:02:28.000Z</time>
      </trkpt>
      <trkpt lat="44.4411" lon="1.01221">
        <ele>220.4</ele>
        <time>2017-05-28T07:02:29.000Z</time>
      </trkpt>
      <trkpt lat="44.44113" lon="1.0122">
        <ele>220.6</ele>
        <time>2017-05-28T07:02:30.000Z</time>
      </trkpt>
      <trkpt lat="44.44116" lon="1.01219">
        <ele>220.8</ele>
        <time>2017-05-28T07:02:31.000Z</time>
      </trkpt>
      <trkpt lat="44.44119" lon="1.01218">
        <ele>221</ele>
        <time>2017-05-28T07:02:32.000Z</time>
      </trkpt>
      <trkpt lat="44.44122" lon="1.01218">
        <ele>221.2</ele>
        <time>2017-05-28T07:02:33.000Z</time>
      </trkpt>
      <trkpt lat="44.44125" lon="1.01217">
        <ele>221.4</ele>
        <time>2017-05-28T07:02:34.000Z</time>
      </trkpt>
      <trkpt lat="44.44128" lon="1.01217">
        <ele>221.6</ele>
        <time>2017-05-28T07:02:35.000Z</time>
      </trkpt>
      <trkpt lat="44.4413" lon="1.01217">
        <ele>221.8</ele>
        <time>2017-05-28T07:02:36.000Z</time>
      </trkpt>
      <trkpt lat="44.44133" lon="1.01217">
        <ele>222</ele>
        <time>2017-05-28T07:02:37.000Z</time>
      </trkpt>
      <trkpt lat="44.44136" lon="1.01217">
        <ele>222.2</ele>
        <time>2017-05-28T07:02:38.000Z</time>
      </trkpt>
      <trkpt lat="44.44139" lon="1.01217">
        <ele>222.3</ele>
        <time>2017-05-28T07:02:39.000Z</time>
      </trkpt>
      <trkpt lat="44.44142" lon="1.01218">
        <ele>222.5</ele>
        <time>2017-05-28T07:02:40.000Z</time>
      </trkpt>
      <trkpt lat="44.44145" lon="1.01218">
        <ele>222.6</ele>
        <time>2017-05-28T07:02:41.000Z</time>
      </trkpt>
      <trkpt lat="44.44148" lon="1.01219">
        <ele>222.8</ele>
        <time>2017-05-28T07:02:42.000Z</time>
      </trkpt>
      <trkpt lat="44.44151" lon="1.0122">
        <ele>222.9</ele>
        <time>2017-05-28T07:02:43.000Z</time>
      </trkpt>
      <trkpt lat="44.44154" lon="1.01222">
        <ele>223</ele>
        <time>2017-05-28T07:02:44.000Z</time>
      </trkpt>
      <trkpt lat="44.44158" lon="1.01223">
        <ele>223.1</ele>
        <time>2017-05-28T07:02:45.000Z</time>
      </trkpt>
      <trkpt lat="44.44161" lon="1.01225">
        <ele>223.2</ele>
        <time>2017-05-28T07:02:46.000Z</time>
      </trkpt>
      <trkpt lat="44.44164" lon="1.01226">
        <ele>223.3</ele>
        <time>2017-05-28T07:02:47.000Z</time>
      </trkpt>
      <trkpt lat="44.44167" lon="1.01228">
        <ele>223.3</ele>
        <time>2017-05-28T07:02:48.000Z</time>
      </trkpt>
      <trkpt lat="44.44171" lon="1.0123">
        <ele>223.1</ele>
        <time>2017-05-28T07:02:49.000Z</time>
      </trkpt>
      <trkpt lat="44.44174" lon="1.01233">
        <ele>222.9</ele>
        <time>2017-05-28T07:02:50.000Z</time>
      </trkpt>
      <trkpt lat="44.44178" lon="1.01235">
        <ele>222.6</ele>
        <time>2017-05-28T07:02:51.000Z</time>
      </trkpt>
      <trkpt lat="44.44181" lon="1.01239">
        <ele>222.3</ele>
        <time>2017-05-28T07:02:52.000Z</time>
      </trkpt>
      <trkpt lat="44.44185" lon="1.01242">
        <ele>222</ele>
        <time>2017-05-28T07:02:53.000Z</time>
      </trkpt>
      <trkpt lat="44.44188" lon="1.01247">
        <ele>221.7</ele>
        <time>2017-05-28T07:02:54.000Z</time>
      </trkpt>
      <trkpt lat="44.44192" lon="1.01252">
        <ele>221.3</ele>
        <time>2017-05-28T07:02:55.000Z</time>
      </trkpt>
      <trkpt lat="44.44196" lon="1.01257">
        <ele>220.9</ele>
        <time>2017-05-28T07:02:56.000Z</time>
      </trkpt>
      <trkpt lat="44.44199" lon="1.01264">
        <ele>220.5</ele>
        <time>2017-05-28T07:02:57.000Z</time>
      </trkpt>
      <trkpt lat="44.44203" lon="1.01271">
        <ele>220.1</ele>
        <time>2017-05-28T07:02:58.000Z</time>
      </trkpt>
      <trkpt lat="44.44206" lon="1.01278">
        <ele>219.7</ele>
        <time>2017-05-28T07:02:59.000Z</time>
      </trkpt>
      <trkpt lat="44.4421" lon="1.01286">
        <ele>219.3</ele>
        <time>2017-05-28T07:03:00.000Z</time>
      </trkpt>
      <trkpt lat="44.44213" lon="1.01294">
        <ele>218.8</ele>
        <time>2017-05-28T07:03:01.000Z</time>
      </trkpt>
      <trkpt lat="44.44217" lon="1.01302">
        <ele>218.4</ele>
        <time>2017-05-28T07:03:02.000Z</time>
      </trkpt>
      <trkpt lat="44.4422" lon="1.01311">
        <ele>218</ele>
        <time>2017-05-28T07:03:03.000Z</time>
      </trkpt>
      <trkpt lat="44.44224" lon="1.01319">
        <ele>217.6</ele>
        <time>2017-05-28T07:03:04.000Z</time>
      </trkpt>
      <trkpt lat="44.44228" lon="1.01327">
        <ele>217.3</ele>
        <time>2017-05-28T07:03:05.000Z</time>
      </trkpt>
      <trkpt lat="44.44231" lon="1.01336">
        <ele>217</ele>
        <time>2017-05-28T07:03:06.000Z</time>
      </trkpt>
      <trkpt lat="44.44234" lon="1.01344">
        <ele>217</ele>
        <time>2017-05-28T07:03:07.000Z</time>
      </trkpt>
      <trkpt lat="44.44237" lon="1.01352">
        <ele>217</ele>
        <time>2017-05-28T07:03:08.000Z</time>
      </trkpt>
      <trkpt lat="44.4424" lon="1.01359">
        <ele>217</ele>
        <time>2017-05-28T07:03:09.000Z</time>
      </trkpt>
      <trkpt lat="44.44243" lon="1.01366">
        <ele>217</ele>
        <time>2017-05-28T07:03:10.000Z</time>
      </trkpt>
      <trkpt lat="44.44245" lon="1.01373">
        <ele>217</ele>
        <time>2017-05-28T07:03:11.000Z</time>
      </trkpt>
      <trkpt lat="44.44247" lon="1.01379">
        <ele>217</ele>
        <time>2017-05-28T07:03:12.000Z</time>
      </trkpt>
      <trkpt lat="44.44248" lon="1.01385">
        <ele>217</ele>
        <time>2017-05-28T07:03:13.000Z</time>
      </trkpt>
      <trkpt lat="44.4425" lon="1.0139">
        <ele>217</ele>
        <time>2017-05-28T07:03:14.000Z</time>
      </trkpt>
      <trkpt lat="44.44251" lon="1.01396">
        <ele>217</ele>
        <time>2017-05-28T07:03:15.000Z</time>
      </trkpt>
      <trkpt lat="44.44253" lon="1.01401">
        <ele>217.1</ele>
        <time>2017-05-28T07:03:16.000Z</time>
      </trkpt>
      <trkpt lat="44.44255" lon="1.01407">
        <ele>217.2</ele>
        <time>2017-05-28T07:03:17.000Z</time>
      </trkpt>
      <trkpt lat="44.44257" lon="1.01414">
        <ele>217.3</ele>
        <time>2017-05-28T07:03:18.000Z</time>
      </trkpt>
      <trkpt lat="44.44259" lon="1.0142">
        <ele>217.4</ele>
        <time>2017-05-28T07:03:19.000Z</time>
      </trkpt>
      <trkpt lat="44.44259" lon="1.01427">
        <ele>217.4</ele>
        <time>2017-05-28T07:03:20.000Z</time>
      </trkpt>
      <trkpt lat="44.44259" lon="1.01432">
        <ele>217.4</ele>
        <time>2017-05-28T07:03:21.000Z</time>
      </trkpt>
      <trkpt lat="44.44257" lon="1.01437">
        <ele>217.3</ele>
        <time>2017-05-28T07:03:22.000Z</time>
      </trkpt>
      <trkpt lat="44.44255" lon="1.01441">
        <ele>217.2</ele>
        <time>2017-05-28T07:03:23.000Z</time>
      </trkpt>
      <trkpt lat="44.44252" lon="1.01445">
        <ele>217.1</ele>
        <time>2017-05-28T07:03:24.000Z</time>
      </trkpt>
      <trkpt lat="44.44249" lon="1.0145">
        <ele>217</ele>
        <time>2017-05-28T07:03:25.000Z</time>
      </trkpt>
      <trkpt lat="44.44246" lon="1.01454">
        <ele>216.9</ele>
        <time>2017-05-28T07:03:26.000Z</time>
      </trkpt>
      <trkpt lat="44.44243" lon="1.01459">
        <ele>216.8</ele>
        <time>2017-05-28T07:03:27.000Z</time>
      </trkpt>
      <trkpt lat="44.4424" lon="1.01463">
        <ele>216.8</ele>
        <time>2017-05-28T07:03:28.000Z</time>
      </trkpt>
      <trkpt lat="44.44237" lon="1.01468">
        <ele>216.7</ele>
        <time>2017-05-28T07:03:29.000Z</time>
      </trkpt>
      <trkpt lat="44.44234" lon="1.01474">
        <ele>216.6</ele>
        <time>2017-05-28T07:03:30.000Z</time>
      </trkpt>
      <trkpt lat="44.44231" lon="1.01479">
        <ele>216.4</ele>
        <time>2017-05-28T07:03:31.000Z</time>
      </trkpt>
      <trkpt lat="44.44228" lon="1.01485">
        <ele>216.3</ele>
        <time>2017-05-28T07:03:32.000Z</time>
      </trkpt>
      <trkpt lat="44.44225" lon="1.0149">
        <ele>216.2</ele>
        <time>2017-05-28T07:03:33.000Z</time>
      </trkpt>
      <trkpt lat="44.44222" lon="1.01496">
        <ele>216</ele>
        <time>2017-05-28T07:03:34.000Z</time>
      </trkpt>
      <trkpt lat="44.44218" lon="1.01502">
        <ele>215.8</ele>
        <time>2017-05-28T07:03:35.000Z</time>
      </trkpt>
      <trkpt lat="44.44214" lon="1.01508">
        <ele>215.7</ele>
        <time>2017-05-28T07:03:36.000Z</time>
      </trkpt>
      <trkpt lat="44.44211" lon="1.01514">
        <ele>215.5</ele>
        <time>2017-05-28T07:03:37.000Z</time>
      </trkpt>
      <trkpt lat="44.44208" lon="1.01521">
        <ele>215.4</ele>
        <time>2017-05-28T07:03:38.000Z</time>
      </trkpt>
      <trkpt lat="44.44207" lon="1.01528">
        <ele>215.3</ele>
        <time>2017-05-28T07:03:39.000Z</time>
      </trkpt>
      <trkpt lat="44.44209" lon="1.01533">
        <ele>215.3</ele>
        <time>2017-05-28T07:03:40.000Z</time>
      </trkpt>
      <trkpt lat="44.44212" lon="1.01536">
        <ele>215.4</ele>
        <time>2017-05-28T07:03:41.000Z</time>
      </trkpt>
      <trkpt lat="44.44216" lon="1.01539">
        <ele>215.6</ele>
        <time>2017-05-28T07:03:42.000Z</time>
      </trkpt>
      <trkpt lat="44.44221" lon="1.01541">
        <ele>215.8</ele>
        <time>2017-05-28T07:03:43.000Z</time>
      </trkpt>
      <trkpt lat="44.44225" lon="1.01542">
        <ele>215.9</ele>
        <time>2017-05-28T07:03:44.000Z</time>
      </trkpt>
      <trkpt lat="44.44229" lon="1.01544">
        <ele>216.1</ele>
        <time>2017-05-28T07:03:45.000Z</time>
      </trkpt>
      <trkpt lat="44.44233" lon="1.01546">
        <ele>216.3</ele>
        <time>2017-05-28T07:03:46.000Z</time>
      </trkpt>
      <trkpt lat="44.44238" lon="1.01547">
        <ele>216.5</ele>
        <time>2017-05-28T07:03:47.000Z</time>
      </trkpt>
      <trkpt lat="44.44242" lon="1.01549">
        <ele>216.6</ele>
        <time>2017-05-28T07:03:48.000Z</time>
      </trkpt>
      <trkpt lat="44.44246" lon="1.01551">
        <ele>216.8</ele>
        <time>2017-05-28T07:03:49.000Z</time>
      </trkpt>
      <trkpt lat="44.4425" lon="1.01553">
        <ele>217</ele>
        <time>2017-05-28T07:03:50.000Z</time>
      </trkpt>
      <trkpt lat="44.44254" lon="1.01554">
        <ele>217.1</ele>
        <time>2017-05-28T07:03:51.000Z</time>
      </trkpt>
      <trkpt lat="44.44257" lon="1.01555">
        <ele>217.2</ele>
        <time>2017-05-28T07:03:52.000Z</time>
      </trkpt>
      <trkpt lat="44.44261" lon="1.01556">
        <ele>217.3</ele>
        <time>2017-05-28T07:03:53.000Z</time>
      </trkpt>
      <trkpt lat="44.44265" lon="1.01557">
        <ele>217.5</ele>
        <time>2017-05-28T07:03:54.000Z</time>
      </trkpt>
      <trkpt lat="44.44268" lon="1.01558">
        <ele>217.6</ele>
        <time>2017-05-28T07:03:55.000Z</time>
      </trkpt>
      <trkpt lat="44.44272" lon="1.01558">
        <ele>217.7</ele>
        <time>2017-05-28T07:03:56.000Z</time>
      </trkpt>
      <trkpt lat="44.44276" lon="1.01558">
        <ele>217.8</ele>
        <time>2017-05-28T07:03:57.000Z</time>
      </trkpt>
      <trkpt lat="44.44279" lon="1.01559">
        <ele>217.9</ele>
        <time>2017-05-28T07:03:58.000Z</time>
      </trkpt>
      <trkpt lat="44.44283" lon="1.01559">
        <ele>218</ele>
        <time>2017-05-28T07:03:59.000Z</time>
      </trkpt>
      <trkpt lat="44.44287" lon="1.01559">
        <ele>218.1</ele>
        <time>2017-05-28T07:04:00.000Z</time>
      </trkpt>
      <trkpt lat="44.4429" lon="1.0156">
        <ele>218.2</ele>
        <time>2017-05-28T07:04:01.000Z</time>
      </trkpt>
      <trkpt lat="44.44294" lon="1.0156">
        <ele>218.4</ele>
        <time>2017-05-28T07:04:02.000Z</time>
      </trkpt>
      <trkpt lat="44.44298" lon="1.0156">
        <ele>218.5</ele>
        <time>2017-05-28T07:04:03.000Z</time>
      </trkpt>
      <trkpt lat="44.44302" lon="1.01561">
        <ele>218.6</ele>
        <time>2017-05-28T07:04:04.000Z</time>
      </trkpt>
      <trkpt lat="44.44306" lon="1.01561">
        <ele>218.7</ele>
        <time>2017-05-28T07:04:05.000Z</time>
      </trkpt>
      <trkpt lat="44.44309" lon="1.01561">
        <ele>218.8</ele>
        <time>2017-05-28T07:04:06.000Z</time>
      </trkpt>
      <trkpt lat="44.44313" lon="1.01561">
        <ele>218.9</ele>
        <time>2017-05-28T07:04:07.000Z</time>
      </trkpt>
      <trkpt lat="44.44317" lon="1.01561">
        <ele>219</ele>
        <time>2017-05-28T07:04:08.000Z</time>
      </trkpt>
      <trkpt lat="44.44321" lon="1.01561">
        <ele>219.2</ele>
        <time>2017-05-28T07:04:09.000Z</time>
      </trkpt>
      <trkpt lat="44.44325" lon="1.01561">
        <ele>219.3</ele>
        <time>2017-05-28T07:04:10.000Z</time>
      </trkpt>
      <trkpt lat="44.44328" lon="1.01561">
        <ele>219.4</ele>
        <time>2017-05-28T07:04:11.000Z</time>
      </trkpt>
      <trkpt lat="44.44332" lon="1.01561">
        <ele>219.5</ele>
        <time>2017-05-28T07:04:12.000Z</time>
      </trkpt>
      <trkpt lat="44.44335" lon="1.01561">
        <ele>219.5</ele>
        <time>2017-05-28T07:04:13.000Z</time>
      </trkpt>
      <trkpt lat="44.44339" lon="1.01562">
        <ele>219.4</ele>
        <time>2017-05-28T07:04:14.000Z</time>
      </trkpt>
      <trkpt lat="44.44342" lon="1.01563">
        <ele>219.4</ele>
        <time>2017-05-28T07:04:15.000Z</time>
      </trkpt>
      <trkpt lat="44.44346" lon="1.01563">
        <ele>219.3</ele>
        <time>2017-05-28T07:04:16.000Z</time>
      </trkpt>
      <trkpt lat="44.44349" lon="1.01565">
        <ele>219.2</ele>
        <time>2017-05-28T07:04:17.000Z</time>
      </trkpt>
      <trkpt lat="44.44354" lon="1.01566">
        <ele>219.1</ele>
        <time>2017-05-28T07:04:18.000Z</time>
      </trkpt>
      <trkpt lat="44.44358" lon="1.01567">
        <ele>219</ele>
        <time>2017-05-28T07:04:19.000Z</time>
      </trkpt>
      <trkpt lat="44.44363" lon="1.01569">
        <ele>218.8</ele>
        <time>2017-05-28T07:04:20.000Z</time>
      </trkpt>
      <trkpt lat="44.44368" lon="1.01571">
        <ele>218.7</ele>
        <time>2017-05-28T07:04:21.000Z</time>
      </trkpt>
      <trkpt lat="44.44374" lon="1.01573">
        <ele>218.5</ele>
        <time>2017-05-28T07:04:22.000Z</time>
      </trkpt>
      <trkpt lat="44.4438" lon="1.01575">
        <ele>218.2</ele>
        <time>2017-05-28T07:04:23.000Z</time>
      </trkpt>
      <trkpt lat="44.44386" lon="1.01578">
        <ele>218</ele>
        <time>2017-05-28T07:04:24.000Z</time>
      </trkpt>
      <trkpt lat="44.44392" lon="1.01581">
        <ele>217.7</ele>
        <time>2017-05-28T07:04:25.000Z</time>
      </trkpt>
      <trkpt lat="44.44399" lon="1.01584">
        <ele>217.4</ele>
        <time>2017-05-28T07:04:26.000Z</time>
      </trkpt>
      <trkpt lat="44.44405" lon="1.01588">
        <ele>217</ele>
        <time>2017-05-28T07:04:27.000Z</time>
      </trkpt>
      <trkpt lat="44.44412" lon="1.01592">
        <ele>216.5</ele>
        <time>2017-05-28T07:04:28.000Z</time>
      </trkpt>
      <trkpt lat="44.44418" lon="1.01596">
        <ele>216.1</ele>
        <time>2017-05-28T07:04:29.000Z</time>
      </trkpt>
      <trkpt lat="44.44425" lon="1.016">
        <ele>215.8</ele>
        <time>2017-05-28T07:04:30.000Z</time>
      </trkpt>
      <trkpt lat="44.44431" lon="1.01605">
        <ele>215.6</ele>
        <time>2017-05-28T07:04:31.000Z</time>
      </trkpt>
      <trkpt lat="44.44438" lon="1.0161">
        <ele>215.3</ele>
        <time>2017-05-28T07:04:32.000Z</time>
      </trkpt>
      <trkpt lat="44.44444" lon="1.01615">
        <ele>215.1</ele>
        <time>2017-05-28T07:04:33.000Z</time>
      </trkpt>
      <trkpt lat="44.4445" lon="1.01621">
        <ele>215</ele>
        <time>2017-05-28T07:04:34.000Z</time>
      </trkpt>
      <trkpt lat="44.44456" lon="1.01627">
        <ele>214.9</ele>
        <time>2017-05-28T07:04:35.000Z</time>
      </trkpt>
      <trkpt lat="44.44462" lon="1.01633">
        <ele>214.8</ele>
        <time>2017-05-28T07:04:36.000Z</time>
      </trkpt>
      <trkpt lat="44.44468" lon="1.01638">
        <ele>214.9</ele>
        <time>2017-05-28T07:04:37.000Z</time>
      </trkpt>
      <trkpt lat="44.44474" lon="1.01644">
        <ele>215</ele>
        <time>2017-05-28T07:04:38.000Z</time>
      </trkpt>
      <trkpt lat="44.4448" lon="1.01649">
        <ele>215.1</ele>
        <time>2017-05-28T07:04:39.000Z</time>
      </trkpt>
      <trkpt lat="44.44486" lon="1.01655">
        <ele>215.3</ele>
        <time>2017-05-28T07:04:40.000Z</time>
      </trkpt>
      <trkpt lat="44.44491" lon="1.0166">
        <ele>215.5</ele>
        <time>2017-05-28T07:04:41.000Z</time>
      </trkpt>
      <trkpt lat="44.44496" lon="1.01665">
        <ele>215.7</ele>
        <time>2017-05-28T07:04:42.000Z</time>
      </trkpt>
      <trkpt lat="44.445" lon="1.0167">
        <ele>215.8</ele>
        <time>2017-05-28T07:04:43.000Z</time>
      </trkpt>
      <trkpt lat="44.44505" lon="1.01675">
        <ele>215.6</ele>
        <time>2017-05-28T07:04:44.000Z</time>
      </trkpt>
      <trkpt lat="44.44509" lon="1.01679">
        <ele>215.4</ele>
        <time>2017-05-28T07:04:45.000Z</time>
      </trkpt>
      <trkpt lat="44.44514" lon="1.01684">
        <ele>215.3</ele>
        <time>2017-05-28T07:04:46.000Z</time>
      </trkpt>
      <trkpt lat="44.44518" lon="1.01688">
        <ele>215.2</ele>
        <time>2017-05-28T07:04:47.000Z</time>
      </trkpt>
      <trkpt lat="44.44522" lon="1.01692">
        <ele>215.1</ele>
        <time>2017-05-28T07:04:48.000Z</time>
      </trkpt>
      <trkpt lat="44.44527" lon="1.01696">
        <ele>215</ele>
        <time>2017-05-28T07:04:49.000Z</time>
      </trkpt>
      <trkpt lat="44.44531" lon="1.017">
        <ele>215</ele>
        <time>2017-05-28T07:04:50.000Z</time>
      </trkpt>
      <trkpt lat="44.44536" lon="1.01703">
        <ele>215</ele>
        <time>2017-05-28T07:04:51.000Z</time>
      </trkpt>
      <trkpt lat="44.4454" lon="1.01707">
        <ele>215</ele>
        <time>2017-05-28T07:04:52.000Z</time>
      </trkpt>
      <trkpt lat="44.44545" lon="1.0171">
        <ele>215.1</ele>
        <time>2017-05-28T07:04:53.000Z</time>
      </trkpt>
      <trkpt lat="44.44549" lon="1.01712">
        <ele>215.1</ele>
        <time>2017-05-28T07:04:54.000Z</time>
      </trkpt>
      <trkpt lat="44.44554" lon="1.01715">
        <ele>215.2</ele>
        <time>2017-05-28T07:04:55.000Z</time>
      </trkpt>
      <trkpt lat="44.44558" lon="1.01717">
        <ele>215.4</ele>
        <time>2017-05-28T07:04:56.000Z</time>
      </trkpt>
      <trkpt lat="44.44563" lon="1.01718">
        <ele>215.5</ele>
        <time>2017-05-28T07:04:57.000Z</time>
      </trkpt>
      <trkpt lat="44.44568" lon="1.0172">
        <ele>215.7</ele>
        <time>2017-05-28T07:04:58.000Z</time>
      </trkpt>
      <trkpt lat="44.44573" lon="1.01721">
        <ele>215.9</ele>
        <time>2017-05-28T07:04:59.000Z</time>
      </trkpt>
      <trkpt lat="44.44577" lon="1.01722">
        <ele>216.1</ele>
        <time>2017-05-28T07:05:00.000Z</time>
      </trkpt>
      <trkpt lat="44.44582" lon="1.01723">
        <ele>216.3</ele>
        <time>2017-05-28T07:05:01.000Z</time>
      </trkpt>
      <trkpt lat="44.44587" lon="1.01724">
        <ele>216.3</ele>
        <time>2017-05-28T07:05:02.000Z</time>
      </trkpt>
      <trkpt lat="44.44592" lon="1.01725">
        <ele>216.2</ele>
        <time>2017-05-28T07:05:03.000Z</time>
      </trkpt>
      <trkpt lat="44.44596" lon="1.01726">
        <ele>216.1</ele>
        <time>2017-05-28T07:05:04.000Z</time>
      </trkpt>
      <trkpt lat="44.44601" lon="1.01727">
        <ele>216.1</ele>
        <time>2017-05-28T07:05:05.000Z</time>
      </trkpt>
      <trkpt lat="44.44605" lon="1.01728">
        <ele>216</ele>
        <time>2017-05-28T07:05:06.000Z</time>
      </trkpt>
      <trkpt lat="44.44609" lon="1.01729">
        <ele>215.9</ele>
        <time>2017-05-28T07:05:07.000Z</time>
      </trkpt>
      <trkpt lat="44.44614" lon="1.0173">
        <ele>215.9</ele>
        <time>2017-05-28T07:05:08.000Z</time>
      </trkpt>
      <trkpt lat="44.44619" lon="1.01732">
        <ele>215.8</ele>
        <time>2017-05-28T07:05:09.000Z</time>
      </trkpt>
      <trkpt lat="44.44623" lon="1.01733">
        <ele>215.7</ele>
        <time>2017-05-28T07:05:10.000Z</time>
      </trkpt>
      <trkpt lat="44.44628" lon="1.01734">
        <ele>215.7</ele>
        <time>2017-05-28T07:05:11.000Z</time>
      </trkpt>
      <trkpt lat="44.44633" lon="1.01735">
        <ele>215.6</ele>
        <time>2017-05-28T07:05:12.000Z</time>
      </trkpt>
      <trkpt lat="44.44638" lon="1.01736">
        <ele>215.5</ele>
        <time>2017-05-28T07:05:13.000Z</time>
      </trkpt>
      <trkpt lat="44.44643" lon="1.01738">
        <ele>215.4</ele>
        <time>2017-05-28T07:05:14.000Z</time>
      </trkpt>
      <trkpt lat="44.44648" lon="1.01739">
        <ele>215.4</ele>
        <time>2017-05-28T07:05:15.000Z</time>
      </trkpt>
      <trkpt lat="44.44653" lon="1.01741">
        <ele>215.3</ele>
        <time>2017-05-28T07:05:16.000Z</time>
      </trkpt>
      <trkpt lat="44.44659" lon="1.01743">
        <ele>215.2</ele>
        <time>2017-05-28T07:05:17.000Z</time>
      </trkpt>
      <trkpt lat="44.44664" lon="1.01745">
        <ele>215.1</ele>
        <time>2017-05-28T07:05:18.000Z</time>
      </trkpt>
      <trkpt lat="44.4467" lon="1.01747">
        <ele>214.9</ele>
        <time>2017-05-28T07:05:19.000Z</time>
      </trkpt>
      <trkpt lat="44.44676" lon="1.0175">
        <ele>214.6</ele>
        <time>2017-05-28T07:05:20.000Z</time>
      </trkpt>
      <trkpt lat="44.44682" lon="1.01753">
        <ele>214.1</ele>
        <time>2017-05-28T07:05:21.000Z</time>
      </trkpt>
      <trkpt lat="44.44689" lon="1.01756">
        <ele>213.6</ele>
        <time>2017-05-28T07:05:22.000Z</time>
      </trkpt>
      <trkpt lat="44.44695" lon="1.01759">
        <ele>213.1</ele>
        <time>2017-05-28T07:05:23.000Z</time>
      </trkpt>
      <trkpt lat="44.44702" lon="1.01763">
        <ele>212.5</ele>
        <time>2017-05-28T07:05:24.000Z</time>
      </trkpt>
      <trkpt lat="44.4471" lon="1.01767">
        <ele>211.9</ele>
        <time>2017-05-28T07:05:25.000Z</time>
      </trkpt>
      <trkpt lat="44.44717" lon="1.01771">
        <ele>211.3</ele>
        <time>2017-05-28T07:05:26.000Z</time>
      </trkpt>
      <trkpt lat="44.44725" lon="1.01775">
        <ele>210.7</ele>
        <time>2017-05-28T07:05:27.000Z</time>
      </trkpt>
      <trkpt lat="44.44733" lon="1.01779">
        <ele>210.1</ele>
        <time>2017-05-28T07:05:28.000Z</time>
      </trkpt>
      <trkpt lat="44.44741" lon="1.01783">
        <ele>209.4</ele>
        <time>2017-05-28T07:05:29.000Z</time>
      </trkpt>
      <trkpt lat="44.44749" lon="1.01788">
        <ele>208.8</ele>
        <time>2017-05-28T07:05:30.000Z</time>
      </trkpt>
      <trkpt lat="44.44757" lon="1.01792">
        <ele>208.5</ele>
        <time>2017-05-28T07:05:31.000Z</time>
      </trkpt>
      <trkpt lat="44.44765" lon="1.01796">
        <ele>208.2</ele>
        <time>2017-05-28T07:05:32.000Z</time>
      </trkpt>
      <trkpt lat="44.44774" lon="1.018">
        <ele>208</ele>
        <time>2017-05-28T07:05:33.000Z</time>
      </trkpt>
      <trkpt lat="44.44782" lon="1.01804">
        <ele>207.8</ele>
        <time>2017-05-28T07:05:34.000Z</time>
      </trkpt>
      <trkpt lat="44.4479" lon="1.01808">
        <ele>207.6</ele>
        <time>2017-05-28T07:05:35.000Z</time>
      </trkpt>
      <trkpt lat="44.44798" lon="1.01812">
        <ele>207.4</ele>
        <time>2017-05-28T07:05:36.000Z</time>
      </trkpt>
      <trkpt lat="44.44806" lon="1.01816">
        <ele>207.3</ele>
        <time>2017-05-28T07:05:37.000Z</time>
      </trkpt>
      <trkpt lat="44.44813" lon="1.0182">
        <ele>207.2</ele>
        <time>2017-05-28T07:05:38.000Z</time>
      </trkpt>
      <trkpt lat="44.44821" lon="1.01823">
        <ele>207.2</ele>
        <time>2017-05-28T07:05:39.000Z</time>
      </trkpt>
      <trkpt lat="44.44827" lon="1.01824">
        <ele>207.2</ele>
        <time>2017-05-28T07:05:40.000Z</time>
      </trkpt>
      <trkpt lat="44.44832" lon="1.01823">
        <ele>207.2</ele>
        <time>2017-05-28T07:05:41.000Z</time>
      </trkpt>
      <trkpt lat="44.44836" lon="1.01818">
        <ele>207.3</ele>
        <time>2017-05-28T07:05:42.000Z</time>
      </trkpt>
      <trkpt lat="44.44838" lon="1.01812">
        <ele>207.4</ele>
        <time>2017-05-28T07:05:43.000Z</time>
      </trkpt>
      <trkpt lat="44.44839" lon="1.01804">
        <ele>207.5</ele>
        <time>2017-05-28T07:05:44.000Z</time>
      </trkpt>
      <trkpt lat="44.44839" lon="1.01797">
        <ele>207.6</ele>
        <time>2017-05-28T07:05:45.000Z</time>
      </trkpt>
      <trkpt lat="44.4484" lon="1.01789">
        <ele>207.7</ele>
        <time>2017-05-28T07:05:46.000Z</time>
      </trkpt>
      <trkpt lat="44.44841" lon="1.0178">
        <ele>207.8</ele>
        <time>2017-05-28T07:05:47.000Z</time>
      </trkpt>
      <trkpt lat="44.44842" lon="1.01772">
        <ele>207.9</ele>
        <time>2017-05-28T07:05:48.000Z</time>
      </trkpt>
      <trkpt lat="44.44842" lon="1.01763">
        <ele>207.9</ele>
        <time>2017-05-28T07:05:49.000Z</time>
      </trkpt>
      <trkpt lat="44.44843" lon="1.01755">
        <ele>208</ele>
        <time>2017-05-28T07:05:50.000Z</time>
      </trkpt>
      <trkpt lat="44.44844" lon="1.01747">
        <ele>208</ele>
        <time>2017-05-28T07:05:51.000Z</time>
      </trkpt>
      <trkpt lat="44.44845" lon="1.0174">
        <ele>208</ele>
        <time>2017-05-28T07:05:52.000Z</time>
      </trkpt>
      <trkpt lat="44.44845" lon="1.01732">
        <ele>207.9</ele>
        <time>2017-05-28T07:05:53.000Z</time>
      </trkpt>
      <trkpt lat="44.44846" lon="1.01725">
        <ele>207.9</ele>
        <time>2017-05-28T07:05:54.000Z</time>
      </trkpt>
      <trkpt lat="44.44846" lon="1.01718">
        <ele>207.9</ele>
        <time>2017-05-28T07:05:55.000Z</time>
      </trkpt>
      <trkpt lat="44.44848" lon="1.01712">
        <ele>207.8</ele>
        <time>2017-05-28T07:05:56.000Z</time>
      </trkpt>
      <trkpt lat="44.4485" lon="1.01707">
        <ele>207.6</ele>
        <time>2017-05-28T07:05:57.000Z</time>
      </trkpt>
      <trkpt lat="44.44853" lon="1.01702">
        <ele>207.4</ele>
        <time>2017-05-28T07:05:58.000Z</time>
      </trkpt>
      <trkpt lat="44.44856" lon="1.01698">
        <ele>207.1</ele>
        <time>2017-05-28T07:05:59.000Z</time>
      </trkpt>
      <trkpt lat="44.4486" lon="1.01693">
        <ele>206.9</ele>
        <time>2017-05-28T07:06:00.000Z</time>
      </trkpt>
      <trkpt lat="44.44864" lon="1.01689">
        <ele>206.6</ele>
        <time>2017-05-28T07:06:01.000Z</time>
      </trkpt>
      <trkpt lat="44.44868" lon="1.01684">
        <ele>206.3</ele>
        <time>2017-05-28T07:06:02.000Z</time>
      </trkpt>
      <trkpt lat="44.44872" lon="1.0168">
        <ele>206.1</ele>
        <time>2017-05-28T07:06:03.000Z</time>
      </trkpt>
      <trkpt lat="44.44876" lon="1.01676">
        <ele>205.8</ele>
        <time>2017-05-28T07:06:04.000Z</time>
      </trkpt>
      <trkpt lat="44.4488" lon="1.01672">
        <ele>205.5</ele>
        <time>2017-05-28T07:06:05.000Z</time>
      </trkpt>
      <trkpt lat="44.44885" lon="1.01669">
        <ele>205.3</ele>
        <time>2017-05-28T07:06:06.000Z</time>
      </trkpt>
      <trkpt lat="44.4489" lon="1.01667">
        <ele>204.9</ele>
        <time>2017-05-28T07:06:07.000Z</time>
      </trkpt>
      <trkpt lat="44.44895" lon="1.01666">
        <ele>204.5</ele>
        <time>2017-05-28T07:06:08.000Z</time>
      </trkpt>
      <trkpt lat="44.44901" lon="1.01666">
        <ele>204.1</ele>
        <time>2017-05-28T07:06:09.000Z</time>
      </trkpt>
      <trkpt lat="44.44908" lon="1.01666">
        <ele>203.6</ele>
        <time>2017-05-28T07:06:10.000Z</time>
      </trkpt>
      <trkpt lat="44.44915" lon="1.01668">
        <ele>203.1</ele>
        <time>2017-05-28T07:06:11.000Z</time>
      </trkpt>
      <trkpt lat="44.44923" lon="1.0167">
        <ele>202.2</ele>
        <time>2017-05-28T07:06:12.000Z</time>
      </trkpt>
      <trkpt lat="44.44931" lon="1.01672">
        <ele>201.1</ele>
        <time>2017-05-28T07:06:13.000Z</time>
      </trkpt>
      <trkpt lat="44.4494" lon="1.01673">
        <ele>200.1</ele>
        <time>2017-05-28T07:06:14.000Z</time>
      </trkpt>
      <trkpt lat="44.44949" lon="1.01673">
        <ele>199</ele>
        <time>2017-05-28T07:06:15.000Z</time>
      </trkpt>
      <trkpt lat="44.44957" lon="1.01671">
        <ele>197.9</ele>
        <time>2017-05-28T07:06:16.000Z</time>
      </trkpt>
      <trkpt lat="44.44964" lon="1.01666">
        <ele>196.8</ele>
        <time>2017-05-28T07:06:17.000Z</time>
      </trkpt>
      <trkpt lat="44.44969" lon="1.01658">
        <ele>196.1</ele>
        <time>2017-05-28T07:06:18.000Z</time>
      </trkpt>
      <trkpt lat="44.44973" lon="1.01651">
        <ele>195.5</ele>
        <time>2017-05-28T07:06:19.000Z</time>
      </trkpt>
      <trkpt lat="44.44978" lon="1.01644">
        <ele>194.9</ele>
        <time>2017-05-28T07:06:20.000Z</time>
      </trkpt>
      <trkpt lat="44.44982" lon="1.01639">
        <ele>194.3</ele>
        <time>2017-05-28T07:06:21.000Z</time>
      </trkpt>
      <trkpt lat="44.44987" lon="1.01634">
        <ele>193.7</ele>
        <time>2017-05-28T07:06:22.000Z</time>
      </trkpt>
      <trkpt lat="44.44992" lon="1.01629">
        <ele>193.1</ele>
        <time>2017-05-28T07:06:23.000Z</time>
      </trkpt>
      <trkpt lat="44.44998" lon="1.01623">
        <ele>192.3</ele>
        <time>2017-05-28T07:06:24.000Z</time>
      </trkpt>
      <trkpt lat="44.45005" lon="1.01617">
        <ele>191.6</ele>
        <time>2017-05-28T07:06:25.000Z</time>
      </trkpt>
      <trkpt lat="44.45012" lon="1.01609">
        <ele>190.7</ele>
        <time>2017-05-28T07:06:26.000Z</time>
      </trkpt>
      <trkpt lat="44.4502" lon="1.01601">
        <ele>189.7</ele>
        <time>2017-05-28T07:06:27.000Z</time>
      </trkpt>
      <trkpt lat="44.45028" lon="1.01592">
        <ele>188.6</ele>
        <time>2017-05-28T07:06:28.000Z</time>
      </trkpt>
      <trkpt lat="44.45036" lon="1.01584">
        <ele>187.3</ele>
        <time>2017-05-28T07:06:29.000Z</time>
      </trkpt>
      <trkpt lat="44.45044" lon="1.01578">
        <ele>185.8</ele>
        <time>2017-05-28T07:06:30.000Z</time>
      </trkpt>
      <trkpt lat="44.45053" lon="1.01573">
        <ele>184.3</ele>
        <time>2017-05-28T07:06:31.000Z</time>
      </trkpt>
      <trkpt lat="44.45063" lon="1.01571">
        <ele>182.8</ele>
        <time>2017-05-28T07:06:32.000Z</time>
      </trkpt>
      <trkpt lat="44.45073" lon="1.0157">
        <ele>181.4</ele>
        <time>2017-05-28T07:06:33.000Z</time>
      </trkpt>
      <trkpt lat="44.45083" lon="1.01571">
        <ele>180.2</ele>
        <time>2017-05-28T07:06:34.000Z</time>
      </trkpt>
      <trkpt lat="44.45092" lon="1.01572">
        <ele>179.6</ele>
        <time>2017-05-28T07:06:35.000Z</time>
      </trkpt>
      <trkpt lat="44.451" lon="1.01574">
        <ele>179.2</ele>
        <time>2017-05-28T07:06:36.000Z</time>
      </trkpt>
      <trkpt lat="44.45107" lon="1.01575">
        <ele>178.9</ele>
        <time>2017-05-28T07:06:37.000Z</time>
      </trkpt>
      <trkpt lat="44.45113" lon="1.01576">
        <ele>178.6</ele>
        <time>2017-05-28T07:06:38.000Z</time>
      </trkpt>
      <trkpt lat="44.45119" lon="1.01577">
        <ele>178.3</ele>
        <time>2017-05-28T07:06:39.000Z</time>
      </trkpt>
      <trkpt lat="44.45124" lon="1.01578">
        <ele>178</ele>
        <time>2017-05-28T07:06:40.000Z</time>
      </trkpt>
      <trkpt lat="44.45129" lon="1.01579">
        <ele>177.8</ele>
        <time>2017-05-28T07:06:41.000Z</time>
      </trkpt>
      <trkpt lat="44.45134" lon="1.01579">
        <ele>177.5</ele>
        <time>2017-05-28T07:06:42.000Z</time>
      </trkpt>
      <trkpt lat="44.45139" lon="1.01579">
        <ele>177.2</ele>
        <time>2017-05-28T07:06:43.000Z</time>
      </trkpt>
      <trkpt lat="44.45143" lon="1.01579">
        <ele>176.9</ele>
        <time>2017-05-28T07:06:44.000Z</time>
      </trkpt>
      <trkpt lat="44.45147" lon="1.0158">
        <ele>176.8</ele>
        <time>2017-05-28T07:06:45.000Z</time>
      </trkpt>
      <trkpt lat="44.45151" lon="1.01581">
        <ele>176.6</ele>
        <time>2017-05-28T07:06:46.000Z</time>
      </trkpt>
      <trkpt lat="44.45155" lon="1.0158">
        <ele>176.3</ele>
        <time>2017-05-28T07:06:47.000Z</time>
      </trkpt>
      <trkpt lat="44.45158" lon="1.01578">
        <ele>175.9</ele>
        <time>2017-05-28T07:06:48.000Z</time>
      </trkpt>
      <trkpt lat="44.45162" lon="1.01575">
        <ele>175.3</ele>
        <time>2017-05-28T07:06:49.000Z</time>
      </trkpt>
      <trkpt lat="44.45166" lon="1.01571">
        <ele>174.6</ele>
        <time>2017-05-28T07:06:50.000Z</time>
      </trkpt>
      <trkpt lat="44.45171" lon="1.01569">
        <ele>173.9</ele>
        <time>2017-05-28T07:06:51.000Z</time>
      </trkpt>
      <trkpt lat="44.45177" lon="1.01568">
        <ele>173.4</ele>
        <time>2017-05-28T07:06:52.000Z</time>
      </trkpt>
      <trkpt lat="44.45183" lon="1.01569">
        <ele>173</ele>
        <time>2017-05-28T07:06:53.000Z</time>
      </trkpt>
      <trkpt lat="44.45189" lon="1.01571">
        <ele>172.7</ele>
        <time>2017-05-28T07:06:54.000Z</time>
      </trkpt>
      <trkpt lat="44.45196" lon="1.01574">
        <ele>172.4</ele>
        <time>2017-05-28T07:06:55.000Z</time>
      </trkpt>
      <trkpt lat="44.45203" lon="1.01576">
        <ele>172.1</ele>
        <time>2017-05-28T07:06:56.000Z</time>
      </trkpt>
      <trkpt lat="44.45211" lon="1.01578">
        <ele>171.7</ele>
        <time>2017-05-28T07:06:57.000Z</time>
      </trkpt>
      <trkpt lat="44.45219" lon="1.0158">
        <ele>171.2</ele>
        <time>2017-05-28T07:06:58.000Z</time>
      </trkpt>
      <trkpt lat="44.45227" lon="1.01581">
        <ele>170.7</ele>
        <time>2017-05-28T07:06:59.000Z</time>
      </trkpt>
      <trkpt lat="44.45236" lon="1.01582">
        <ele>170.1</ele>
        <time>2017-05-28T07:07:00.000Z</time>
      </trkpt>
      <trkpt lat="44.45245" lon="1.01583">
        <ele>169.4</ele>
        <time>2017-05-28T07:07:01.000Z</time>
      </trkpt>
      <trkpt lat="44.45253" lon="1.01584">
        <ele>168.4</ele>
        <time>2017-05-28T07:07:02.000Z</time>
      </trkpt>
      <trkpt lat="44.45262" lon="1.01585">
        <ele>166.8</ele>
        <time>2017-05-28T07:07:03.000Z</time>
      </trkpt>
      <trkpt lat="44.4527" lon="1.01586">
        <ele>165.3</ele>
        <time>2017-05-28T07:07:04.000Z</time>
      </trkpt>
      <trkpt lat="44.45278" lon="1.01586">
        <ele>163.8</ele>
        <time>2017-05-28T07:07:05.000Z</time>
      </trkpt>
      <trkpt lat="44.45285" lon="1.01584">
        <ele>162.3</ele>
        <time>2017-05-28T07:07:06.000Z</time>
      </trkpt>
      <trkpt lat="44.45292" lon="1.0158">
        <ele>160.7</ele>
        <time>2017-05-28T07:07:07.000Z</time>
      </trkpt>
      <trkpt lat="44.45298" lon="1.01573">
        <ele>159.3</ele>
        <time>2017-05-28T07:07:08.000Z</time>
      </trkpt>
      <trkpt lat="44.45304" lon="1.01564">
        <ele>157.9</ele>
        <time>2017-05-28T07:07:09.000Z</time>
      </trkpt>
      <trkpt lat="44.45309" lon="1.01553">
        <ele>156.7</ele>
        <time>2017-05-28T07:07:10.000Z</time>
      </trkpt>
      <trkpt lat="44.45315" lon="1.01541">
        <ele>155.6</ele>
        <time>2017-05-28T07:07:11.000Z</time>
      </trkpt>
      <trkpt lat="44.4532" lon="1.01531">
        <ele>154.7</ele>
        <time>2017-05-28T07:07:12.000Z</time>
      </trkpt>
      <trkpt lat="44.45324" lon="1.01523">
        <ele>154.1</ele>
        <time>2017-05-28T07:07:13.000Z</time>
      </trkpt>
      <trkpt lat="44.45328" lon="1.01518">
        <ele>153.6</ele>
        <time>2017-05-28T07:07:14.000Z</time>
      </trkpt>
      <trkpt lat="44.45331" lon="1.01519">
        <ele>153.3</ele>
        <time>2017-05-28T07:07:15.000Z</time>
      </trkpt>
      <trkpt lat="44.45334" lon="1.01522">
        <ele>153</ele>
        <time>2017-05-28T07:07:16.000Z</time>
      </trkpt>
      <trkpt lat="44.45337" lon="1.01525">
        <ele>152.7</ele>
        <time>2017-05-28T07:07:17.000Z</time>
      </trkpt>
      <trkpt lat="44.45341" lon="1.01525">
        <ele>152.4</ele>
        <time>2017-05-28T07:07:18.000Z</time>
      </trkpt>
      <trkpt lat="44.45345" lon="1.01523">
        <ele>152</ele>
        <time>2017-05-28T07:07:19.000Z</time>
      </trkpt>
      <trkpt lat="44.4535" lon="1.01518">
        <ele>151.5</ele>
        <time>2017-05-28T07:07:20.000Z</time>
      </trkpt>
      <trkpt lat="44.45356" lon="1.01511">
        <ele>151.1</ele>
        <time>2017-05-28T07:07:21.000Z</time>
      </trkpt>
      <trkpt lat="44.45361" lon="1.01502">
        <ele>150.6</ele>
        <time>2017-05-28T07:07:22.000Z</time>
      </trkpt>
      <trkpt lat="44.45368" lon="1.01493">
        <ele>150</ele>
        <time>2017-05-28T07:07:23.000Z</time>
      </trkpt>
      <trkpt lat="44.45375" lon="1.01485">
        <ele>149.4</ele>
        <time>2017-05-28T07:07:24.000Z</time>
      </trkpt>
      <trkpt lat="44.45383" lon="1.0148">
        <ele>148.6</ele>
        <time>2017-05-28T07:07:25.000Z</time>
      </trkpt>
      <trkpt lat="44.45392" lon="1.01477">
        <ele>147.8</ele>
        <time>2017-05-28T07:07:26.000Z</time>
      </trkpt>
      <trkpt lat="44.45401" lon="1.01478">
        <ele>147.1</ele>
        <time>2017-05-28T07:07:27.000Z</time>
      </trkpt>
      <trkpt lat="44.4541" lon="1.0148">
        <ele>146.3</ele>
        <time>2017-05-28T07:07:28.000Z</time>
      </trkpt>
      <trkpt lat="44.45418" lon="1.01484">
        <ele>146.2</ele>
        <time>2017-05-28T07:07:29.000Z</time>
      </trkpt>
      <trkpt lat="44.45425" lon="1.01489">
        <ele>148.1</ele>
        <time>2017-05-28T07:07:30.000Z</time>
      </trkpt>
      <trkpt lat="44.45431" lon="1.01494">
        <ele>149.5</ele>
        <time>2017-05-28T07:07:31.000Z</time>
      </trkpt>
      <trkpt lat="44.45434" lon="1.01501">
        <ele>150.4</ele>
        <time>2017-05-28T07:07:32.000Z</time>
      </trkpt>
      <trkpt lat="44.45436" lon="1.01507">
        <ele>150.7</ele>
        <time>2017-05-28T07:07:33.000Z</time>
      </trkpt>
      <trkpt lat="44.45437" lon="1.01514">
        <ele>150.8</ele>
        <time>2017-05-28T07:07:34.000Z</time>
      </trkpt>
      <trkpt lat="44.45437" lon="1.01521">
        <ele>150.7</ele>
        <time>2017-05-28T07:07:35.000Z</time>
      </trkpt>
      <trkpt lat="44.45437" lon="1.01528">
        <ele>150.6</ele>
        <time>2017-05-28T07:07:36.000Z</time>
      </trkpt>
      <trkpt lat="44.45437" lon="1.01535">
        <ele>150.5</ele>
        <time>2017-05-28T07:07:37.000Z</time>
      </trkpt>
      <trkpt lat="44.45437" lon="1.01542">
        <ele>150.5</ele>
        <time>2017-05-28T07:07:38.000Z</time>
      </trkpt>
      <trkpt lat="44.45438" lon="1.0155">
        <ele>150.5</ele>
        <time>2017-05-28T07:07:39.000Z</time>
      </trkpt>
      <trkpt lat="44.45438" lon="1.01557">
        <ele>150.5</ele>
        <time>2017-05-28T07:07:40.000Z</time>
      </trkpt>
      <trkpt lat="44.45439" lon="1.01564">
        <ele>150.6</ele>
        <time>2017-05-28T07:07:41.000Z</time>
      </trkpt>
      <trkpt lat="44.4544" lon="1.01571">
        <ele>150.8</ele>
        <time>2017-05-28T07:07:42.000Z</time>
      </trkpt>
      <trkpt lat="44.45441" lon="1.01578">
        <ele>150.9</ele>
        <time>2017-05-28T07:07:43.000Z</time>
      </trkpt>
      <trkpt lat="44.45442" lon="1.01585">
        <ele>151.1</ele>
        <time>2017-05-28T07:07:44.000Z</time>
      </trkpt>
      <trkpt lat="44.45444" lon="1.01591">
        <ele>151.3</ele>
        <time>2017-05-28T07:07:45.000Z</time>
      </trkpt>
      <trkpt lat="44.45445" lon="1.01598">
        <ele>151.4</ele>
        <time>2017-05-28T07:07:46.000Z</time>
      </trkpt>
      <trkpt lat="44.45447" lon="1.01605">
        <ele>151.6</ele>
        <time>2017-05-28T07:07:47.000Z</time>
      </trkpt>
      <trkpt lat="44.45448" lon="1.01611">
        <ele>151.8</ele>
        <time>2017-05-28T07:07:48.000Z</time>
      </trkpt>
      <trkpt lat="44.4545" lon="1.01618">
        <ele>152</ele>
        <time>2017-05-28T07:07:49.000Z</time>
      </trkpt>
      <trkpt lat="44.45452" lon="1.01624">
        <ele>152.2</ele>
        <time>2017-05-28T07:07:50.000Z</time>
      </trkpt>
      <trkpt lat="44.45454" lon="1.01631">
        <ele>152.4</ele>
        <time>2017-05-28T07:07:51.000Z</time>
      </trkpt>
      <trkpt lat="44.45455" lon="1.01637">
        <ele>152.5</ele>
        <time>2017-05-28T07:07:52.000Z</time>
      </trkpt>
      <trkpt lat="44.45457" lon="1.01643">
        <ele>152.6</ele>
        <time>2017-05-28T07:07:53.000Z</time>
      </trkpt>
      <trkpt lat="44.45459" lon="1.0165">
        <ele>152.7</ele>
        <time>2017-05-28T07:07:54.000Z</time>
      </trkpt>
      <trkpt lat="44.45461" lon="1.01656">
        <ele>152.8</ele>
        <time>2017-05-28T07:07:55.000Z</time>
      </trkpt>
      <trkpt lat="44.45462" lon="1.01663">
        <ele>152.8</ele>
        <time>2017-05-28T07:07:56.000Z</time>
      </trkpt>
      <trkpt lat="44.45464" lon="1.01669">
        <ele>152.9</ele>
        <time>2017-05-28T07:07:57.000Z</time>
      </trkpt>
      <trkpt lat="44.45466" lon="1.01676">
        <ele>153.2</ele>
        <time>2017-05-28T07:07:58.000Z</time>
      </trkpt>
      <trkpt lat="44.45467" lon="1.01683">
        <ele>153.3</ele>
        <time>2017-05-28T07:07:59.000Z</time>
      </trkpt>
      <trkpt lat="44.45469" lon="1.0169">
        <ele>153.4</ele>
        <time>2017-05-28T07:08:00.000Z</time>
      </trkpt>
      <trkpt lat="44.4547" lon="1.01698">
        <ele>153.5</ele>
        <time>2017-05-28T07:08:01.000Z</time>
      </trkpt>
      <trkpt lat="44.45471" lon="1.01706">
        <ele>153.5</ele>
        <time>2017-05-28T07:08:02.000Z</time>
      </trkpt>
      <trkpt lat="44.45473" lon="1.01713">
        <ele>153.4</ele>
        <time>2017-05-28T07:08:03.000Z</time>
      </trkpt>
      <trkpt lat="44.45474" lon="1.01721">
        <ele>153.4</ele>
        <time>2017-05-28T07:08:04.000Z</time>
      </trkpt>
      <trkpt lat="44.45475" lon="1.01729">
        <ele>153.3</ele>
        <time>2017-05-28T07:08:05.000Z</time>
      </trkpt>
      <trkpt lat="44.45476" lon="1.01737">
        <ele>153.2</ele>
        <time>2017-05-28T07:08:06.000Z</time>
      </trkpt>
      <trkpt lat="44.45478" lon="1.01744">
        <ele>153.1</ele>
        <time>2017-05-28T07:08:07.000Z</time>
      </trkpt>
      <trkpt lat="44.45479" lon="1.01752">
        <ele>153</ele>
        <time>2017-05-28T07:08:08.000Z</time>
      </trkpt>
      <trkpt lat="44.45481" lon="1.01759">
        <ele>152.9</ele>
        <time>2017-05-28T07:08:09.000Z</time>
      </trkpt>
      <trkpt lat="44.45483" lon="1.01766">
        <ele>152.8</ele>
        <time>2017-05-28T07:08:10.000Z</time>
      </trkpt>
      <trkpt lat="44.45485" lon="1.01773">
        <ele>152.6</ele>
        <time>2017-05-28T07:08:11.000Z</time>
      </trkpt>
      <trkpt lat="44.45487" lon="1.01779">
        <ele>152.5</ele>
        <time>2017-05-28T07:08:12.000Z</time>
      </trkpt>
      <trkpt lat="44.4549" lon="1.01785">
        <ele>152.3</ele>
        <time>2017-05-28T07:08:13.000Z</time>
      </trkpt>
      <trkpt lat="44.45493" lon="1.01791">
        <ele>152.1</ele>
        <time>2017-05-28T07:08:14.000Z</time>
      </trkpt>
      <trkpt lat="44.45496" lon="1.01797">
        <ele>151.8</ele>
        <time>2017-05-28T07:08:15.000Z</time>
      </trkpt>
      <trkpt lat="44.45498" lon="1.01802">
        <ele>151.5</ele>
        <time>2017-05-28T07:08:16.000Z</time>
      </trkpt>
      <trkpt lat="44.45501" lon="1.01807">
        <ele>151.7</ele>
        <time>2017-05-28T07:08:17.000Z</time>
      </trkpt>
      <trkpt lat="44.45504" lon="1.01811">
        <ele>152.2</ele>
        <time>2017-05-28T07:08:18.000Z</time>
      </trkpt>
      <trkpt lat="44.45507" lon="1.01816">
        <ele>152.7</ele>
        <time>2017-05-28T07:08:19.000Z</time>
      </trkpt>
      <trkpt lat="44.45509" lon="1.0182">
        <ele>153.2</ele>
        <time>2017-05-28T07:08:20.000Z</time>
      </trkpt>
      <trkpt lat="44.45512" lon="1.01825">
        <ele>153.6</ele>
        <time>2017-05-28T07:08:21.000Z</time>
      </trkpt>
      <trkpt lat="44.45514" lon="1.0183">
        <ele>154</ele>
        <time>2017-05-28T07:08:22.000Z</time>
      </trkpt>
      <trkpt lat="44.45517" lon="1.01835">
        <ele>154.4</ele>
        <time>2017-05-28T07:08:23.000Z</time>
      </trkpt>
      <trkpt lat="44.4552" lon="1.0184">
        <ele>154.9</ele>
        <time>2017-05-28T07:08:24.000Z</time>
      </trkpt>
      <trkpt lat="44.45523" lon="1.01844">
        <ele>155.4</ele>
        <time>2017-05-28T07:08:25.000Z</time>
      </trkpt>
      <trkpt lat="44.45526" lon="1.01847">
        <ele>156</ele>
        <time>2017-05-28T07:08:26.000Z</time>
      </trkpt>
      <trkpt lat="44.45529" lon="1.01851">
        <ele>156.5</ele>
        <time>2017-05-28T07:08:27.000Z</time>
      </trkpt>
      <trkpt lat="44.45532" lon="1.01855">
        <ele>156.9</ele>
        <time>2017-05-28T07:08:28.000Z</time>
      </trkpt>
      <trkpt lat="44.45535" lon="1.01859">
        <ele>157.3</ele>
        <time>2017-05-28T07:08:29.000Z</time>
      </trkpt>
      <trkpt lat="44.45537" lon="1.01863">
        <ele>157.7</ele>
        <time>2017-05-28T07:08:30.000Z</time>
      </trkpt>
      <trkpt lat="44.4554" lon="1.01867">
        <ele>157.9</ele>
        <time>2017-05-28T07:08:31.000Z</time>
      </trkpt>
      <trkpt lat="44.45542" lon="1.01872">
        <ele>158.1</ele>
        <time>2017-05-28T07:08:32.000Z</time>
      </trkpt>
      <trkpt lat="44.45545" lon="1.01876">
        <ele>158.3</ele>
        <time>2017-05-28T07:08:33.000Z</time>
      </trkpt>
      <trkpt lat="44.45547" lon="1.01881">
        <ele>158.4</ele>
        <time>2017-05-28T07:08:34.000Z</time>
      </trkpt>
      <trkpt lat="44.45549" lon="1.01886">
        <ele>158.5</ele>
        <time>2017-05-28T07:08:35.000Z</time>
      </trkpt>
      <trkpt lat="44.45551" lon="1.01891">
        <ele>158.5</ele>
        <time>2017-05-28T07:08:36.000Z</time>
      </trkpt>
      <trkpt lat="44.45553" lon="1.01895">
        <ele>158.5</ele>
        <time>2017-05-28T07:08:37.000Z</time>
      </trkpt>
      <trkpt lat="44.45555" lon="1.019">
        <ele>158.4</ele>
        <time>2017-05-28T07:08:38.000Z</time>
      </trkpt>
      <trkpt lat="44.45557" lon="1.01905">
        <ele>158.4</ele>
        <time>2017-05-28T07:08:39.000Z</time>
      </trkpt>
      <trkpt lat="44.45559" lon="1.0191">
        <ele>158.3</ele>
        <time>2017-05-28T07:08:40.000Z</time>
      </trkpt>
      <trkpt lat="44.45561" lon="1.01915">
        <ele>158.2</ele>
        <time>2017-05-28T07:08:41.000Z</time>
      </trkpt>
      <trkpt lat="44.45563" lon="1.0192">
        <ele>158.2</ele>
        <time>2017-05-28T07:08:42.000Z</time>
      </trkpt>
      <trkpt lat="44.45566" lon="1.01925">
        <ele>158.3</ele>
        <time>2017-05-28T07:08:43.000Z</time>
      </trkpt>
      <trkpt lat="44.45568" lon="1.01929">
        <ele>158.3</ele>
        <time>2017-05-28T07:08:44.000Z</time>
      </trkpt>
      <trkpt lat="44.4557" lon="1.01934">
        <ele>158.3</ele>
        <time>2017-05-28T07:08:45.000Z</time>
      </trkpt>
      <trkpt lat="44.45573" lon="1.01939">
        <ele>158.3</ele>
        <time>2017-05-28T07:08:46.000Z</time>
      </trkpt>
      <trkpt lat="44.45575" lon="1.01944">
        <ele>158.2</ele>
        <time>2017-05-28T07:08:47.000Z</time>
      </trkpt>
      <trkpt lat="44.45577" lon="1.01949">
        <ele>158.1</ele>
        <time>2017-05-28T07:08:48.000Z</time>
      </trkpt>
      <trkpt lat="44.4558" lon="1.01953">
        <ele>158</ele>
        <time>2017-05-28T07:08:49.000Z</time>
      </trkpt>
      <trkpt lat="44.45582" lon="1.01958">
        <ele>157.9</ele>
        <time>2017-05-28T07:08:50.000Z</time>
      </trkpt>
      <trkpt lat="44.45585" lon="1.01963">
        <ele>157.9</ele>
        <time>2017-05-28T07:08:51.000Z</time>
      </trkpt>
      <trkpt lat="44.45587" lon="1.01967">
        <ele>158.2</ele>
        <time>2017-05-28T07:08:52.000Z</time>
      </trkpt>
      <trkpt lat="44.45589" lon="1.01972">
        <ele>158.3</ele>
        <time>2017-05-28T07:08:53.000Z</time>
      </trkpt>
      <trkpt lat="44.45592" lon="1.01977">
        <ele>158.5</ele>
        <time>2017-05-28T07:08:54.000Z</time>
      </trkpt>
      <trkpt lat="44.45594" lon="1.01982">
        <ele>158.5</ele>
        <time>2017-05-28T07:08:55.000Z</time>
      </trkpt>
      <trkpt lat="44.45596" lon="1.01988">
        <ele>158.5</ele>
        <time>2017-05-28T07:08:56.000Z</time>
      </trkpt>
      <trkpt lat="44.45598" lon="1.01994">
        <ele>158.4</ele>
        <time>2017-05-28T07:08:57.000Z</time>
      </trkpt>
      <trkpt lat="44.45599" lon="1.02">
        <ele>158.2</ele>
        <time>2017-05-28T07:08:58.000Z</time>
      </trkpt>
      <trkpt lat="44.45601" lon="1.02007">
        <ele>158.3</ele>
        <time>2017-05-28T07:08:59.000Z</time>
      </trkpt>
      <trkpt lat="44.45603" lon="1.02013">
        <ele>158.4</ele>
        <time>2017-05-28T07:09:00.000Z</time>
      </trkpt>
      <trkpt lat="44.45604" lon="1.0202">
        <ele>158.5</ele>
        <time>2017-05-28T07:09:01.000Z</time>
      </trkpt>
      <trkpt lat="44.45605" lon="1.02026">
        <ele>158.5</ele>
        <time>2017-05-28T07:09:02.000Z</time>
      </trkpt>
      <trkpt lat="44.45607" lon="1.02032">
        <ele>158.6</ele>
        <time>2017-05-28T07:09:03.000Z</time>
      </trkpt>
      <trkpt lat="44.45608" lon="1.02039">
        <ele>158.5</ele>
        <time>2017-05-28T07:09:04.000Z</time>
      </trkpt>
      <trkpt lat="44.45609" lon="1.02045">
        <ele>158.5</ele>
        <time>2017-05-28T07:09:05.000Z</time>
      </trkpt>
      <trkpt lat="44.4561" lon="1.02051">
        <ele>158.4</ele>
        <time>2017-05-28T07:09:06.000Z</time>
      </trkpt>
      <trkpt lat="44.45611" lon="1.02057">
        <ele>158.4</ele>
        <time>2017-05-28T07:09:07.000Z</time>
      </trkpt>
      <trkpt lat="44.45612" lon="1.02063">
        <ele>158.3</ele>
        <time>2017-05-28T07:09:08.000Z</time>
      </trkpt>
      <trkpt lat="44.45614" lon="1.02069">
        <ele>158.3</ele>
        <time>2017-05-28T07:09:09.000Z</time>
      </trkpt>
      <trkpt lat="44.45615" lon="1.02074">
        <ele>158.3</ele>
        <time>2017-05-28T07:09:10.000Z</time>
      </trkpt>
      <trkpt lat="44.45617" lon="1.0208">
        <ele>158.4</ele>
        <time>2017-05-28T07:09:11.000Z</time>
      </trkpt>
      <trkpt lat="44.45618" lon="1.02085">
        <ele>158.5</ele>
        <time>2017-05-28T07:09:12.000Z</time>
      </trkpt>
      <trkpt lat="44.4562" lon="1.0209">
        <ele>158.7</ele>
        <time>2017-05-28T07:09:13.000Z</time>
      </trkpt>
      <trkpt lat="44.45621" lon="1.02094">
        <ele>158.9</ele>
        <time>2017-05-28T07:09:14.000Z</time>
      </trkpt>
      <trkpt lat="44.45623" lon="1.02099">
        <ele>159</ele>
        <time>2017-05-28T07:09:15.000Z</time>
      </trkpt>
      <trkpt lat="44.45624" lon="1.02104">
        <ele>159</ele>
        <time>2017-05-28T07:09:16.000Z</time>
      </trkpt>
      <trkpt lat="44.45625" lon="1.02109">
        <ele>159</ele>
        <time>2017-05-28T07:09:17.000Z</time>
      </trkpt>
      <trkpt lat="44.45625" lon="1.02114">
        <ele>158.9</ele>
        <time>2017-05-28T07:09:18.000Z</time>
      </trkpt>
      <trkpt lat="44.45625" lon="1.02119">
        <ele>158.7</ele>
        <time>2017-05-28T07:09:19.000Z</time>
      </trkpt>
      <trkpt lat="44.45624" lon="1.02124">
        <ele>158.4</ele>
        <time>2017-05-28T07:09:20.000Z</time>
      </trkpt>
      <trkpt lat="44.45622" lon="1.0213">
        <ele>158</ele>
        <time>2017-05-28T07:09:21.000Z</time>
      </trkpt>
      <trkpt lat="44.4562" lon="1.02135">
        <ele>157.5</ele>
        <time>2017-05-28T07:09:22.000Z</time>
      </trkpt>
      <trkpt lat="44.45617" lon="1.02141">
        <ele>157</ele>
        <time>2017-05-28T07:09:23.000Z</time>
      </trkpt>
      <trkpt lat="44.45613" lon="1.02144">
        <ele>156.4</ele>
        <time>2017-05-28T07:09:24.000Z</time>
      </trkpt>
      <trkpt lat="44.45608" lon="1.02145">
        <ele>155.9</ele>
        <time>2017-05-28T07:09:25.000Z</time>
      </trkpt>
      <trkpt lat="44.45602" lon="1.02144">
        <ele>155.3</ele>
        <time>2017-05-28T07:09:26.000Z</time>
      </trkpt>
      <trkpt lat="44.45596" lon="1.02142">
        <ele>154.6</ele>
        <time>2017-05-28T07:09:27.000Z</time>
      </trkpt>
      <trkpt lat="44.4559" lon="1.0214">
        <ele>153.8</ele>
        <time>2017-05-28T07:09:28.000Z</time>
      </trkpt>
      <trkpt lat="44.45584" lon="1.0214">
        <ele>153.1</ele>
        <time>2017-05-28T07:09:29.000Z</time>
      </trkpt>
      <trkpt lat="44.45577" lon="1.0214">
        <ele>153.1</ele>
        <time>2017-05-28T07:09:30.000Z</time>
      </trkpt>
      <trkpt lat="44.45571" lon="1.02141">
        <ele>153.3</ele>
        <time>2017-05-28T07:09:31.000Z</time>
      </trkpt>
      <trkpt lat="44.45565" lon="1.02143">
        <ele>153.5</ele>
        <time>2017-05-28T07:09:32.000Z</time>
      </trkpt>
      <trkpt lat="44.45559" lon="1.02146">
        <ele>153.7</ele>
        <time>2017-05-28T07:09:33.000Z</time>
      </trkpt>
      <trkpt lat="44.45554" lon="1.02148">
        <ele>153.9</ele>
        <time>2017-05-28T07:09:34.000Z</time>
      </trkpt>
      <trkpt lat="44.45549" lon="1.0215">
        <ele>154.1</ele>
        <time>2017-05-28T07:09:35.000Z</time>
      </trkpt>
      <trkpt lat="44.45544" lon="1.02152">
        <ele>154.2</ele>
        <time>2017-05-28T07:09:36.000Z</time>
      </trkpt>
      <trkpt lat="44.4554" lon="1.02152">
        <ele>154.3</ele>
        <time>2017-05-28T07:09:37.000Z</time>
      </trkpt>
      <trkpt lat="44.45536" lon="1.02153">
        <ele>154.5</ele>
        <time>2017-05-28T07:09:38.000Z</time>
      </trkpt>
      <trkpt lat="44.45531" lon="1.02154">
        <ele>154.6</ele>
        <time>2017-05-28T07:09:39.000Z</time>
      </trkpt>
      <trkpt lat="44.45526" lon="1.02156">
        <ele>154.8</ele>
        <time>2017-05-28T07:09:40.000Z</time>
      </trkpt>
      <trkpt lat="44.45521" lon="1.02158">
        <ele>155</ele>
        <time>2017-05-28T07:09:41.000Z</time>
      </trkpt>
      <trkpt lat="44.45517" lon="1.02161">
        <ele>155.3</ele>
        <time>2017-05-28T07:09:42.000Z</time>
      </trkpt>
      <trkpt lat="44.45512" lon="1.02164">
        <ele>155.5</ele>
        <time>2017-05-28T07:09:43.000Z</time>
      </trkpt>
      <trkpt lat="44.45507" lon="1.02167">
        <ele>155.8</ele>
        <time>2017-05-28T07:09:44.000Z</time>
      </trkpt>
      <trkpt lat="44.45503" lon="1.0217">
        <ele>156.4</ele>
        <time>2017-05-28T07:09:45.000Z</time>
      </trkpt>
      <trkpt lat="44.45499" lon="1.02173">
        <ele>157</ele>
        <time>2017-05-28T07:09:46.000Z</time>
      </trkpt>
      <trkpt lat="44.45495" lon="1.02176">
        <ele>157.6</ele>
        <time>2017-05-28T07:09:47.000Z</time>
      </trkpt>
      <trkpt lat="44.45491" lon="1.02179">
        <ele>158</ele>
        <time>2017-05-28T07:09:48.000Z</time>
      </trkpt>
      <trkpt lat="44.45487" lon="1.02181">
        <ele>158.5</ele>
        <time>2017-05-28T07:09:49.000Z</time>
      </trkpt>
      <trkpt lat="44.45483" lon="1.02184">
        <ele>158.9</ele>
        <time>2017-05-28T07:09:50.000Z</time>
      </trkpt>
      <trkpt lat="44.45479" lon="1.02187">
        <ele>159.2</ele>
        <time>2017-05-28T07:09:51.000Z</time>
      </trkpt>
      <trkpt lat="44.45475" lon="1.02189">
        <ele>159.5</ele>
        <time>2017-05-28T07:09:52.000Z</time>
      </trkpt>
      <trkpt lat="44.45472" lon="1.02192">
        <ele>159.8</ele>
        <time>2017-05-28T07:09:53.000Z</time>
      </trkpt>
      <trkpt lat="44.45468" lon="1.02195">
        <ele>160</ele>
        <time>2017-05-28T07:09:54.000Z</time>
      </trkpt>
      <trkpt lat="44.45464" lon="1.02197">
        <ele>160.2</ele>
        <time>2017-05-28T07:09:55.000Z</time>
      </trkpt>
      <trkpt lat="44.45461" lon="1.02199">
        <ele>160.4</ele>
        <time>2017-05-28T07:09:56.000Z</time>
      </trkpt>
      <trkpt lat="44.45457" lon="1.02202">
        <ele>160.6</ele>
        <time>2017-05-28T07:09:57.000Z</time>
      </trkpt>
      <trkpt lat="44.45454" lon="1.02204">
        <ele>160.7</ele>
        <time>2017-05-28T07:09:58.000Z</time>
      </trkpt>
      <trkpt lat="44.45451" lon="1.02207">
        <ele>160.8</ele>
        <time>2017-05-28T07:09:59.000Z</time>
      </trkpt>
      <trkpt lat="44.45448" lon="1.0221">
        <ele>160.9</ele>
        <time>2017-05-28T07:10:00.000Z</time>
      </trkpt>
      <trkpt lat="44.45444" lon="1.02213">
        <ele>161</ele>
        <time>2017-05-28T07:10:01.000Z</time>
      </trkpt>
      <trkpt lat="44.45441" lon="1.02216">
        <ele>161</ele>
        <time>2017-05-28T07:10:02.000Z</time>
      </trkpt>
      <trkpt lat="44.45437" lon="1.02218">
        <ele>161.1</ele>
        <time>2017-05-28T07:10:03.000Z</time>
      </trkpt>
      <trkpt lat="44.45434" lon="1.02221">
        <ele>161</ele>
        <time>2017-05-28T07:10:04.000Z</time>
      </trkpt>
      <trkpt lat="44.4543" lon="1.02224">
        <ele>161</ele>
        <time>2017-05-28T07:10:05.000Z</time>
      </trkpt>
      <trkpt lat="44.45426" lon="1.02227">
        <ele>160.9</ele>
        <time>2017-05-28T07:10:06.000Z</time>
      </trkpt>
      <trkpt lat="44.45422" lon="1.02231">
        <ele>160.7</ele>
        <time>2017-05-28T07:10:07.000Z</time>
      </trkpt>
      <trkpt lat="44.45418" lon="1.02234">
        <ele>160.6</ele>
        <time>2017-05-28T07:10:08.000Z</time>
      </trkpt>
      <trkpt lat="44.45415" lon="1.02238">
        <ele>160.7</ele>
        <time>2017-05-28T07:10:09.000Z</time>
      </trkpt>
      <trkpt lat="44.45411" lon="1.02241">
        <ele>161.1</ele>
        <time>2017-05-28T07:10:10.000Z</time>
      </trkpt>
      <trkpt lat="44.45408" lon="1.02245">
        <ele>161.4</ele>
        <time>2017-05-28T07:10:11.000Z</time>
      </trkpt>
      <trkpt lat="44.45404" lon="1.02248">
        <ele>161.7</ele>
        <time>2017-05-28T07:10:12.000Z</time>
      </trkpt>
      <trkpt lat="44.45401" lon="1.02251">
        <ele>162.1</ele>
        <time>2017-05-28T07:10:13.000Z</time>
      </trkpt>
      <trkpt lat="44.45398" lon="1.02254">
        <ele>162.7</ele>
        <time>2017-05-28T07:10:14.000Z</time>
      </trkpt>
      <trkpt lat="44.45395" lon="1.02258">
        <ele>163.2</ele>
        <time>2017-05-28T07:10:15.000Z</time>
      </trkpt>
      <trkpt lat="44.45391" lon="1.02261">
        <ele>163.8</ele>
        <time>2017-05-28T07:10:16.000Z</time>
      </trkpt>
      <trkpt lat="44.45388" lon="1.02264">
        <ele>164.2</ele>
        <time>2017-05-28T07:10:17.000Z</time>
      </trkpt>
      <trkpt lat="44.45385" lon="1.02267">
        <ele>164.6</ele>
        <time>2017-05-28T07:10:18.000Z</time>
      </trkpt>
      <trkpt lat="44.45381" lon="1.02271">
        <ele>165</ele>
        <time>2017-05-28T07:10:19.000Z</time>
      </trkpt>
      <trkpt lat="44.45378" lon="1.02274">
        <ele>165.3</ele>
        <time>2017-05-28T07:10:20.000Z</time>
      </trkpt>
      <trkpt lat="44.45375" lon="1.02277">
        <ele>165.6</ele>
        <time>2017-05-28T07:10:21.000Z</time>
      </trkpt>
      <trkpt lat="44.45372" lon="1.02279">
        <ele>165.8</ele>
        <time>2017-05-28T07:10:22.000Z</time>
      </trkpt>
      <trkpt lat="44.45369" lon="1.02282">
        <ele>165.9</ele>
        <time>2017-05-28T07:10:23.000Z</time>
      </trkpt>
      <trkpt lat="44.45366" lon="1.02285">
        <ele>166.1</ele>
        <time>2017-05-28T07:10:24.000Z</time>
      </trkpt>
      <trkpt lat="44.45363" lon="1.02288">
        <ele>166.2</ele>
        <time>2017-05-28T07:10:25.000Z</time>
      </trkpt>
      <trkpt lat="44.45359" lon="1.02291">
        <ele>166.2</ele>
        <time>2017-05-28T07:10:26.000Z</time>
      </trkpt>
      <trkpt lat="44.45356" lon="1.02294">
        <ele>166.3</ele>
        <time>2017-05-28T07:10:27.000Z</time>
      </trkpt>
      <trkpt lat="44.45353" lon="1.02297">
        <ele>166.2</ele>
        <time>2017-05-28T07:10:28.000Z</time>
      </trkpt>
      <trkpt lat="44.45349" lon="1.02299">
        <ele>166.1</ele>
        <time>2017-05-28T07:10:29.000Z</time>
      </trkpt>
      <trkpt lat="44.45346" lon="1.02301">
        <ele>166</ele>
        <time>2017-05-28T07:10:30.000Z</time>
      </trkpt>
      <trkpt lat="44.45342" lon="1.02302">
        <ele>165.8</ele>
        <time>2017-05-28T07:10:31.000Z</time>
      </trkpt>
      <trkpt lat="44.45339" lon="1.02304">
        <ele>165.7</ele>
        <time>2017-05-28T07:10:32.000Z</time>
      </trkpt>
      <trkpt lat="44.45335" lon="1.02305">
        <ele>165.4</ele>
        <time>2017-05-28T07:10:33.000Z</time>
      </trkpt>
      <trkpt lat="44.45332" lon="1.02307">
        <ele>165.4</ele>
        <time>2017-05-28T07:10:34.000Z</time>
      </trkpt>
      <trkpt lat="44.45328" lon="1.02308">
        <ele>165.7</ele>
        <time>2017-05-28T07:10:35.000Z</time>
      </trkpt>
      <trkpt lat="44.45324" lon="1.0231">
        <ele>165.9</ele>
        <time>2017-05-28T07:10:36.000Z</time>
      </trkpt>
      <trkpt lat="44.4532" lon="1.02312">
        <ele>166.1</ele>
        <time>2017-05-28T07:10:37.000Z</time>
      </trkpt>
      <trkpt lat="44.45316" lon="1.02313">
        <ele>166.2</ele>
        <time>2017-05-28T07:10:38.000Z</time>
      </trkpt>
      <trkpt lat="44.45311" lon="1.02315">
        <ele>166.4</ele>
        <time>2017-05-28T07:10:39.000Z</time>
      </trkpt>
      <trkpt lat="44.45307" lon="1.02317">
        <ele>166.5</ele>
        <time>2017-05-28T07:10:40.000Z</time>
      </trkpt>
      <trkpt lat="44.45302" lon="1.0232">
        <ele>166.6</ele>
        <time>2017-05-28T07:10:41.000Z</time>
      </trkpt>
      <trkpt lat="44.45298" lon="1.02322">
        <ele>166.6</ele>
        <time>2017-05-28T07:10:42.000Z</time>
      </trkpt>
      <trkpt lat="44.45293" lon="1.02324">
        <ele>166.7</ele>
        <time>2017-05-28T07:10:43.000Z</time>
      </trkpt>
      <trkpt lat="44.45289" lon="1.02326">
        <ele>166.6</ele>
        <time>2017-05-28T07:10:44.000Z</time>
      </trkpt>
      <trkpt lat="44.45285" lon="1.02329">
        <ele>166.6</ele>
        <time>2017-05-28T07:10:45.000Z</time>
      </trkpt>
      <trkpt lat="44.4528" lon="1.02331">
        <ele>166.5</ele>
        <time>2017-05-28T07:10:46.000Z</time>
      </trkpt>
      <trkpt lat="44.45276" lon="1.02333">
        <ele>166.4</ele>
        <time>2017-05-28T07:10:47.000Z</time>
      </trkpt>
      <trkpt lat="44.45272" lon="1.02335">
        <ele>166.7</ele>
        <time>2017-05-28T07:10:48.000Z</time>
      </trkpt>
      <trkpt lat="44.45268" lon="1.02338">
        <ele>167.1</ele>
        <time>2017-05-28T07:10:49.000Z</time>
      </trkpt>
      <trkpt lat="44.45264" lon="1.0234">
        <ele>167.4</ele>
        <time>2017-05-28T07:10:50.000Z</time>
      </trkpt>
      <trkpt lat="44.4526" lon="1.02341">
        <ele>167.6</ele>
        <time>2017-05-28T07:10:51.000Z</time>
      </trkpt>
      <trkpt lat="44.45256" lon="1.02343">
        <ele>167.9</ele>
        <time>2017-05-28T07:10:52.000Z</time>
      </trkpt>
      <trkpt lat="44.45252" lon="1.02345">
        <ele>168.1</ele>
        <time>2017-05-28T07:10:53.000Z</time>
      </trkpt>
      <trkpt lat="44.45248" lon="1.02346">
        <ele>168.3</ele>
        <time>2017-05-28T07:10:54.000Z</time>
      </trkpt>
      <trkpt lat="44.45244" lon="1.02348">
        <ele>168.4</ele>
        <time>2017-05-28T07:10:55.000Z</time>
      </trkpt>
      <trkpt lat="44.4524" lon="1.02349">
        <ele>168.6</ele>
        <time>2017-05-28T07:10:56.000Z</time>
      </trkpt>
      <trkpt lat="44.45236" lon="1.02351">
        <ele>168.8</ele>
        <time>2017-05-28T07:10:57.000Z</time>
      </trkpt>
      <trkpt lat="44.45232" lon="1.02352">
        <ele>168.9</ele>
        <time>2017-05-28T07:10:58.000Z</time>
      </trkpt>
      <trkpt lat="44.45228" lon="1.02353">
        <ele>169</ele>
        <time>2017-05-28T07:10:59.000Z</time>
      </trkpt>
      <trkpt lat="44.45224" lon="1.02354">
        <ele>169.1</ele>
        <time>2017-05-28T07:11:00.000Z</time>
      </trkpt>
      <trkpt lat="44.4522" lon="1.02355">
        <ele>169.2</ele>
        <time>2017-05-28T07:11:01.000Z</time>
      </trkpt>
      <trkpt lat="44.45216" lon="1.02357">
        <ele>169.2</ele>
        <time>2017-05-28T07:11:02.000Z</time>
      </trkpt>
      <trkpt lat="44.45212" lon="1.02358">
        <ele>169.3</ele>
        <time>2017-05-28T07:11:03.000Z</time>
      </trkpt>
      <trkpt lat="44.45208" lon="1.02359">
        <ele>169.4</ele>
        <time>2017-05-28T07:11:04.000Z</time>
      </trkpt>
      <trkpt lat="44.45204" lon="1.0236">
        <ele>169.4</ele>
        <time>2017-05-28T07:11:05.000Z</time>
      </trkpt>
      <trkpt lat="44.452" lon="1.02361">
        <ele>169.5</ele>
        <time>2017-05-28T07:11:06.000Z</time>
      </trkpt>
      <trkpt lat="44.45196" lon="1.02363">
        <ele>169.5</ele>
        <time>2017-05-28T07:11:07.000Z</time>
      </trkpt>
      <trkpt lat="44.45192" lon="1.02364">
        <ele>169.5</ele>
        <time>2017-05-28T07:11:08.000Z</time>
      </trkpt>
      <trkpt lat="44.45188" lon="1.02366">
        <ele>169.6</ele>
        <time>2017-05-28T07:11:09.000Z</time>
      </trkpt>
      <trkpt lat="44.45184" lon="1.02367">
        <ele>169.6</ele>
        <time>2017-05-28T07:11:10.000Z</time>
      </trkpt>
      <trkpt lat="44.4518" lon="1.02369">
        <ele>169.6</ele>
        <time>2017-05-28T07:11:11.000Z</time>
      </trkpt>
      <trkpt lat="44.45176" lon="1.02371">
        <ele>169.6</ele>
        <time>2017-05-28T07:11:12.000Z</time>
      </trkpt>
      <trkpt lat="44.45172" lon="1.02373">
        <ele>169.6</ele>
        <time>2017-05-28T07:11:13.000Z</time>
      </trkpt>
      <trkpt lat="44.45168" lon="1.02375">
        <ele>169.5</ele>
        <time>2017-05-28T07:11:14.000Z</time>
      </trkpt>
      <trkpt lat="44.45165" lon="1.02378">
        <ele>169.5</ele>
        <time>2017-05-28T07:11:15.000Z</time>
      </trkpt>
      <trkpt lat="44.45161" lon="1.02381">
        <ele>169.5</ele>
        <time>2017-05-28T07:11:16.000Z</time>
      </trkpt>
      <trkpt lat="44.45158" lon="1.02384">
        <ele>169.4</ele>
        <time>2017-05-28T07:11:17.000Z</time>
      </trkpt>
      <trkpt lat="44.45155" lon="1.02388">
        <ele>169.4</ele>
        <time>2017-05-28T07:11:18.000Z</time>
      </trkpt>
      <trkpt lat="44.45152" lon="1.02392">
        <ele>169.4</ele>
        <time>2017-05-28T07:11:19.000Z</time>
      </trkpt>
      <trkpt lat="44.45149" lon="1.02396">
        <ele>169.4</ele>
        <time>2017-05-28T07:11:20.000Z</time>
      </trkpt>
      <trkpt lat="44.45147" lon="1.024">
        <ele>169.4</ele>
        <time>2017-05-28T07:11:21.000Z</time>
      </trkpt>
      <trkpt lat="44.45144" lon="1.02404">
        <ele>169.3</ele>
        <time>2017-05-28T07:11:22.000Z</time>
      </trkpt>
      <trkpt lat="44.45141" lon="1.02407">
        <ele>169.3</ele>
        <time>2017-05-28T07:11:23.000Z</time>
      </trkpt>
      <trkpt lat="44.45139" lon="1.0241">
        <ele>169.3</ele>
        <time>2017-05-28T07:11:24.000Z</time>
      </trkpt>
      <trkpt lat="44.45137" lon="1.02414">
        <ele>169.3</ele>
        <time>2017-05-28T07:11:25.000Z</time>
      </trkpt>
      <trkpt lat="44.45134" lon="1.02417">
        <ele>169.3</ele>
        <time>2017-05-28T07:11:26.000Z</time>
      </trkpt>
      <trkpt lat="44.45132" lon="1.02421">
        <ele>169.6</ele>
        <time>2017-05-28T07:11:27.000Z</time>
      </trkpt>
      <trkpt lat="44.4513" lon="1.02425">
        <ele>169.9</ele>
        <time>2017-05-28T07:11:28.000Z</time>
      </trkpt>
      <trkpt lat="44.45128" lon="1.02429">
        <ele>170.2</ele>
        <time>2017-05-28T07:11:29.000Z</time>
      </trkpt>
      <trkpt lat="44.45126" lon="1.02432">
        <ele>170.6</ele>
        <time>2017-05-28T07:11:30.000Z</time>
      </trkpt>
      <trkpt lat="44.45124" lon="1.02436">
        <ele>170.9</ele>
        <time>2017-05-28T07:11:31.000Z</time>
      </trkpt>
      <trkpt lat="44.45122" lon="1.0244">
        <ele>171.2</ele>
        <time>2017-05-28T07:11:32.000Z</time>
      </trkpt>
      <trkpt lat="44.4512" lon="1.02444">
        <ele>171.4</ele>
        <time>2017-05-28T07:11:33.000Z</time>
      </trkpt>
      <trkpt lat="44.45118" lon="1.02447">
        <ele>171.6</ele>
        <time>2017-05-28T07:11:34.000Z</time>
      </trkpt>
      <trkpt lat="44.45115" lon="1.02449">
        <ele>171.7</ele>
        <time>2017-05-28T07:11:35.000Z</time>
      </trkpt>
      <trkpt lat="44.45112" lon="1.0245">
        <ele>171.6</ele>
        <time>2017-05-28T07:11:36.000Z</time>
      </trkpt>
      <trkpt lat="44.45108" lon="1.02449">
        <ele>171.4</ele>
        <time>2017-05-28T07:11:37.000Z</time>
      </trkpt>
      <trkpt lat="44.45105" lon="1.02447">
        <ele>171.1</ele>
        <time>2017-05-28T07:11:38.000Z</time>
      </trkpt>
      <trkpt lat="44.45103" lon="1.02444">
        <ele>170.7</ele>
        <time>2017-05-28T07:11:39.000Z</time>
      </trkpt>
      <trkpt lat="44.451" lon="1.0244">
        <ele>170.3</ele>
        <time>2017-05-28T07:11:40.000Z</time>
      </trkpt>
      <trkpt lat="44.45098" lon="1.02436">
        <ele>169.9</ele>
        <time>2017-05-28T07:11:41.000Z</time>
      </trkpt>
      <trkpt lat="44.45096" lon="1.02432">
        <ele>169.5</ele>
        <time>2017-05-28T07:11:42.000Z</time>
      </trkpt>
      <trkpt lat="44.45094" lon="1.02429">
        <ele>169.2</ele>
        <time>2017-05-28T07:11:43.000Z</time>
      </trkpt>
      <trkpt lat="44.45092" lon="1.02425">
        <ele>168.9</ele>
        <time>2017-05-28T07:11:44.000Z</time>
      </trkpt>
      <trkpt lat="44.45089" lon="1.02422">
        <ele>168.5</ele>
        <time>2017-05-28T07:11:45.000Z</time>
      </trkpt>
      <trkpt lat="44.45086" lon="1.02419">
        <ele>168.2</ele>
        <time>2017-05-28T07:11:46.000Z</time>
      </trkpt>
      <trkpt lat="44.45083" lon="1.02416">
        <ele>168</ele>
        <time>2017-05-28T07:11:47.000Z</time>
      </trkpt>
      <trkpt lat="44.4508" lon="1.02413">
        <ele>168.4</ele>
        <time>2017-05-28T07:11:48.000Z</time>
      </trkpt>
      <trkpt lat="44.45077" lon="1.0241">
        <ele>168.7</ele>
        <time>2017-05-28T07:11:49.000Z</time>
      </trkpt>
      <trkpt lat="44.45074" lon="1.02407">
        <ele>169</ele>
        <time>2017-05-28T07:11:50.000Z</time>
      </trkpt>
      <trkpt lat="44.45071" lon="1.02405">
        <ele>169.2</ele>
        <time>2017-05-28T07:11:51.000Z</time>
      </trkpt>
      <trkpt lat="44.45069" lon="1.02402">
        <ele>169.5</ele>
        <time>2017-05-28T07:11:52.000Z</time>
      </trkpt>
      <trkpt lat="44.45066" lon="1.024">
        <ele>169.7</ele>
        <time>2017-05-28T07:11:53.000Z</time>
      </trkpt>
      <trkpt lat="44.45063" lon="1.02397">
        <ele>169.9</ele>
        <time>2017-05-28T07:11:54.000Z</time>
      </trkpt>
      <trkpt lat="44.45061" lon="1.02395">
        <ele>170</ele>
        <time>2017-05-28T07:11:55.000Z</time>
      </trkpt>
      <trkpt lat="44.45058" lon="1.02394">
        <ele>170.2</ele>
        <time>2017-05-28T07:11:56.000Z</time>
      </trkpt>
      <trkpt lat="44.45055" lon="1.02392">
        <ele>170.4</ele>
        <time>2017-05-28T07:11:57.000Z</time>
      </trkpt>
      <trkpt lat="44.45052" lon="1.02391">
        <ele>170.6</ele>
        <time>2017-05-28T07:11:58.000Z</time>
      </trkpt>
      <trkpt lat="44.4505" lon="1.02391">
        <ele>170.8</ele>
        <time>2017-05-28T07:11:59.000Z</time>
      </trkpt>
      <trkpt lat="44.45048" lon="1.02391">
        <ele>171</ele>
        <time>2017-05-28T07:12:00.000Z</time>
      </trkpt>
      <trkpt lat="44.45046" lon="1.02393">
        <ele>171.1</ele>
        <time>2017-05-28T07:12:01.000Z</time>
      </trkpt>
      <trkpt lat="44.45045" lon="1.02394">
        <ele>171.3</ele>
        <time>2017-05-28T07:12:02.000Z</time>
      </trkpt>
      <trkpt lat="44.45045" lon="1.02396">
        <ele>171.5</ele>
        <time>2017-05-28T07:12:03.000Z</time>
      </trkpt>
      <trkpt lat="44.45045" lon="1.02398">
        <ele>171.6</ele>
        <time>2017-05-28T07:12:04.000Z</time>
      </trkpt>
      <trkpt lat="44.45045" lon="1.024">
        <ele>171.7</ele>
        <time>2017-05-28T07:12:05.000Z</time>
      </trkpt>
      <trkpt lat="44.45046" lon="1.02403">
        <ele>171.8</ele>
        <time>2017-05-28T07:12:06.000Z</time>
      </trkpt>
      <trkpt lat="44.45046" lon="1.02405">
        <ele>171.8</ele>
        <time>2017-05-28T07:12:07.000Z</time>
      </trkpt>
      <trkpt lat="44.45046" lon="1.02407">
        <ele>171.9</ele>
        <time>2017-05-28T07:12:08.000Z</time>
      </trkpt>
      <trkpt lat="44.45047" lon="1.02409">
        <ele>172</ele>
        <time>2017-05-28T07:12:09.000Z</time>
      </trkpt>
      <trkpt lat="44.45047" lon="1.02412">
        <ele>172.1</ele>
        <time>2017-05-28T07:12:10.000Z</time>
      </trkpt>
      <trkpt lat="44.45047" lon="1.02414">
        <ele>172.2</ele>
        <time>2017-05-28T07:12:11.000Z</time>
      </trkpt>
      <trkpt lat="44.45048" lon="1.02416">
        <ele>172.2</ele>
        <time>2017-05-28T07:12:12.000Z</time>
      </trkpt>
      <trkpt lat="44.45048" lon="1.02418">
        <ele>172.3</ele>
        <time>2017-05-28T07:12:13.000Z</time>
      </trkpt>
      <trkpt lat="44.45049" lon="1.0242">
        <ele>172.4</ele>
        <time>2017-05-28T07:12:14.000Z</time>
      </trkpt>
      <trkpt lat="44.4505" lon="1.02422">
        <ele>172.5</ele>
        <time>2017-05-28T07:12:15.000Z</time>
      </trkpt>
      <trkpt lat="44.45051" lon="1.02424">
        <ele>172.5</ele>
        <time>2017-05-28T07:12:16.000Z</time>
      </trkpt>
      <trkpt lat="44.45052" lon="1.02426">
        <ele>172.6</ele>
        <time>2017-05-28T07:12:17.000Z</time>
      </trkpt>
      <trkpt lat="44.45053" lon="1.02428">
        <ele>172.6</ele>
        <time>2017-05-28T07:12:18.000Z</time>
      </trkpt>
      <trkpt lat="44.45054" lon="1.02429">
        <ele>172.7</ele>
        <time>2017-05-28T07:12:19.000Z</time>
      </trkpt>
      <trkpt lat="44.45054" lon="1.02431">
        <ele>172.7</ele>
        <time>2017-05-28T07:12:20.000Z</time>
      </trkpt>
      <trkpt lat="44.45055" lon="1.02434">
        <ele>172.8</ele>
        <time>2017-05-28T07:12:21.000Z</time>
      </trkpt>
      <trkpt lat="44.45056" lon="1.02436">
        <ele>172.9</ele>
        <time>2017-05-28T07:12:22.000Z</time>
      </trkpt>
      <trkpt lat="44.45057" lon="1.02438">
        <ele>173</ele>
        <time>2017-05-28T07:12:23.000Z</time>
      </trkpt>
      <trkpt lat="44.45058" lon="1.0244">
        <ele>173.1</ele>
        <time>2017-05-28T07:12:24.000Z</time>
      </trkpt>
      <trkpt lat="44.45058" lon="1.02443">
        <ele>173.2</ele>
        <time>2017-05-28T07:12:25.000Z</time>
      </trkpt>
      <trkpt lat="44.45059" lon="1.02445">
        <ele>173.3</ele>
        <time>2017-05-28T07:12:26.000Z</time>
      </trkpt>
      <trkpt lat="44.45059" lon="1.02448">
        <ele>173.4</ele>
        <time>2017-05-28T07:12:27.000Z</time>
      </trkpt>
      <trkpt lat="44.4506" lon="1.0245">
        <ele>173.5</ele>
        <time>2017-05-28T07:12:28.000Z</time>
      </trkpt>
      <trkpt lat="44.45061" lon="1.02453">
        <ele>173.7</ele>
        <time>2017-05-28T07:12:29.000Z</time>
      </trkpt>
      <trkpt lat="44.45062" lon="1.02456">
        <ele>173.8</ele>
        <time>2017-05-28T07:12:30.000Z</time>
      </trkpt>
      <trkpt lat="44.45062" lon="1.02459">
        <ele>173.9</ele>
        <time>2017-05-28T07:12:31.000Z</time>
      </trkpt>
      <trkpt lat="44.45063" lon="1.02462">
        <ele>174</ele>
        <time>2017-05-28T07:12:32.000Z</time>
      </trkpt>
      <trkpt lat="44.45064" lon="1.02465">
        <ele>174.2</ele>
        <time>2017-05-28T07:12:33.000Z</time>
      </trkpt>
      <trkpt lat="44.45065" lon="1.02467">
        <ele>174.3</ele>
        <time>2017-05-28T07:12:34.000Z</time>
      </trkpt>
      <trkpt lat="44.45066" lon="1.0247">
        <ele>174.4</ele>
        <time>2017-05-28T07:12:35.000Z</time>
      </trkpt>
      <trkpt lat="44.45066" lon="1.02473">
        <ele>174.5</ele>
        <time>2017-05-28T07:12:36.000Z</time>
      </trkpt>
      <trkpt lat="44.45067" lon="1.02476">
        <ele>174.7</ele>
        <time>2017-05-28T07:12:37.000Z</time>
      </trkpt>
      <trkpt lat="44.45067" lon="1.02479">
        <ele>174.9</ele>
        <time>2017-05-28T07:12:38.000Z</time>
      </trkpt>
      <trkpt lat="44.45067" lon="1.02481">
        <ele>175</ele>
        <time>2017-05-28T07:12:39.000Z</time>
      </trkpt>
      <trkpt lat="44.45068" lon="1.02484">
        <ele>175.2</ele>
        <time>2017-05-28T07:12:40.000Z</time>
      </trkpt>
      <trkpt lat="44.45068" lon="1.02487">
        <ele>175.4</ele>
        <time>2017-05-28T07:12:41.000Z</time>
      </trkpt>
      <trkpt lat="44.45068" lon="1.0249">
        <ele>175.6</ele>
        <time>2017-05-28T07:12:42.000Z</time>
      </trkpt>
      <trkpt lat="44.45068" lon="1.02493">
        <ele>175.8</ele>
        <time>2017-05-28T07:12:43.000Z</time>
      </trkpt>
      <trkpt lat="44.45068" lon="1.02496">
        <ele>176.1</ele>
        <time>2017-05-28T07:12:44.000Z</time>
      </trkpt>
      <trkpt lat="44.45068" lon="1.025">
        <ele>176.4</ele>
        <time>2017-05-28T07:12:45.000Z</time>
      </trkpt>
      <trkpt lat="44.45068" lon="1.02503">
        <ele>176.5</ele>
        <time>2017-05-28T07:12:46.000Z</time>
      </trkpt>
      <trkpt lat="44.45067" lon="1.02506">
        <ele>176.7</ele>
        <time>2017-05-28T07:12:47.000Z</time>
      </trkpt>
      <trkpt lat="44.45067" lon="1.0251">
        <ele>176.8</ele>
        <time>2017-05-28T07:12:48.000Z</time>
      </trkpt>
      <trkpt lat="44.45067" lon="1.02513">
        <ele>176.9</ele>
        <time>2017-05-28T07:12:49.000Z</time>
      </trkpt>
      <trkpt lat="44.45066" lon="1.02516">
        <ele>177.1</ele>
        <time>2017-05-28T07:12:50.000Z</time>
      </trkpt>
      <trkpt lat="44.45066" lon="1.0252">
        <ele>177.2</ele>
        <time>2017-05-28T07:12:51.000Z</time>
      </trkpt>
      <trkpt lat="44.45066" lon="1.02523">
        <ele>177.4</ele>
        <time>2017-05-28T07:12:52.000Z</time>
      </trkpt>
      <trkpt lat="44.45065" lon="1.02527">
        <ele>177.5</ele>
        <time>2017-05-28T07:12:53.000Z</time>
      </trkpt>
      <trkpt lat="44.45065" lon="1.02531">
        <ele>177.6</ele>
        <time>2017-05-28T07:12:54.000Z</time>
      </trkpt>
      <trkpt lat="44.45065" lon="1.02534">
        <ele>177.8</ele>
        <time>2017-05-28T07:12:55.000Z</time>
      </trkpt>
      <trkpt lat="44.45065" lon="1.02538">
        <ele>177.9</ele>
        <time>2017-05-28T07:12:56.000Z</time>
      </trkpt>
      <trkpt lat="44.45065" lon="1.02541">
        <ele>178</ele>
        <time>2017-05-28T07:12:57.000Z</time>
      </trkpt>
      <trkpt lat="44.45064" lon="1.02545">
        <ele>178.1</ele>
        <time>2017-05-28T07:12:58.000Z</time>
      </trkpt>
      <trkpt lat="44.45064" lon="1.02549">
        <ele>178.2</ele>
        <time>2017-05-28T07:12:59.000Z</time>
      </trkpt>
      <trkpt lat="44.45064" lon="1.02552">
        <ele>178.3</ele>
        <time>2017-05-28T07:13:00.000Z</time>
      </trkpt>
      <trkpt lat="44.45063" lon="1.02556">
        <ele>178.5</ele>
        <time>2017-05-28T07:13:01.000Z</time>
      </trkpt>
      <trkpt lat="44.45063" lon="1.0256">
        <ele>178.6</ele>
        <time>2017-05-28T07:13:02.000Z</time>
      </trkpt>
      <trkpt lat="44.45063" lon="1.02564">
        <ele>178.8</ele>
        <time>2017-05-28T07:13:03.000Z</time>
      </trkpt>
      <trkpt lat="44.45062" lon="1.02567">
        <ele>178.9</ele>
        <time>2017-05-28T07:13:04.000Z</time>
      </trkpt>
      <trkpt lat="44.45062" lon="1.02571">
        <ele>179</ele>
        <time>2017-05-28T07:13:05.000Z</time>
      </trkpt>
      <trkpt lat="44.45062" lon="1.02574">
        <ele>179.1</ele>
        <time>2017-05-28T07:13:06.000Z</time>
      </trkpt>
      <trkpt lat="44.45062" lon="1.02578">
        <ele>179.2</ele>
        <time>2017-05-28T07:13:07.000Z</time>
      </trkpt>
      <trkpt lat="44.45062" lon="1.02582">
        <ele>179.3</ele>
        <time>2017-05-28T07:13:08.000Z</time>
      </trkpt>
      <trkpt lat="44.45062" lon="1.02585">
        <ele>179.4</ele>
        <time>2017-05-28T07:13:09.000Z</time>
      </trkpt>
      <trkpt lat="44.45062" lon="1.02589">
        <ele>179.4</ele>
        <time>2017-05-28T07:13:10.000Z</time>
      </trkpt>
      <trkpt lat="44.45061" lon="1.02592">
        <ele>179.5</ele>
        <time>2017-05-28T07:13:11.000Z</time>
      </trkpt>
      <trkpt lat="44.45061" lon="1.02596">
        <ele>179.5</ele>
        <time>2017-05-28T07:13:12.000Z</time>
      </trkpt>
      <trkpt lat="44.45061" lon="1.026">
        <ele>179.6</ele>
        <time>2017-05-28T07:13:13.000Z</time>
      </trkpt>
      <trkpt lat="44.4506" lon="1.02604">
        <ele>179.7</ele>
        <time>2017-05-28T07:13:14.000Z</time>
      </trkpt>
      <trkpt lat="44.4506" lon="1.02608">
        <ele>179.8</ele>
        <time>2017-05-28T07:13:15.000Z</time>
      </trkpt>
      <trkpt lat="44.45059" lon="1.02612">
        <ele>179.9</ele>
        <time>2017-05-28T07:13:16.000Z</time>
      </trkpt>
      <trkpt lat="44.45058" lon="1.02616">
        <ele>180</ele>
        <time>2017-05-28T07:13:17.000Z</time>
      </trkpt>
      <trkpt lat="44.45057" lon="1.02619">
        <ele>180.1</ele>
        <time>2017-05-28T07:13:18.000Z</time>
      </trkpt>
      <trkpt lat="44.45057" lon="1.02622">
        <ele>180.2</ele>
        <time>2017-05-28T07:13:19.000Z</time>
      </trkpt>
      <trkpt lat="44.45056" lon="1.02625">
        <ele>180.3</ele>
        <time>2017-05-28T07:13:20.000Z</time>
      </trkpt>
      <trkpt lat="44.45055" lon="1.02627">
        <ele>180.4</ele>
        <time>2017-05-28T07:13:21.000Z</time>
      </trkpt>
      <trkpt lat="44.45054" lon="1.02631">
        <ele>180.5</ele>
        <time>2017-05-28T07:13:22.000Z</time>
      </trkpt>
      <trkpt lat="44.45053" lon="1.02634">
        <ele>180.6</ele>
        <time>2017-05-28T07:13:23.000Z</time>
      </trkpt>
      <trkpt lat="44.45052" lon="1.02637">
        <ele>180.7</ele>
        <time>2017-05-28T07:13:24.000Z</time>
      </trkpt>
      <trkpt lat="44.45051" lon="1.0264">
        <ele>180.8</ele>
        <time>2017-05-28T07:13:25.000Z</time>
      </trkpt>
      <trkpt lat="44.45049" lon="1.02644">
        <ele>180.9</ele>
        <time>2017-05-28T07:13:26.000Z</time>
      </trkpt>
      <trkpt lat="44.45048" lon="1.02647">
        <ele>181</ele>
        <time>2017-05-28T07:13:27.000Z</time>
      </trkpt>
      <trkpt lat="44.45047" lon="1.02651">
        <ele>181.2</ele>
        <time>2017-05-28T07:13:28.000Z</time>
      </trkpt>
      <trkpt lat="44.45045" lon="1.02654">
        <ele>181.3</ele>
        <time>2017-05-28T07:13:29.000Z</time>
      </trkpt>
      <trkpt lat="44.45044" lon="1.02658">
        <ele>181.3</ele>
        <time>2017-05-28T07:13:30.000Z</time>
      </trkpt>
      <trkpt lat="44.45043" lon="1.02661">
        <ele>181.4</ele>
        <time>2017-05-28T07:13:31.000Z</time>
      </trkpt>
      <trkpt lat="44.45041" lon="1.02665">
        <ele>181.5</ele>
        <time>2017-05-28T07:13:32.000Z</time>
      </trkpt>
      <trkpt lat="44.4504" lon="1.02668">
        <ele>181.6</ele>
        <time>2017-05-28T07:13:33.000Z</time>
      </trkpt>
      <trkpt lat="44.45039" lon="1.02671">
        <ele>181.8</ele>
        <time>2017-05-28T07:13:34.000Z</time>
      </trkpt>
      <trkpt lat="44.45037" lon="1.02674">
        <ele>182</ele>
        <time>2017-05-28T07:13:35.000Z</time>
      </trkpt>
      <trkpt lat="44.45036" lon="1.02677">
        <ele>182.1</ele>
        <time>2017-05-28T07:13:36.000Z</time>
      </trkpt>
      <trkpt lat="44.45034" lon="1.0268">
        <ele>182.3</ele>
        <time>2017-05-28T07:13:37.000Z</time>
      </trkpt>
      <trkpt lat="44.45033" lon="1.02684">
        <ele>182.4</ele>
        <time>2017-05-28T07:13:38.000Z</time>
      </trkpt>
      <trkpt lat="44.45031" lon="1.02687">
        <ele>182.6</ele>
        <time>2017-05-28T07:13:39.000Z</time>
      </trkpt>
      <trkpt lat="44.45029" lon="1.02689">
        <ele>182.7</ele>
        <time>2017-05-28T07:13:40.000Z</time>
      </trkpt>
      <trkpt lat="44.45027" lon="1.02692">
        <ele>182.9</ele>
        <time>2017-05-28T07:13:41.000Z</time>
      </trkpt>
      <trkpt lat="44.45024" lon="1.02695">
        <ele>183</ele>
        <time>2017-05-28T07:13:42.000Z</time>
      </trkpt>
      <trkpt lat="44.45022" lon="1.02697">
        <ele>183.2</ele>
        <time>2017-05-28T07:13:43.000Z</time>
      </trkpt>
      <trkpt lat="44.4502" lon="1.02699">
        <ele>183.3</ele>
        <time>2017-05-28T07:13:44.000Z</time>
      </trkpt>
      <trkpt lat="44.45017" lon="1.027">
        <ele>183.4</ele>
        <time>2017-05-28T07:13:45.000Z</time>
      </trkpt>
      <trkpt lat="44.45015" lon="1.02701">
        <ele>183.5</ele>
        <time>2017-05-28T07:13:46.000Z</time>
      </trkpt>
      <trkpt lat="44.45012" lon="1.02702">
        <ele>183.6</ele>
        <time>2017-05-28T07:13:47.000Z</time>
      </trkpt>
      <trkpt lat="44.45009" lon="1.02702">
        <ele>183.7</ele>
        <time>2017-05-28T07:13:48.000Z</time>
      </trkpt>
      <trkpt lat="44.45007" lon="1.02702">
        <ele>183.8</ele>
        <time>2017-05-28T07:13:49.000Z</time>
      </trkpt>
      <trkpt lat="44.45004" lon="1.02702">
        <ele>183.9</ele>
        <time>2017-05-28T07:13:50.000Z</time>
      </trkpt>
      <trkpt lat="44.45002" lon="1.02702">
        <ele>183.9</ele>
        <time>2017-05-28T07:13:51.000Z</time>
      </trkpt>
      <trkpt lat="44.45" lon="1.02702">
        <ele>184</ele>
        <time>2017-05-28T07:13:52.000Z</time>
      </trkpt>
      <trkpt lat="44.44997" lon="1.02701">
        <ele>184.3</ele>
        <time>2017-05-28T07:13:53.000Z</time>
      </trkpt>
      <trkpt lat="44.44995" lon="1.027">
        <ele>184.4</ele>
        <time>2017-05-28T07:13:54.000Z</time>
      </trkpt>
      <trkpt lat="44.44993" lon="1.027">
        <ele>184.6</ele>
        <time>2017-05-28T07:13:55.000Z</time>
      </trkpt>
      <trkpt lat="44.44992" lon="1.02699">
        <ele>184.8</ele>
        <time>2017-05-28T07:13:56.000Z</time>
      </trkpt>
      <trkpt lat="44.4499" lon="1.02698">
        <ele>185</ele>
        <time>2017-05-28T07:13:57.000Z</time>
      </trkpt>
      <trkpt lat="44.44988" lon="1.02697">
        <ele>185.1</ele>
        <time>2017-05-28T07:13:58.000Z</time>
      </trkpt>
      <trkpt lat="44.44987" lon="1.02696">
        <ele>185.3</ele>
        <time>2017-05-28T07:13:59.000Z</time>
      </trkpt>
      <trkpt lat="44.44985" lon="1.02694">
        <ele>185.4</ele>
        <time>2017-05-28T07:14:00.000Z</time>
      </trkpt>
      <trkpt lat="44.44984" lon="1.02693">
        <ele>185.6</ele>
        <time>2017-05-28T07:14:01.000Z</time>
      </trkpt>
      <trkpt lat="44.44982" lon="1.02691">
        <ele>185.7</ele>
        <time>2017-05-28T07:14:02.000Z</time>
      </trkpt>
      <trkpt lat="44.44981" lon="1.02689">
        <ele>185.9</ele>
        <time>2017-05-28T07:14:03.000Z</time>
      </trkpt>
      <trkpt lat="44.4498" lon="1.02687">
        <ele>186</ele>
        <time>2017-05-28T07:14:04.000Z</time>
      </trkpt>
      <trkpt lat="44.44978" lon="1.02686">
        <ele>186.2</ele>
        <time>2017-05-28T07:14:05.000Z</time>
      </trkpt>
      <trkpt lat="44.44977" lon="1.02684">
        <ele>186.3</ele>
        <time>2017-05-28T07:14:06.000Z</time>
      </trkpt>
      <trkpt lat="44.44975" lon="1.02683">
        <ele>186.5</ele>
        <time>2017-05-28T07:14:07.000Z</time>
      </trkpt>
      <trkpt lat="44.44974" lon="1.02681">
        <ele>186.7</ele>
        <time>2017-05-28T07:14:08.000Z</time>
      </trkpt>
      <trkpt lat="44.44972" lon="1.0268">
        <ele>186.8</ele>
        <time>2017-05-28T07:14:09.000Z</time>
      </trkpt>
      <trkpt lat="44.44971" lon="1.02678">
        <ele>187</ele>
        <time>2017-05-28T07:14:10.000Z</time>
      </trkpt>
      <trkpt lat="44.4497" lon="1.02677">
        <ele>187.1</ele>
        <time>2017-05-28T07:14:11.000Z</time>
      </trkpt>
      <trkpt lat="44.44969" lon="1.02676">
        <ele>187.2</ele>
        <time>2017-05-28T07:14:12.000Z</time>
      </trkpt>
      <trkpt lat="44.44968" lon="1.02674">
        <ele>187.4</ele>
        <time>2017-05-28T07:14:13.000Z</time>
      </trkpt>
      <trkpt lat="44.44966" lon="1.02673">
        <ele>187.6</ele>
        <time>2017-05-28T07:14:14.000Z</time>
      </trkpt>
      <trkpt lat="44.44965" lon="1.02672">
        <ele>187.7</ele>
        <time>2017-05-28T07:14:15.000Z</time>
      </trkpt>
      <trkpt lat="44.44964" lon="1.0267">
        <ele>187.9</ele>
        <time>2017-05-28T07:14:16.000Z</time>
      </trkpt>
      <trkpt lat="44.44963" lon="1.02669">
        <ele>188</ele>
        <time>2017-05-28T07:14:17.000Z</time>
      </trkpt>
      <trkpt lat="44.44962" lon="1.02668">
        <ele>188.1</ele>
        <time>2017-05-28T07:14:18.000Z</time>
      </trkpt>
      <trkpt lat="44.44961" lon="1.02666">
        <ele>188.3</ele>
        <time>2017-05-28T07:14:19.000Z</time>
      </trkpt>
      <trkpt lat="44.4496" lon="1.02666">
        <ele>188.4</ele>
        <time>2017-05-28T07:14:20.000Z</time>
      </trkpt>
      <trkpt lat="44.44959" lon="1.02665">
        <ele>188.5</ele>
        <time>2017-05-28T07:14:21.000Z</time>
      </trkpt>
      <trkpt lat="44.44958" lon="1.02664">
        <ele>188.7</ele>
        <time>2017-05-28T07:14:22.000Z</time>
      </trkpt>
      <trkpt lat="44.44957" lon="1.02663">
        <ele>188.8</ele>
        <time>2017-05-28T07:14:23.000Z</time>
      </trkpt>
      <trkpt lat="44.44955" lon="1.02662">
        <ele>188.9</ele>
        <time>2017-05-28T07:14:24.000Z</time>
      </trkpt>
      <trkpt lat="44.44954" lon="1.02661">
        <ele>189.1</ele>
        <time>2017-05-28T07:14:25.000Z</time>
      </trkpt>
      <trkpt lat="44.44953" lon="1.0266">
        <ele>189.2</ele>
        <time>2017-05-28T07:14:26.000Z</time>
      </trkpt>
      <trkpt lat="44.44952" lon="1.0266">
        <ele>189.3</ele>
        <time>2017-05-28T07:14:27.000Z</time>
      </trkpt>
      <trkpt lat="44.44951" lon="1.02659">
        <ele>189.5</ele>
        <time>2017-05-28T07:14:28.000Z</time>
      </trkpt>
      <trkpt lat="44.4495" lon="1.02659">
        <ele>189.6</ele>
        <time>2017-05-28T07:14:29.000Z</time>
      </trkpt>
      <trkpt lat="44.44949" lon="1.02659">
        <ele>189.7</ele>
        <time>2017-05-28T07:14:30.000Z</time>
      </trkpt>
      <trkpt lat="44.44947" lon="1.02659">
        <ele>189.9</ele>
        <time>2017-05-28T07:14:31.000Z</time>
      </trkpt>
      <trkpt lat="44.44946" lon="1.02659">
        <ele>190</ele>
        <time>2017-05-28T07:14:32.000Z</time>
      </trkpt>
      <trkpt lat="44.44945" lon="1.0266">
        <ele>190.1</ele>
        <time>2017-05-28T07:14:33.000Z</time>
      </trkpt>
      <trkpt lat="44.44944" lon="1.02661">
        <ele>190.2</ele>
        <time>2017-05-28T07:14:34.000Z</time>
      </trkpt>
      <trkpt lat="44.44942" lon="1.02662">
        <ele>190.3</ele>
        <time>2017-05-28T07:14:35.000Z</time>
      </trkpt>
      <trkpt lat="44.44941" lon="1.02664">
        <ele>190.4</ele>
        <time>2017-05-28T07:14:36.000Z</time>
      </trkpt>
      <trkpt lat="44.4494" lon="1.02666">
        <ele>190.5</ele>
        <time>2017-05-28T07:14:37.000Z</time>
      </trkpt>
      <trkpt lat="44.44939" lon="1.02668">
        <ele>190.6</ele>
        <time>2017-05-28T07:14:38.000Z</time>
      </trkpt>
      <trkpt lat="44.44937" lon="1.0267">
        <ele>190.7</ele>
        <time>2017-05-28T07:14:39.000Z</time>
      </trkpt>
      <trkpt lat="44.44936" lon="1.02672">
        <ele>190.7</ele>
        <time>2017-05-28T07:14:40.000Z</time>
      </trkpt>
      <trkpt lat="44.44935" lon="1.02675">
        <ele>190.8</ele>
        <time>2017-05-28T07:14:41.000Z</time>
      </trkpt>
      <trkpt lat="44.44934" lon="1.02677">
        <ele>190.9</ele>
        <time>2017-05-28T07:14:42.000Z</time>
      </trkpt>
      <trkpt lat="44.44932" lon="1.02679">
        <ele>191</ele>
        <time>2017-05-28T07:14:43.000Z</time>
      </trkpt>
      <trkpt lat="44.44931" lon="1.02681">
        <ele>191.1</ele>
        <time>2017-05-28T07:14:44.000Z</time>
      </trkpt>
      <trkpt lat="44.44929" lon="1.02682">
        <ele>191.2</ele>
        <time>2017-05-28T07:14:45.000Z</time>
      </trkpt>
      <trkpt lat="44.44928" lon="1.02684">
        <ele>191.3</ele>
        <time>2017-05-28T07:14:46.000Z</time>
      </trkpt>
      <trkpt lat="44.44926" lon="1.02686">
        <ele>191.4</ele>
        <time>2017-05-28T07:14:47.000Z</time>
      </trkpt>
      <trkpt lat="44.44924" lon="1.02688">
        <ele>191.5</ele>
        <time>2017-05-28T07:14:48.000Z</time>
      </trkpt>
      <trkpt lat="44.44923" lon="1.02689">
        <ele>191.6</ele>
        <time>2017-05-28T07:14:49.000Z</time>
      </trkpt>
      <trkpt lat="44.44921" lon="1.02691">
        <ele>191.7</ele>
        <time>2017-05-28T07:14:50.000Z</time>
      </trkpt>
      <trkpt lat="44.44919" lon="1.02693">
        <ele>191.9</ele>
        <time>2017-05-28T07:14:51.000Z</time>
      </trkpt>
      <trkpt lat="44.44917" lon="1.02695">
        <ele>192</ele>
        <time>2017-05-28T07:14:52.000Z</time>
      </trkpt>
      <trkpt lat="44.44915" lon="1.02697">
        <ele>192.1</ele>
        <time>2017-05-28T07:14:53.000Z</time>
      </trkpt>
      <trkpt lat="44.44913" lon="1.02699">
        <ele>192.2</ele>
        <time>2017-05-28T07:14:54.000Z</time>
      </trkpt>
      <trkpt lat="44.44911" lon="1.02701">
        <ele>192.3</ele>
        <time>2017-05-28T07:14:55.000Z</time>
      </trkpt>
      <trkpt lat="44.44908" lon="1.02702">
        <ele>192.4</ele>
        <time>2017-05-28T07:14:56.000Z</time>
      </trkpt>
      <trkpt lat="44.44906" lon="1.02704">
        <ele>192.5</ele>
        <time>2017-05-28T07:14:57.000Z</time>
      </trkpt>
      <trkpt lat="44.44904" lon="1.02706">
        <ele>192.6</ele>
        <time>2017-05-28T07:14:58.000Z</time>
      </trkpt>
      <trkpt lat="44.44902" lon="1.02708">
        <ele>192.7</ele>
        <time>2017-05-28T07:14:59.000Z</time>
      </trkpt>
      <trkpt lat="44.449" lon="1.02709">
        <ele>192.8</ele>
        <time>2017-05-28T07:15:00.000Z</time>
      </trkpt>
      <trkpt lat="44.44898" lon="1.02711">
        <ele>192.9</ele>
        <time>2017-05-28T07:15:01.000Z</time>
      </trkpt>
      <trkpt lat="44.44896" lon="1.02713">
        <ele>193.1</ele>
        <time>2017-05-28T07:15:02.000Z</time>
      </trkpt>
      <trkpt lat="44.44894" lon="1.02715">
        <ele>193.2</ele>
        <time>2017-05-28T07:15:03.000Z</time>
      </trkpt>
      <trkpt lat="44.44892" lon="1.02717">
        <ele>193.3</ele>
        <time>2017-05-28T07:15:04.000Z</time>
      </trkpt>
      <trkpt lat="44.4489" lon="1.0272">
        <ele>193.4</ele>
        <time>2017-05-28T07:15:05.000Z</time>
      </trkpt>
      <trkpt lat="44.44888" lon="1.02722">
        <ele>193.6</ele>
        <time>2017-05-28T07:15:06.000Z</time>
      </trkpt>
      <trkpt lat="44.44885" lon="1.02724">
        <ele>193.7</ele>
        <time>2017-05-28T07:15:07.000Z</time>
      </trkpt>
      <trkpt lat="44.44883" lon="1.02726">
        <ele>193.9</ele>
        <time>2017-05-28T07:15:08.000Z</time>
      </trkpt>
      <trkpt lat="44.44881" lon="1.02728">
        <ele>194</ele>
        <time>2017-05-28T07:15:09.000Z</time>
      </trkpt>
      <trkpt lat="44.44879" lon="1.0273">
        <ele>194.1</ele>
        <time>2017-05-28T07:15:10.000Z</time>
      </trkpt>
      <trkpt lat="44.44877" lon="1.02731">
        <ele>194.3</ele>
        <time>2017-05-28T07:15:11.000Z</time>
      </trkpt>
      <trkpt lat="44.44875" lon="1.02733">
        <ele>194.4</ele>
        <time>2017-05-28T07:15:12.000Z</time>
      </trkpt>
      <trkpt lat="44.44874" lon="1.02734">
        <ele>194.5</ele>
        <time>2017-05-28T07:15:13.000Z</time>
      </trkpt>
      <trkpt lat="44.44872" lon="1.02735">
        <ele>194.6</ele>
        <time>2017-05-28T07:15:14.000Z</time>
      </trkpt>
      <trkpt lat="44.44871" lon="1.02737">
        <ele>194.7</ele>
        <time>2017-05-28T07:15:15.000Z</time>
      </trkpt>
      <trkpt lat="44.44869" lon="1.02738">
        <ele>194.9</ele>
        <time>2017-05-28T07:15:16.000Z</time>
      </trkpt>
      <trkpt lat="44.44868" lon="1.02739">
        <ele>195</ele>
        <time>2017-05-28T07:15:17.000Z</time>
      </trkpt>
      <trkpt lat="44.44866" lon="1.0274">
        <ele>195.1</ele>
        <time>2017-05-28T07:15:18.000Z</time>
      </trkpt>
      <trkpt lat="44.44865" lon="1.02741">
        <ele>195.2</ele>
        <time>2017-05-28T07:15:19.000Z</time>
      </trkpt>
      <trkpt lat="44.44864" lon="1.02742">
        <ele>195.3</ele>
        <time>2017-05-28T07:15:20.000Z</time>
      </trkpt>
      <trkpt lat="44.44863" lon="1.02743">
        <ele>195.3</ele>
        <time>2017-05-28T07:15:21.000Z</time>
      </trkpt>
      <trkpt lat="44.44862" lon="1.02745">
        <ele>195.4</ele>
        <time>2017-05-28T07:15:22.000Z</time>
      </trkpt>
      <trkpt lat="44.44861" lon="1.02747">
        <ele>195.4</ele>
        <time>2017-05-28T07:15:23.000Z</time>
      </trkpt>
      <trkpt lat="44.4486" lon="1.02749">
        <ele>195.5</ele>
        <time>2017-05-28T07:15:24.000Z</time>
      </trkpt>
      <trkpt lat="44.44859" lon="1.02751">
        <ele>195.5</ele>
        <time>2017-05-28T07:15:25.000Z</time>
      </trkpt>
      <trkpt lat="44.44858" lon="1.02753">
        <ele>195.5</ele>
        <time>2017-05-28T07:15:26.000Z</time>
      </trkpt>
      <trkpt lat="44.44857" lon="1.02755">
        <ele>195.5</ele>
        <time>2017-05-28T07:15:27.000Z</time>
      </trkpt>
      <trkpt lat="44.44856" lon="1.02758">
        <ele>195.5</ele>
        <time>2017-05-28T07:15:28.000Z</time>
      </trkpt>
      <trkpt lat="44.44855" lon="1.0276">
        <ele>195.6</ele>
        <time>2017-05-28T07:15:29.000Z</time>
      </trkpt>
      <trkpt lat="44.44853" lon="1.02763">
        <ele>195.6</ele>
        <time>2017-05-28T07:15:30.000Z</time>
      </trkpt>
      <trkpt lat="44.44852" lon="1.02765">
        <ele>195.6</ele>
        <time>2017-05-28T07:15:31.000Z</time>
      </trkpt>
      <trkpt lat="44.44851" lon="1.02768">
        <ele>195.6</ele>
        <time>2017-05-28T07:15:32.000Z</time>
      </trkpt>
      <trkpt lat="44.4485" lon="1.02771">
        <ele>195.6</ele>
        <time>2017-05-28T07:15:33.000Z</time>
      </trkpt>
      <trkpt lat="44.44849" lon="1.02774">
        <ele>195.6</ele>
        <time>2017-05-28T07:15:34.000Z</time>
      </trkpt>
      <trkpt lat="44.44848" lon="1.02777">
        <ele>195.5</ele>
        <time>2017-05-28T07:15:35.000Z</time>
      </trkpt>
      <trkpt lat="44.44847" lon="1.02781">
        <ele>195.5</ele>
        <time>2017-05-28T07:15:36.000Z</time>
      </trkpt>
      <trkpt lat="44.44845" lon="1.02783">
        <ele>195.6</ele>
        <time>2017-05-28T07:15:37.000Z</time>
      </trkpt>
      <trkpt lat="44.44842" lon="1.02783">
        <ele>195.9</ele>
        <time>2017-05-28T07:15:38.000Z</time>
      </trkpt>
      <trkpt lat="44.44841" lon="1.02782">
        <ele>196.1</ele>
        <time>2017-05-28T07:15:39.000Z</time>
      </trkpt>
      <trkpt lat="44.4484" lon="1.02779">
        <ele>196.3</ele>
        <time>2017-05-28T07:15:40.000Z</time>
      </trkpt>
      <trkpt lat="44.4484" lon="1.02776">
        <ele>196.4</ele>
        <time>2017-05-28T07:15:41.000Z</time>
      </trkpt>
      <trkpt lat="44.4484" lon="1.02772">
        <ele>196.5</ele>
        <time>2017-05-28T07:15:42.000Z</time>
      </trkpt>
      <trkpt lat="44.4484" lon="1.02768">
        <ele>196.7</ele>
        <time>2017-05-28T07:15:43.000Z</time>
      </trkpt>
      <trkpt lat="44.4484" lon="1.02765">
        <ele>196.8</ele>
        <time>2017-05-28T07:15:44.000Z</time>
      </trkpt>
      <trkpt lat="44.4484" lon="1.02761">
        <ele>196.9</ele>
        <time>2017-05-28T07:15:45.000Z</time>
      </trkpt>
      <trkpt lat="44.4484" lon="1.02757">
        <ele>197.1</ele>
        <time>2017-05-28T07:15:46.000Z</time>
      </trkpt>
      <trkpt lat="44.4484" lon="1.02754">
        <ele>197.2</ele>
        <time>2017-05-28T07:15:47.000Z</time>
      </trkpt>
      <trkpt lat="44.4484" lon="1.0275">
        <ele>197.4</ele>
        <time>2017-05-28T07:15:48.000Z</time>
      </trkpt>
      <trkpt lat="44.4484" lon="1.02746">
        <ele>197.5</ele>
        <time>2017-05-28T07:15:49.000Z</time>
      </trkpt>
      <trkpt lat="44.44839" lon="1.02743">
        <ele>197.5</ele>
        <time>2017-05-28T07:15:50.000Z</time>
      </trkpt>
      <trkpt lat="44.44839" lon="1.02739">
        <ele>197.6</ele>
        <time>2017-05-28T07:15:51.000Z</time>
      </trkpt>
      <trkpt lat="44.44839" lon="1.02735">
        <ele>197.7</ele>
        <time>2017-05-28T07:15:52.000Z</time>
      </trkpt>
      <trkpt lat="44.44839" lon="1.02732">
        <ele>197.7</ele>
        <time>2017-05-28T07:15:53.000Z</time>
      </trkpt>
      <trkpt lat="44.44839" lon="1.02728">
        <ele>197.8</ele>
        <time>2017-05-28T07:15:54.000Z</time>
      </trkpt>
      <trkpt lat="44.44839" lon="1.02725">
        <ele>197.8</ele>
        <time>2017-05-28T07:15:55.000Z</time>
      </trkpt>
      <trkpt lat="44.44839" lon="1.02722">
        <ele>197.9</ele>
        <time>2017-05-28T07:15:56.000Z</time>
      </trkpt>
      <trkpt lat="44.44839" lon="1.0272">
        <ele>197.9</ele>
        <time>2017-05-28T07:15:57.000Z</time>
      </trkpt>
      <trkpt lat="44.44839" lon="1.02719">
        <ele>197.9</ele>
        <time>2017-05-28T07:15:58.000Z</time>
      </trkpt>
      <trkpt lat="44.4484" lon="1.02719">
        <ele>197.8</ele>
        <time>2017-05-28T07:15:59.000Z</time>
      </trkpt>
      <trkpt lat="44.44841" lon="1.0272">
        <ele>197.7</ele>
        <time>2017-05-28T07:16:00.000Z</time>
      </trkpt>
      <trkpt lat="44.44841" lon="1.0272">
        <ele>197.7</ele>
        <time>2017-05-28T07:16:01.000Z</time>
      </trkpt>
      <trkpt lat="44.44842" lon="1.02721">
        <ele>197.6</ele>
        <time>2017-05-28T07:16:02.000Z</time>
      </trkpt>
      <trkpt lat="44.44842" lon="1.02721">
        <ele>197.6</ele>
        <time>2017-05-28T07:16:03.000Z</time>
      </trkpt>
      <trkpt lat="44.44842" lon="1.02721">
        <ele>197.6</ele>
        <time>2017-05-28T07:16:04.000Z</time>
      </trkpt>
      <trkpt lat="44.44842" lon="1.02721">
        <ele>197.6</ele>
        <time>2017-05-28T07:16:05.000Z</time>
      </trkpt>
      <trkpt lat="44.44842" lon="1.02721">
        <ele>197.6</ele>
        <time>2017-05-28T07:16:06.000Z</time>
      </trkpt>
      <trkpt lat="44.44842" lon="1.02721">
        <ele>197.6</ele>
        <time>2017-05-28T07:16:07.000Z</time>
      </trkpt>
      <trkpt lat="44.44842" lon="1.02721">
        <ele>197.6</ele>
        <time>2017-05-28T07:16:08.000Z</time>
      </trkpt>
      <trkpt lat="44.44842" lon="1.02721">
        <ele>197.6</ele>
        <time>2017-05-28T07:16:09.000Z</time>
      </trkpt>
      <trkpt lat="44.44842" lon="1.02721">
        <ele>197.6</ele>
        <time>2017-05-28T07:16:10.000Z</time>
      </trkpt>
      <trkpt lat="44.44842" lon="1.02721">
        <ele>197.6</ele>
        <time>2017-05-28T07:16:11.000Z</time>
      </trkpt>
      <trkpt lat="44.44842" lon="1.02721">
        <ele>197.6</ele>
        <time>2017-05-28T07:16:12.000Z</time>
      </trkpt>
      <trkpt lat="44.44842" lon="1.02721">
        <ele>197.6</ele>
        <time>2017-05-28T07:16:13.000Z</time>
      </trkpt>
      <trkpt lat="44.44842" lon="1.02721">
        <ele>197.6</ele>
        <time>2017-05-28T07:16:14.000Z</time>
      </trkpt>
      <trkpt lat="44.44842" lon="1.02721">
        <ele>197.6</ele>
        <time>2017-05-28T07:16:15.000Z</time>
      </trkpt>
      <trkpt lat="44.44842" lon="1.02721">
        <ele>197.6</ele>
        <time>2017-05-28T07:16:16.000Z</time>
      </trkpt>
      <trkpt lat="44.44842" lon="1.02721">
        <ele>197.6</ele>
        <time>2017-05-28T07:16:17.000Z</time>
      </trkpt>
      <trkpt lat="44.44842" lon="1.02721">
        <ele>197.6</ele>
        <time>2017-05-28T07:16:18.000Z</time>
      </trkpt>
      <trkpt lat="44.44842" lon="1.02721">
        <ele>197.6</ele>
        <time>2017-05-28T07:16:19.000Z</time>
      </trkpt>
      <trkpt lat="44.44842" lon="1.02721">
        <ele>197.6</ele>
        <time>2017-05-28T07:16:20.000Z</time>
      </trkpt>
      <trkpt lat="44.44842" lon="1.02721">
        <ele>197.6</ele>
        <time>2017-05-28T07:16:21.000Z</time>
      </trkpt>
      <trkpt lat="44.44842" lon="1.02721">
        <ele>197.6</ele>
        <time>2017-05-28T07:16:22.000Z</time>
      </trkpt>
      <trkpt lat="44.44842" lon="1.02721">
        <ele>197.6</ele>
        <time>2017-05-28T07:16:23.000Z</time>
      </trkpt>
      <trkpt lat="44.44842" lon="1.02721">
        <ele>197.6</ele>
        <time>2017-05-28T07:16:24.000Z</time>
      </trkpt>
      <trkpt lat="44.44842" lon="1.02721">
        <ele>197.6</ele>
        <time>2017-05-28T07:16:25.000Z</time>
      </trkpt>
      <trkpt lat="44.44842" lon="1.02721">
        <ele>197.6</ele>
        <time>2017-05-28T07:16:26.000Z</time>
      </trkpt>
      <trkpt lat="44.44842" lon="1.02721">
        <ele>197.6</ele>
        <time>2017-05-28T07:16:27.000Z</time>
      </trkpt>
      <trkpt lat="44.44842" lon="1.02721">
        <ele>197.6</ele>
        <time>2017-05-28T07:16:28.000Z</time>
      </trkpt>
      <trkpt lat="44.44842" lon="1.02721">
        <ele>197.6</ele>
        <time>2017-05-28T07:16:29.000Z</time>
      </trkpt>
      <trkpt lat="44.44842" lon="1.02721">
        <ele>197.6</ele>
        <time>2017-05-28T07:16:30.000Z</time>
      </trkpt>
      <trkpt lat="44.44842" lon="1.02721">
        <ele>197.6</ele>
        <time>2017-05-28T07:16:31.000Z</time>
      </trkpt>
      <trkpt lat="44.44842" lon="1.02721">
        <ele>197.6</ele>
        <time>2017-05-28T07:16:32.000Z</time>
      </trkpt>
      <trkpt lat="44.44842" lon="1.02721">
        <ele>197.6</ele>
        <time>2017-05-28T07:16:33.000Z</time>
      </trkpt>
      <trkpt lat="44.44842" lon="1.02721">
        <ele>197.6</ele>
        <time>2017-05-28T07:16:34.000Z</time>
      </trkpt>
      <trkpt lat="44.44842" lon="1.02721">
        <ele>197.6</ele>
        <time>2017-05-28T07:16:35.000Z</time>
      </trkpt>
      <trkpt lat="44.44842" lon="1.02721">
        <ele>197.6</ele>
        <time>2017-05-28T07:16:36.000Z</time>
      </trkpt>
      <trkpt lat="44.44842" lon="1.02721">
        <ele>197.6</ele>
        <time>2017-05-28T07:16:37.000Z</time>
      </trkpt>
      <trkpt lat="44.44842" lon="1.02721">
        <ele>197.6</ele>
        <time>2017-05-28T07:16:38.000Z</time>
      </trkpt>
      <trkpt lat="44.44842" lon="1.02721">
        <ele>197.6</ele>
        <time>2017-05-28T07:16:39.000Z</time>
      </trkpt>
      <trkpt lat="44.44842" lon="1.02721">
        <ele>197.6</ele>
        <time>2017-05-28T07:16:40.000Z</time>
      </trkpt>
      <trkpt lat="44.44842" lon="1.02721">
        <ele>197.6</ele>
        <time>2017-05-28T07:16:41.000Z</time>
      </trkpt>
      <trkpt lat="44.44842" lon="1.02721">
        <ele>197.6</ele>
        <time>2017-05-28T07:16:42.000Z</time>
      </trkpt>
      <trkpt lat="44.44842" lon="1.02721">
        <ele>197.6</ele>
        <time>2017-05-28T07:16:43.000Z</time>
      </trkpt>
      <trkpt lat="44.44842" lon="1.02721">
        <ele>197.6</ele>
        <time>2017-05-28T07:16:44.000Z</time>
      </trkpt>
      <trkpt lat="44.44842" lon="1.02721">
        <ele>197.6</ele>
        <time>2017-05-28T07:16:45.000Z</time>
      </trkpt>
      <trkpt lat="44.44842" lon="1.02721">
        <ele>197.6</ele>
        <time>2017-05-28T07:16:46.000Z</time>
      </trkpt>
      <trkpt lat="44.44842" lon="1.02721">
        <ele>197.6</ele>
        <time>2017-05-28T07:16:47.000Z</time>
      </trkpt>
      <trkpt lat="44.44842" lon="1.02721">
        <ele>197.6</ele>
        <time>2017-05-28T07:16:48.000Z</time>
      </trkpt>
      <trkpt lat="44.44842" lon="1.02721">
        <ele>197.6</ele>
        <time>2017-05-28T07:16:49.000Z</time>
      </trkpt>
      <trkpt lat="44.44842" lon="1.02721">
        <ele>197.6</ele>
        <time>2017-05-28T07:16:50.000Z</time>
      </trkpt>
      <trkpt lat="44.44842" lon="1.02721">
        <ele>197.6</ele>
        <time>2017-05-28T07:16:51.000Z</time>
      </trkpt>
      <trkpt lat="44.44842" lon="1.02721">
        <ele>197.6</ele>
        <time>2017-05-28T07:16:52.000Z</time>
      </trkpt>
      <trkpt lat="44.44842" lon="1.02721">
        <ele>197.6</ele>
        <time>2017-05-28T07:16:53.000Z</time>
      </trkpt>
      <trkpt lat="44.44842" lon="1.02721">
        <ele>197.6</ele>
        <time>2017-05-28T07:16:54.000Z</time>
      </trkpt>
      <trkpt lat="44.44842" lon="1.02721">
        <ele>197.6</ele>
        <time>2017-05-28T07:16:55.000Z</time>
      </trkpt>
      <trkpt lat="44.44842" lon="1.02721">
        <ele>197.6</ele>
        <time>2017-05-28T07:16:56.000Z</time>
      </trkpt>
      <trkpt lat="44.44842" lon="1.02721">
        <ele>197.6</ele>
        <time>2017-05-28T07:16:57.000Z</time>
      </trkpt>
      <trkpt lat="44.44842" lon="1.02721">
        <ele>197.6</ele>
        <time>2017-05-28T07:16:58.000Z</time>
      </trkpt>
      <trkpt lat="44.44842" lon="1.02721">
        <ele>197.6</ele>
        <time>2017-05-28T07:16:59.000Z</time>
      </trkpt>
      <trkpt lat="44.44842" lon="1.02721">
        <ele>197.6</ele>
        <time>2017-05-28T07:17:00.000Z</time>
      </trkpt>
      <trkpt lat="44.44842" lon="1.02721">
        <ele>197.6</ele>
        <time>2017-05-28T07:17:01.000Z</time>
      </trkpt>
      <trkpt lat="44.4484" lon="1.02721">
        <ele>197.8</ele>
        <time>2017-05-28T07:17:02.000Z</time>
      </trkpt>
      <trkpt lat="44.44838" lon="1.0272">
        <ele>197.9</ele>
        <time>2017-05-28T07:17:03.000Z</time>
      </trkpt>
      <trkpt lat="44.44838" lon="1.02718">
        <ele>198</ele>
        <time>2017-05-28T07:17:04.000Z</time>
      </trkpt>
      <trkpt lat="44.44838" lon="1.02716">
        <ele>198</ele>
        <time>2017-05-28T07:17:05.000Z</time>
      </trkpt>
      <trkpt lat="44.44839" lon="1.02713">
        <ele>198</ele>
        <time>2017-05-28T07:17:06.000Z</time>
      </trkpt>
      <trkpt lat="44.4484" lon="1.02709">
        <ele>198</ele>
        <time>2017-05-28T07:17:07.000Z</time>
      </trkpt>
      <trkpt lat="44.4484" lon="1.02706">
        <ele>198</ele>
        <time>2017-05-28T07:17:08.000Z</time>
      </trkpt>
      <trkpt lat="44.44839" lon="1.02702">
        <ele>198.1</ele>
        <time>2017-05-28T07:17:09.000Z</time>
      </trkpt>
      <trkpt lat="44.44838" lon="1.02698">
        <ele>198.2</ele>
        <time>2017-05-28T07:17:10.000Z</time>
      </trkpt>
      <trkpt lat="44.44837" lon="1.02694">
        <ele>198.4</ele>
        <time>2017-05-28T07:17:11.000Z</time>
      </trkpt>
      <trkpt lat="44.44835" lon="1.0269">
        <ele>198.6</ele>
        <time>2017-05-28T07:17:12.000Z</time>
      </trkpt>
      <trkpt lat="44.44833" lon="1.02687">
        <ele>198.8</ele>
        <time>2017-05-28T07:17:13.000Z</time>
      </trkpt>
      <trkpt lat="44.44831" lon="1.02683">
        <ele>198.9</ele>
        <time>2017-05-28T07:17:14.000Z</time>
      </trkpt>
      <trkpt lat="44.44828" lon="1.02679">
        <ele>199.1</ele>
        <time>2017-05-28T07:17:15.000Z</time>
      </trkpt>
      <trkpt lat="44.44826" lon="1.02676">
        <ele>199.2</ele>
        <time>2017-05-28T07:17:16.000Z</time>
      </trkpt>
      <trkpt lat="44.44823" lon="1.02673">
        <ele>199.4</ele>
        <time>2017-05-28T07:17:17.000Z</time>
      </trkpt>
      <trkpt lat="44.4482" lon="1.02671">
        <ele>199.6</ele>
        <time>2017-05-28T07:17:18.000Z</time>
      </trkpt>
      <trkpt lat="44.44818" lon="1.02668">
        <ele>199.7</ele>
        <time>2017-05-28T07:17:19.000Z</time>
      </trkpt>
      <trkpt lat="44.44816" lon="1.02662">
        <ele>199.8</ele>
        <time>2017-05-28T07:17:20.000Z</time>
      </trkpt>
      <trkpt lat="44.44814" lon="1.02656">
        <ele>199.8</ele>
        <time>2017-05-28T07:17:21.000Z</time>
      </trkpt>
      <trkpt lat="44.44813" lon="1.02649">
        <ele>199.8</ele>
        <time>2017-05-28T07:17:22.000Z</time>
      </trkpt>
      <trkpt lat="44.44811" lon="1.02643">
        <ele>199.8</ele>
        <time>2017-05-28T07:17:23.000Z</time>
      </trkpt>
      <trkpt lat="44.44809" lon="1.02636">
        <ele>199.8</ele>
        <time>2017-05-28T07:17:24.000Z</time>
      </trkpt>
      <trkpt lat="44.44807" lon="1.02629">
        <ele>199.8</ele>
        <time>2017-05-28T07:17:25.000Z</time>
      </trkpt>
      <trkpt lat="44.44804" lon="1.02622">
        <ele>199.9</ele>
        <time>2017-05-28T07:17:26.000Z</time>
      </trkpt>
      <trkpt lat="44.448" lon="1.02615">
        <ele>200</ele>
        <time>2017-05-28T07:17:27.000Z</time>
      </trkpt>
      <trkpt lat="44.44797" lon="1.02608">
        <ele>200</ele>
        <time>2017-05-28T07:17:28.000Z</time>
      </trkpt>
      <trkpt lat="44.44795" lon="1.02602">
        <ele>200.1</ele>
        <time>2017-05-28T07:17:29.000Z</time>
      </trkpt>
      <trkpt lat="44.44793" lon="1.02597">
        <ele>200.1</ele>
        <time>2017-05-28T07:17:30.000Z</time>
      </trkpt>
      <trkpt lat="44.4479" lon="1.02591">
        <ele>200.2</ele>
        <time>2017-05-28T07:17:31.000Z</time>
      </trkpt>
      <trkpt lat="44.44788" lon="1.02584">
        <ele>200.2</ele>
        <time>2017-05-28T07:17:32.000Z</time>
      </trkpt>
      <trkpt lat="44.44785" lon="1.02577">
        <ele>200.2</ele>
        <time>2017-05-28T07:17:33.000Z</time>
      </trkpt>
      <trkpt lat="44.44783" lon="1.0257">
        <ele>200.2</ele>
        <time>2017-05-28T07:17:34.000Z</time>
      </trkpt>
      <trkpt lat="44.4478" lon="1.02562">
        <ele>200.3</ele>
        <time>2017-05-28T07:17:35.000Z</time>
      </trkpt>
      <trkpt lat="44.44777" lon="1.02555">
        <ele>200.4</ele>
        <time>2017-05-28T07:17:36.000Z</time>
      </trkpt>
      <trkpt lat="44.44774" lon="1.02547">
        <ele>200.5</ele>
        <time>2017-05-28T07:17:37.000Z</time>
      </trkpt>
      <trkpt lat="44.44772" lon="1.02539">
        <ele>200.6</ele>
        <time>2017-05-28T07:17:38.000Z</time>
      </trkpt>
      <trkpt lat="44.44769" lon="1.02531">
        <ele>200.7</ele>
        <time>2017-05-28T07:17:39.000Z</time>
      </trkpt>
      <trkpt lat="44.44766" lon="1.02523">
        <ele>200.8</ele>
        <time>2017-05-28T07:17:40.000Z</time>
      </trkpt>
      <trkpt lat="44.44764" lon="1.02516">
        <ele>200.9</ele>
        <time>2017-05-28T07:17:41.000Z</time>
      </trkpt>
      <trkpt lat="44.44761" lon="1.02508">
        <ele>201.1</ele>
        <time>2017-05-28T07:17:42.000Z</time>
      </trkpt>
      <trkpt lat="44.44759" lon="1.02501">
        <ele>201.3</ele>
        <time>2017-05-28T07:17:43.000Z</time>
      </trkpt>
      <trkpt lat="44.44756" lon="1.02494">
        <ele>201.5</ele>
        <time>2017-05-28T07:17:44.000Z</time>
      </trkpt>
      <trkpt lat="44.44754" lon="1.02487">
        <ele>201.8</ele>
        <time>2017-05-28T07:17:45.000Z</time>
      </trkpt>
      <trkpt lat="44.44752" lon="1.02481">
        <ele>202.1</ele>
        <time>2017-05-28T07:17:46.000Z</time>
      </trkpt>
      <trkpt lat="44.4475" lon="1.02475">
        <ele>202.3</ele>
        <time>2017-05-28T07:17:47.000Z</time>
      </trkpt>
      <trkpt lat="44.44748" lon="1.02469">
        <ele>202.5</ele>
        <time>2017-05-28T07:17:48.000Z</time>
      </trkpt>
      <trkpt lat="44.44746" lon="1.02463">
        <ele>202.7</ele>
        <time>2017-05-28T07:17:49.000Z</time>
      </trkpt>
      <trkpt lat="44.44744" lon="1.02457">
        <ele>202.9</ele>
        <time>2017-05-28T07:17:50.000Z</time>
      </trkpt>
      <trkpt lat="44.44742" lon="1.02452">
        <ele>203.1</ele>
        <time>2017-05-28T07:17:51.000Z</time>
      </trkpt>
      <trkpt lat="44.44741" lon="1.02446">
        <ele>203.2</ele>
        <time>2017-05-28T07:17:52.000Z</time>
      </trkpt>
      <trkpt lat="44.44739" lon="1.02441">
        <ele>203.3</ele>
        <time>2017-05-28T07:17:53.000Z</time>
      </trkpt>
      <trkpt lat="44.44737" lon="1.02436">
        <ele>203.4</ele>
        <time>2017-05-28T07:17:54.000Z</time>
      </trkpt>
      <trkpt lat="44.44736" lon="1.02431">
        <ele>203.5</ele>
        <time>2017-05-28T07:17:55.000Z</time>
      </trkpt>
      <trkpt lat="44.44734" lon="1.02426">
        <ele>203.6</ele>
        <time>2017-05-28T07:17:56.000Z</time>
      </trkpt>
      <trkpt lat="44.44731" lon="1.02422">
        <ele>203.7</ele>
        <time>2017-05-28T07:17:57.000Z</time>
      </trkpt>
      <trkpt lat="44.44729" lon="1.02419">
        <ele>203.8</ele>
        <time>2017-05-28T07:17:58.000Z</time>
      </trkpt>
      <trkpt lat="44.44726" lon="1.02416">
        <ele>203.8</ele>
        <time>2017-05-28T07:17:59.000Z</time>
      </trkpt>
      <trkpt lat="44.44723" lon="1.02416">
        <ele>203.9</ele>
        <time>2017-05-28T07:18:00.000Z</time>
      </trkpt>
      <trkpt lat="44.44721" lon="1.02417">
        <ele>204.1</ele>
        <time>2017-05-28T07:18:01.000Z</time>
      </trkpt>
      <trkpt lat="44.44718" lon="1.02419">
        <ele>204.2</ele>
        <time>2017-05-28T07:18:02.000Z</time>
      </trkpt>
      <trkpt lat="44.44715" lon="1.02422">
        <ele>204.3</ele>
        <time>2017-05-28T07:18:03.000Z</time>
      </trkpt>
      <trkpt lat="44.44712" lon="1.02425">
        <ele>204.5</ele>
        <time>2017-05-28T07:18:04.000Z</time>
      </trkpt>
      <trkpt lat="44.4471" lon="1.02428">
        <ele>204.7</ele>
        <time>2017-05-28T07:18:05.000Z</time>
      </trkpt>
      <trkpt lat="44.44707" lon="1.0243">
        <ele>204.8</ele>
        <time>2017-05-28T07:18:06.000Z</time>
      </trkpt>
      <trkpt lat="44.44705" lon="1.02432">
        <ele>205</ele>
        <time>2017-05-28T07:18:07.000Z</time>
      </trkpt>
      <trkpt lat="44.44702" lon="1.02434">
        <ele>205.1</ele>
        <time>2017-05-28T07:18:08.000Z</time>
      </trkpt>
      <trkpt lat="44.447" lon="1.02437">
        <ele>205.3</ele>
        <time>2017-05-28T07:18:09.000Z</time>
      </trkpt>
      <trkpt lat="44.44698" lon="1.0244">
        <ele>205.5</ele>
        <time>2017-05-28T07:18:10.000Z</time>
      </trkpt>
      <trkpt lat="44.44695" lon="1.02442">
        <ele>205.7</ele>
        <time>2017-05-28T07:18:11.000Z</time>
      </trkpt>
      <trkpt lat="44.44693" lon="1.02445">
        <ele>205.9</ele>
        <time>2017-05-28T07:18:12.000Z</time>
      </trkpt>
      <trkpt lat="44.44691" lon="1.02448">
        <ele>206.1</ele>
        <time>2017-05-28T07:18:13.000Z</time>
      </trkpt>
      <trkpt lat="44.44688" lon="1.02451">
        <ele>206.3</ele>
        <time>2017-05-28T07:18:14.000Z</time>
      </trkpt>
      <trkpt lat="44.44686" lon="1.02454">
        <ele>206.6</ele>
        <time>2017-05-28T07:18:15.000Z</time>
      </trkpt>
      <trkpt lat="44.44684" lon="1.02457">
        <ele>206.8</ele>
        <time>2017-05-28T07:18:16.000Z</time>
      </trkpt>
      <trkpt lat="44.44681" lon="1.0246">
        <ele>207.1</ele>
        <time>2017-05-28T07:18:17.000Z</time>
      </trkpt>
      <trkpt lat="44.44679" lon="1.02464">
        <ele>207.4</ele>
        <time>2017-05-28T07:18:18.000Z</time>
      </trkpt>
      <trkpt lat="44.44677" lon="1.02467">
        <ele>207.7</ele>
        <time>2017-05-28T07:18:19.000Z</time>
      </trkpt>
      <trkpt lat="44.44674" lon="1.0247">
        <ele>208</ele>
        <time>2017-05-28T07:18:20.000Z</time>
      </trkpt>
      <trkpt lat="44.44672" lon="1.02473">
        <ele>208.3</ele>
        <time>2017-05-28T07:18:21.000Z</time>
      </trkpt>
      <trkpt lat="44.44671" lon="1.02476">
        <ele>208.6</ele>
        <time>2017-05-28T07:18:22.000Z</time>
      </trkpt>
      <trkpt lat="44.44669" lon="1.02479">
        <ele>208.8</ele>
        <time>2017-05-28T07:18:23.000Z</time>
      </trkpt>
      <trkpt lat="44.44667" lon="1.02483">
        <ele>209.1</ele>
        <time>2017-05-28T07:18:24.000Z</time>
      </trkpt>
      <trkpt lat="44.44666" lon="1.02486">
        <ele>209.4</ele>
        <time>2017-05-28T07:18:25.000Z</time>
      </trkpt>
      <trkpt lat="44.44665" lon="1.0249">
        <ele>209.5</ele>
        <time>2017-05-28T07:18:26.000Z</time>
      </trkpt>
      <trkpt lat="44.44663" lon="1.02493">
        <ele>209.8</ele>
        <time>2017-05-28T07:18:27.000Z</time>
      </trkpt>
      <trkpt lat="44.44662" lon="1.02497">
        <ele>210</ele>
        <time>2017-05-28T07:18:28.000Z</time>
      </trkpt>
      <trkpt lat="44.44661" lon="1.02501">
        <ele>210.2</ele>
        <time>2017-05-28T07:18:29.000Z</time>
      </trkpt>
      <trkpt lat="44.44661" lon="1.02505">
        <ele>210.3</ele>
        <time>2017-05-28T07:18:30.000Z</time>
      </trkpt>
      <trkpt lat="44.4466" lon="1.02509">
        <ele>210.5</ele>
        <time>2017-05-28T07:18:31.000Z</time>
      </trkpt>
      <trkpt lat="44.44659" lon="1.02513">
        <ele>210.7</ele>
        <time>2017-05-28T07:18:32.000Z</time>
      </trkpt>
      <trkpt lat="44.44658" lon="1.02518">
        <ele>210.9</ele>
        <time>2017-05-28T07:18:33.000Z</time>
      </trkpt>
      <trkpt lat="44.44658" lon="1.02522">
        <ele>211.1</ele>
        <time>2017-05-28T07:18:34.000Z</time>
      </trkpt>
      <trkpt lat="44.44657" lon="1.02526">
        <ele>211.3</ele>
        <time>2017-05-28T07:18:35.000Z</time>
      </trkpt>
      <trkpt lat="44.44656" lon="1.0253">
        <ele>211.5</ele>
        <time>2017-05-28T07:18:36.000Z</time>
      </trkpt>
      <trkpt lat="44.44656" lon="1.02534">
        <ele>211.7</ele>
        <time>2017-05-28T07:18:37.000Z</time>
      </trkpt>
      <trkpt lat="44.44655" lon="1.02538">
        <ele>211.9</ele>
        <time>2017-05-28T07:18:38.000Z</time>
      </trkpt>
      <trkpt lat="44.44655" lon="1.02542">
        <ele>212.1</ele>
        <time>2017-05-28T07:18:39.000Z</time>
      </trkpt>
      <trkpt lat="44.44654" lon="1.02546">
        <ele>212.3</ele>
        <time>2017-05-28T07:18:40.000Z</time>
      </trkpt>
      <trkpt lat="44.44653" lon="1.02549">
        <ele>212.5</ele>
        <time>2017-05-28T07:18:41.000Z</time>
      </trkpt>
      <trkpt lat="44.44653" lon="1.02553">
        <ele>212.7</ele>
        <time>2017-05-28T07:18:42.000Z</time>
      </trkpt>
      <trkpt lat="44.44652" lon="1.02557">
        <ele>212.9</ele>
        <time>2017-05-28T07:18:43.000Z</time>
      </trkpt>
      <trkpt lat="44.44652" lon="1.02561">
        <ele>213.1</ele>
        <time>2017-05-28T07:18:44.000Z</time>
      </trkpt>
      <trkpt lat="44.44651" lon="1.02565">
        <ele>213.3</ele>
        <time>2017-05-28T07:18:45.000Z</time>
      </trkpt>
      <trkpt lat="44.4465" lon="1.02568">
        <ele>213.5</ele>
        <time>2017-05-28T07:18:46.000Z</time>
      </trkpt>
      <trkpt lat="44.4465" lon="1.02573">
        <ele>213.7</ele>
        <time>2017-05-28T07:18:47.000Z</time>
      </trkpt>
      <trkpt lat="44.44649" lon="1.02577">
        <ele>214</ele>
        <time>2017-05-28T07:18:48.000Z</time>
      </trkpt>
      <trkpt lat="44.44648" lon="1.02581">
        <ele>214.2</ele>
        <time>2017-05-28T07:18:49.000Z</time>
      </trkpt>
      <trkpt lat="44.44648" lon="1.02586">
        <ele>214.4</ele>
        <time>2017-05-28T07:18:50.000Z</time>
      </trkpt>
      <trkpt lat="44.44647" lon="1.0259">
        <ele>214.5</ele>
        <time>2017-05-28T07:18:51.000Z</time>
      </trkpt>
      <trkpt lat="44.44646" lon="1.02595">
        <ele>214.5</ele>
        <time>2017-05-28T07:18:52.000Z</time>
      </trkpt>
      <trkpt lat="44.44646" lon="1.026">
        <ele>214.6</ele>
        <time>2017-05-28T07:18:53.000Z</time>
      </trkpt>
      <trkpt lat="44.44645" lon="1.02605">
        <ele>214.7</ele>
        <time>2017-05-28T07:18:54.000Z</time>
      </trkpt>
      <trkpt lat="44.44644" lon="1.0261">
        <ele>214.8</ele>
        <time>2017-05-28T07:18:55.000Z</time>
      </trkpt>
      <trkpt lat="44.44644" lon="1.02615">
        <ele>214.8</ele>
        <time>2017-05-28T07:18:56.000Z</time>
      </trkpt>
      <trkpt lat="44.44643" lon="1.02619">
        <ele>214.9</ele>
        <time>2017-05-28T07:18:57.000Z</time>
      </trkpt>
      <trkpt lat="44.44642" lon="1.02624">
        <ele>215</ele>
        <time>2017-05-28T07:18:58.000Z</time>
      </trkpt>
      <trkpt lat="44.44641" lon="1.02629">
        <ele>215</ele>
        <time>2017-05-28T07:18:59.000Z</time>
      </trkpt>
      <trkpt lat="44.44641" lon="1.02633">
        <ele>215.1</ele>
        <time>2017-05-28T07:19:00.000Z</time>
      </trkpt>
      <trkpt lat="44.4464" lon="1.02638">
        <ele>215.2</ele>
        <time>2017-05-28T07:19:01.000Z</time>
      </trkpt>
      <trkpt lat="44.44639" lon="1.02642">
        <ele>215.2</ele>
        <time>2017-05-28T07:19:02.000Z</time>
      </trkpt>
      <trkpt lat="44.44638" lon="1.02647">
        <ele>215.3</ele>
        <time>2017-05-28T07:19:03.000Z</time>
      </trkpt>
      <trkpt lat="44.44637" lon="1.02652">
        <ele>215.4</ele>
        <time>2017-05-28T07:19:04.000Z</time>
      </trkpt>
      <trkpt lat="44.44636" lon="1.02657">
        <ele>215.4</ele>
        <time>2017-05-28T07:19:05.000Z</time>
      </trkpt>
      <trkpt lat="44.44635" lon="1.02662">
        <ele>215.5</ele>
        <time>2017-05-28T07:19:06.000Z</time>
      </trkpt>
      <trkpt lat="44.44634" lon="1.02667">
        <ele>215.6</ele>
        <time>2017-05-28T07:19:07.000Z</time>
      </trkpt>
      <trkpt lat="44.44633" lon="1.02672">
        <ele>215.5</ele>
        <time>2017-05-28T07:19:08.000Z</time>
      </trkpt>
      <trkpt lat="44.44631" lon="1.02677">
        <ele>215.4</ele>
        <time>2017-05-28T07:19:09.000Z</time>
      </trkpt>
      <trkpt lat="44.4463" lon="1.02682">
        <ele>215.3</ele>
        <time>2017-05-28T07:19:10.000Z</time>
      </trkpt>
      <trkpt lat="44.44628" lon="1.02687">
        <ele>215.2</ele>
        <time>2017-05-28T07:19:11.000Z</time>
      </trkpt>
      <trkpt lat="44.44627" lon="1.02691">
        <ele>215.2</ele>
        <time>2017-05-28T07:19:12.000Z</time>
      </trkpt>
      <trkpt lat="44.44625" lon="1.02696">
        <ele>215.1</ele>
        <time>2017-05-28T07:19:13.000Z</time>
      </trkpt>
      <trkpt lat="44.44623" lon="1.02701">
        <ele>215.1</ele>
        <time>2017-05-28T07:19:14.000Z</time>
      </trkpt>
      <trkpt lat="44.44621" lon="1.02706">
        <ele>215</ele>
        <time>2017-05-28T07:19:15.000Z</time>
      </trkpt>
      <trkpt lat="44.44619" lon="1.02711">
        <ele>215</ele>
        <time>2017-05-28T07:19:16.000Z</time>
      </trkpt>
      <trkpt lat="44.44617" lon="1.02716">
        <ele>214.9</ele>
        <time>2017-05-28T07:19:17.000Z</time>
      </trkpt>
      <trkpt lat="44.44615" lon="1.02721">
        <ele>214.9</ele>
        <time>2017-05-28T07:19:18.000Z</time>
      </trkpt>
      <trkpt lat="44.44613" lon="1.02726">
        <ele>214.9</ele>
        <time>2017-05-28T07:19:19.000Z</time>
      </trkpt>
      <trkpt lat="44.44611" lon="1.02731">
        <ele>214.9</ele>
        <time>2017-05-28T07:19:20.000Z</time>
      </trkpt>
      <trkpt lat="44.44609" lon="1.02736">
        <ele>214.9</ele>
        <time>2017-05-28T07:19:21.000Z</time>
      </trkpt>
      <trkpt lat="44.44607" lon="1.02741">
        <ele>214.9</ele>
        <time>2017-05-28T07:19:22.000Z</time>
      </trkpt>
      <trkpt lat="44.44604" lon="1.02745">
        <ele>214.9</ele>
        <time>2017-05-28T07:19:23.000Z</time>
      </trkpt>
      <trkpt lat="44.44602" lon="1.0275">
        <ele>214.9</ele>
        <time>2017-05-28T07:19:24.000Z</time>
      </trkpt>
      <trkpt lat="44.446" lon="1.02755">
        <ele>214.9</ele>
        <time>2017-05-28T07:19:25.000Z</time>
      </trkpt>
      <trkpt lat="44.44598" lon="1.0276">
        <ele>215</ele>
        <time>2017-05-28T07:19:26.000Z</time>
      </trkpt>
      <trkpt lat="44.44596" lon="1.02765">
        <ele>215.1</ele>
        <time>2017-05-28T07:19:27.000Z</time>
      </trkpt>
      <trkpt lat="44.44593" lon="1.02771">
        <ele>215.1</ele>
        <time>2017-05-28T07:19:28.000Z</time>
      </trkpt>
      <trkpt lat="44.44592" lon="1.02777">
        <ele>215.2</ele>
        <time>2017-05-28T07:19:29.000Z</time>
      </trkpt>
      <trkpt lat="44.4459" lon="1.02784">
        <ele>215.2</ele>
        <time>2017-05-28T07:19:30.000Z</time>
      </trkpt>
      <trkpt lat="44.44588" lon="1.02792">
        <ele>215.2</ele>
        <time>2017-05-28T07:19:31.000Z</time>
      </trkpt>
      <trkpt lat="44.44587" lon="1.02799">
        <ele>215.2</ele>
        <time>2017-05-28T07:19:32.000Z</time>
      </trkpt>
      <trkpt lat="44.44586" lon="1.02806">
        <ele>215.2</ele>
        <time>2017-05-28T07:19:33.000Z</time>
      </trkpt>
      <trkpt lat="44.44585" lon="1.02813">
        <ele>215.1</ele>
        <time>2017-05-28T07:19:34.000Z</time>
      </trkpt>
      <trkpt lat="44.44584" lon="1.0282">
        <ele>215.1</ele>
        <time>2017-05-28T07:19:35.000Z</time>
      </trkpt>
      <trkpt lat="44.44583" lon="1.02826">
        <ele>215.1</ele>
        <time>2017-05-28T07:19:36.000Z</time>
      </trkpt>
      <trkpt lat="44.44582" lon="1.02833">
        <ele>215</ele>
        <time>2017-05-28T07:19:37.000Z</time>
      </trkpt>
      <trkpt lat="44.44582" lon="1.0284">
        <ele>215</ele>
        <time>2017-05-28T07:19:38.000Z</time>
      </trkpt>
      <trkpt lat="44.44581" lon="1.02846">
        <ele>215</ele>
        <time>2017-05-28T07:19:39.000Z</time>
      </trkpt>
      <trkpt lat="44.4458" lon="1.02853">
        <ele>215</ele>
        <time>2017-05-28T07:19:40.000Z</time>
      </trkpt>
      <trkpt lat="44.44578" lon="1.02859">
        <ele>215.1</ele>
        <time>2017-05-28T07:19:41.000Z</time>
      </trkpt>
      <trkpt lat="44.44577" lon="1.02866">
        <ele>215.1</ele>
        <time>2017-05-28T07:19:42.000Z</time>
      </trkpt>
      <trkpt lat="44.44575" lon="1.02872">
        <ele>215.2</ele>
        <time>2017-05-28T07:19:43.000Z</time>
      </trkpt>
      <trkpt lat="44.44572" lon="1.02879">
        <ele>215.3</ele>
        <time>2017-05-28T07:19:44.000Z</time>
      </trkpt>
      <trkpt lat="44.4457" lon="1.02885">
        <ele>215.4</ele>
        <time>2017-05-28T07:19:45.000Z</time>
      </trkpt>
      <trkpt lat="44.44567" lon="1.02891">
        <ele>215.6</ele>
        <time>2017-05-28T07:19:46.000Z</time>
      </trkpt>
      <trkpt lat="44.44564" lon="1.02897">
        <ele>215.7</ele>
        <time>2017-05-28T07:19:47.000Z</time>
      </trkpt>
      <trkpt lat="44.44561" lon="1.02903">
        <ele>215.9</ele>
        <time>2017-05-28T07:19:48.000Z</time>
      </trkpt>
      <trkpt lat="44.44558" lon="1.02908">
        <ele>216.1</ele>
        <time>2017-05-28T07:19:49.000Z</time>
      </trkpt>
      <trkpt lat="44.44555" lon="1.02914">
        <ele>216.3</ele>
        <time>2017-05-28T07:19:50.000Z</time>
      </trkpt>
      <trkpt lat="44.44552" lon="1.02919">
        <ele>216.5</ele>
        <time>2017-05-28T07:19:51.000Z</time>
      </trkpt>
      <trkpt lat="44.44549" lon="1.02925">
        <ele>216.5</ele>
        <time>2017-05-28T07:19:52.000Z</time>
      </trkpt>
      <trkpt lat="44.44546" lon="1.02931">
        <ele>216.6</ele>
        <time>2017-05-28T07:19:53.000Z</time>
      </trkpt>
      <trkpt lat="44.44543" lon="1.02936">
        <ele>216.6</ele>
        <time>2017-05-28T07:19:54.000Z</time>
      </trkpt>
      <trkpt lat="44.4454" lon="1.02941">
        <ele>216.6</ele>
        <time>2017-05-28T07:19:55.000Z</time>
      </trkpt>
      <trkpt lat="44.44537" lon="1.02947">
        <ele>216.6</ele>
        <time>2017-05-28T07:19:56.000Z</time>
      </trkpt>
      <trkpt lat="44.44535" lon="1.02952">
        <ele>216.7</ele>
        <time>2017-05-28T07:19:57.000Z</time>
      </trkpt>
      <trkpt lat="44.44532" lon="1.02957">
        <ele>216.7</ele>
        <time>2017-05-28T07:19:58.000Z</time>
      </trkpt>
      <trkpt lat="44.44528" lon="1.02962">
        <ele>216.7</ele>
        <time>2017-05-28T07:19:59.000Z</time>
      </trkpt>
      <trkpt lat="44.44525" lon="1.02967">
        <ele>216.8</ele>
        <time>2017-05-28T07:20:00.000Z</time>
      </trkpt>
      <trkpt lat="44.44522" lon="1.02972">
        <ele>216.8</ele>
        <time>2017-05-28T07:20:01.000Z</time>
      </trkpt>
      <trkpt lat="44.44519" lon="1.02978">
        <ele>216.8</ele>
        <time>2017-05-28T07:20:02.000Z</time>
      </trkpt>
      <trkpt lat="44.44517" lon="1.02983">
        <ele>216.8</ele>
        <time>2017-05-28T07:20:03.000Z</time>
      </trkpt>
      <trkpt lat="44.44514" lon="1.02988">
        <ele>216.8</ele>
        <time>2017-05-28T07:20:04.000Z</time>
      </trkpt>
      <trkpt lat="44.44511" lon="1.02993">
        <ele>216.8</ele>
        <time>2017-05-28T07:20:05.000Z</time>
      </trkpt>
      <trkpt lat="44.44508" lon="1.02999">
        <ele>216.7</ele>
        <time>2017-05-28T07:20:06.000Z</time>
      </trkpt>
      <trkpt lat="44.44506" lon="1.03004">
        <ele>216.7</ele>
        <time>2017-05-28T07:20:07.000Z</time>
      </trkpt>
      <trkpt lat="44.44503" lon="1.0301">
        <ele>216.8</ele>
        <time>2017-05-28T07:20:08.000Z</time>
      </trkpt>
      <trkpt lat="44.445" lon="1.03015">
        <ele>216.8</ele>
        <time>2017-05-28T07:20:09.000Z</time>
      </trkpt>
      <trkpt lat="44.44497" lon="1.03021">
        <ele>216.8</ele>
        <time>2017-05-28T07:20:10.000Z</time>
      </trkpt>
      <trkpt lat="44.44495" lon="1.03026">
        <ele>216.8</ele>
        <time>2017-05-28T07:20:11.000Z</time>
      </trkpt>
      <trkpt lat="44.44492" lon="1.03032">
        <ele>216.7</ele>
        <time>2017-05-28T07:20:12.000Z</time>
      </trkpt>
      <trkpt lat="44.44489" lon="1.03038">
        <ele>216.7</ele>
        <time>2017-05-28T07:20:13.000Z</time>
      </trkpt>
      <trkpt lat="44.44486" lon="1.03044">
        <ele>216.7</ele>
        <time>2017-05-28T07:20:14.000Z</time>
      </trkpt>
      <trkpt lat="44.44484" lon="1.0305">
        <ele>216.7</ele>
        <time>2017-05-28T07:20:15.000Z</time>
      </trkpt>
      <trkpt lat="44.44481" lon="1.03056">
        <ele>216.7</ele>
        <time>2017-05-28T07:20:16.000Z</time>
      </trkpt>
      <trkpt lat="44.44478" lon="1.03062">
        <ele>216.7</ele>
        <time>2017-05-28T07:20:17.000Z</time>
      </trkpt>
      <trkpt lat="44.44475" lon="1.03069">
        <ele>216.7</ele>
        <time>2017-05-28T07:20:18.000Z</time>
      </trkpt>
      <trkpt lat="44.44472" lon="1.03075">
        <ele>216.7</ele>
        <time>2017-05-28T07:20:19.000Z</time>
      </trkpt>
      <trkpt lat="44.44469" lon="1.03082">
        <ele>216.8</ele>
        <time>2017-05-28T07:20:20.000Z</time>
      </trkpt>
      <trkpt lat="44.44465" lon="1.03087">
        <ele>216.8</ele>
        <time>2017-05-28T07:20:21.000Z</time>
      </trkpt>
      <trkpt lat="44.4446" lon="1.03089">
        <ele>217</ele>
        <time>2017-05-28T07:20:22.000Z</time>
      </trkpt>
      <trkpt lat="44.44454" lon="1.03088">
        <ele>217.1</ele>
        <time>2017-05-28T07:20:23.000Z</time>
      </trkpt>
      <trkpt lat="44.44449" lon="1.03086">
        <ele>217.2</ele>
        <time>2017-05-28T07:20:24.000Z</time>
      </trkpt>
      <trkpt lat="44.44443" lon="1.03086">
        <ele>217.4</ele>
        <time>2017-05-28T07:20:25.000Z</time>
      </trkpt>
      <trkpt lat="44.44438" lon="1.03089">
        <ele>217.5</ele>
        <time>2017-05-28T07:20:26.000Z</time>
      </trkpt>
      <trkpt lat="44.44433" lon="1.03093">
        <ele>217.7</ele>
        <time>2017-05-28T07:20:27.000Z</time>
      </trkpt>
      <trkpt lat="44.44427" lon="1.03098">
        <ele>217.9</ele>
        <time>2017-05-28T07:20:28.000Z</time>
      </trkpt>
      <trkpt lat="44.44422" lon="1.03104">
        <ele>218.1</ele>
        <time>2017-05-28T07:20:29.000Z</time>
      </trkpt>
      <trkpt lat="44.44418" lon="1.0311">
        <ele>218.3</ele>
        <time>2017-05-28T07:20:30.000Z</time>
      </trkpt>
      <trkpt lat="44.44413" lon="1.03115">
        <ele>218.2</ele>
        <time>2017-05-28T07:20:31.000Z</time>
      </trkpt>
      <trkpt lat="44.44408" lon="1.03121">
        <ele>218</ele>
        <time>2017-05-28T07:20:32.000Z</time>
      </trkpt>
      <trkpt lat="44.44403" lon="1.03126">
        <ele>217.8</ele>
        <time>2017-05-28T07:20:33.000Z</time>
      </trkpt>
      <trkpt lat="44.44398" lon="1.03131">
        <ele>217.5</ele>
        <time>2017-05-28T07:20:34.000Z</time>
      </trkpt>
      <trkpt lat="44.44394" lon="1.03136">
        <ele>217.3</ele>
        <time>2017-05-28T07:20:35.000Z</time>
      </trkpt>
      <trkpt lat="44.44389" lon="1.0314">
        <ele>217</ele>
        <time>2017-05-28T07:20:36.000Z</time>
      </trkpt>
      <trkpt lat="44.44384" lon="1.03144">
        <ele>216.7</ele>
        <time>2017-05-28T07:20:37.000Z</time>
      </trkpt>
      <trkpt lat="44.44378" lon="1.03149">
        <ele>216.3</ele>
        <time>2017-05-28T07:20:38.000Z</time>
      </trkpt>
      <trkpt lat="44.44373" lon="1.03153">
        <ele>215.9</ele>
        <time>2017-05-28T07:20:39.000Z</time>
      </trkpt>
      <trkpt lat="44.44367" lon="1.03157">
        <ele>215.5</ele>
        <time>2017-05-28T07:20:40.000Z</time>
      </trkpt>
      <trkpt lat="44.44361" lon="1.03161">
        <ele>215.1</ele>
        <time>2017-05-28T07:20:41.000Z</time>
      </trkpt>
      <trkpt lat="44.44355" lon="1.03165">
        <ele>214.6</ele>
        <time>2017-05-28T07:20:42.000Z</time>
      </trkpt>
      <trkpt lat="44.44348" lon="1.0317">
        <ele>214.1</ele>
        <time>2017-05-28T07:20:43.000Z</time>
      </trkpt>
      <trkpt lat="44.44342" lon="1.03175">
        <ele>213.7</ele>
        <time>2017-05-28T07:20:44.000Z</time>
      </trkpt>
      <trkpt lat="44.44335" lon="1.0318">
        <ele>213.4</ele>
        <time>2017-05-28T07:20:45.000Z</time>
      </trkpt>
      <trkpt lat="44.44327" lon="1.03185">
        <ele>213.1</ele>
        <time>2017-05-28T07:20:46.000Z</time>
      </trkpt>
      <trkpt lat="44.4432" lon="1.0319">
        <ele>212.9</ele>
        <time>2017-05-28T07:20:47.000Z</time>
      </trkpt>
      <trkpt lat="44.44313" lon="1.03195">
        <ele>212.7</ele>
        <time>2017-05-28T07:20:48.000Z</time>
      </trkpt>
      <trkpt lat="44.44306" lon="1.032">
        <ele>212.5</ele>
        <time>2017-05-28T07:20:49.000Z</time>
      </trkpt>
      <trkpt lat="44.44299" lon="1.03206">
        <ele>212.3</ele>
        <time>2017-05-28T07:20:50.000Z</time>
      </trkpt>
      <trkpt lat="44.44292" lon="1.03211">
        <ele>212.1</ele>
        <time>2017-05-28T07:20:51.000Z</time>
      </trkpt>
      <trkpt lat="44.44286" lon="1.03216">
        <ele>211.9</ele>
        <time>2017-05-28T07:20:52.000Z</time>
      </trkpt>
      <trkpt lat="44.44279" lon="1.03221">
        <ele>211.7</ele>
        <time>2017-05-28T07:20:53.000Z</time>
      </trkpt>
      <trkpt lat="44.44273" lon="1.03226">
        <ele>211.5</ele>
        <time>2017-05-28T07:20:54.000Z</time>
      </trkpt>
      <trkpt lat="44.44266" lon="1.03231">
        <ele>211.3</ele>
        <time>2017-05-28T07:20:55.000Z</time>
      </trkpt>
      <trkpt lat="44.44259" lon="1.03235">
        <ele>211.1</ele>
        <time>2017-05-28T07:20:56.000Z</time>
      </trkpt>
      <trkpt lat="44.44253" lon="1.03239">
        <ele>210.9</ele>
        <time>2017-05-28T07:20:57.000Z</time>
      </trkpt>
      <trkpt lat="44.44246" lon="1.03242">
        <ele>210.4</ele>
        <time>2017-05-28T07:20:58.000Z</time>
      </trkpt>
      <trkpt lat="44.44239" lon="1.03245">
        <ele>209.8</ele>
        <time>2017-05-28T07:20:59.000Z</time>
      </trkpt>
      <trkpt lat="44.44231" lon="1.03248">
        <ele>209.1</ele>
        <time>2017-05-28T07:21:00.000Z</time>
      </trkpt>
      <trkpt lat="44.44223" lon="1.0325">
        <ele>208.4</ele>
        <time>2017-05-28T07:21:01.000Z</time>
      </trkpt>
      <trkpt lat="44.44215" lon="1.03251">
        <ele>207.7</ele>
        <time>2017-05-28T07:21:02.000Z</time>
      </trkpt>
      <trkpt lat="44.44207" lon="1.03252">
        <ele>207</ele>
        <time>2017-05-28T07:21:03.000Z</time>
      </trkpt>
      <trkpt lat="44.44198" lon="1.03253">
        <ele>206.3</ele>
        <time>2017-05-28T07:21:04.000Z</time>
      </trkpt>
      <trkpt lat="44.44189" lon="1.03255">
        <ele>205.6</ele>
        <time>2017-05-28T07:21:05.000Z</time>
      </trkpt>
      <trkpt lat="44.4418" lon="1.03258">
        <ele>205.1</ele>
        <time>2017-05-28T07:21:06.000Z</time>
      </trkpt>
      <trkpt lat="44.4417" lon="1.0326">
        <ele>204.4</ele>
        <time>2017-05-28T07:21:07.000Z</time>
      </trkpt>
      <trkpt lat="44.4416" lon="1.03262">
        <ele>204.1</ele>
        <time>2017-05-28T07:21:08.000Z</time>
      </trkpt>
      <trkpt lat="44.4415" lon="1.03261">
        <ele>203.7</ele>
        <time>2017-05-28T07:21:09.000Z</time>
      </trkpt>
      <trkpt lat="44.4414" lon="1.03258">
        <ele>203.1</ele>
        <time>2017-05-28T07:21:10.000Z</time>
      </trkpt>
      <trkpt lat="44.44131" lon="1.03256">
        <ele>202.6</ele>
        <time>2017-05-28T07:21:11.000Z</time>
      </trkpt>
      <trkpt lat="44.44121" lon="1.03253">
        <ele>202.2</ele>
        <time>2017-05-28T07:21:12.000Z</time>
      </trkpt>
      <trkpt lat="44.44112" lon="1.03251">
        <ele>201.8</ele>
        <time>2017-05-28T07:21:13.000Z</time>
      </trkpt>
      <trkpt lat="44.44104" lon="1.0325">
        <ele>201.5</ele>
        <time>2017-05-28T07:21:14.000Z</time>
      </trkpt>
      <trkpt lat="44.44096" lon="1.03249">
        <ele>201.3</ele>
        <time>2017-05-28T07:21:15.000Z</time>
      </trkpt>
      <trkpt lat="44.44089" lon="1.0325">
        <ele>201.1</ele>
        <time>2017-05-28T07:21:16.000Z</time>
      </trkpt>
      <trkpt lat="44.44082" lon="1.03252">
        <ele>201.2</ele>
        <time>2017-05-28T07:21:17.000Z</time>
      </trkpt>
      <trkpt lat="44.44075" lon="1.03254">
        <ele>201.9</ele>
        <time>2017-05-28T07:21:18.000Z</time>
      </trkpt>
      <trkpt lat="44.44069" lon="1.03257">
        <ele>202.5</ele>
        <time>2017-05-28T07:21:19.000Z</time>
      </trkpt>
      <trkpt lat="44.44061" lon="1.03259">
        <ele>203.1</ele>
        <time>2017-05-28T07:21:20.000Z</time>
      </trkpt>
      <trkpt lat="44.44054" lon="1.0326">
        <ele>203.7</ele>
        <time>2017-05-28T07:21:21.000Z</time>
      </trkpt>
      <trkpt lat="44.44047" lon="1.0326">
        <ele>204.2</ele>
        <time>2017-05-28T07:21:22.000Z</time>
      </trkpt>
      <trkpt lat="44.44042" lon="1.03258">
        <ele>204.6</ele>
        <time>2017-05-28T07:21:23.000Z</time>
      </trkpt>
      <trkpt lat="44.44037" lon="1.03255">
        <ele>204.9</ele>
        <time>2017-05-28T07:21:24.000Z</time>
      </trkpt>
      <trkpt lat="44.44033" lon="1.03252">
        <ele>205.2</ele>
        <time>2017-05-28T07:21:25.000Z</time>
      </trkpt>
      <trkpt lat="44.44029" lon="1.03248">
        <ele>205.5</ele>
        <time>2017-05-28T07:21:26.000Z</time>
      </trkpt>
      <trkpt lat="44.44026" lon="1.03243">
        <ele>205.8</ele>
        <time>2017-05-28T07:21:27.000Z</time>
      </trkpt>
      <trkpt lat="44.44022" lon="1.03239">
        <ele>206.1</ele>
        <time>2017-05-28T07:21:28.000Z</time>
      </trkpt>
      <trkpt lat="44.44019" lon="1.03234">
        <ele>206.4</ele>
        <time>2017-05-28T07:21:29.000Z</time>
      </trkpt>
      <trkpt lat="44.44016" lon="1.03229">
        <ele>206.6</ele>
        <time>2017-05-28T07:21:30.000Z</time>
      </trkpt>
      <trkpt lat="44.44013" lon="1.03224">
        <ele>206.9</ele>
        <time>2017-05-28T07:21:31.000Z</time>
      </trkpt>
      <trkpt lat="44.4401" lon="1.03219">
        <ele>207.2</ele>
        <time>2017-05-28T07:21:32.000Z</time>
      </trkpt>
      <trkpt lat="44.44007" lon="1.03214">
        <ele>207.4</ele>
        <time>2017-05-28T07:21:33.000Z</time>
      </trkpt>
      <trkpt lat="44.44004" lon="1.0321">
        <ele>207.7</ele>
        <time>2017-05-28T07:21:34.000Z</time>
      </trkpt>
      <trkpt lat="44.44001" lon="1.03207">
        <ele>207.9</ele>
        <time>2017-05-28T07:21:35.000Z</time>
      </trkpt>
      <trkpt lat="44.43999" lon="1.03205">
        <ele>208.1</ele>
        <time>2017-05-28T07:21:36.000Z</time>
      </trkpt>
      <trkpt lat="44.43996" lon="1.03204">
        <ele>208.3</ele>
        <time>2017-05-28T07:21:37.000Z</time>
      </trkpt>
      <trkpt lat="44.43994" lon="1.03204">
        <ele>208.5</ele>
        <time>2017-05-28T07:21:38.000Z</time>
      </trkpt>
      <trkpt lat="44.43992" lon="1.03205">
        <ele>208.7</ele>
        <time>2017-05-28T07:21:39.000Z</time>
      </trkpt>
      <trkpt lat="44.43989" lon="1.03207">
        <ele>208.9</ele>
        <time>2017-05-28T07:21:40.000Z</time>
      </trkpt>
      <trkpt lat="44.43987" lon="1.03208">
        <ele>209.1</ele>
        <time>2017-05-28T07:21:41.000Z</time>
      </trkpt>
      <trkpt lat="44.43984" lon="1.0321">
        <ele>209.2</ele>
        <time>2017-05-28T07:21:42.000Z</time>
      </trkpt>
      <trkpt lat="44.43981" lon="1.03211">
        <ele>209.4</ele>
        <time>2017-05-28T07:21:43.000Z</time>
      </trkpt>
      <trkpt lat="44.43978" lon="1.03213">
        <ele>209.6</ele>
        <time>2017-05-28T07:21:44.000Z</time>
      </trkpt>
      <trkpt lat="44.43975" lon="1.03215">
        <ele>209.8</ele>
        <time>2017-05-28T07:21:45.000Z</time>
      </trkpt>
      <trkpt lat="44.43972" lon="1.03217">
        <ele>210</ele>
        <time>2017-05-28T07:21:46.000Z</time>
      </trkpt>
      <trkpt lat="44.4397" lon="1.03219">
        <ele>210.1</ele>
        <time>2017-05-28T07:21:47.000Z</time>
      </trkpt>
      <trkpt lat="44.43967" lon="1.03221">
        <ele>210.3</ele>
        <time>2017-05-28T07:21:48.000Z</time>
      </trkpt>
      <trkpt lat="44.43964" lon="1.03223">
        <ele>210.4</ele>
        <time>2017-05-28T07:21:49.000Z</time>
      </trkpt>
      <trkpt lat="44.43961" lon="1.03226">
        <ele>210.6</ele>
        <time>2017-05-28T07:21:50.000Z</time>
      </trkpt>
      <trkpt lat="44.43957" lon="1.03228">
        <ele>210.7</ele>
        <time>2017-05-28T07:21:51.000Z</time>
      </trkpt>
      <trkpt lat="44.43954" lon="1.0323">
        <ele>210.9</ele>
        <time>2017-05-28T07:21:52.000Z</time>
      </trkpt>
      <trkpt lat="44.4395" lon="1.03233">
        <ele>211</ele>
        <time>2017-05-28T07:21:53.000Z</time>
      </trkpt>
      <trkpt lat="44.43946" lon="1.03236">
        <ele>211.1</ele>
        <time>2017-05-28T07:21:54.000Z</time>
      </trkpt>
      <trkpt lat="44.43942" lon="1.03239">
        <ele>211.2</ele>
        <time>2017-05-28T07:21:55.000Z</time>
      </trkpt>
      <trkpt lat="44.43938" lon="1.03243">
        <ele>211.3</ele>
        <time>2017-05-28T07:21:56.000Z</time>
      </trkpt>
      <trkpt lat="44.43933" lon="1.03246">
        <ele>211.4</ele>
        <time>2017-05-28T07:21:57.000Z</time>
      </trkpt>
      <trkpt lat="44.43928" lon="1.0325">
        <ele>211.5</ele>
        <time>2017-05-28T07:21:58.000Z</time>
      </trkpt>
      <trkpt lat="44.43923" lon="1.03254">
        <ele>211.4</ele>
        <time>2017-05-28T07:21:59.000Z</time>
      </trkpt>
      <trkpt lat="44.43918" lon="1.03257">
        <ele>211.3</ele>
        <time>2017-05-28T07:22:00.000Z</time>
      </trkpt>
      <trkpt lat="44.43913" lon="1.03261">
        <ele>211.3</ele>
        <time>2017-05-28T07:22:01.000Z</time>
      </trkpt>
      <trkpt lat="44.43909" lon="1.03264">
        <ele>211.2</ele>
        <time>2017-05-28T07:22:02.000Z</time>
      </trkpt>
      <trkpt lat="44.43904" lon="1.03267">
        <ele>211.1</ele>
        <time>2017-05-28T07:22:03.000Z</time>
      </trkpt>
      <trkpt lat="44.439" lon="1.03271">
        <ele>211</ele>
        <time>2017-05-28T07:22:04.000Z</time>
      </trkpt>
      <trkpt lat="44.43895" lon="1.03274">
        <ele>210.8</ele>
        <time>2017-05-28T07:22:05.000Z</time>
      </trkpt>
      <trkpt lat="44.43891" lon="1.03278">
        <ele>210.7</ele>
        <time>2017-05-28T07:22:06.000Z</time>
      </trkpt>
      <trkpt lat="44.43886" lon="1.03283">
        <ele>210.4</ele>
        <time>2017-05-28T07:22:07.000Z</time>
      </trkpt>
      <trkpt lat="44.4388" lon="1.03288">
        <ele>210.1</ele>
        <time>2017-05-28T07:22:08.000Z</time>
      </trkpt>
      <trkpt lat="44.43874" lon="1.03294">
        <ele>209.8</ele>
        <time>2017-05-28T07:22:09.000Z</time>
      </trkpt>
      <trkpt lat="44.43868" lon="1.03301">
        <ele>209.3</ele>
        <time>2017-05-28T07:22:10.000Z</time>
      </trkpt>
      <trkpt lat="44.43862" lon="1.03308">
        <ele>208.9</ele>
        <time>2017-05-28T07:22:11.000Z</time>
      </trkpt>
      <trkpt lat="44.43856" lon="1.03314">
        <ele>208.4</ele>
        <time>2017-05-28T07:22:12.000Z</time>
      </trkpt>
      <trkpt lat="44.4385" lon="1.03321">
        <ele>207.9</ele>
        <time>2017-05-28T07:22:13.000Z</time>
      </trkpt>
      <trkpt lat="44.43845" lon="1.03327">
        <ele>207.4</ele>
        <time>2017-05-28T07:22:14.000Z</time>
      </trkpt>
      <trkpt lat="44.4384" lon="1.03332">
        <ele>206.9</ele>
        <time>2017-05-28T07:22:15.000Z</time>
      </trkpt>
      <trkpt lat="44.43835" lon="1.03338">
        <ele>206.9</ele>
        <time>2017-05-28T07:22:16.000Z</time>
      </trkpt>
      <trkpt lat="44.43831" lon="1.03344">
        <ele>207</ele>
        <time>2017-05-28T07:22:17.000Z</time>
      </trkpt>
      <trkpt lat="44.43827" lon="1.0335">
        <ele>207.1</ele>
        <time>2017-05-28T07:22:18.000Z</time>
      </trkpt>
      <trkpt lat="44.43824" lon="1.03356">
        <ele>207.3</ele>
        <time>2017-05-28T07:22:19.000Z</time>
      </trkpt>
      <trkpt lat="44.4382" lon="1.03362">
        <ele>207.5</ele>
        <time>2017-05-28T07:22:20.000Z</time>
      </trkpt>
      <trkpt lat="44.43817" lon="1.03367">
        <ele>207.7</ele>
        <time>2017-05-28T07:22:21.000Z</time>
      </trkpt>
      <trkpt lat="44.43814" lon="1.03373">
        <ele>207.9</ele>
        <time>2017-05-28T07:22:22.000Z</time>
      </trkpt>
      <trkpt lat="44.43812" lon="1.03378">
        <ele>208.1</ele>
        <time>2017-05-28T07:22:23.000Z</time>
      </trkpt>
      <trkpt lat="44.4381" lon="1.03382">
        <ele>208.3</ele>
        <time>2017-05-28T07:22:24.000Z</time>
      </trkpt>
      <trkpt lat="44.43808" lon="1.03387">
        <ele>208.5</ele>
        <time>2017-05-28T07:22:25.000Z</time>
      </trkpt>
      <trkpt lat="44.43806" lon="1.03391">
        <ele>208.7</ele>
        <time>2017-05-28T07:22:26.000Z</time>
      </trkpt>
      <trkpt lat="44.43804" lon="1.03396">
        <ele>208.9</ele>
        <time>2017-05-28T07:22:27.000Z</time>
      </trkpt>
      <trkpt lat="44.43802" lon="1.034">
        <ele>209.1</ele>
        <time>2017-05-28T07:22:28.000Z</time>
      </trkpt>
      <trkpt lat="44.438" lon="1.03404">
        <ele>209.4</ele>
        <time>2017-05-28T07:22:29.000Z</time>
      </trkpt>
      <trkpt lat="44.43797" lon="1.03408">
        <ele>209.7</ele>
        <time>2017-05-28T07:22:30.000Z</time>
      </trkpt>
      <trkpt lat="44.43795" lon="1.03412">
        <ele>210.1</ele>
        <time>2017-05-28T07:22:31.000Z</time>
      </trkpt>
      <trkpt lat="44.43792" lon="1.03416">
        <ele>210.5</ele>
        <time>2017-05-28T07:22:32.000Z</time>
      </trkpt>
      <trkpt lat="44.43789" lon="1.0342">
        <ele>210.9</ele>
        <time>2017-05-28T07:22:33.000Z</time>
      </trkpt>
      <trkpt lat="44.43786" lon="1.03424">
        <ele>211.3</ele>
        <time>2017-05-28T07:22:34.000Z</time>
      </trkpt>
      <trkpt lat="44.43784" lon="1.03428">
        <ele>211.8</ele>
        <time>2017-05-28T07:22:35.000Z</time>
      </trkpt>
      <trkpt lat="44.43781" lon="1.03432">
        <ele>212.2</ele>
        <time>2017-05-28T07:22:36.000Z</time>
      </trkpt>
      <trkpt lat="44.43779" lon="1.03435">
        <ele>212.5</ele>
        <time>2017-05-28T07:22:37.000Z</time>
      </trkpt>
      <trkpt lat="44.43776" lon="1.03439">
        <ele>212.9</ele>
        <time>2017-05-28T07:22:38.000Z</time>
      </trkpt>
      <trkpt lat="44.43774" lon="1.03442">
        <ele>213.2</ele>
        <time>2017-05-28T07:22:39.000Z</time>
      </trkpt>
      <trkpt lat="44.43772" lon="1.03445">
        <ele>213.5</ele>
        <time>2017-05-28T07:22:40.000Z</time>
      </trkpt>
      <trkpt lat="44.4377" lon="1.03447">
        <ele>213.8</ele>
        <time>2017-05-28T07:22:41.000Z</time>
      </trkpt>
      <trkpt lat="44.43768" lon="1.0345">
        <ele>214.1</ele>
        <time>2017-05-28T07:22:42.000Z</time>
      </trkpt>
      <trkpt lat="44.43765" lon="1.03453">
        <ele>214.4</ele>
        <time>2017-05-28T07:22:43.000Z</time>
      </trkpt>
      <trkpt lat="44.43763" lon="1.03456">
        <ele>214.7</ele>
        <time>2017-05-28T07:22:44.000Z</time>
      </trkpt>
      <trkpt lat="44.43761" lon="1.0346">
        <ele>215</ele>
        <time>2017-05-28T07:22:45.000Z</time>
      </trkpt>
      <trkpt lat="44.43758" lon="1.03464">
        <ele>215.4</ele>
        <time>2017-05-28T07:22:46.000Z</time>
      </trkpt>
      <trkpt lat="44.43756" lon="1.03468">
        <ele>215.7</ele>
        <time>2017-05-28T07:22:47.000Z</time>
      </trkpt>
      <trkpt lat="44.43753" lon="1.03472">
        <ele>216</ele>
        <time>2017-05-28T07:22:48.000Z</time>
      </trkpt>
      <trkpt lat="44.43751" lon="1.03476">
        <ele>216.3</ele>
        <time>2017-05-28T07:22:49.000Z</time>
      </trkpt>
      <trkpt lat="44.43748" lon="1.0348">
        <ele>216.5</ele>
        <time>2017-05-28T07:22:50.000Z</time>
      </trkpt>
      <trkpt lat="44.43746" lon="1.03483">
        <ele>216.7</ele>
        <time>2017-05-28T07:22:51.000Z</time>
      </trkpt>
      <trkpt lat="44.43743" lon="1.03487">
        <ele>216.9</ele>
        <time>2017-05-28T07:22:52.000Z</time>
      </trkpt>
      <trkpt lat="44.43741" lon="1.03491">
        <ele>217.1</ele>
        <time>2017-05-28T07:22:53.000Z</time>
      </trkpt>
      <trkpt lat="44.43738" lon="1.03494">
        <ele>217.3</ele>
        <time>2017-05-28T07:22:54.000Z</time>
      </trkpt>
      <trkpt lat="44.43735" lon="1.03498">
        <ele>217.5</ele>
        <time>2017-05-28T07:22:55.000Z</time>
      </trkpt>
      <trkpt lat="44.43733" lon="1.03501">
        <ele>217.6</ele>
        <time>2017-05-28T07:22:56.000Z</time>
      </trkpt>
      <trkpt lat="44.4373" lon="1.03504">
        <ele>217.6</ele>
        <time>2017-05-28T07:22:57.000Z</time>
      </trkpt>
      <trkpt lat="44.43727" lon="1.03507">
        <ele>217.6</ele>
        <time>2017-05-28T07:22:58.000Z</time>
      </trkpt>
      <trkpt lat="44.43725" lon="1.0351">
        <ele>217.7</ele>
        <time>2017-05-28T07:22:59.000Z</time>
      </trkpt>
      <trkpt lat="44.43722" lon="1.03513">
        <ele>217.7</ele>
        <time>2017-05-28T07:23:00.000Z</time>
      </trkpt>
      <trkpt lat="44.4372" lon="1.03516">
        <ele>217.7</ele>
        <time>2017-05-28T07:23:01.000Z</time>
      </trkpt>
      <trkpt lat="44.43718" lon="1.03519">
        <ele>217.8</ele>
        <time>2017-05-28T07:23:02.000Z</time>
      </trkpt>
      <trkpt lat="44.43715" lon="1.03521">
        <ele>217.8</ele>
        <time>2017-05-28T07:23:03.000Z</time>
      </trkpt>
      <trkpt lat="44.43713" lon="1.03524">
        <ele>217.9</ele>
        <time>2017-05-28T07:23:04.000Z</time>
      </trkpt>
      <trkpt lat="44.4371" lon="1.03527">
        <ele>217.9</ele>
        <time>2017-05-28T07:23:05.000Z</time>
      </trkpt>
      <trkpt lat="44.43708" lon="1.03529">
        <ele>218</ele>
        <time>2017-05-28T07:23:06.000Z</time>
      </trkpt>
      <trkpt lat="44.43705" lon="1.03533">
        <ele>218.1</ele>
        <time>2017-05-28T07:23:07.000Z</time>
      </trkpt>
      <trkpt lat="44.43701" lon="1.03536">
        <ele>218.2</ele>
        <time>2017-05-28T07:23:08.000Z</time>
      </trkpt>
      <trkpt lat="44.43698" lon="1.03539">
        <ele>218.3</ele>
        <time>2017-05-28T07:23:09.000Z</time>
      </trkpt>
      <trkpt lat="44.43695" lon="1.03542">
        <ele>218.5</ele>
        <time>2017-05-28T07:23:10.000Z</time>
      </trkpt>
      <trkpt lat="44.43692" lon="1.03545">
        <ele>218.6</ele>
        <time>2017-05-28T07:23:11.000Z</time>
      </trkpt>
      <trkpt lat="44.43688" lon="1.03548">
        <ele>218.8</ele>
        <time>2017-05-28T07:23:12.000Z</time>
      </trkpt>
      <trkpt lat="44.43685" lon="1.0355">
        <ele>219</ele>
        <time>2017-05-28T07:23:13.000Z</time>
      </trkpt>
      <trkpt lat="44.43681" lon="1.03553">
        <ele>219.2</ele>
        <time>2017-05-28T07:23:14.000Z</time>
      </trkpt>
      <trkpt lat="44.43677" lon="1.03555">
        <ele>219.4</ele>
        <time>2017-05-28T07:23:15.000Z</time>
      </trkpt>
      <trkpt lat="44.43673" lon="1.03558">
        <ele>219.6</ele>
        <time>2017-05-28T07:23:16.000Z</time>
      </trkpt>
      <trkpt lat="44.43669" lon="1.0356">
        <ele>219.8</ele>
        <time>2017-05-28T07:23:17.000Z</time>
      </trkpt>
      <trkpt lat="44.43665" lon="1.03563">
        <ele>220</ele>
        <time>2017-05-28T07:23:18.000Z</time>
      </trkpt>
      <trkpt lat="44.43661" lon="1.03565">
        <ele>220</ele>
        <time>2017-05-28T07:23:19.000Z</time>
      </trkpt>
      <trkpt lat="44.43657" lon="1.03568">
        <ele>220</ele>
        <time>2017-05-28T07:23:20.000Z</time>
      </trkpt>
      <trkpt lat="44.43652" lon="1.0357">
        <ele>220.1</ele>
        <time>2017-05-28T07:23:21.000Z</time>
      </trkpt>
      <trkpt lat="44.43648" lon="1.03573">
        <ele>220.1</ele>
        <time>2017-05-28T07:23:22.000Z</time>
      </trkpt>
      <trkpt lat="44.43643" lon="1.03576">
        <ele>220.2</ele>
        <time>2017-05-28T07:23:23.000Z</time>
      </trkpt>
      <trkpt lat="44.43639" lon="1.03579">
        <ele>220.3</ele>
        <time>2017-05-28T07:23:24.000Z</time>
      </trkpt>
      <trkpt lat="44.43635" lon="1.03582">
        <ele>220.4</ele>
        <time>2017-05-28T07:23:25.000Z</time>
      </trkpt>
      <trkpt lat="44.4363" lon="1.03585">
        <ele>220.3</ele>
        <time>2017-05-28T07:23:26.000Z</time>
      </trkpt>
      <trkpt lat="44.43626" lon="1.03589">
        <ele>220.2</ele>
        <time>2017-05-28T07:23:27.000Z</time>
      </trkpt>
      <trkpt lat="44.43622" lon="1.03593">
        <ele>220.1</ele>
        <time>2017-05-28T07:23:28.000Z</time>
      </trkpt>
      <trkpt lat="44.43618" lon="1.03597">
        <ele>220</ele>
        <time>2017-05-28T07:23:29.000Z</time>
      </trkpt>
      <trkpt lat="44.43614" lon="1.03601">
        <ele>219.8</ele>
        <time>2017-05-28T07:23:30.000Z</time>
      </trkpt>
      <trkpt lat="44.43611" lon="1.03606">
        <ele>219.7</ele>
        <time>2017-05-28T07:23:31.000Z</time>
      </trkpt>
      <trkpt lat="44.43608" lon="1.03611">
        <ele>219.5</ele>
        <time>2017-05-28T07:23:32.000Z</time>
      </trkpt>
      <trkpt lat="44.43605" lon="1.03616">
        <ele>219.3</ele>
        <time>2017-05-28T07:23:33.000Z</time>
      </trkpt>
      <trkpt lat="44.43604" lon="1.03622">
        <ele>219.1</ele>
        <time>2017-05-28T07:23:34.000Z</time>
      </trkpt>
      <trkpt lat="44.43605" lon="1.03628">
        <ele>218.9</ele>
        <time>2017-05-28T07:23:35.000Z</time>
      </trkpt>
      <trkpt lat="44.43606" lon="1.03634">
        <ele>218.6</ele>
        <time>2017-05-28T07:23:36.000Z</time>
      </trkpt>
      <trkpt lat="44.43609" lon="1.0364">
        <ele>218.3</ele>
        <time>2017-05-28T07:23:37.000Z</time>
      </trkpt>
      <trkpt lat="44.43611" lon="1.03647">
        <ele>217.9</ele>
        <time>2017-05-28T07:23:38.000Z</time>
      </trkpt>
      <trkpt lat="44.43613" lon="1.03656">
        <ele>217.4</ele>
        <time>2017-05-28T07:23:39.000Z</time>
      </trkpt>
      <trkpt lat="44.43614" lon="1.03666">
        <ele>217</ele>
        <time>2017-05-28T07:23:40.000Z</time>
      </trkpt>
      <trkpt lat="44.43614" lon="1.03676">
        <ele>216.7</ele>
        <time>2017-05-28T07:23:41.000Z</time>
      </trkpt>
      <trkpt lat="44.43613" lon="1.03684">
        <ele>216.6</ele>
        <time>2017-05-28T07:23:42.000Z</time>
      </trkpt>
      <trkpt lat="44.43613" lon="1.03691">
        <ele>216.5</ele>
        <time>2017-05-28T07:23:43.000Z</time>
      </trkpt>
      <trkpt lat="44.43613" lon="1.03695">
        <ele>216.4</ele>
        <time>2017-05-28T07:23:44.000Z</time>
      </trkpt>
      <trkpt lat="44.43612" lon="1.03699">
        <ele>216.3</ele>
        <time>2017-05-28T07:23:45.000Z</time>
      </trkpt>
      <trkpt lat="44.43612" lon="1.03703">
        <ele>216.3</ele>
        <time>2017-05-28T07:23:46.000Z</time>
      </trkpt>
      <trkpt lat="44.43612" lon="1.03708">
        <ele>216.2</ele>
        <time>2017-05-28T07:23:47.000Z</time>
      </trkpt>
      <trkpt lat="44.4361" lon="1.03713">
        <ele>216.1</ele>
        <time>2017-05-28T07:23:48.000Z</time>
      </trkpt>
      <trkpt lat="44.43609" lon="1.03718">
        <ele>216</ele>
        <time>2017-05-28T07:23:49.000Z</time>
      </trkpt>
      <trkpt lat="44.43606" lon="1.03724">
        <ele>215.9</ele>
        <time>2017-05-28T07:23:50.000Z</time>
      </trkpt>
      <trkpt lat="44.43604" lon="1.03729">
        <ele>215.7</ele>
        <time>2017-05-28T07:23:51.000Z</time>
      </trkpt>
      <trkpt lat="44.43601" lon="1.03735">
        <ele>215.6</ele>
        <time>2017-05-28T07:23:52.000Z</time>
      </trkpt>
      <trkpt lat="44.43598" lon="1.03741">
        <ele>215.4</ele>
        <time>2017-05-28T07:23:53.000Z</time>
      </trkpt>
      <trkpt lat="44.43595" lon="1.03747">
        <ele>215.2</ele>
        <time>2017-05-28T07:23:54.000Z</time>
      </trkpt>
      <trkpt lat="44.43592" lon="1.03753">
        <ele>215.2</ele>
        <time>2017-05-28T07:23:55.000Z</time>
      </trkpt>
      <trkpt lat="44.43589" lon="1.0376">
        <ele>215.3</ele>
        <time>2017-05-28T07:23:56.000Z</time>
      </trkpt>
      <trkpt lat="44.43586" lon="1.03766">
        <ele>215.4</ele>
        <time>2017-05-28T07:23:57.000Z</time>
      </trkpt>
      <trkpt lat="44.43583" lon="1.03773">
        <ele>215.6</ele>
        <time>2017-05-28T07:23:58.000Z</time>
      </trkpt>
      <trkpt lat="44.4358" lon="1.03779">
        <ele>216</ele>
        <time>2017-05-28T07:23:59.000Z</time>
      </trkpt>
      <trkpt lat="44.43577" lon="1.03786">
        <ele>216.4</ele>
        <time>2017-05-28T07:24:00.000Z</time>
      </trkpt>
      <trkpt lat="44.43574" lon="1.03792">
        <ele>216.8</ele>
        <time>2017-05-28T07:24:01.000Z</time>
      </trkpt>
      <trkpt lat="44.43571" lon="1.03798">
        <ele>217.2</ele>
        <time>2017-05-28T07:24:02.000Z</time>
      </trkpt>
      <trkpt lat="44.43567" lon="1.03803">
        <ele>217.6</ele>
        <time>2017-05-28T07:24:03.000Z</time>
      </trkpt>
      <trkpt lat="44.43563" lon="1.03808">
        <ele>218</ele>
        <time>2017-05-28T07:24:04.000Z</time>
      </trkpt>
      <trkpt lat="44.43558" lon="1.03811">
        <ele>218.4</ele>
        <time>2017-05-28T07:24:05.000Z</time>
      </trkpt>
      <trkpt lat="44.43554" lon="1.03814">
        <ele>218.8</ele>
        <time>2017-05-28T07:24:06.000Z</time>
      </trkpt>
      <trkpt lat="44.43549" lon="1.03816">
        <ele>219.2</ele>
        <time>2017-05-28T07:24:07.000Z</time>
      </trkpt>
      <trkpt lat="44.43545" lon="1.03818">
        <ele>219.6</ele>
        <time>2017-05-28T07:24:08.000Z</time>
      </trkpt>
      <trkpt lat="44.43541" lon="1.0382">
        <ele>219.9</ele>
        <time>2017-05-28T07:24:09.000Z</time>
      </trkpt>
      <trkpt lat="44.43537" lon="1.03822">
        <ele>220.2</ele>
        <time>2017-05-28T07:24:10.000Z</time>
      </trkpt>
      <trkpt lat="44.43533" lon="1.03825">
        <ele>220.5</ele>
        <time>2017-05-28T07:24:11.000Z</time>
      </trkpt>
      <trkpt lat="44.4353" lon="1.03827">
        <ele>220.8</ele>
        <time>2017-05-28T07:24:12.000Z</time>
      </trkpt>
      <trkpt lat="44.43526" lon="1.03829">
        <ele>221.1</ele>
        <time>2017-05-28T07:24:13.000Z</time>
      </trkpt>
      <trkpt lat="44.43522" lon="1.03831">
        <ele>221.4</ele>
        <time>2017-05-28T07:24:14.000Z</time>
      </trkpt>
      <trkpt lat="44.43519" lon="1.03834">
        <ele>221.7</ele>
        <time>2017-05-28T07:24:15.000Z</time>
      </trkpt>
      <trkpt lat="44.43515" lon="1.03836">
        <ele>221.8</ele>
        <time>2017-05-28T07:24:16.000Z</time>
      </trkpt>
      <trkpt lat="44.43511" lon="1.03838">
        <ele>222</ele>
        <time>2017-05-28T07:24:17.000Z</time>
      </trkpt>
      <trkpt lat="44.43507" lon="1.0384">
        <ele>222.1</ele>
        <time>2017-05-28T07:24:18.000Z</time>
      </trkpt>
      <trkpt lat="44.43504" lon="1.03842">
        <ele>222.2</ele>
        <time>2017-05-28T07:24:19.000Z</time>
      </trkpt>
      <trkpt lat="44.435" lon="1.03844">
        <ele>222.4</ele>
        <time>2017-05-28T07:24:20.000Z</time>
      </trkpt>
      <trkpt lat="44.43496" lon="1.03846">
        <ele>222.5</ele>
        <time>2017-05-28T07:24:21.000Z</time>
      </trkpt>
      <trkpt lat="44.43493" lon="1.03848">
        <ele>222.7</ele>
        <time>2017-05-28T07:24:22.000Z</time>
      </trkpt>
      <trkpt lat="44.43489" lon="1.0385">
        <ele>222.8</ele>
        <time>2017-05-28T07:24:23.000Z</time>
      </trkpt>
      <trkpt lat="44.43486" lon="1.03852">
        <ele>222.9</ele>
        <time>2017-05-28T07:24:24.000Z</time>
      </trkpt>
      <trkpt lat="44.43482" lon="1.03855">
        <ele>223.1</ele>
        <time>2017-05-28T07:24:25.000Z</time>
      </trkpt>
      <trkpt lat="44.43479" lon="1.03857">
        <ele>223.2</ele>
        <time>2017-05-28T07:24:26.000Z</time>
      </trkpt>
      <trkpt lat="44.43475" lon="1.03859">
        <ele>223.3</ele>
        <time>2017-05-28T07:24:27.000Z</time>
      </trkpt>
      <trkpt lat="44.43472" lon="1.03861">
        <ele>223.4</ele>
        <time>2017-05-28T07:24:28.000Z</time>
      </trkpt>
      <trkpt lat="44.43468" lon="1.03863">
        <ele>223.5</ele>
        <time>2017-05-28T07:24:29.000Z</time>
      </trkpt>
      <trkpt lat="44.43464" lon="1.03865">
        <ele>223.6</ele>
        <time>2017-05-28T07:24:30.000Z</time>
      </trkpt>
      <trkpt lat="44.4346" lon="1.03867">
        <ele>223.7</ele>
        <time>2017-05-28T07:24:31.000Z</time>
      </trkpt>
      <trkpt lat="44.43457" lon="1.03869">
        <ele>223.8</ele>
        <time>2017-05-28T07:24:32.000Z</time>
      </trkpt>
      <trkpt lat="44.43453" lon="1.03871">
        <ele>223.9</ele>
        <time>2017-05-28T07:24:33.000Z</time>
      </trkpt>
      <trkpt lat="44.43449" lon="1.03873">
        <ele>224</ele>
        <time>2017-05-28T07:24:34.000Z</time>
      </trkpt>
      <trkpt lat="44.43445" lon="1.03875">
        <ele>224.1</ele>
        <time>2017-05-28T07:24:35.000Z</time>
      </trkpt>
      <trkpt lat="44.43442" lon="1.03877">
        <ele>224.2</ele>
        <time>2017-05-28T07:24:36.000Z</time>
      </trkpt>
      <trkpt lat="44.43438" lon="1.03879">
        <ele>224.2</ele>
        <time>2017-05-28T07:24:37.000Z</time>
      </trkpt>
      <trkpt lat="44.43435" lon="1.03881">
        <ele>224.3</ele>
        <time>2017-05-28T07:24:38.000Z</time>
      </trkpt>
      <trkpt lat="44.43432" lon="1.03883">
        <ele>224.3</ele>
        <time>2017-05-28T07:24:39.000Z</time>
      </trkpt>
      <trkpt lat="44.43428" lon="1.03885">
        <ele>224.4</ele>
        <time>2017-05-28T07:24:40.000Z</time>
      </trkpt>
      <trkpt lat="44.43425" lon="1.03886">
        <ele>224.4</ele>
        <time>2017-05-28T07:24:41.000Z</time>
      </trkpt>
      <trkpt lat="44.43422" lon="1.03888">
        <ele>224.4</ele>
        <time>2017-05-28T07:24:42.000Z</time>
      </trkpt>
      <trkpt lat="44.43419" lon="1.0389">
        <ele>224.4</ele>
        <time>2017-05-28T07:24:43.000Z</time>
      </trkpt>
      <trkpt lat="44.43415" lon="1.03892">
        <ele>224.4</ele>
        <time>2017-05-28T07:24:44.000Z</time>
      </trkpt>
      <trkpt lat="44.43412" lon="1.03894">
        <ele>224.2</ele>
        <time>2017-05-28T07:24:45.000Z</time>
      </trkpt>
      <trkpt lat="44.43409" lon="1.03897">
        <ele>224</ele>
        <time>2017-05-28T07:24:46.000Z</time>
      </trkpt>
      <trkpt lat="44.43405" lon="1.03899">
        <ele>223.8</ele>
        <time>2017-05-28T07:24:47.000Z</time>
      </trkpt>
      <trkpt lat="44.43402" lon="1.03901">
        <ele>223.6</ele>
        <time>2017-05-28T07:24:48.000Z</time>
      </trkpt>
      <trkpt lat="44.43398" lon="1.03904">
        <ele>223.4</ele>
        <time>2017-05-28T07:24:49.000Z</time>
      </trkpt>
      <trkpt lat="44.43395" lon="1.03906">
        <ele>223.2</ele>
        <time>2017-05-28T07:24:50.000Z</time>
      </trkpt>
      <trkpt lat="44.43391" lon="1.03908">
        <ele>223</ele>
        <time>2017-05-28T07:24:51.000Z</time>
      </trkpt>
      <trkpt lat="44.43388" lon="1.03911">
        <ele>222.9</ele>
        <time>2017-05-28T07:24:52.000Z</time>
      </trkpt>
      <trkpt lat="44.43384" lon="1.03913">
        <ele>222.7</ele>
        <time>2017-05-28T07:24:53.000Z</time>
      </trkpt>
      <trkpt lat="44.4338" lon="1.03916">
        <ele>222.5</ele>
        <time>2017-05-28T07:24:54.000Z</time>
      </trkpt>
      <trkpt lat="44.43377" lon="1.03918">
        <ele>222.5</ele>
        <time>2017-05-28T07:24:55.000Z</time>
      </trkpt>
      <trkpt lat="44.43373" lon="1.0392">
        <ele>222.5</ele>
        <time>2017-05-28T07:24:56.000Z</time>
      </trkpt>
      <trkpt lat="44.43369" lon="1.03923">
        <ele>222.5</ele>
        <time>2017-05-28T07:24:57.000Z</time>
      </trkpt>
      <trkpt lat="44.43366" lon="1.03925">
        <ele>222.5</ele>
        <time>2017-05-28T07:24:58.000Z</time>
      </trkpt>
      <trkpt lat="44.43362" lon="1.03928">
        <ele>222.5</ele>
        <time>2017-05-28T07:24:59.000Z</time>
      </trkpt>
      <trkpt lat="44.4336" lon="1.03932">
        <ele>222.5</ele>
        <time>2017-05-28T07:25:00.000Z</time>
      </trkpt>
      <trkpt lat="44.43359" lon="1.03936">
        <ele>222.5</ele>
        <time>2017-05-28T07:25:01.000Z</time>
      </trkpt>
      <trkpt lat="44.43359" lon="1.03941">
        <ele>222.4</ele>
        <time>2017-05-28T07:25:02.000Z</time>
      </trkpt>
      <trkpt lat="44.4336" lon="1.03946">
        <ele>222.3</ele>
        <time>2017-05-28T07:25:03.000Z</time>
      </trkpt>
      <trkpt lat="44.43362" lon="1.03951">
        <ele>222.3</ele>
        <time>2017-05-28T07:25:04.000Z</time>
      </trkpt>
      <trkpt lat="44.43363" lon="1.03957">
        <ele>222.2</ele>
        <time>2017-05-28T07:25:05.000Z</time>
      </trkpt>
      <trkpt lat="44.43365" lon="1.03963">
        <ele>222.1</ele>
        <time>2017-05-28T07:25:06.000Z</time>
      </trkpt>
      <trkpt lat="44.43366" lon="1.0397">
        <ele>222</ele>
        <time>2017-05-28T07:25:07.000Z</time>
      </trkpt>
      <trkpt lat="44.43368" lon="1.03976">
        <ele>221.9</ele>
        <time>2017-05-28T07:25:08.000Z</time>
      </trkpt>
      <trkpt lat="44.4337" lon="1.03983">
        <ele>221.8</ele>
        <time>2017-05-28T07:25:09.000Z</time>
      </trkpt>
      <trkpt lat="44.43371" lon="1.0399">
        <ele>221.7</ele>
        <time>2017-05-28T07:25:10.000Z</time>
      </trkpt>
      <trkpt lat="44.43373" lon="1.03997">
        <ele>221.6</ele>
        <time>2017-05-28T07:25:11.000Z</time>
      </trkpt>
      <trkpt lat="44.43375" lon="1.04004">
        <ele>221.5</ele>
        <time>2017-05-28T07:25:12.000Z</time>
      </trkpt>
      <trkpt lat="44.43377" lon="1.04011">
        <ele>221.6</ele>
        <time>2017-05-28T07:25:13.000Z</time>
      </trkpt>
      <trkpt lat="44.43379" lon="1.04017">
        <ele>221.6</ele>
        <time>2017-05-28T07:25:14.000Z</time>
      </trkpt>
      <trkpt lat="44.43382" lon="1.04024">
        <ele>221.7</ele>
        <time>2017-05-28T07:25:15.000Z</time>
      </trkpt>
      <trkpt lat="44.43384" lon="1.0403">
        <ele>221.8</ele>
        <time>2017-05-28T07:25:16.000Z</time>
      </trkpt>
      <trkpt lat="44.43387" lon="1.04036">
        <ele>221.9</ele>
        <time>2017-05-28T07:25:17.000Z</time>
      </trkpt>
      <trkpt lat="44.4339" lon="1.04042">
        <ele>222</ele>
        <time>2017-05-28T07:25:18.000Z</time>
      </trkpt>
      <trkpt lat="44.43392" lon="1.04048">
        <ele>222.2</ele>
        <time>2017-05-28T07:25:19.000Z</time>
      </trkpt>
      <trkpt lat="44.43395" lon="1.04054">
        <ele>222.4</ele>
        <time>2017-05-28T07:25:20.000Z</time>
      </trkpt>
      <trkpt lat="44.43398" lon="1.04059">
        <ele>222.6</ele>
        <time>2017-05-28T07:25:21.000Z</time>
      </trkpt>
      <trkpt lat="44.43402" lon="1.04064">
        <ele>222.8</ele>
        <time>2017-05-28T07:25:22.000Z</time>
      </trkpt>
      <trkpt lat="44.43405" lon="1.04069">
        <ele>223</ele>
        <time>2017-05-28T07:25:23.000Z</time>
      </trkpt>
      <trkpt lat="44.43407" lon="1.04073">
        <ele>223.2</ele>
        <time>2017-05-28T07:25:24.000Z</time>
      </trkpt>
      <trkpt lat="44.4341" lon="1.04078">
        <ele>223.5</ele>
        <time>2017-05-28T07:25:25.000Z</time>
      </trkpt>
      <trkpt lat="44.43411" lon="1.04083">
        <ele>223.7</ele>
        <time>2017-05-28T07:25:26.000Z</time>
      </trkpt>
      <trkpt lat="44.43412" lon="1.04088">
        <ele>223.9</ele>
        <time>2017-05-28T07:25:27.000Z</time>
      </trkpt>
      <trkpt lat="44.43411" lon="1.04093">
        <ele>224</ele>
        <time>2017-05-28T07:25:28.000Z</time>
      </trkpt>
      <trkpt lat="44.43409" lon="1.04097">
        <ele>224</ele>
        <time>2017-05-28T07:25:29.000Z</time>
      </trkpt>
      <trkpt lat="44.43406" lon="1.04101">
        <ele>224</ele>
        <time>2017-05-28T07:25:30.000Z</time>
      </trkpt>
      <trkpt lat="44.43402" lon="1.04105">
        <ele>223.9</ele>
        <time>2017-05-28T07:25:31.000Z</time>
      </trkpt>
      <trkpt lat="44.43398" lon="1.04108">
        <ele>223.9</ele>
        <time>2017-05-28T07:25:32.000Z</time>
      </trkpt>
      <trkpt lat="44.43394" lon="1.04111">
        <ele>223.8</ele>
        <time>2017-05-28T07:25:33.000Z</time>
      </trkpt>
      <trkpt lat="44.43389" lon="1.04114">
        <ele>223.8</ele>
        <time>2017-05-28T07:25:34.000Z</time>
      </trkpt>
      <trkpt lat="44.43384" lon="1.04118">
        <ele>223.7</ele>
        <time>2017-05-28T07:25:35.000Z</time>
      </trkpt>
      <trkpt lat="44.43378" lon="1.04121">
        <ele>223.7</ele>
        <time>2017-05-28T07:25:36.000Z</time>
      </trkpt>
      <trkpt lat="44.43373" lon="1.04125">
        <ele>223.7</ele>
        <time>2017-05-28T07:25:37.000Z</time>
      </trkpt>
      <trkpt lat="44.43368" lon="1.04129">
        <ele>223.7</ele>
        <time>2017-05-28T07:25:38.000Z</time>
      </trkpt>
      <trkpt lat="44.43362" lon="1.04132">
        <ele>223.7</ele>
        <time>2017-05-28T07:25:39.000Z</time>
      </trkpt>
      <trkpt lat="44.43356" lon="1.04136">
        <ele>223.7</ele>
        <time>2017-05-28T07:25:40.000Z</time>
      </trkpt>
      <trkpt lat="44.43351" lon="1.0414">
        <ele>223.8</ele>
        <time>2017-05-28T07:25:41.000Z</time>
      </trkpt>
      <trkpt lat="44.43346" lon="1.04143">
        <ele>223.9</ele>
        <time>2017-05-28T07:25:42.000Z</time>
      </trkpt>
      <trkpt lat="44.43341" lon="1.04146">
        <ele>223.9</ele>
        <time>2017-05-28T07:25:43.000Z</time>
      </trkpt>
      <trkpt lat="44.43336" lon="1.0415">
        <ele>224</ele>
        <time>2017-05-28T07:25:44.000Z</time>
      </trkpt>
      <trkpt lat="44.43331" lon="1.04152">
        <ele>224.3</ele>
        <time>2017-05-28T07:25:45.000Z</time>
      </trkpt>
      <trkpt lat="44.43327" lon="1.04155">
        <ele>224.8</ele>
        <time>2017-05-28T07:25:46.000Z</time>
      </trkpt>
      <trkpt lat="44.43323" lon="1.04158">
        <ele>225.3</ele>
        <time>2017-05-28T07:25:47.000Z</time>
      </trkpt>
      <trkpt lat="44.4332" lon="1.0416">
        <ele>225.7</ele>
        <time>2017-05-28T07:25:48.000Z</time>
      </trkpt>
      <trkpt lat="44.43317" lon="1.04162">
        <ele>226</ele>
        <time>2017-05-28T07:25:49.000Z</time>
      </trkpt>
      <trkpt lat="44.43315" lon="1.04164">
        <ele>226.4</ele>
        <time>2017-05-28T07:25:50.000Z</time>
      </trkpt>
      <trkpt lat="44.43313" lon="1.04166">
        <ele>226.7</ele>
        <time>2017-05-28T07:25:51.000Z</time>
      </trkpt>
      <trkpt lat="44.43312" lon="1.04169">
        <ele>226.9</ele>
        <time>2017-05-28T07:25:52.000Z</time>
      </trkpt>
      <trkpt lat="44.4331" lon="1.04171">
        <ele>227.1</ele>
        <time>2017-05-28T07:25:53.000Z</time>
      </trkpt>
      <trkpt lat="44.43309" lon="1.04174">
        <ele>227.3</ele>
        <time>2017-05-28T07:25:54.000Z</time>
      </trkpt>
      <trkpt lat="44.43308" lon="1.04177">
        <ele>227.4</ele>
        <time>2017-05-28T07:25:55.000Z</time>
      </trkpt>
      <trkpt lat="44.43308" lon="1.0418">
        <ele>227.6</ele>
        <time>2017-05-28T07:25:56.000Z</time>
      </trkpt>
      <trkpt lat="44.43307" lon="1.04183">
        <ele>227.7</ele>
        <time>2017-05-28T07:25:57.000Z</time>
      </trkpt>
      <trkpt lat="44.43307" lon="1.04186">
        <ele>227.8</ele>
        <time>2017-05-28T07:25:58.000Z</time>
      </trkpt>
      <trkpt lat="44.43307" lon="1.04188">
        <ele>227.9</ele>
        <time>2017-05-28T07:25:59.000Z</time>
      </trkpt>
      <trkpt lat="44.43308" lon="1.04191">
        <ele>227.9</ele>
        <time>2017-05-28T07:26:00.000Z</time>
      </trkpt>
      <trkpt lat="44.43308" lon="1.04193">
        <ele>228</ele>
        <time>2017-05-28T07:26:01.000Z</time>
      </trkpt>
      <trkpt lat="44.43308" lon="1.04196">
        <ele>228.1</ele>
        <time>2017-05-28T07:26:02.000Z</time>
      </trkpt>
      <trkpt lat="44.43308" lon="1.04199">
        <ele>228.2</ele>
        <time>2017-05-28T07:26:03.000Z</time>
      </trkpt>
      <trkpt lat="44.43308" lon="1.04202">
        <ele>228.3</ele>
        <time>2017-05-28T07:26:04.000Z</time>
      </trkpt>
      <trkpt lat="44.43307" lon="1.04205">
        <ele>228.4</ele>
        <time>2017-05-28T07:26:05.000Z</time>
      </trkpt>
      <trkpt lat="44.43307" lon="1.04208">
        <ele>228.6</ele>
        <time>2017-05-28T07:26:06.000Z</time>
      </trkpt>
      <trkpt lat="44.43306" lon="1.04211">
        <ele>228.7</ele>
        <time>2017-05-28T07:26:07.000Z</time>
      </trkpt>
      <trkpt lat="44.43305" lon="1.04214">
        <ele>228.9</ele>
        <time>2017-05-28T07:26:08.000Z</time>
      </trkpt>
      <trkpt lat="44.43304" lon="1.04217">
        <ele>229</ele>
        <time>2017-05-28T07:26:09.000Z</time>
      </trkpt>
      <trkpt lat="44.43303" lon="1.04219">
        <ele>229.2</ele>
        <time>2017-05-28T07:26:10.000Z</time>
      </trkpt>
      <trkpt lat="44.43302" lon="1.04222">
        <ele>229.4</ele>
        <time>2017-05-28T07:26:11.000Z</time>
      </trkpt>
      <trkpt lat="44.43301" lon="1.04224">
        <ele>229.5</ele>
        <time>2017-05-28T07:26:12.000Z</time>
      </trkpt>
      <trkpt lat="44.433" lon="1.04227">
        <ele>229.7</ele>
        <time>2017-05-28T07:26:13.000Z</time>
      </trkpt>
      <trkpt lat="44.43299" lon="1.04229">
        <ele>229.8</ele>
        <time>2017-05-28T07:26:14.000Z</time>
      </trkpt>
      <trkpt lat="44.43298" lon="1.04231">
        <ele>230</ele>
        <time>2017-05-28T07:26:15.000Z</time>
      </trkpt>
      <trkpt lat="44.43296" lon="1.04233">
        <ele>230.1</ele>
        <time>2017-05-28T07:26:16.000Z</time>
      </trkpt>
      <trkpt lat="44.43295" lon="1.04235">
        <ele>230.3</ele>
        <time>2017-05-28T07:26:17.000Z</time>
      </trkpt>
      <trkpt lat="44.43294" lon="1.04237">
        <ele>230.4</ele>
        <time>2017-05-28T07:26:18.000Z</time>
      </trkpt>
      <trkpt lat="44.43293" lon="1.04239">
        <ele>230.6</ele>
        <time>2017-05-28T07:26:19.000Z</time>
      </trkpt>
      <trkpt lat="44.43292" lon="1.0424">
        <ele>230.7</ele>
        <time>2017-05-28T07:26:20.000Z</time>
      </trkpt>
      <trkpt lat="44.4329" lon="1.04242">
        <ele>230.9</ele>
        <time>2017-05-28T07:26:21.000Z</time>
      </trkpt>
      <trkpt lat="44.43289" lon="1.04244">
        <ele>231</ele>
        <time>2017-05-28T07:26:22.000Z</time>
      </trkpt>
      <trkpt lat="44.43288" lon="1.04246">
        <ele>231.2</ele>
        <time>2017-05-28T07:26:23.000Z</time>
      </trkpt>
      <trkpt lat="44.43286" lon="1.04247">
        <ele>231.3</ele>
        <time>2017-05-28T07:26:24.000Z</time>
      </trkpt>
      <trkpt lat="44.43285" lon="1.04249">
        <ele>231.5</ele>
        <time>2017-05-28T07:26:25.000Z</time>
      </trkpt>
      <trkpt lat="44.43283" lon="1.04251">
        <ele>231.6</ele>
        <time>2017-05-28T07:26:26.000Z</time>
      </trkpt>
      <trkpt lat="44.43281" lon="1.04253">
        <ele>231.7</ele>
        <time>2017-05-28T07:26:27.000Z</time>
      </trkpt>
      <trkpt lat="44.4328" lon="1.04254">
        <ele>231.7</ele>
        <time>2017-05-28T07:26:28.000Z</time>
      </trkpt>
      <trkpt lat="44.43278" lon="1.04256">
        <ele>231.8</ele>
        <time>2017-05-28T07:26:29.000Z</time>
      </trkpt>
      <trkpt lat="44.43276" lon="1.04258">
        <ele>231.9</ele>
        <time>2017-05-28T07:26:30.000Z</time>
      </trkpt>
      <trkpt lat="44.43274" lon="1.04259">
        <ele>231.9</ele>
        <time>2017-05-28T07:26:31.000Z</time>
      </trkpt>
      <trkpt lat="44.43273" lon="1.04261">
        <ele>232</ele>
        <time>2017-05-28T07:26:32.000Z</time>
      </trkpt>
      <trkpt lat="44.43271" lon="1.04263">
        <ele>232.1</ele>
        <time>2017-05-28T07:26:33.000Z</time>
      </trkpt>
      <trkpt lat="44.43269" lon="1.04264">
        <ele>232.1</ele>
        <time>2017-05-28T07:26:34.000Z</time>
      </trkpt>
      <trkpt lat="44.43267" lon="1.04266">
        <ele>232.2</ele>
        <time>2017-05-28T07:26:35.000Z</time>
      </trkpt>
      <trkpt lat="44.43265" lon="1.04267">
        <ele>232.2</ele>
        <time>2017-05-28T07:26:36.000Z</time>
      </trkpt>
      <trkpt lat="44.43263" lon="1.04269">
        <ele>232.3</ele>
        <time>2017-05-28T07:26:37.000Z</time>
      </trkpt>
      <trkpt lat="44.43261" lon="1.0427">
        <ele>232.4</ele>
        <time>2017-05-28T07:26:38.000Z</time>
      </trkpt>
      <trkpt lat="44.43259" lon="1.04272">
        <ele>232.4</ele>
        <time>2017-05-28T07:26:39.000Z</time>
      </trkpt>
      <trkpt lat="44.43257" lon="1.04273">
        <ele>232.5</ele>
        <time>2017-05-28T07:26:40.000Z</time>
      </trkpt>
      <trkpt lat="44.43255" lon="1.04275">
        <ele>232.5</ele>
        <time>2017-05-28T07:26:41.000Z</time>
      </trkpt>
      <trkpt lat="44.43253" lon="1.04277">
        <ele>232.5</ele>
        <time>2017-05-28T07:26:42.000Z</time>
      </trkpt>
      <trkpt lat="44.43251" lon="1.04278">
        <ele>232.6</ele>
        <time>2017-05-28T07:26:43.000Z</time>
      </trkpt>
      <trkpt lat="44.43249" lon="1.0428">
        <ele>232.6</ele>
        <time>2017-05-28T07:26:44.000Z</time>
      </trkpt>
      <trkpt lat="44.43247" lon="1.04282">
        <ele>232.6</ele>
        <time>2017-05-28T07:26:45.000Z</time>
      </trkpt>
      <trkpt lat="44.43245" lon="1.04284">
        <ele>232.7</ele>
        <time>2017-05-28T07:26:46.000Z</time>
      </trkpt>
      <trkpt lat="44.43243" lon="1.04286">
        <ele>232.7</ele>
        <time>2017-05-28T07:26:47.000Z</time>
      </trkpt>
      <trkpt lat="44.43241" lon="1.04288">
        <ele>232.7</ele>
        <time>2017-05-28T07:26:48.000Z</time>
      </trkpt>
      <trkpt lat="44.43238" lon="1.04289">
        <ele>232.8</ele>
        <time>2017-05-28T07:26:49.000Z</time>
      </trkpt>
      <trkpt lat="44.43236" lon="1.04291">
        <ele>232.8</ele>
        <time>2017-05-28T07:26:50.000Z</time>
      </trkpt>
      <trkpt lat="44.43234" lon="1.04293">
        <ele>232.9</ele>
        <time>2017-05-28T07:26:51.000Z</time>
      </trkpt>
      <trkpt lat="44.43232" lon="1.04295">
        <ele>233</ele>
        <time>2017-05-28T07:26:52.000Z</time>
      </trkpt>
      <trkpt lat="44.43229" lon="1.04297">
        <ele>233.1</ele>
        <time>2017-05-28T07:26:53.000Z</time>
      </trkpt>
      <trkpt lat="44.43227" lon="1.04299">
        <ele>233.2</ele>
        <time>2017-05-28T07:26:54.000Z</time>
      </trkpt>
      <trkpt lat="44.43225" lon="1.043">
        <ele>233.3</ele>
        <time>2017-05-28T07:26:55.000Z</time>
      </trkpt>
      <trkpt lat="44.43222" lon="1.04302">
        <ele>233.4</ele>
        <time>2017-05-28T07:26:56.000Z</time>
      </trkpt>
      <trkpt lat="44.4322" lon="1.04304">
        <ele>233.6</ele>
        <time>2017-05-28T07:26:57.000Z</time>
      </trkpt>
      <trkpt lat="44.43217" lon="1.04306">
        <ele>233.7</ele>
        <time>2017-05-28T07:26:58.000Z</time>
      </trkpt>
      <trkpt lat="44.43214" lon="1.04308">
        <ele>233.9</ele>
        <time>2017-05-28T07:26:59.000Z</time>
      </trkpt>
      <trkpt lat="44.43212" lon="1.0431">
        <ele>234</ele>
        <time>2017-05-28T07:27:00.000Z</time>
      </trkpt>
      <trkpt lat="44.43209" lon="1.04311">
        <ele>234.2</ele>
        <time>2017-05-28T07:27:01.000Z</time>
      </trkpt>
      <trkpt lat="44.43207" lon="1.04313">
        <ele>234.4</ele>
        <time>2017-05-28T07:27:02.000Z</time>
      </trkpt>
      <trkpt lat="44.43204" lon="1.04315">
        <ele>234.6</ele>
        <time>2017-05-28T07:27:03.000Z</time>
      </trkpt>
      <trkpt lat="44.43202" lon="1.04317">
        <ele>234.7</ele>
        <time>2017-05-28T07:27:04.000Z</time>
      </trkpt>
      <trkpt lat="44.43199" lon="1.04319">
        <ele>234.9</ele>
        <time>2017-05-28T07:27:05.000Z</time>
      </trkpt>
      <trkpt lat="44.43197" lon="1.0432">
        <ele>235.1</ele>
        <time>2017-05-28T07:27:06.000Z</time>
      </trkpt>
      <trkpt lat="44.43194" lon="1.04322">
        <ele>235.4</ele>
        <time>2017-05-28T07:27:07.000Z</time>
      </trkpt>
      <trkpt lat="44.43192" lon="1.04324">
        <ele>235.6</ele>
        <time>2017-05-28T07:27:08.000Z</time>
      </trkpt>
      <trkpt lat="44.43189" lon="1.04326">
        <ele>235.8</ele>
        <time>2017-05-28T07:27:09.000Z</time>
      </trkpt>
      <trkpt lat="44.43187" lon="1.04327">
        <ele>236</ele>
        <time>2017-05-28T07:27:10.000Z</time>
      </trkpt>
      <trkpt lat="44.43184" lon="1.04329">
        <ele>236.3</ele>
        <time>2017-05-28T07:27:11.000Z</time>
      </trkpt>
      <trkpt lat="44.43182" lon="1.04331">
        <ele>236.5</ele>
        <time>2017-05-28T07:27:12.000Z</time>
      </trkpt>
      <trkpt lat="44.43179" lon="1.04333">
        <ele>236.8</ele>
        <time>2017-05-28T07:27:13.000Z</time>
      </trkpt>
      <trkpt lat="44.43177" lon="1.04334">
        <ele>237</ele>
        <time>2017-05-28T07:27:14.000Z</time>
      </trkpt>
      <trkpt lat="44.43174" lon="1.04336">
        <ele>237.1</ele>
        <time>2017-05-28T07:27:15.000Z</time>
      </trkpt>
      <trkpt lat="44.43172" lon="1.04338">
        <ele>237.3</ele>
        <time>2017-05-28T07:27:16.000Z</time>
      </trkpt>
      <trkpt lat="44.4317" lon="1.0434">
        <ele>237.4</ele>
        <time>2017-05-28T07:27:17.000Z</time>
      </trkpt>
      <trkpt lat="44.43168" lon="1.04342">
        <ele>237.5</ele>
        <time>2017-05-28T07:27:18.000Z</time>
      </trkpt>
      <trkpt lat="44.43165" lon="1.04344">
        <ele>237.5</ele>
        <time>2017-05-28T07:27:19.000Z</time>
      </trkpt>
      <trkpt lat="44.43163" lon="1.04346">
        <ele>237.5</ele>
        <time>2017-05-28T07:27:20.000Z</time>
      </trkpt>
      <trkpt lat="44.43161" lon="1.04349">
        <ele>237.5</ele>
        <time>2017-05-28T07:27:21.000Z</time>
      </trkpt>
      <trkpt lat="44.43159" lon="1.04351">
        <ele>237.5</ele>
        <time>2017-05-28T07:27:22.000Z</time>
      </trkpt>
      <trkpt lat="44.43157" lon="1.04353">
        <ele>237.5</ele>
        <time>2017-05-28T07:27:23.000Z</time>
      </trkpt>
      <trkpt lat="44.43154" lon="1.04356">
        <ele>237.5</ele>
        <time>2017-05-28T07:27:24.000Z</time>
      </trkpt>
      <trkpt lat="44.43152" lon="1.04359">
        <ele>237.5</ele>
        <time>2017-05-28T07:27:25.000Z</time>
      </trkpt>
      <trkpt lat="44.4315" lon="1.04361">
        <ele>237.5</ele>
        <time>2017-05-28T07:27:26.000Z</time>
      </trkpt>
      <trkpt lat="44.43147" lon="1.04364">
        <ele>237.5</ele>
        <time>2017-05-28T07:27:27.000Z</time>
      </trkpt>
      <trkpt lat="44.43145" lon="1.04367">
        <ele>237.6</ele>
        <time>2017-05-28T07:27:28.000Z</time>
      </trkpt>
      <trkpt lat="44.43142" lon="1.0437">
        <ele>237.6</ele>
        <time>2017-05-28T07:27:29.000Z</time>
      </trkpt>
      <trkpt lat="44.4314" lon="1.04373">
        <ele>237.7</ele>
        <time>2017-05-28T07:27:30.000Z</time>
      </trkpt>
      <trkpt lat="44.43137" lon="1.04377">
        <ele>237.7</ele>
        <time>2017-05-28T07:27:31.000Z</time>
      </trkpt>
      <trkpt lat="44.43135" lon="1.04381">
        <ele>237.8</ele>
        <time>2017-05-28T07:27:32.000Z</time>
      </trkpt>
      <trkpt lat="44.43133" lon="1.04384">
        <ele>237.9</ele>
        <time>2017-05-28T07:27:33.000Z</time>
      </trkpt>
      <trkpt lat="44.43131" lon="1.04387">
        <ele>238</ele>
        <time>2017-05-28T07:27:34.000Z</time>
      </trkpt>
      <trkpt lat="44.43129" lon="1.0439">
        <ele>238</ele>
        <time>2017-05-28T07:27:35.000Z</time>
      </trkpt>
      <trkpt lat="44.43127" lon="1.04392">
        <ele>238.1</ele>
        <time>2017-05-28T07:27:36.000Z</time>
      </trkpt>
      <trkpt lat="44.43125" lon="1.04395">
        <ele>238.3</ele>
        <time>2017-05-28T07:27:37.000Z</time>
      </trkpt>
      <trkpt lat="44.43123" lon="1.04398">
        <ele>238.4</ele>
        <time>2017-05-28T07:27:38.000Z</time>
      </trkpt>
      <trkpt lat="44.43121" lon="1.04401">
        <ele>238.6</ele>
        <time>2017-05-28T07:27:39.000Z</time>
      </trkpt>
      <trkpt lat="44.43119" lon="1.04403">
        <ele>238.7</ele>
        <time>2017-05-28T07:27:40.000Z</time>
      </trkpt>
      <trkpt lat="44.43117" lon="1.04405">
        <ele>238.9</ele>
        <time>2017-05-28T07:27:41.000Z</time>
      </trkpt>
      <trkpt lat="44.43115" lon="1.04408">
        <ele>239</ele>
        <time>2017-05-28T07:27:42.000Z</time>
      </trkpt>
      <trkpt lat="44.43113" lon="1.0441">
        <ele>239.2</ele>
        <time>2017-05-28T07:27:43.000Z</time>
      </trkpt>
      <trkpt lat="44.43111" lon="1.04413">
        <ele>239.3</ele>
        <time>2017-05-28T07:27:44.000Z</time>
      </trkpt>
      <trkpt lat="44.43109" lon="1.04416">
        <ele>239.5</ele>
        <time>2017-05-28T07:27:45.000Z</time>
      </trkpt>
      <trkpt lat="44.43107" lon="1.04419">
        <ele>239.6</ele>
        <time>2017-05-28T07:27:46.000Z</time>
      </trkpt>
      <trkpt lat="44.43105" lon="1.04423">
        <ele>239.7</ele>
        <time>2017-05-28T07:27:47.000Z</time>
      </trkpt>
      <trkpt lat="44.43104" lon="1.04428">
        <ele>239.7</ele>
        <time>2017-05-28T07:27:48.000Z</time>
      </trkpt>
      <trkpt lat="44.43103" lon="1.04433">
        <ele>239.7</ele>
        <time>2017-05-28T07:27:49.000Z</time>
      </trkpt>
      <trkpt lat="44.43102" lon="1.04439">
        <ele>239.6</ele>
        <time>2017-05-28T07:27:50.000Z</time>
      </trkpt>
      <trkpt lat="44.43101" lon="1.04445">
        <ele>239.5</ele>
        <time>2017-05-28T07:27:51.000Z</time>
      </trkpt>
      <trkpt lat="44.431" lon="1.04451">
        <ele>239.5</ele>
        <time>2017-05-28T07:27:52.000Z</time>
      </trkpt>
      <trkpt lat="44.43098" lon="1.04457">
        <ele>239.4</ele>
        <time>2017-05-28T07:27:53.000Z</time>
      </trkpt>
      <trkpt lat="44.43097" lon="1.04463">
        <ele>239.4</ele>
        <time>2017-05-28T07:27:54.000Z</time>
      </trkpt>
      <trkpt lat="44.43095" lon="1.04469">
        <ele>239.5</ele>
        <time>2017-05-28T07:27:55.000Z</time>
      </trkpt>
      <trkpt lat="44.43092" lon="1.04475">
        <ele>239.6</ele>
        <time>2017-05-28T07:27:56.000Z</time>
      </trkpt>
      <trkpt lat="44.4309" lon="1.04481">
        <ele>239.8</ele>
        <time>2017-05-28T07:27:57.000Z</time>
      </trkpt>
      <trkpt lat="44.43087" lon="1.04486">
        <ele>239.9</ele>
        <time>2017-05-28T07:27:58.000Z</time>
      </trkpt>
      <trkpt lat="44.43084" lon="1.04492">
        <ele>240.1</ele>
        <time>2017-05-28T07:27:59.000Z</time>
      </trkpt>
      <trkpt lat="44.43081" lon="1.04497">
        <ele>240.3</ele>
        <time>2017-05-28T07:28:00.000Z</time>
      </trkpt>
      <trkpt lat="44.43079" lon="1.04502">
        <ele>240.4</ele>
        <time>2017-05-28T07:28:01.000Z</time>
      </trkpt>
      <trkpt lat="44.43077" lon="1.04508">
        <ele>240.4</ele>
        <time>2017-05-28T07:28:02.000Z</time>
      </trkpt>
      <trkpt lat="44.43075" lon="1.04513">
        <ele>240.4</ele>
        <time>2017-05-28T07:28:03.000Z</time>
      </trkpt>
      <trkpt lat="44.43073" lon="1.04519">
        <ele>240.4</ele>
        <time>2017-05-28T07:28:04.000Z</time>
      </trkpt>
      <trkpt lat="44.43072" lon="1.04524">
        <ele>240.4</ele>
        <time>2017-05-28T07:28:05.000Z</time>
      </trkpt>
      <trkpt lat="44.4307" lon="1.0453">
        <ele>240.3</ele>
        <time>2017-05-28T07:28:06.000Z</time>
      </trkpt>
      <trkpt lat="44.43069" lon="1.04535">
        <ele>240.2</ele>
        <time>2017-05-28T07:28:07.000Z</time>
      </trkpt>
      <trkpt lat="44.43068" lon="1.04541">
        <ele>240.2</ele>
        <time>2017-05-28T07:28:08.000Z</time>
      </trkpt>
      <trkpt lat="44.43067" lon="1.04547">
        <ele>240.1</ele>
        <time>2017-05-28T07:28:09.000Z</time>
      </trkpt>
      <trkpt lat="44.43066" lon="1.04553">
        <ele>240</ele>
        <time>2017-05-28T07:28:10.000Z</time>
      </trkpt>
      <trkpt lat="44.43065" lon="1.04558">
        <ele>240</ele>
        <time>2017-05-28T07:28:11.000Z</time>
      </trkpt>
      <trkpt lat="44.43064" lon="1.04564">
        <ele>240</ele>
        <time>2017-05-28T07:28:12.000Z</time>
      </trkpt>
      <trkpt lat="44.43062" lon="1.0457">
        <ele>240</ele>
        <time>2017-05-28T07:28:13.000Z</time>
      </trkpt>
      <trkpt lat="44.4306" lon="1.04575">
        <ele>240</ele>
        <time>2017-05-28T07:28:14.000Z</time>
      </trkpt>
      <trkpt lat="44.43058" lon="1.04581">
        <ele>240.1</ele>
        <time>2017-05-28T07:28:15.000Z</time>
      </trkpt>
      <trkpt lat="44.43056" lon="1.04586">
        <ele>240.2</ele>
        <time>2017-05-28T07:28:16.000Z</time>
      </trkpt>
      <trkpt lat="44.43054" lon="1.04591">
        <ele>240.2</ele>
        <time>2017-05-28T07:28:17.000Z</time>
      </trkpt>
      <trkpt lat="44.43051" lon="1.04596">
        <ele>240.2</ele>
        <time>2017-05-28T07:28:18.000Z</time>
      </trkpt>
      <trkpt lat="44.43048" lon="1.046">
        <ele>240.3</ele>
        <time>2017-05-28T07:28:19.000Z</time>
      </trkpt>
      <trkpt lat="44.43046" lon="1.04604">
        <ele>240.3</ele>
        <time>2017-05-28T07:28:20.000Z</time>
      </trkpt>
      <trkpt lat="44.43044" lon="1.04609">
        <ele>240.2</ele>
        <time>2017-05-28T07:28:21.000Z</time>
      </trkpt>
      <trkpt lat="44.43043" lon="1.04613">
        <ele>240.1</ele>
        <time>2017-05-28T07:28:22.000Z</time>
      </trkpt>
      <trkpt lat="44.43043" lon="1.04618">
        <ele>239.8</ele>
        <time>2017-05-28T07:28:23.000Z</time>
      </trkpt>
      <trkpt lat="44.43045" lon="1.04624">
        <ele>239.3</ele>
        <time>2017-05-28T07:28:24.000Z</time>
      </trkpt>
      <trkpt lat="44.43048" lon="1.0463">
        <ele>238.7</ele>
        <time>2017-05-28T07:28:25.000Z</time>
      </trkpt>
      <trkpt lat="44.43051" lon="1.04637">
        <ele>238.1</ele>
        <time>2017-05-28T07:28:26.000Z</time>
      </trkpt>
      <trkpt lat="44.43056" lon="1.04644">
        <ele>237.4</ele>
        <time>2017-05-28T07:28:27.000Z</time>
      </trkpt>
      <trkpt lat="44.43061" lon="1.04652">
        <ele>236.7</ele>
        <time>2017-05-28T07:28:28.000Z</time>
      </trkpt>
      <trkpt lat="44.43066" lon="1.0466">
        <ele>236.1</ele>
        <time>2017-05-28T07:28:29.000Z</time>
      </trkpt>
      <trkpt lat="44.43072" lon="1.04669">
        <ele>235.5</ele>
        <time>2017-05-28T07:28:30.000Z</time>
      </trkpt>
      <trkpt lat="44.43078" lon="1.04679">
        <ele>234.8</ele>
        <time>2017-05-28T07:28:31.000Z</time>
      </trkpt>
      <trkpt lat="44.43083" lon="1.0469">
        <ele>234.2</ele>
        <time>2017-05-28T07:28:32.000Z</time>
      </trkpt>
      <trkpt lat="44.43086" lon="1.047">
        <ele>233.7</ele>
        <time>2017-05-28T07:28:33.000Z</time>
      </trkpt>
      <trkpt lat="44.43087" lon="1.04708">
        <ele>233.4</ele>
        <time>2017-05-28T07:28:34.000Z</time>
      </trkpt>
      <trkpt lat="44.43084" lon="1.04713">
        <ele>233.3</ele>
        <time>2017-05-28T07:28:35.000Z</time>
      </trkpt>
      <trkpt lat="44.43079" lon="1.04717">
        <ele>233.4</ele>
        <time>2017-05-28T07:28:36.000Z</time>
      </trkpt>
      <trkpt lat="44.43073" lon="1.0472">
        <ele>233.5</ele>
        <time>2017-05-28T07:28:37.000Z</time>
      </trkpt>
      <trkpt lat="44.43066" lon="1.04722">
        <ele>233.7</ele>
        <time>2017-05-28T07:28:38.000Z</time>
      </trkpt>
      <trkpt lat="44.4306" lon="1.04724">
        <ele>233.9</ele>
        <time>2017-05-28T07:28:39.000Z</time>
      </trkpt>
      <trkpt lat="44.43053" lon="1.04726">
        <ele>234</ele>
        <time>2017-05-28T07:28:40.000Z</time>
      </trkpt>
      <trkpt lat="44.43048" lon="1.04729">
        <ele>234.1</ele>
        <time>2017-05-28T07:28:41.000Z</time>
      </trkpt>
      <trkpt lat="44.43043" lon="1.04733">
        <ele>234.2</ele>
        <time>2017-05-28T07:28:42.000Z</time>
      </trkpt>
      <trkpt lat="44.43039" lon="1.04738">
        <ele>234.1</ele>
        <time>2017-05-28T07:28:43.000Z</time>
      </trkpt>
      <trkpt lat="44.43035" lon="1.04743">
        <ele>234</ele>
        <time>2017-05-28T07:28:44.000Z</time>
      </trkpt>
      <trkpt lat="44.43031" lon="1.04749">
        <ele>233.9</ele>
        <time>2017-05-28T07:28:45.000Z</time>
      </trkpt>
      <trkpt lat="44.43027" lon="1.04755">
        <ele>233.9</ele>
        <time>2017-05-28T07:28:46.000Z</time>
      </trkpt>
      <trkpt lat="44.43023" lon="1.04762">
        <ele>233.9</ele>
        <time>2017-05-28T07:28:47.000Z</time>
      </trkpt>
      <trkpt lat="44.4302" lon="1.04768">
        <ele>233.9</ele>
        <time>2017-05-28T07:28:48.000Z</time>
      </trkpt>
      <trkpt lat="44.43016" lon="1.04774">
        <ele>233.8</ele>
        <time>2017-05-28T07:28:49.000Z</time>
      </trkpt>
      <trkpt lat="44.43012" lon="1.04781">
        <ele>233.8</ele>
        <time>2017-05-28T07:28:50.000Z</time>
      </trkpt>
      <trkpt lat="44.43009" lon="1.04787">
        <ele>233.8</ele>
        <time>2017-05-28T07:28:51.000Z</time>
      </trkpt>
      <trkpt lat="44.43005" lon="1.04793">
        <ele>233.8</ele>
        <time>2017-05-28T07:28:52.000Z</time>
      </trkpt>
      <trkpt lat="44.43001" lon="1.04798">
        <ele>233.8</ele>
        <time>2017-05-28T07:28:53.000Z</time>
      </trkpt>
      <trkpt lat="44.42997" lon="1.04804">
        <ele>233.8</ele>
        <time>2017-05-28T07:28:54.000Z</time>
      </trkpt>
      <trkpt lat="44.42993" lon="1.04809">
        <ele>233.8</ele>
        <time>2017-05-28T07:28:55.000Z</time>
      </trkpt>
      <trkpt lat="44.42989" lon="1.04814">
        <ele>233.8</ele>
        <time>2017-05-28T07:28:56.000Z</time>
      </trkpt>
      <trkpt lat="44.42985" lon="1.04818">
        <ele>233.9</ele>
        <time>2017-05-28T07:28:57.000Z</time>
      </trkpt>
      <trkpt lat="44.42982" lon="1.04823">
        <ele>233.9</ele>
        <time>2017-05-28T07:28:58.000Z</time>
      </trkpt>
      <trkpt lat="44.42978" lon="1.04828">
        <ele>233.9</ele>
        <time>2017-05-28T07:28:59.000Z</time>
      </trkpt>
      <trkpt lat="44.42974" lon="1.04832">
        <ele>234</ele>
        <time>2017-05-28T07:29:00.000Z</time>
      </trkpt>
      <trkpt lat="44.42971" lon="1.04837">
        <ele>234.1</ele>
        <time>2017-05-28T07:29:01.000Z</time>
      </trkpt>
      <trkpt lat="44.42967" lon="1.04842">
        <ele>234.3</ele>
        <time>2017-05-28T07:29:02.000Z</time>
      </trkpt>
      <trkpt lat="44.42964" lon="1.04846">
        <ele>234.4</ele>
        <time>2017-05-28T07:29:03.000Z</time>
      </trkpt>
      <trkpt lat="44.4296" lon="1.04851">
        <ele>234.6</ele>
        <time>2017-05-28T07:29:04.000Z</time>
      </trkpt>
      <trkpt lat="44.42957" lon="1.04856">
        <ele>234.8</ele>
        <time>2017-05-28T07:29:05.000Z</time>
      </trkpt>
      <trkpt lat="44.42953" lon="1.0486">
        <ele>235</ele>
        <time>2017-05-28T07:29:06.000Z</time>
      </trkpt>
      <trkpt lat="44.4295" lon="1.04864">
        <ele>235.2</ele>
        <time>2017-05-28T07:29:07.000Z</time>
      </trkpt>
      <trkpt lat="44.42947" lon="1.04868">
        <ele>235.5</ele>
        <time>2017-05-28T07:29:08.000Z</time>
      </trkpt>
      <trkpt lat="44.42944" lon="1.04872">
        <ele>235.7</ele>
        <time>2017-05-28T07:29:09.000Z</time>
      </trkpt>
      <trkpt lat="44.42941" lon="1.04875">
        <ele>235.9</ele>
        <time>2017-05-28T07:29:10.000Z</time>
      </trkpt>
      <trkpt lat="44.42937" lon="1.04879">
        <ele>236.1</ele>
        <time>2017-05-28T07:29:11.000Z</time>
      </trkpt>
      <trkpt lat="44.42934" lon="1.04882">
        <ele>236.3</ele>
        <time>2017-05-28T07:29:12.000Z</time>
      </trkpt>
      <trkpt lat="44.42931" lon="1.04884">
        <ele>236.5</ele>
        <time>2017-05-28T07:29:13.000Z</time>
      </trkpt>
      <trkpt lat="44.42928" lon="1.04887">
        <ele>236.7</ele>
        <time>2017-05-28T07:29:14.000Z</time>
      </trkpt>
      <trkpt lat="44.42926" lon="1.04889">
        <ele>236.9</ele>
        <time>2017-05-28T07:29:15.000Z</time>
      </trkpt>
      <trkpt lat="44.42923" lon="1.04891">
        <ele>237.1</ele>
        <time>2017-05-28T07:29:16.000Z</time>
      </trkpt>
      <trkpt lat="44.4292" lon="1.04893">
        <ele>237.3</ele>
        <time>2017-05-28T07:29:17.000Z</time>
      </trkpt>
      <trkpt lat="44.42917" lon="1.04896">
        <ele>237.5</ele>
        <time>2017-05-28T07:29:18.000Z</time>
      </trkpt>
      <trkpt lat="44.42914" lon="1.04898">
        <ele>237.6</ele>
        <time>2017-05-28T07:29:19.000Z</time>
      </trkpt>
      <trkpt lat="44.42911" lon="1.049">
        <ele>237.7</ele>
        <time>2017-05-28T07:29:20.000Z</time>
      </trkpt>
      <trkpt lat="44.42908" lon="1.04903">
        <ele>237.9</ele>
        <time>2017-05-28T07:29:21.000Z</time>
      </trkpt>
      <trkpt lat="44.42905" lon="1.04905">
        <ele>238</ele>
        <time>2017-05-28T07:29:22.000Z</time>
      </trkpt>
      <trkpt lat="44.42902" lon="1.04907">
        <ele>238.1</ele>
        <time>2017-05-28T07:29:23.000Z</time>
      </trkpt>
      <trkpt lat="44.42899" lon="1.0491">
        <ele>238.3</ele>
        <time>2017-05-28T07:29:24.000Z</time>
      </trkpt>
      <trkpt lat="44.42895" lon="1.04912">
        <ele>238.4</ele>
        <time>2017-05-28T07:29:25.000Z</time>
      </trkpt>
      <trkpt lat="44.42892" lon="1.04914">
        <ele>238.5</ele>
        <time>2017-05-28T07:29:26.000Z</time>
      </trkpt>
      <trkpt lat="44.42889" lon="1.04916">
        <ele>238.7</ele>
        <time>2017-05-28T07:29:27.000Z</time>
      </trkpt>
      <trkpt lat="44.42885" lon="1.04918">
        <ele>238.8</ele>
        <time>2017-05-28T07:29:28.000Z</time>
      </trkpt>
      <trkpt lat="44.42882" lon="1.0492">
        <ele>238.8</ele>
        <time>2017-05-28T07:29:29.000Z</time>
      </trkpt>
      <trkpt lat="44.42878" lon="1.04922">
        <ele>238.9</ele>
        <time>2017-05-28T07:29:30.000Z</time>
      </trkpt>
      <trkpt lat="44.42875" lon="1.04924">
        <ele>239</ele>
        <time>2017-05-28T07:29:31.000Z</time>
      </trkpt>
      <trkpt lat="44.42872" lon="1.04925">
        <ele>239.1</ele>
        <time>2017-05-28T07:29:32.000Z</time>
      </trkpt>
      <trkpt lat="44.42868" lon="1.04927">
        <ele>239.2</ele>
        <time>2017-05-28T07:29:33.000Z</time>
      </trkpt>
      <trkpt lat="44.42865" lon="1.04929">
        <ele>239.3</ele>
        <time>2017-05-28T07:29:34.000Z</time>
      </trkpt>
      <trkpt lat="44.42862" lon="1.0493">
        <ele>239.4</ele>
        <time>2017-05-28T07:29:35.000Z</time>
      </trkpt>
      <trkpt lat="44.42858" lon="1.04931">
        <ele>239.5</ele>
        <time>2017-05-28T07:29:36.000Z</time>
      </trkpt>
      <trkpt lat="44.42855" lon="1.04933">
        <ele>239.6</ele>
        <time>2017-05-28T07:29:37.000Z</time>
      </trkpt>
      <trkpt lat="44.42852" lon="1.04934">
        <ele>239.7</ele>
        <time>2017-05-28T07:29:38.000Z</time>
      </trkpt>
      <trkpt lat="44.42848" lon="1.04935">
        <ele>239.8</ele>
        <time>2017-05-28T07:29:39.000Z</time>
      </trkpt>
      <trkpt lat="44.42845" lon="1.04936">
        <ele>239.9</ele>
        <time>2017-05-28T07:29:40.000Z</time>
      </trkpt>
      <trkpt lat="44.42841" lon="1.04937">
        <ele>240</ele>
        <time>2017-05-28T07:29:41.000Z</time>
      </trkpt>
      <trkpt lat="44.42838" lon="1.04938">
        <ele>240.1</ele>
        <time>2017-05-28T07:29:42.000Z</time>
      </trkpt>
      <trkpt lat="44.42834" lon="1.04939">
        <ele>240.2</ele>
        <time>2017-05-28T07:29:43.000Z</time>
      </trkpt>
      <trkpt lat="44.42831" lon="1.0494">
        <ele>240.3</ele>
        <time>2017-05-28T07:29:44.000Z</time>
      </trkpt>
      <trkpt lat="44.42827" lon="1.0494">
        <ele>240.4</ele>
        <time>2017-05-28T07:29:45.000Z</time>
      </trkpt>
      <trkpt lat="44.42824" lon="1.04941">
        <ele>240.4</ele>
        <time>2017-05-28T07:29:46.000Z</time>
      </trkpt>
      <trkpt lat="44.4282" lon="1.04942">
        <ele>240.5</ele>
        <time>2017-05-28T07:29:47.000Z</time>
      </trkpt>
      <trkpt lat="44.42817" lon="1.04943">
        <ele>240.6</ele>
        <time>2017-05-28T07:29:48.000Z</time>
      </trkpt>
      <trkpt lat="44.42813" lon="1.04944">
        <ele>240.6</ele>
        <time>2017-05-28T07:29:49.000Z</time>
      </trkpt>
      <trkpt lat="44.4281" lon="1.04945">
        <ele>240.7</ele>
        <time>2017-05-28T07:29:50.000Z</time>
      </trkpt>
      <trkpt lat="44.42807" lon="1.04946">
        <ele>240.8</ele>
        <time>2017-05-28T07:29:51.000Z</time>
      </trkpt>
      <trkpt lat="44.42804" lon="1.04946">
        <ele>240.8</ele>
        <time>2017-05-28T07:29:52.000Z</time>
      </trkpt>
      <trkpt lat="44.42801" lon="1.04947">
        <ele>240.9</ele>
        <time>2017-05-28T07:29:53.000Z</time>
      </trkpt>
      <trkpt lat="44.42798" lon="1.04948">
        <ele>241</ele>
        <time>2017-05-28T07:29:54.000Z</time>
      </trkpt>
      <trkpt lat="44.42795" lon="1.04949">
        <ele>241</ele>
        <time>2017-05-28T07:29:55.000Z</time>
      </trkpt>
      <trkpt lat="44.42792" lon="1.04949">
        <ele>241.1</ele>
        <time>2017-05-28T07:29:56.000Z</time>
      </trkpt>
      <trkpt lat="44.4279" lon="1.04949">
        <ele>241.1</ele>
        <time>2017-05-28T07:29:57.000Z</time>
      </trkpt>
      <trkpt lat="44.42787" lon="1.0495">
        <ele>241.2</ele>
        <time>2017-05-28T07:29:58.000Z</time>
      </trkpt>
      <trkpt lat="44.42783" lon="1.0495">
        <ele>241.2</ele>
        <time>2017-05-28T07:29:59.000Z</time>
      </trkpt>
      <trkpt lat="44.4278" lon="1.04951">
        <ele>241.3</ele>
        <time>2017-05-28T07:30:00.000Z</time>
      </trkpt>
      <trkpt lat="44.42775" lon="1.04951">
        <ele>241.4</ele>
        <time>2017-05-28T07:30:01.000Z</time>
      </trkpt>
      <trkpt lat="44.42771" lon="1.04952">
        <ele>241.5</ele>
        <time>2017-05-28T07:30:02.000Z</time>
      </trkpt>
      <trkpt lat="44.42768" lon="1.04952">
        <ele>241.6</ele>
        <time>2017-05-28T07:30:03.000Z</time>
      </trkpt>
      <trkpt lat="44.42764" lon="1.04953">
        <ele>241.6</ele>
        <time>2017-05-28T07:30:04.000Z</time>
      </trkpt>
      <trkpt lat="44.4276" lon="1.04953">
        <ele>241.7</ele>
        <time>2017-05-28T07:30:05.000Z</time>
      </trkpt>
      <trkpt lat="44.42755" lon="1.04954">
        <ele>241.8</ele>
        <time>2017-05-28T07:30:06.000Z</time>
      </trkpt>
      <trkpt lat="44.42751" lon="1.04955">
        <ele>241.9</ele>
        <time>2017-05-28T07:30:07.000Z</time>
      </trkpt>
      <trkpt lat="44.42747" lon="1.04955">
        <ele>242.2</ele>
        <time>2017-05-28T07:30:08.000Z</time>
      </trkpt>
      <trkpt lat="44.42743" lon="1.04955">
        <ele>242.5</ele>
        <time>2017-05-28T07:30:09.000Z</time>
      </trkpt>
      <trkpt lat="44.42739" lon="1.04956">
        <ele>242.9</ele>
        <time>2017-05-28T07:30:10.000Z</time>
      </trkpt>
      <trkpt lat="44.42736" lon="1.04956">
        <ele>243.2</ele>
        <time>2017-05-28T07:30:11.000Z</time>
      </trkpt>
      <trkpt lat="44.42732" lon="1.04956">
        <ele>243.6</ele>
        <time>2017-05-28T07:30:12.000Z</time>
      </trkpt>
      <trkpt lat="44.42728" lon="1.04955">
        <ele>243.9</ele>
        <time>2017-05-28T07:30:13.000Z</time>
      </trkpt>
      <trkpt lat="44.42724" lon="1.04955">
        <ele>244.2</ele>
        <time>2017-05-28T07:30:14.000Z</time>
      </trkpt>
      <trkpt lat="44.4272" lon="1.04954">
        <ele>244.6</ele>
        <time>2017-05-28T07:30:15.000Z</time>
      </trkpt>
      <trkpt lat="44.42716" lon="1.04953">
        <ele>244.9</ele>
        <time>2017-05-28T07:30:16.000Z</time>
      </trkpt>
      <trkpt lat="44.42712" lon="1.04951">
        <ele>245.1</ele>
        <time>2017-05-28T07:30:17.000Z</time>
      </trkpt>
      <trkpt lat="44.42708" lon="1.0495">
        <ele>245.4</ele>
        <time>2017-05-28T07:30:18.000Z</time>
      </trkpt>
      <trkpt lat="44.42704" lon="1.04948">
        <ele>245.7</ele>
        <time>2017-05-28T07:30:19.000Z</time>
      </trkpt>
      <trkpt lat="44.427" lon="1.04946">
        <ele>246</ele>
        <time>2017-05-28T07:30:20.000Z</time>
      </trkpt>
      <trkpt lat="44.42696" lon="1.04944">
        <ele>246.2</ele>
        <time>2017-05-28T07:30:21.000Z</time>
      </trkpt>
      <trkpt lat="44.42692" lon="1.04943">
        <ele>246.5</ele>
        <time>2017-05-28T07:30:22.000Z</time>
      </trkpt>
      <trkpt lat="44.42688" lon="1.04941">
        <ele>246.7</ele>
        <time>2017-05-28T07:30:23.000Z</time>
      </trkpt>
      <trkpt lat="44.42684" lon="1.0494">
        <ele>247</ele>
        <time>2017-05-28T07:30:24.000Z</time>
      </trkpt>
      <trkpt lat="44.4268" lon="1.04939">
        <ele>247.2</ele>
        <time>2017-05-28T07:30:25.000Z</time>
      </trkpt>
      <trkpt lat="44.42676" lon="1.04938">
        <ele>247.5</ele>
        <time>2017-05-28T07:30:26.000Z</time>
      </trkpt>
      <trkpt lat="44.42672" lon="1.04937">
        <ele>247.8</ele>
        <time>2017-05-28T07:30:27.000Z</time>
      </trkpt>
      <trkpt lat="44.42669" lon="1.04937">
        <ele>248.1</ele>
        <time>2017-05-28T07:30:28.000Z</time>
      </trkpt>
      <trkpt lat="44.42665" lon="1.04936">
        <ele>248.2</ele>
        <time>2017-05-28T07:30:29.000Z</time>
      </trkpt>
      <trkpt lat="44.42662" lon="1.04936">
        <ele>248.2</ele>
        <time>2017-05-28T07:30:30.000Z</time>
      </trkpt>
      <trkpt lat="44.42658" lon="1.04935">
        <ele>248.2</ele>
        <time>2017-05-28T07:30:31.000Z</time>
      </trkpt>
      <trkpt lat="44.42655" lon="1.04934">
        <ele>248.1</ele>
        <time>2017-05-28T07:30:32.000Z</time>
      </trkpt>
      <trkpt lat="44.42652" lon="1.04934">
        <ele>248.1</ele>
        <time>2017-05-28T07:30:33.000Z</time>
      </trkpt>
      <trkpt lat="44.42649" lon="1.04933">
        <ele>248.1</ele>
        <time>2017-05-28T07:30:34.000Z</time>
      </trkpt>
      <trkpt lat="44.42646" lon="1.04932">
        <ele>248.1</ele>
        <time>2017-05-28T07:30:35.000Z</time>
      </trkpt>
      <trkpt lat="44.42642" lon="1.04931">
        <ele>248</ele>
        <time>2017-05-28T07:30:36.000Z</time>
      </trkpt>
      <trkpt lat="44.42639" lon="1.0493">
        <ele>248</ele>
        <time>2017-05-28T07:30:37.000Z</time>
      </trkpt>
      <trkpt lat="44.42635" lon="1.04928">
        <ele>248</ele>
        <time>2017-05-28T07:30:38.000Z</time>
      </trkpt>
      <trkpt lat="44.42631" lon="1.04927">
        <ele>247.9</ele>
        <time>2017-05-28T07:30:39.000Z</time>
      </trkpt>
      <trkpt lat="44.42627" lon="1.04926">
        <ele>247.9</ele>
        <time>2017-05-28T07:30:40.000Z</time>
      </trkpt>
      <trkpt lat="44.42623" lon="1.04925">
        <ele>247.9</ele>
        <time>2017-05-28T07:30:41.000Z</time>
      </trkpt>
      <trkpt lat="44.42618" lon="1.04923">
        <ele>247.9</ele>
        <time>2017-05-28T07:30:42.000Z</time>
      </trkpt>
      <trkpt lat="44.42614" lon="1.04922">
        <ele>247.9</ele>
        <time>2017-05-28T07:30:43.000Z</time>
      </trkpt>
      <trkpt lat="44.4261" lon="1.04921">
        <ele>247.9</ele>
        <time>2017-05-28T07:30:44.000Z</time>
      </trkpt>
      <trkpt lat="44.42606" lon="1.0492">
        <ele>247.9</ele>
        <time>2017-05-28T07:30:45.000Z</time>
      </trkpt>
      <trkpt lat="44.42602" lon="1.04919">
        <ele>247.9</ele>
        <time>2017-05-28T07:30:46.000Z</time>
      </trkpt>
      <trkpt lat="44.42598" lon="1.04919">
        <ele>247.9</ele>
        <time>2017-05-28T07:30:47.000Z</time>
      </trkpt>
      <trkpt lat="44.42594" lon="1.04918">
        <ele>247.9</ele>
        <time>2017-05-28T07:30:48.000Z</time>
      </trkpt>
      <trkpt lat="44.4259" lon="1.04918">
        <ele>248</ele>
        <time>2017-05-28T07:30:49.000Z</time>
      </trkpt>
      <trkpt lat="44.42586" lon="1.04917">
        <ele>248</ele>
        <time>2017-05-28T07:30:50.000Z</time>
      </trkpt>
      <trkpt lat="44.42582" lon="1.04917">
        <ele>248</ele>
        <time>2017-05-28T07:30:51.000Z</time>
      </trkpt>
      <trkpt lat="44.42578" lon="1.04916">
        <ele>247.9</ele>
        <time>2017-05-28T07:30:52.000Z</time>
      </trkpt>
      <trkpt lat="44.42574" lon="1.04916">
        <ele>247.9</ele>
        <time>2017-05-28T07:30:53.000Z</time>
      </trkpt>
      <trkpt lat="44.4257" lon="1.04915">
        <ele>247.8</ele>
        <time>2017-05-28T07:30:54.000Z</time>
      </trkpt>
      <trkpt lat="44.42566" lon="1.04915">
        <ele>247.8</ele>
        <time>2017-05-28T07:30:55.000Z</time>
      </trkpt>
      <trkpt lat="44.42562" lon="1.04914">
        <ele>247.7</ele>
        <time>2017-05-28T07:30:56.000Z</time>
      </trkpt>
      <trkpt lat="44.42558" lon="1.04914">
        <ele>247.7</ele>
        <time>2017-05-28T07:30:57.000Z</time>
      </trkpt>
      <trkpt lat="44.42554" lon="1.04913">
        <ele>247.6</ele>
        <time>2017-05-28T07:30:58.000Z</time>
      </trkpt>
      <trkpt lat="44.42549" lon="1.04913">
        <ele>247.6</ele>
        <time>2017-05-28T07:30:59.000Z</time>
      </trkpt>
      <trkpt lat="44.42545" lon="1.04913">
        <ele>247.5</ele>
        <time>2017-05-28T07:31:00.000Z</time>
      </trkpt>
      <trkpt lat="44.42541" lon="1.04912">
        <ele>247.5</ele>
        <time>2017-05-28T07:31:01.000Z</time>
      </trkpt>
      <trkpt lat="44.42537" lon="1.04912">
        <ele>247.4</ele>
        <time>2017-05-28T07:31:02.000Z</time>
      </trkpt>
      <trkpt lat="44.42532" lon="1.04911">
        <ele>247.4</ele>
        <time>2017-05-28T07:31:03.000Z</time>
      </trkpt>
      <trkpt lat="44.42528" lon="1.0491">
        <ele>247.3</ele>
        <time>2017-05-28T07:31:04.000Z</time>
      </trkpt>
      <trkpt lat="44.42524" lon="1.04909">
        <ele>247.3</ele>
        <time>2017-05-28T07:31:05.000Z</time>
      </trkpt>
      <trkpt lat="44.4252" lon="1.04907">
        <ele>247.2</ele>
        <time>2017-05-28T07:31:06.000Z</time>
      </trkpt>
      <trkpt lat="44.42516" lon="1.04905">
        <ele>247.2</ele>
        <time>2017-05-28T07:31:07.000Z</time>
      </trkpt>
      <trkpt lat="44.42512" lon="1.04903">
        <ele>247.1</ele>
        <time>2017-05-28T07:31:08.000Z</time>
      </trkpt>
      <trkpt lat="44.42509" lon="1.049">
        <ele>247.1</ele>
        <time>2017-05-28T07:31:09.000Z</time>
      </trkpt>
      <trkpt lat="44.42507" lon="1.04896">
        <ele>247.1</ele>
        <time>2017-05-28T07:31:10.000Z</time>
      </trkpt>
      <trkpt lat="44.42506" lon="1.04892">
        <ele>247.1</ele>
        <time>2017-05-28T07:31:11.000Z</time>
      </trkpt>
      <trkpt lat="44.42505" lon="1.04887">
        <ele>247.1</ele>
        <time>2017-05-28T07:31:12.000Z</time>
      </trkpt>
      <trkpt lat="44.42504" lon="1.04883">
        <ele>247</ele>
        <time>2017-05-28T07:31:13.000Z</time>
      </trkpt>
      <trkpt lat="44.42503" lon="1.04878">
        <ele>247</ele>
        <time>2017-05-28T07:31:14.000Z</time>
      </trkpt>
      <trkpt lat="44.42501" lon="1.04874">
        <ele>247</ele>
        <time>2017-05-28T07:31:15.000Z</time>
      </trkpt>
      <trkpt lat="44.425" lon="1.04869">
        <ele>247</ele>
        <time>2017-05-28T07:31:16.000Z</time>
      </trkpt>
      <trkpt lat="44.42498" lon="1.04864">
        <ele>247</ele>
        <time>2017-05-28T07:31:17.000Z</time>
      </trkpt>
      <trkpt lat="44.42497" lon="1.04858">
        <ele>246.9</ele>
        <time>2017-05-28T07:31:18.000Z</time>
      </trkpt>
      <trkpt lat="44.42495" lon="1.04853">
        <ele>246.9</ele>
        <time>2017-05-28T07:31:19.000Z</time>
      </trkpt>
      <trkpt lat="44.42494" lon="1.04847">
        <ele>246.8</ele>
        <time>2017-05-28T07:31:20.000Z</time>
      </trkpt>
      <trkpt lat="44.42492" lon="1.04841">
        <ele>246.8</ele>
        <time>2017-05-28T07:31:21.000Z</time>
      </trkpt>
      <trkpt lat="44.4249" lon="1.04834">
        <ele>246.8</ele>
        <time>2017-05-28T07:31:22.000Z</time>
      </trkpt>
      <trkpt lat="44.42488" lon="1.04828">
        <ele>246.5</ele>
        <time>2017-05-28T07:31:23.000Z</time>
      </trkpt>
      <trkpt lat="44.42486" lon="1.04821">
        <ele>246.1</ele>
        <time>2017-05-28T07:31:24.000Z</time>
      </trkpt>
      <trkpt lat="44.42483" lon="1.04815">
        <ele>245.8</ele>
        <time>2017-05-28T07:31:25.000Z</time>
      </trkpt>
      <trkpt lat="44.42481" lon="1.04808">
        <ele>245.4</ele>
        <time>2017-05-28T07:31:26.000Z</time>
      </trkpt>
      <trkpt lat="44.42479" lon="1.048">
        <ele>245.1</ele>
        <time>2017-05-28T07:31:27.000Z</time>
      </trkpt>
      <trkpt lat="44.42476" lon="1.04793">
        <ele>244.8</ele>
        <time>2017-05-28T07:31:28.000Z</time>
      </trkpt>
      <trkpt lat="44.42474" lon="1.04785">
        <ele>244.4</ele>
        <time>2017-05-28T07:31:29.000Z</time>
      </trkpt>
      <trkpt lat="44.42471" lon="1.04777">
        <ele>244.1</ele>
        <time>2017-05-28T07:31:30.000Z</time>
      </trkpt>
      <trkpt lat="44.42468" lon="1.04768">
        <ele>243.7</ele>
        <time>2017-05-28T07:31:31.000Z</time>
      </trkpt>
      <trkpt lat="44.42465" lon="1.04759">
        <ele>243.3</ele>
        <time>2017-05-28T07:31:32.000Z</time>
      </trkpt>
      <trkpt lat="44.42462" lon="1.04749">
        <ele>243</ele>
        <time>2017-05-28T07:31:33.000Z</time>
      </trkpt>
      <trkpt lat="44.4246" lon="1.04739">
        <ele>242.6</ele>
        <time>2017-05-28T07:31:34.000Z</time>
      </trkpt>
      <trkpt lat="44.42458" lon="1.04729">
        <ele>242.2</ele>
        <time>2017-05-28T07:31:35.000Z</time>
      </trkpt>
      <trkpt lat="44.42457" lon="1.04718">
        <ele>241.9</ele>
        <time>2017-05-28T07:31:36.000Z</time>
      </trkpt>
      <trkpt lat="44.42457" lon="1.04708">
        <ele>241.5</ele>
        <time>2017-05-28T07:31:37.000Z</time>
      </trkpt>
      <trkpt lat="44.42458" lon="1.04697">
        <ele>241.1</ele>
        <time>2017-05-28T07:31:38.000Z</time>
      </trkpt>
      <trkpt lat="44.4246" lon="1.04688">
        <ele>240.8</ele>
        <time>2017-05-28T07:31:39.000Z</time>
      </trkpt>
      <trkpt lat="44.42462" lon="1.04678">
        <ele>240.5</ele>
        <time>2017-05-28T07:31:40.000Z</time>
      </trkpt>
      <trkpt lat="44.42464" lon="1.04669">
        <ele>240.2</ele>
        <time>2017-05-28T07:31:41.000Z</time>
      </trkpt>
      <trkpt lat="44.42466" lon="1.04661">
        <ele>240.2</ele>
        <time>2017-05-28T07:31:42.000Z</time>
      </trkpt>
      <trkpt lat="44.42468" lon="1.04652">
        <ele>240.2</ele>
        <time>2017-05-28T07:31:43.000Z</time>
      </trkpt>
      <trkpt lat="44.42469" lon="1.04645">
        <ele>240.2</ele>
        <time>2017-05-28T07:31:44.000Z</time>
      </trkpt>
      <trkpt lat="44.42469" lon="1.04637">
        <ele>240.3</ele>
        <time>2017-05-28T07:31:45.000Z</time>
      </trkpt>
      <trkpt lat="44.42469" lon="1.0463">
        <ele>240.3</ele>
        <time>2017-05-28T07:31:46.000Z</time>
      </trkpt>
      <trkpt lat="44.42469" lon="1.04623">
        <ele>240.3</ele>
        <time>2017-05-28T07:31:47.000Z</time>
      </trkpt>
      <trkpt lat="44.42468" lon="1.04616">
        <ele>240.2</ele>
        <time>2017-05-28T07:31:48.000Z</time>
      </trkpt>
      <trkpt lat="44.42467" lon="1.04609">
        <ele>240.2</ele>
        <time>2017-05-28T07:31:49.000Z</time>
      </trkpt>
      <trkpt lat="44.42466" lon="1.04602">
        <ele>240.2</ele>
        <time>2017-05-28T07:31:50.000Z</time>
      </trkpt>
      <trkpt lat="44.42464" lon="1.04595">
        <ele>240.1</ele>
        <time>2017-05-28T07:31:51.000Z</time>
      </trkpt>
      <trkpt lat="44.42462" lon="1.04589">
        <ele>240.1</ele>
        <time>2017-05-28T07:31:52.000Z</time>
      </trkpt>
      <trkpt lat="44.42461" lon="1.04582">
        <ele>240.1</ele>
        <time>2017-05-28T07:31:53.000Z</time>
      </trkpt>
      <trkpt lat="44.42459" lon="1.04575">
        <ele>240.1</ele>
        <time>2017-05-28T07:31:54.000Z</time>
      </trkpt>
      <trkpt lat="44.42457" lon="1.04569">
        <ele>240.1</ele>
        <time>2017-05-28T07:31:55.000Z</time>
      </trkpt>
      <trkpt lat="44.42453" lon="1.04566">
        <ele>240.1</ele>
        <time>2017-05-28T07:31:56.000Z</time>
      </trkpt>
      <trkpt lat="44.42449" lon="1.04564">
        <ele>240</ele>
        <time>2017-05-28T07:31:57.000Z</time>
      </trkpt>
      <trkpt lat="44.42443" lon="1.04564">
        <ele>239.9</ele>
        <time>2017-05-28T07:31:58.000Z</time>
      </trkpt>
      <trkpt lat="44.42438" lon="1.04564">
        <ele>239.7</ele>
        <time>2017-05-28T07:31:59.000Z</time>
      </trkpt>
      <trkpt lat="44.42432" lon="1.04564">
        <ele>239.6</ele>
        <time>2017-05-28T07:32:00.000Z</time>
      </trkpt>
      <trkpt lat="44.42426" lon="1.04563">
        <ele>239.5</ele>
        <time>2017-05-28T07:32:01.000Z</time>
      </trkpt>
      <trkpt lat="44.4242" lon="1.04562">
        <ele>239.3</ele>
        <time>2017-05-28T07:32:02.000Z</time>
      </trkpt>
      <trkpt lat="44.42414" lon="1.04561">
        <ele>239.2</ele>
        <time>2017-05-28T07:32:03.000Z</time>
      </trkpt>
      <trkpt lat="44.42407" lon="1.0456">
        <ele>239.1</ele>
        <time>2017-05-28T07:32:04.000Z</time>
      </trkpt>
      <trkpt lat="44.42401" lon="1.04559">
        <ele>239.1</ele>
        <time>2017-05-28T07:32:05.000Z</time>
      </trkpt>
      <trkpt lat="44.42394" lon="1.04558">
        <ele>239</ele>
        <time>2017-05-28T07:32:06.000Z</time>
      </trkpt>
      <trkpt lat="44.42388" lon="1.04558">
        <ele>238.9</ele>
        <time>2017-05-28T07:32:07.000Z</time>
      </trkpt>
      <trkpt lat="44.42381" lon="1.04557">
        <ele>238.9</ele>
        <time>2017-05-28T07:32:08.000Z</time>
      </trkpt>
      <trkpt lat="44.42375" lon="1.04556">
        <ele>238.8</ele>
        <time>2017-05-28T07:32:09.000Z</time>
      </trkpt>
      <trkpt lat="44.42368" lon="1.04555">
        <ele>238.8</ele>
        <time>2017-05-28T07:32:10.000Z</time>
      </trkpt>
      <trkpt lat="44.42362" lon="1.04554">
        <ele>238.7</ele>
        <time>2017-05-28T07:32:11.000Z</time>
      </trkpt>
      <trkpt lat="44.42355" lon="1.04553">
        <ele>238.7</ele>
        <time>2017-05-28T07:32:12.000Z</time>
      </trkpt>
      <trkpt lat="44.42349" lon="1.04552">
        <ele>238.7</ele>
        <time>2017-05-28T07:32:13.000Z</time>
      </trkpt>
      <trkpt lat="44.42343" lon="1.04551">
        <ele>238.7</ele>
        <time>2017-05-28T07:32:14.000Z</time>
      </trkpt>
      <trkpt lat="44.42336" lon="1.0455">
        <ele>238.6</ele>
        <time>2017-05-28T07:32:15.000Z</time>
      </trkpt>
      <trkpt lat="44.4233" lon="1.04549">
        <ele>238.7</ele>
        <time>2017-05-28T07:32:16.000Z</time>
      </trkpt>
      <trkpt lat="44.42324" lon="1.04548">
        <ele>238.7</ele>
        <time>2017-05-28T07:32:17.000Z</time>
      </trkpt>
      <trkpt lat="44.42319" lon="1.04547">
        <ele>238.8</ele>
        <time>2017-05-28T07:32:18.000Z</time>
      </trkpt>
      <trkpt lat="44.42313" lon="1.04546">
        <ele>238.8</ele>
        <time>2017-05-28T07:32:19.000Z</time>
      </trkpt>
      <trkpt lat="44.42308" lon="1.04546">
        <ele>238.8</ele>
        <time>2017-05-28T07:32:20.000Z</time>
      </trkpt>
      <trkpt lat="44.42302" lon="1.04545">
        <ele>238.9</ele>
        <time>2017-05-28T07:32:21.000Z</time>
      </trkpt>
      <trkpt lat="44.42297" lon="1.04545">
        <ele>238.9</ele>
        <time>2017-05-28T07:32:22.000Z</time>
      </trkpt>
      <trkpt lat="44.42291" lon="1.04544">
        <ele>238.9</ele>
        <time>2017-05-28T07:32:23.000Z</time>
      </trkpt>
      <trkpt lat="44.42285" lon="1.04544">
        <ele>238.9</ele>
        <time>2017-05-28T07:32:24.000Z</time>
      </trkpt>
      <trkpt lat="44.4228" lon="1.04544">
        <ele>238.9</ele>
        <time>2017-05-28T07:32:25.000Z</time>
      </trkpt>
      <trkpt lat="44.42274" lon="1.04544">
        <ele>238.9</ele>
        <time>2017-05-28T07:32:26.000Z</time>
      </trkpt>
      <trkpt lat="44.42268" lon="1.04545">
        <ele>238.9</ele>
        <time>2017-05-28T07:32:27.000Z</time>
      </trkpt>
      <trkpt lat="44.42263" lon="1.04545">
        <ele>238.9</ele>
        <time>2017-05-28T07:32:28.000Z</time>
      </trkpt>
      <trkpt lat="44.42257" lon="1.04546">
        <ele>238.9</ele>
        <time>2017-05-28T07:32:29.000Z</time>
      </trkpt>
      <trkpt lat="44.42252" lon="1.04547">
        <ele>238.9</ele>
        <time>2017-05-28T07:32:30.000Z</time>
      </trkpt>
      <trkpt lat="44.42246" lon="1.04548">
        <ele>238.9</ele>
        <time>2017-05-28T07:32:31.000Z</time>
      </trkpt>
      <trkpt lat="44.4224" lon="1.04549">
        <ele>238.8</ele>
        <time>2017-05-28T07:32:32.000Z</time>
      </trkpt>
      <trkpt lat="44.42235" lon="1.04551">
        <ele>238.8</ele>
        <time>2017-05-28T07:32:33.000Z</time>
      </trkpt>
      <trkpt lat="44.4223" lon="1.04552">
        <ele>238.7</ele>
        <time>2017-05-28T07:32:34.000Z</time>
      </trkpt>
      <trkpt lat="44.42224" lon="1.04554">
        <ele>238.7</ele>
        <time>2017-05-28T07:32:35.000Z</time>
      </trkpt>
      <trkpt lat="44.42219" lon="1.04557">
        <ele>238.6</ele>
        <time>2017-05-28T07:32:36.000Z</time>
      </trkpt>
      <trkpt lat="44.42214" lon="1.04559">
        <ele>238.6</ele>
        <time>2017-05-28T07:32:37.000Z</time>
      </trkpt>
      <trkpt lat="44.42208" lon="1.04562">
        <ele>238.5</ele>
        <time>2017-05-28T07:32:38.000Z</time>
      </trkpt>
      <trkpt lat="44.42203" lon="1.04565">
        <ele>238.4</ele>
        <time>2017-05-28T07:32:39.000Z</time>
      </trkpt>
      <trkpt lat="44.42198" lon="1.04568">
        <ele>238.4</ele>
        <time>2017-05-28T07:32:40.000Z</time>
      </trkpt>
      <trkpt lat="44.42193" lon="1.04572">
        <ele>238.3</ele>
        <time>2017-05-28T07:32:41.000Z</time>
      </trkpt>
      <trkpt lat="44.42188" lon="1.04575">
        <ele>238.2</ele>
        <time>2017-05-28T07:32:42.000Z</time>
      </trkpt>
      <trkpt lat="44.42182" lon="1.04579">
        <ele>238.1</ele>
        <time>2017-05-28T07:32:43.000Z</time>
      </trkpt>
      <trkpt lat="44.42177" lon="1.04582">
        <ele>238</ele>
        <time>2017-05-28T07:32:44.000Z</time>
      </trkpt>
      <trkpt lat="44.42172" lon="1.04585">
        <ele>238</ele>
        <time>2017-05-28T07:32:45.000Z</time>
      </trkpt>
      <trkpt lat="44.42167" lon="1.04588">
        <ele>237.9</ele>
        <time>2017-05-28T07:32:46.000Z</time>
      </trkpt>
      <trkpt lat="44.42162" lon="1.0459">
        <ele>237.9</ele>
        <time>2017-05-28T07:32:47.000Z</time>
      </trkpt>
      <trkpt lat="44.42157" lon="1.04593">
        <ele>238</ele>
        <time>2017-05-28T07:32:48.000Z</time>
      </trkpt>
      <trkpt lat="44.42152" lon="1.04595">
        <ele>238.1</ele>
        <time>2017-05-28T07:32:49.000Z</time>
      </trkpt>
      <trkpt lat="44.42147" lon="1.04596">
        <ele>238.2</ele>
        <time>2017-05-28T07:32:50.000Z</time>
      </trkpt>
      <trkpt lat="44.42143" lon="1.04598">
        <ele>238.3</ele>
        <time>2017-05-28T07:32:51.000Z</time>
      </trkpt>
      <trkpt lat="44.42138" lon="1.04599">
        <ele>238.4</ele>
        <time>2017-05-28T07:32:52.000Z</time>
      </trkpt>
      <trkpt lat="44.42134" lon="1.04599">
        <ele>238.5</ele>
        <time>2017-05-28T07:32:53.000Z</time>
      </trkpt>
      <trkpt lat="44.4213" lon="1.046">
        <ele>238.6</ele>
        <time>2017-05-28T07:32:54.000Z</time>
      </trkpt>
      <trkpt lat="44.42126" lon="1.046">
        <ele>238.7</ele>
        <time>2017-05-28T07:32:55.000Z</time>
      </trkpt>
      <trkpt lat="44.42122" lon="1.046">
        <ele>238.8</ele>
        <time>2017-05-28T07:32:56.000Z</time>
      </trkpt>
      <trkpt lat="44.42119" lon="1.04601">
        <ele>238.8</ele>
        <time>2017-05-28T07:32:57.000Z</time>
      </trkpt>
      <trkpt lat="44.42117" lon="1.04602">
        <ele>238.9</ele>
        <time>2017-05-28T07:32:58.000Z</time>
      </trkpt>
      <trkpt lat="44.42115" lon="1.04603">
        <ele>238.9</ele>
        <time>2017-05-28T07:32:59.000Z</time>
      </trkpt>
      <trkpt lat="44.42114" lon="1.04604">
        <ele>238.9</ele>
        <time>2017-05-28T07:33:00.000Z</time>
      </trkpt>
      <trkpt lat="44.42113" lon="1.04605">
        <ele>238.9</ele>
        <time>2017-05-28T07:33:01.000Z</time>
      </trkpt>
      <trkpt lat="44.42112" lon="1.04605">
        <ele>239</ele>
        <time>2017-05-28T07:33:02.000Z</time>
      </trkpt>
      <trkpt lat="44.42111" lon="1.04605">
        <ele>239</ele>
        <time>2017-05-28T07:34:54.000Z</time>
      </trkpt>
      <trkpt lat="44.4211" lon="1.04604">
        <ele>239</ele>
        <time>2017-05-28T07:34:55.000Z</time>
      </trkpt>
      <trkpt lat="44.42109" lon="1.04603">
        <ele>239.1</ele>
        <time>2017-05-28T07:34:56.000Z</time>
      </trkpt>
      <trkpt lat="44.42107" lon="1.04604">
        <ele>239.1</ele>
        <time>2017-05-28T07:34:57.000Z</time>
      </trkpt>
      <trkpt lat="44.42105" lon="1.04604">
        <ele>239.2</ele>
        <time>2017-05-28T07:34:58.000Z</time>
      </trkpt>
      <trkpt lat="44.42103" lon="1.04605">
        <ele>239.2</ele>
        <time>2017-05-28T07:34:59.000Z</time>
      </trkpt>
      <trkpt lat="44.42101" lon="1.04606">
        <ele>239.3</ele>
        <time>2017-05-28T07:35:00.000Z</time>
      </trkpt>
      <trkpt lat="44.42098" lon="1.04607">
        <ele>239.3</ele>
        <time>2017-05-28T07:35:01.000Z</time>
      </trkpt>
      <trkpt lat="44.42096" lon="1.04609">
        <ele>239.4</ele>
        <time>2017-05-28T07:35:02.000Z</time>
      </trkpt>
      <trkpt lat="44.42093" lon="1.0461">
        <ele>239.4</ele>
        <time>2017-05-28T07:35:03.000Z</time>
      </trkpt>
      <trkpt lat="44.4209" lon="1.04611">
        <ele>239.5</ele>
        <time>2017-05-28T07:35:04.000Z</time>
      </trkpt>
      <trkpt lat="44.42086" lon="1.04612">
        <ele>239.6</ele>
        <time>2017-05-28T07:35:05.000Z</time>
      </trkpt>
      <trkpt lat="44.42083" lon="1.04613">
        <ele>239.7</ele>
        <time>2017-05-28T07:35:06.000Z</time>
      </trkpt>
      <trkpt lat="44.42079" lon="1.04613">
        <ele>239.7</ele>
        <time>2017-05-28T07:35:07.000Z</time>
      </trkpt>
      <trkpt lat="44.42075" lon="1.04614">
        <ele>239.8</ele>
        <time>2017-05-28T07:35:08.000Z</time>
      </trkpt>
      <trkpt lat="44.42071" lon="1.04614">
        <ele>239.9</ele>
        <time>2017-05-28T07:35:09.000Z</time>
      </trkpt>
      <trkpt lat="44.42067" lon="1.04614">
        <ele>240</ele>
        <time>2017-05-28T07:35:10.000Z</time>
      </trkpt>
      <trkpt lat="44.42062" lon="1.04614">
        <ele>240.1</ele>
        <time>2017-05-28T07:35:11.000Z</time>
      </trkpt>
      <trkpt lat="44.42058" lon="1.04614">
        <ele>240.2</ele>
        <time>2017-05-28T07:35:12.000Z</time>
      </trkpt>
      <trkpt lat="44.42053" lon="1.04614">
        <ele>240.3</ele>
        <time>2017-05-28T07:35:13.000Z</time>
      </trkpt>
      <trkpt lat="44.42049" lon="1.04613">
        <ele>240.4</ele>
        <time>2017-05-28T07:35:14.000Z</time>
      </trkpt>
      <trkpt lat="44.42044" lon="1.04613">
        <ele>240.5</ele>
        <time>2017-05-28T07:35:15.000Z</time>
      </trkpt>
      <trkpt lat="44.42039" lon="1.04612">
        <ele>240.6</ele>
        <time>2017-05-28T07:35:16.000Z</time>
      </trkpt>
      <trkpt lat="44.42035" lon="1.04611">
        <ele>240.6</ele>
        <time>2017-05-28T07:35:17.000Z</time>
      </trkpt>
      <trkpt lat="44.4203" lon="1.0461">
        <ele>240.7</ele>
        <time>2017-05-28T07:35:18.000Z</time>
      </trkpt>
      <trkpt lat="44.42026" lon="1.04609">
        <ele>240.8</ele>
        <time>2017-05-28T07:35:19.000Z</time>
      </trkpt>
      <trkpt lat="44.42021" lon="1.04608">
        <ele>240.9</ele>
        <time>2017-05-28T07:35:20.000Z</time>
      </trkpt>
      <trkpt lat="44.42017" lon="1.04606">
        <ele>241</ele>
        <time>2017-05-28T07:35:21.000Z</time>
      </trkpt>
      <trkpt lat="44.42013" lon="1.04605">
        <ele>241</ele>
        <time>2017-05-28T07:35:22.000Z</time>
      </trkpt>
      <trkpt lat="44.42008" lon="1.04604">
        <ele>241.1</ele>
        <time>2017-05-28T07:35:23.000Z</time>
      </trkpt>
      <trkpt lat="44.42004" lon="1.04603">
        <ele>241.2</ele>
        <time>2017-05-28T07:35:24.000Z</time>
      </trkpt>
      <trkpt lat="44.42" lon="1.04602">
        <ele>241.2</ele>
        <time>2017-05-28T07:35:25.000Z</time>
      </trkpt>
      <trkpt lat="44.41996" lon="1.04601">
        <ele>241.3</ele>
        <time>2017-05-28T07:35:26.000Z</time>
      </trkpt>
      <trkpt lat="44.41992" lon="1.04601">
        <ele>241.3</ele>
        <time>2017-05-28T07:35:27.000Z</time>
      </trkpt>
      <trkpt lat="44.41988" lon="1.04601">
        <ele>241.4</ele>
        <time>2017-05-28T07:35:28.000Z</time>
      </trkpt>
      <trkpt lat="44.41983" lon="1.04602">
        <ele>241.4</ele>
        <time>2017-05-28T07:35:29.000Z</time>
      </trkpt>
      <trkpt lat="44.41979" lon="1.04602">
        <ele>241.5</ele>
        <time>2017-05-28T07:35:30.000Z</time>
      </trkpt>
      <trkpt lat="44.41975" lon="1.04602">
        <ele>241.5</ele>
        <time>2017-05-28T07:35:31.000Z</time>
      </trkpt>
      <trkpt lat="44.41971" lon="1.04603">
        <ele>241.6</ele>
        <time>2017-05-28T07:35:32.000Z</time>
      </trkpt>
      <trkpt lat="44.41967" lon="1.04603">
        <ele>241.6</ele>
        <time>2017-05-28T07:35:33.000Z</time>
      </trkpt>
      <trkpt lat="44.41963" lon="1.04603">
        <ele>241.7</ele>
        <time>2017-05-28T07:35:34.000Z</time>
      </trkpt>
      <trkpt lat="44.41959" lon="1.04603">
        <ele>241.7</ele>
        <time>2017-05-28T07:35:35.000Z</time>
      </trkpt>
      <trkpt lat="44.41955" lon="1.04603">
        <ele>241.8</ele>
        <time>2017-05-28T07:35:36.000Z</time>
      </trkpt>
      <trkpt lat="44.41951" lon="1.04602">
        <ele>241.8</ele>
        <time>2017-05-28T07:35:37.000Z</time>
      </trkpt>
      <trkpt lat="44.41947" lon="1.04602">
        <ele>241.9</ele>
        <time>2017-05-28T07:35:38.000Z</time>
      </trkpt>
      <trkpt lat="44.41942" lon="1.04602">
        <ele>241.9</ele>
        <time>2017-05-28T07:35:39.000Z</time>
      </trkpt>
      <trkpt lat="44.41937" lon="1.04602">
        <ele>242</ele>
        <time>2017-05-28T07:35:40.000Z</time>
      </trkpt>
      <trkpt lat="44.41932" lon="1.04602">
        <ele>242</ele>
        <time>2017-05-28T07:35:41.000Z</time>
      </trkpt>
      <trkpt lat="44.41927" lon="1.04602">
        <ele>242.1</ele>
        <time>2017-05-28T07:35:42.000Z</time>
      </trkpt>
      <trkpt lat="44.41922" lon="1.04602">
        <ele>242.2</ele>
        <time>2017-05-28T07:35:43.000Z</time>
      </trkpt>
      <trkpt lat="44.41916" lon="1.04602">
        <ele>242.2</ele>
        <time>2017-05-28T07:35:44.000Z</time>
      </trkpt>
      <trkpt lat="44.41911" lon="1.04602">
        <ele>242.1</ele>
        <time>2017-05-28T07:35:45.000Z</time>
      </trkpt>
      <trkpt lat="44.41906" lon="1.04602">
        <ele>242</ele>
        <time>2017-05-28T07:35:46.000Z</time>
      </trkpt>
      <trkpt lat="44.41901" lon="1.04602">
        <ele>241.9</ele>
        <time>2017-05-28T07:35:47.000Z</time>
      </trkpt>
      <trkpt lat="44.41896" lon="1.04602">
        <ele>241.9</ele>
        <time>2017-05-28T07:35:48.000Z</time>
      </trkpt>
      <trkpt lat="44.41891" lon="1.04602">
        <ele>241.8</ele>
        <time>2017-05-28T07:35:49.000Z</time>
      </trkpt>
      <trkpt lat="44.41886" lon="1.04602">
        <ele>241.7</ele>
        <time>2017-05-28T07:35:50.000Z</time>
      </trkpt>
      <trkpt lat="44.41881" lon="1.04602">
        <ele>241.6</ele>
        <time>2017-05-28T07:35:51.000Z</time>
      </trkpt>
      <trkpt lat="44.41876" lon="1.04602">
        <ele>241.5</ele>
        <time>2017-05-28T07:35:52.000Z</time>
      </trkpt>
      <trkpt lat="44.41871" lon="1.04602">
        <ele>241.4</ele>
        <time>2017-05-28T07:35:53.000Z</time>
      </trkpt>
      <trkpt lat="44.41866" lon="1.04603">
        <ele>241.3</ele>
        <time>2017-05-28T07:35:54.000Z</time>
      </trkpt>
      <trkpt lat="44.41861" lon="1.04603">
        <ele>241.3</ele>
        <time>2017-05-28T07:35:55.000Z</time>
      </trkpt>
      <trkpt lat="44.41856" lon="1.04603">
        <ele>241.2</ele>
        <time>2017-05-28T07:35:56.000Z</time>
      </trkpt>
      <trkpt lat="44.41851" lon="1.04603">
        <ele>241.1</ele>
        <time>2017-05-28T07:35:57.000Z</time>
      </trkpt>
      <trkpt lat="44.41845" lon="1.04604">
        <ele>241</ele>
        <time>2017-05-28T07:35:58.000Z</time>
      </trkpt>
      <trkpt lat="44.4184" lon="1.04605">
        <ele>240.9</ele>
        <time>2017-05-28T07:35:59.000Z</time>
      </trkpt>
      <trkpt lat="44.41834" lon="1.04605">
        <ele>240.7</ele>
        <time>2017-05-28T07:36:00.000Z</time>
      </trkpt>
      <trkpt lat="44.41828" lon="1.04606">
        <ele>240.2</ele>
        <time>2017-05-28T07:36:01.000Z</time>
      </trkpt>
      <trkpt lat="44.41822" lon="1.04607">
        <ele>239.5</ele>
        <time>2017-05-28T07:36:02.000Z</time>
      </trkpt>
      <trkpt lat="44.41815" lon="1.04608">
        <ele>238.9</ele>
        <time>2017-05-28T07:36:03.000Z</time>
      </trkpt>
      <trkpt lat="44.41809" lon="1.04609">
        <ele>238.3</ele>
        <time>2017-05-28T07:36:04.000Z</time>
      </trkpt>
      <trkpt lat="44.41803" lon="1.04609">
        <ele>237.6</ele>
        <time>2017-05-28T07:36:05.000Z</time>
      </trkpt>
      <trkpt lat="44.41796" lon="1.04609">
        <ele>237</ele>
        <time>2017-05-28T07:36:06.000Z</time>
      </trkpt>
      <trkpt lat="44.41789" lon="1.0461">
        <ele>236.2</ele>
        <time>2017-05-28T07:36:07.000Z</time>
      </trkpt>
      <trkpt lat="44.41781" lon="1.04612">
        <ele>235.4</ele>
        <time>2017-05-28T07:36:08.000Z</time>
      </trkpt>
      <trkpt lat="44.41773" lon="1.04614">
        <ele>234.5</ele>
        <time>2017-05-28T07:36:09.000Z</time>
      </trkpt>
      <trkpt lat="44.41764" lon="1.04616">
        <ele>233.6</ele>
        <time>2017-05-28T07:36:10.000Z</time>
      </trkpt>
      <trkpt lat="44.41755" lon="1.04616">
        <ele>232.7</ele>
        <time>2017-05-28T07:36:11.000Z</time>
      </trkpt>
      <trkpt lat="44.41746" lon="1.04616">
        <ele>231.4</ele>
        <time>2017-05-28T07:36:12.000Z</time>
      </trkpt>
      <trkpt lat="44.41736" lon="1.04617">
        <ele>229.7</ele>
        <time>2017-05-28T07:36:13.000Z</time>
      </trkpt>
      <trkpt lat="44.41726" lon="1.04619">
        <ele>227.9</ele>
        <time>2017-05-28T07:36:14.000Z</time>
      </trkpt>
      <trkpt lat="44.41716" lon="1.04621">
        <ele>226</ele>
        <time>2017-05-28T07:36:15.000Z</time>
      </trkpt>
      <trkpt lat="44.41706" lon="1.04622">
        <ele>224.3</ele>
        <time>2017-05-28T07:36:16.000Z</time>
      </trkpt>
      <trkpt lat="44.41696" lon="1.04623">
        <ele>222.7</ele>
        <time>2017-05-28T07:36:17.000Z</time>
      </trkpt>
      <trkpt lat="44.41687" lon="1.04624">
        <ele>221.1</ele>
        <time>2017-05-28T07:36:18.000Z</time>
      </trkpt>
      <trkpt lat="44.41678" lon="1.04625">
        <ele>219.5</ele>
        <time>2017-05-28T07:36:19.000Z</time>
      </trkpt>
      <trkpt lat="44.41669" lon="1.04626">
        <ele>218</ele>
        <time>2017-05-28T07:36:20.000Z</time>
      </trkpt>
      <trkpt lat="44.41661" lon="1.04627">
        <ele>217</ele>
        <time>2017-05-28T07:36:21.000Z</time>
      </trkpt>
      <trkpt lat="44.41653" lon="1.04629">
        <ele>216.3</ele>
        <time>2017-05-28T07:36:22.000Z</time>
      </trkpt>
      <trkpt lat="44.41645" lon="1.0463">
        <ele>215.6</ele>
        <time>2017-05-28T07:36:23.000Z</time>
      </trkpt>
      <trkpt lat="44.41637" lon="1.04632">
        <ele>214.9</ele>
        <time>2017-05-28T07:36:24.000Z</time>
      </trkpt>
      <trkpt lat="44.41629" lon="1.04634">
        <ele>214.2</ele>
        <time>2017-05-28T07:36:25.000Z</time>
      </trkpt>
      <trkpt lat="44.41621" lon="1.04636">
        <ele>213.4</ele>
        <time>2017-05-28T07:36:26.000Z</time>
      </trkpt>
      <trkpt lat="44.41612" lon="1.04638">
        <ele>212.6</ele>
        <time>2017-05-28T07:36:27.000Z</time>
      </trkpt>
      <trkpt lat="44.41603" lon="1.04641">
        <ele>211.8</ele>
        <time>2017-05-28T07:36:28.000Z</time>
      </trkpt>
      <trkpt lat="44.41594" lon="1.04643">
        <ele>211</ele>
        <time>2017-05-28T07:36:29.000Z</time>
      </trkpt>
      <trkpt lat="44.41585" lon="1.04645">
        <ele>210.1</ele>
        <time>2017-05-28T07:36:30.000Z</time>
      </trkpt>
      <trkpt lat="44.41576" lon="1.04647">
        <ele>209.6</ele>
        <time>2017-05-28T07:36:31.000Z</time>
      </trkpt>
      <trkpt lat="44.41567" lon="1.04649">
        <ele>209.2</ele>
        <time>2017-05-28T07:36:32.000Z</time>
      </trkpt>
      <trkpt lat="44.41558" lon="1.04651">
        <ele>208.8</ele>
        <time>2017-05-28T07:36:33.000Z</time>
      </trkpt>
      <trkpt lat="44.41549" lon="1.04652">
        <ele>208.4</ele>
        <time>2017-05-28T07:36:34.000Z</time>
      </trkpt>
      <trkpt lat="44.41541" lon="1.04653">
        <ele>208</ele>
        <time>2017-05-28T07:36:35.000Z</time>
      </trkpt>
      <trkpt lat="44.41533" lon="1.04654">
        <ele>207.7</ele>
        <time>2017-05-28T07:36:36.000Z</time>
      </trkpt>
      <trkpt lat="44.41525" lon="1.04655">
        <ele>207.3</ele>
        <time>2017-05-28T07:36:37.000Z</time>
      </trkpt>
      <trkpt lat="44.41518" lon="1.04656">
        <ele>207</ele>
        <time>2017-05-28T07:36:38.000Z</time>
      </trkpt>
      <trkpt lat="44.41511" lon="1.04657">
        <ele>206.6</ele>
        <time>2017-05-28T07:36:39.000Z</time>
      </trkpt>
      <trkpt lat="44.41504" lon="1.0466">
        <ele>206.3</ele>
        <time>2017-05-28T07:36:40.000Z</time>
      </trkpt>
      <trkpt lat="44.41498" lon="1.04663">
        <ele>206</ele>
        <time>2017-05-28T07:36:41.000Z</time>
      </trkpt>
      <trkpt lat="44.41492" lon="1.04667">
        <ele>205.9</ele>
        <time>2017-05-28T07:36:42.000Z</time>
      </trkpt>
      <trkpt lat="44.41485" lon="1.04672">
        <ele>205.5</ele>
        <time>2017-05-28T07:36:43.000Z</time>
      </trkpt>
      <trkpt lat="44.41479" lon="1.04676">
        <ele>205.1</ele>
        <time>2017-05-28T07:36:44.000Z</time>
      </trkpt>
      <trkpt lat="44.41473" lon="1.0468">
        <ele>204.8</ele>
        <time>2017-05-28T07:36:45.000Z</time>
      </trkpt>
      <trkpt lat="44.41468" lon="1.04684">
        <ele>204.6</ele>
        <time>2017-05-28T07:36:46.000Z</time>
      </trkpt>
      <trkpt lat="44.41463" lon="1.04686">
        <ele>204.5</ele>
        <time>2017-05-28T07:36:47.000Z</time>
      </trkpt>
      <trkpt lat="44.41459" lon="1.04688">
        <ele>204.4</ele>
        <time>2017-05-28T07:36:48.000Z</time>
      </trkpt>
      <trkpt lat="44.41456" lon="1.04689">
        <ele>204.3</ele>
        <time>2017-05-28T07:36:49.000Z</time>
      </trkpt>
      <trkpt lat="44.41452" lon="1.0469">
        <ele>204.2</ele>
        <time>2017-05-28T07:36:50.000Z</time>
      </trkpt>
      <trkpt lat="44.41448" lon="1.04691">
        <ele>204.2</ele>
        <time>2017-05-28T07:36:51.000Z</time>
      </trkpt>
      <trkpt lat="44.41444" lon="1.04692">
        <ele>204.1</ele>
        <time>2017-05-28T07:36:52.000Z</time>
      </trkpt>
      <trkpt lat="44.41441" lon="1.04694">
        <ele>204</ele>
        <time>2017-05-28T07:36:53.000Z</time>
      </trkpt>
      <trkpt lat="44.41437" lon="1.04696">
        <ele>203.9</ele>
        <time>2017-05-28T07:36:54.000Z</time>
      </trkpt>
      <trkpt lat="44.41434" lon="1.04699">
        <ele>203.8</ele>
        <time>2017-05-28T07:36:55.000Z</time>
      </trkpt>
      <trkpt lat="44.41432" lon="1.04702">
        <ele>203.7</ele>
        <time>2017-05-28T07:36:56.000Z</time>
      </trkpt>
      <trkpt lat="44.4143" lon="1.04706">
        <ele>203.5</ele>
        <time>2017-05-28T07:36:57.000Z</time>
      </trkpt>
      <trkpt lat="44.41429" lon="1.04709">
        <ele>203.4</ele>
        <time>2017-05-28T07:36:58.000Z</time>
      </trkpt>
      <trkpt lat="44.4143" lon="1.04711">
        <ele>203.3</ele>
        <time>2017-05-28T07:36:59.000Z</time>
      </trkpt>
      <trkpt lat="44.41431" lon="1.04713">
        <ele>203.2</ele>
        <time>2017-05-28T07:37:00.000Z</time>
      </trkpt>
      <trkpt lat="44.41433" lon="1.04715">
        <ele>203.1</ele>
        <time>2017-05-28T07:37:01.000Z</time>
      </trkpt>
      <trkpt lat="44.41435" lon="1.04717">
        <ele>203</ele>
        <time>2017-05-28T07:37:02.000Z</time>
      </trkpt>
      <trkpt lat="44.41438" lon="1.04718">
        <ele>202.9</ele>
        <time>2017-05-28T07:37:03.000Z</time>
      </trkpt>
      <trkpt lat="44.41441" lon="1.0472">
        <ele>202.8</ele>
        <time>2017-05-28T07:37:04.000Z</time>
      </trkpt>
      <trkpt lat="44.41445" lon="1.04723">
        <ele>202.6</ele>
        <time>2017-05-28T07:37:05.000Z</time>
      </trkpt>
      <trkpt lat="44.41449" lon="1.04727">
        <ele>202.4</ele>
        <time>2017-05-28T07:37:06.000Z</time>
      </trkpt>
      <trkpt lat="44.41453" lon="1.04732">
        <ele>202.1</ele>
        <time>2017-05-28T07:37:07.000Z</time>
      </trkpt>
      <trkpt lat="44.41456" lon="1.04737">
        <ele>201.7</ele>
        <time>2017-05-28T07:37:08.000Z</time>
      </trkpt>
      <trkpt lat="44.41458" lon="1.04743">
        <ele>201.4</ele>
        <time>2017-05-28T07:37:09.000Z</time>
      </trkpt>
      <trkpt lat="44.41458" lon="1.0475">
        <ele>201</ele>
        <time>2017-05-28T07:37:10.000Z</time>
      </trkpt>
      <trkpt lat="44.41458" lon="1.04755">
        <ele>201.2</ele>
        <time>2017-05-28T07:37:11.000Z</time>
      </trkpt>
      <trkpt lat="44.41458" lon="1.04759">
        <ele>201.3</ele>
        <time>2017-05-28T07:37:12.000Z</time>
      </trkpt>
      <trkpt lat="44.41457" lon="1.04763">
        <ele>201.4</ele>
        <time>2017-05-28T07:37:13.000Z</time>
      </trkpt>
      <trkpt lat="44.41456" lon="1.04765">
        <ele>201.5</ele>
        <time>2017-05-28T07:37:14.000Z</time>
      </trkpt>
      <trkpt lat="44.41455" lon="1.04767">
        <ele>201.5</ele>
        <time>2017-05-28T07:37:15.000Z</time>
      </trkpt>
      <trkpt lat="44.41454" lon="1.04768">
        <ele>201.6</ele>
        <time>2017-05-28T07:37:16.000Z</time>
      </trkpt>
      <trkpt lat="44.41452" lon="1.04768">
        <ele>201.6</ele>
        <time>2017-05-28T07:37:17.000Z</time>
      </trkpt>
      <trkpt lat="44.4145" lon="1.04768">
        <ele>201.6</ele>
        <time>2017-05-28T07:37:18.000Z</time>
      </trkpt>
      <trkpt lat="44.41448" lon="1.04769">
        <ele>201.7</ele>
        <time>2017-05-28T07:37:19.000Z</time>
      </trkpt>
      <trkpt lat="44.41446" lon="1.04769">
        <ele>201.7</ele>
        <time>2017-05-28T07:37:20.000Z</time>
      </trkpt>
      <trkpt lat="44.41444" lon="1.04769">
        <ele>201.7</ele>
        <time>2017-05-28T07:37:21.000Z</time>
      </trkpt>
      <trkpt lat="44.41442" lon="1.0477">
        <ele>201.8</ele>
        <time>2017-05-28T07:37:22.000Z</time>
      </trkpt>
      <trkpt lat="44.4144" lon="1.0477">
        <ele>201.8</ele>
        <time>2017-05-28T07:37:23.000Z</time>
      </trkpt>
      <trkpt lat="44.41437" lon="1.04771">
        <ele>201.8</ele>
        <time>2017-05-28T07:37:24.000Z</time>
      </trkpt>
      <trkpt lat="44.41435" lon="1.04771">
        <ele>201.8</ele>
        <time>2017-05-28T07:37:25.000Z</time>
      </trkpt>
      <trkpt lat="44.41433" lon="1.04772">
        <ele>201.9</ele>
        <time>2017-05-28T07:37:26.000Z</time>
      </trkpt>
      <trkpt lat="44.4143" lon="1.04773">
        <ele>201.9</ele>
        <time>2017-05-28T07:37:27.000Z</time>
      </trkpt>
      <trkpt lat="44.41428" lon="1.04774">
        <ele>201.9</ele>
        <time>2017-05-28T07:37:28.000Z</time>
      </trkpt>
      <trkpt lat="44.41425" lon="1.04775">
        <ele>201.9</ele>
        <time>2017-05-28T07:37:29.000Z</time>
      </trkpt>
      <trkpt lat="44.41423" lon="1.04776">
        <ele>202</ele>
        <time>2017-05-28T07:37:30.000Z</time>
      </trkpt>
      <trkpt lat="44.4142" lon="1.04777">
        <ele>202</ele>
        <time>2017-05-28T07:37:31.000Z</time>
      </trkpt>
      <trkpt lat="44.41418" lon="1.04778">
        <ele>202</ele>
        <time>2017-05-28T07:37:32.000Z</time>
      </trkpt>
      <trkpt lat="44.41415" lon="1.04778">
        <ele>202.1</ele>
        <time>2017-05-28T07:37:33.000Z</time>
      </trkpt>
      <trkpt lat="44.41413" lon="1.04779">
        <ele>202.4</ele>
        <time>2017-05-28T07:37:34.000Z</time>
      </trkpt>
      <trkpt lat="44.41411" lon="1.0478">
        <ele>202.7</ele>
        <time>2017-05-28T07:37:35.000Z</time>
      </trkpt>
      <trkpt lat="44.41408" lon="1.0478">
        <ele>202.9</ele>
        <time>2017-05-28T07:37:36.000Z</time>
      </trkpt>
      <trkpt lat="44.41406" lon="1.04781">
        <ele>203.2</ele>
        <time>2017-05-28T07:37:37.000Z</time>
      </trkpt>
      <trkpt lat="44.41403" lon="1.04781">
        <ele>203.4</ele>
        <time>2017-05-28T07:37:38.000Z</time>
      </trkpt>
      <trkpt lat="44.41401" lon="1.04781">
        <ele>203.7</ele>
        <time>2017-05-28T07:37:39.000Z</time>
      </trkpt>
      <trkpt lat="44.41399" lon="1.04782">
        <ele>203.9</ele>
        <time>2017-05-28T07:37:40.000Z</time>
      </trkpt>
      <trkpt lat="44.41397" lon="1.04782">
        <ele>204.1</ele>
        <time>2017-05-28T07:37:41.000Z</time>
      </trkpt>
      <trkpt lat="44.41395" lon="1.04782">
        <ele>204.3</ele>
        <time>2017-05-28T07:37:42.000Z</time>
      </trkpt>
      <trkpt lat="44.41393" lon="1.04782">
        <ele>204.6</ele>
        <time>2017-05-28T07:37:43.000Z</time>
      </trkpt>
      <trkpt lat="44.4139" lon="1.04783">
        <ele>204.8</ele>
        <time>2017-05-28T07:37:44.000Z</time>
      </trkpt>
      <trkpt lat="44.41388" lon="1.04783">
        <ele>205</ele>
        <time>2017-05-28T07:37:45.000Z</time>
      </trkpt>
      <trkpt lat="44.41386" lon="1.04784">
        <ele>205.3</ele>
        <time>2017-05-28T07:37:46.000Z</time>
      </trkpt>
      <trkpt lat="44.41383" lon="1.04784">
        <ele>205.5</ele>
        <time>2017-05-28T07:37:47.000Z</time>
      </trkpt>
      <trkpt lat="44.41381" lon="1.04785">
        <ele>205.7</ele>
        <time>2017-05-28T07:37:48.000Z</time>
      </trkpt>
      <trkpt lat="44.41379" lon="1.04785">
        <ele>206</ele>
        <time>2017-05-28T07:37:49.000Z</time>
      </trkpt>
      <trkpt lat="44.41376" lon="1.04785">
        <ele>206.2</ele>
        <time>2017-05-28T07:37:50.000Z</time>
      </trkpt>
      <trkpt lat="44.41374" lon="1.04785">
        <ele>206.5</ele>
        <time>2017-05-28T07:37:51.000Z</time>
      </trkpt>
      <trkpt lat="44.41372" lon="1.04785">
        <ele>206.7</ele>
        <time>2017-05-28T07:37:52.000Z</time>
      </trkpt>
      <trkpt lat="44.4137" lon="1.04785">
        <ele>206.9</ele>
        <time>2017-05-28T07:37:53.000Z</time>
      </trkpt>
      <trkpt lat="44.41369" lon="1.04785">
        <ele>207.1</ele>
        <time>2017-05-28T07:37:54.000Z</time>
      </trkpt>
      <trkpt lat="44.41367" lon="1.04785">
        <ele>207.3</ele>
        <time>2017-05-28T07:37:55.000Z</time>
      </trkpt>
      <trkpt lat="44.41365" lon="1.04785">
        <ele>207.4</ele>
        <time>2017-05-28T07:37:56.000Z</time>
      </trkpt>
      <trkpt lat="44.41363" lon="1.04785">
        <ele>207.7</ele>
        <time>2017-05-28T07:37:57.000Z</time>
      </trkpt>
      <trkpt lat="44.41361" lon="1.04785">
        <ele>207.9</ele>
        <time>2017-05-28T07:37:58.000Z</time>
      </trkpt>
      <trkpt lat="44.41359" lon="1.04786">
        <ele>208.1</ele>
        <time>2017-05-28T07:37:59.000Z</time>
      </trkpt>
      <trkpt lat="44.41356" lon="1.04786">
        <ele>208.3</ele>
        <time>2017-05-28T07:38:00.000Z</time>
      </trkpt>
      <trkpt lat="44.41354" lon="1.04786">
        <ele>208.5</ele>
        <time>2017-05-28T07:38:01.000Z</time>
      </trkpt>
      <trkpt lat="44.41352" lon="1.04787">
        <ele>208.7</ele>
        <time>2017-05-28T07:38:02.000Z</time>
      </trkpt>
      <trkpt lat="44.4135" lon="1.04787">
        <ele>208.9</ele>
        <time>2017-05-28T07:38:03.000Z</time>
      </trkpt>
      <trkpt lat="44.41348" lon="1.04788">
        <ele>209.2</ele>
        <time>2017-05-28T07:38:04.000Z</time>
      </trkpt>
      <trkpt lat="44.41346" lon="1.04788">
        <ele>209.4</ele>
        <time>2017-05-28T07:38:05.000Z</time>
      </trkpt>
      <trkpt lat="44.41344" lon="1.04789">
        <ele>209.5</ele>
        <time>2017-05-28T07:38:06.000Z</time>
      </trkpt>
      <trkpt lat="44.41342" lon="1.0479">
        <ele>209.7</ele>
        <time>2017-05-28T07:38:07.000Z</time>
      </trkpt>
      <trkpt lat="44.41339" lon="1.0479">
        <ele>209.9</ele>
        <time>2017-05-28T07:38:08.000Z</time>
      </trkpt>
      <trkpt lat="44.41337" lon="1.04791">
        <ele>210.1</ele>
        <time>2017-05-28T07:38:09.000Z</time>
      </trkpt>
      <trkpt lat="44.41335" lon="1.04791">
        <ele>210.3</ele>
        <time>2017-05-28T07:38:10.000Z</time>
      </trkpt>
      <trkpt lat="44.41333" lon="1.04792">
        <ele>210.5</ele>
        <time>2017-05-28T07:38:11.000Z</time>
      </trkpt>
      <trkpt lat="44.41331" lon="1.04793">
        <ele>210.5</ele>
        <time>2017-05-28T07:38:12.000Z</time>
      </trkpt>
      <trkpt lat="44.41329" lon="1.04794">
        <ele>210.6</ele>
        <time>2017-05-28T07:38:13.000Z</time>
      </trkpt>
      <trkpt lat="44.41327" lon="1.04794">
        <ele>210.6</ele>
        <time>2017-05-28T07:38:14.000Z</time>
      </trkpt>
      <trkpt lat="44.41325" lon="1.04795">
        <ele>210.7</ele>
        <time>2017-05-28T07:38:15.000Z</time>
      </trkpt>
      <trkpt lat="44.41323" lon="1.04796">
        <ele>210.8</ele>
        <time>2017-05-28T07:38:16.000Z</time>
      </trkpt>
      <trkpt lat="44.41321" lon="1.04796">
        <ele>210.8</ele>
        <time>2017-05-28T07:38:17.000Z</time>
      </trkpt>
      <trkpt lat="44.41319" lon="1.04797">
        <ele>210.9</ele>
        <time>2017-05-28T07:38:18.000Z</time>
      </trkpt>
      <trkpt lat="44.41317" lon="1.04798">
        <ele>210.9</ele>
        <time>2017-05-28T07:38:19.000Z</time>
      </trkpt>
      <trkpt lat="44.41316" lon="1.04799">
        <ele>211</ele>
        <time>2017-05-28T07:38:20.000Z</time>
      </trkpt>
      <trkpt lat="44.41314" lon="1.048">
        <ele>211.1</ele>
        <time>2017-05-28T07:38:21.000Z</time>
      </trkpt>
      <trkpt lat="44.41312" lon="1.048">
        <ele>211.1</ele>
        <time>2017-05-28T07:38:22.000Z</time>
      </trkpt>
      <trkpt lat="44.4131" lon="1.04801">
        <ele>211.2</ele>
        <time>2017-05-28T07:38:23.000Z</time>
      </trkpt>
      <trkpt lat="44.41309" lon="1.04802">
        <ele>211.2</ele>
        <time>2017-05-28T07:38:24.000Z</time>
      </trkpt>
      <trkpt lat="44.41307" lon="1.04803">
        <ele>211.3</ele>
        <time>2017-05-28T07:38:25.000Z</time>
      </trkpt>
      <trkpt lat="44.41306" lon="1.04804">
        <ele>211.3</ele>
        <time>2017-05-28T07:38:26.000Z</time>
      </trkpt>
      <trkpt lat="44.41305" lon="1.04805">
        <ele>211.4</ele>
        <time>2017-05-28T07:38:27.000Z</time>
      </trkpt>
      <trkpt lat="44.41303" lon="1.04806">
        <ele>211.5</ele>
        <time>2017-05-28T07:38:28.000Z</time>
      </trkpt>
      <trkpt lat="44.41302" lon="1.04807">
        <ele>211.5</ele>
        <time>2017-05-28T07:38:29.000Z</time>
      </trkpt>
      <trkpt lat="44.413" lon="1.04808">
        <ele>211.6</ele>
        <time>2017-05-28T07:38:30.000Z</time>
      </trkpt>
      <trkpt lat="44.41299" lon="1.04808">
        <ele>211.6</ele>
        <time>2017-05-28T07:38:31.000Z</time>
      </trkpt>
      <trkpt lat="44.41298" lon="1.04809">
        <ele>211.7</ele>
        <time>2017-05-28T07:38:32.000Z</time>
      </trkpt>
      <trkpt lat="44.41296" lon="1.0481">
        <ele>211.8</ele>
        <time>2017-05-28T07:38:33.000Z</time>
      </trkpt>
      <trkpt lat="44.41295" lon="1.04811">
        <ele>211.8</ele>
        <time>2017-05-28T07:38:34.000Z</time>
      </trkpt>
      <trkpt lat="44.41293" lon="1.04813">
        <ele>211.9</ele>
        <time>2017-05-28T07:38:35.000Z</time>
      </trkpt>
      <trkpt lat="44.41292" lon="1.04814">
        <ele>212</ele>
        <time>2017-05-28T07:38:36.000Z</time>
      </trkpt>
      <trkpt lat="44.4129" lon="1.04815">
        <ele>212.1</ele>
        <time>2017-05-28T07:38:37.000Z</time>
      </trkpt>
      <trkpt lat="44.41288" lon="1.04816">
        <ele>212.2</ele>
        <time>2017-05-28T07:38:38.000Z</time>
      </trkpt>
      <trkpt lat="44.41287" lon="1.04817">
        <ele>212.3</ele>
        <time>2017-05-28T07:38:39.000Z</time>
      </trkpt>
      <trkpt lat="44.41285" lon="1.04818">
        <ele>212.4</ele>
        <time>2017-05-28T07:38:40.000Z</time>
      </trkpt>
      <trkpt lat="44.41283" lon="1.0482">
        <ele>212.5</ele>
        <time>2017-05-28T07:38:41.000Z</time>
      </trkpt>
      <trkpt lat="44.41281" lon="1.04821">
        <ele>212.7</ele>
        <time>2017-05-28T07:38:42.000Z</time>
      </trkpt>
      <trkpt lat="44.41279" lon="1.04823">
        <ele>212.8</ele>
        <time>2017-05-28T07:38:43.000Z</time>
      </trkpt>
      <trkpt lat="44.41277" lon="1.04824">
        <ele>212.9</ele>
        <time>2017-05-28T07:38:44.000Z</time>
      </trkpt>
      <trkpt lat="44.41275" lon="1.04826">
        <ele>213.1</ele>
        <time>2017-05-28T07:38:45.000Z</time>
      </trkpt>
      <trkpt lat="44.41273" lon="1.04828">
        <ele>213.3</ele>
        <time>2017-05-28T07:38:46.000Z</time>
      </trkpt>
      <trkpt lat="44.41271" lon="1.0483">
        <ele>213.5</ele>
        <time>2017-05-28T07:38:47.000Z</time>
      </trkpt>
      <trkpt lat="44.41269" lon="1.04832">
        <ele>213.6</ele>
        <time>2017-05-28T07:38:48.000Z</time>
      </trkpt>
      <trkpt lat="44.41266" lon="1.04835">
        <ele>213.8</ele>
        <time>2017-05-28T07:38:49.000Z</time>
      </trkpt>
      <trkpt lat="44.41264" lon="1.04837">
        <ele>213.8</ele>
        <time>2017-05-28T07:38:50.000Z</time>
      </trkpt>
      <trkpt lat="44.41262" lon="1.04839">
        <ele>213.9</ele>
        <time>2017-05-28T07:38:51.000Z</time>
      </trkpt>
      <trkpt lat="44.4126" lon="1.04841">
        <ele>214</ele>
        <time>2017-05-28T07:38:52.000Z</time>
      </trkpt>
      <trkpt lat="44.41258" lon="1.04844">
        <ele>214</ele>
        <time>2017-05-28T07:38:53.000Z</time>
      </trkpt>
      <trkpt lat="44.41256" lon="1.04846">
        <ele>214.1</ele>
        <time>2017-05-28T07:38:54.000Z</time>
      </trkpt>
      <trkpt lat="44.41254" lon="1.04849">
        <ele>214.1</ele>
        <time>2017-05-28T07:38:55.000Z</time>
      </trkpt>
      <trkpt lat="44.41252" lon="1.04852">
        <ele>214.2</ele>
        <time>2017-05-28T07:38:56.000Z</time>
      </trkpt>
      <trkpt lat="44.4125" lon="1.04855">
        <ele>214.2</ele>
        <time>2017-05-28T07:38:57.000Z</time>
      </trkpt>
      <trkpt lat="44.41248" lon="1.04858">
        <ele>214.1</ele>
        <time>2017-05-28T07:38:58.000Z</time>
      </trkpt>
      <trkpt lat="44.41246" lon="1.04862">
        <ele>214</ele>
        <time>2017-05-28T07:38:59.000Z</time>
      </trkpt>
      <trkpt lat="44.41244" lon="1.04865">
        <ele>213.9</ele>
        <time>2017-05-28T07:39:00.000Z</time>
      </trkpt>
      <trkpt lat="44.41241" lon="1.04869">
        <ele>213.8</ele>
        <time>2017-05-28T07:39:01.000Z</time>
      </trkpt>
      <trkpt lat="44.41239" lon="1.04873">
        <ele>213.7</ele>
        <time>2017-05-28T07:39:02.000Z</time>
      </trkpt>
      <trkpt lat="44.41237" lon="1.04876">
        <ele>213.6</ele>
        <time>2017-05-28T07:39:03.000Z</time>
      </trkpt>
      <trkpt lat="44.41234" lon="1.04879">
        <ele>213.6</ele>
        <time>2017-05-28T07:39:04.000Z</time>
      </trkpt>
      <trkpt lat="44.41232" lon="1.04883">
        <ele>213.6</ele>
        <time>2017-05-28T07:39:05.000Z</time>
      </trkpt>
      <trkpt lat="44.41229" lon="1.04886">
        <ele>213.6</ele>
        <time>2017-05-28T07:39:06.000Z</time>
      </trkpt>
      <trkpt lat="44.41227" lon="1.04889">
        <ele>213.7</ele>
        <time>2017-05-28T07:39:07.000Z</time>
      </trkpt>
      <trkpt lat="44.41224" lon="1.04892">
        <ele>213.7</ele>
        <time>2017-05-28T07:39:08.000Z</time>
      </trkpt>
      <trkpt lat="44.41222" lon="1.04895">
        <ele>213.8</ele>
        <time>2017-05-28T07:39:09.000Z</time>
      </trkpt>
      <trkpt lat="44.4122" lon="1.04898">
        <ele>213.8</ele>
        <time>2017-05-28T07:39:10.000Z</time>
      </trkpt>
      <trkpt lat="44.41217" lon="1.04901">
        <ele>213.9</ele>
        <time>2017-05-28T07:39:11.000Z</time>
      </trkpt>
      <trkpt lat="44.41215" lon="1.04904">
        <ele>214</ele>
        <time>2017-05-28T07:39:12.000Z</time>
      </trkpt>
      <trkpt lat="44.41213" lon="1.04907">
        <ele>214.2</ele>
        <time>2017-05-28T07:39:13.000Z</time>
      </trkpt>
      <trkpt lat="44.41211" lon="1.0491">
        <ele>214.3</ele>
        <time>2017-05-28T07:39:14.000Z</time>
      </trkpt>
      <trkpt lat="44.41208" lon="1.04913">
        <ele>214.5</ele>
        <time>2017-05-28T07:39:15.000Z</time>
      </trkpt>
      <trkpt lat="44.41206" lon="1.04916">
        <ele>214.6</ele>
        <time>2017-05-28T07:39:16.000Z</time>
      </trkpt>
      <trkpt lat="44.41204" lon="1.04919">
        <ele>214.8</ele>
        <time>2017-05-28T07:39:17.000Z</time>
      </trkpt>
      <trkpt lat="44.41202" lon="1.04922">
        <ele>214.9</ele>
        <time>2017-05-28T07:39:18.000Z</time>
      </trkpt>
      <trkpt lat="44.412" lon="1.04925">
        <ele>215.1</ele>
        <time>2017-05-28T07:39:19.000Z</time>
      </trkpt>
      <trkpt lat="44.41197" lon="1.04928">
        <ele>215.3</ele>
        <time>2017-05-28T07:39:20.000Z</time>
      </trkpt>
      <trkpt lat="44.41195" lon="1.04931">
        <ele>215.5</ele>
        <time>2017-05-28T07:39:21.000Z</time>
      </trkpt>
      <trkpt lat="44.41193" lon="1.04934">
        <ele>215.7</ele>
        <time>2017-05-28T07:39:22.000Z</time>
      </trkpt>
      <trkpt lat="44.41191" lon="1.04937">
        <ele>216</ele>
        <time>2017-05-28T07:39:23.000Z</time>
      </trkpt>
      <trkpt lat="44.41189" lon="1.04941">
        <ele>216.2</ele>
        <time>2017-05-28T07:39:24.000Z</time>
      </trkpt>
      <trkpt lat="44.41187" lon="1.04944">
        <ele>216.5</ele>
        <time>2017-05-28T07:39:25.000Z</time>
      </trkpt>
      <trkpt lat="44.41185" lon="1.04947">
        <ele>216.9</ele>
        <time>2017-05-28T07:39:26.000Z</time>
      </trkpt>
      <trkpt lat="44.41183" lon="1.0495">
        <ele>217.2</ele>
        <time>2017-05-28T07:39:27.000Z</time>
      </trkpt>
      <trkpt lat="44.41181" lon="1.04953">
        <ele>217.5</ele>
        <time>2017-05-28T07:39:28.000Z</time>
      </trkpt>
      <trkpt lat="44.41179" lon="1.04956">
        <ele>217.9</ele>
        <time>2017-05-28T07:39:29.000Z</time>
      </trkpt>
      <trkpt lat="44.41177" lon="1.04959">
        <ele>218.3</ele>
        <time>2017-05-28T07:39:30.000Z</time>
      </trkpt>
      <trkpt lat="44.41175" lon="1.04962">
        <ele>218.7</ele>
        <time>2017-05-28T07:39:31.000Z</time>
      </trkpt>
      <trkpt lat="44.41173" lon="1.04965">
        <ele>219.1</ele>
        <time>2017-05-28T07:39:32.000Z</time>
      </trkpt>
      <trkpt lat="44.4117" lon="1.04968">
        <ele>219.6</ele>
        <time>2017-05-28T07:39:33.000Z</time>
      </trkpt>
      <trkpt lat="44.41168" lon="1.04971">
        <ele>220</ele>
        <time>2017-05-28T07:39:34.000Z</time>
      </trkpt>
      <trkpt lat="44.41166" lon="1.04974">
        <ele>220.4</ele>
        <time>2017-05-28T07:39:35.000Z</time>
      </trkpt>
      <trkpt lat="44.41164" lon="1.04976">
        <ele>220.5</ele>
        <time>2017-05-28T07:39:36.000Z</time>
      </trkpt>
      <trkpt lat="44.41162" lon="1.04979">
        <ele>220.6</ele>
        <time>2017-05-28T07:39:37.000Z</time>
      </trkpt>
      <trkpt lat="44.4116" lon="1.04981">
        <ele>220.8</ele>
        <time>2017-05-28T07:39:38.000Z</time>
      </trkpt>
      <trkpt lat="44.41157" lon="1.04984">
        <ele>220.9</ele>
        <time>2017-05-28T07:39:39.000Z</time>
      </trkpt>
      <trkpt lat="44.41155" lon="1.04986">
        <ele>221</ele>
        <time>2017-05-28T07:39:40.000Z</time>
      </trkpt>
      <trkpt lat="44.41153" lon="1.04989">
        <ele>221.1</ele>
        <time>2017-05-28T07:39:41.000Z</time>
      </trkpt>
      <trkpt lat="44.41151" lon="1.04991">
        <ele>221.3</ele>
        <time>2017-05-28T07:39:42.000Z</time>
      </trkpt>
      <trkpt lat="44.41149" lon="1.04994">
        <ele>221.4</ele>
        <time>2017-05-28T07:39:43.000Z</time>
      </trkpt>
      <trkpt lat="44.41147" lon="1.04996">
        <ele>221.5</ele>
        <time>2017-05-28T07:39:44.000Z</time>
      </trkpt>
      <trkpt lat="44.41145" lon="1.04999">
        <ele>221.7</ele>
        <time>2017-05-28T07:39:45.000Z</time>
      </trkpt>
      <trkpt lat="44.41143" lon="1.05001">
        <ele>221.7</ele>
        <time>2017-05-28T07:39:46.000Z</time>
      </trkpt>
      <trkpt lat="44.41141" lon="1.05004">
        <ele>221.8</ele>
        <time>2017-05-28T07:39:47.000Z</time>
      </trkpt>
      <trkpt lat="44.41139" lon="1.05006">
        <ele>221.8</ele>
        <time>2017-05-28T07:39:48.000Z</time>
      </trkpt>
      <trkpt lat="44.41136" lon="1.05008">
        <ele>221.9</ele>
        <time>2017-05-28T07:39:49.000Z</time>
      </trkpt>
      <trkpt lat="44.41134" lon="1.05011">
        <ele>222</ele>
        <time>2017-05-28T07:39:50.000Z</time>
      </trkpt>
      <trkpt lat="44.41131" lon="1.05014">
        <ele>222.1</ele>
        <time>2017-05-28T07:39:51.000Z</time>
      </trkpt>
      <trkpt lat="44.41129" lon="1.05016">
        <ele>222.2</ele>
        <time>2017-05-28T07:39:52.000Z</time>
      </trkpt>
      <trkpt lat="44.41126" lon="1.05019">
        <ele>222.3</ele>
        <time>2017-05-28T07:39:53.000Z</time>
      </trkpt>
      <trkpt lat="44.41123" lon="1.05022">
        <ele>222.4</ele>
        <time>2017-05-28T07:39:54.000Z</time>
      </trkpt>
      <trkpt lat="44.41121" lon="1.05025">
        <ele>222.6</ele>
        <time>2017-05-28T07:39:55.000Z</time>
      </trkpt>
      <trkpt lat="44.41118" lon="1.05028">
        <ele>222.8</ele>
        <time>2017-05-28T07:39:56.000Z</time>
      </trkpt>
      <trkpt lat="44.41116" lon="1.05031">
        <ele>223</ele>
        <time>2017-05-28T07:39:57.000Z</time>
      </trkpt>
      <trkpt lat="44.41114" lon="1.05035">
        <ele>223.2</ele>
        <time>2017-05-28T07:39:58.000Z</time>
      </trkpt>
      <trkpt lat="44.41111" lon="1.05038">
        <ele>223.5</ele>
        <time>2017-05-28T07:39:59.000Z</time>
      </trkpt>
      <trkpt lat="44.41109" lon="1.05042">
        <ele>223.8</ele>
        <time>2017-05-28T07:40:00.000Z</time>
      </trkpt>
      <trkpt lat="44.41107" lon="1.05047">
        <ele>224.1</ele>
        <time>2017-05-28T07:40:01.000Z</time>
      </trkpt>
      <trkpt lat="44.41106" lon="1.05051">
        <ele>224.4</ele>
        <time>2017-05-28T07:40:02.000Z</time>
      </trkpt>
      <trkpt lat="44.41104" lon="1.05056">
        <ele>224.8</ele>
        <time>2017-05-28T07:40:03.000Z</time>
      </trkpt>
      <trkpt lat="44.41102" lon="1.05061">
        <ele>225.2</ele>
        <time>2017-05-28T07:40:04.000Z</time>
      </trkpt>
      <trkpt lat="44.41101" lon="1.05066">
        <ele>225.6</ele>
        <time>2017-05-28T07:40:05.000Z</time>
      </trkpt>
      <trkpt lat="44.41099" lon="1.05071">
        <ele>226</ele>
        <time>2017-05-28T07:40:06.000Z</time>
      </trkpt>
      <trkpt lat="44.41097" lon="1.05076">
        <ele>226.5</ele>
        <time>2017-05-28T07:40:07.000Z</time>
      </trkpt>
      <trkpt lat="44.41096" lon="1.05081">
        <ele>226.9</ele>
        <time>2017-05-28T07:40:08.000Z</time>
      </trkpt>
      <trkpt lat="44.41094" lon="1.05086">
        <ele>227.2</ele>
        <time>2017-05-28T07:40:09.000Z</time>
      </trkpt>
      <trkpt lat="44.41093" lon="1.05091">
        <ele>227.3</ele>
        <time>2017-05-28T07:40:10.000Z</time>
      </trkpt>
      <trkpt lat="44.41091" lon="1.05095">
        <ele>227.3</ele>
        <time>2017-05-28T07:40:11.000Z</time>
      </trkpt>
      <trkpt lat="44.41089" lon="1.051">
        <ele>227.4</ele>
        <time>2017-05-28T07:40:12.000Z</time>
      </trkpt>
      <trkpt lat="44.41087" lon="1.05104">
        <ele>227.5</ele>
        <time>2017-05-28T07:40:13.000Z</time>
      </trkpt>
      <trkpt lat="44.41086" lon="1.05108">
        <ele>227.6</ele>
        <time>2017-05-28T07:40:14.000Z</time>
      </trkpt>
      <trkpt lat="44.41084" lon="1.05112">
        <ele>227.6</ele>
        <time>2017-05-28T07:40:15.000Z</time>
      </trkpt>
      <trkpt lat="44.41082" lon="1.05116">
        <ele>227.5</ele>
        <time>2017-05-28T07:40:16.000Z</time>
      </trkpt>
      <trkpt lat="44.4108" lon="1.0512">
        <ele>227.3</ele>
        <time>2017-05-28T07:40:17.000Z</time>
      </trkpt>
      <trkpt lat="44.41079" lon="1.05124">
        <ele>227</ele>
        <time>2017-05-28T07:40:18.000Z</time>
      </trkpt>
      <trkpt lat="44.41077" lon="1.05127">
        <ele>226.8</ele>
        <time>2017-05-28T07:40:19.000Z</time>
      </trkpt>
      <trkpt lat="44.41075" lon="1.05131">
        <ele>226.6</ele>
        <time>2017-05-28T07:40:20.000Z</time>
      </trkpt>
      <trkpt lat="44.41074" lon="1.05135">
        <ele>226.4</ele>
        <time>2017-05-28T07:40:21.000Z</time>
      </trkpt>
      <trkpt lat="44.41072" lon="1.0514">
        <ele>226.2</ele>
        <time>2017-05-28T07:40:22.000Z</time>
      </trkpt>
      <trkpt lat="44.4107" lon="1.05144">
        <ele>226.1</ele>
        <time>2017-05-28T07:40:23.000Z</time>
      </trkpt>
      <trkpt lat="44.41069" lon="1.05149">
        <ele>225.9</ele>
        <time>2017-05-28T07:40:24.000Z</time>
      </trkpt>
      <trkpt lat="44.41069" lon="1.05154">
        <ele>225.9</ele>
        <time>2017-05-28T07:40:25.000Z</time>
      </trkpt>
      <trkpt lat="44.41069" lon="1.05158">
        <ele>225.9</ele>
        <time>2017-05-28T07:40:26.000Z</time>
      </trkpt>
      <trkpt lat="44.41071" lon="1.05162">
        <ele>226</ele>
        <time>2017-05-28T07:40:27.000Z</time>
      </trkpt>
      <trkpt lat="44.41073" lon="1.05167">
        <ele>226.1</ele>
        <time>2017-05-28T07:40:28.000Z</time>
      </trkpt>
      <trkpt lat="44.41075" lon="1.05171">
        <ele>226.2</ele>
        <time>2017-05-28T07:40:29.000Z</time>
      </trkpt>
      <trkpt lat="44.41077" lon="1.05176">
        <ele>226.3</ele>
        <time>2017-05-28T07:40:30.000Z</time>
      </trkpt>
      <trkpt lat="44.41079" lon="1.05181">
        <ele>226.4</ele>
        <time>2017-05-28T07:40:31.000Z</time>
      </trkpt>
      <trkpt lat="44.41081" lon="1.05186">
        <ele>226.4</ele>
        <time>2017-05-28T07:40:32.000Z</time>
      </trkpt>
      <trkpt lat="44.41083" lon="1.05192">
        <ele>226.4</ele>
        <time>2017-05-28T07:40:33.000Z</time>
      </trkpt>
      <trkpt lat="44.41086" lon="1.05198">
        <ele>226.2</ele>
        <time>2017-05-28T07:40:34.000Z</time>
      </trkpt>
      <trkpt lat="44.41088" lon="1.05204">
        <ele>226</ele>
        <time>2017-05-28T07:40:35.000Z</time>
      </trkpt>
      <trkpt lat="44.4109" lon="1.05211">
        <ele>225.8</ele>
        <time>2017-05-28T07:40:36.000Z</time>
      </trkpt>
      <trkpt lat="44.41091" lon="1.05218">
        <ele>225.6</ele>
        <time>2017-05-28T07:40:37.000Z</time>
      </trkpt>
      <trkpt lat="44.41093" lon="1.05224">
        <ele>225.4</ele>
        <time>2017-05-28T07:40:38.000Z</time>
      </trkpt>
      <trkpt lat="44.41093" lon="1.05232">
        <ele>225.2</ele>
        <time>2017-05-28T07:40:39.000Z</time>
      </trkpt>
      <trkpt lat="44.41094" lon="1.05239">
        <ele>225.1</ele>
        <time>2017-05-28T07:40:40.000Z</time>
      </trkpt>
      <trkpt lat="44.41094" lon="1.05246">
        <ele>224.9</ele>
        <time>2017-05-28T07:40:41.000Z</time>
      </trkpt>
      <trkpt lat="44.41095" lon="1.05253">
        <ele>224.8</ele>
        <time>2017-05-28T07:40:42.000Z</time>
      </trkpt>
      <trkpt lat="44.41095" lon="1.0526">
        <ele>224.8</ele>
        <time>2017-05-28T07:40:43.000Z</time>
      </trkpt>
      <trkpt lat="44.41095" lon="1.05266">
        <ele>224.7</ele>
        <time>2017-05-28T07:40:44.000Z</time>
      </trkpt>
      <trkpt lat="44.41095" lon="1.05273">
        <ele>224.7</ele>
        <time>2017-05-28T07:40:45.000Z</time>
      </trkpt>
      <trkpt lat="44.41096" lon="1.0528">
        <ele>224.6</ele>
        <time>2017-05-28T07:40:46.000Z</time>
      </trkpt>
      <trkpt lat="44.41096" lon="1.05286">
        <ele>224.5</ele>
        <time>2017-05-28T07:40:47.000Z</time>
      </trkpt>
      <trkpt lat="44.41096" lon="1.05293">
        <ele>224.5</ele>
        <time>2017-05-28T07:40:48.000Z</time>
      </trkpt>
      <trkpt lat="44.41096" lon="1.053">
        <ele>224.4</ele>
        <time>2017-05-28T07:40:49.000Z</time>
      </trkpt>
      <trkpt lat="44.41096" lon="1.05307">
        <ele>224.4</ele>
        <time>2017-05-28T07:40:50.000Z</time>
      </trkpt>
      <trkpt lat="44.41096" lon="1.05314">
        <ele>224.3</ele>
        <time>2017-05-28T07:40:51.000Z</time>
      </trkpt>
      <trkpt lat="44.41096" lon="1.05321">
        <ele>224.3</ele>
        <time>2017-05-28T07:40:52.000Z</time>
      </trkpt>
      <trkpt lat="44.41096" lon="1.05327">
        <ele>224.2</ele>
        <time>2017-05-28T07:40:53.000Z</time>
      </trkpt>
      <trkpt lat="44.41097" lon="1.05334">
        <ele>224.2</ele>
        <time>2017-05-28T07:40:54.000Z</time>
      </trkpt>
      <trkpt lat="44.41098" lon="1.05339">
        <ele>224.2</ele>
        <time>2017-05-28T07:40:55.000Z</time>
      </trkpt>
      <trkpt lat="44.411" lon="1.05344">
        <ele>224.3</ele>
        <time>2017-05-28T07:40:56.000Z</time>
      </trkpt>
      <trkpt lat="44.41102" lon="1.05348">
        <ele>224.4</ele>
        <time>2017-05-28T07:40:57.000Z</time>
      </trkpt>
      <trkpt lat="44.41104" lon="1.05352">
        <ele>224.4</ele>
        <time>2017-05-28T07:40:58.000Z</time>
      </trkpt>
      <trkpt lat="44.41107" lon="1.05354">
        <ele>224.5</ele>
        <time>2017-05-28T07:40:59.000Z</time>
      </trkpt>
      <trkpt lat="44.41109" lon="1.05356">
        <ele>224.5</ele>
        <time>2017-05-28T07:41:00.000Z</time>
      </trkpt>
      <trkpt lat="44.41111" lon="1.05358">
        <ele>224.5</ele>
        <time>2017-05-28T07:41:01.000Z</time>
      </trkpt>
      <trkpt lat="44.41114" lon="1.0536">
        <ele>224.6</ele>
        <time>2017-05-28T07:41:02.000Z</time>
      </trkpt>
      <trkpt lat="44.41116" lon="1.05361">
        <ele>224.6</ele>
        <time>2017-05-28T07:41:03.000Z</time>
      </trkpt>
      <trkpt lat="44.41119" lon="1.05363">
        <ele>224.6</ele>
        <time>2017-05-28T07:41:04.000Z</time>
      </trkpt>
      <trkpt lat="44.41122" lon="1.05365">
        <ele>224.7</ele>
        <time>2017-05-28T07:41:05.000Z</time>
      </trkpt>
      <trkpt lat="44.41125" lon="1.05367">
        <ele>224.7</ele>
        <time>2017-05-28T07:41:06.000Z</time>
      </trkpt>
      <trkpt lat="44.41128" lon="1.05369">
        <ele>224.7</ele>
        <time>2017-05-28T07:41:07.000Z</time>
      </trkpt>
      <trkpt lat="44.41131" lon="1.05371">
        <ele>224.8</ele>
        <time>2017-05-28T07:41:08.000Z</time>
      </trkpt>
      <trkpt lat="44.41135" lon="1.05374">
        <ele>224.8</ele>
        <time>2017-05-28T07:41:09.000Z</time>
      </trkpt>
      <trkpt lat="44.41139" lon="1.05376">
        <ele>224.8</ele>
        <time>2017-05-28T07:41:10.000Z</time>
      </trkpt>
      <trkpt lat="44.41142" lon="1.05378">
        <ele>224.9</ele>
        <time>2017-05-28T07:41:11.000Z</time>
      </trkpt>
      <trkpt lat="44.41146" lon="1.0538">
        <ele>224.9</ele>
        <time>2017-05-28T07:41:12.000Z</time>
      </trkpt>
      <trkpt lat="44.4115" lon="1.05383">
        <ele>224.9</ele>
        <time>2017-05-28T07:41:13.000Z</time>
      </trkpt>
      <trkpt lat="44.41154" lon="1.05385">
        <ele>224.9</ele>
        <time>2017-05-28T07:41:14.000Z</time>
      </trkpt>
      <trkpt lat="44.41159" lon="1.05388">
        <ele>225</ele>
        <time>2017-05-28T07:41:15.000Z</time>
      </trkpt>
      <trkpt lat="44.41163" lon="1.05391">
        <ele>225</ele>
        <time>2017-05-28T07:41:16.000Z</time>
      </trkpt>
      <trkpt lat="44.41168" lon="1.05394">
        <ele>225</ele>
        <time>2017-05-28T07:41:17.000Z</time>
      </trkpt>
      <trkpt lat="44.41172" lon="1.05397">
        <ele>224.8</ele>
        <time>2017-05-28T07:41:18.000Z</time>
      </trkpt>
      <trkpt lat="44.41178" lon="1.054">
        <ele>224.5</ele>
        <time>2017-05-28T07:41:19.000Z</time>
      </trkpt>
      <trkpt lat="44.41183" lon="1.05403">
        <ele>224.3</ele>
        <time>2017-05-28T07:41:20.000Z</time>
      </trkpt>
      <trkpt lat="44.41189" lon="1.05406">
        <ele>224</ele>
        <time>2017-05-28T07:41:21.000Z</time>
      </trkpt>
      <trkpt lat="44.41195" lon="1.05409">
        <ele>223.7</ele>
        <time>2017-05-28T07:41:22.000Z</time>
      </trkpt>
      <trkpt lat="44.41201" lon="1.05413">
        <ele>223.4</ele>
        <time>2017-05-28T07:41:23.000Z</time>
      </trkpt>
      <trkpt lat="44.41206" lon="1.05418">
        <ele>223</ele>
        <time>2017-05-28T07:41:24.000Z</time>
      </trkpt>
      <trkpt lat="44.41211" lon="1.05424">
        <ele>222.4</ele>
        <time>2017-05-28T07:41:25.000Z</time>
      </trkpt>
      <trkpt lat="44.41216" lon="1.05431">
        <ele>221.8</ele>
        <time>2017-05-28T07:41:26.000Z</time>
      </trkpt>
      <trkpt lat="44.4122" lon="1.05439">
        <ele>221.2</ele>
        <time>2017-05-28T07:41:27.000Z</time>
      </trkpt>
      <trkpt lat="44.41223" lon="1.05448">
        <ele>220.5</ele>
        <time>2017-05-28T07:41:28.000Z</time>
      </trkpt>
      <trkpt lat="44.41226" lon="1.05458">
        <ele>219.9</ele>
        <time>2017-05-28T07:41:29.000Z</time>
      </trkpt>
      <trkpt lat="44.41228" lon="1.05467">
        <ele>219.3</ele>
        <time>2017-05-28T07:41:30.000Z</time>
      </trkpt>
      <trkpt lat="44.41229" lon="1.05476">
        <ele>218.8</ele>
        <time>2017-05-28T07:41:31.000Z</time>
      </trkpt>
      <trkpt lat="44.4123" lon="1.05483">
        <ele>218.4</ele>
        <time>2017-05-28T07:41:32.000Z</time>
      </trkpt>
      <trkpt lat="44.4123" lon="1.05486">
        <ele>218.2</ele>
        <time>2017-05-28T07:41:33.000Z</time>
      </trkpt>
      <trkpt lat="44.41229" lon="1.05486">
        <ele>218.2</ele>
        <time>2017-05-28T07:41:34.000Z</time>
      </trkpt>
      <trkpt lat="44.41228" lon="1.05485">
        <ele>218.3</ele>
        <time>2017-05-28T07:41:35.000Z</time>
      </trkpt>
      <trkpt lat="44.41228" lon="1.05482">
        <ele>218.5</ele>
        <time>2017-05-28T07:41:36.000Z</time>
      </trkpt>
      <trkpt lat="44.41227" lon="1.05479">
        <ele>218.7</ele>
        <time>2017-05-28T07:41:37.000Z</time>
      </trkpt>
      <trkpt lat="44.41224" lon="1.05476">
        <ele>218.9</ele>
        <time>2017-05-28T07:41:38.000Z</time>
      </trkpt>
      <trkpt lat="44.41221" lon="1.05476">
        <ele>219.1</ele>
        <time>2017-05-28T07:41:39.000Z</time>
      </trkpt>
      <trkpt lat="44.41216" lon="1.05476">
        <ele>219.2</ele>
        <time>2017-05-28T07:41:40.000Z</time>
      </trkpt>
      <trkpt lat="44.41211" lon="1.05478">
        <ele>219.3</ele>
        <time>2017-05-28T07:41:41.000Z</time>
      </trkpt>
      <trkpt lat="44.41206" lon="1.05479">
        <ele>219.3</ele>
        <time>2017-05-28T07:41:42.000Z</time>
      </trkpt>
      <trkpt lat="44.41201" lon="1.0548">
        <ele>219.4</ele>
        <time>2017-05-28T07:41:43.000Z</time>
      </trkpt>
      <trkpt lat="44.41195" lon="1.05482">
        <ele>219.5</ele>
        <time>2017-05-28T07:41:44.000Z</time>
      </trkpt>
      <trkpt lat="44.4119" lon="1.05483">
        <ele>219.6</ele>
        <time>2017-05-28T07:41:45.000Z</time>
      </trkpt>
      <trkpt lat="44.41185" lon="1.05484">
        <ele>219.6</ele>
        <time>2017-05-28T07:41:46.000Z</time>
      </trkpt>
      <trkpt lat="44.41179" lon="1.05485">
        <ele>219.7</ele>
        <time>2017-05-28T07:41:47.000Z</time>
      </trkpt>
      <trkpt lat="44.41174" lon="1.05486">
        <ele>219.8</ele>
        <time>2017-05-28T07:41:48.000Z</time>
      </trkpt>
      <trkpt lat="44.41169" lon="1.05487">
        <ele>219.9</ele>
        <time>2017-05-28T07:41:49.000Z</time>
      </trkpt>
      <trkpt lat="44.41164" lon="1.05488">
        <ele>219.9</ele>
        <time>2017-05-28T07:41:50.000Z</time>
      </trkpt>
      <trkpt lat="44.4116" lon="1.05489">
        <ele>220</ele>
        <time>2017-05-28T07:41:51.000Z</time>
      </trkpt>
      <trkpt lat="44.41155" lon="1.05489">
        <ele>220</ele>
        <time>2017-05-28T07:41:52.000Z</time>
      </trkpt>
      <trkpt lat="44.4115" lon="1.0549">
        <ele>220.1</ele>
        <time>2017-05-28T07:41:53.000Z</time>
      </trkpt>
      <trkpt lat="44.41146" lon="1.05491">
        <ele>220.1</ele>
        <time>2017-05-28T07:41:54.000Z</time>
      </trkpt>
      <trkpt lat="44.41141" lon="1.05492">
        <ele>220.1</ele>
        <time>2017-05-28T07:41:55.000Z</time>
      </trkpt>
      <trkpt lat="44.41137" lon="1.05493">
        <ele>220.2</ele>
        <time>2017-05-28T07:41:56.000Z</time>
      </trkpt>
      <trkpt lat="44.41132" lon="1.05494">
        <ele>220.2</ele>
        <time>2017-05-28T07:41:57.000Z</time>
      </trkpt>
      <trkpt lat="44.41128" lon="1.05495">
        <ele>220.3</ele>
        <time>2017-05-28T07:41:58.000Z</time>
      </trkpt>
      <trkpt lat="44.41123" lon="1.05496">
        <ele>220.3</ele>
        <time>2017-05-28T07:41:59.000Z</time>
      </trkpt>
      <trkpt lat="44.41119" lon="1.05497">
        <ele>220.3</ele>
        <time>2017-05-28T07:42:00.000Z</time>
      </trkpt>
      <trkpt lat="44.41115" lon="1.05499">
        <ele>220.3</ele>
        <time>2017-05-28T07:42:01.000Z</time>
      </trkpt>
      <trkpt lat="44.4111" lon="1.05501">
        <ele>220.3</ele>
        <time>2017-05-28T07:42:02.000Z</time>
      </trkpt>
      <trkpt lat="44.41106" lon="1.05503">
        <ele>220.3</ele>
        <time>2017-05-28T07:42:03.000Z</time>
      </trkpt>
      <trkpt lat="44.41102" lon="1.05505">
        <ele>220.3</ele>
        <time>2017-05-28T07:42:04.000Z</time>
      </trkpt>
      <trkpt lat="44.41098" lon="1.05507">
        <ele>220.3</ele>
        <time>2017-05-28T07:42:05.000Z</time>
      </trkpt>
      <trkpt lat="44.41094" lon="1.05509">
        <ele>220.3</ele>
        <time>2017-05-28T07:42:06.000Z</time>
      </trkpt>
      <trkpt lat="44.41091" lon="1.05511">
        <ele>220.3</ele>
        <time>2017-05-28T07:42:07.000Z</time>
      </trkpt>
      <trkpt lat="44.41087" lon="1.05514">
        <ele>220.3</ele>
        <time>2017-05-28T07:42:08.000Z</time>
      </trkpt>
      <trkpt lat="44.41083" lon="1.05516">
        <ele>220.3</ele>
        <time>2017-05-28T07:42:09.000Z</time>
      </trkpt>
      <trkpt lat="44.41079" lon="1.05518">
        <ele>220.2</ele>
        <time>2017-05-28T07:42:10.000Z</time>
      </trkpt>
      <trkpt lat="44.41076" lon="1.0552">
        <ele>220.2</ele>
        <time>2017-05-28T07:42:11.000Z</time>
      </trkpt>
      <trkpt lat="44.41072" lon="1.05522">
        <ele>220.2</ele>
        <time>2017-05-28T07:42:12.000Z</time>
      </trkpt>
      <trkpt lat="44.41069" lon="1.05524">
        <ele>220.2</ele>
        <time>2017-05-28T07:42:13.000Z</time>
      </trkpt>
      <trkpt lat="44.41065" lon="1.05526">
        <ele>220.3</ele>
        <time>2017-05-28T07:42:14.000Z</time>
      </trkpt>
      <trkpt lat="44.41062" lon="1.05527">
        <ele>220.3</ele>
        <time>2017-05-28T07:42:15.000Z</time>
      </trkpt>
      <trkpt lat="44.41058" lon="1.05529">
        <ele>220.3</ele>
        <time>2017-05-28T07:42:16.000Z</time>
      </trkpt>
      <trkpt lat="44.41055" lon="1.05531">
        <ele>220.4</ele>
        <time>2017-05-28T07:42:17.000Z</time>
      </trkpt>
      <trkpt lat="44.41052" lon="1.05533">
        <ele>220.4</ele>
        <time>2017-05-28T07:42:18.000Z</time>
      </trkpt>
      <trkpt lat="44.41048" lon="1.05535">
        <ele>220.5</ele>
        <time>2017-05-28T07:42:19.000Z</time>
      </trkpt>
      <trkpt lat="44.41045" lon="1.05537">
        <ele>220.5</ele>
        <time>2017-05-28T07:42:20.000Z</time>
      </trkpt>
      <trkpt lat="44.41042" lon="1.05539">
        <ele>220.6</ele>
        <time>2017-05-28T07:42:21.000Z</time>
      </trkpt>
      <trkpt lat="44.41039" lon="1.05541">
        <ele>220.6</ele>
        <time>2017-05-28T07:42:22.000Z</time>
      </trkpt>
      <trkpt lat="44.41036" lon="1.05543">
        <ele>220.7</ele>
        <time>2017-05-28T07:42:23.000Z</time>
      </trkpt>
      <trkpt lat="44.41033" lon="1.05546">
        <ele>220.7</ele>
        <time>2017-05-28T07:42:24.000Z</time>
      </trkpt>
      <trkpt lat="44.4103" lon="1.05548">
        <ele>220.8</ele>
        <time>2017-05-28T07:42:25.000Z</time>
      </trkpt>
      <trkpt lat="44.41027" lon="1.05551">
        <ele>220.9</ele>
        <time>2017-05-28T07:42:26.000Z</time>
      </trkpt>
      <trkpt lat="44.41024" lon="1.05554">
        <ele>221</ele>
        <time>2017-05-28T07:42:27.000Z</time>
      </trkpt>
      <trkpt lat="44.41021" lon="1.05557">
        <ele>221.1</ele>
        <time>2017-05-28T07:42:28.000Z</time>
      </trkpt>
      <trkpt lat="44.41018" lon="1.0556">
        <ele>221.2</ele>
        <time>2017-05-28T07:42:29.000Z</time>
      </trkpt>
      <trkpt lat="44.41015" lon="1.05562">
        <ele>221.3</ele>
        <time>2017-05-28T07:42:30.000Z</time>
      </trkpt>
      <trkpt lat="44.41012" lon="1.05565">
        <ele>221.4</ele>
        <time>2017-05-28T07:42:31.000Z</time>
      </trkpt>
      <trkpt lat="44.41009" lon="1.05568">
        <ele>221.5</ele>
        <time>2017-05-28T07:42:32.000Z</time>
      </trkpt>
      <trkpt lat="44.41006" lon="1.05571">
        <ele>221.7</ele>
        <time>2017-05-28T07:42:33.000Z</time>
      </trkpt>
      <trkpt lat="44.41003" lon="1.05574">
        <ele>221.8</ele>
        <time>2017-05-28T07:42:34.000Z</time>
      </trkpt>
      <trkpt lat="44.41" lon="1.05576">
        <ele>222</ele>
        <time>2017-05-28T07:42:35.000Z</time>
      </trkpt>
      <trkpt lat="44.40997" lon="1.05579">
        <ele>222.2</ele>
        <time>2017-05-28T07:42:36.000Z</time>
      </trkpt>
      <trkpt lat="44.40994" lon="1.05581">
        <ele>222.3</ele>
        <time>2017-05-28T07:42:37.000Z</time>
      </trkpt>
      <trkpt lat="44.40991" lon="1.05583">
        <ele>222.5</ele>
        <time>2017-05-28T07:42:38.000Z</time>
      </trkpt>
      <trkpt lat="44.40988" lon="1.05584">
        <ele>222.7</ele>
        <time>2017-05-28T07:42:39.000Z</time>
      </trkpt>
      <trkpt lat="44.40985" lon="1.05586">
        <ele>222.9</ele>
        <time>2017-05-28T07:42:40.000Z</time>
      </trkpt>
      <trkpt lat="44.40982" lon="1.05587">
        <ele>223.2</ele>
        <time>2017-05-28T07:42:41.000Z</time>
      </trkpt>
      <trkpt lat="44.40979" lon="1.05589">
        <ele>223.4</ele>
        <time>2017-05-28T07:42:42.000Z</time>
      </trkpt>
      <trkpt lat="44.40976" lon="1.05591">
        <ele>223.6</ele>
        <time>2017-05-28T07:42:43.000Z</time>
      </trkpt>
      <trkpt lat="44.40972" lon="1.05592">
        <ele>223.9</ele>
        <time>2017-05-28T07:42:44.000Z</time>
      </trkpt>
      <trkpt lat="44.40969" lon="1.05594">
        <ele>224.1</ele>
        <time>2017-05-28T07:42:45.000Z</time>
      </trkpt>
      <trkpt lat="44.40966" lon="1.05596">
        <ele>224.4</ele>
        <time>2017-05-28T07:42:46.000Z</time>
      </trkpt>
      <trkpt lat="44.40964" lon="1.05599">
        <ele>224.7</ele>
        <time>2017-05-28T07:42:47.000Z</time>
      </trkpt>
      <trkpt lat="44.40961" lon="1.05601">
        <ele>225</ele>
        <time>2017-05-28T07:42:48.000Z</time>
      </trkpt>
      <trkpt lat="44.40959" lon="1.05604">
        <ele>225.3</ele>
        <time>2017-05-28T07:42:49.000Z</time>
      </trkpt>
      <trkpt lat="44.40957" lon="1.05607">
        <ele>225.6</ele>
        <time>2017-05-28T07:42:50.000Z</time>
      </trkpt>
      <trkpt lat="44.40955" lon="1.05609">
        <ele>225.9</ele>
        <time>2017-05-28T07:42:51.000Z</time>
      </trkpt>
      <trkpt lat="44.40953" lon="1.05612">
        <ele>226.2</ele>
        <time>2017-05-28T07:42:52.000Z</time>
      </trkpt>
      <trkpt lat="44.40952" lon="1.05614">
        <ele>226.4</ele>
        <time>2017-05-28T07:42:53.000Z</time>
      </trkpt>
      <trkpt lat="44.40951" lon="1.05615">
        <ele>226.6</ele>
        <time>2017-05-28T07:42:54.000Z</time>
      </trkpt>
      <trkpt lat="44.40949" lon="1.05617">
        <ele>226.9</ele>
        <time>2017-05-28T07:42:55.000Z</time>
      </trkpt>
      <trkpt lat="44.40948" lon="1.05618">
        <ele>227.1</ele>
        <time>2017-05-28T07:42:56.000Z</time>
      </trkpt>
      <trkpt lat="44.40946" lon="1.05619">
        <ele>227.3</ele>
        <time>2017-05-28T07:42:57.000Z</time>
      </trkpt>
      <trkpt lat="44.40944" lon="1.0562">
        <ele>227.6</ele>
        <time>2017-05-28T07:42:58.000Z</time>
      </trkpt>
      <trkpt lat="44.40942" lon="1.05621">
        <ele>227.8</ele>
        <time>2017-05-28T07:42:59.000Z</time>
      </trkpt>
      <trkpt lat="44.40941" lon="1.05621">
        <ele>228</ele>
        <time>2017-05-28T07:43:00.000Z</time>
      </trkpt>
      <trkpt lat="44.40939" lon="1.05621">
        <ele>228.2</ele>
        <time>2017-05-28T07:43:01.000Z</time>
      </trkpt>
      <trkpt lat="44.40937" lon="1.05622">
        <ele>228.4</ele>
        <time>2017-05-28T07:43:02.000Z</time>
      </trkpt>
      <trkpt lat="44.40935" lon="1.05622">
        <ele>228.6</ele>
        <time>2017-05-28T07:43:03.000Z</time>
      </trkpt>
      <trkpt lat="44.40934" lon="1.05622">
        <ele>228.8</ele>
        <time>2017-05-28T07:43:04.000Z</time>
      </trkpt>
      <trkpt lat="44.40932" lon="1.05622">
        <ele>229</ele>
        <time>2017-05-28T07:43:05.000Z</time>
      </trkpt>
      <trkpt lat="44.4093" lon="1.05621">
        <ele>229.2</ele>
        <time>2017-05-28T07:43:06.000Z</time>
      </trkpt>
      <trkpt lat="44.40928" lon="1.05621">
        <ele>229.4</ele>
        <time>2017-05-28T07:43:07.000Z</time>
      </trkpt>
      <trkpt lat="44.40926" lon="1.05621">
        <ele>229.6</ele>
        <time>2017-05-28T07:43:08.000Z</time>
      </trkpt>
      <trkpt lat="44.40925" lon="1.05621">
        <ele>229.8</ele>
        <time>2017-05-28T07:43:09.000Z</time>
      </trkpt>
      <trkpt lat="44.40923" lon="1.05621">
        <ele>230</ele>
        <time>2017-05-28T07:43:10.000Z</time>
      </trkpt>
      <trkpt lat="44.40921" lon="1.05621">
        <ele>230.1</ele>
        <time>2017-05-28T07:43:11.000Z</time>
      </trkpt>
      <trkpt lat="44.40919" lon="1.0562">
        <ele>230.3</ele>
        <time>2017-05-28T07:43:12.000Z</time>
      </trkpt>
      <trkpt lat="44.40918" lon="1.0562">
        <ele>230.4</ele>
        <time>2017-05-28T07:43:13.000Z</time>
      </trkpt>
      <trkpt lat="44.40916" lon="1.0562">
        <ele>230.5</ele>
        <time>2017-05-28T07:43:14.000Z</time>
      </trkpt>
      <trkpt lat="44.40914" lon="1.05619">
        <ele>230.6</ele>
        <time>2017-05-28T07:43:15.000Z</time>
      </trkpt>
      <trkpt lat="44.40913" lon="1.05619">
        <ele>230.6</ele>
        <time>2017-05-28T07:43:16.000Z</time>
      </trkpt>
      <trkpt lat="44.40911" lon="1.05619">
        <ele>230.7</ele>
        <time>2017-05-28T07:43:17.000Z</time>
      </trkpt>
      <trkpt lat="44.4091" lon="1.05619">
        <ele>230.8</ele>
        <time>2017-05-28T07:43:18.000Z</time>
      </trkpt>
      <trkpt lat="44.40908" lon="1.05618">
        <ele>230.9</ele>
        <time>2017-05-28T07:43:19.000Z</time>
      </trkpt>
      <trkpt lat="44.40907" lon="1.05618">
        <ele>230.9</ele>
        <time>2017-05-28T07:43:20.000Z</time>
      </trkpt>
      <trkpt lat="44.40905" lon="1.05618">
        <ele>231</ele>
        <time>2017-05-28T07:43:21.000Z</time>
      </trkpt>
      <trkpt lat="44.40903" lon="1.05618">
        <ele>231.2</ele>
        <time>2017-05-28T07:43:22.000Z</time>
      </trkpt>
      <trkpt lat="44.40902" lon="1.05619">
        <ele>231.3</ele>
        <time>2017-05-28T07:43:23.000Z</time>
      </trkpt>
      <trkpt lat="44.409" lon="1.05619">
        <ele>231.4</ele>
        <time>2017-05-28T07:43:24.000Z</time>
      </trkpt>
      <trkpt lat="44.40898" lon="1.05619">
        <ele>231.5</ele>
        <time>2017-05-28T07:43:25.000Z</time>
      </trkpt>
      <trkpt lat="44.40897" lon="1.0562">
        <ele>231.7</ele>
        <time>2017-05-28T07:43:26.000Z</time>
      </trkpt>
      <trkpt lat="44.40895" lon="1.05621">
        <ele>231.8</ele>
        <time>2017-05-28T07:43:27.000Z</time>
      </trkpt>
      <trkpt lat="44.40894" lon="1.05621">
        <ele>232</ele>
        <time>2017-05-28T07:43:28.000Z</time>
      </trkpt>
      <trkpt lat="44.40892" lon="1.05622">
        <ele>232.2</ele>
        <time>2017-05-28T07:43:29.000Z</time>
      </trkpt>
      <trkpt lat="44.40891" lon="1.05623">
        <ele>232.4</ele>
        <time>2017-05-28T07:43:30.000Z</time>
      </trkpt>
      <trkpt lat="44.4089" lon="1.05624">
        <ele>232.5</ele>
        <time>2017-05-28T07:43:31.000Z</time>
      </trkpt>
      <trkpt lat="44.40889" lon="1.05625">
        <ele>232.7</ele>
        <time>2017-05-28T07:43:32.000Z</time>
      </trkpt>
      <trkpt lat="44.40888" lon="1.05627">
        <ele>232.9</ele>
        <time>2017-05-28T07:43:33.000Z</time>
      </trkpt>
      <trkpt lat="44.40887" lon="1.05628">
        <ele>233.1</ele>
        <time>2017-05-28T07:43:34.000Z</time>
      </trkpt>
      <trkpt lat="44.40886" lon="1.0563">
        <ele>233.3</ele>
        <time>2017-05-28T07:43:35.000Z</time>
      </trkpt>
      <trkpt lat="44.40886" lon="1.05631">
        <ele>233.5</ele>
        <time>2017-05-28T07:43:36.000Z</time>
      </trkpt>
      <trkpt lat="44.40885" lon="1.05633">
        <ele>233.7</ele>
        <time>2017-05-28T07:43:37.000Z</time>
      </trkpt>
      <trkpt lat="44.40885" lon="1.05634">
        <ele>233.9</ele>
        <time>2017-05-28T07:43:38.000Z</time>
      </trkpt>
      <trkpt lat="44.40885" lon="1.05636">
        <ele>234.1</ele>
        <time>2017-05-28T07:43:39.000Z</time>
      </trkpt>
      <trkpt lat="44.40885" lon="1.05638">
        <ele>234.3</ele>
        <time>2017-05-28T07:43:40.000Z</time>
      </trkpt>
      <trkpt lat="44.40885" lon="1.0564">
        <ele>234.4</ele>
        <time>2017-05-28T07:43:41.000Z</time>
      </trkpt>
      <trkpt lat="44.40885" lon="1.05641">
        <ele>234.6</ele>
        <time>2017-05-28T07:43:42.000Z</time>
      </trkpt>
      <trkpt lat="44.40885" lon="1.05643">
        <ele>234.8</ele>
        <time>2017-05-28T07:43:43.000Z</time>
      </trkpt>
      <trkpt lat="44.40885" lon="1.05645">
        <ele>235</ele>
        <time>2017-05-28T07:43:44.000Z</time>
      </trkpt>
      <trkpt lat="44.40885" lon="1.05647">
        <ele>235.2</ele>
        <time>2017-05-28T07:43:45.000Z</time>
      </trkpt>
      <trkpt lat="44.40885" lon="1.05649">
        <ele>235.4</ele>
        <time>2017-05-28T07:43:46.000Z</time>
      </trkpt>
      <trkpt lat="44.40885" lon="1.05651">
        <ele>235.7</ele>
        <time>2017-05-28T07:43:47.000Z</time>
      </trkpt>
      <trkpt lat="44.40885" lon="1.05653">
        <ele>235.9</ele>
        <time>2017-05-28T07:43:48.000Z</time>
      </trkpt>
      <trkpt lat="44.40884" lon="1.05655">
        <ele>236.1</ele>
        <time>2017-05-28T07:43:49.000Z</time>
      </trkpt>
      <trkpt lat="44.40884" lon="1.05657">
        <ele>236.3</ele>
        <time>2017-05-28T07:43:50.000Z</time>
      </trkpt>
      <trkpt lat="44.40884" lon="1.05659">
        <ele>236.6</ele>
        <time>2017-05-28T07:43:51.000Z</time>
      </trkpt>
      <trkpt lat="44.40883" lon="1.05661">
        <ele>236.8</ele>
        <time>2017-05-28T07:43:52.000Z</time>
      </trkpt>
      <trkpt lat="44.40882" lon="1.05662">
        <ele>237</ele>
        <time>2017-05-28T07:43:53.000Z</time>
      </trkpt>
      <trkpt lat="44.40881" lon="1.05663">
        <ele>237.2</ele>
        <time>2017-05-28T07:43:54.000Z</time>
      </trkpt>
      <trkpt lat="44.4088" lon="1.05664">
        <ele>237.4</ele>
        <time>2017-05-28T07:43:55.000Z</time>
      </trkpt>
      <trkpt lat="44.40878" lon="1.05664">
        <ele>237.5</ele>
        <time>2017-05-28T07:43:56.000Z</time>
      </trkpt>
      <trkpt lat="44.40876" lon="1.05665">
        <ele>237.7</ele>
        <time>2017-05-28T07:43:57.000Z</time>
      </trkpt>
      <trkpt lat="44.40875" lon="1.05665">
        <ele>237.8</ele>
        <time>2017-05-28T07:43:58.000Z</time>
      </trkpt>
      <trkpt lat="44.40873" lon="1.05665">
        <ele>238</ele>
        <time>2017-05-28T07:43:59.000Z</time>
      </trkpt>
      <trkpt lat="44.40871" lon="1.05666">
        <ele>238.2</ele>
        <time>2017-05-28T07:44:00.000Z</time>
      </trkpt>
      <trkpt lat="44.40869" lon="1.05666">
        <ele>238.4</ele>
        <time>2017-05-28T07:44:01.000Z</time>
      </trkpt>
      <trkpt lat="44.40867" lon="1.05667">
        <ele>238.6</ele>
        <time>2017-05-28T07:44:02.000Z</time>
      </trkpt>
      <trkpt lat="44.40865" lon="1.05667">
        <ele>238.7</ele>
        <time>2017-05-28T07:44:03.000Z</time>
      </trkpt>
      <trkpt lat="44.40863" lon="1.05667">
        <ele>238.9</ele>
        <time>2017-05-28T07:44:04.000Z</time>
      </trkpt>
      <trkpt lat="44.4086" lon="1.05667">
        <ele>239</ele>
        <time>2017-05-28T07:44:05.000Z</time>
      </trkpt>
      <trkpt lat="44.40858" lon="1.05667">
        <ele>239.2</ele>
        <time>2017-05-28T07:44:06.000Z</time>
      </trkpt>
      <trkpt lat="44.40856" lon="1.05667">
        <ele>239.4</ele>
        <time>2017-05-28T07:44:07.000Z</time>
      </trkpt>
      <trkpt lat="44.40854" lon="1.05667">
        <ele>239.5</ele>
        <time>2017-05-28T07:44:08.000Z</time>
      </trkpt>
      <trkpt lat="44.40852" lon="1.05667">
        <ele>239.6</ele>
        <time>2017-05-28T07:44:09.000Z</time>
      </trkpt>
      <trkpt lat="44.4085" lon="1.05667">
        <ele>239.8</ele>
        <time>2017-05-28T07:44:10.000Z</time>
      </trkpt>
      <trkpt lat="44.40848" lon="1.05667">
        <ele>239.9</ele>
        <time>2017-05-28T07:44:11.000Z</time>
      </trkpt>
      <trkpt lat="44.40847" lon="1.05667">
        <ele>240</ele>
        <time>2017-05-28T07:44:12.000Z</time>
      </trkpt>
      <trkpt lat="44.40844" lon="1.05667">
        <ele>240.2</ele>
        <time>2017-05-28T07:44:13.000Z</time>
      </trkpt>
      <trkpt lat="44.40842" lon="1.05667">
        <ele>240.4</ele>
        <time>2017-05-28T07:44:14.000Z</time>
      </trkpt>
      <trkpt lat="44.4084" lon="1.05668">
        <ele>240.5</ele>
        <time>2017-05-28T07:44:15.000Z</time>
      </trkpt>
      <trkpt lat="44.40837" lon="1.05668">
        <ele>240.7</ele>
        <time>2017-05-28T07:44:16.000Z</time>
      </trkpt>
      <trkpt lat="44.40834" lon="1.05668">
        <ele>240.9</ele>
        <time>2017-05-28T07:44:17.000Z</time>
      </trkpt>
      <trkpt lat="44.40831" lon="1.05668">
        <ele>240.9</ele>
        <time>2017-05-28T07:44:18.000Z</time>
      </trkpt>
      <trkpt lat="44.40828" lon="1.05669">
        <ele>240.8</ele>
        <time>2017-05-28T07:44:19.000Z</time>
      </trkpt>
      <trkpt lat="44.40824" lon="1.05669">
        <ele>240.7</ele>
        <time>2017-05-28T07:44:20.000Z</time>
      </trkpt>
      <trkpt lat="44.40821" lon="1.05669">
        <ele>240.7</ele>
        <time>2017-05-28T07:44:21.000Z</time>
      </trkpt>
      <trkpt lat="44.40818" lon="1.0567">
        <ele>240.6</ele>
        <time>2017-05-28T07:44:22.000Z</time>
      </trkpt>
      <trkpt lat="44.40815" lon="1.0567">
        <ele>240.5</ele>
        <time>2017-05-28T07:44:23.000Z</time>
      </trkpt>
      <trkpt lat="44.40812" lon="1.0567">
        <ele>240.4</ele>
        <time>2017-05-28T07:44:24.000Z</time>
      </trkpt>
      <trkpt lat="44.40809" lon="1.05671">
        <ele>240.3</ele>
        <time>2017-05-28T07:44:25.000Z</time>
      </trkpt>
      <trkpt lat="44.40806" lon="1.05671">
        <ele>240.3</ele>
        <time>2017-05-28T07:44:26.000Z</time>
      </trkpt>
      <trkpt lat="44.40803" lon="1.05671">
        <ele>240.2</ele>
        <time>2017-05-28T07:44:27.000Z</time>
      </trkpt>
      <trkpt lat="44.408" lon="1.05672">
        <ele>240.1</ele>
        <time>2017-05-28T07:44:28.000Z</time>
      </trkpt>
      <trkpt lat="44.40797" lon="1.05672">
        <ele>240</ele>
        <time>2017-05-28T07:44:29.000Z</time>
      </trkpt>
      <trkpt lat="44.40794" lon="1.05673">
        <ele>239.9</ele>
        <time>2017-05-28T07:44:30.000Z</time>
      </trkpt>
      <trkpt lat="44.40791" lon="1.05673">
        <ele>239.9</ele>
        <time>2017-05-28T07:44:31.000Z</time>
      </trkpt>
      <trkpt lat="44.40787" lon="1.05673">
        <ele>239.8</ele>
        <time>2017-05-28T07:44:32.000Z</time>
      </trkpt>
      <trkpt lat="44.40784" lon="1.05673">
        <ele>239.7</ele>
        <time>2017-05-28T07:44:33.000Z</time>
      </trkpt>
      <trkpt lat="44.4078" lon="1.05673">
        <ele>239.6</ele>
        <time>2017-05-28T07:44:34.000Z</time>
      </trkpt>
      <trkpt lat="44.40777" lon="1.05673">
        <ele>239.5</ele>
        <time>2017-05-28T07:44:35.000Z</time>
      </trkpt>
      <trkpt lat="44.40773" lon="1.05673">
        <ele>239.5</ele>
        <time>2017-05-28T07:44:36.000Z</time>
      </trkpt>
      <trkpt lat="44.4077" lon="1.05673">
        <ele>239.4</ele>
        <time>2017-05-28T07:44:37.000Z</time>
      </trkpt>
      <trkpt lat="44.40766" lon="1.05673">
        <ele>239.3</ele>
        <time>2017-05-28T07:44:38.000Z</time>
      </trkpt>
      <trkpt lat="44.40763" lon="1.05673">
        <ele>239.2</ele>
        <time>2017-05-28T07:44:39.000Z</time>
      </trkpt>
      <trkpt lat="44.4076" lon="1.05672">
        <ele>239.2</ele>
        <time>2017-05-28T07:44:40.000Z</time>
      </trkpt>
      <trkpt lat="44.40756" lon="1.05672">
        <ele>239.1</ele>
        <time>2017-05-28T07:44:41.000Z</time>
      </trkpt>
      <trkpt lat="44.40752" lon="1.05672">
        <ele>239</ele>
        <time>2017-05-28T07:44:42.000Z</time>
      </trkpt>
      <trkpt lat="44.40748" lon="1.05672">
        <ele>238.9</ele>
        <time>2017-05-28T07:44:43.000Z</time>
      </trkpt>
      <trkpt lat="44.40744" lon="1.05672">
        <ele>238.8</ele>
        <time>2017-05-28T07:44:44.000Z</time>
      </trkpt>
      <trkpt lat="44.40739" lon="1.05672">
        <ele>238.7</ele>
        <time>2017-05-28T07:44:45.000Z</time>
      </trkpt>
      <trkpt lat="44.40735" lon="1.05671">
        <ele>238.6</ele>
        <time>2017-05-28T07:44:46.000Z</time>
      </trkpt>
      <trkpt lat="44.40731" lon="1.05669">
        <ele>238.5</ele>
        <time>2017-05-28T07:44:47.000Z</time>
      </trkpt>
      <trkpt lat="44.40727" lon="1.05668">
        <ele>238.4</ele>
        <time>2017-05-28T07:44:48.000Z</time>
      </trkpt>
      <trkpt lat="44.40724" lon="1.05668">
        <ele>238.4</ele>
        <time>2017-05-28T07:44:49.000Z</time>
      </trkpt>
      <trkpt lat="44.40722" lon="1.05667">
        <ele>238.3</ele>
        <time>2017-05-28T07:44:50.000Z</time>
      </trkpt>
      <trkpt lat="44.4072" lon="1.05667">
        <ele>238.3</ele>
        <time>2017-05-28T07:44:51.000Z</time>
      </trkpt>
      <trkpt lat="44.40718" lon="1.05666">
        <ele>238.2</ele>
        <time>2017-05-28T07:44:52.000Z</time>
      </trkpt>
      <trkpt lat="44.40716" lon="1.05665">
        <ele>238</ele>
        <time>2017-05-28T07:44:53.000Z</time>
      </trkpt>
      <trkpt lat="44.40714" lon="1.05664">
        <ele>237.9</ele>
        <time>2017-05-28T07:44:54.000Z</time>
      </trkpt>
      <trkpt lat="44.40712" lon="1.05663">
        <ele>237.7</ele>
        <time>2017-05-28T07:44:55.000Z</time>
      </trkpt>
      <trkpt lat="44.40709" lon="1.05662">
        <ele>237.6</ele>
        <time>2017-05-28T07:44:56.000Z</time>
      </trkpt>
      <trkpt lat="44.40706" lon="1.05661">
        <ele>237.5</ele>
        <time>2017-05-28T07:44:57.000Z</time>
      </trkpt>
      <trkpt lat="44.40702" lon="1.0566">
        <ele>237.3</ele>
        <time>2017-05-28T07:44:58.000Z</time>
      </trkpt>
      <trkpt lat="44.40698" lon="1.05659">
        <ele>237.2</ele>
        <time>2017-05-28T07:44:59.000Z</time>
      </trkpt>
      <trkpt lat="44.40694" lon="1.05659">
        <ele>237</ele>
        <time>2017-05-28T07:45:00.000Z</time>
      </trkpt>
      <trkpt lat="44.40689" lon="1.05658">
        <ele>236.9</ele>
        <time>2017-05-28T07:45:01.000Z</time>
      </trkpt>
      <trkpt lat="44.40684" lon="1.05658">
        <ele>236.7</ele>
        <time>2017-05-28T07:45:02.000Z</time>
      </trkpt>
      <trkpt lat="44.40679" lon="1.05658">
        <ele>236.6</ele>
        <time>2017-05-28T07:45:03.000Z</time>
      </trkpt>
      <trkpt lat="44.40674" lon="1.05658">
        <ele>236.5</ele>
        <time>2017-05-28T07:45:04.000Z</time>
      </trkpt>
      <trkpt lat="44.40668" lon="1.05659">
        <ele>236.5</ele>
        <time>2017-05-28T07:45:05.000Z</time>
      </trkpt>
      <trkpt lat="44.40663" lon="1.0566">
        <ele>236.6</ele>
        <time>2017-05-28T07:45:06.000Z</time>
      </trkpt>
      <trkpt lat="44.40658" lon="1.05662">
        <ele>236.9</ele>
        <time>2017-05-28T07:45:07.000Z</time>
      </trkpt>
      <trkpt lat="44.40653" lon="1.05663">
        <ele>237.2</ele>
        <time>2017-05-28T07:45:08.000Z</time>
      </trkpt>
      <trkpt lat="44.40648" lon="1.05665">
        <ele>237.5</ele>
        <time>2017-05-28T07:45:09.000Z</time>
      </trkpt>
      <trkpt lat="44.40643" lon="1.05666">
        <ele>237.8</ele>
        <time>2017-05-28T07:45:10.000Z</time>
      </trkpt>
      <trkpt lat="44.40638" lon="1.05667">
        <ele>238</ele>
        <time>2017-05-28T07:45:11.000Z</time>
      </trkpt>
      <trkpt lat="44.40633" lon="1.05666">
        <ele>238.2</ele>
        <time>2017-05-28T07:45:12.000Z</time>
      </trkpt>
      <trkpt lat="44.40628" lon="1.05666">
        <ele>238.3</ele>
        <time>2017-05-28T07:45:13.000Z</time>
      </trkpt>
      <trkpt lat="44.40623" lon="1.05664">
        <ele>238.4</ele>
        <time>2017-05-28T07:45:14.000Z</time>
      </trkpt>
      <trkpt lat="44.40617" lon="1.05664">
        <ele>238.5</ele>
        <time>2017-05-28T07:45:15.000Z</time>
      </trkpt>
      <trkpt lat="44.40612" lon="1.05664">
        <ele>238.7</ele>
        <time>2017-05-28T07:45:16.000Z</time>
      </trkpt>
      <trkpt lat="44.40607" lon="1.05665">
        <ele>239</ele>
        <time>2017-05-28T07:45:17.000Z</time>
      </trkpt>
      <trkpt lat="44.40602" lon="1.05667">
        <ele>239.3</ele>
        <time>2017-05-28T07:45:18.000Z</time>
      </trkpt>
      <trkpt lat="44.40597" lon="1.05669">
        <ele>239.5</ele>
        <time>2017-05-28T07:45:19.000Z</time>
      </trkpt>
      <trkpt lat="44.40593" lon="1.05672">
        <ele>239.6</ele>
        <time>2017-05-28T07:45:20.000Z</time>
      </trkpt>
      <trkpt lat="44.40588" lon="1.05674">
        <ele>239.8</ele>
        <time>2017-05-28T07:45:21.000Z</time>
      </trkpt>
      <trkpt lat="44.40584" lon="1.05676">
        <ele>240</ele>
        <time>2017-05-28T07:45:22.000Z</time>
      </trkpt>
      <trkpt lat="44.40579" lon="1.05677">
        <ele>239.9</ele>
        <time>2017-05-28T07:45:23.000Z</time>
      </trkpt>
      <trkpt lat="44.40575" lon="1.05679">
        <ele>239.9</ele>
        <time>2017-05-28T07:45:24.000Z</time>
      </trkpt>
      <trkpt lat="44.40571" lon="1.0568">
        <ele>239.8</ele>
        <time>2017-05-28T07:45:25.000Z</time>
      </trkpt>
      <trkpt lat="44.40566" lon="1.05682">
        <ele>239.8</ele>
        <time>2017-05-28T07:45:26.000Z</time>
      </trkpt>
      <trkpt lat="44.40562" lon="1.05684">
        <ele>239.7</ele>
        <time>2017-05-28T07:45:27.000Z</time>
      </trkpt>
      <trkpt lat="44.40558" lon="1.05685">
        <ele>239.7</ele>
        <time>2017-05-28T07:45:28.000Z</time>
      </trkpt>
      <trkpt lat="44.40554" lon="1.05687">
        <ele>239.6</ele>
        <time>2017-05-28T07:45:29.000Z</time>
      </trkpt>
      <trkpt lat="44.4055" lon="1.05688">
        <ele>239.6</ele>
        <time>2017-05-28T07:45:30.000Z</time>
      </trkpt>
      <trkpt lat="44.40546" lon="1.05689">
        <ele>239.5</ele>
        <time>2017-05-28T07:45:31.000Z</time>
      </trkpt>
      <trkpt lat="44.40542" lon="1.05691">
        <ele>239.5</ele>
        <time>2017-05-28T07:45:32.000Z</time>
      </trkpt>
      <trkpt lat="44.40538" lon="1.05692">
        <ele>239.5</ele>
        <time>2017-05-28T07:45:33.000Z</time>
      </trkpt>
      <trkpt lat="44.40535" lon="1.05694">
        <ele>239.4</ele>
        <time>2017-05-28T07:45:34.000Z</time>
      </trkpt>
      <trkpt lat="44.40531" lon="1.05697">
        <ele>239.4</ele>
        <time>2017-05-28T07:45:35.000Z</time>
      </trkpt>
      <trkpt lat="44.40526" lon="1.057">
        <ele>239.3</ele>
        <time>2017-05-28T07:45:36.000Z</time>
      </trkpt>
      <trkpt lat="44.40522" lon="1.05703">
        <ele>239.3</ele>
        <time>2017-05-28T07:45:37.000Z</time>
      </trkpt>
      <trkpt lat="44.40517" lon="1.05706">
        <ele>239.2</ele>
        <time>2017-05-28T07:45:38.000Z</time>
      </trkpt>
      <trkpt lat="44.40513" lon="1.05708">
        <ele>239.2</ele>
        <time>2017-05-28T07:45:39.000Z</time>
      </trkpt>
      <trkpt lat="44.40508" lon="1.0571">
        <ele>239.1</ele>
        <time>2017-05-28T07:45:40.000Z</time>
      </trkpt>
      <trkpt lat="44.40503" lon="1.05712">
        <ele>239</ele>
        <time>2017-05-28T07:45:41.000Z</time>
      </trkpt>
      <trkpt lat="44.40497" lon="1.05713">
        <ele>239</ele>
        <time>2017-05-28T07:45:42.000Z</time>
      </trkpt>
      <trkpt lat="44.40492" lon="1.05714">
        <ele>238.9</ele>
        <time>2017-05-28T07:45:43.000Z</time>
      </trkpt>
      <trkpt lat="44.40486" lon="1.05715">
        <ele>238.8</ele>
        <time>2017-05-28T07:45:44.000Z</time>
      </trkpt>
      <trkpt lat="44.40481" lon="1.05717">
        <ele>238.8</ele>
        <time>2017-05-28T07:45:45.000Z</time>
      </trkpt>
      <trkpt lat="44.40475" lon="1.0572">
        <ele>238.8</ele>
        <time>2017-05-28T07:45:46.000Z</time>
      </trkpt>
      <trkpt lat="44.4047" lon="1.05723">
        <ele>238.8</ele>
        <time>2017-05-28T07:45:47.000Z</time>
      </trkpt>
      <trkpt lat="44.40464" lon="1.05727">
        <ele>238.8</ele>
        <time>2017-05-28T07:45:48.000Z</time>
      </trkpt>
      <trkpt lat="44.40458" lon="1.05731">
        <ele>238.9</ele>
        <time>2017-05-28T07:45:49.000Z</time>
      </trkpt>
      <trkpt lat="44.40452" lon="1.05735">
        <ele>239.1</ele>
        <time>2017-05-28T07:45:50.000Z</time>
      </trkpt>
      <trkpt lat="44.40446" lon="1.05739">
        <ele>239.2</ele>
        <time>2017-05-28T07:45:51.000Z</time>
      </trkpt>
      <trkpt lat="44.4044" lon="1.05743">
        <ele>239.4</ele>
        <time>2017-05-28T07:45:52.000Z</time>
      </trkpt>
      <trkpt lat="44.40435" lon="1.05748">
        <ele>239.7</ele>
        <time>2017-05-28T07:45:53.000Z</time>
      </trkpt>
      <trkpt lat="44.4043" lon="1.05753">
        <ele>239.6</ele>
        <time>2017-05-28T07:45:54.000Z</time>
      </trkpt>
      <trkpt lat="44.40427" lon="1.05759">
        <ele>239.3</ele>
        <time>2017-05-28T07:45:55.000Z</time>
      </trkpt>
      <trkpt lat="44.40424" lon="1.05765">
        <ele>239</ele>
        <time>2017-05-28T07:45:56.000Z</time>
      </trkpt>
      <trkpt lat="44.40422" lon="1.05772">
        <ele>238.7</ele>
        <time>2017-05-28T07:45:57.000Z</time>
      </trkpt>
      <trkpt lat="44.40419" lon="1.05779">
        <ele>238.5</ele>
        <time>2017-05-28T07:45:58.000Z</time>
      </trkpt>
      <trkpt lat="44.40416" lon="1.05785">
        <ele>238.3</ele>
        <time>2017-05-28T07:45:59.000Z</time>
      </trkpt>
      <trkpt lat="44.40413" lon="1.05791">
        <ele>238.4</ele>
        <time>2017-05-28T07:46:00.000Z</time>
      </trkpt>
      <trkpt lat="44.40409" lon="1.05797">
        <ele>238.5</ele>
        <time>2017-05-28T07:46:01.000Z</time>
      </trkpt>
      <trkpt lat="44.40406" lon="1.05803">
        <ele>238.6</ele>
        <time>2017-05-28T07:46:02.000Z</time>
      </trkpt>
      <trkpt lat="44.40402" lon="1.05809">
        <ele>238.8</ele>
        <time>2017-05-28T07:46:03.000Z</time>
      </trkpt>
      <trkpt lat="44.40398" lon="1.05815">
        <ele>239</ele>
        <time>2017-05-28T07:46:04.000Z</time>
      </trkpt>
      <trkpt lat="44.40395" lon="1.05822">
        <ele>239.2</ele>
        <time>2017-05-28T07:46:05.000Z</time>
      </trkpt>
      <trkpt lat="44.40391" lon="1.05828">
        <ele>239.5</ele>
        <time>2017-05-28T07:46:06.000Z</time>
      </trkpt>
      <trkpt lat="44.40387" lon="1.05835">
        <ele>239.7</ele>
        <time>2017-05-28T07:46:07.000Z</time>
      </trkpt>
      <trkpt lat="44.40384" lon="1.05841">
        <ele>239.5</ele>
        <time>2017-05-28T07:46:08.000Z</time>
      </trkpt>
      <trkpt lat="44.4038" lon="1.05847">
        <ele>239.4</ele>
        <time>2017-05-28T07:46:09.000Z</time>
      </trkpt>
      <trkpt lat="44.40377" lon="1.05854">
        <ele>239.3</ele>
        <time>2017-05-28T07:46:10.000Z</time>
      </trkpt>
      <trkpt lat="44.40373" lon="1.0586">
        <ele>239.2</ele>
        <time>2017-05-28T07:46:11.000Z</time>
      </trkpt>
      <trkpt lat="44.4037" lon="1.05867">
        <ele>239.1</ele>
        <time>2017-05-28T07:46:12.000Z</time>
      </trkpt>
      <trkpt lat="44.40366" lon="1.05874">
        <ele>239</ele>
        <time>2017-05-28T07:46:13.000Z</time>
      </trkpt>
      <trkpt lat="44.40362" lon="1.05882">
        <ele>238.9</ele>
        <time>2017-05-28T07:46:14.000Z</time>
      </trkpt>
      <trkpt lat="44.40358" lon="1.05889">
        <ele>238.9</ele>
        <time>2017-05-28T07:46:15.000Z</time>
      </trkpt>
      <trkpt lat="44.40354" lon="1.05897">
        <ele>238.9</ele>
        <time>2017-05-28T07:46:16.000Z</time>
      </trkpt>
      <trkpt lat="44.4035" lon="1.05905">
        <ele>238.9</ele>
        <time>2017-05-28T07:46:17.000Z</time>
      </trkpt>
      <trkpt lat="44.40346" lon="1.05912">
        <ele>239.1</ele>
        <time>2017-05-28T07:46:18.000Z</time>
      </trkpt>
      <trkpt lat="44.40342" lon="1.0592">
        <ele>239.1</ele>
        <time>2017-05-28T07:46:19.000Z</time>
      </trkpt>
      <trkpt lat="44.40337" lon="1.05927">
        <ele>239</ele>
        <time>2017-05-28T07:46:20.000Z</time>
      </trkpt>
      <trkpt lat="44.40332" lon="1.05934">
        <ele>238.8</ele>
        <time>2017-05-28T07:46:21.000Z</time>
      </trkpt>
      <trkpt lat="44.40327" lon="1.05941">
        <ele>238.3</ele>
        <time>2017-05-28T07:46:22.000Z</time>
      </trkpt>
      <trkpt lat="44.40322" lon="1.05947">
        <ele>237.9</ele>
        <time>2017-05-28T07:46:23.000Z</time>
      </trkpt>
      <trkpt lat="44.40317" lon="1.05953">
        <ele>237.6</ele>
        <time>2017-05-28T07:46:24.000Z</time>
      </trkpt>
      <trkpt lat="44.40312" lon="1.05958">
        <ele>237.3</ele>
        <time>2017-05-28T07:46:25.000Z</time>
      </trkpt>
      <trkpt lat="44.40306" lon="1.05963">
        <ele>237.2</ele>
        <time>2017-05-28T07:46:26.000Z</time>
      </trkpt>
      <trkpt lat="44.403" lon="1.05968">
        <ele>237.2</ele>
        <time>2017-05-28T07:46:27.000Z</time>
      </trkpt>
      <trkpt lat="44.40295" lon="1.05973">
        <ele>237.2</ele>
        <time>2017-05-28T07:46:28.000Z</time>
      </trkpt>
      <trkpt lat="44.40289" lon="1.05977">
        <ele>237.2</ele>
        <time>2017-05-28T07:46:29.000Z</time>
      </trkpt>
      <trkpt lat="44.40284" lon="1.05982">
        <ele>237.3</ele>
        <time>2017-05-28T07:46:30.000Z</time>
      </trkpt>
      <trkpt lat="44.40278" lon="1.05986">
        <ele>237.3</ele>
        <time>2017-05-28T07:46:31.000Z</time>
      </trkpt>
      <trkpt lat="44.40273" lon="1.05991">
        <ele>237.4</ele>
        <time>2017-05-28T07:46:32.000Z</time>
      </trkpt>
      <trkpt lat="44.40268" lon="1.05996">
        <ele>237.4</ele>
        <time>2017-05-28T07:46:33.000Z</time>
      </trkpt>
      <trkpt lat="44.40264" lon="1.06001">
        <ele>237.4</ele>
        <time>2017-05-28T07:46:34.000Z</time>
      </trkpt>
      <trkpt lat="44.40261" lon="1.06005">
        <ele>237.7</ele>
        <time>2017-05-28T07:46:35.000Z</time>
      </trkpt>
      <trkpt lat="44.40257" lon="1.0601">
        <ele>237.8</ele>
        <time>2017-05-28T07:46:36.000Z</time>
      </trkpt>
      <trkpt lat="44.40254" lon="1.06016">
        <ele>238</ele>
        <time>2017-05-28T07:46:37.000Z</time>
      </trkpt>
      <trkpt lat="44.40251" lon="1.06022">
        <ele>238.1</ele>
        <time>2017-05-28T07:46:38.000Z</time>
      </trkpt>
      <trkpt lat="44.40248" lon="1.06028">
        <ele>238.1</ele>
        <time>2017-05-28T07:46:39.000Z</time>
      </trkpt>
      <trkpt lat="44.40245" lon="1.06036">
        <ele>238.1</ele>
        <time>2017-05-28T07:46:40.000Z</time>
      </trkpt>
      <trkpt lat="44.40242" lon="1.06043">
        <ele>238.2</ele>
        <time>2017-05-28T07:46:41.000Z</time>
      </trkpt>
      <trkpt lat="44.40239" lon="1.06051">
        <ele>238.2</ele>
        <time>2017-05-28T07:46:42.000Z</time>
      </trkpt>
      <trkpt lat="44.40236" lon="1.06059">
        <ele>238.2</ele>
        <time>2017-05-28T07:46:43.000Z</time>
      </trkpt>
      <trkpt lat="44.40233" lon="1.06067">
        <ele>238.3</ele>
        <time>2017-05-28T07:46:44.000Z</time>
      </trkpt>
      <trkpt lat="44.4023" lon="1.06075">
        <ele>238.4</ele>
        <time>2017-05-28T07:46:45.000Z</time>
      </trkpt>
      <trkpt lat="44.40226" lon="1.06083">
        <ele>238.6</ele>
        <time>2017-05-28T07:46:46.000Z</time>
      </trkpt>
      <trkpt lat="44.40223" lon="1.06091">
        <ele>239</ele>
        <time>2017-05-28T07:46:47.000Z</time>
      </trkpt>
      <trkpt lat="44.40219" lon="1.06098">
        <ele>239.3</ele>
        <time>2017-05-28T07:46:48.000Z</time>
      </trkpt>
      <trkpt lat="44.40216" lon="1.06104">
        <ele>239.7</ele>
        <time>2017-05-28T07:46:49.000Z</time>
      </trkpt>
      <trkpt lat="44.40213" lon="1.06108">
        <ele>240</ele>
        <time>2017-05-28T07:46:50.000Z</time>
      </trkpt>
      <trkpt lat="44.4021" lon="1.06111">
        <ele>240.4</ele>
        <time>2017-05-28T07:46:51.000Z</time>
      </trkpt>
      <trkpt lat="44.40207" lon="1.06111">
        <ele>240.6</ele>
        <time>2017-05-28T07:46:52.000Z</time>
      </trkpt>
      <trkpt lat="44.40205" lon="1.06108">
        <ele>240.9</ele>
        <time>2017-05-28T07:46:53.000Z</time>
      </trkpt>
      <trkpt lat="44.40202" lon="1.06105">
        <ele>241.1</ele>
        <time>2017-05-28T07:46:54.000Z</time>
      </trkpt>
      <trkpt lat="44.402" lon="1.061">
        <ele>241.4</ele>
        <time>2017-05-28T07:46:55.000Z</time>
      </trkpt>
      <trkpt lat="44.40197" lon="1.06096">
        <ele>241.7</ele>
        <time>2017-05-28T07:46:56.000Z</time>
      </trkpt>
      <trkpt lat="44.40194" lon="1.06092">
        <ele>242</ele>
        <time>2017-05-28T07:46:57.000Z</time>
      </trkpt>
      <trkpt lat="44.40191" lon="1.06087">
        <ele>242.3</ele>
        <time>2017-05-28T07:46:58.000Z</time>
      </trkpt>
      <trkpt lat="44.40189" lon="1.06083">
        <ele>242.6</ele>
        <time>2017-05-28T07:46:59.000Z</time>
      </trkpt>
      <trkpt lat="44.40186" lon="1.06079">
        <ele>243</ele>
        <time>2017-05-28T07:47:00.000Z</time>
      </trkpt>
      <trkpt lat="44.40183" lon="1.06074">
        <ele>243.3</ele>
        <time>2017-05-28T07:47:01.000Z</time>
      </trkpt>
      <trkpt lat="44.4018" lon="1.06069">
        <ele>243.6</ele>
        <time>2017-05-28T07:47:02.000Z</time>
      </trkpt>
      <trkpt lat="44.40178" lon="1.06065">
        <ele>243.9</ele>
        <time>2017-05-28T07:47:03.000Z</time>
      </trkpt>
      <trkpt lat="44.40175" lon="1.0606">
        <ele>244.2</ele>
        <time>2017-05-28T07:47:04.000Z</time>
      </trkpt>
      <trkpt lat="44.40172" lon="1.06054">
        <ele>244.5</ele>
        <time>2017-05-28T07:47:05.000Z</time>
      </trkpt>
      <trkpt lat="44.4017" lon="1.06049">
        <ele>244.7</ele>
        <time>2017-05-28T07:47:06.000Z</time>
      </trkpt>
      <trkpt lat="44.40167" lon="1.06044">
        <ele>245</ele>
        <time>2017-05-28T07:47:07.000Z</time>
      </trkpt>
      <trkpt lat="44.40165" lon="1.06038">
        <ele>245.2</ele>
        <time>2017-05-28T07:47:08.000Z</time>
      </trkpt>
      <trkpt lat="44.40162" lon="1.06033">
        <ele>245.3</ele>
        <time>2017-05-28T07:47:09.000Z</time>
      </trkpt>
      <trkpt lat="44.4016" lon="1.06027">
        <ele>245.5</ele>
        <time>2017-05-28T07:47:10.000Z</time>
      </trkpt>
      <trkpt lat="44.40157" lon="1.06022">
        <ele>245.7</ele>
        <time>2017-05-28T07:47:11.000Z</time>
      </trkpt>
      <trkpt lat="44.40155" lon="1.06017">
        <ele>245.8</ele>
        <time>2017-05-28T07:47:12.000Z</time>
      </trkpt>
      <trkpt lat="44.40152" lon="1.06012">
        <ele>246</ele>
        <time>2017-05-28T07:47:13.000Z</time>
      </trkpt>
      <trkpt lat="44.40149" lon="1.06007">
        <ele>246.1</ele>
        <time>2017-05-28T07:47:14.000Z</time>
      </trkpt>
      <trkpt lat="44.40147" lon="1.06002">
        <ele>246.2</ele>
        <time>2017-05-28T07:47:15.000Z</time>
      </trkpt>
      <trkpt lat="44.40144" lon="1.05997">
        <ele>246.4</ele>
        <time>2017-05-28T07:47:16.000Z</time>
      </trkpt>
      <trkpt lat="44.40141" lon="1.05993">
        <ele>246.5</ele>
        <time>2017-05-28T07:47:17.000Z</time>
      </trkpt>
      <trkpt lat="44.40138" lon="1.05989">
        <ele>246.6</ele>
        <time>2017-05-28T07:47:18.000Z</time>
      </trkpt>
      <trkpt lat="44.40136" lon="1.05985">
        <ele>246.7</ele>
        <time>2017-05-28T07:47:19.000Z</time>
      </trkpt>
      <trkpt lat="44.40133" lon="1.0598">
        <ele>246.8</ele>
        <time>2017-05-28T07:47:20.000Z</time>
      </trkpt>
      <trkpt lat="44.4013" lon="1.05976">
        <ele>246.9</ele>
        <time>2017-05-28T07:47:21.000Z</time>
      </trkpt>
      <trkpt lat="44.40127" lon="1.05972">
        <ele>246.9</ele>
        <time>2017-05-28T07:47:22.000Z</time>
      </trkpt>
      <trkpt lat="44.40125" lon="1.05969">
        <ele>246.9</ele>
        <time>2017-05-28T07:47:23.000Z</time>
      </trkpt>
      <trkpt lat="44.40122" lon="1.05965">
        <ele>247</ele>
        <time>2017-05-28T07:47:24.000Z</time>
      </trkpt>
      <trkpt lat="44.40119" lon="1.05961">
        <ele>247</ele>
        <time>2017-05-28T07:47:25.000Z</time>
      </trkpt>
      <trkpt lat="44.40117" lon="1.05957">
        <ele>247</ele>
        <time>2017-05-28T07:47:26.000Z</time>
      </trkpt>
      <trkpt lat="44.40114" lon="1.05953">
        <ele>246.9</ele>
        <time>2017-05-28T07:47:27.000Z</time>
      </trkpt>
      <trkpt lat="44.40111" lon="1.0595">
        <ele>246.9</ele>
        <time>2017-05-28T07:47:28.000Z</time>
      </trkpt>
      <trkpt lat="44.40109" lon="1.05946">
        <ele>246.9</ele>
        <time>2017-05-28T07:47:29.000Z</time>
      </trkpt>
      <trkpt lat="44.40106" lon="1.05942">
        <ele>246.8</ele>
        <time>2017-05-28T07:47:30.000Z</time>
      </trkpt>
      <trkpt lat="44.40103" lon="1.05938">
        <ele>246.7</ele>
        <time>2017-05-28T07:47:31.000Z</time>
      </trkpt>
      <trkpt lat="44.401" lon="1.05933">
        <ele>246.6</ele>
        <time>2017-05-28T07:47:32.000Z</time>
      </trkpt>
      <trkpt lat="44.40097" lon="1.05929">
        <ele>246.5</ele>
        <time>2017-05-28T07:47:33.000Z</time>
      </trkpt>
      <trkpt lat="44.40093" lon="1.05924">
        <ele>246.3</ele>
        <time>2017-05-28T07:47:34.000Z</time>
      </trkpt>
      <trkpt lat="44.4009" lon="1.05919">
        <ele>246.1</ele>
        <time>2017-05-28T07:47:35.000Z</time>
      </trkpt>
      <trkpt lat="44.40086" lon="1.05914">
        <ele>245.8</ele>
        <time>2017-05-28T07:47:36.000Z</time>
      </trkpt>
      <trkpt lat="44.40082" lon="1.05909">
        <ele>245.5</ele>
        <time>2017-05-28T07:47:37.000Z</time>
      </trkpt>
      <trkpt lat="44.40077" lon="1.05904">
        <ele>245.3</ele>
        <time>2017-05-28T07:47:38.000Z</time>
      </trkpt>
      <trkpt lat="44.40073" lon="1.05899">
        <ele>245</ele>
        <time>2017-05-28T07:47:39.000Z</time>
      </trkpt>
      <trkpt lat="44.4007" lon="1.05892">
        <ele>244.6</ele>
        <time>2017-05-28T07:47:40.000Z</time>
      </trkpt>
      <trkpt lat="44.40068" lon="1.05884">
        <ele>244.2</ele>
        <time>2017-05-28T07:47:41.000Z</time>
      </trkpt>
      <trkpt lat="44.40068" lon="1.05876">
        <ele>243.7</ele>
        <time>2017-05-28T07:47:42.000Z</time>
      </trkpt>
      <trkpt lat="44.4007" lon="1.05868">
        <ele>243.3</ele>
        <time>2017-05-28T07:47:43.000Z</time>
      </trkpt>
      <trkpt lat="44.40074" lon="1.05861">
        <ele>242.8</ele>
        <time>2017-05-28T07:47:44.000Z</time>
      </trkpt>
      <trkpt lat="44.40078" lon="1.05854">
        <ele>242.3</ele>
        <time>2017-05-28T07:47:45.000Z</time>
      </trkpt>
      <trkpt lat="44.40082" lon="1.05847">
        <ele>241.8</ele>
        <time>2017-05-28T07:47:46.000Z</time>
      </trkpt>
      <trkpt lat="44.40087" lon="1.0584">
        <ele>241.5</ele>
        <time>2017-05-28T07:47:47.000Z</time>
      </trkpt>
      <trkpt lat="44.40093" lon="1.05834">
        <ele>241.3</ele>
        <time>2017-05-28T07:47:48.000Z</time>
      </trkpt>
      <trkpt lat="44.40099" lon="1.05829">
        <ele>241.4</ele>
        <time>2017-05-28T07:47:49.000Z</time>
      </trkpt>
      <trkpt lat="44.40105" lon="1.05826">
        <ele>241.5</ele>
        <time>2017-05-28T07:47:50.000Z</time>
      </trkpt>
      <trkpt lat="44.40112" lon="1.05822">
        <ele>241.7</ele>
        <time>2017-05-28T07:47:51.000Z</time>
      </trkpt>
      <trkpt lat="44.40118" lon="1.0582">
        <ele>241.8</ele>
        <time>2017-05-28T07:47:52.000Z</time>
      </trkpt>
      <trkpt lat="44.40123" lon="1.05816">
        <ele>241.9</ele>
        <time>2017-05-28T07:47:53.000Z</time>
      </trkpt>
      <trkpt lat="44.40126" lon="1.0581">
        <ele>241.9</ele>
        <time>2017-05-28T07:47:54.000Z</time>
      </trkpt>
      <trkpt lat="44.40127" lon="1.05803">
        <ele>241.8</ele>
        <time>2017-05-28T07:47:55.000Z</time>
      </trkpt>
      <trkpt lat="44.40127" lon="1.05796">
        <ele>241.8</ele>
        <time>2017-05-28T07:47:56.000Z</time>
      </trkpt>
      <trkpt lat="44.40125" lon="1.05789">
        <ele>241.7</ele>
        <time>2017-05-28T07:47:57.000Z</time>
      </trkpt>
      <trkpt lat="44.40124" lon="1.05782">
        <ele>241.7</ele>
        <time>2017-05-28T07:47:58.000Z</time>
      </trkpt>
      <trkpt lat="44.40123" lon="1.05774">
        <ele>241.6</ele>
        <time>2017-05-28T07:47:59.000Z</time>
      </trkpt>
      <trkpt lat="44.40123" lon="1.05767">
        <ele>241.6</ele>
        <time>2017-05-28T07:48:00.000Z</time>
      </trkpt>
      <trkpt lat="44.40123" lon="1.05759">
        <ele>241.6</ele>
        <time>2017-05-28T07:48:01.000Z</time>
      </trkpt>
      <trkpt lat="44.40123" lon="1.05752">
        <ele>241.5</ele>
        <time>2017-05-28T07:48:02.000Z</time>
      </trkpt>
      <trkpt lat="44.40124" lon="1.05745">
        <ele>241.5</ele>
        <time>2017-05-28T07:48:03.000Z</time>
      </trkpt>
      <trkpt lat="44.40125" lon="1.05738">
        <ele>241.5</ele>
        <time>2017-05-28T07:48:04.000Z</time>
      </trkpt>
      <trkpt lat="44.40126" lon="1.05731">
        <ele>241.5</ele>
        <time>2017-05-28T07:48:05.000Z</time>
      </trkpt>
      <trkpt lat="44.40127" lon="1.05724">
        <ele>241.4</ele>
        <time>2017-05-28T07:48:06.000Z</time>
      </trkpt>
      <trkpt lat="44.40129" lon="1.05717">
        <ele>241.4</ele>
        <time>2017-05-28T07:48:07.000Z</time>
      </trkpt>
      <trkpt lat="44.4013" lon="1.0571">
        <ele>241.3</ele>
        <time>2017-05-28T07:48:08.000Z</time>
      </trkpt>
      <trkpt lat="44.40131" lon="1.05703">
        <ele>241.3</ele>
        <time>2017-05-28T07:48:09.000Z</time>
      </trkpt>
      <trkpt lat="44.40132" lon="1.05697">
        <ele>241.2</ele>
        <time>2017-05-28T07:48:10.000Z</time>
      </trkpt>
      <trkpt lat="44.40133" lon="1.0569">
        <ele>241.1</ele>
        <time>2017-05-28T07:48:11.000Z</time>
      </trkpt>
      <trkpt lat="44.40134" lon="1.05683">
        <ele>241</ele>
        <time>2017-05-28T07:48:12.000Z</time>
      </trkpt>
      <trkpt lat="44.40135" lon="1.05677">
        <ele>241</ele>
        <time>2017-05-28T07:48:13.000Z</time>
      </trkpt>
      <trkpt lat="44.40136" lon="1.0567">
        <ele>240.9</ele>
        <time>2017-05-28T07:48:14.000Z</time>
      </trkpt>
      <trkpt lat="44.40137" lon="1.05663">
        <ele>241</ele>
        <time>2017-05-28T07:48:15.000Z</time>
      </trkpt>
      <trkpt lat="44.40137" lon="1.05657">
        <ele>241.2</ele>
        <time>2017-05-28T07:48:16.000Z</time>
      </trkpt>
      <trkpt lat="44.40138" lon="1.05651">
        <ele>241.5</ele>
        <time>2017-05-28T07:48:17.000Z</time>
      </trkpt>
      <trkpt lat="44.40138" lon="1.05644">
        <ele>241.8</ele>
        <time>2017-05-28T07:48:18.000Z</time>
      </trkpt>
      <trkpt lat="44.40139" lon="1.05638">
        <ele>242</ele>
        <time>2017-05-28T07:48:19.000Z</time>
      </trkpt>
      <trkpt lat="44.4014" lon="1.05632">
        <ele>242.3</ele>
        <time>2017-05-28T07:48:20.000Z</time>
      </trkpt>
      <trkpt lat="44.40141" lon="1.05626">
        <ele>242.5</ele>
        <time>2017-05-28T07:48:21.000Z</time>
      </trkpt>
      <trkpt lat="44.40142" lon="1.0562">
        <ele>242.7</ele>
        <time>2017-05-28T07:48:22.000Z</time>
      </trkpt>
      <trkpt lat="44.40143" lon="1.05614">
        <ele>242.9</ele>
        <time>2017-05-28T07:48:23.000Z</time>
      </trkpt>
      <trkpt lat="44.40145" lon="1.05609">
        <ele>243.1</ele>
        <time>2017-05-28T07:48:24.000Z</time>
      </trkpt>
      <trkpt lat="44.40146" lon="1.05603">
        <ele>243.3</ele>
        <time>2017-05-28T07:48:25.000Z</time>
      </trkpt>
      <trkpt lat="44.40149" lon="1.05598">
        <ele>243.4</ele>
        <time>2017-05-28T07:48:26.000Z</time>
      </trkpt>
      <trkpt lat="44.40151" lon="1.05593">
        <ele>243.5</ele>
        <time>2017-05-28T07:48:27.000Z</time>
      </trkpt>
      <trkpt lat="44.40153" lon="1.05588">
        <ele>243.6</ele>
        <time>2017-05-28T07:48:28.000Z</time>
      </trkpt>
      <trkpt lat="44.40155" lon="1.05583">
        <ele>243.7</ele>
        <time>2017-05-28T07:48:29.000Z</time>
      </trkpt>
      <trkpt lat="44.40157" lon="1.05579">
        <ele>243.9</ele>
        <time>2017-05-28T07:48:30.000Z</time>
      </trkpt>
      <trkpt lat="44.40158" lon="1.05575">
        <ele>244.1</ele>
        <time>2017-05-28T07:48:31.000Z</time>
      </trkpt>
      <trkpt lat="44.4016" lon="1.05571">
        <ele>244.2</ele>
        <time>2017-05-28T07:48:32.000Z</time>
      </trkpt>
      <trkpt lat="44.40161" lon="1.05568">
        <ele>244.4</ele>
        <time>2017-05-28T07:48:33.000Z</time>
      </trkpt>
      <trkpt lat="44.40162" lon="1.05565">
        <ele>244.6</ele>
        <time>2017-05-28T07:48:34.000Z</time>
      </trkpt>
      <trkpt lat="44.40163" lon="1.05562">
        <ele>244.7</ele>
        <time>2017-05-28T07:48:35.000Z</time>
      </trkpt>
      <trkpt lat="44.40164" lon="1.05558">
        <ele>244.9</ele>
        <time>2017-05-28T07:48:36.000Z</time>
      </trkpt>
      <trkpt lat="44.40165" lon="1.05555">
        <ele>245.1</ele>
        <time>2017-05-28T07:48:37.000Z</time>
      </trkpt>
      <trkpt lat="44.40166" lon="1.05552">
        <ele>245.3</ele>
        <time>2017-05-28T07:48:38.000Z</time>
      </trkpt>
      <trkpt lat="44.40167" lon="1.05549">
        <ele>245.4</ele>
        <time>2017-05-28T07:48:39.000Z</time>
      </trkpt>
      <trkpt lat="44.40168" lon="1.05546">
        <ele>245.6</ele>
        <time>2017-05-28T07:48:40.000Z</time>
      </trkpt>
      <trkpt lat="44.4017" lon="1.05543">
        <ele>245.7</ele>
        <time>2017-05-28T07:48:41.000Z</time>
      </trkpt>
      <trkpt lat="44.40171" lon="1.0554">
        <ele>245.9</ele>
        <time>2017-05-28T07:48:42.000Z</time>
      </trkpt>
      <trkpt lat="44.40172" lon="1.05536">
        <ele>246.1</ele>
        <time>2017-05-28T07:48:43.000Z</time>
      </trkpt>
      <trkpt lat="44.40173" lon="1.05532">
        <ele>246.3</ele>
        <time>2017-05-28T07:48:44.000Z</time>
      </trkpt>
      <trkpt lat="44.40174" lon="1.05529">
        <ele>246.5</ele>
        <time>2017-05-28T07:48:45.000Z</time>
      </trkpt>
      <trkpt lat="44.40175" lon="1.05525">
        <ele>246.7</ele>
        <time>2017-05-28T07:48:46.000Z</time>
      </trkpt>
      <trkpt lat="44.40176" lon="1.05521">
        <ele>246.9</ele>
        <time>2017-05-28T07:48:47.000Z</time>
      </trkpt>
      <trkpt lat="44.40177" lon="1.05517">
        <ele>247.2</ele>
        <time>2017-05-28T07:48:48.000Z</time>
      </trkpt>
      <trkpt lat="44.40178" lon="1.05513">
        <ele>247.4</ele>
        <time>2017-05-28T07:48:49.000Z</time>
      </trkpt>
      <trkpt lat="44.40179" lon="1.05509">
        <ele>247.7</ele>
        <time>2017-05-28T07:48:50.000Z</time>
      </trkpt>
      <trkpt lat="44.4018" lon="1.05504">
        <ele>247.9</ele>
        <time>2017-05-28T07:48:51.000Z</time>
      </trkpt>
      <trkpt lat="44.4018" lon="1.055">
        <ele>248.2</ele>
        <time>2017-05-28T07:48:52.000Z</time>
      </trkpt>
      <trkpt lat="44.40181" lon="1.05496">
        <ele>248.1</ele>
        <time>2017-05-28T07:48:53.000Z</time>
      </trkpt>
      <trkpt lat="44.40182" lon="1.05492">
        <ele>248</ele>
        <time>2017-05-28T07:48:54.000Z</time>
      </trkpt>
      <trkpt lat="44.40182" lon="1.05488">
        <ele>247.9</ele>
        <time>2017-05-28T07:48:55.000Z</time>
      </trkpt>
      <trkpt lat="44.40183" lon="1.05484">
        <ele>247.8</ele>
        <time>2017-05-28T07:48:56.000Z</time>
      </trkpt>
      <trkpt lat="44.40183" lon="1.0548">
        <ele>247.8</ele>
        <time>2017-05-28T07:48:57.000Z</time>
      </trkpt>
      <trkpt lat="44.40184" lon="1.05476">
        <ele>247.7</ele>
        <time>2017-05-28T07:48:58.000Z</time>
      </trkpt>
      <trkpt lat="44.40184" lon="1.05471">
        <ele>247.6</ele>
        <time>2017-05-28T07:48:59.000Z</time>
      </trkpt>
      <trkpt lat="44.40184" lon="1.05466">
        <ele>247.6</ele>
        <time>2017-05-28T07:49:00.000Z</time>
      </trkpt>
      <trkpt lat="44.40185" lon="1.05461">
        <ele>247.5</ele>
        <time>2017-05-28T07:49:01.000Z</time>
      </trkpt>
      <trkpt lat="44.40185" lon="1.05456">
        <ele>247.4</ele>
        <time>2017-05-28T07:49:02.000Z</time>
      </trkpt>
      <trkpt lat="44.40185" lon="1.05451">
        <ele>247.4</ele>
        <time>2017-05-28T07:49:03.000Z</time>
      </trkpt>
      <trkpt lat="44.40185" lon="1.05446">
        <ele>247.3</ele>
        <time>2017-05-28T07:49:04.000Z</time>
      </trkpt>
      <trkpt lat="44.40185" lon="1.05441">
        <ele>247.3</ele>
        <time>2017-05-28T07:49:05.000Z</time>
      </trkpt>
      <trkpt lat="44.40185" lon="1.05436">
        <ele>247.2</ele>
        <time>2017-05-28T07:49:06.000Z</time>
      </trkpt>
      <trkpt lat="44.40185" lon="1.0543">
        <ele>247.1</ele>
        <time>2017-05-28T07:49:07.000Z</time>
      </trkpt>
      <trkpt lat="44.40185" lon="1.05424">
        <ele>247.1</ele>
        <time>2017-05-28T07:49:08.000Z</time>
      </trkpt>
      <trkpt lat="44.40185" lon="1.05418">
        <ele>247</ele>
        <time>2017-05-28T07:49:09.000Z</time>
      </trkpt>
      <trkpt lat="44.40185" lon="1.05411">
        <ele>246.8</ele>
        <time>2017-05-28T07:49:10.000Z</time>
      </trkpt>
      <trkpt lat="44.40185" lon="1.05403">
        <ele>246.6</ele>
        <time>2017-05-28T07:49:11.000Z</time>
      </trkpt>
      <trkpt lat="44.40184" lon="1.05396">
        <ele>246.3</ele>
        <time>2017-05-28T07:49:12.000Z</time>
      </trkpt>
      <trkpt lat="44.40182" lon="1.0539">
        <ele>246.1</ele>
        <time>2017-05-28T07:49:13.000Z</time>
      </trkpt>
      <trkpt lat="44.40178" lon="1.05386">
        <ele>245.9</ele>
        <time>2017-05-28T07:49:14.000Z</time>
      </trkpt>
      <trkpt lat="44.40174" lon="1.05382">
        <ele>245.8</ele>
        <time>2017-05-28T07:49:15.000Z</time>
      </trkpt>
      <trkpt lat="44.40169" lon="1.0538">
        <ele>245.7</ele>
        <time>2017-05-28T07:49:16.000Z</time>
      </trkpt>
      <trkpt lat="44.40164" lon="1.05379">
        <ele>245.7</ele>
        <time>2017-05-28T07:49:17.000Z</time>
      </trkpt>
      <trkpt lat="44.40159" lon="1.05379">
        <ele>245.9</ele>
        <time>2017-05-28T07:49:18.000Z</time>
      </trkpt>
      <trkpt lat="44.40154" lon="1.05379">
        <ele>246.1</ele>
        <time>2017-05-28T07:49:19.000Z</time>
      </trkpt>
      <trkpt lat="44.40149" lon="1.05378">
        <ele>246.3</ele>
        <time>2017-05-28T07:49:20.000Z</time>
      </trkpt>
      <trkpt lat="44.40144" lon="1.05378">
        <ele>246.6</ele>
        <time>2017-05-28T07:49:21.000Z</time>
      </trkpt>
      <trkpt lat="44.40138" lon="1.05378">
        <ele>246.8</ele>
        <time>2017-05-28T07:49:22.000Z</time>
      </trkpt>
      <trkpt lat="44.40133" lon="1.05377">
        <ele>247</ele>
        <time>2017-05-28T07:49:23.000Z</time>
      </trkpt>
      <trkpt lat="44.40127" lon="1.05377">
        <ele>247.2</ele>
        <time>2017-05-28T07:49:24.000Z</time>
      </trkpt>
      <trkpt lat="44.40122" lon="1.05377">
        <ele>247.4</ele>
        <time>2017-05-28T07:49:25.000Z</time>
      </trkpt>
      <trkpt lat="44.40117" lon="1.05377">
        <ele>247.6</ele>
        <time>2017-05-28T07:49:26.000Z</time>
      </trkpt>
      <trkpt lat="44.40112" lon="1.05377">
        <ele>247.8</ele>
        <time>2017-05-28T07:49:27.000Z</time>
      </trkpt>
      <trkpt lat="44.40107" lon="1.05378">
        <ele>248</ele>
        <time>2017-05-28T07:49:28.000Z</time>
      </trkpt>
      <trkpt lat="44.40102" lon="1.05379">
        <ele>248.2</ele>
        <time>2017-05-28T07:49:29.000Z</time>
      </trkpt>
      <trkpt lat="44.40098" lon="1.0538">
        <ele>248.4</ele>
        <time>2017-05-28T07:49:30.000Z</time>
      </trkpt>
      <trkpt lat="44.40093" lon="1.05381">
        <ele>248.6</ele>
        <time>2017-05-28T07:49:31.000Z</time>
      </trkpt>
      <trkpt lat="44.40089" lon="1.05381">
        <ele>248.8</ele>
        <time>2017-05-28T07:49:32.000Z</time>
      </trkpt>
      <trkpt lat="44.40084" lon="1.05382">
        <ele>249</ele>
        <time>2017-05-28T07:49:33.000Z</time>
      </trkpt>
      <trkpt lat="44.4008" lon="1.05382">
        <ele>249.1</ele>
        <time>2017-05-28T07:49:34.000Z</time>
      </trkpt>
      <trkpt lat="44.40075" lon="1.05382">
        <ele>249.2</ele>
        <time>2017-05-28T07:49:35.000Z</time>
      </trkpt>
      <trkpt lat="44.40071" lon="1.05382">
        <ele>249.4</ele>
        <time>2017-05-28T07:49:36.000Z</time>
      </trkpt>
      <trkpt lat="44.40067" lon="1.05383">
        <ele>249.5</ele>
        <time>2017-05-28T07:49:37.000Z</time>
      </trkpt>
      <trkpt lat="44.40063" lon="1.05383">
        <ele>249.6</ele>
        <time>2017-05-28T07:49:38.000Z</time>
      </trkpt>
      <trkpt lat="44.40059" lon="1.05384">
        <ele>249.8</ele>
        <time>2017-05-28T07:49:39.000Z</time>
      </trkpt>
      <trkpt lat="44.40055" lon="1.05385">
        <ele>249.9</ele>
        <time>2017-05-28T07:49:40.000Z</time>
      </trkpt>
      <trkpt lat="44.40051" lon="1.05386">
        <ele>250</ele>
        <time>2017-05-28T07:49:41.000Z</time>
      </trkpt>
      <trkpt lat="44.40048" lon="1.05387">
        <ele>250.1</ele>
        <time>2017-05-28T07:49:42.000Z</time>
      </trkpt>
      <trkpt lat="44.40045" lon="1.05388">
        <ele>250.2</ele>
        <time>2017-05-28T07:49:43.000Z</time>
      </trkpt>
      <trkpt lat="44.40041" lon="1.05388">
        <ele>250.3</ele>
        <time>2017-05-28T07:49:44.000Z</time>
      </trkpt>
      <trkpt lat="44.40038" lon="1.05388">
        <ele>250.4</ele>
        <time>2017-05-28T07:49:45.000Z</time>
      </trkpt>
      <trkpt lat="44.40035" lon="1.05389">
        <ele>250.6</ele>
        <time>2017-05-28T07:49:46.000Z</time>
      </trkpt>
      <trkpt lat="44.40031" lon="1.05389">
        <ele>250.7</ele>
        <time>2017-05-28T07:49:47.000Z</time>
      </trkpt>
      <trkpt lat="44.40028" lon="1.05391">
        <ele>250.8</ele>
        <time>2017-05-28T07:49:48.000Z</time>
      </trkpt>
      <trkpt lat="44.40025" lon="1.05392">
        <ele>250.9</ele>
        <time>2017-05-28T07:49:49.000Z</time>
      </trkpt>
      <trkpt lat="44.40022" lon="1.05394">
        <ele>251</ele>
        <time>2017-05-28T07:49:50.000Z</time>
      </trkpt>
      <trkpt lat="44.4002" lon="1.05395">
        <ele>251.1</ele>
        <time>2017-05-28T07:49:51.000Z</time>
      </trkpt>
      <trkpt lat="44.40018" lon="1.05396">
        <ele>251.2</ele>
        <time>2017-05-28T07:49:52.000Z</time>
      </trkpt>
      <trkpt lat="44.40015" lon="1.05397">
        <ele>251.3</ele>
        <time>2017-05-28T07:49:53.000Z</time>
      </trkpt>
      <trkpt lat="44.40013" lon="1.05398">
        <ele>251.3</ele>
        <time>2017-05-28T07:49:54.000Z</time>
      </trkpt>
      <trkpt lat="44.40011" lon="1.05399">
        <ele>251.4</ele>
        <time>2017-05-28T07:49:55.000Z</time>
      </trkpt>
      <trkpt lat="44.40009" lon="1.054">
        <ele>251.5</ele>
        <time>2017-05-28T07:49:56.000Z</time>
      </trkpt>
      <trkpt lat="44.40006" lon="1.05401">
        <ele>251.6</ele>
        <time>2017-05-28T07:49:57.000Z</time>
      </trkpt>
      <trkpt lat="44.40003" lon="1.05403">
        <ele>251.7</ele>
        <time>2017-05-28T07:49:58.000Z</time>
      </trkpt>
      <trkpt lat="44.4" lon="1.05405">
        <ele>251.8</ele>
        <time>2017-05-28T07:49:59.000Z</time>
      </trkpt>
      <trkpt lat="44.39997" lon="1.05407">
        <ele>251.8</ele>
        <time>2017-05-28T07:50:00.000Z</time>
      </trkpt>
      <trkpt lat="44.39995" lon="1.05409">
        <ele>251.7</ele>
        <time>2017-05-28T07:50:01.000Z</time>
      </trkpt>
      <trkpt lat="44.39992" lon="1.05411">
        <ele>251.6</ele>
        <time>2017-05-28T07:50:02.000Z</time>
      </trkpt>
      <trkpt lat="44.39989" lon="1.05413">
        <ele>251.6</ele>
        <time>2017-05-28T07:50:03.000Z</time>
      </trkpt>
      <trkpt lat="44.39986" lon="1.05416">
        <ele>251.5</ele>
        <time>2017-05-28T07:50:04.000Z</time>
      </trkpt>
      <trkpt lat="44.39983" lon="1.05418">
        <ele>251.4</ele>
        <time>2017-05-28T07:50:05.000Z</time>
      </trkpt>
      <trkpt lat="44.3998" lon="1.05421">
        <ele>251.2</ele>
        <time>2017-05-28T07:50:06.000Z</time>
      </trkpt>
      <trkpt lat="44.39977" lon="1.05424">
        <ele>251.1</ele>
        <time>2017-05-28T07:50:07.000Z</time>
      </trkpt>
      <trkpt lat="44.39975" lon="1.05427">
        <ele>251</ele>
        <time>2017-05-28T07:50:08.000Z</time>
      </trkpt>
      <trkpt lat="44.39972" lon="1.0543">
        <ele>250.8</ele>
        <time>2017-05-28T07:50:09.000Z</time>
      </trkpt>
      <trkpt lat="44.39969" lon="1.05433">
        <ele>250.7</ele>
        <time>2017-05-28T07:50:10.000Z</time>
      </trkpt>
      <trkpt lat="44.39966" lon="1.05436">
        <ele>250.5</ele>
        <time>2017-05-28T07:50:11.000Z</time>
      </trkpt>
      <trkpt lat="44.39963" lon="1.0544">
        <ele>250.4</ele>
        <time>2017-05-28T07:50:12.000Z</time>
      </trkpt>
      <trkpt lat="44.3996" lon="1.05443">
        <ele>250.2</ele>
        <time>2017-05-28T07:50:13.000Z</time>
      </trkpt>
      <trkpt lat="44.39957" lon="1.05447">
        <ele>250.1</ele>
        <time>2017-05-28T07:50:14.000Z</time>
      </trkpt>
      <trkpt lat="44.39954" lon="1.0545">
        <ele>249.9</ele>
        <time>2017-05-28T07:50:15.000Z</time>
      </trkpt>
      <trkpt lat="44.3995" lon="1.05453">
        <ele>249.8</ele>
        <time>2017-05-28T07:50:16.000Z</time>
      </trkpt>
      <trkpt lat="44.39947" lon="1.05457">
        <ele>249.6</ele>
        <time>2017-05-28T07:50:17.000Z</time>
      </trkpt>
      <trkpt lat="44.39944" lon="1.0546">
        <ele>249.5</ele>
        <time>2017-05-28T07:50:18.000Z</time>
      </trkpt>
      <trkpt lat="44.39941" lon="1.05463">
        <ele>249.3</ele>
        <time>2017-05-28T07:50:19.000Z</time>
      </trkpt>
      <trkpt lat="44.39938" lon="1.05466">
        <ele>249.2</ele>
        <time>2017-05-28T07:50:20.000Z</time>
      </trkpt>
      <trkpt lat="44.39934" lon="1.0547">
        <ele>249</ele>
        <time>2017-05-28T07:50:21.000Z</time>
      </trkpt>
      <trkpt lat="44.39931" lon="1.05473">
        <ele>248.8</ele>
        <time>2017-05-28T07:50:22.000Z</time>
      </trkpt>
      <trkpt lat="44.39928" lon="1.05477">
        <ele>248.7</ele>
        <time>2017-05-28T07:50:23.000Z</time>
      </trkpt>
      <trkpt lat="44.39926" lon="1.05481">
        <ele>248.6</ele>
        <time>2017-05-28T07:50:24.000Z</time>
      </trkpt>
      <trkpt lat="44.39923" lon="1.05484">
        <ele>248.4</ele>
        <time>2017-05-28T07:50:25.000Z</time>
      </trkpt>
      <trkpt lat="44.39921" lon="1.05488">
        <ele>248.3</ele>
        <time>2017-05-28T07:50:26.000Z</time>
      </trkpt>
      <trkpt lat="44.39918" lon="1.05492">
        <ele>248.2</ele>
        <time>2017-05-28T07:50:27.000Z</time>
      </trkpt>
      <trkpt lat="44.39915" lon="1.05495">
        <ele>248</ele>
        <time>2017-05-28T07:50:28.000Z</time>
      </trkpt>
      <trkpt lat="44.39912" lon="1.05498">
        <ele>247.7</ele>
        <time>2017-05-28T07:50:29.000Z</time>
      </trkpt>
      <trkpt lat="44.39909" lon="1.05501">
        <ele>247.3</ele>
        <time>2017-05-28T07:50:30.000Z</time>
      </trkpt>
      <trkpt lat="44.39905" lon="1.05504">
        <ele>247</ele>
        <time>2017-05-28T07:50:31.000Z</time>
      </trkpt>
      <trkpt lat="44.399" lon="1.05506">
        <ele>246.7</ele>
        <time>2017-05-28T07:50:32.000Z</time>
      </trkpt>
      <trkpt lat="44.39895" lon="1.05507">
        <ele>246.3</ele>
        <time>2017-05-28T07:50:33.000Z</time>
      </trkpt>
      <trkpt lat="44.3989" lon="1.05509">
        <ele>245.9</ele>
        <time>2017-05-28T07:50:34.000Z</time>
      </trkpt>
      <trkpt lat="44.39884" lon="1.05511">
        <ele>245.5</ele>
        <time>2017-05-28T07:50:35.000Z</time>
      </trkpt>
      <trkpt lat="44.39878" lon="1.05512">
        <ele>245.1</ele>
        <time>2017-05-28T07:50:36.000Z</time>
      </trkpt>
      <trkpt lat="44.39872" lon="1.05514">
        <ele>244.7</ele>
        <time>2017-05-28T07:50:37.000Z</time>
      </trkpt>
      <trkpt lat="44.39866" lon="1.05516">
        <ele>244.3</ele>
        <time>2017-05-28T07:50:38.000Z</time>
      </trkpt>
      <trkpt lat="44.3986" lon="1.05518">
        <ele>243.9</ele>
        <time>2017-05-28T07:50:39.000Z</time>
      </trkpt>
      <trkpt lat="44.39853" lon="1.05521">
        <ele>243.5</ele>
        <time>2017-05-28T07:50:40.000Z</time>
      </trkpt>
      <trkpt lat="44.39847" lon="1.05523">
        <ele>243.1</ele>
        <time>2017-05-28T07:50:41.000Z</time>
      </trkpt>
      <trkpt lat="44.39843" lon="1.05522">
        <ele>242.8</ele>
        <time>2017-05-28T07:50:42.000Z</time>
      </trkpt>
      <trkpt lat="44.3984" lon="1.0552">
        <ele>242.5</ele>
        <time>2017-05-28T07:50:43.000Z</time>
      </trkpt>
      <trkpt lat="44.39838" lon="1.05515">
        <ele>242.1</ele>
        <time>2017-05-28T07:50:44.000Z</time>
      </trkpt>
      <trkpt lat="44.39837" lon="1.05509">
        <ele>241.7</ele>
        <time>2017-05-28T07:50:45.000Z</time>
      </trkpt>
      <trkpt lat="44.39837" lon="1.05502">
        <ele>241.4</ele>
        <time>2017-05-28T07:50:46.000Z</time>
      </trkpt>
      <trkpt lat="44.39837" lon="1.05494">
        <ele>241.4</ele>
        <time>2017-05-28T07:50:47.000Z</time>
      </trkpt>
      <trkpt lat="44.39838" lon="1.05487">
        <ele>241.5</ele>
        <time>2017-05-28T07:50:48.000Z</time>
      </trkpt>
      <trkpt lat="44.39838" lon="1.0548">
        <ele>241.7</ele>
        <time>2017-05-28T07:50:49.000Z</time>
      </trkpt>
      <trkpt lat="44.39839" lon="1.05473">
        <ele>241.8</ele>
        <time>2017-05-28T07:50:50.000Z</time>
      </trkpt>
      <trkpt lat="44.3984" lon="1.05466">
        <ele>241.9</ele>
        <time>2017-05-28T07:50:51.000Z</time>
      </trkpt>
      <trkpt lat="44.3984" lon="1.0546">
        <ele>242.1</ele>
        <time>2017-05-28T07:50:52.000Z</time>
      </trkpt>
      <trkpt lat="44.39841" lon="1.05454">
        <ele>242.2</ele>
        <time>2017-05-28T07:50:53.000Z</time>
      </trkpt>
      <trkpt lat="44.39842" lon="1.05448">
        <ele>242.3</ele>
        <time>2017-05-28T07:50:54.000Z</time>
      </trkpt>
      <trkpt lat="44.39843" lon="1.05441">
        <ele>242.5</ele>
        <time>2017-05-28T07:50:55.000Z</time>
      </trkpt>
      <trkpt lat="44.39844" lon="1.05435">
        <ele>242.6</ele>
        <time>2017-05-28T07:50:56.000Z</time>
      </trkpt>
      <trkpt lat="44.39844" lon="1.05429">
        <ele>242.8</ele>
        <time>2017-05-28T07:50:57.000Z</time>
      </trkpt>
      <trkpt lat="44.39844" lon="1.05422">
        <ele>242.9</ele>
        <time>2017-05-28T07:50:58.000Z</time>
      </trkpt>
      <trkpt lat="44.39844" lon="1.05415">
        <ele>242.9</ele>
        <time>2017-05-28T07:50:59.000Z</time>
      </trkpt>
      <trkpt lat="44.39843" lon="1.05408">
        <ele>243</ele>
        <time>2017-05-28T07:51:00.000Z</time>
      </trkpt>
      <trkpt lat="44.39842" lon="1.054">
        <ele>243</ele>
        <time>2017-05-28T07:51:01.000Z</time>
      </trkpt>
      <trkpt lat="44.3984" lon="1.05393">
        <ele>243.1</ele>
        <time>2017-05-28T07:51:02.000Z</time>
      </trkpt>
      <trkpt lat="44.39838" lon="1.05385">
        <ele>243.1</ele>
        <time>2017-05-28T07:51:03.000Z</time>
      </trkpt>
      <trkpt lat="44.39836" lon="1.05378">
        <ele>243.1</ele>
        <time>2017-05-28T07:51:04.000Z</time>
      </trkpt>
      <trkpt lat="44.39834" lon="1.05371">
        <ele>243.1</ele>
        <time>2017-05-28T07:51:05.000Z</time>
      </trkpt>
      <trkpt lat="44.39832" lon="1.05365">
        <ele>243.1</ele>
        <time>2017-05-28T07:51:06.000Z</time>
      </trkpt>
      <trkpt lat="44.3983" lon="1.05358">
        <ele>243</ele>
        <time>2017-05-28T07:51:07.000Z</time>
      </trkpt>
      <trkpt lat="44.39828" lon="1.05352">
        <ele>242.9</ele>
        <time>2017-05-28T07:51:08.000Z</time>
      </trkpt>
      <trkpt lat="44.39826" lon="1.05346">
        <ele>242.8</ele>
        <time>2017-05-28T07:51:09.000Z</time>
      </trkpt>
      <trkpt lat="44.39824" lon="1.0534">
        <ele>242.6</ele>
        <time>2017-05-28T07:51:10.000Z</time>
      </trkpt>
      <trkpt lat="44.39822" lon="1.05334">
        <ele>242.3</ele>
        <time>2017-05-28T07:51:11.000Z</time>
      </trkpt>
      <trkpt lat="44.39819" lon="1.05328">
        <ele>242.2</ele>
        <time>2017-05-28T07:51:12.000Z</time>
      </trkpt>
      <trkpt lat="44.39817" lon="1.05323">
        <ele>242</ele>
        <time>2017-05-28T07:51:13.000Z</time>
      </trkpt>
      <trkpt lat="44.39814" lon="1.05317">
        <ele>241.7</ele>
        <time>2017-05-28T07:51:14.000Z</time>
      </trkpt>
      <trkpt lat="44.39811" lon="1.05312">
        <ele>241.5</ele>
        <time>2017-05-28T07:51:15.000Z</time>
      </trkpt>
      <trkpt lat="44.39808" lon="1.05307">
        <ele>241.2</ele>
        <time>2017-05-28T07:51:16.000Z</time>
      </trkpt>
      <trkpt lat="44.39804" lon="1.05302">
        <ele>240.8</ele>
        <time>2017-05-28T07:51:17.000Z</time>
      </trkpt>
      <trkpt lat="44.39801" lon="1.05296">
        <ele>240.5</ele>
        <time>2017-05-28T07:51:18.000Z</time>
      </trkpt>
      <trkpt lat="44.39798" lon="1.05291">
        <ele>240.1</ele>
        <time>2017-05-28T07:51:19.000Z</time>
      </trkpt>
      <trkpt lat="44.39795" lon="1.05285">
        <ele>239.8</ele>
        <time>2017-05-28T07:51:20.000Z</time>
      </trkpt>
      <trkpt lat="44.39792" lon="1.05278">
        <ele>239.4</ele>
        <time>2017-05-28T07:51:21.000Z</time>
      </trkpt>
      <trkpt lat="44.3979" lon="1.05271">
        <ele>239.1</ele>
        <time>2017-05-28T07:51:22.000Z</time>
      </trkpt>
      <trkpt lat="44.39787" lon="1.05263">
        <ele>238.8</ele>
        <time>2017-05-28T07:51:23.000Z</time>
      </trkpt>
      <trkpt lat="44.39785" lon="1.05254">
        <ele>238.5</ele>
        <time>2017-05-28T07:51:24.000Z</time>
      </trkpt>
      <trkpt lat="44.39782" lon="1.05244">
        <ele>238.4</ele>
        <time>2017-05-28T07:51:25.000Z</time>
      </trkpt>
      <trkpt lat="44.3978" lon="1.05234">
        <ele>238.3</ele>
        <time>2017-05-28T07:51:26.000Z</time>
      </trkpt>
      <trkpt lat="44.39778" lon="1.05223">
        <ele>238.2</ele>
        <time>2017-05-28T07:51:27.000Z</time>
      </trkpt>
      <trkpt lat="44.39776" lon="1.05212">
        <ele>238.2</ele>
        <time>2017-05-28T07:51:28.000Z</time>
      </trkpt>
      <trkpt lat="44.39774" lon="1.05201">
        <ele>238.2</ele>
        <time>2017-05-28T07:51:29.000Z</time>
      </trkpt>
      <trkpt lat="44.39772" lon="1.05189">
        <ele>238.2</ele>
        <time>2017-05-28T07:51:30.000Z</time>
      </trkpt>
      <trkpt lat="44.3977" lon="1.05178">
        <ele>238.1</ele>
        <time>2017-05-28T07:51:31.000Z</time>
      </trkpt>
      <trkpt lat="44.39768" lon="1.05166">
        <ele>237.9</ele>
        <time>2017-05-28T07:51:32.000Z</time>
      </trkpt>
      <trkpt lat="44.39765" lon="1.05154">
        <ele>238</ele>
        <time>2017-05-28T07:51:33.000Z</time>
      </trkpt>
      <trkpt lat="44.39762" lon="1.05143">
        <ele>238</ele>
        <time>2017-05-28T07:51:34.000Z</time>
      </trkpt>
      <trkpt lat="44.39759" lon="1.05131">
        <ele>238</ele>
        <time>2017-05-28T07:51:35.000Z</time>
      </trkpt>
      <trkpt lat="44.39756" lon="1.05119">
        <ele>238</ele>
        <time>2017-05-28T07:51:36.000Z</time>
      </trkpt>
      <trkpt lat="44.39753" lon="1.05107">
        <ele>238.1</ele>
        <time>2017-05-28T07:51:37.000Z</time>
      </trkpt>
      <trkpt lat="44.3975" lon="1.05096">
        <ele>238.2</ele>
        <time>2017-05-28T07:51:38.000Z</time>
      </trkpt>
      <trkpt lat="44.39747" lon="1.05084">
        <ele>238.5</ele>
        <time>2017-05-28T07:51:39.000Z</time>
      </trkpt>
      <trkpt lat="44.39745" lon="1.05073">
        <ele>238.5</ele>
        <time>2017-05-28T07:51:40.000Z</time>
      </trkpt>
      <trkpt lat="44.39743" lon="1.05062">
        <ele>238.5</ele>
        <time>2017-05-28T07:51:41.000Z</time>
      </trkpt>
      <trkpt lat="44.39741" lon="1.05051">
        <ele>238.5</ele>
        <time>2017-05-28T07:51:42.000Z</time>
      </trkpt>
      <trkpt lat="44.39738" lon="1.05041">
        <ele>238.2</ele>
        <time>2017-05-28T07:51:43.000Z</time>
      </trkpt>
      <trkpt lat="44.39735" lon="1.05031">
        <ele>237.9</ele>
        <time>2017-05-28T07:51:44.000Z</time>
      </trkpt>
      <trkpt lat="44.39732" lon="1.05022">
        <ele>237.3</ele>
        <time>2017-05-28T07:51:45.000Z</time>
      </trkpt>
      <trkpt lat="44.39728" lon="1.05012">
        <ele>236.5</ele>
        <time>2017-05-28T07:51:46.000Z</time>
      </trkpt>
      <trkpt lat="44.39725" lon="1.05001">
        <ele>235.7</ele>
        <time>2017-05-28T07:51:47.000Z</time>
      </trkpt>
      <trkpt lat="44.39721" lon="1.04991">
        <ele>234.5</ele>
        <time>2017-05-28T07:51:48.000Z</time>
      </trkpt>
      <trkpt lat="44.39718" lon="1.0498">
        <ele>233.3</ele>
        <time>2017-05-28T07:51:49.000Z</time>
      </trkpt>
      <trkpt lat="44.39715" lon="1.04969">
        <ele>232.1</ele>
        <time>2017-05-28T07:51:50.000Z</time>
      </trkpt>
      <trkpt lat="44.39712" lon="1.04957">
        <ele>231</ele>
        <time>2017-05-28T07:51:51.000Z</time>
      </trkpt>
      <trkpt lat="44.3971" lon="1.04946">
        <ele>230</ele>
        <time>2017-05-28T07:51:52.000Z</time>
      </trkpt>
      <trkpt lat="44.39709" lon="1.04935">
        <ele>229.1</ele>
        <time>2017-05-28T07:51:53.000Z</time>
      </trkpt>
      <trkpt lat="44.39708" lon="1.04924">
        <ele>228.5</ele>
        <time>2017-05-28T07:51:54.000Z</time>
      </trkpt>
      <trkpt lat="44.39707" lon="1.04914">
        <ele>228</ele>
        <time>2017-05-28T07:51:55.000Z</time>
      </trkpt>
      <trkpt lat="44.39708" lon="1.04903">
        <ele>227.7</ele>
        <time>2017-05-28T07:51:56.000Z</time>
      </trkpt>
      <trkpt lat="44.39709" lon="1.04893">
        <ele>227.6</ele>
        <time>2017-05-28T07:51:57.000Z</time>
      </trkpt>
      <trkpt lat="44.3971" lon="1.04883">
        <ele>227.6</ele>
        <time>2017-05-28T07:51:58.000Z</time>
      </trkpt>
      <trkpt lat="44.39711" lon="1.04873">
        <ele>227.7</ele>
        <time>2017-05-28T07:51:59.000Z</time>
      </trkpt>
      <trkpt lat="44.39713" lon="1.04863">
        <ele>227.7</ele>
        <time>2017-05-28T07:52:00.000Z</time>
      </trkpt>
      <trkpt lat="44.39714" lon="1.04853">
        <ele>227.8</ele>
        <time>2017-05-28T07:52:01.000Z</time>
      </trkpt>
      <trkpt lat="44.39715" lon="1.04843">
        <ele>227.7</ele>
        <time>2017-05-28T07:52:02.000Z</time>
      </trkpt>
      <trkpt lat="44.39716" lon="1.04833">
        <ele>227.5</ele>
        <time>2017-05-28T07:52:03.000Z</time>
      </trkpt>
      <trkpt lat="44.39717" lon="1.04823">
        <ele>227.2</ele>
        <time>2017-05-28T07:52:04.000Z</time>
      </trkpt>
      <trkpt lat="44.39717" lon="1.04813">
        <ele>226.7</ele>
        <time>2017-05-28T07:52:05.000Z</time>
      </trkpt>
      <trkpt lat="44.39717" lon="1.04803">
        <ele>226.3</ele>
        <time>2017-05-28T07:52:06.000Z</time>
      </trkpt>
      <trkpt lat="44.39717" lon="1.04793">
        <ele>225.9</ele>
        <time>2017-05-28T07:52:07.000Z</time>
      </trkpt>
      <trkpt lat="44.39718" lon="1.04784">
        <ele>225.5</ele>
        <time>2017-05-28T07:52:08.000Z</time>
      </trkpt>
      <trkpt lat="44.39718" lon="1.04776">
        <ele>225.2</ele>
        <time>2017-05-28T07:52:09.000Z</time>
      </trkpt>
      <trkpt lat="44.39718" lon="1.0477">
        <ele>224.9</ele>
        <time>2017-05-28T07:52:10.000Z</time>
      </trkpt>
      <trkpt lat="44.39718" lon="1.04766">
        <ele>224.7</ele>
        <time>2017-05-28T07:52:11.000Z</time>
      </trkpt>
      <trkpt lat="44.39718" lon="1.04763">
        <ele>224.5</ele>
        <time>2017-05-28T07:52:12.000Z</time>
      </trkpt>
      <trkpt lat="44.39718" lon="1.04761">
        <ele>224.5</ele>
        <time>2017-05-28T07:52:13.000Z</time>
      </trkpt>
      <trkpt lat="44.39718" lon="1.04761">
        <ele>224.4</ele>
        <time>2017-05-28T07:52:14.000Z</time>
      </trkpt>
      <trkpt lat="44.39718" lon="1.04761">
        <ele>224.5</ele>
        <time>2017-05-28T07:52:15.000Z</time>
      </trkpt>
      <trkpt lat="44.39719" lon="1.04762">
        <ele>224.6</ele>
        <time>2017-05-28T07:52:16.000Z</time>
      </trkpt>
      <trkpt lat="44.39719" lon="1.04763">
        <ele>224.7</ele>
        <time>2017-05-28T07:52:17.000Z</time>
      </trkpt>
      <trkpt lat="44.39719" lon="1.04765">
        <ele>224.9</ele>
        <time>2017-05-28T07:52:18.000Z</time>
      </trkpt>
      <trkpt lat="44.39719" lon="1.04766">
        <ele>225.1</ele>
        <time>2017-05-28T07:52:19.000Z</time>
      </trkpt>
      <trkpt lat="44.39719" lon="1.04768">
        <ele>225.1</ele>
        <time>2017-05-28T07:52:20.000Z</time>
      </trkpt>
      <trkpt lat="44.39719" lon="1.04768">
        <ele>225</ele>
        <time>2017-05-28T07:52:21.000Z</time>
      </trkpt>
      <trkpt lat="44.39718" lon="1.04768">
        <ele>224.9</ele>
        <time>2017-05-28T07:52:22.000Z</time>
      </trkpt>
      <trkpt lat="44.39718" lon="1.04768">
        <ele>224.8</ele>
        <time>2017-05-28T07:52:23.000Z</time>
      </trkpt>
      <trkpt lat="44.39718" lon="1.04768">
        <ele>224.8</ele>
        <time>2017-05-28T07:52:24.000Z</time>
      </trkpt>
      <trkpt lat="44.39718" lon="1.04768">
        <ele>224.7</ele>
        <time>2017-05-28T07:52:25.000Z</time>
      </trkpt>
      <trkpt lat="44.39717" lon="1.04769">
        <ele>224.6</ele>
        <time>2017-05-28T07:52:26.000Z</time>
      </trkpt>
      <trkpt lat="44.39715" lon="1.04771">
        <ele>224.1</ele>
        <time>2017-05-28T07:52:27.000Z</time>
      </trkpt>
      <trkpt lat="44.39712" lon="1.04773">
        <ele>223.2</ele>
        <time>2017-05-28T07:52:28.000Z</time>
      </trkpt>
      <trkpt lat="44.39708" lon="1.04775">
        <ele>222.1</ele>
        <time>2017-05-28T07:52:29.000Z</time>
      </trkpt>
      <trkpt lat="44.39704" lon="1.04776">
        <ele>220.9</ele>
        <time>2017-05-28T07:52:30.000Z</time>
      </trkpt>
      <trkpt lat="44.397" lon="1.04776">
        <ele>219.8</ele>
        <time>2017-05-28T07:52:31.000Z</time>
      </trkpt>
      <trkpt lat="44.39697" lon="1.04775">
        <ele>218.7</ele>
        <time>2017-05-28T07:52:32.000Z</time>
      </trkpt>
      <trkpt lat="44.39693" lon="1.04774">
        <ele>217.6</ele>
        <time>2017-05-28T07:52:33.000Z</time>
      </trkpt>
      <trkpt lat="44.39689" lon="1.04773">
        <ele>216.3</ele>
        <time>2017-05-28T07:52:34.000Z</time>
      </trkpt>
      <trkpt lat="44.39684" lon="1.04773">
        <ele>214.7</ele>
        <time>2017-05-28T07:52:35.000Z</time>
      </trkpt>
      <trkpt lat="44.39678" lon="1.04773">
        <ele>212.9</ele>
        <time>2017-05-28T07:52:36.000Z</time>
      </trkpt>
      <trkpt lat="44.39672" lon="1.04773">
        <ele>211.1</ele>
        <time>2017-05-28T07:52:37.000Z</time>
      </trkpt>
      <trkpt lat="44.39666" lon="1.04773">
        <ele>209.6</ele>
        <time>2017-05-28T07:52:38.000Z</time>
      </trkpt>
      <trkpt lat="44.3966" lon="1.04773">
        <ele>210.1</ele>
        <time>2017-05-28T07:52:39.000Z</time>
      </trkpt>
      <trkpt lat="44.39655" lon="1.04773">
        <ele>210.6</ele>
        <time>2017-05-28T07:52:40.000Z</time>
      </trkpt>
      <trkpt lat="44.3965" lon="1.04773">
        <ele>211.1</ele>
        <time>2017-05-28T07:52:41.000Z</time>
      </trkpt>
      <trkpt lat="44.39644" lon="1.04773">
        <ele>211.6</ele>
        <time>2017-05-28T07:52:42.000Z</time>
      </trkpt>
      <trkpt lat="44.39639" lon="1.04773">
        <ele>212.1</ele>
        <time>2017-05-28T07:52:43.000Z</time>
      </trkpt>
      <trkpt lat="44.39635" lon="1.04773">
        <ele>212.5</ele>
        <time>2017-05-28T07:52:44.000Z</time>
      </trkpt>
      <trkpt lat="44.3963" lon="1.04774">
        <ele>213</ele>
        <time>2017-05-28T07:52:45.000Z</time>
      </trkpt>
      <trkpt lat="44.39625" lon="1.04775">
        <ele>213.4</ele>
        <time>2017-05-28T07:52:46.000Z</time>
      </trkpt>
      <trkpt lat="44.3962" lon="1.04776">
        <ele>213.9</ele>
        <time>2017-05-28T07:52:47.000Z</time>
      </trkpt>
      <trkpt lat="44.39616" lon="1.04777">
        <ele>214.3</ele>
        <time>2017-05-28T07:52:48.000Z</time>
      </trkpt>
      <trkpt lat="44.39611" lon="1.04778">
        <ele>214.7</ele>
        <time>2017-05-28T07:52:49.000Z</time>
      </trkpt>
      <trkpt lat="44.39607" lon="1.04779">
        <ele>215.2</ele>
        <time>2017-05-28T07:52:50.000Z</time>
      </trkpt>
      <trkpt lat="44.39603" lon="1.0478">
        <ele>215.6</ele>
        <time>2017-05-28T07:52:51.000Z</time>
      </trkpt>
      <trkpt lat="44.39598" lon="1.04781">
        <ele>216</ele>
        <time>2017-05-28T07:52:52.000Z</time>
      </trkpt>
      <trkpt lat="44.39594" lon="1.04782">
        <ele>216.4</ele>
        <time>2017-05-28T07:52:53.000Z</time>
      </trkpt>
      <trkpt lat="44.3959" lon="1.04782">
        <ele>216.8</ele>
        <time>2017-05-28T07:52:54.000Z</time>
      </trkpt>
      <trkpt lat="44.39586" lon="1.04783">
        <ele>217.2</ele>
        <time>2017-05-28T07:52:55.000Z</time>
      </trkpt>
      <trkpt lat="44.39582" lon="1.04784">
        <ele>217.7</ele>
        <time>2017-05-28T07:52:56.000Z</time>
      </trkpt>
      <trkpt lat="44.39578" lon="1.04784">
        <ele>218.4</ele>
        <time>2017-05-28T07:52:57.000Z</time>
      </trkpt>
      <trkpt lat="44.39574" lon="1.04784">
        <ele>219.2</ele>
        <time>2017-05-28T07:52:58.000Z</time>
      </trkpt>
      <trkpt lat="44.39571" lon="1.04785">
        <ele>219.8</ele>
        <time>2017-05-28T07:52:59.000Z</time>
      </trkpt>
      <trkpt lat="44.39568" lon="1.04786">
        <ele>220.5</ele>
        <time>2017-05-28T07:53:00.000Z</time>
      </trkpt>
      <trkpt lat="44.39565" lon="1.04786">
        <ele>221.1</ele>
        <time>2017-05-28T07:53:01.000Z</time>
      </trkpt>
      <trkpt lat="44.39562" lon="1.04787">
        <ele>221.6</ele>
        <time>2017-05-28T07:53:02.000Z</time>
      </trkpt>
      <trkpt lat="44.39559" lon="1.04787">
        <ele>222.1</ele>
        <time>2017-05-28T07:53:03.000Z</time>
      </trkpt>
      <trkpt lat="44.39557" lon="1.04788">
        <ele>222.6</ele>
        <time>2017-05-28T07:53:04.000Z</time>
      </trkpt>
      <trkpt lat="44.39554" lon="1.04788">
        <ele>223.1</ele>
        <time>2017-05-28T07:53:05.000Z</time>
      </trkpt>
      <trkpt lat="44.39552" lon="1.04789">
        <ele>223.5</ele>
        <time>2017-05-28T07:53:06.000Z</time>
      </trkpt>
      <trkpt lat="44.3955" lon="1.04789">
        <ele>224</ele>
        <time>2017-05-28T07:53:07.000Z</time>
      </trkpt>
      <trkpt lat="44.39548" lon="1.04789">
        <ele>224.4</ele>
        <time>2017-05-28T07:53:08.000Z</time>
      </trkpt>
      <trkpt lat="44.39545" lon="1.04789">
        <ele>224.8</ele>
        <time>2017-05-28T07:53:09.000Z</time>
      </trkpt>
      <trkpt lat="44.39543" lon="1.0479">
        <ele>225.2</ele>
        <time>2017-05-28T07:53:10.000Z</time>
      </trkpt>
      <trkpt lat="44.39541" lon="1.0479">
        <ele>225.6</ele>
        <time>2017-05-28T07:53:11.000Z</time>
      </trkpt>
      <trkpt lat="44.39539" lon="1.0479">
        <ele>226</ele>
        <time>2017-05-28T07:53:12.000Z</time>
      </trkpt>
      <trkpt lat="44.39537" lon="1.0479">
        <ele>226.4</ele>
        <time>2017-05-28T07:53:13.000Z</time>
      </trkpt>
      <trkpt lat="44.39535" lon="1.04791">
        <ele>226.8</ele>
        <time>2017-05-28T07:53:14.000Z</time>
      </trkpt>
      <trkpt lat="44.39533" lon="1.04792">
        <ele>227.2</ele>
        <time>2017-05-28T07:53:15.000Z</time>
      </trkpt>
      <trkpt lat="44.39531" lon="1.04792">
        <ele>227.6</ele>
        <time>2017-05-28T07:53:16.000Z</time>
      </trkpt>
      <trkpt lat="44.39529" lon="1.04793">
        <ele>228</ele>
        <time>2017-05-28T07:53:17.000Z</time>
      </trkpt>
      <trkpt lat="44.39527" lon="1.04794">
        <ele>228.3</ele>
        <time>2017-05-28T07:53:18.000Z</time>
      </trkpt>
      <trkpt lat="44.39525" lon="1.04795">
        <ele>228.7</ele>
        <time>2017-05-28T07:53:19.000Z</time>
      </trkpt>
      <trkpt lat="44.39523" lon="1.04796">
        <ele>229.1</ele>
        <time>2017-05-28T07:53:20.000Z</time>
      </trkpt>
      <trkpt lat="44.39521" lon="1.04797">
        <ele>229.4</ele>
        <time>2017-05-28T07:53:21.000Z</time>
      </trkpt>
      <trkpt lat="44.39519" lon="1.04798">
        <ele>229.8</ele>
        <time>2017-05-28T07:53:22.000Z</time>
      </trkpt>
      <trkpt lat="44.39518" lon="1.04798">
        <ele>230.1</ele>
        <time>2017-05-28T07:53:23.000Z</time>
      </trkpt>
      <trkpt lat="44.39516" lon="1.04799">
        <ele>230.4</ele>
        <time>2017-05-28T07:53:24.000Z</time>
      </trkpt>
      <trkpt lat="44.39514" lon="1.048">
        <ele>230.7</ele>
        <time>2017-05-28T07:53:25.000Z</time>
      </trkpt>
      <trkpt lat="44.39513" lon="1.04801">
        <ele>231</ele>
        <time>2017-05-28T07:53:26.000Z</time>
      </trkpt>
      <trkpt lat="44.39511" lon="1.04802">
        <ele>231.3</ele>
        <time>2017-05-28T07:53:27.000Z</time>
      </trkpt>
      <trkpt lat="44.3951" lon="1.04803">
        <ele>231.6</ele>
        <time>2017-05-28T07:53:28.000Z</time>
      </trkpt>
      <trkpt lat="44.39508" lon="1.04804">
        <ele>231.8</ele>
        <time>2017-05-28T07:53:29.000Z</time>
      </trkpt>
      <trkpt lat="44.39507" lon="1.04804">
        <ele>232.1</ele>
        <time>2017-05-28T07:53:30.000Z</time>
      </trkpt>
      <trkpt lat="44.39506" lon="1.04805">
        <ele>232.3</ele>
        <time>2017-05-28T07:53:31.000Z</time>
      </trkpt>
      <trkpt lat="44.39505" lon="1.04806">
        <ele>232.5</ele>
        <time>2017-05-28T07:53:32.000Z</time>
      </trkpt>
      <trkpt lat="44.39504" lon="1.04806">
        <ele>232.7</ele>
        <time>2017-05-28T07:53:33.000Z</time>
      </trkpt>
      <trkpt lat="44.39503" lon="1.04806">
        <ele>232.8</ele>
        <time>2017-05-28T07:53:34.000Z</time>
      </trkpt>
      <trkpt lat="44.39502" lon="1.04807">
        <ele>233</ele>
        <time>2017-05-28T07:53:35.000Z</time>
      </trkpt>
      <trkpt lat="44.39501" lon="1.04807">
        <ele>233.2</ele>
        <time>2017-05-28T07:53:36.000Z</time>
      </trkpt>
      <trkpt lat="44.395" lon="1.04808">
        <ele>233.3</ele>
        <time>2017-05-28T07:53:37.000Z</time>
      </trkpt>
      <trkpt lat="44.39499" lon="1.04809">
        <ele>233.5</ele>
        <time>2017-05-28T07:53:38.000Z</time>
      </trkpt>
      <trkpt lat="44.39498" lon="1.04809">
        <ele>233.6</ele>
        <time>2017-05-28T07:53:39.000Z</time>
      </trkpt>
      <trkpt lat="44.39497" lon="1.04809">
        <ele>233.8</ele>
        <time>2017-05-28T07:53:40.000Z</time>
      </trkpt>
      <trkpt lat="44.39495" lon="1.0481">
        <ele>234.1</ele>
        <time>2017-05-28T07:53:41.000Z</time>
      </trkpt>
      <trkpt lat="44.39494" lon="1.04811">
        <ele>234.2</ele>
        <time>2017-05-28T07:53:42.000Z</time>
      </trkpt>
      <trkpt lat="44.39493" lon="1.04812">
        <ele>234.4</ele>
        <time>2017-05-28T07:53:43.000Z</time>
      </trkpt>
      <trkpt lat="44.39493" lon="1.04813">
        <ele>234.5</ele>
        <time>2017-05-28T07:53:44.000Z</time>
      </trkpt>
      <trkpt lat="44.39493" lon="1.04814">
        <ele>234.5</ele>
        <time>2017-05-28T07:53:45.000Z</time>
      </trkpt>
      <trkpt lat="44.39492" lon="1.04814">
        <ele>234.5</ele>
        <time>2017-05-28T07:53:46.000Z</time>
      </trkpt>
      <trkpt lat="44.39492" lon="1.04815">
        <ele>234.5</ele>
        <time>2017-05-28T07:53:47.000Z</time>
      </trkpt>
      <trkpt lat="44.39492" lon="1.04815">
        <ele>234.5</ele>
        <time>2017-05-28T07:53:48.000Z</time>
      </trkpt>
      <trkpt lat="44.39492" lon="1.04816">
        <ele>234.5</ele>
        <time>2017-05-28T07:53:49.000Z</time>
      </trkpt>
      <trkpt lat="44.39492" lon="1.04817">
        <ele>234.5</ele>
        <time>2017-05-28T07:53:50.000Z</time>
      </trkpt>
      <trkpt lat="44.39492" lon="1.04817">
        <ele>234.6</ele>
        <time>2017-05-28T07:53:51.000Z</time>
      </trkpt>
      <trkpt lat="44.39492" lon="1.04818">
        <ele>234.6</ele>
        <time>2017-05-28T07:53:52.000Z</time>
      </trkpt>
      <trkpt lat="44.39491" lon="1.04818">
        <ele>234.6</ele>
        <time>2017-05-28T07:53:53.000Z</time>
      </trkpt>
      <trkpt lat="44.39491" lon="1.04819">
        <ele>234.6</ele>
        <time>2017-05-28T07:53:54.000Z</time>
      </trkpt>
      <trkpt lat="44.39491" lon="1.04819">
        <ele>234.6</ele>
        <time>2017-05-28T07:53:55.000Z</time>
      </trkpt>
      <trkpt lat="44.39491" lon="1.04819">
        <ele>234.6</ele>
        <time>2017-05-28T07:53:56.000Z</time>
      </trkpt>
      <trkpt lat="44.39491" lon="1.04819">
        <ele>234.6</ele>
        <time>2017-05-28T07:53:57.000Z</time>
      </trkpt>
      <trkpt lat="44.39491" lon="1.0482">
        <ele>234.6</ele>
        <time>2017-05-28T07:53:58.000Z</time>
      </trkpt>
      <trkpt lat="44.39491" lon="1.0482">
        <ele>234.7</ele>
        <time>2017-05-28T07:53:59.000Z</time>
      </trkpt>
      <trkpt lat="44.39491" lon="1.04821">
        <ele>234.7</ele>
        <time>2017-05-28T07:54:00.000Z</time>
      </trkpt>
      <trkpt lat="44.3949" lon="1.04823">
        <ele>234.8</ele>
        <time>2017-05-28T07:54:01.000Z</time>
      </trkpt>
      <trkpt lat="44.3949" lon="1.04824">
        <ele>234.8</ele>
        <time>2017-05-28T07:54:02.000Z</time>
      </trkpt>
      <trkpt lat="44.3949" lon="1.04825">
        <ele>234.8</ele>
        <time>2017-05-28T07:54:03.000Z</time>
      </trkpt>
      <trkpt lat="44.3949" lon="1.04825">
        <ele>234.8</ele>
        <time>2017-05-28T07:54:04.000Z</time>
      </trkpt>
      <trkpt lat="44.3949" lon="1.04826">
        <ele>234.8</ele>
        <time>2017-05-28T07:54:05.000Z</time>
      </trkpt>
      <trkpt lat="44.39489" lon="1.04826">
        <ele>234.8</ele>
        <time>2017-05-28T07:54:06.000Z</time>
      </trkpt>
      <trkpt lat="44.39489" lon="1.04826">
        <ele>234.8</ele>
        <time>2017-05-28T07:54:07.000Z</time>
      </trkpt>
      <trkpt lat="44.39489" lon="1.04827">
        <ele>234.8</ele>
        <time>2017-05-28T07:54:08.000Z</time>
      </trkpt>
      <trkpt lat="44.39489" lon="1.04827">
        <ele>234.8</ele>
        <time>2017-05-28T07:54:09.000Z</time>
      </trkpt>
      <trkpt lat="44.39489" lon="1.04828">
        <ele>234.8</ele>
        <time>2017-05-28T07:54:10.000Z</time>
      </trkpt>
      <trkpt lat="44.39489" lon="1.04828">
        <ele>234.8</ele>
        <time>2017-05-28T07:54:11.000Z</time>
      </trkpt>
      <trkpt lat="44.39489" lon="1.04829">
        <ele>234.8</ele>
        <time>2017-05-28T07:54:12.000Z</time>
      </trkpt>
      <trkpt lat="44.39489" lon="1.04829">
        <ele>234.8</ele>
        <time>2017-05-28T07:54:13.000Z</time>
      </trkpt>
      <trkpt lat="44.39489" lon="1.0483">
        <ele>234.8</ele>
        <time>2017-05-28T07:54:14.000Z</time>
      </trkpt>
      <trkpt lat="44.39489" lon="1.0483">
        <ele>234.8</ele>
        <time>2017-05-28T07:54:15.000Z</time>
      </trkpt>
      <trkpt lat="44.39489" lon="1.04831">
        <ele>234.8</ele>
        <time>2017-05-28T07:54:16.000Z</time>
      </trkpt>
      <trkpt lat="44.39489" lon="1.04831">
        <ele>234.8</ele>
        <time>2017-05-28T07:54:17.000Z</time>
      </trkpt>
      <trkpt lat="44.39488" lon="1.04832">
        <ele>234.8</ele>
        <time>2017-05-28T07:54:18.000Z</time>
      </trkpt>
      <trkpt lat="44.39488" lon="1.04832">
        <ele>234.9</ele>
        <time>2017-05-28T07:54:19.000Z</time>
      </trkpt>
      <trkpt lat="44.39488" lon="1.04832">
        <ele>234.9</ele>
        <time>2017-05-28T07:54:20.000Z</time>
      </trkpt>
      <trkpt lat="44.39488" lon="1.04832">
        <ele>234.9</ele>
        <time>2017-05-28T07:54:21.000Z</time>
      </trkpt>
      <trkpt lat="44.39487" lon="1.04833">
        <ele>235.1</ele>
        <time>2017-05-28T07:54:22.000Z</time>
      </trkpt>
      <trkpt lat="44.39486" lon="1.04835">
        <ele>235.5</ele>
        <time>2017-05-28T07:54:23.000Z</time>
      </trkpt>
      <trkpt lat="44.39485" lon="1.04835">
        <ele>235.7</ele>
        <time>2017-05-28T07:54:24.000Z</time>
      </trkpt>
      <trkpt lat="44.39484" lon="1.04835">
        <ele>235.8</ele>
        <time>2017-05-28T07:54:25.000Z</time>
      </trkpt>
      <trkpt lat="44.39484" lon="1.04836">
        <ele>235.9</ele>
        <time>2017-05-28T07:54:26.000Z</time>
      </trkpt>
      <trkpt lat="44.39483" lon="1.04836">
        <ele>236</ele>
        <time>2017-05-28T07:54:27.000Z</time>
      </trkpt>
      <trkpt lat="44.39483" lon="1.04836">
        <ele>236.1</ele>
        <time>2017-05-28T07:54:28.000Z</time>
      </trkpt>
      <trkpt lat="44.39482" lon="1.04836">
        <ele>236.2</ele>
        <time>2017-05-28T07:54:29.000Z</time>
      </trkpt>
      <trkpt lat="44.39482" lon="1.04836">
        <ele>236.2</ele>
        <time>2017-05-28T07:54:30.000Z</time>
      </trkpt>
      <trkpt lat="44.39482" lon="1.04836">
        <ele>236.3</ele>
        <time>2017-05-28T07:54:31.000Z</time>
      </trkpt>
      <trkpt lat="44.39482" lon="1.04836">
        <ele>236.3</ele>
        <time>2017-05-28T07:54:32.000Z</time>
      </trkpt>
      <trkpt lat="44.39482" lon="1.04836">
        <ele>236.3</ele>
        <time>2017-05-28T07:54:33.000Z</time>
      </trkpt>
      <trkpt lat="44.39481" lon="1.04836">
        <ele>236.4</ele>
        <time>2017-05-28T07:54:34.000Z</time>
      </trkpt>
      <trkpt lat="44.39481" lon="1.04836">
        <ele>236.4</ele>
        <time>2017-05-28T07:54:35.000Z</time>
      </trkpt>
      <trkpt lat="44.39481" lon="1.04837">
        <ele>236.4</ele>
        <time>2017-05-28T07:54:36.000Z</time>
      </trkpt>
      <trkpt lat="44.39481" lon="1.04837">
        <ele>236.4</ele>
        <time>2017-05-28T07:54:37.000Z</time>
      </trkpt>
      <trkpt lat="44.39481" lon="1.04837">
        <ele>236.4</ele>
        <time>2017-05-28T07:54:38.000Z</time>
      </trkpt>
      <trkpt lat="44.39481" lon="1.04837">
        <ele>236.5</ele>
        <time>2017-05-28T07:54:39.000Z</time>
      </trkpt>
      <trkpt lat="44.39481" lon="1.04837">
        <ele>236.5</ele>
        <time>2017-05-28T07:54:40.000Z</time>
      </trkpt>
      <trkpt lat="44.39481" lon="1.04837">
        <ele>236.5</ele>
        <time>2017-05-28T07:54:41.000Z</time>
      </trkpt>
      <trkpt lat="44.39481" lon="1.04837">
        <ele>236.5</ele>
        <time>2017-05-28T07:54:42.000Z</time>
      </trkpt>
      <trkpt lat="44.39481" lon="1.04837">
        <ele>236.5</ele>
        <time>2017-05-28T07:54:43.000Z</time>
      </trkpt>
      <trkpt lat="44.39481" lon="1.04837">
        <ele>236.6</ele>
        <time>2017-05-28T07:54:44.000Z</time>
      </trkpt>
      <trkpt lat="44.39481" lon="1.04837">
        <ele>236.6</ele>
        <time>2017-05-28T07:54:45.000Z</time>
      </trkpt>
      <trkpt lat="44.3948" lon="1.04837">
        <ele>236.6</ele>
        <time>2017-05-28T07:54:46.000Z</time>
      </trkpt>
      <trkpt lat="44.3948" lon="1.04837">
        <ele>236.6</ele>
        <time>2017-05-28T07:54:47.000Z</time>
      </trkpt>
      <trkpt lat="44.3948" lon="1.04837">
        <ele>236.7</ele>
        <time>2017-05-28T07:54:48.000Z</time>
      </trkpt>
      <trkpt lat="44.3948" lon="1.04837">
        <ele>236.7</ele>
        <time>2017-05-28T07:54:49.000Z</time>
      </trkpt>
      <trkpt lat="44.3948" lon="1.04837">
        <ele>236.8</ele>
        <time>2017-05-28T07:54:50.000Z</time>
      </trkpt>
      <trkpt lat="44.39479" lon="1.04837">
        <ele>236.9</ele>
        <time>2017-05-28T07:54:51.000Z</time>
      </trkpt>
      <trkpt lat="44.39478" lon="1.04838">
        <ele>237.1</ele>
        <time>2017-05-28T07:54:52.000Z</time>
      </trkpt>
      <trkpt lat="44.39475" lon="1.04838">
        <ele>237.6</ele>
        <time>2017-05-28T07:54:53.000Z</time>
      </trkpt>
      <trkpt lat="44.39474" lon="1.04839">
        <ele>237.8</ele>
        <time>2017-05-28T07:54:54.000Z</time>
      </trkpt>
      <trkpt lat="44.39473" lon="1.04839">
        <ele>238.1</ele>
        <time>2017-05-28T07:54:55.000Z</time>
      </trkpt>
      <trkpt lat="44.39471" lon="1.0484">
        <ele>238.4</ele>
        <time>2017-05-28T07:54:56.000Z</time>
      </trkpt>
      <trkpt lat="44.39471" lon="1.0484">
        <ele>238.5</ele>
        <time>2017-05-28T07:54:57.000Z</time>
      </trkpt>
      <trkpt lat="44.3947" lon="1.0484">
        <ele>238.6</ele>
        <time>2017-05-28T07:54:58.000Z</time>
      </trkpt>
      <trkpt lat="44.39469" lon="1.0484">
        <ele>238.7</ele>
        <time>2017-05-28T07:54:59.000Z</time>
      </trkpt>
      <trkpt lat="44.39469" lon="1.0484">
        <ele>238.9</ele>
        <time>2017-05-28T07:55:00.000Z</time>
      </trkpt>
      <trkpt lat="44.39467" lon="1.0484">
        <ele>239</ele>
        <time>2017-05-28T07:55:01.000Z</time>
      </trkpt>
      <trkpt lat="44.39465" lon="1.0484">
        <ele>239.3</ele>
        <time>2017-05-28T07:55:02.000Z</time>
      </trkpt>
      <trkpt lat="44.39462" lon="1.0484">
        <ele>239.8</ele>
        <time>2017-05-28T07:55:03.000Z</time>
      </trkpt>
      <trkpt lat="44.3946" lon="1.04839">
        <ele>240.1</ele>
        <time>2017-05-28T07:55:04.000Z</time>
      </trkpt>
      <trkpt lat="44.39458" lon="1.04839">
        <ele>240.3</ele>
        <time>2017-05-28T07:55:05.000Z</time>
      </trkpt>
      <trkpt lat="44.39456" lon="1.04839">
        <ele>240.6</ele>
        <time>2017-05-28T07:55:06.000Z</time>
      </trkpt>
      <trkpt lat="44.39455" lon="1.04839">
        <ele>240.8</ele>
        <time>2017-05-28T07:55:07.000Z</time>
      </trkpt>
      <trkpt lat="44.39453" lon="1.0484">
        <ele>241</ele>
        <time>2017-05-28T07:55:08.000Z</time>
      </trkpt>
      <trkpt lat="44.39452" lon="1.0484">
        <ele>241.2</ele>
        <time>2017-05-28T07:55:09.000Z</time>
      </trkpt>
      <trkpt lat="44.39451" lon="1.0484">
        <ele>241.5</ele>
        <time>2017-05-28T07:55:10.000Z</time>
      </trkpt>
      <trkpt lat="44.3945" lon="1.04841">
        <ele>241.7</ele>
        <time>2017-05-28T07:55:11.000Z</time>
      </trkpt>
      <trkpt lat="44.39448" lon="1.04841">
        <ele>241.9</ele>
        <time>2017-05-28T07:55:12.000Z</time>
      </trkpt>
      <trkpt lat="44.39447" lon="1.04841">
        <ele>242.1</ele>
        <time>2017-05-28T07:55:13.000Z</time>
      </trkpt>
      <trkpt lat="44.39446" lon="1.04841">
        <ele>242.3</ele>
        <time>2017-05-28T07:55:14.000Z</time>
      </trkpt>
      <trkpt lat="44.39445" lon="1.0484">
        <ele>242.4</ele>
        <time>2017-05-28T07:55:15.000Z</time>
      </trkpt>
      <trkpt lat="44.39444" lon="1.0484">
        <ele>242.5</ele>
        <time>2017-05-28T07:55:16.000Z</time>
      </trkpt>
      <trkpt lat="44.39443" lon="1.0484">
        <ele>242.7</ele>
        <time>2017-05-28T07:55:17.000Z</time>
      </trkpt>
      <trkpt lat="44.39442" lon="1.0484">
        <ele>242.7</ele>
        <time>2017-05-28T07:55:18.000Z</time>
      </trkpt>
      <trkpt lat="44.39441" lon="1.0484">
        <ele>242.9</ele>
        <time>2017-05-28T07:55:19.000Z</time>
      </trkpt>
      <trkpt lat="44.39441" lon="1.0484">
        <ele>242.9</ele>
        <time>2017-05-28T07:55:20.000Z</time>
      </trkpt>
      <trkpt lat="44.39441" lon="1.0484">
        <ele>242.9</ele>
        <time>2017-05-28T07:55:21.000Z</time>
      </trkpt>
      <trkpt lat="44.3944" lon="1.0484">
        <ele>243</ele>
        <time>2017-05-28T07:55:22.000Z</time>
      </trkpt>
      <trkpt lat="44.3944" lon="1.0484">
        <ele>243</ele>
        <time>2017-05-28T07:55:23.000Z</time>
      </trkpt>
      <trkpt lat="44.3944" lon="1.0484">
        <ele>243</ele>
        <time>2017-05-28T07:55:24.000Z</time>
      </trkpt>
      <trkpt lat="44.3944" lon="1.0484">
        <ele>243.1</ele>
        <time>2017-05-28T07:55:25.000Z</time>
      </trkpt>
      <trkpt lat="44.3944" lon="1.0484">
        <ele>243.1</ele>
        <time>2017-05-28T07:55:26.000Z</time>
      </trkpt>
      <trkpt lat="44.3944" lon="1.0484">
        <ele>243.1</ele>
        <time>2017-05-28T07:55:27.000Z</time>
      </trkpt>
      <trkpt lat="44.3944" lon="1.0484">
        <ele>243.1</ele>
        <time>2017-05-28T07:55:28.000Z</time>
      </trkpt>
      <trkpt lat="44.39439" lon="1.0484">
        <ele>243.1</ele>
        <time>2017-05-28T07:55:29.000Z</time>
      </trkpt>
      <trkpt lat="44.39439" lon="1.0484">
        <ele>243.1</ele>
        <time>2017-05-28T07:55:30.000Z</time>
      </trkpt>
      <trkpt lat="44.39439" lon="1.0484">
        <ele>243.2</ele>
        <time>2017-05-28T07:55:31.000Z</time>
      </trkpt>
      <trkpt lat="44.39439" lon="1.0484">
        <ele>243.2</ele>
        <time>2017-05-28T07:55:32.000Z</time>
      </trkpt>
      <trkpt lat="44.39439" lon="1.0484">
        <ele>243.2</ele>
        <time>2017-05-28T07:55:33.000Z</time>
      </trkpt>
      <trkpt lat="44.39438" lon="1.0484">
        <ele>243.2</ele>
        <time>2017-05-28T07:55:34.000Z</time>
      </trkpt>
      <trkpt lat="44.39438" lon="1.0484">
        <ele>243.3</ele>
        <time>2017-05-28T07:55:35.000Z</time>
      </trkpt>
      <trkpt lat="44.39436" lon="1.0484">
        <ele>243.6</ele>
        <time>2017-05-28T07:55:36.000Z</time>
      </trkpt>
      <trkpt lat="44.39435" lon="1.0484">
        <ele>243.9</ele>
        <time>2017-05-28T07:55:37.000Z</time>
      </trkpt>
      <trkpt lat="44.39433" lon="1.0484">
        <ele>244.1</ele>
        <time>2017-05-28T07:55:38.000Z</time>
      </trkpt>
      <trkpt lat="44.39431" lon="1.0484">
        <ele>244.3</ele>
        <time>2017-05-28T07:55:39.000Z</time>
      </trkpt>
      <trkpt lat="44.3943" lon="1.04841">
        <ele>244.6</ele>
        <time>2017-05-28T07:55:40.000Z</time>
      </trkpt>
      <trkpt lat="44.39429" lon="1.04841">
        <ele>244.8</ele>
        <time>2017-05-28T07:55:41.000Z</time>
      </trkpt>
      <trkpt lat="44.39427" lon="1.04841">
        <ele>245</ele>
        <time>2017-05-28T07:55:42.000Z</time>
      </trkpt>
      <trkpt lat="44.39426" lon="1.04841">
        <ele>245.2</ele>
        <time>2017-05-28T07:55:43.000Z</time>
      </trkpt>
      <trkpt lat="44.39425" lon="1.04841">
        <ele>245.4</ele>
        <time>2017-05-28T07:55:44.000Z</time>
      </trkpt>
      <trkpt lat="44.39423" lon="1.04841">
        <ele>245.6</ele>
        <time>2017-05-28T07:55:45.000Z</time>
      </trkpt>
      <trkpt lat="44.39423" lon="1.04841">
        <ele>245.7</ele>
        <time>2017-05-28T07:55:46.000Z</time>
      </trkpt>
      <trkpt lat="44.39422" lon="1.04841">
        <ele>245.8</ele>
        <time>2017-05-28T07:55:47.000Z</time>
      </trkpt>
      <trkpt lat="44.39422" lon="1.04841">
        <ele>245.9</ele>
        <time>2017-05-28T07:55:48.000Z</time>
      </trkpt>
      <trkpt lat="44.3942" lon="1.04842">
        <ele>246.1</ele>
        <time>2017-05-28T07:55:49.000Z</time>
      </trkpt>
      <trkpt lat="44.39418" lon="1.04842">
        <ele>246.4</ele>
        <time>2017-05-28T07:55:50.000Z</time>
      </trkpt>
      <trkpt lat="44.39417" lon="1.04842">
        <ele>246.5</ele>
        <time>2017-05-28T07:55:51.000Z</time>
      </trkpt>
      <trkpt lat="44.39417" lon="1.04842">
        <ele>246.6</ele>
        <time>2017-05-28T07:55:52.000Z</time>
      </trkpt>
      <trkpt lat="44.39416" lon="1.04842">
        <ele>246.7</ele>
        <time>2017-05-28T07:55:53.000Z</time>
      </trkpt>
      <trkpt lat="44.39416" lon="1.04842">
        <ele>246.7</ele>
        <time>2017-05-28T07:55:54.000Z</time>
      </trkpt>
      <trkpt lat="44.39416" lon="1.04842">
        <ele>246.7</ele>
        <time>2017-05-28T07:55:55.000Z</time>
      </trkpt>
      <trkpt lat="44.39416" lon="1.04842">
        <ele>246.7</ele>
        <time>2017-05-28T07:55:56.000Z</time>
      </trkpt>
      <trkpt lat="44.39416" lon="1.04842">
        <ele>246.7</ele>
        <time>2017-05-28T07:55:57.000Z</time>
      </trkpt>
      <trkpt lat="44.39416" lon="1.04842">
        <ele>246.7</ele>
        <time>2017-05-28T07:55:58.000Z</time>
      </trkpt>
      <trkpt lat="44.39416" lon="1.04842">
        <ele>246.7</ele>
        <time>2017-05-28T07:55:59.000Z</time>
      </trkpt>
      <trkpt lat="44.39416" lon="1.04842">
        <ele>246.7</ele>
        <time>2017-05-28T07:56:00.000Z</time>
      </trkpt>
      <trkpt lat="44.39416" lon="1.04842">
        <ele>246.7</ele>
        <time>2017-05-28T07:56:01.000Z</time>
      </trkpt>
      <trkpt lat="44.39416" lon="1.04843">
        <ele>246.7</ele>
        <time>2017-05-28T07:56:02.000Z</time>
      </trkpt>
      <trkpt lat="44.39416" lon="1.04843">
        <ele>246.7</ele>
        <time>2017-05-28T07:56:03.000Z</time>
      </trkpt>
      <trkpt lat="44.39416" lon="1.04843">
        <ele>246.8</ele>
        <time>2017-05-28T07:56:04.000Z</time>
      </trkpt>
      <trkpt lat="44.39415" lon="1.04843">
        <ele>246.8</ele>
        <time>2017-05-28T07:56:05.000Z</time>
      </trkpt>
      <trkpt lat="44.39415" lon="1.04843">
        <ele>246.8</ele>
        <time>2017-05-28T07:56:06.000Z</time>
      </trkpt>
      <trkpt lat="44.39415" lon="1.04843">
        <ele>246.8</ele>
        <time>2017-05-28T07:56:07.000Z</time>
      </trkpt>
      <trkpt lat="44.39415" lon="1.04843">
        <ele>246.8</ele>
        <time>2017-05-28T07:56:08.000Z</time>
      </trkpt>
      <trkpt lat="44.39414" lon="1.04843">
        <ele>246.9</ele>
        <time>2017-05-28T07:56:09.000Z</time>
      </trkpt>
      <trkpt lat="44.39414" lon="1.04843">
        <ele>246.9</ele>
        <time>2017-05-28T07:56:10.000Z</time>
      </trkpt>
      <trkpt lat="44.39414" lon="1.04843">
        <ele>246.9</ele>
        <time>2017-05-28T07:56:11.000Z</time>
      </trkpt>
      <trkpt lat="44.39414" lon="1.04843">
        <ele>246.9</ele>
        <time>2017-05-28T07:56:12.000Z</time>
      </trkpt>
      <trkpt lat="44.39414" lon="1.04843">
        <ele>246.9</ele>
        <time>2017-05-28T07:56:13.000Z</time>
      </trkpt>
      <trkpt lat="44.39414" lon="1.04843">
        <ele>246.9</ele>
        <time>2017-05-28T07:56:14.000Z</time>
      </trkpt>
      <trkpt lat="44.39414" lon="1.04843">
        <ele>246.9</ele>
        <time>2017-05-28T07:56:15.000Z</time>
      </trkpt>
      <trkpt lat="44.39414" lon="1.04843">
        <ele>246.9</ele>
        <time>2017-05-28T07:56:16.000Z</time>
      </trkpt>
      <trkpt lat="44.39414" lon="1.04843">
        <ele>246.9</ele>
        <time>2017-05-28T07:56:17.000Z</time>
      </trkpt>
      <trkpt lat="44.39414" lon="1.04843">
        <ele>246.9</ele>
        <time>2017-05-28T07:56:18.000Z</time>
      </trkpt>
      <trkpt lat="44.39414" lon="1.04844">
        <ele>247</ele>
        <time>2017-05-28T07:56:19.000Z</time>
      </trkpt>
      <trkpt lat="44.39413" lon="1.04845">
        <ele>247.1</ele>
        <time>2017-05-28T07:56:20.000Z</time>
      </trkpt>
      <trkpt lat="44.39413" lon="1.04847">
        <ele>247.2</ele>
        <time>2017-05-28T07:56:21.000Z</time>
      </trkpt>
      <trkpt lat="44.39414" lon="1.04848">
        <ele>247.3</ele>
        <time>2017-05-28T07:56:22.000Z</time>
      </trkpt>
      <trkpt lat="44.39415" lon="1.0485">
        <ele>247.3</ele>
        <time>2017-05-28T07:56:23.000Z</time>
      </trkpt>
      <trkpt lat="44.39416" lon="1.0485">
        <ele>247.3</ele>
        <time>2017-05-28T07:56:24.000Z</time>
      </trkpt>
      <trkpt lat="44.39417" lon="1.04851">
        <ele>247.3</ele>
        <time>2017-05-28T07:56:25.000Z</time>
      </trkpt>
      <trkpt lat="44.39417" lon="1.04851">
        <ele>247.3</ele>
        <time>2017-05-28T07:56:26.000Z</time>
      </trkpt>
      <trkpt lat="44.39418" lon="1.04852">
        <ele>247.2</ele>
        <time>2017-05-28T07:56:27.000Z</time>
      </trkpt>
      <trkpt lat="44.39418" lon="1.04852">
        <ele>247.2</ele>
        <time>2017-05-28T07:56:28.000Z</time>
      </trkpt>
      <trkpt lat="44.39418" lon="1.04852">
        <ele>247.1</ele>
        <time>2017-05-28T07:56:29.000Z</time>
      </trkpt>
      <trkpt lat="44.39419" lon="1.04852">
        <ele>247.1</ele>
        <time>2017-05-28T07:56:30.000Z</time>
      </trkpt>
      <trkpt lat="44.39419" lon="1.04852">
        <ele>247.1</ele>
        <time>2017-05-28T07:56:31.000Z</time>
      </trkpt>
      <trkpt lat="44.39419" lon="1.04853">
        <ele>247</ele>
        <time>2017-05-28T07:56:32.000Z</time>
      </trkpt>
      <trkpt lat="44.3942" lon="1.04853">
        <ele>247</ele>
        <time>2017-05-28T07:56:33.000Z</time>
      </trkpt>
      <trkpt lat="44.3942" lon="1.04853">
        <ele>247</ele>
        <time>2017-05-28T07:56:34.000Z</time>
      </trkpt>
      <trkpt lat="44.3942" lon="1.04854">
        <ele>247</ele>
        <time>2017-05-28T07:56:35.000Z</time>
      </trkpt>
      <trkpt lat="44.39421" lon="1.04854">
        <ele>246.9</ele>
        <time>2017-05-28T07:56:36.000Z</time>
      </trkpt>
      <trkpt lat="44.39422" lon="1.04855">
        <ele>246.9</ele>
        <time>2017-05-28T07:56:37.000Z</time>
      </trkpt>
      <trkpt lat="44.39423" lon="1.04857">
        <ele>247</ele>
        <time>2017-05-28T07:56:38.000Z</time>
      </trkpt>
      <trkpt lat="44.39423" lon="1.04859">
        <ele>247.1</ele>
        <time>2017-05-28T07:56:39.000Z</time>
      </trkpt>
      <trkpt lat="44.39423" lon="1.0486">
        <ele>247.2</ele>
        <time>2017-05-28T07:56:40.000Z</time>
      </trkpt>
      <trkpt lat="44.39422" lon="1.04862">
        <ele>247.4</ele>
        <time>2017-05-28T07:56:41.000Z</time>
      </trkpt>
      <trkpt lat="44.39422" lon="1.04863">
        <ele>247.5</ele>
        <time>2017-05-28T07:56:42.000Z</time>
      </trkpt>
      <trkpt lat="44.39421" lon="1.04863">
        <ele>247.6</ele>
        <time>2017-05-28T07:56:43.000Z</time>
      </trkpt>
      <trkpt lat="44.39421" lon="1.04864">
        <ele>247.7</ele>
        <time>2017-05-28T07:56:44.000Z</time>
      </trkpt>
      <trkpt lat="44.3942" lon="1.04864">
        <ele>247.8</ele>
        <time>2017-05-28T07:56:45.000Z</time>
      </trkpt>
      <trkpt lat="44.3942" lon="1.04865">
        <ele>247.9</ele>
        <time>2017-05-28T07:56:46.000Z</time>
      </trkpt>
      <trkpt lat="44.3942" lon="1.04865">
        <ele>247.9</ele>
        <time>2017-05-28T07:56:47.000Z</time>
      </trkpt>
      <trkpt lat="44.39419" lon="1.04865">
        <ele>248</ele>
        <time>2017-05-28T07:56:48.000Z</time>
      </trkpt>
      <trkpt lat="44.39419" lon="1.04866">
        <ele>248.1</ele>
        <time>2017-05-28T07:56:49.000Z</time>
      </trkpt>
      <trkpt lat="44.39418" lon="1.04866">
        <ele>248.2</ele>
        <time>2017-05-28T07:56:50.000Z</time>
      </trkpt>
      <trkpt lat="44.39418" lon="1.04866">
        <ele>248.2</ele>
        <time>2017-05-28T07:56:51.000Z</time>
      </trkpt>
      <trkpt lat="44.39417" lon="1.04866">
        <ele>248.3</ele>
        <time>2017-05-28T07:56:52.000Z</time>
      </trkpt>
      <trkpt lat="44.39417" lon="1.04867">
        <ele>248.4</ele>
        <time>2017-05-28T07:56:53.000Z</time>
      </trkpt>
      <trkpt lat="44.39415" lon="1.04867">
        <ele>248.5</ele>
        <time>2017-05-28T07:56:54.000Z</time>
      </trkpt>
      <trkpt lat="44.39414" lon="1.04867">
        <ele>248.6</ele>
        <time>2017-05-28T07:56:55.000Z</time>
      </trkpt>
      <trkpt lat="44.39412" lon="1.04866">
        <ele>248.7</ele>
        <time>2017-05-28T07:56:56.000Z</time>
      </trkpt>
      <trkpt lat="44.3941" lon="1.04866">
        <ele>248.8</ele>
        <time>2017-05-28T07:56:57.000Z</time>
      </trkpt>
      <trkpt lat="44.39408" lon="1.04866">
        <ele>248.9</ele>
        <time>2017-05-28T07:56:58.000Z</time>
      </trkpt>
      <trkpt lat="44.39406" lon="1.04866">
        <ele>249</ele>
        <time>2017-05-28T07:56:59.000Z</time>
      </trkpt>
      <trkpt lat="44.39404" lon="1.04866">
        <ele>249.1</ele>
        <time>2017-05-28T07:57:00.000Z</time>
      </trkpt>
      <trkpt lat="44.39402" lon="1.04865">
        <ele>249.2</ele>
        <time>2017-05-28T07:57:01.000Z</time>
      </trkpt>
      <trkpt lat="44.39401" lon="1.04865">
        <ele>249.2</ele>
        <time>2017-05-28T07:57:02.000Z</time>
      </trkpt>
      <trkpt lat="44.39399" lon="1.04864">
        <ele>249.3</ele>
        <time>2017-05-28T07:57:03.000Z</time>
      </trkpt>
      <trkpt lat="44.39397" lon="1.04864">
        <ele>249.4</ele>
        <time>2017-05-28T07:57:04.000Z</time>
      </trkpt>
      <trkpt lat="44.39395" lon="1.04863">
        <ele>249.5</ele>
        <time>2017-05-28T07:57:05.000Z</time>
      </trkpt>
      <trkpt lat="44.39393" lon="1.04862">
        <ele>249.6</ele>
        <time>2017-05-28T07:57:06.000Z</time>
      </trkpt>
      <trkpt lat="44.3939" lon="1.04861">
        <ele>249.7</ele>
        <time>2017-05-28T07:57:07.000Z</time>
      </trkpt>
      <trkpt lat="44.39388" lon="1.04861">
        <ele>249.8</ele>
        <time>2017-05-28T07:57:08.000Z</time>
      </trkpt>
      <trkpt lat="44.39385" lon="1.0486">
        <ele>250</ele>
        <time>2017-05-28T07:57:09.000Z</time>
      </trkpt>
      <trkpt lat="44.39382" lon="1.0486">
        <ele>250.1</ele>
        <time>2017-05-28T07:57:10.000Z</time>
      </trkpt>
      <trkpt lat="44.3938" lon="1.04859">
        <ele>250.3</ele>
        <time>2017-05-28T07:57:11.000Z</time>
      </trkpt>
      <trkpt lat="44.39377" lon="1.04859">
        <ele>250.4</ele>
        <time>2017-05-28T07:57:12.000Z</time>
      </trkpt>
      <trkpt lat="44.39375" lon="1.04859">
        <ele>250.6</ele>
        <time>2017-05-28T07:57:13.000Z</time>
      </trkpt>
      <trkpt lat="44.39373" lon="1.04858">
        <ele>250.7</ele>
        <time>2017-05-28T07:57:14.000Z</time>
      </trkpt>
      <trkpt lat="44.3937" lon="1.04859">
        <ele>250.9</ele>
        <time>2017-05-28T07:57:15.000Z</time>
      </trkpt>
      <trkpt lat="44.39368" lon="1.04859">
        <ele>251</ele>
        <time>2017-05-28T07:57:16.000Z</time>
      </trkpt>
      <trkpt lat="44.39366" lon="1.04859">
        <ele>251.1</ele>
        <time>2017-05-28T07:57:17.000Z</time>
      </trkpt>
      <trkpt lat="44.39365" lon="1.0486">
        <ele>251.3</ele>
        <time>2017-05-28T07:57:18.000Z</time>
      </trkpt>
      <trkpt lat="44.39363" lon="1.0486">
        <ele>251.4</ele>
        <time>2017-05-28T07:57:19.000Z</time>
      </trkpt>
      <trkpt lat="44.39361" lon="1.04861">
        <ele>251.6</ele>
        <time>2017-05-28T07:57:20.000Z</time>
      </trkpt>
      <trkpt lat="44.39359" lon="1.04862">
        <ele>251.7</ele>
        <time>2017-05-28T07:57:21.000Z</time>
      </trkpt>
      <trkpt lat="44.39356" lon="1.04862">
        <ele>251.9</ele>
        <time>2017-05-28T07:57:22.000Z</time>
      </trkpt>
      <trkpt lat="44.39354" lon="1.04863">
        <ele>252</ele>
        <time>2017-05-28T07:57:23.000Z</time>
      </trkpt>
      <trkpt lat="44.39352" lon="1.04864">
        <ele>252.2</ele>
        <time>2017-05-28T07:57:24.000Z</time>
      </trkpt>
      <trkpt lat="44.3935" lon="1.04864">
        <ele>252.4</ele>
        <time>2017-05-28T07:57:25.000Z</time>
      </trkpt>
      <trkpt lat="44.39347" lon="1.04864">
        <ele>252.5</ele>
        <time>2017-05-28T07:57:26.000Z</time>
      </trkpt>
      <trkpt lat="44.39345" lon="1.04864">
        <ele>252.7</ele>
        <time>2017-05-28T07:57:27.000Z</time>
      </trkpt>
      <trkpt lat="44.39342" lon="1.04864">
        <ele>252.8</ele>
        <time>2017-05-28T07:57:28.000Z</time>
      </trkpt>
      <trkpt lat="44.3934" lon="1.04864">
        <ele>253</ele>
        <time>2017-05-28T07:57:29.000Z</time>
      </trkpt>
      <trkpt lat="44.39337" lon="1.04864">
        <ele>253.1</ele>
        <time>2017-05-28T07:57:30.000Z</time>
      </trkpt>
      <trkpt lat="44.39335" lon="1.04864">
        <ele>253.3</ele>
        <time>2017-05-28T07:57:31.000Z</time>
      </trkpt>
      <trkpt lat="44.39332" lon="1.04864">
        <ele>253.4</ele>
        <time>2017-05-28T07:57:32.000Z</time>
      </trkpt>
      <trkpt lat="44.3933" lon="1.04865">
        <ele>253.4</ele>
        <time>2017-05-28T07:57:33.000Z</time>
      </trkpt>
      <trkpt lat="44.39327" lon="1.04865">
        <ele>253.5</ele>
        <time>2017-05-28T07:57:34.000Z</time>
      </trkpt>
      <trkpt lat="44.39325" lon="1.04866">
        <ele>253.5</ele>
        <time>2017-05-28T07:57:35.000Z</time>
      </trkpt>
      <trkpt lat="44.39323" lon="1.04868">
        <ele>253.5</ele>
        <time>2017-05-28T07:57:36.000Z</time>
      </trkpt>
      <trkpt lat="44.39321" lon="1.04869">
        <ele>253.6</ele>
        <time>2017-05-28T07:57:37.000Z</time>
      </trkpt>
      <trkpt lat="44.39319" lon="1.0487">
        <ele>253.6</ele>
        <time>2017-05-28T07:57:38.000Z</time>
      </trkpt>
      <trkpt lat="44.39317" lon="1.0487">
        <ele>253.6</ele>
        <time>2017-05-28T07:57:39.000Z</time>
      </trkpt>
      <trkpt lat="44.39315" lon="1.04871">
        <ele>253.7</ele>
        <time>2017-05-28T07:57:40.000Z</time>
      </trkpt>
      <trkpt lat="44.39314" lon="1.04871">
        <ele>253.7</ele>
        <time>2017-05-28T07:57:41.000Z</time>
      </trkpt>
      <trkpt lat="44.39312" lon="1.04872">
        <ele>253.7</ele>
        <time>2017-05-28T07:57:42.000Z</time>
      </trkpt>
      <trkpt lat="44.39311" lon="1.04873">
        <ele>253.7</ele>
        <time>2017-05-28T07:57:43.000Z</time>
      </trkpt>
      <trkpt lat="44.39309" lon="1.04874">
        <ele>253.8</ele>
        <time>2017-05-28T07:57:44.000Z</time>
      </trkpt>
      <trkpt lat="44.39307" lon="1.04876">
        <ele>253.8</ele>
        <time>2017-05-28T07:57:45.000Z</time>
      </trkpt>
      <trkpt lat="44.39304" lon="1.04878">
        <ele>253.9</ele>
        <time>2017-05-28T07:57:46.000Z</time>
      </trkpt>
      <trkpt lat="44.39303" lon="1.04881">
        <ele>253.9</ele>
        <time>2017-05-28T07:57:47.000Z</time>
      </trkpt>
      <trkpt lat="44.39301" lon="1.04884">
        <ele>254</ele>
        <time>2017-05-28T07:57:48.000Z</time>
      </trkpt>
      <trkpt lat="44.39299" lon="1.04887">
        <ele>254.1</ele>
        <time>2017-05-28T07:57:49.000Z</time>
      </trkpt>
      <trkpt lat="44.39297" lon="1.04889">
        <ele>254.1</ele>
        <time>2017-05-28T07:57:50.000Z</time>
      </trkpt>
      <trkpt lat="44.39294" lon="1.04891">
        <ele>254.2</ele>
        <time>2017-05-28T07:57:51.000Z</time>
      </trkpt>
      <trkpt lat="44.39292" lon="1.04894">
        <ele>254.2</ele>
        <time>2017-05-28T07:57:52.000Z</time>
      </trkpt>
      <trkpt lat="44.3929" lon="1.04897">
        <ele>254.3</ele>
        <time>2017-05-28T07:57:53.000Z</time>
      </trkpt>
      <trkpt lat="44.39289" lon="1.049">
        <ele>254.3</ele>
        <time>2017-05-28T07:57:54.000Z</time>
      </trkpt>
      <trkpt lat="44.39287" lon="1.04903">
        <ele>254.4</ele>
        <time>2017-05-28T07:57:55.000Z</time>
      </trkpt>
      <trkpt lat="44.39285" lon="1.04906">
        <ele>254.5</ele>
        <time>2017-05-28T07:57:56.000Z</time>
      </trkpt>
      <trkpt lat="44.39283" lon="1.04909">
        <ele>254.5</ele>
        <time>2017-05-28T07:57:57.000Z</time>
      </trkpt>
      <trkpt lat="44.3928" lon="1.04912">
        <ele>254.6</ele>
        <time>2017-05-28T07:57:58.000Z</time>
      </trkpt>
      <trkpt lat="44.39278" lon="1.04914">
        <ele>254.6</ele>
        <time>2017-05-28T07:57:59.000Z</time>
      </trkpt>
      <trkpt lat="44.39275" lon="1.04917">
        <ele>254.7</ele>
        <time>2017-05-28T07:58:00.000Z</time>
      </trkpt>
      <trkpt lat="44.39272" lon="1.04919">
        <ele>254.8</ele>
        <time>2017-05-28T07:58:01.000Z</time>
      </trkpt>
      <trkpt lat="44.3927" lon="1.04921">
        <ele>254.9</ele>
        <time>2017-05-28T07:58:02.000Z</time>
      </trkpt>
      <trkpt lat="44.39267" lon="1.04923">
        <ele>255</ele>
        <time>2017-05-28T07:58:03.000Z</time>
      </trkpt>
      <trkpt lat="44.39265" lon="1.04924">
        <ele>255</ele>
        <time>2017-05-28T07:58:04.000Z</time>
      </trkpt>
      <trkpt lat="44.39263" lon="1.04926">
        <ele>255.1</ele>
        <time>2017-05-28T07:58:05.000Z</time>
      </trkpt>
      <trkpt lat="44.39262" lon="1.04927">
        <ele>255.1</ele>
        <time>2017-05-28T07:58:06.000Z</time>
      </trkpt>
      <trkpt lat="44.3926" lon="1.04929">
        <ele>255.2</ele>
        <time>2017-05-28T07:58:07.000Z</time>
      </trkpt>
      <trkpt lat="44.39258" lon="1.0493">
        <ele>255.3</ele>
        <time>2017-05-28T07:58:08.000Z</time>
      </trkpt>
      <trkpt lat="44.39256" lon="1.04932">
        <ele>255.3</ele>
        <time>2017-05-28T07:58:09.000Z</time>
      </trkpt>
      <trkpt lat="44.39255" lon="1.04933">
        <ele>255.4</ele>
        <time>2017-05-28T07:58:10.000Z</time>
      </trkpt>
      <trkpt lat="44.39253" lon="1.04935">
        <ele>255.4</ele>
        <time>2017-05-28T07:58:11.000Z</time>
      </trkpt>
      <trkpt lat="44.39251" lon="1.04937">
        <ele>255.5</ele>
        <time>2017-05-28T07:58:12.000Z</time>
      </trkpt>
      <trkpt lat="44.39249" lon="1.04939">
        <ele>255.5</ele>
        <time>2017-05-28T07:58:13.000Z</time>
      </trkpt>
      <trkpt lat="44.39248" lon="1.04942">
        <ele>255.6</ele>
        <time>2017-05-28T07:58:14.000Z</time>
      </trkpt>
      <trkpt lat="44.39247" lon="1.04945">
        <ele>255.7</ele>
        <time>2017-05-28T07:58:15.000Z</time>
      </trkpt>
      <trkpt lat="44.39247" lon="1.04948">
        <ele>255.8</ele>
        <time>2017-05-28T07:58:16.000Z</time>
      </trkpt>
      <trkpt lat="44.39247" lon="1.04952">
        <ele>255.9</ele>
        <time>2017-05-28T07:58:17.000Z</time>
      </trkpt>
      <trkpt lat="44.39246" lon="1.04956">
        <ele>255.9</ele>
        <time>2017-05-28T07:58:18.000Z</time>
      </trkpt>
      <trkpt lat="44.39246" lon="1.04959">
        <ele>256</ele>
        <time>2017-05-28T07:58:19.000Z</time>
      </trkpt>
      <trkpt lat="44.39245" lon="1.04963">
        <ele>256.1</ele>
        <time>2017-05-28T07:58:20.000Z</time>
      </trkpt>
      <trkpt lat="44.39245" lon="1.04967">
        <ele>256.2</ele>
        <time>2017-05-28T07:58:21.000Z</time>
      </trkpt>
      <trkpt lat="44.39243" lon="1.0497">
        <ele>256.3</ele>
        <time>2017-05-28T07:58:22.000Z</time>
      </trkpt>
      <trkpt lat="44.39242" lon="1.04974">
        <ele>256.3</ele>
        <time>2017-05-28T07:58:23.000Z</time>
      </trkpt>
      <trkpt lat="44.39241" lon="1.04977">
        <ele>256.4</ele>
        <time>2017-05-28T07:58:24.000Z</time>
      </trkpt>
      <trkpt lat="44.39239" lon="1.0498">
        <ele>256.4</ele>
        <time>2017-05-28T07:58:25.000Z</time>
      </trkpt>
      <trkpt lat="44.39238" lon="1.04982">
        <ele>256.5</ele>
        <time>2017-05-28T07:58:26.000Z</time>
      </trkpt>
      <trkpt lat="44.39236" lon="1.04984">
        <ele>256.5</ele>
        <time>2017-05-28T07:58:27.000Z</time>
      </trkpt>
      <trkpt lat="44.39235" lon="1.04987">
        <ele>256.6</ele>
        <time>2017-05-28T07:58:28.000Z</time>
      </trkpt>
      <trkpt lat="44.39234" lon="1.0499">
        <ele>256.6</ele>
        <time>2017-05-28T07:58:29.000Z</time>
      </trkpt>
      <trkpt lat="44.39233" lon="1.04992">
        <ele>256.6</ele>
        <time>2017-05-28T07:58:30.000Z</time>
      </trkpt>
      <trkpt lat="44.39231" lon="1.04995">
        <ele>256.7</ele>
        <time>2017-05-28T07:58:31.000Z</time>
      </trkpt>
      <trkpt lat="44.3923" lon="1.04998">
        <ele>256.7</ele>
        <time>2017-05-28T07:58:32.000Z</time>
      </trkpt>
      <trkpt lat="44.39227" lon="1.05">
        <ele>256.7</ele>
        <time>2017-05-28T07:58:33.000Z</time>
      </trkpt>
      <trkpt lat="44.39225" lon="1.05001">
        <ele>256.7</ele>
        <time>2017-05-28T07:58:34.000Z</time>
      </trkpt>
      <trkpt lat="44.39222" lon="1.05002">
        <ele>256.7</ele>
        <time>2017-05-28T07:58:35.000Z</time>
      </trkpt>
      <trkpt lat="44.39219" lon="1.05002">
        <ele>256.7</ele>
        <time>2017-05-28T07:58:36.000Z</time>
      </trkpt>
      <trkpt lat="44.39216" lon="1.05002">
        <ele>256.6</ele>
        <time>2017-05-28T07:58:37.000Z</time>
      </trkpt>
      <trkpt lat="44.39213" lon="1.05">
        <ele>256.6</ele>
        <time>2017-05-28T07:58:38.000Z</time>
      </trkpt>
      <trkpt lat="44.3921" lon="1.04999">
        <ele>256.5</ele>
        <time>2017-05-28T07:58:39.000Z</time>
      </trkpt>
      <trkpt lat="44.39208" lon="1.04997">
        <ele>256.5</ele>
        <time>2017-05-28T07:58:40.000Z</time>
      </trkpt>
      <trkpt lat="44.39205" lon="1.04995">
        <ele>256.4</ele>
        <time>2017-05-28T07:58:41.000Z</time>
      </trkpt>
      <trkpt lat="44.39203" lon="1.04992">
        <ele>256.4</ele>
        <time>2017-05-28T07:58:42.000Z</time>
      </trkpt>
      <trkpt lat="44.392" lon="1.04989">
        <ele>256.3</ele>
        <time>2017-05-28T07:58:43.000Z</time>
      </trkpt>
      <trkpt lat="44.39196" lon="1.04986">
        <ele>256.2</ele>
        <time>2017-05-28T07:58:44.000Z</time>
      </trkpt>
      <trkpt lat="44.39193" lon="1.04983">
        <ele>256.2</ele>
        <time>2017-05-28T07:58:45.000Z</time>
      </trkpt>
      <trkpt lat="44.39189" lon="1.0498">
        <ele>256.1</ele>
        <time>2017-05-28T07:58:46.000Z</time>
      </trkpt>
      <trkpt lat="44.39186" lon="1.04977">
        <ele>256.1</ele>
        <time>2017-05-28T07:58:47.000Z</time>
      </trkpt>
      <trkpt lat="44.39183" lon="1.04975">
        <ele>256.1</ele>
        <time>2017-05-28T07:58:48.000Z</time>
      </trkpt>
      <trkpt lat="44.3918" lon="1.04973">
        <ele>256.1</ele>
        <time>2017-05-28T07:58:49.000Z</time>
      </trkpt>
      <trkpt lat="44.39176" lon="1.0497">
        <ele>256</ele>
        <time>2017-05-28T07:58:50.000Z</time>
      </trkpt>
      <trkpt lat="44.39173" lon="1.04968">
        <ele>256</ele>
        <time>2017-05-28T07:58:51.000Z</time>
      </trkpt>
      <trkpt lat="44.3917" lon="1.04966">
        <ele>256</ele>
        <time>2017-05-28T07:58:52.000Z</time>
      </trkpt>
      <trkpt lat="44.39167" lon="1.04964">
        <ele>256</ele>
        <time>2017-05-28T07:58:53.000Z</time>
      </trkpt>
      <trkpt lat="44.39165" lon="1.04961">
        <ele>256.1</ele>
        <time>2017-05-28T07:58:54.000Z</time>
      </trkpt>
      <trkpt lat="44.39162" lon="1.04959">
        <ele>256.2</ele>
        <time>2017-05-28T07:58:55.000Z</time>
      </trkpt>
      <trkpt lat="44.39159" lon="1.04957">
        <ele>256.3</ele>
        <time>2017-05-28T07:58:56.000Z</time>
      </trkpt>
      <trkpt lat="44.39156" lon="1.04955">
        <ele>256.5</ele>
        <time>2017-05-28T07:58:57.000Z</time>
      </trkpt>
      <trkpt lat="44.39153" lon="1.04953">
        <ele>256.6</ele>
        <time>2017-05-28T07:58:58.000Z</time>
      </trkpt>
      <trkpt lat="44.3915" lon="1.04951">
        <ele>256.7</ele>
        <time>2017-05-28T07:58:59.000Z</time>
      </trkpt>
      <trkpt lat="44.39147" lon="1.0495">
        <ele>256.9</ele>
        <time>2017-05-28T07:59:00.000Z</time>
      </trkpt>
      <trkpt lat="44.39143" lon="1.04949">
        <ele>257.1</ele>
        <time>2017-05-28T07:59:01.000Z</time>
      </trkpt>
      <trkpt lat="44.3914" lon="1.04949">
        <ele>257.2</ele>
        <time>2017-05-28T07:59:02.000Z</time>
      </trkpt>
      <trkpt lat="44.39136" lon="1.04948">
        <ele>257.4</ele>
        <time>2017-05-28T07:59:03.000Z</time>
      </trkpt>
      <trkpt lat="44.39133" lon="1.04948">
        <ele>257.6</ele>
        <time>2017-05-28T07:59:04.000Z</time>
      </trkpt>
      <trkpt lat="44.39129" lon="1.04948">
        <ele>257.8</ele>
        <time>2017-05-28T07:59:05.000Z</time>
      </trkpt>
      <trkpt lat="44.39126" lon="1.04947">
        <ele>257.9</ele>
        <time>2017-05-28T07:59:06.000Z</time>
      </trkpt>
      <trkpt lat="44.39122" lon="1.04947">
        <ele>258.1</ele>
        <time>2017-05-28T07:59:07.000Z</time>
      </trkpt>
      <trkpt lat="44.39119" lon="1.04946">
        <ele>258.3</ele>
        <time>2017-05-28T07:59:08.000Z</time>
      </trkpt>
      <trkpt lat="44.39115" lon="1.04945">
        <ele>258.5</ele>
        <time>2017-05-28T07:59:09.000Z</time>
      </trkpt>
      <trkpt lat="44.39112" lon="1.04943">
        <ele>258.6</ele>
        <time>2017-05-28T07:59:10.000Z</time>
      </trkpt>
      <trkpt lat="44.39109" lon="1.04942">
        <ele>258.8</ele>
        <time>2017-05-28T07:59:11.000Z</time>
      </trkpt>
      <trkpt lat="44.39106" lon="1.0494">
        <ele>259</ele>
        <time>2017-05-28T07:59:12.000Z</time>
      </trkpt>
      <trkpt lat="44.39103" lon="1.04938">
        <ele>259.2</ele>
        <time>2017-05-28T07:59:13.000Z</time>
      </trkpt>
      <trkpt lat="44.391" lon="1.04935">
        <ele>259.5</ele>
        <time>2017-05-28T07:59:14.000Z</time>
      </trkpt>
      <trkpt lat="44.39097" lon="1.04932">
        <ele>259.7</ele>
        <time>2017-05-28T07:59:15.000Z</time>
      </trkpt>
      <trkpt lat="44.39094" lon="1.04929">
        <ele>260</ele>
        <time>2017-05-28T07:59:16.000Z</time>
      </trkpt>
      <trkpt lat="44.39092" lon="1.04925">
        <ele>260.2</ele>
        <time>2017-05-28T07:59:17.000Z</time>
      </trkpt>
      <trkpt lat="44.3909" lon="1.04921">
        <ele>260.5</ele>
        <time>2017-05-28T07:59:18.000Z</time>
      </trkpt>
      <trkpt lat="44.39088" lon="1.04917">
        <ele>260.7</ele>
        <time>2017-05-28T07:59:19.000Z</time>
      </trkpt>
      <trkpt lat="44.39086" lon="1.04913">
        <ele>261</ele>
        <time>2017-05-28T07:59:20.000Z</time>
      </trkpt>
      <trkpt lat="44.39084" lon="1.04909">
        <ele>261.2</ele>
        <time>2017-05-28T07:59:21.000Z</time>
      </trkpt>
      <trkpt lat="44.39082" lon="1.04905">
        <ele>261.4</ele>
        <time>2017-05-28T07:59:22.000Z</time>
      </trkpt>
      <trkpt lat="44.3908" lon="1.04901">
        <ele>261.6</ele>
        <time>2017-05-28T07:59:23.000Z</time>
      </trkpt>
      <trkpt lat="44.39078" lon="1.04897">
        <ele>261.7</ele>
        <time>2017-05-28T07:59:24.000Z</time>
      </trkpt>
      <trkpt lat="44.39076" lon="1.04892">
        <ele>261.8</ele>
        <time>2017-05-28T07:59:25.000Z</time>
      </trkpt>
      <trkpt lat="44.39074" lon="1.04888">
        <ele>261.9</ele>
        <time>2017-05-28T07:59:26.000Z</time>
      </trkpt>
      <trkpt lat="44.39072" lon="1.04884">
        <ele>262</ele>
        <time>2017-05-28T07:59:27.000Z</time>
      </trkpt>
      <trkpt lat="44.3907" lon="1.0488">
        <ele>262.1</ele>
        <time>2017-05-28T07:59:28.000Z</time>
      </trkpt>
      <trkpt lat="44.39068" lon="1.04875">
        <ele>262.2</ele>
        <time>2017-05-28T07:59:29.000Z</time>
      </trkpt>
      <trkpt lat="44.39066" lon="1.04871">
        <ele>262.3</ele>
        <time>2017-05-28T07:59:30.000Z</time>
      </trkpt>
      <trkpt lat="44.39064" lon="1.04867">
        <ele>262.4</ele>
        <time>2017-05-28T07:59:31.000Z</time>
      </trkpt>
      <trkpt lat="44.39062" lon="1.04863">
        <ele>262.4</ele>
        <time>2017-05-28T07:59:32.000Z</time>
      </trkpt>
      <trkpt lat="44.39059" lon="1.0486">
        <ele>262.4</ele>
        <time>2017-05-28T07:59:33.000Z</time>
      </trkpt>
      <trkpt lat="44.39056" lon="1.04858">
        <ele>262.4</ele>
        <time>2017-05-28T07:59:34.000Z</time>
      </trkpt>
      <trkpt lat="44.39053" lon="1.04857">
        <ele>262.4</ele>
        <time>2017-05-28T07:59:35.000Z</time>
      </trkpt>
      <trkpt lat="44.3905" lon="1.04858">
        <ele>262.3</ele>
        <time>2017-05-28T07:59:36.000Z</time>
      </trkpt>
      <trkpt lat="44.39047" lon="1.0486">
        <ele>262.2</ele>
        <time>2017-05-28T07:59:37.000Z</time>
      </trkpt>
      <trkpt lat="44.39045" lon="1.04863">
        <ele>262</ele>
        <time>2017-05-28T07:59:38.000Z</time>
      </trkpt>
      <trkpt lat="44.39043" lon="1.04866">
        <ele>261.9</ele>
        <time>2017-05-28T07:59:39.000Z</time>
      </trkpt>
      <trkpt lat="44.39041" lon="1.04869">
        <ele>261.8</ele>
        <time>2017-05-28T07:59:40.000Z</time>
      </trkpt>
      <trkpt lat="44.3904" lon="1.04873">
        <ele>261.8</ele>
        <time>2017-05-28T07:59:41.000Z</time>
      </trkpt>
      <trkpt lat="44.39039" lon="1.04877">
        <ele>261.7</ele>
        <time>2017-05-28T07:59:42.000Z</time>
      </trkpt>
      <trkpt lat="44.39037" lon="1.04881">
        <ele>261.6</ele>
        <time>2017-05-28T07:59:43.000Z</time>
      </trkpt>
      <trkpt lat="44.39035" lon="1.04886">
        <ele>261.5</ele>
        <time>2017-05-28T07:59:44.000Z</time>
      </trkpt>
      <trkpt lat="44.39033" lon="1.04891">
        <ele>261.4</ele>
        <time>2017-05-28T07:59:45.000Z</time>
      </trkpt>
      <trkpt lat="44.39031" lon="1.04895">
        <ele>261.3</ele>
        <time>2017-05-28T07:59:46.000Z</time>
      </trkpt>
      <trkpt lat="44.39029" lon="1.04899">
        <ele>261.2</ele>
        <time>2017-05-28T07:59:47.000Z</time>
      </trkpt>
      <trkpt lat="44.39027" lon="1.04903">
        <ele>261.2</ele>
        <time>2017-05-28T07:59:48.000Z</time>
      </trkpt>
      <trkpt lat="44.39025" lon="1.04907">
        <ele>261.1</ele>
        <time>2017-05-28T07:59:49.000Z</time>
      </trkpt>
      <trkpt lat="44.39022" lon="1.04912">
        <ele>261</ele>
        <time>2017-05-28T07:59:50.000Z</time>
      </trkpt>
      <trkpt lat="44.3902" lon="1.04916">
        <ele>261</ele>
        <time>2017-05-28T07:59:51.000Z</time>
      </trkpt>
      <trkpt lat="44.39018" lon="1.04921">
        <ele>260.9</ele>
        <time>2017-05-28T07:59:52.000Z</time>
      </trkpt>
      <trkpt lat="44.39015" lon="1.04925">
        <ele>260.9</ele>
        <time>2017-05-28T07:59:53.000Z</time>
      </trkpt>
      <trkpt lat="44.39012" lon="1.0493">
        <ele>260.8</ele>
        <time>2017-05-28T07:59:54.000Z</time>
      </trkpt>
      <trkpt lat="44.3901" lon="1.04935">
        <ele>260.7</ele>
        <time>2017-05-28T07:59:55.000Z</time>
      </trkpt>
      <trkpt lat="44.39007" lon="1.0494">
        <ele>260.7</ele>
        <time>2017-05-28T07:59:56.000Z</time>
      </trkpt>
      <trkpt lat="44.39004" lon="1.04945">
        <ele>260.6</ele>
        <time>2017-05-28T07:59:57.000Z</time>
      </trkpt>
      <trkpt lat="44.39001" lon="1.0495">
        <ele>260.6</ele>
        <time>2017-05-28T07:59:58.000Z</time>
      </trkpt>
      <trkpt lat="44.38999" lon="1.04955">
        <ele>260.5</ele>
        <time>2017-05-28T07:59:59.000Z</time>
      </trkpt>
      <trkpt lat="44.38996" lon="1.0496">
        <ele>260.4</ele>
        <time>2017-05-28T08:00:00.000Z</time>
      </trkpt>
      <trkpt lat="44.38993" lon="1.04965">
        <ele>260.3</ele>
        <time>2017-05-28T08:00:01.000Z</time>
      </trkpt>
      <trkpt lat="44.3899" lon="1.0497">
        <ele>260.3</ele>
        <time>2017-05-28T08:00:02.000Z</time>
      </trkpt>
      <trkpt lat="44.38987" lon="1.04975">
        <ele>260.2</ele>
        <time>2017-05-28T08:00:03.000Z</time>
      </trkpt>
      <trkpt lat="44.38984" lon="1.0498">
        <ele>260.2</ele>
        <time>2017-05-28T08:00:04.000Z</time>
      </trkpt>
      <trkpt lat="44.38981" lon="1.04985">
        <ele>260.2</ele>
        <time>2017-05-28T08:00:05.000Z</time>
      </trkpt>
      <trkpt lat="44.38978" lon="1.0499">
        <ele>260.2</ele>
        <time>2017-05-28T08:00:06.000Z</time>
      </trkpt>
      <trkpt lat="44.38975" lon="1.04995">
        <ele>260.3</ele>
        <time>2017-05-28T08:00:07.000Z</time>
      </trkpt>
      <trkpt lat="44.38972" lon="1.05">
        <ele>260.3</ele>
        <time>2017-05-28T08:00:08.000Z</time>
      </trkpt>
      <trkpt lat="44.38969" lon="1.05005">
        <ele>260.4</ele>
        <time>2017-05-28T08:00:09.000Z</time>
      </trkpt>
      <trkpt lat="44.38966" lon="1.05009">
        <ele>260.5</ele>
        <time>2017-05-28T08:00:10.000Z</time>
      </trkpt>
      <trkpt lat="44.38963" lon="1.05013">
        <ele>260.6</ele>
        <time>2017-05-28T08:00:11.000Z</time>
      </trkpt>
      <trkpt lat="44.3896" lon="1.05018">
        <ele>260.7</ele>
        <time>2017-05-28T08:00:12.000Z</time>
      </trkpt>
      <trkpt lat="44.38957" lon="1.05021">
        <ele>260.8</ele>
        <time>2017-05-28T08:00:13.000Z</time>
      </trkpt>
      <trkpt lat="44.38954" lon="1.05025">
        <ele>260.9</ele>
        <time>2017-05-28T08:00:14.000Z</time>
      </trkpt>
      <trkpt lat="44.38951" lon="1.05029">
        <ele>261</ele>
        <time>2017-05-28T08:00:15.000Z</time>
      </trkpt>
      <trkpt lat="44.38949" lon="1.05033">
        <ele>261.2</ele>
        <time>2017-05-28T08:00:16.000Z</time>
      </trkpt>
      <trkpt lat="44.38946" lon="1.05036">
        <ele>261.3</ele>
        <time>2017-05-28T08:00:17.000Z</time>
      </trkpt>
      <trkpt lat="44.38943" lon="1.0504">
        <ele>261.5</ele>
        <time>2017-05-28T08:00:18.000Z</time>
      </trkpt>
      <trkpt lat="44.3894" lon="1.05043">
        <ele>261.7</ele>
        <time>2017-05-28T08:00:19.000Z</time>
      </trkpt>
      <trkpt lat="44.38938" lon="1.05047">
        <ele>261.9</ele>
        <time>2017-05-28T08:00:20.000Z</time>
      </trkpt>
      <trkpt lat="44.38935" lon="1.05051">
        <ele>262.1</ele>
        <time>2017-05-28T08:00:21.000Z</time>
      </trkpt>
      <trkpt lat="44.38932" lon="1.05055">
        <ele>262.3</ele>
        <time>2017-05-28T08:00:22.000Z</time>
      </trkpt>
      <trkpt lat="44.38929" lon="1.05059">
        <ele>262.5</ele>
        <time>2017-05-28T08:00:23.000Z</time>
      </trkpt>
      <trkpt lat="44.38927" lon="1.05063">
        <ele>262.8</ele>
        <time>2017-05-28T08:00:24.000Z</time>
      </trkpt>
      <trkpt lat="44.38924" lon="1.05066">
        <ele>263</ele>
        <time>2017-05-28T08:00:25.000Z</time>
      </trkpt>
      <trkpt lat="44.38921" lon="1.0507">
        <ele>263.3</ele>
        <time>2017-05-28T08:00:26.000Z</time>
      </trkpt>
      <trkpt lat="44.38918" lon="1.05073">
        <ele>263.5</ele>
        <time>2017-05-28T08:00:27.000Z</time>
      </trkpt>
      <trkpt lat="44.38916" lon="1.05076">
        <ele>263.7</ele>
        <time>2017-05-28T08:00:28.000Z</time>
      </trkpt>
      <trkpt lat="44.38913" lon="1.05078">
        <ele>263.8</ele>
        <time>2017-05-28T08:00:29.000Z</time>
      </trkpt>
      <trkpt lat="44.3891" lon="1.05081">
        <ele>263.9</ele>
        <time>2017-05-28T08:00:30.000Z</time>
      </trkpt>
      <trkpt lat="44.38907" lon="1.05084">
        <ele>264</ele>
        <time>2017-05-28T08:00:31.000Z</time>
      </trkpt>
      <trkpt lat="44.38905" lon="1.05086">
        <ele>264.1</ele>
        <time>2017-05-28T08:00:32.000Z</time>
      </trkpt>
      <trkpt lat="44.38902" lon="1.05089">
        <ele>264.2</ele>
        <time>2017-05-28T08:00:33.000Z</time>
      </trkpt>
      <trkpt lat="44.389" lon="1.05092">
        <ele>264.3</ele>
        <time>2017-05-28T08:00:34.000Z</time>
      </trkpt>
      <trkpt lat="44.38897" lon="1.05095">
        <ele>264.4</ele>
        <time>2017-05-28T08:00:35.000Z</time>
      </trkpt>
      <trkpt lat="44.38895" lon="1.05098">
        <ele>264.5</ele>
        <time>2017-05-28T08:00:36.000Z</time>
      </trkpt>
      <trkpt lat="44.38892" lon="1.05101">
        <ele>264.6</ele>
        <time>2017-05-28T08:00:37.000Z</time>
      </trkpt>
      <trkpt lat="44.3889" lon="1.05104">
        <ele>264.7</ele>
        <time>2017-05-28T08:00:38.000Z</time>
      </trkpt>
      <trkpt lat="44.38888" lon="1.05107">
        <ele>264.7</ele>
        <time>2017-05-28T08:00:39.000Z</time>
      </trkpt>
      <trkpt lat="44.38886" lon="1.0511">
        <ele>264.8</ele>
        <time>2017-05-28T08:00:40.000Z</time>
      </trkpt>
      <trkpt lat="44.38884" lon="1.05113">
        <ele>264.9</ele>
        <time>2017-05-28T08:00:41.000Z</time>
      </trkpt>
      <trkpt lat="44.38882" lon="1.05116">
        <ele>265</ele>
        <time>2017-05-28T08:00:42.000Z</time>
      </trkpt>
      <trkpt lat="44.38881" lon="1.0512">
        <ele>265.1</ele>
        <time>2017-05-28T08:00:43.000Z</time>
      </trkpt>
      <trkpt lat="44.38879" lon="1.05123">
        <ele>265.2</ele>
        <time>2017-05-28T08:00:44.000Z</time>
      </trkpt>
      <trkpt lat="44.38877" lon="1.05126">
        <ele>265.3</ele>
        <time>2017-05-28T08:00:45.000Z</time>
      </trkpt>
      <trkpt lat="44.38875" lon="1.05129">
        <ele>265.4</ele>
        <time>2017-05-28T08:00:46.000Z</time>
      </trkpt>
      <trkpt lat="44.38874" lon="1.05133">
        <ele>265.5</ele>
        <time>2017-05-28T08:00:47.000Z</time>
      </trkpt>
      <trkpt lat="44.38872" lon="1.05136">
        <ele>265.6</ele>
        <time>2017-05-28T08:00:48.000Z</time>
      </trkpt>
      <trkpt lat="44.38871" lon="1.0514">
        <ele>265.7</ele>
        <time>2017-05-28T08:00:49.000Z</time>
      </trkpt>
      <trkpt lat="44.38871" lon="1.05145">
        <ele>265.8</ele>
        <time>2017-05-28T08:00:50.000Z</time>
      </trkpt>
      <trkpt lat="44.3887" lon="1.0515">
        <ele>265.9</ele>
        <time>2017-05-28T08:00:51.000Z</time>
      </trkpt>
      <trkpt lat="44.38869" lon="1.05155">
        <ele>266.1</ele>
        <time>2017-05-28T08:00:52.000Z</time>
      </trkpt>
      <trkpt lat="44.38867" lon="1.05161">
        <ele>266.2</ele>
        <time>2017-05-28T08:00:53.000Z</time>
      </trkpt>
      <trkpt lat="44.38865" lon="1.05167">
        <ele>266.4</ele>
        <time>2017-05-28T08:00:54.000Z</time>
      </trkpt>
      <trkpt lat="44.38863" lon="1.05174">
        <ele>266</ele>
        <time>2017-05-28T08:00:55.000Z</time>
      </trkpt>
      <trkpt lat="44.3886" lon="1.05181">
        <ele>265.7</ele>
        <time>2017-05-28T08:00:56.000Z</time>
      </trkpt>
      <trkpt lat="44.38857" lon="1.05187">
        <ele>265.3</ele>
        <time>2017-05-28T08:00:57.000Z</time>
      </trkpt>
      <trkpt lat="44.38853" lon="1.05194">
        <ele>264.9</ele>
        <time>2017-05-28T08:00:58.000Z</time>
      </trkpt>
      <trkpt lat="44.3885" lon="1.05201">
        <ele>264.6</ele>
        <time>2017-05-28T08:00:59.000Z</time>
      </trkpt>
      <trkpt lat="44.38846" lon="1.05207">
        <ele>264.2</ele>
        <time>2017-05-28T08:01:00.000Z</time>
      </trkpt>
      <trkpt lat="44.38843" lon="1.05213">
        <ele>263.9</ele>
        <time>2017-05-28T08:01:01.000Z</time>
      </trkpt>
      <trkpt lat="44.3884" lon="1.05219">
        <ele>263.5</ele>
        <time>2017-05-28T08:01:02.000Z</time>
      </trkpt>
      <trkpt lat="44.38837" lon="1.05225">
        <ele>263.2</ele>
        <time>2017-05-28T08:01:03.000Z</time>
      </trkpt>
      <trkpt lat="44.38834" lon="1.05231">
        <ele>262.9</ele>
        <time>2017-05-28T08:01:04.000Z</time>
      </trkpt>
      <trkpt lat="44.38831" lon="1.05237">
        <ele>262.3</ele>
        <time>2017-05-28T08:01:05.000Z</time>
      </trkpt>
      <trkpt lat="44.38828" lon="1.05242">
        <ele>261.7</ele>
        <time>2017-05-28T08:01:06.000Z</time>
      </trkpt>
      <trkpt lat="44.38826" lon="1.05247">
        <ele>261.1</ele>
        <time>2017-05-28T08:01:07.000Z</time>
      </trkpt>
      <trkpt lat="44.38823" lon="1.05252">
        <ele>260.6</ele>
        <time>2017-05-28T08:01:08.000Z</time>
      </trkpt>
      <trkpt lat="44.3882" lon="1.05257">
        <ele>260.2</ele>
        <time>2017-05-28T08:01:09.000Z</time>
      </trkpt>
      <trkpt lat="44.38817" lon="1.05262">
        <ele>259.8</ele>
        <time>2017-05-28T08:01:10.000Z</time>
      </trkpt>
      <trkpt lat="44.38814" lon="1.05267">
        <ele>259.4</ele>
        <time>2017-05-28T08:01:11.000Z</time>
      </trkpt>
      <trkpt lat="44.3881" lon="1.05273">
        <ele>259</ele>
        <time>2017-05-28T08:01:12.000Z</time>
      </trkpt>
      <trkpt lat="44.38806" lon="1.05279">
        <ele>258.6</ele>
        <time>2017-05-28T08:01:13.000Z</time>
      </trkpt>
      <trkpt lat="44.38802" lon="1.05285">
        <ele>258.3</ele>
        <time>2017-05-28T08:01:14.000Z</time>
      </trkpt>
      <trkpt lat="44.38799" lon="1.05291">
        <ele>258.1</ele>
        <time>2017-05-28T08:01:15.000Z</time>
      </trkpt>
      <trkpt lat="44.38796" lon="1.05296">
        <ele>257.9</ele>
        <time>2017-05-28T08:01:16.000Z</time>
      </trkpt>
      <trkpt lat="44.38793" lon="1.05302">
        <ele>257.8</ele>
        <time>2017-05-28T08:01:17.000Z</time>
      </trkpt>
      <trkpt lat="44.38791" lon="1.05308">
        <ele>257.9</ele>
        <time>2017-05-28T08:01:18.000Z</time>
      </trkpt>
      <trkpt lat="44.3879" lon="1.05315">
        <ele>258</ele>
        <time>2017-05-28T08:01:19.000Z</time>
      </trkpt>
      <trkpt lat="44.3879" lon="1.05322">
        <ele>258.1</ele>
        <time>2017-05-28T08:01:20.000Z</time>
      </trkpt>
      <trkpt lat="44.38789" lon="1.05329">
        <ele>258.3</ele>
        <time>2017-05-28T08:01:21.000Z</time>
      </trkpt>
      <trkpt lat="44.3879" lon="1.05336">
        <ele>258.5</ele>
        <time>2017-05-28T08:01:22.000Z</time>
      </trkpt>
      <trkpt lat="44.3879" lon="1.05342">
        <ele>258.9</ele>
        <time>2017-05-28T08:01:23.000Z</time>
      </trkpt>
      <trkpt lat="44.3879" lon="1.05348">
        <ele>259.1</ele>
        <time>2017-05-28T08:01:24.000Z</time>
      </trkpt>
      <trkpt lat="44.3879" lon="1.05353">
        <ele>259.4</ele>
        <time>2017-05-28T08:01:25.000Z</time>
      </trkpt>
      <trkpt lat="44.3879" lon="1.05358">
        <ele>259.7</ele>
        <time>2017-05-28T08:01:26.000Z</time>
      </trkpt>
      <trkpt lat="44.38791" lon="1.05363">
        <ele>259.9</ele>
        <time>2017-05-28T08:01:27.000Z</time>
      </trkpt>
      <trkpt lat="44.38791" lon="1.05369">
        <ele>260.2</ele>
        <time>2017-05-28T08:01:28.000Z</time>
      </trkpt>
      <trkpt lat="44.38792" lon="1.05374">
        <ele>260.5</ele>
        <time>2017-05-28T08:01:29.000Z</time>
      </trkpt>
      <trkpt lat="44.38793" lon="1.0538">
        <ele>260.7</ele>
        <time>2017-05-28T08:01:30.000Z</time>
      </trkpt>
      <trkpt lat="44.38794" lon="1.05386">
        <ele>261</ele>
        <time>2017-05-28T08:01:31.000Z</time>
      </trkpt>
      <trkpt lat="44.38795" lon="1.05392">
        <ele>261.3</ele>
        <time>2017-05-28T08:01:32.000Z</time>
      </trkpt>
      <trkpt lat="44.38796" lon="1.05397">
        <ele>261.5</ele>
        <time>2017-05-28T08:01:33.000Z</time>
      </trkpt>
      <trkpt lat="44.38796" lon="1.05401">
        <ele>261.6</ele>
        <time>2017-05-28T08:01:34.000Z</time>
      </trkpt>
      <trkpt lat="44.38797" lon="1.05404">
        <ele>261.8</ele>
        <time>2017-05-28T08:01:35.000Z</time>
      </trkpt>
      <trkpt lat="44.38797" lon="1.05407">
        <ele>261.9</ele>
        <time>2017-05-28T08:01:36.000Z</time>
      </trkpt>
      <trkpt lat="44.38798" lon="1.05409">
        <ele>261.9</ele>
        <time>2017-05-28T08:01:37.000Z</time>
      </trkpt>
      <trkpt lat="44.388" lon="1.05411">
        <ele>262</ele>
        <time>2017-05-28T08:01:38.000Z</time>
      </trkpt>
      <trkpt lat="44.38801" lon="1.05413">
        <ele>262</ele>
        <time>2017-05-28T08:01:39.000Z</time>
      </trkpt>
      <trkpt lat="44.38803" lon="1.05416">
        <ele>262.1</ele>
        <time>2017-05-28T08:01:40.000Z</time>
      </trkpt>
      <trkpt lat="44.38804" lon="1.0542">
        <ele>262.2</ele>
        <time>2017-05-28T08:01:41.000Z</time>
      </trkpt>
      <trkpt lat="44.38804" lon="1.05424">
        <ele>262.4</ele>
        <time>2017-05-28T08:01:42.000Z</time>
      </trkpt>
      <trkpt lat="44.38805" lon="1.05428">
        <ele>262.6</ele>
        <time>2017-05-28T08:01:43.000Z</time>
      </trkpt>
      <trkpt lat="44.38805" lon="1.05432">
        <ele>262.7</ele>
        <time>2017-05-28T08:01:44.000Z</time>
      </trkpt>
      <trkpt lat="44.38806" lon="1.05435">
        <ele>262.9</ele>
        <time>2017-05-28T08:01:45.000Z</time>
      </trkpt>
      <trkpt lat="44.38806" lon="1.05439">
        <ele>263.1</ele>
        <time>2017-05-28T08:01:46.000Z</time>
      </trkpt>
      <trkpt lat="44.38807" lon="1.05443">
        <ele>263.2</ele>
        <time>2017-05-28T08:01:47.000Z</time>
      </trkpt>
      <trkpt lat="44.38807" lon="1.05446">
        <ele>263.4</ele>
        <time>2017-05-28T08:01:48.000Z</time>
      </trkpt>
      <trkpt lat="44.38807" lon="1.0545">
        <ele>263.5</ele>
        <time>2017-05-28T08:01:49.000Z</time>
      </trkpt>
      <trkpt lat="44.38808" lon="1.05453">
        <ele>263.7</ele>
        <time>2017-05-28T08:01:50.000Z</time>
      </trkpt>
      <trkpt lat="44.38808" lon="1.05457">
        <ele>263.9</ele>
        <time>2017-05-28T08:01:51.000Z</time>
      </trkpt>
      <trkpt lat="44.38809" lon="1.0546">
        <ele>264</ele>
        <time>2017-05-28T08:01:52.000Z</time>
      </trkpt>
      <trkpt lat="44.38809" lon="1.05463">
        <ele>264.2</ele>
        <time>2017-05-28T08:01:53.000Z</time>
      </trkpt>
      <trkpt lat="44.3881" lon="1.05467">
        <ele>264.3</ele>
        <time>2017-05-28T08:01:54.000Z</time>
      </trkpt>
      <trkpt lat="44.38811" lon="1.0547">
        <ele>264.5</ele>
        <time>2017-05-28T08:01:55.000Z</time>
      </trkpt>
      <trkpt lat="44.38811" lon="1.05473">
        <ele>264.6</ele>
        <time>2017-05-28T08:01:56.000Z</time>
      </trkpt>
      <trkpt lat="44.38812" lon="1.05477">
        <ele>264.8</ele>
        <time>2017-05-28T08:01:57.000Z</time>
      </trkpt>
      <trkpt lat="44.38813" lon="1.0548">
        <ele>265</ele>
        <time>2017-05-28T08:01:58.000Z</time>
      </trkpt>
      <trkpt lat="44.38813" lon="1.05483">
        <ele>265.1</ele>
        <time>2017-05-28T08:01:59.000Z</time>
      </trkpt>
      <trkpt lat="44.38814" lon="1.05487">
        <ele>265.3</ele>
        <time>2017-05-28T08:02:00.000Z</time>
      </trkpt>
      <trkpt lat="44.38815" lon="1.0549">
        <ele>265.5</ele>
        <time>2017-05-28T08:02:01.000Z</time>
      </trkpt>
      <trkpt lat="44.38815" lon="1.05494">
        <ele>265.7</ele>
        <time>2017-05-28T08:02:02.000Z</time>
      </trkpt>
      <trkpt lat="44.38815" lon="1.05498">
        <ele>265.9</ele>
        <time>2017-05-28T08:02:03.000Z</time>
      </trkpt>
      <trkpt lat="44.38816" lon="1.05501">
        <ele>266</ele>
        <time>2017-05-28T08:02:04.000Z</time>
      </trkpt>
      <trkpt lat="44.38816" lon="1.05505">
        <ele>266.1</ele>
        <time>2017-05-28T08:02:05.000Z</time>
      </trkpt>
      <trkpt lat="44.38815" lon="1.05509">
        <ele>266.1</ele>
        <time>2017-05-28T08:02:06.000Z</time>
      </trkpt>
      <trkpt lat="44.38815" lon="1.05512">
        <ele>266.2</ele>
        <time>2017-05-28T08:02:07.000Z</time>
      </trkpt>
      <trkpt lat="44.38814" lon="1.05514">
        <ele>266.3</ele>
        <time>2017-05-28T08:02:08.000Z</time>
      </trkpt>
      <trkpt lat="44.38813" lon="1.05516">
        <ele>266.3</ele>
        <time>2017-05-28T08:02:09.000Z</time>
      </trkpt>
      <trkpt lat="44.38811" lon="1.05517">
        <ele>266.3</ele>
        <time>2017-05-28T08:02:10.000Z</time>
      </trkpt>
      <trkpt lat="44.38809" lon="1.05518">
        <ele>266.3</ele>
        <time>2017-05-28T08:02:11.000Z</time>
      </trkpt>
      <trkpt lat="44.38807" lon="1.05518">
        <ele>266.4</ele>
        <time>2017-05-28T08:02:12.000Z</time>
      </trkpt>
      <trkpt lat="44.38805" lon="1.05519">
        <ele>266.4</ele>
        <time>2017-05-28T08:02:13.000Z</time>
      </trkpt>
      <trkpt lat="44.38802" lon="1.0552">
        <ele>266.4</ele>
        <time>2017-05-28T08:02:14.000Z</time>
      </trkpt>
      <trkpt lat="44.388" lon="1.0552">
        <ele>266.4</ele>
        <time>2017-05-28T08:02:15.000Z</time>
      </trkpt>
      <trkpt lat="44.38797" lon="1.05521">
        <ele>266.5</ele>
        <time>2017-05-28T08:02:16.000Z</time>
      </trkpt>
      <trkpt lat="44.38794" lon="1.05522">
        <ele>266.5</ele>
        <time>2017-05-28T08:02:17.000Z</time>
      </trkpt>
      <trkpt lat="44.38791" lon="1.05522">
        <ele>266.5</ele>
        <time>2017-05-28T08:02:18.000Z</time>
      </trkpt>
      <trkpt lat="44.38788" lon="1.05523">
        <ele>266.6</ele>
        <time>2017-05-28T08:02:19.000Z</time>
      </trkpt>
      <trkpt lat="44.38785" lon="1.05524">
        <ele>266.6</ele>
        <time>2017-05-28T08:02:20.000Z</time>
      </trkpt>
      <trkpt lat="44.38782" lon="1.05525">
        <ele>266.7</ele>
        <time>2017-05-28T08:02:21.000Z</time>
      </trkpt>
      <trkpt lat="44.38779" lon="1.05526">
        <ele>266.7</ele>
        <time>2017-05-28T08:02:22.000Z</time>
      </trkpt>
      <trkpt lat="44.38776" lon="1.05526">
        <ele>266.7</ele>
        <time>2017-05-28T08:02:23.000Z</time>
      </trkpt>
      <trkpt lat="44.38773" lon="1.05527">
        <ele>266.8</ele>
        <time>2017-05-28T08:02:24.000Z</time>
      </trkpt>
      <trkpt lat="44.3877" lon="1.05527">
        <ele>266.8</ele>
        <time>2017-05-28T08:02:25.000Z</time>
      </trkpt>
      <trkpt lat="44.38768" lon="1.05528">
        <ele>266.9</ele>
        <time>2017-05-28T08:02:26.000Z</time>
      </trkpt>
      <trkpt lat="44.38765" lon="1.05528">
        <ele>266.9</ele>
        <time>2017-05-28T08:02:27.000Z</time>
      </trkpt>
      <trkpt lat="44.38762" lon="1.05529">
        <ele>266.9</ele>
        <time>2017-05-28T08:02:28.000Z</time>
      </trkpt>
      <trkpt lat="44.38759" lon="1.0553">
        <ele>267</ele>
        <time>2017-05-28T08:02:29.000Z</time>
      </trkpt>
      <trkpt lat="44.38756" lon="1.05531">
        <ele>267.1</ele>
        <time>2017-05-28T08:02:30.000Z</time>
      </trkpt>
      <trkpt lat="44.38753" lon="1.05533">
        <ele>267.2</ele>
        <time>2017-05-28T08:02:31.000Z</time>
      </trkpt>
      <trkpt lat="44.3875" lon="1.05536">
        <ele>267.3</ele>
        <time>2017-05-28T08:02:32.000Z</time>
      </trkpt>
      <trkpt lat="44.38746" lon="1.0554">
        <ele>267.2</ele>
        <time>2017-05-28T08:02:33.000Z</time>
      </trkpt>
      <trkpt lat="44.38743" lon="1.05544">
        <ele>267.1</ele>
        <time>2017-05-28T08:02:34.000Z</time>
      </trkpt>
      <trkpt lat="44.38739" lon="1.05549">
        <ele>267.1</ele>
        <time>2017-05-28T08:02:35.000Z</time>
      </trkpt>
      <trkpt lat="44.38735" lon="1.05554">
        <ele>267</ele>
        <time>2017-05-28T08:02:36.000Z</time>
      </trkpt>
      <trkpt lat="44.38731" lon="1.05559">
        <ele>267</ele>
        <time>2017-05-28T08:02:37.000Z</time>
      </trkpt>
      <trkpt lat="44.38727" lon="1.05564">
        <ele>267</ele>
        <time>2017-05-28T08:02:38.000Z</time>
      </trkpt>
      <trkpt lat="44.38722" lon="1.05569">
        <ele>267</ele>
        <time>2017-05-28T08:02:39.000Z</time>
      </trkpt>
      <trkpt lat="44.38718" lon="1.05574">
        <ele>267</ele>
        <time>2017-05-28T08:02:40.000Z</time>
      </trkpt>
      <trkpt lat="44.38714" lon="1.05579">
        <ele>267</ele>
        <time>2017-05-28T08:02:41.000Z</time>
      </trkpt>
      <trkpt lat="44.3871" lon="1.05584">
        <ele>267.1</ele>
        <time>2017-05-28T08:02:42.000Z</time>
      </trkpt>
      <trkpt lat="44.38706" lon="1.05588">
        <ele>266.9</ele>
        <time>2017-05-28T08:02:43.000Z</time>
      </trkpt>
      <trkpt lat="44.38702" lon="1.05591">
        <ele>266.8</ele>
        <time>2017-05-28T08:02:44.000Z</time>
      </trkpt>
      <trkpt lat="44.38698" lon="1.05594">
        <ele>266.7</ele>
        <time>2017-05-28T08:02:45.000Z</time>
      </trkpt>
      <trkpt lat="44.38694" lon="1.05595">
        <ele>266.6</ele>
        <time>2017-05-28T08:02:46.000Z</time>
      </trkpt>
      <trkpt lat="44.38691" lon="1.05596">
        <ele>266.4</ele>
        <time>2017-05-28T08:02:47.000Z</time>
      </trkpt>
      <trkpt lat="44.38688" lon="1.05595">
        <ele>266.3</ele>
        <time>2017-05-28T08:02:48.000Z</time>
      </trkpt>
      <trkpt lat="44.38685" lon="1.05594">
        <ele>266.1</ele>
        <time>2017-05-28T08:02:49.000Z</time>
      </trkpt>
      <trkpt lat="44.38682" lon="1.05592">
        <ele>265.9</ele>
        <time>2017-05-28T08:02:50.000Z</time>
      </trkpt>
      <trkpt lat="44.38679" lon="1.0559">
        <ele>265.7</ele>
        <time>2017-05-28T08:02:51.000Z</time>
      </trkpt>
      <trkpt lat="44.38675" lon="1.05587">
        <ele>265.5</ele>
        <time>2017-05-28T08:02:52.000Z</time>
      </trkpt>
      <trkpt lat="44.38671" lon="1.05583">
        <ele>265.2</ele>
        <time>2017-05-28T08:02:53.000Z</time>
      </trkpt>
      <trkpt lat="44.38666" lon="1.0558">
        <ele>264.8</ele>
        <time>2017-05-28T08:02:54.000Z</time>
      </trkpt>
      <trkpt lat="44.38661" lon="1.05577">
        <ele>264.5</ele>
        <time>2017-05-28T08:02:55.000Z</time>
      </trkpt>
      <trkpt lat="44.38655" lon="1.05574">
        <ele>264.3</ele>
        <time>2017-05-28T08:02:56.000Z</time>
      </trkpt>
      <trkpt lat="44.3865" lon="1.0557">
        <ele>264.1</ele>
        <time>2017-05-28T08:02:57.000Z</time>
      </trkpt>
      <trkpt lat="44.38644" lon="1.05567">
        <ele>263.9</ele>
        <time>2017-05-28T08:02:58.000Z</time>
      </trkpt>
      <trkpt lat="44.38638" lon="1.05564">
        <ele>263.7</ele>
        <time>2017-05-28T08:02:59.000Z</time>
      </trkpt>
      <trkpt lat="44.38633" lon="1.05561">
        <ele>263.5</ele>
        <time>2017-05-28T08:03:00.000Z</time>
      </trkpt>
      <trkpt lat="44.38628" lon="1.05557">
        <ele>263.3</ele>
        <time>2017-05-28T08:03:01.000Z</time>
      </trkpt>
      <trkpt lat="44.38623" lon="1.05554">
        <ele>263.1</ele>
        <time>2017-05-28T08:03:02.000Z</time>
      </trkpt>
      <trkpt lat="44.38619" lon="1.05551">
        <ele>262.9</ele>
        <time>2017-05-28T08:03:03.000Z</time>
      </trkpt>
      <trkpt lat="44.38614" lon="1.05548">
        <ele>262.7</ele>
        <time>2017-05-28T08:03:04.000Z</time>
      </trkpt>
      <trkpt lat="44.3861" lon="1.05545">
        <ele>262.5</ele>
        <time>2017-05-28T08:03:05.000Z</time>
      </trkpt>
      <trkpt lat="44.38606" lon="1.05541">
        <ele>262.3</ele>
        <time>2017-05-28T08:03:06.000Z</time>
      </trkpt>
      <trkpt lat="44.38602" lon="1.05538">
        <ele>262.2</ele>
        <time>2017-05-28T08:03:07.000Z</time>
      </trkpt>
      <trkpt lat="44.38598" lon="1.05535">
        <ele>262</ele>
        <time>2017-05-28T08:03:08.000Z</time>
      </trkpt>
      <trkpt lat="44.38594" lon="1.05532">
        <ele>261.8</ele>
        <time>2017-05-28T08:03:09.000Z</time>
      </trkpt>
      <trkpt lat="44.3859" lon="1.05528">
        <ele>261.6</ele>
        <time>2017-05-28T08:03:10.000Z</time>
      </trkpt>
      <trkpt lat="44.38586" lon="1.05525">
        <ele>261.5</ele>
        <time>2017-05-28T08:03:11.000Z</time>
      </trkpt>
      <trkpt lat="44.38581" lon="1.05521">
        <ele>261.3</ele>
        <time>2017-05-28T08:03:12.000Z</time>
      </trkpt>
      <trkpt lat="44.38577" lon="1.05517">
        <ele>261.1</ele>
        <time>2017-05-28T08:03:13.000Z</time>
      </trkpt>
      <trkpt lat="44.38573" lon="1.05513">
        <ele>261</ele>
        <time>2017-05-28T08:03:14.000Z</time>
      </trkpt>
      <trkpt lat="44.38569" lon="1.05509">
        <ele>260.9</ele>
        <time>2017-05-28T08:03:15.000Z</time>
      </trkpt>
      <trkpt lat="44.38565" lon="1.05505">
        <ele>260.9</ele>
        <time>2017-05-28T08:03:16.000Z</time>
      </trkpt>
      <trkpt lat="44.3856" lon="1.05501">
        <ele>260.9</ele>
        <time>2017-05-28T08:03:17.000Z</time>
      </trkpt>
      <trkpt lat="44.38556" lon="1.05497">
        <ele>260.7</ele>
        <time>2017-05-28T08:03:18.000Z</time>
      </trkpt>
      <trkpt lat="44.38552" lon="1.05492">
        <ele>260.6</ele>
        <time>2017-05-28T08:03:19.000Z</time>
      </trkpt>
      <trkpt lat="44.38548" lon="1.05487">
        <ele>260.5</ele>
        <time>2017-05-28T08:03:20.000Z</time>
      </trkpt>
      <trkpt lat="44.38544" lon="1.05482">
        <ele>260.4</ele>
        <time>2017-05-28T08:03:21.000Z</time>
      </trkpt>
      <trkpt lat="44.3854" lon="1.05477">
        <ele>260.4</ele>
        <time>2017-05-28T08:03:22.000Z</time>
      </trkpt>
      <trkpt lat="44.38536" lon="1.05471">
        <ele>260.4</ele>
        <time>2017-05-28T08:03:23.000Z</time>
      </trkpt>
      <trkpt lat="44.38531" lon="1.05466">
        <ele>260.5</ele>
        <time>2017-05-28T08:03:24.000Z</time>
      </trkpt>
      <trkpt lat="44.38527" lon="1.0546">
        <ele>260.6</ele>
        <time>2017-05-28T08:03:25.000Z</time>
      </trkpt>
      <trkpt lat="44.38523" lon="1.05454">
        <ele>260.8</ele>
        <time>2017-05-28T08:03:26.000Z</time>
      </trkpt>
      <trkpt lat="44.38519" lon="1.05447">
        <ele>261</ele>
        <time>2017-05-28T08:03:27.000Z</time>
      </trkpt>
      <trkpt lat="44.38515" lon="1.05441">
        <ele>261.3</ele>
        <time>2017-05-28T08:03:28.000Z</time>
      </trkpt>
      <trkpt lat="44.3851" lon="1.05434">
        <ele>261.7</ele>
        <time>2017-05-28T08:03:29.000Z</time>
      </trkpt>
      <trkpt lat="44.38506" lon="1.05427">
        <ele>262.2</ele>
        <time>2017-05-28T08:03:30.000Z</time>
      </trkpt>
      <trkpt lat="44.38501" lon="1.0542">
        <ele>262.8</ele>
        <time>2017-05-28T08:03:31.000Z</time>
      </trkpt>
      <trkpt lat="44.38497" lon="1.05413">
        <ele>262.6</ele>
        <time>2017-05-28T08:03:32.000Z</time>
      </trkpt>
      <trkpt lat="44.38492" lon="1.05406">
        <ele>261.8</ele>
        <time>2017-05-28T08:03:33.000Z</time>
      </trkpt>
      <trkpt lat="44.38487" lon="1.05399">
        <ele>261.1</ele>
        <time>2017-05-28T08:03:34.000Z</time>
      </trkpt>
      <trkpt lat="44.38483" lon="1.05391">
        <ele>260.3</ele>
        <time>2017-05-28T08:03:35.000Z</time>
      </trkpt>
      <trkpt lat="44.38478" lon="1.05384">
        <ele>259.6</ele>
        <time>2017-05-28T08:03:36.000Z</time>
      </trkpt>
      <trkpt lat="44.38474" lon="1.05377">
        <ele>258.9</ele>
        <time>2017-05-28T08:03:37.000Z</time>
      </trkpt>
      <trkpt lat="44.38469" lon="1.0537">
        <ele>258.1</ele>
        <time>2017-05-28T08:03:38.000Z</time>
      </trkpt>
      <trkpt lat="44.38464" lon="1.05363">
        <ele>257.5</ele>
        <time>2017-05-28T08:03:39.000Z</time>
      </trkpt>
      <trkpt lat="44.38459" lon="1.05357">
        <ele>256.8</ele>
        <time>2017-05-28T08:03:40.000Z</time>
      </trkpt>
      <trkpt lat="44.38453" lon="1.05351">
        <ele>256.2</ele>
        <time>2017-05-28T08:03:41.000Z</time>
      </trkpt>
      <trkpt lat="44.38446" lon="1.05346">
        <ele>255.7</ele>
        <time>2017-05-28T08:03:42.000Z</time>
      </trkpt>
      <trkpt lat="44.38439" lon="1.05341">
        <ele>255.1</ele>
        <time>2017-05-28T08:03:43.000Z</time>
      </trkpt>
      <trkpt lat="44.38432" lon="1.05337">
        <ele>254.7</ele>
        <time>2017-05-28T08:03:44.000Z</time>
      </trkpt>
      <trkpt lat="44.38425" lon="1.05334">
        <ele>254.2</ele>
        <time>2017-05-28T08:03:45.000Z</time>
      </trkpt>
      <trkpt lat="44.38418" lon="1.0533">
        <ele>253.5</ele>
        <time>2017-05-28T08:03:46.000Z</time>
      </trkpt>
      <trkpt lat="44.38412" lon="1.05327">
        <ele>252.6</ele>
        <time>2017-05-28T08:03:47.000Z</time>
      </trkpt>
      <trkpt lat="44.38405" lon="1.05324">
        <ele>251.8</ele>
        <time>2017-05-28T08:03:48.000Z</time>
      </trkpt>
      <trkpt lat="44.38399" lon="1.0532">
        <ele>251.1</ele>
        <time>2017-05-28T08:03:49.000Z</time>
      </trkpt>
      <trkpt lat="44.38393" lon="1.05316">
        <ele>250.3</ele>
        <time>2017-05-28T08:03:50.000Z</time>
      </trkpt>
      <trkpt lat="44.38386" lon="1.05311">
        <ele>249.4</ele>
        <time>2017-05-28T08:03:51.000Z</time>
      </trkpt>
      <trkpt lat="44.38379" lon="1.05306">
        <ele>248.6</ele>
        <time>2017-05-28T08:03:52.000Z</time>
      </trkpt>
      <trkpt lat="44.38373" lon="1.05299">
        <ele>247.6</ele>
        <time>2017-05-28T08:03:53.000Z</time>
      </trkpt>
      <trkpt lat="44.38366" lon="1.05291">
        <ele>246.7</ele>
        <time>2017-05-28T08:03:54.000Z</time>
      </trkpt>
      <trkpt lat="44.38359" lon="1.05281">
        <ele>245.7</ele>
        <time>2017-05-28T08:03:55.000Z</time>
      </trkpt>
      <trkpt lat="44.38353" lon="1.0527">
        <ele>244.7</ele>
        <time>2017-05-28T08:03:56.000Z</time>
      </trkpt>
      <trkpt lat="44.38348" lon="1.05257">
        <ele>243.8</ele>
        <time>2017-05-28T08:03:57.000Z</time>
      </trkpt>
      <trkpt lat="44.38343" lon="1.05244">
        <ele>242.5</ele>
        <time>2017-05-28T08:03:58.000Z</time>
      </trkpt>
      <trkpt lat="44.38339" lon="1.0523">
        <ele>240.9</ele>
        <time>2017-05-28T08:03:59.000Z</time>
      </trkpt>
      <trkpt lat="44.38335" lon="1.05216">
        <ele>239.3</ele>
        <time>2017-05-28T08:04:00.000Z</time>
      </trkpt>
      <trkpt lat="44.38332" lon="1.05201">
        <ele>237.7</ele>
        <time>2017-05-28T08:04:01.000Z</time>
      </trkpt>
      <trkpt lat="44.38328" lon="1.05188">
        <ele>236.2</ele>
        <time>2017-05-28T08:04:02.000Z</time>
      </trkpt>
      <trkpt lat="44.38324" lon="1.05175">
        <ele>234.8</ele>
        <time>2017-05-28T08:04:03.000Z</time>
      </trkpt>
      <trkpt lat="44.38319" lon="1.05163">
        <ele>233.4</ele>
        <time>2017-05-28T08:04:04.000Z</time>
      </trkpt>
      <trkpt lat="44.38313" lon="1.05153">
        <ele>231.7</ele>
        <time>2017-05-28T08:04:05.000Z</time>
      </trkpt>
      <trkpt lat="44.38307" lon="1.05145">
        <ele>230.4</ele>
        <time>2017-05-28T08:04:06.000Z</time>
      </trkpt>
      <trkpt lat="44.383" lon="1.05138">
        <ele>229.6</ele>
        <time>2017-05-28T08:04:07.000Z</time>
      </trkpt>
      <trkpt lat="44.38293" lon="1.05134">
        <ele>229.3</ele>
        <time>2017-05-28T08:04:08.000Z</time>
      </trkpt>
      <trkpt lat="44.38285" lon="1.05131">
        <ele>229.4</ele>
        <time>2017-05-28T08:04:09.000Z</time>
      </trkpt>
      <trkpt lat="44.38278" lon="1.05128">
        <ele>229.5</ele>
        <time>2017-05-28T08:04:10.000Z</time>
      </trkpt>
      <trkpt lat="44.38273" lon="1.05124">
        <ele>229.1</ele>
        <time>2017-05-28T08:04:11.000Z</time>
      </trkpt>
      <trkpt lat="44.38271" lon="1.05117">
        <ele>227.8</ele>
        <time>2017-05-28T08:04:12.000Z</time>
      </trkpt>
      <trkpt lat="44.38269" lon="1.05108">
        <ele>226.1</ele>
        <time>2017-05-28T08:04:13.000Z</time>
      </trkpt>
      <trkpt lat="44.38266" lon="1.05099">
        <ele>224.6</ele>
        <time>2017-05-28T08:04:14.000Z</time>
      </trkpt>
      <trkpt lat="44.38261" lon="1.05092">
        <ele>223.6</ele>
        <time>2017-05-28T08:04:15.000Z</time>
      </trkpt>
      <trkpt lat="44.38254" lon="1.05086">
        <ele>223.2</ele>
        <time>2017-05-28T08:04:16.000Z</time>
      </trkpt>
      <trkpt lat="44.38245" lon="1.05082">
        <ele>222.5</ele>
        <time>2017-05-28T08:04:17.000Z</time>
      </trkpt>
      <trkpt lat="44.38235" lon="1.0508">
        <ele>221.6</ele>
        <time>2017-05-28T08:04:18.000Z</time>
      </trkpt>
      <trkpt lat="44.38226" lon="1.05078">
        <ele>220.9</ele>
        <time>2017-05-28T08:04:19.000Z</time>
      </trkpt>
      <trkpt lat="44.38216" lon="1.05077">
        <ele>220.4</ele>
        <time>2017-05-28T08:04:20.000Z</time>
      </trkpt>
      <trkpt lat="44.38207" lon="1.05076">
        <ele>220</ele>
        <time>2017-05-28T08:04:21.000Z</time>
      </trkpt>
      <trkpt lat="44.38197" lon="1.05076">
        <ele>219.7</ele>
        <time>2017-05-28T08:04:22.000Z</time>
      </trkpt>
      <trkpt lat="44.38187" lon="1.05075">
        <ele>219.1</ele>
        <time>2017-05-28T08:04:23.000Z</time>
      </trkpt>
      <trkpt lat="44.38177" lon="1.05073">
        <ele>218.5</ele>
        <time>2017-05-28T08:04:24.000Z</time>
      </trkpt>
      <trkpt lat="44.38167" lon="1.0507">
        <ele>217.5</ele>
        <time>2017-05-28T08:04:25.000Z</time>
      </trkpt>
      <trkpt lat="44.38157" lon="1.05066">
        <ele>216.8</ele>
        <time>2017-05-28T08:04:26.000Z</time>
      </trkpt>
      <trkpt lat="44.38146" lon="1.05061">
        <ele>215.8</ele>
        <time>2017-05-28T08:04:27.000Z</time>
      </trkpt>
      <trkpt lat="44.38136" lon="1.05055">
        <ele>214.5</ele>
        <time>2017-05-28T08:04:28.000Z</time>
      </trkpt>
      <trkpt lat="44.38126" lon="1.05048">
        <ele>213.1</ele>
        <time>2017-05-28T08:04:29.000Z</time>
      </trkpt>
      <trkpt lat="44.38116" lon="1.05041">
        <ele>211.5</ele>
        <time>2017-05-28T08:04:30.000Z</time>
      </trkpt>
      <trkpt lat="44.38107" lon="1.05032">
        <ele>209.8</ele>
        <time>2017-05-28T08:04:31.000Z</time>
      </trkpt>
      <trkpt lat="44.38099" lon="1.05024">
        <ele>208</ele>
        <time>2017-05-28T08:04:32.000Z</time>
      </trkpt>
      <trkpt lat="44.38092" lon="1.05015">
        <ele>206.2</ele>
        <time>2017-05-28T08:04:33.000Z</time>
      </trkpt>
      <trkpt lat="44.38086" lon="1.05006">
        <ele>204.2</ele>
        <time>2017-05-28T08:04:34.000Z</time>
      </trkpt>
      <trkpt lat="44.3808" lon="1.04996">
        <ele>202.6</ele>
        <time>2017-05-28T08:04:35.000Z</time>
      </trkpt>
      <trkpt lat="44.38074" lon="1.04986">
        <ele>201.1</ele>
        <time>2017-05-28T08:04:36.000Z</time>
      </trkpt>
      <trkpt lat="44.38068" lon="1.04975">
        <ele>199.5</ele>
        <time>2017-05-28T08:04:37.000Z</time>
      </trkpt>
      <trkpt lat="44.38061" lon="1.04965">
        <ele>197.8</ele>
        <time>2017-05-28T08:04:38.000Z</time>
      </trkpt>
      <trkpt lat="44.38055" lon="1.04955">
        <ele>196</ele>
        <time>2017-05-28T08:04:39.000Z</time>
      </trkpt>
      <trkpt lat="44.38048" lon="1.04946">
        <ele>194.4</ele>
        <time>2017-05-28T08:04:40.000Z</time>
      </trkpt>
      <trkpt lat="44.38042" lon="1.04939">
        <ele>192.9</ele>
        <time>2017-05-28T08:04:41.000Z</time>
      </trkpt>
      <trkpt lat="44.38035" lon="1.04932">
        <ele>191.5</ele>
        <time>2017-05-28T08:04:42.000Z</time>
      </trkpt>
      <trkpt lat="44.38028" lon="1.04926">
        <ele>190.3</ele>
        <time>2017-05-28T08:04:43.000Z</time>
      </trkpt>
      <trkpt lat="44.38019" lon="1.04921">
        <ele>189.1</ele>
        <time>2017-05-28T08:04:44.000Z</time>
      </trkpt>
      <trkpt lat="44.3801" lon="1.04917">
        <ele>188.1</ele>
        <time>2017-05-28T08:04:45.000Z</time>
      </trkpt>
      <trkpt lat="44.38001" lon="1.04913">
        <ele>187.6</ele>
        <time>2017-05-28T08:04:46.000Z</time>
      </trkpt>
      <trkpt lat="44.37992" lon="1.04909">
        <ele>187.6</ele>
        <time>2017-05-28T08:04:47.000Z</time>
      </trkpt>
      <trkpt lat="44.37984" lon="1.04905">
        <ele>187.6</ele>
        <time>2017-05-28T08:04:48.000Z</time>
      </trkpt>
      <trkpt lat="44.37976" lon="1.04902">
        <ele>187.5</ele>
        <time>2017-05-28T08:04:49.000Z</time>
      </trkpt>
      <trkpt lat="44.37968" lon="1.04898">
        <ele>187.4</ele>
        <time>2017-05-28T08:04:50.000Z</time>
      </trkpt>
      <trkpt lat="44.37961" lon="1.04895">
        <ele>187.3</ele>
        <time>2017-05-28T08:04:51.000Z</time>
      </trkpt>
      <trkpt lat="44.37955" lon="1.04892">
        <ele>187.1</ele>
        <time>2017-05-28T08:04:52.000Z</time>
      </trkpt>
      <trkpt lat="44.37948" lon="1.0489">
        <ele>187.1</ele>
        <time>2017-05-28T08:04:53.000Z</time>
      </trkpt>
      <trkpt lat="44.37943" lon="1.04889">
        <ele>187</ele>
        <time>2017-05-28T08:04:54.000Z</time>
      </trkpt>
      <trkpt lat="44.37937" lon="1.04888">
        <ele>187</ele>
        <time>2017-05-28T08:04:55.000Z</time>
      </trkpt>
      <trkpt lat="44.37932" lon="1.04887">
        <ele>187.1</ele>
        <time>2017-05-28T08:04:56.000Z</time>
      </trkpt>
      <trkpt lat="44.37927" lon="1.04887">
        <ele>187.3</ele>
        <time>2017-05-28T08:04:57.000Z</time>
      </trkpt>
      <trkpt lat="44.37922" lon="1.04887">
        <ele>187.5</ele>
        <time>2017-05-28T08:04:58.000Z</time>
      </trkpt>
      <trkpt lat="44.37917" lon="1.04887">
        <ele>187.7</ele>
        <time>2017-05-28T08:04:59.000Z</time>
      </trkpt>
      <trkpt lat="44.37912" lon="1.04888">
        <ele>187.4</ele>
        <time>2017-05-28T08:05:00.000Z</time>
      </trkpt>
      <trkpt lat="44.37908" lon="1.04888">
        <ele>187.2</ele>
        <time>2017-05-28T08:05:01.000Z</time>
      </trkpt>
      <trkpt lat="44.37903" lon="1.04888">
        <ele>187</ele>
        <time>2017-05-28T08:05:02.000Z</time>
      </trkpt>
      <trkpt lat="44.37899" lon="1.04889">
        <ele>186.8</ele>
        <time>2017-05-28T08:05:03.000Z</time>
      </trkpt>
      <trkpt lat="44.37896" lon="1.04889">
        <ele>186.6</ele>
        <time>2017-05-28T08:05:04.000Z</time>
      </trkpt>
      <trkpt lat="44.37892" lon="1.04889">
        <ele>186.4</ele>
        <time>2017-05-28T08:05:05.000Z</time>
      </trkpt>
      <trkpt lat="44.37889" lon="1.04889">
        <ele>186.2</ele>
        <time>2017-05-28T08:05:06.000Z</time>
      </trkpt>
      <trkpt lat="44.37885" lon="1.04889">
        <ele>185.9</ele>
        <time>2017-05-28T08:05:07.000Z</time>
      </trkpt>
      <trkpt lat="44.37881" lon="1.04889">
        <ele>185.6</ele>
        <time>2017-05-28T08:05:08.000Z</time>
      </trkpt>
      <trkpt lat="44.37877" lon="1.04889">
        <ele>185.2</ele>
        <time>2017-05-28T08:05:09.000Z</time>
      </trkpt>
      <trkpt lat="44.37872" lon="1.04888">
        <ele>184.8</ele>
        <time>2017-05-28T08:05:10.000Z</time>
      </trkpt>
      <trkpt lat="44.37866" lon="1.04888">
        <ele>184.5</ele>
        <time>2017-05-28T08:05:11.000Z</time>
      </trkpt>
      <trkpt lat="44.3786" lon="1.04889">
        <ele>184.2</ele>
        <time>2017-05-28T08:05:12.000Z</time>
      </trkpt>
      <trkpt lat="44.37854" lon="1.04891">
        <ele>184</ele>
        <time>2017-05-28T08:05:13.000Z</time>
      </trkpt>
      <trkpt lat="44.37847" lon="1.04893">
        <ele>183.9</ele>
        <time>2017-05-28T08:05:14.000Z</time>
      </trkpt>
      <trkpt lat="44.3784" lon="1.04896">
        <ele>183.8</ele>
        <time>2017-05-28T08:05:15.000Z</time>
      </trkpt>
      <trkpt lat="44.37834" lon="1.049">
        <ele>183.9</ele>
        <time>2017-05-28T08:05:16.000Z</time>
      </trkpt>
      <trkpt lat="44.37827" lon="1.04904">
        <ele>183.2</ele>
        <time>2017-05-28T08:05:17.000Z</time>
      </trkpt>
      <trkpt lat="44.3782" lon="1.04908">
        <ele>182.3</ele>
        <time>2017-05-28T08:05:18.000Z</time>
      </trkpt>
      <trkpt lat="44.37812" lon="1.04912">
        <ele>181.1</ele>
        <time>2017-05-28T08:05:19.000Z</time>
      </trkpt>
      <trkpt lat="44.37803" lon="1.04914">
        <ele>179.6</ele>
        <time>2017-05-28T08:05:20.000Z</time>
      </trkpt>
      <trkpt lat="44.37794" lon="1.04916">
        <ele>177.8</ele>
        <time>2017-05-28T08:05:21.000Z</time>
      </trkpt>
      <trkpt lat="44.37784" lon="1.04916">
        <ele>175.9</ele>
        <time>2017-05-28T08:05:22.000Z</time>
      </trkpt>
      <trkpt lat="44.37775" lon="1.04915">
        <ele>174</ele>
        <time>2017-05-28T08:05:23.000Z</time>
      </trkpt>
      <trkpt lat="44.37767" lon="1.04913">
        <ele>172.2</ele>
        <time>2017-05-28T08:05:24.000Z</time>
      </trkpt>
      <trkpt lat="44.37761" lon="1.04908">
        <ele>170.7</ele>
        <time>2017-05-28T08:05:25.000Z</time>
      </trkpt>
      <trkpt lat="44.37756" lon="1.04902">
        <ele>169.6</ele>
        <time>2017-05-28T08:05:26.000Z</time>
      </trkpt>
      <trkpt lat="44.37754" lon="1.04893">
        <ele>168.8</ele>
        <time>2017-05-28T08:05:27.000Z</time>
      </trkpt>
      <trkpt lat="44.37753" lon="1.04882">
        <ele>168.3</ele>
        <time>2017-05-28T08:05:28.000Z</time>
      </trkpt>
      <trkpt lat="44.37753" lon="1.0487">
        <ele>167.8</ele>
        <time>2017-05-28T08:05:29.000Z</time>
      </trkpt>
      <trkpt lat="44.37752" lon="1.04858">
        <ele>167.2</ele>
        <time>2017-05-28T08:05:30.000Z</time>
      </trkpt>
      <trkpt lat="44.37751" lon="1.04846">
        <ele>166.6</ele>
        <time>2017-05-28T08:05:31.000Z</time>
      </trkpt>
      <trkpt lat="44.37749" lon="1.04834">
        <ele>166</ele>
        <time>2017-05-28T08:05:32.000Z</time>
      </trkpt>
      <trkpt lat="44.37747" lon="1.04823">
        <ele>165.5</ele>
        <time>2017-05-28T08:05:33.000Z</time>
      </trkpt>
      <trkpt lat="44.37745" lon="1.04811">
        <ele>165.1</ele>
        <time>2017-05-28T08:05:34.000Z</time>
      </trkpt>
      <trkpt lat="44.37743" lon="1.048">
        <ele>164.7</ele>
        <time>2017-05-28T08:05:35.000Z</time>
      </trkpt>
      <trkpt lat="44.37742" lon="1.04789">
        <ele>164.3</ele>
        <time>2017-05-28T08:05:36.000Z</time>
      </trkpt>
      <trkpt lat="44.37741" lon="1.04777">
        <ele>164</ele>
        <time>2017-05-28T08:05:37.000Z</time>
      </trkpt>
      <trkpt lat="44.3774" lon="1.04765">
        <ele>163.7</ele>
        <time>2017-05-28T08:05:38.000Z</time>
      </trkpt>
      <trkpt lat="44.37739" lon="1.04753">
        <ele>163.4</ele>
        <time>2017-05-28T08:05:39.000Z</time>
      </trkpt>
      <trkpt lat="44.37738" lon="1.04742">
        <ele>163.3</ele>
        <time>2017-05-28T08:05:40.000Z</time>
      </trkpt>
      <trkpt lat="44.37739" lon="1.04731">
        <ele>163.5</ele>
        <time>2017-05-28T08:05:41.000Z</time>
      </trkpt>
      <trkpt lat="44.37742" lon="1.04723">
        <ele>163.8</ele>
        <time>2017-05-28T08:05:42.000Z</time>
      </trkpt>
      <trkpt lat="44.37748" lon="1.04717">
        <ele>164.3</ele>
        <time>2017-05-28T08:05:43.000Z</time>
      </trkpt>
      <trkpt lat="44.37754" lon="1.04713">
        <ele>164.8</ele>
        <time>2017-05-28T08:05:44.000Z</time>
      </trkpt>
      <trkpt lat="44.3776" lon="1.0471">
        <ele>165.4</ele>
        <time>2017-05-28T08:05:45.000Z</time>
      </trkpt>
      <trkpt lat="44.37765" lon="1.04706">
        <ele>166</ele>
        <time>2017-05-28T08:05:46.000Z</time>
      </trkpt>
      <trkpt lat="44.37771" lon="1.04703">
        <ele>166.7</ele>
        <time>2017-05-28T08:05:47.000Z</time>
      </trkpt>
      <trkpt lat="44.37777" lon="1.047">
        <ele>167.3</ele>
        <time>2017-05-28T08:05:48.000Z</time>
      </trkpt>
      <trkpt lat="44.37783" lon="1.04698">
        <ele>168</ele>
        <time>2017-05-28T08:05:49.000Z</time>
      </trkpt>
      <trkpt lat="44.37788" lon="1.04698">
        <ele>168.5</ele>
        <time>2017-05-28T08:05:50.000Z</time>
      </trkpt>
      <trkpt lat="44.37793" lon="1.04699">
        <ele>169</ele>
        <time>2017-05-28T08:05:51.000Z</time>
      </trkpt>
      <trkpt lat="44.37798" lon="1.04701">
        <ele>169.4</ele>
        <time>2017-05-28T08:05:52.000Z</time>
      </trkpt>
      <trkpt lat="44.37803" lon="1.04703">
        <ele>169.8</ele>
        <time>2017-05-28T08:05:53.000Z</time>
      </trkpt>
      <trkpt lat="44.37808" lon="1.04705">
        <ele>170.2</ele>
        <time>2017-05-28T08:05:54.000Z</time>
      </trkpt>
      <trkpt lat="44.37813" lon="1.04707">
        <ele>170.6</ele>
        <time>2017-05-28T08:05:55.000Z</time>
      </trkpt>
      <trkpt lat="44.37818" lon="1.04708">
        <ele>171</ele>
        <time>2017-05-28T08:05:56.000Z</time>
      </trkpt>
      <trkpt lat="44.37823" lon="1.04709">
        <ele>171.4</ele>
        <time>2017-05-28T08:05:57.000Z</time>
      </trkpt>
      <trkpt lat="44.37828" lon="1.04711">
        <ele>171.8</ele>
        <time>2017-05-28T08:05:58.000Z</time>
      </trkpt>
      <trkpt lat="44.37833" lon="1.04713">
        <ele>172.2</ele>
        <time>2017-05-28T08:05:59.000Z</time>
      </trkpt>
      <trkpt lat="44.37837" lon="1.04714">
        <ele>172.4</ele>
        <time>2017-05-28T08:06:00.000Z</time>
      </trkpt>
      <trkpt lat="44.37842" lon="1.04716">
        <ele>172.6</ele>
        <time>2017-05-28T08:06:01.000Z</time>
      </trkpt>
      <trkpt lat="44.37847" lon="1.04718">
        <ele>172.7</ele>
        <time>2017-05-28T08:06:02.000Z</time>
      </trkpt>
      <trkpt lat="44.37851" lon="1.0472">
        <ele>172.9</ele>
        <time>2017-05-28T08:06:03.000Z</time>
      </trkpt>
      <trkpt lat="44.37856" lon="1.04722">
        <ele>173.1</ele>
        <time>2017-05-28T08:06:04.000Z</time>
      </trkpt>
      <trkpt lat="44.3786" lon="1.04723">
        <ele>173.2</ele>
        <time>2017-05-28T08:06:05.000Z</time>
      </trkpt>
      <trkpt lat="44.37865" lon="1.04725">
        <ele>173.4</ele>
        <time>2017-05-28T08:06:06.000Z</time>
      </trkpt>
      <trkpt lat="44.3787" lon="1.04726">
        <ele>173.5</ele>
        <time>2017-05-28T08:06:07.000Z</time>
      </trkpt>
      <trkpt lat="44.37874" lon="1.04728">
        <ele>173.7</ele>
        <time>2017-05-28T08:06:08.000Z</time>
      </trkpt>
      <trkpt lat="44.37879" lon="1.04729">
        <ele>173.9</ele>
        <time>2017-05-28T08:06:09.000Z</time>
      </trkpt>
      <trkpt lat="44.37884" lon="1.04731">
        <ele>174</ele>
        <time>2017-05-28T08:06:10.000Z</time>
      </trkpt>
      <trkpt lat="44.37888" lon="1.04733">
        <ele>174.1</ele>
        <time>2017-05-28T08:06:11.000Z</time>
      </trkpt>
      <trkpt lat="44.37892" lon="1.04734">
        <ele>174.2</ele>
        <time>2017-05-28T08:06:12.000Z</time>
      </trkpt>
      <trkpt lat="44.37896" lon="1.04731">
        <ele>174.6</ele>
        <time>2017-05-28T08:06:13.000Z</time>
      </trkpt>
      <trkpt lat="44.37898" lon="1.04728">
        <ele>175</ele>
        <time>2017-05-28T08:06:14.000Z</time>
      </trkpt>
      <trkpt lat="44.379" lon="1.04725">
        <ele>175.4</ele>
        <time>2017-05-28T08:06:15.000Z</time>
      </trkpt>
      <trkpt lat="44.37901" lon="1.04722">
        <ele>175.8</ele>
        <time>2017-05-28T08:06:16.000Z</time>
      </trkpt>
      <trkpt lat="44.37902" lon="1.04718">
        <ele>176.2</ele>
        <time>2017-05-28T08:06:17.000Z</time>
      </trkpt>
      <trkpt lat="44.37903" lon="1.04715">
        <ele>176.5</ele>
        <time>2017-05-28T08:06:18.000Z</time>
      </trkpt>
      <trkpt lat="44.37904" lon="1.04712">
        <ele>176.8</ele>
        <time>2017-05-28T08:06:19.000Z</time>
      </trkpt>
      <trkpt lat="44.37905" lon="1.04709">
        <ele>177.2</ele>
        <time>2017-05-28T08:06:20.000Z</time>
      </trkpt>
      <trkpt lat="44.37906" lon="1.04706">
        <ele>177.5</ele>
        <time>2017-05-28T08:06:21.000Z</time>
      </trkpt>
      <trkpt lat="44.37907" lon="1.04704">
        <ele>177.8</ele>
        <time>2017-05-28T08:06:22.000Z</time>
      </trkpt>
      <trkpt lat="44.37908" lon="1.04701">
        <ele>178.1</ele>
        <time>2017-05-28T08:06:23.000Z</time>
      </trkpt>
      <trkpt lat="44.37909" lon="1.04699">
        <ele>178.4</ele>
        <time>2017-05-28T08:06:24.000Z</time>
      </trkpt>
      <trkpt lat="44.3791" lon="1.04697">
        <ele>178.6</ele>
        <time>2017-05-28T08:06:25.000Z</time>
      </trkpt>
      <trkpt lat="44.37911" lon="1.04694">
        <ele>178.9</ele>
        <time>2017-05-28T08:06:26.000Z</time>
      </trkpt>
      <trkpt lat="44.37911" lon="1.04692">
        <ele>179.1</ele>
        <time>2017-05-28T08:06:27.000Z</time>
      </trkpt>
      <trkpt lat="44.37912" lon="1.0469">
        <ele>179.4</ele>
        <time>2017-05-28T08:06:28.000Z</time>
      </trkpt>
      <trkpt lat="44.37913" lon="1.04688">
        <ele>179.6</ele>
        <time>2017-05-28T08:06:29.000Z</time>
      </trkpt>
      <trkpt lat="44.37913" lon="1.04687">
        <ele>179.8</ele>
        <time>2017-05-28T08:06:30.000Z</time>
      </trkpt>
      <trkpt lat="44.37914" lon="1.04685">
        <ele>180.1</ele>
        <time>2017-05-28T08:06:31.000Z</time>
      </trkpt>
      <trkpt lat="44.37914" lon="1.04683">
        <ele>180.3</ele>
        <time>2017-05-28T08:06:32.000Z</time>
      </trkpt>
      <trkpt lat="44.37915" lon="1.04681">
        <ele>180.5</ele>
        <time>2017-05-28T08:06:33.000Z</time>
      </trkpt>
      <trkpt lat="44.37916" lon="1.0468">
        <ele>180.7</ele>
        <time>2017-05-28T08:06:34.000Z</time>
      </trkpt>
      <trkpt lat="44.37916" lon="1.04678">
        <ele>180.9</ele>
        <time>2017-05-28T08:06:35.000Z</time>
      </trkpt>
      <trkpt lat="44.37917" lon="1.04677">
        <ele>181.1</ele>
        <time>2017-05-28T08:06:36.000Z</time>
      </trkpt>
      <trkpt lat="44.37917" lon="1.04675">
        <ele>181.3</ele>
        <time>2017-05-28T08:06:37.000Z</time>
      </trkpt>
      <trkpt lat="44.37918" lon="1.04674">
        <ele>181.5</ele>
        <time>2017-05-28T08:06:38.000Z</time>
      </trkpt>
      <trkpt lat="44.37918" lon="1.04672">
        <ele>181.7</ele>
        <time>2017-05-28T08:06:39.000Z</time>
      </trkpt>
      <trkpt lat="44.37919" lon="1.0467">
        <ele>181.9</ele>
        <time>2017-05-28T08:06:40.000Z</time>
      </trkpt>
      <trkpt lat="44.3792" lon="1.04669">
        <ele>182.2</ele>
        <time>2017-05-28T08:06:41.000Z</time>
      </trkpt>
      <trkpt lat="44.3792" lon="1.04667">
        <ele>182.4</ele>
        <time>2017-05-28T08:06:42.000Z</time>
      </trkpt>
      <trkpt lat="44.37921" lon="1.04666">
        <ele>182.7</ele>
        <time>2017-05-28T08:06:43.000Z</time>
      </trkpt>
      <trkpt lat="44.37921" lon="1.04664">
        <ele>183</ele>
        <time>2017-05-28T08:06:44.000Z</time>
      </trkpt>
      <trkpt lat="44.37922" lon="1.04663">
        <ele>183.4</ele>
        <time>2017-05-28T08:06:45.000Z</time>
      </trkpt>
      <trkpt lat="44.37922" lon="1.04661">
        <ele>183.8</ele>
        <time>2017-05-28T08:06:46.000Z</time>
      </trkpt>
      <trkpt lat="44.37923" lon="1.04659">
        <ele>184.1</ele>
        <time>2017-05-28T08:06:47.000Z</time>
      </trkpt>
      <trkpt lat="44.37924" lon="1.04658">
        <ele>184.5</ele>
        <time>2017-05-28T08:06:48.000Z</time>
      </trkpt>
      <trkpt lat="44.37924" lon="1.04656">
        <ele>184.8</ele>
        <time>2017-05-28T08:06:49.000Z</time>
      </trkpt>
      <trkpt lat="44.37925" lon="1.04655">
        <ele>185.2</ele>
        <time>2017-05-28T08:06:50.000Z</time>
      </trkpt>
      <trkpt lat="44.37925" lon="1.04653">
        <ele>185.5</ele>
        <time>2017-05-28T08:06:51.000Z</time>
      </trkpt>
      <trkpt lat="44.37926" lon="1.04652">
        <ele>185.9</ele>
        <time>2017-05-28T08:06:52.000Z</time>
      </trkpt>
      <trkpt lat="44.37926" lon="1.0465">
        <ele>186.2</ele>
        <time>2017-05-28T08:06:53.000Z</time>
      </trkpt>
      <trkpt lat="44.37927" lon="1.04649">
        <ele>186.6</ele>
        <time>2017-05-28T08:06:54.000Z</time>
      </trkpt>
      <trkpt lat="44.37927" lon="1.04648">
        <ele>186.9</ele>
        <time>2017-05-28T08:06:55.000Z</time>
      </trkpt>
      <trkpt lat="44.37928" lon="1.04646">
        <ele>187.2</ele>
        <time>2017-05-28T08:06:56.000Z</time>
      </trkpt>
      <trkpt lat="44.37928" lon="1.04645">
        <ele>187.6</ele>
        <time>2017-05-28T08:06:57.000Z</time>
      </trkpt>
      <trkpt lat="44.37929" lon="1.04643">
        <ele>187.9</ele>
        <time>2017-05-28T08:06:58.000Z</time>
      </trkpt>
      <trkpt lat="44.3793" lon="1.04642">
        <ele>188.3</ele>
        <time>2017-05-28T08:06:59.000Z</time>
      </trkpt>
      <trkpt lat="44.3793" lon="1.0464">
        <ele>188.7</ele>
        <time>2017-05-28T08:07:00.000Z</time>
      </trkpt>
      <trkpt lat="44.37931" lon="1.04639">
        <ele>189.1</ele>
        <time>2017-05-28T08:07:01.000Z</time>
      </trkpt>
      <trkpt lat="44.37931" lon="1.04637">
        <ele>189.5</ele>
        <time>2017-05-28T08:07:02.000Z</time>
      </trkpt>
      <trkpt lat="44.37932" lon="1.04635">
        <ele>190</ele>
        <time>2017-05-28T08:07:03.000Z</time>
      </trkpt>
      <trkpt lat="44.37933" lon="1.04633">
        <ele>190.4</ele>
        <time>2017-05-28T08:07:04.000Z</time>
      </trkpt>
      <trkpt lat="44.37933" lon="1.04631">
        <ele>190.9</ele>
        <time>2017-05-28T08:07:05.000Z</time>
      </trkpt>
      <trkpt lat="44.37933" lon="1.04629">
        <ele>191.3</ele>
        <time>2017-05-28T08:07:06.000Z</time>
      </trkpt>
      <trkpt lat="44.37933" lon="1.04628">
        <ele>191.6</ele>
        <time>2017-05-28T08:07:07.000Z</time>
      </trkpt>
      <trkpt lat="44.37933" lon="1.04626">
        <ele>191.9</ele>
        <time>2017-05-28T08:07:08.000Z</time>
      </trkpt>
      <trkpt lat="44.37933" lon="1.04624">
        <ele>192.1</ele>
        <time>2017-05-28T08:07:09.000Z</time>
      </trkpt>
      <trkpt lat="44.37932" lon="1.04623">
        <ele>192.3</ele>
        <time>2017-05-28T08:07:10.000Z</time>
      </trkpt>
      <trkpt lat="44.37931" lon="1.04621">
        <ele>192.4</ele>
        <time>2017-05-28T08:07:11.000Z</time>
      </trkpt>
      <trkpt lat="44.37929" lon="1.0462">
        <ele>192.4</ele>
        <time>2017-05-28T08:07:12.000Z</time>
      </trkpt>
      <trkpt lat="44.37928" lon="1.04618">
        <ele>192.3</ele>
        <time>2017-05-28T08:07:13.000Z</time>
      </trkpt>
      <trkpt lat="44.37926" lon="1.04617">
        <ele>192.2</ele>
        <time>2017-05-28T08:07:14.000Z</time>
      </trkpt>
      <trkpt lat="44.37924" lon="1.04615">
        <ele>192.1</ele>
        <time>2017-05-28T08:07:15.000Z</time>
      </trkpt>
      <trkpt lat="44.37922" lon="1.04613">
        <ele>191.9</ele>
        <time>2017-05-28T08:07:16.000Z</time>
      </trkpt>
      <trkpt lat="44.37919" lon="1.04612">
        <ele>191.7</ele>
        <time>2017-05-28T08:07:17.000Z</time>
      </trkpt>
      <trkpt lat="44.37916" lon="1.0461">
        <ele>191.5</ele>
        <time>2017-05-28T08:07:18.000Z</time>
      </trkpt>
      <trkpt lat="44.37914" lon="1.04608">
        <ele>191.4</ele>
        <time>2017-05-28T08:07:19.000Z</time>
      </trkpt>
      <trkpt lat="44.37911" lon="1.04606">
        <ele>191.3</ele>
        <time>2017-05-28T08:07:20.000Z</time>
      </trkpt>
      <trkpt lat="44.37908" lon="1.04605">
        <ele>191.2</ele>
        <time>2017-05-28T08:07:21.000Z</time>
      </trkpt>
      <trkpt lat="44.37905" lon="1.04603">
        <ele>191.1</ele>
        <time>2017-05-28T08:07:22.000Z</time>
      </trkpt>
      <trkpt lat="44.37902" lon="1.04601">
        <ele>190.9</ele>
        <time>2017-05-28T08:07:23.000Z</time>
      </trkpt>
      <trkpt lat="44.37899" lon="1.04599">
        <ele>190.8</ele>
        <time>2017-05-28T08:07:24.000Z</time>
      </trkpt>
      <trkpt lat="44.37896" lon="1.04598">
        <ele>190.6</ele>
        <time>2017-05-28T08:07:25.000Z</time>
      </trkpt>
      <trkpt lat="44.37893" lon="1.04596">
        <ele>190.4</ele>
        <time>2017-05-28T08:07:26.000Z</time>
      </trkpt>
      <trkpt lat="44.3789" lon="1.04594">
        <ele>190.2</ele>
        <time>2017-05-28T08:07:27.000Z</time>
      </trkpt>
      <trkpt lat="44.37887" lon="1.04593">
        <ele>190</ele>
        <time>2017-05-28T08:07:28.000Z</time>
      </trkpt>
      <trkpt lat="44.37884" lon="1.04591">
        <ele>189.7</ele>
        <time>2017-05-28T08:07:29.000Z</time>
      </trkpt>
      <trkpt lat="44.37881" lon="1.0459">
        <ele>189.5</ele>
        <time>2017-05-28T08:07:30.000Z</time>
      </trkpt>
      <trkpt lat="44.37877" lon="1.04588">
        <ele>189.2</ele>
        <time>2017-05-28T08:07:31.000Z</time>
      </trkpt>
      <trkpt lat="44.37874" lon="1.04587">
        <ele>188.9</ele>
        <time>2017-05-28T08:07:32.000Z</time>
      </trkpt>
      <trkpt lat="44.37871" lon="1.04586">
        <ele>188.6</ele>
        <time>2017-05-28T08:07:33.000Z</time>
      </trkpt>
      <trkpt lat="44.37868" lon="1.04584">
        <ele>188.3</ele>
        <time>2017-05-28T08:07:34.000Z</time>
      </trkpt>
      <trkpt lat="44.37865" lon="1.04583">
        <ele>187.9</ele>
        <time>2017-05-28T08:07:35.000Z</time>
      </trkpt>
      <trkpt lat="44.37861" lon="1.04582">
        <ele>187.5</ele>
        <time>2017-05-28T08:07:36.000Z</time>
      </trkpt>
      <trkpt lat="44.37858" lon="1.04581">
        <ele>187</ele>
        <time>2017-05-28T08:07:37.000Z</time>
      </trkpt>
      <trkpt lat="44.37855" lon="1.0458">
        <ele>186.6</ele>
        <time>2017-05-28T08:07:38.000Z</time>
      </trkpt>
      <trkpt lat="44.37853" lon="1.0458">
        <ele>186.3</ele>
        <time>2017-05-28T08:07:39.000Z</time>
      </trkpt>
      <trkpt lat="44.37851" lon="1.0458">
        <ele>185.9</ele>
        <time>2017-05-28T08:07:40.000Z</time>
      </trkpt>
      <trkpt lat="44.37849" lon="1.04579">
        <ele>185.6</ele>
        <time>2017-05-28T08:07:41.000Z</time>
      </trkpt>
      <trkpt lat="44.37846" lon="1.04577">
        <ele>185.2</ele>
        <time>2017-05-28T08:07:42.000Z</time>
      </trkpt>
      <trkpt lat="44.37843" lon="1.04574">
        <ele>184.8</ele>
        <time>2017-05-28T08:07:43.000Z</time>
      </trkpt>
      <trkpt lat="44.37841" lon="1.04571">
        <ele>184.5</ele>
        <time>2017-05-28T08:07:44.000Z</time>
      </trkpt>
      <trkpt lat="44.37838" lon="1.04566">
        <ele>184.2</ele>
        <time>2017-05-28T08:07:45.000Z</time>
      </trkpt>
      <trkpt lat="44.37837" lon="1.04561">
        <ele>183.9</ele>
        <time>2017-05-28T08:07:46.000Z</time>
      </trkpt>
      <trkpt lat="44.37835" lon="1.04555">
        <ele>183.6</ele>
        <time>2017-05-28T08:07:47.000Z</time>
      </trkpt>
      <trkpt lat="44.37833" lon="1.04548">
        <ele>183.4</ele>
        <time>2017-05-28T08:07:48.000Z</time>
      </trkpt>
      <trkpt lat="44.37831" lon="1.0454">
        <ele>183.1</ele>
        <time>2017-05-28T08:07:49.000Z</time>
      </trkpt>
      <trkpt lat="44.3783" lon="1.04532">
        <ele>182.9</ele>
        <time>2017-05-28T08:07:50.000Z</time>
      </trkpt>
      <trkpt lat="44.37828" lon="1.04523">
        <ele>182.6</ele>
        <time>2017-05-28T08:07:51.000Z</time>
      </trkpt>
      <trkpt lat="44.37826" lon="1.04514">
        <ele>182.3</ele>
        <time>2017-05-28T08:07:52.000Z</time>
      </trkpt>
      <trkpt lat="44.37824" lon="1.04504">
        <ele>182</ele>
        <time>2017-05-28T08:07:53.000Z</time>
      </trkpt>
      <trkpt lat="44.37823" lon="1.04494">
        <ele>181.8</ele>
        <time>2017-05-28T08:07:54.000Z</time>
      </trkpt>
      <trkpt lat="44.37822" lon="1.04485">
        <ele>181.8</ele>
        <time>2017-05-28T08:07:55.000Z</time>
      </trkpt>
      <trkpt lat="44.37822" lon="1.04476">
        <ele>181.8</ele>
        <time>2017-05-28T08:07:56.000Z</time>
      </trkpt>
      <trkpt lat="44.37821" lon="1.04467">
        <ele>181.8</ele>
        <time>2017-05-28T08:07:57.000Z</time>
      </trkpt>
      <trkpt lat="44.3782" lon="1.04459">
        <ele>181.7</ele>
        <time>2017-05-28T08:07:58.000Z</time>
      </trkpt>
      <trkpt lat="44.37819" lon="1.04451">
        <ele>181.5</ele>
        <time>2017-05-28T08:07:59.000Z</time>
      </trkpt>
      <trkpt lat="44.37818" lon="1.04443">
        <ele>181.4</ele>
        <time>2017-05-28T08:08:00.000Z</time>
      </trkpt>
      <trkpt lat="44.37818" lon="1.04434">
        <ele>181.4</ele>
        <time>2017-05-28T08:08:01.000Z</time>
      </trkpt>
      <trkpt lat="44.37818" lon="1.04426">
        <ele>181.5</ele>
        <time>2017-05-28T08:08:02.000Z</time>
      </trkpt>
      <trkpt lat="44.37818" lon="1.04418">
        <ele>181.6</ele>
        <time>2017-05-28T08:08:03.000Z</time>
      </trkpt>
      <trkpt lat="44.37818" lon="1.0441">
        <ele>181.6</ele>
        <time>2017-05-28T08:08:04.000Z</time>
      </trkpt>
      <trkpt lat="44.37819" lon="1.04403">
        <ele>181.4</ele>
        <time>2017-05-28T08:08:05.000Z</time>
      </trkpt>
      <trkpt lat="44.3782" lon="1.04396">
        <ele>181.3</ele>
        <time>2017-05-28T08:08:06.000Z</time>
      </trkpt>
      <trkpt lat="44.37821" lon="1.04389">
        <ele>181.3</ele>
        <time>2017-05-28T08:08:07.000Z</time>
      </trkpt>
      <trkpt lat="44.37821" lon="1.04382">
        <ele>181.2</ele>
        <time>2017-05-28T08:08:08.000Z</time>
      </trkpt>
      <trkpt lat="44.37822" lon="1.04376">
        <ele>181.1</ele>
        <time>2017-05-28T08:08:09.000Z</time>
      </trkpt>
      <trkpt lat="44.37823" lon="1.04369">
        <ele>181.1</ele>
        <time>2017-05-28T08:08:10.000Z</time>
      </trkpt>
      <trkpt lat="44.37823" lon="1.04363">
        <ele>181</ele>
        <time>2017-05-28T08:08:11.000Z</time>
      </trkpt>
      <trkpt lat="44.37824" lon="1.04356">
        <ele>180.9</ele>
        <time>2017-05-28T08:08:12.000Z</time>
      </trkpt>
      <trkpt lat="44.37825" lon="1.0435">
        <ele>180.9</ele>
        <time>2017-05-28T08:08:13.000Z</time>
      </trkpt>
      <trkpt lat="44.37826" lon="1.04343">
        <ele>180.8</ele>
        <time>2017-05-28T08:08:14.000Z</time>
      </trkpt>
      <trkpt lat="44.37826" lon="1.04337">
        <ele>180.7</ele>
        <time>2017-05-28T08:08:15.000Z</time>
      </trkpt>
      <trkpt lat="44.37827" lon="1.0433">
        <ele>180.6</ele>
        <time>2017-05-28T08:08:16.000Z</time>
      </trkpt>
      <trkpt lat="44.37828" lon="1.04324">
        <ele>180.4</ele>
        <time>2017-05-28T08:08:17.000Z</time>
      </trkpt>
      <trkpt lat="44.37828" lon="1.04318">
        <ele>180.3</ele>
        <time>2017-05-28T08:08:18.000Z</time>
      </trkpt>
      <trkpt lat="44.37829" lon="1.04313">
        <ele>180.2</ele>
        <time>2017-05-28T08:08:19.000Z</time>
      </trkpt>
      <trkpt lat="44.3783" lon="1.04307">
        <ele>180.1</ele>
        <time>2017-05-28T08:08:20.000Z</time>
      </trkpt>
      <trkpt lat="44.37831" lon="1.04302">
        <ele>180</ele>
        <time>2017-05-28T08:08:21.000Z</time>
      </trkpt>
      <trkpt lat="44.37832" lon="1.04296">
        <ele>179.9</ele>
        <time>2017-05-28T08:08:22.000Z</time>
      </trkpt>
      <trkpt lat="44.37833" lon="1.0429">
        <ele>179.8</ele>
        <time>2017-05-28T08:08:23.000Z</time>
      </trkpt>
      <trkpt lat="44.37832" lon="1.04285">
        <ele>179.5</ele>
        <time>2017-05-28T08:08:24.000Z</time>
      </trkpt>
      <trkpt lat="44.37831" lon="1.04282">
        <ele>179.1</ele>
        <time>2017-05-28T08:08:25.000Z</time>
      </trkpt>
      <trkpt lat="44.37827" lon="1.04279">
        <ele>178.3</ele>
        <time>2017-05-28T08:08:26.000Z</time>
      </trkpt>
      <trkpt lat="44.37822" lon="1.04277">
        <ele>177.2</ele>
        <time>2017-05-28T08:08:27.000Z</time>
      </trkpt>
      <trkpt lat="44.37814" lon="1.04274">
        <ele>175.8</ele>
        <time>2017-05-28T08:08:28.000Z</time>
      </trkpt>
      <trkpt lat="44.37806" lon="1.04272">
        <ele>174.2</ele>
        <time>2017-05-28T08:08:29.000Z</time>
      </trkpt>
      <trkpt lat="44.37798" lon="1.0427">
        <ele>172.6</ele>
        <time>2017-05-28T08:08:30.000Z</time>
      </trkpt>
      <trkpt lat="44.37789" lon="1.04268">
        <ele>171.1</ele>
        <time>2017-05-28T08:08:31.000Z</time>
      </trkpt>
      <trkpt lat="44.37781" lon="1.04265">
        <ele>169.6</ele>
        <time>2017-05-28T08:08:32.000Z</time>
      </trkpt>
      <trkpt lat="44.37772" lon="1.04262">
        <ele>168</ele>
        <time>2017-05-28T08:08:33.000Z</time>
      </trkpt>
      <trkpt lat="44.37763" lon="1.0426">
        <ele>166.4</ele>
        <time>2017-05-28T08:08:34.000Z</time>
      </trkpt>
      <trkpt lat="44.37755" lon="1.04258">
        <ele>164.9</ele>
        <time>2017-05-28T08:08:35.000Z</time>
      </trkpt>
      <trkpt lat="44.37747" lon="1.04256">
        <ele>163.7</ele>
        <time>2017-05-28T08:08:36.000Z</time>
      </trkpt>
      <trkpt lat="44.37739" lon="1.04253">
        <ele>162.9</ele>
        <time>2017-05-28T08:08:37.000Z</time>
      </trkpt>
      <trkpt lat="44.37732" lon="1.04251">
        <ele>162.1</ele>
        <time>2017-05-28T08:08:38.000Z</time>
      </trkpt>
      <trkpt lat="44.37725" lon="1.04249">
        <ele>161.3</ele>
        <time>2017-05-28T08:08:39.000Z</time>
      </trkpt>
      <trkpt lat="44.37719" lon="1.04247">
        <ele>160.6</ele>
        <time>2017-05-28T08:08:40.000Z</time>
      </trkpt>
      <trkpt lat="44.37714" lon="1.04246">
        <ele>160</ele>
        <time>2017-05-28T08:08:41.000Z</time>
      </trkpt>
      <trkpt lat="44.3771" lon="1.04243">
        <ele>159.5</ele>
        <time>2017-05-28T08:08:42.000Z</time>
      </trkpt>
      <trkpt lat="44.37708" lon="1.04238">
        <ele>159.1</ele>
        <time>2017-05-28T08:08:43.000Z</time>
      </trkpt>
      <trkpt lat="44.37706" lon="1.04232">
        <ele>158.7</ele>
        <time>2017-05-28T08:08:44.000Z</time>
      </trkpt>
      <trkpt lat="44.37706" lon="1.04226">
        <ele>158.5</ele>
        <time>2017-05-28T08:08:45.000Z</time>
      </trkpt>
      <trkpt lat="44.37706" lon="1.04219">
        <ele>158.3</ele>
        <time>2017-05-28T08:08:46.000Z</time>
      </trkpt>
      <trkpt lat="44.37707" lon="1.04212">
        <ele>158.2</ele>
        <time>2017-05-28T08:08:47.000Z</time>
      </trkpt>
      <trkpt lat="44.37708" lon="1.04204">
        <ele>158</ele>
        <time>2017-05-28T08:08:48.000Z</time>
      </trkpt>
      <trkpt lat="44.37708" lon="1.04196">
        <ele>157.9</ele>
        <time>2017-05-28T08:08:49.000Z</time>
      </trkpt>
      <trkpt lat="44.37709" lon="1.04188">
        <ele>157.7</ele>
        <time>2017-05-28T08:08:50.000Z</time>
      </trkpt>
      <trkpt lat="44.37709" lon="1.0418">
        <ele>157.5</ele>
        <time>2017-05-28T08:08:51.000Z</time>
      </trkpt>
      <trkpt lat="44.3771" lon="1.04172">
        <ele>157.4</ele>
        <time>2017-05-28T08:08:52.000Z</time>
      </trkpt>
      <trkpt lat="44.37712" lon="1.04164">
        <ele>157.3</ele>
        <time>2017-05-28T08:08:53.000Z</time>
      </trkpt>
      <trkpt lat="44.37713" lon="1.04156">
        <ele>157.2</ele>
        <time>2017-05-28T08:08:54.000Z</time>
      </trkpt>
      <trkpt lat="44.37715" lon="1.04147">
        <ele>157.1</ele>
        <time>2017-05-28T08:08:55.000Z</time>
      </trkpt>
      <trkpt lat="44.37716" lon="1.04139">
        <ele>157</ele>
        <time>2017-05-28T08:08:56.000Z</time>
      </trkpt>
      <trkpt lat="44.37717" lon="1.0413">
        <ele>156.8</ele>
        <time>2017-05-28T08:08:57.000Z</time>
      </trkpt>
      <trkpt lat="44.37718" lon="1.04122">
        <ele>156.6</ele>
        <time>2017-05-28T08:08:58.000Z</time>
      </trkpt>
      <trkpt lat="44.37719" lon="1.04113">
        <ele>156.4</ele>
        <time>2017-05-28T08:08:59.000Z</time>
      </trkpt>
      <trkpt lat="44.3772" lon="1.04105">
        <ele>156.2</ele>
        <time>2017-05-28T08:09:00.000Z</time>
      </trkpt>
      <trkpt lat="44.37721" lon="1.04096">
        <ele>156</ele>
        <time>2017-05-28T08:09:01.000Z</time>
      </trkpt>
      <trkpt lat="44.37722" lon="1.04087">
        <ele>155.8</ele>
        <time>2017-05-28T08:09:02.000Z</time>
      </trkpt>
      <trkpt lat="44.37724" lon="1.04079">
        <ele>155.6</ele>
        <time>2017-05-28T08:09:03.000Z</time>
      </trkpt>
      <trkpt lat="44.37725" lon="1.0407">
        <ele>155.5</ele>
        <time>2017-05-28T08:09:04.000Z</time>
      </trkpt>
      <trkpt lat="44.37727" lon="1.04062">
        <ele>155.4</ele>
        <time>2017-05-28T08:09:05.000Z</time>
      </trkpt>
      <trkpt lat="44.37728" lon="1.04053">
        <ele>155.2</ele>
        <time>2017-05-28T08:09:06.000Z</time>
      </trkpt>
      <trkpt lat="44.3773" lon="1.04044">
        <ele>155.1</ele>
        <time>2017-05-28T08:09:07.000Z</time>
      </trkpt>
      <trkpt lat="44.37731" lon="1.04036">
        <ele>154.9</ele>
        <time>2017-05-28T08:09:08.000Z</time>
      </trkpt>
      <trkpt lat="44.37732" lon="1.04027">
        <ele>154.8</ele>
        <time>2017-05-28T08:09:09.000Z</time>
      </trkpt>
      <trkpt lat="44.37733" lon="1.04018">
        <ele>154.6</ele>
        <time>2017-05-28T08:09:10.000Z</time>
      </trkpt>
      <trkpt lat="44.37734" lon="1.0401">
        <ele>154.5</ele>
        <time>2017-05-28T08:09:11.000Z</time>
      </trkpt>
      <trkpt lat="44.37735" lon="1.04001">
        <ele>154.3</ele>
        <time>2017-05-28T08:09:12.000Z</time>
      </trkpt>
      <trkpt lat="44.37736" lon="1.03992">
        <ele>154.2</ele>
        <time>2017-05-28T08:09:13.000Z</time>
      </trkpt>
      <trkpt lat="44.37737" lon="1.03983">
        <ele>154.2</ele>
        <time>2017-05-28T08:09:14.000Z</time>
      </trkpt>
      <trkpt lat="44.37737" lon="1.03974">
        <ele>154.2</ele>
        <time>2017-05-28T08:09:15.000Z</time>
      </trkpt>
      <trkpt lat="44.37737" lon="1.03965">
        <ele>154.1</ele>
        <time>2017-05-28T08:09:16.000Z</time>
      </trkpt>
      <trkpt lat="44.37736" lon="1.03956">
        <ele>154</ele>
        <time>2017-05-28T08:09:17.000Z</time>
      </trkpt>
      <trkpt lat="44.37733" lon="1.03949">
        <ele>153.8</ele>
        <time>2017-05-28T08:09:18.000Z</time>
      </trkpt>
      <trkpt lat="44.37728" lon="1.03943">
        <ele>153.6</ele>
        <time>2017-05-28T08:09:19.000Z</time>
      </trkpt>
      <trkpt lat="44.37722" lon="1.03939">
        <ele>153.4</ele>
        <time>2017-05-28T08:09:20.000Z</time>
      </trkpt>
      <trkpt lat="44.37716" lon="1.03934">
        <ele>153.2</ele>
        <time>2017-05-28T08:09:21.000Z</time>
      </trkpt>
      <trkpt lat="44.3771" lon="1.0393">
        <ele>153.1</ele>
        <time>2017-05-28T08:09:22.000Z</time>
      </trkpt>
      <trkpt lat="44.37705" lon="1.03926">
        <ele>152.9</ele>
        <time>2017-05-28T08:09:23.000Z</time>
      </trkpt>
      <trkpt lat="44.37699" lon="1.03922">
        <ele>152.8</ele>
        <time>2017-05-28T08:09:24.000Z</time>
      </trkpt>
      <trkpt lat="44.37693" lon="1.03918">
        <ele>152.6</ele>
        <time>2017-05-28T08:09:25.000Z</time>
      </trkpt>
      <trkpt lat="44.37688" lon="1.03914">
        <ele>152.5</ele>
        <time>2017-05-28T08:09:26.000Z</time>
      </trkpt>
      <trkpt lat="44.37682" lon="1.0391">
        <ele>152.3</ele>
        <time>2017-05-28T08:09:27.000Z</time>
      </trkpt>
      <trkpt lat="44.37676" lon="1.03906">
        <ele>152.1</ele>
        <time>2017-05-28T08:09:28.000Z</time>
      </trkpt>
      <trkpt lat="44.37671" lon="1.03902">
        <ele>151.9</ele>
        <time>2017-05-28T08:09:29.000Z</time>
      </trkpt>
      <trkpt lat="44.37665" lon="1.03898">
        <ele>151.8</ele>
        <time>2017-05-28T08:09:30.000Z</time>
      </trkpt>
      <trkpt lat="44.3766" lon="1.03895">
        <ele>151.8</ele>
        <time>2017-05-28T08:09:31.000Z</time>
      </trkpt>
      <trkpt lat="44.37655" lon="1.03891">
        <ele>151.7</ele>
        <time>2017-05-28T08:09:32.000Z</time>
      </trkpt>
      <trkpt lat="44.37649" lon="1.03888">
        <ele>151.7</ele>
        <time>2017-05-28T08:09:33.000Z</time>
      </trkpt>
      <trkpt lat="44.37644" lon="1.03884">
        <ele>151.7</ele>
        <time>2017-05-28T08:09:34.000Z</time>
      </trkpt>
      <trkpt lat="44.37638" lon="1.03881">
        <ele>151.7</ele>
        <time>2017-05-28T08:09:35.000Z</time>
      </trkpt>
      <trkpt lat="44.37633" lon="1.03877">
        <ele>151.7</ele>
        <time>2017-05-28T08:09:36.000Z</time>
      </trkpt>
      <trkpt lat="44.37628" lon="1.03874">
        <ele>151.7</ele>
        <time>2017-05-28T08:09:37.000Z</time>
      </trkpt>
      <trkpt lat="44.37622" lon="1.0387">
        <ele>151.7</ele>
        <time>2017-05-28T08:09:38.000Z</time>
      </trkpt>
      <trkpt lat="44.37617" lon="1.03867">
        <ele>151.8</ele>
        <time>2017-05-28T08:09:39.000Z</time>
      </trkpt>
      <trkpt lat="44.37611" lon="1.03863">
        <ele>151.8</ele>
        <time>2017-05-28T08:09:40.000Z</time>
      </trkpt>
      <trkpt lat="44.37606" lon="1.03859">
        <ele>151.8</ele>
        <time>2017-05-28T08:09:41.000Z</time>
      </trkpt>
      <trkpt lat="44.37601" lon="1.03855">
        <ele>151.8</ele>
        <time>2017-05-28T08:09:42.000Z</time>
      </trkpt>
      <trkpt lat="44.37596" lon="1.03851">
        <ele>151.9</ele>
        <time>2017-05-28T08:09:43.000Z</time>
      </trkpt>
      <trkpt lat="44.37592" lon="1.03847">
        <ele>151.9</ele>
        <time>2017-05-28T08:09:44.000Z</time>
      </trkpt>
      <trkpt lat="44.37588" lon="1.03842">
        <ele>152</ele>
        <time>2017-05-28T08:09:45.000Z</time>
      </trkpt>
      <trkpt lat="44.37585" lon="1.03837">
        <ele>152</ele>
        <time>2017-05-28T08:09:46.000Z</time>
      </trkpt>
      <trkpt lat="44.37584" lon="1.03831">
        <ele>152</ele>
        <time>2017-05-28T08:09:47.000Z</time>
      </trkpt>
      <trkpt lat="44.37585" lon="1.03824">
        <ele>152</ele>
        <time>2017-05-28T08:09:48.000Z</time>
      </trkpt>
      <trkpt lat="44.37589" lon="1.03819">
        <ele>151.9</ele>
        <time>2017-05-28T08:09:49.000Z</time>
      </trkpt>
      <trkpt lat="44.37593" lon="1.03814">
        <ele>151.9</ele>
        <time>2017-05-28T08:09:50.000Z</time>
      </trkpt>
      <trkpt lat="44.37596" lon="1.03808">
        <ele>151.8</ele>
        <time>2017-05-28T08:09:51.000Z</time>
      </trkpt>
      <trkpt lat="44.37599" lon="1.03801">
        <ele>151.7</ele>
        <time>2017-05-28T08:09:52.000Z</time>
      </trkpt>
      <trkpt lat="44.37602" lon="1.03793">
        <ele>151.7</ele>
        <time>2017-05-28T08:09:53.000Z</time>
      </trkpt>
      <trkpt lat="44.37605" lon="1.03785">
        <ele>151.6</ele>
        <time>2017-05-28T08:09:54.000Z</time>
      </trkpt>
      <trkpt lat="44.37606" lon="1.03777">
        <ele>151.5</ele>
        <time>2017-05-28T08:09:55.000Z</time>
      </trkpt>
      <trkpt lat="44.37608" lon="1.03768">
        <ele>151.5</ele>
        <time>2017-05-28T08:09:56.000Z</time>
      </trkpt>
      <trkpt lat="44.37609" lon="1.0376">
        <ele>151.4</ele>
        <time>2017-05-28T08:09:57.000Z</time>
      </trkpt>
      <trkpt lat="44.37609" lon="1.0375">
        <ele>151.4</ele>
        <time>2017-05-28T08:09:58.000Z</time>
      </trkpt>
      <trkpt lat="44.3761" lon="1.03741">
        <ele>151.4</ele>
        <time>2017-05-28T08:09:59.000Z</time>
      </trkpt>
      <trkpt lat="44.37612" lon="1.03732">
        <ele>151.3</ele>
        <time>2017-05-28T08:10:00.000Z</time>
      </trkpt>
      <trkpt lat="44.37614" lon="1.03723">
        <ele>151.3</ele>
        <time>2017-05-28T08:10:01.000Z</time>
      </trkpt>
      <trkpt lat="44.37616" lon="1.03715">
        <ele>151.2</ele>
        <time>2017-05-28T08:10:02.000Z</time>
      </trkpt>
      <trkpt lat="44.37619" lon="1.03706">
        <ele>151.2</ele>
        <time>2017-05-28T08:10:03.000Z</time>
      </trkpt>
      <trkpt lat="44.37622" lon="1.03698">
        <ele>151.1</ele>
        <time>2017-05-28T08:10:04.000Z</time>
      </trkpt>
      <trkpt lat="44.37625" lon="1.0369">
        <ele>151</ele>
        <time>2017-05-28T08:10:05.000Z</time>
      </trkpt>
      <trkpt lat="44.37628" lon="1.03681">
        <ele>150.9</ele>
        <time>2017-05-28T08:10:06.000Z</time>
      </trkpt>
      <trkpt lat="44.3763" lon="1.03673">
        <ele>150.9</ele>
        <time>2017-05-28T08:10:07.000Z</time>
      </trkpt>
      <trkpt lat="44.37632" lon="1.03664">
        <ele>150.8</ele>
        <time>2017-05-28T08:10:08.000Z</time>
      </trkpt>
      <trkpt lat="44.37635" lon="1.03655">
        <ele>150.7</ele>
        <time>2017-05-28T08:10:09.000Z</time>
      </trkpt>
      <trkpt lat="44.37637" lon="1.03646">
        <ele>150.6</ele>
        <time>2017-05-28T08:10:10.000Z</time>
      </trkpt>
      <trkpt lat="44.3764" lon="1.03637">
        <ele>150.4</ele>
        <time>2017-05-28T08:10:11.000Z</time>
      </trkpt>
      <trkpt lat="44.37643" lon="1.03629">
        <ele>150.2</ele>
        <time>2017-05-28T08:10:12.000Z</time>
      </trkpt>
      <trkpt lat="44.37647" lon="1.03621">
        <ele>150.1</ele>
        <time>2017-05-28T08:10:13.000Z</time>
      </trkpt>
      <trkpt lat="44.37651" lon="1.03613">
        <ele>149.9</ele>
        <time>2017-05-28T08:10:14.000Z</time>
      </trkpt>
      <trkpt lat="44.37654" lon="1.03605">
        <ele>149.7</ele>
        <time>2017-05-28T08:10:15.000Z</time>
      </trkpt>
      <trkpt lat="44.37657" lon="1.03597">
        <ele>149.5</ele>
        <time>2017-05-28T08:10:16.000Z</time>
      </trkpt>
      <trkpt lat="44.37659" lon="1.03588">
        <ele>149.3</ele>
        <time>2017-05-28T08:10:17.000Z</time>
      </trkpt>
      <trkpt lat="44.37661" lon="1.03579">
        <ele>149.3</ele>
        <time>2017-05-28T08:10:18.000Z</time>
      </trkpt>
      <trkpt lat="44.37663" lon="1.0357">
        <ele>149.5</ele>
        <time>2017-05-28T08:10:19.000Z</time>
      </trkpt>
      <trkpt lat="44.37665" lon="1.03562">
        <ele>149.6</ele>
        <time>2017-05-28T08:10:20.000Z</time>
      </trkpt>
      <trkpt lat="44.37667" lon="1.03553">
        <ele>149.7</ele>
        <time>2017-05-28T08:10:21.000Z</time>
      </trkpt>
      <trkpt lat="44.3767" lon="1.03545">
        <ele>149.9</ele>
        <time>2017-05-28T08:10:22.000Z</time>
      </trkpt>
      <trkpt lat="44.37673" lon="1.03537">
        <ele>150</ele>
        <time>2017-05-28T08:10:23.000Z</time>
      </trkpt>
      <trkpt lat="44.37676" lon="1.0353">
        <ele>150.1</ele>
        <time>2017-05-28T08:10:24.000Z</time>
      </trkpt>
      <trkpt lat="44.37679" lon="1.03522">
        <ele>150.3</ele>
        <time>2017-05-28T08:10:25.000Z</time>
      </trkpt>
      <trkpt lat="44.37682" lon="1.03515">
        <ele>150.4</ele>
        <time>2017-05-28T08:10:26.000Z</time>
      </trkpt>
      <trkpt lat="44.37684" lon="1.03507">
        <ele>150.5</ele>
        <time>2017-05-28T08:10:27.000Z</time>
      </trkpt>
      <trkpt lat="44.37685" lon="1.035">
        <ele>150.6</ele>
        <time>2017-05-28T08:10:28.000Z</time>
      </trkpt>
      <trkpt lat="44.37686" lon="1.03493">
        <ele>150.6</ele>
        <time>2017-05-28T08:10:29.000Z</time>
      </trkpt>
      <trkpt lat="44.37688" lon="1.03485">
        <ele>150.7</ele>
        <time>2017-05-28T08:10:30.000Z</time>
      </trkpt>
      <trkpt lat="44.3769" lon="1.03478">
        <ele>150.7</ele>
        <time>2017-05-28T08:10:31.000Z</time>
      </trkpt>
      <trkpt lat="44.37692" lon="1.03471">
        <ele>150.7</ele>
        <time>2017-05-28T08:10:32.000Z</time>
      </trkpt>
      <trkpt lat="44.37694" lon="1.03464">
        <ele>150.8</ele>
        <time>2017-05-28T08:10:33.000Z</time>
      </trkpt>
      <trkpt lat="44.37696" lon="1.03457">
        <ele>150.8</ele>
        <time>2017-05-28T08:10:34.000Z</time>
      </trkpt>
      <trkpt lat="44.37698" lon="1.03449">
        <ele>150.9</ele>
        <time>2017-05-28T08:10:35.000Z</time>
      </trkpt>
      <trkpt lat="44.37699" lon="1.03441">
        <ele>150.9</ele>
        <time>2017-05-28T08:10:36.000Z</time>
      </trkpt>
      <trkpt lat="44.377" lon="1.03434">
        <ele>151</ele>
        <time>2017-05-28T08:10:37.000Z</time>
      </trkpt>
      <trkpt lat="44.37702" lon="1.03426">
        <ele>151</ele>
        <time>2017-05-28T08:10:38.000Z</time>
      </trkpt>
      <trkpt lat="44.37703" lon="1.03418">
        <ele>151.1</ele>
        <time>2017-05-28T08:10:39.000Z</time>
      </trkpt>
      <trkpt lat="44.37704" lon="1.0341">
        <ele>151.1</ele>
        <time>2017-05-28T08:10:40.000Z</time>
      </trkpt>
      <trkpt lat="44.37706" lon="1.03402">
        <ele>151.2</ele>
        <time>2017-05-28T08:10:41.000Z</time>
      </trkpt>
      <trkpt lat="44.37707" lon="1.03394">
        <ele>151.2</ele>
        <time>2017-05-28T08:10:42.000Z</time>
      </trkpt>
      <trkpt lat="44.37708" lon="1.03386">
        <ele>151.2</ele>
        <time>2017-05-28T08:10:43.000Z</time>
      </trkpt>
      <trkpt lat="44.3771" lon="1.03379">
        <ele>151.2</ele>
        <time>2017-05-28T08:10:44.000Z</time>
      </trkpt>
      <trkpt lat="44.37711" lon="1.03371">
        <ele>151.2</ele>
        <time>2017-05-28T08:10:45.000Z</time>
      </trkpt>
      <trkpt lat="44.37713" lon="1.03363">
        <ele>151.2</ele>
        <time>2017-05-28T08:10:46.000Z</time>
      </trkpt>
      <trkpt lat="44.37715" lon="1.03355">
        <ele>151.1</ele>
        <time>2017-05-28T08:10:47.000Z</time>
      </trkpt>
      <trkpt lat="44.37718" lon="1.03347">
        <ele>151.1</ele>
        <time>2017-05-28T08:10:48.000Z</time>
      </trkpt>
      <trkpt lat="44.37721" lon="1.0334">
        <ele>151</ele>
        <time>2017-05-28T08:10:49.000Z</time>
      </trkpt>
      <trkpt lat="44.37724" lon="1.03333">
        <ele>150.9</ele>
        <time>2017-05-28T08:10:50.000Z</time>
      </trkpt>
      <trkpt lat="44.37727" lon="1.03329">
        <ele>150.8</ele>
        <time>2017-05-28T08:10:51.000Z</time>
      </trkpt>
      <trkpt lat="44.3773" lon="1.03327">
        <ele>150.7</ele>
        <time>2017-05-28T08:10:52.000Z</time>
      </trkpt>
      <trkpt lat="44.37733" lon="1.03326">
        <ele>150.6</ele>
        <time>2017-05-28T08:10:53.000Z</time>
      </trkpt>
      <trkpt lat="44.37735" lon="1.03326">
        <ele>150.5</ele>
        <time>2017-05-28T08:10:54.000Z</time>
      </trkpt>
      <trkpt lat="44.37736" lon="1.03324">
        <ele>150.4</ele>
        <time>2017-05-28T08:10:55.000Z</time>
      </trkpt>
      <trkpt lat="44.37738" lon="1.03321">
        <ele>150.3</ele>
        <time>2017-05-28T08:10:56.000Z</time>
      </trkpt>
      <trkpt lat="44.37739" lon="1.03316">
        <ele>150.3</ele>
        <time>2017-05-28T08:10:57.000Z</time>
      </trkpt>
      <trkpt lat="44.3774" lon="1.03311">
        <ele>150.2</ele>
        <time>2017-05-28T08:10:58.000Z</time>
      </trkpt>
      <trkpt lat="44.37741" lon="1.03306">
        <ele>150.1</ele>
        <time>2017-05-28T08:10:59.000Z</time>
      </trkpt>
      <trkpt lat="44.37743" lon="1.03301">
        <ele>149.9</ele>
        <time>2017-05-28T08:11:00.000Z</time>
      </trkpt>
      <trkpt lat="44.37743" lon="1.03296">
        <ele>149.9</ele>
        <time>2017-05-28T08:11:01.000Z</time>
      </trkpt>
      <trkpt lat="44.37743" lon="1.03292">
        <ele>149.8</ele>
        <time>2017-05-28T08:11:02.000Z</time>
      </trkpt>
      <trkpt lat="44.37742" lon="1.03289">
        <ele>149.9</ele>
        <time>2017-05-28T08:11:03.000Z</time>
      </trkpt>
      <trkpt lat="44.37739" lon="1.03288">
        <ele>150</ele>
        <time>2017-05-28T08:11:04.000Z</time>
      </trkpt>
      <trkpt lat="44.37735" lon="1.03287">
        <ele>150.2</ele>
        <time>2017-05-28T08:11:05.000Z</time>
      </trkpt>
      <trkpt lat="44.37731" lon="1.03288">
        <ele>150.4</ele>
        <time>2017-05-28T08:11:06.000Z</time>
      </trkpt>
      <trkpt lat="44.37727" lon="1.03288">
        <ele>150.6</ele>
        <time>2017-05-28T08:11:07.000Z</time>
      </trkpt>
      <trkpt lat="44.37723" lon="1.03289">
        <ele>150.8</ele>
        <time>2017-05-28T08:11:08.000Z</time>
      </trkpt>
      <trkpt lat="44.3772" lon="1.03289">
        <ele>150.9</ele>
        <time>2017-05-28T08:11:09.000Z</time>
      </trkpt>
      <trkpt lat="44.37716" lon="1.03288">
        <ele>151.1</ele>
        <time>2017-05-28T08:11:10.000Z</time>
      </trkpt>
      <trkpt lat="44.37713" lon="1.03286">
        <ele>151.3</ele>
        <time>2017-05-28T08:11:11.000Z</time>
      </trkpt>
      <trkpt lat="44.3771" lon="1.03283">
        <ele>151.4</ele>
        <time>2017-05-28T08:11:12.000Z</time>
      </trkpt>
      <trkpt lat="44.37709" lon="1.0328">
        <ele>151.5</ele>
        <time>2017-05-28T08:11:13.000Z</time>
      </trkpt>
      <trkpt lat="44.37709" lon="1.03275">
        <ele>151.5</ele>
        <time>2017-05-28T08:11:14.000Z</time>
      </trkpt>
      <trkpt lat="44.3771" lon="1.0327">
        <ele>151.4</ele>
        <time>2017-05-28T08:11:15.000Z</time>
      </trkpt>
      <trkpt lat="44.37712" lon="1.03265">
        <ele>151.3</ele>
        <time>2017-05-28T08:11:16.000Z</time>
      </trkpt>
      <trkpt lat="44.37714" lon="1.03259">
        <ele>151.2</ele>
        <time>2017-05-28T08:11:17.000Z</time>
      </trkpt>
      <trkpt lat="44.37716" lon="1.03254">
        <ele>151.1</ele>
        <time>2017-05-28T08:11:18.000Z</time>
      </trkpt>
      <trkpt lat="44.37718" lon="1.03249">
        <ele>150.9</ele>
        <time>2017-05-28T08:11:19.000Z</time>
      </trkpt>
      <trkpt lat="44.3772" lon="1.03243">
        <ele>150.8</ele>
        <time>2017-05-28T08:11:20.000Z</time>
      </trkpt>
      <trkpt lat="44.37722" lon="1.03237">
        <ele>150.8</ele>
        <time>2017-05-28T08:11:21.000Z</time>
      </trkpt>
      <trkpt lat="44.37724" lon="1.0323">
        <ele>150.7</ele>
        <time>2017-05-28T08:11:22.000Z</time>
      </trkpt>
      <trkpt lat="44.37726" lon="1.03224">
        <ele>150.6</ele>
        <time>2017-05-28T08:11:23.000Z</time>
      </trkpt>
      <trkpt lat="44.37728" lon="1.03217">
        <ele>150.4</ele>
        <time>2017-05-28T08:11:24.000Z</time>
      </trkpt>
      <trkpt lat="44.3773" lon="1.0321">
        <ele>150.3</ele>
        <time>2017-05-28T08:11:25.000Z</time>
      </trkpt>
      <trkpt lat="44.37732" lon="1.03203">
        <ele>150.2</ele>
        <time>2017-05-28T08:11:26.000Z</time>
      </trkpt>
      <trkpt lat="44.37735" lon="1.03196">
        <ele>150.1</ele>
        <time>2017-05-28T08:11:27.000Z</time>
      </trkpt>
      <trkpt lat="44.37737" lon="1.03189">
        <ele>149.9</ele>
        <time>2017-05-28T08:11:28.000Z</time>
      </trkpt>
      <trkpt lat="44.37739" lon="1.03182">
        <ele>149.8</ele>
        <time>2017-05-28T08:11:29.000Z</time>
      </trkpt>
      <trkpt lat="44.37741" lon="1.03176">
        <ele>149.6</ele>
        <time>2017-05-28T08:11:30.000Z</time>
      </trkpt>
      <trkpt lat="44.37744" lon="1.0317">
        <ele>149.5</ele>
        <time>2017-05-28T08:11:31.000Z</time>
      </trkpt>
      <trkpt lat="44.37746" lon="1.03163">
        <ele>149.4</ele>
        <time>2017-05-28T08:11:32.000Z</time>
      </trkpt>
      <trkpt lat="44.37748" lon="1.03158">
        <ele>149.3</ele>
        <time>2017-05-28T08:11:33.000Z</time>
      </trkpt>
      <trkpt lat="44.3775" lon="1.03152">
        <ele>149.2</ele>
        <time>2017-05-28T08:11:34.000Z</time>
      </trkpt>
      <trkpt lat="44.37752" lon="1.03146">
        <ele>149.2</ele>
        <time>2017-05-28T08:11:35.000Z</time>
      </trkpt>
      <trkpt lat="44.37755" lon="1.03141">
        <ele>149.1</ele>
        <time>2017-05-28T08:11:36.000Z</time>
      </trkpt>
      <trkpt lat="44.37758" lon="1.03136">
        <ele>149.1</ele>
        <time>2017-05-28T08:11:37.000Z</time>
      </trkpt>
      <trkpt lat="44.37761" lon="1.0313">
        <ele>149</ele>
        <time>2017-05-28T08:11:38.000Z</time>
      </trkpt>
      <trkpt lat="44.37764" lon="1.03125">
        <ele>148.9</ele>
        <time>2017-05-28T08:11:39.000Z</time>
      </trkpt>
      <trkpt lat="44.37768" lon="1.03119">
        <ele>148.8</ele>
        <time>2017-05-28T08:11:40.000Z</time>
      </trkpt>
      <trkpt lat="44.3777" lon="1.03112">
        <ele>148.8</ele>
        <time>2017-05-28T08:11:41.000Z</time>
      </trkpt>
      <trkpt lat="44.37773" lon="1.03105">
        <ele>148.7</ele>
        <time>2017-05-28T08:11:42.000Z</time>
      </trkpt>
      <trkpt lat="44.37775" lon="1.03097">
        <ele>148.7</ele>
        <time>2017-05-28T08:11:43.000Z</time>
      </trkpt>
      <trkpt lat="44.37776" lon="1.03088">
        <ele>148.7</ele>
        <time>2017-05-28T08:11:44.000Z</time>
      </trkpt>
      <trkpt lat="44.37778" lon="1.0308">
        <ele>148.7</ele>
        <time>2017-05-28T08:11:45.000Z</time>
      </trkpt>
      <trkpt lat="44.37779" lon="1.03072">
        <ele>148.8</ele>
        <time>2017-05-28T08:11:46.000Z</time>
      </trkpt>
      <trkpt lat="44.3778" lon="1.03064">
        <ele>148.9</ele>
        <time>2017-05-28T08:11:47.000Z</time>
      </trkpt>
      <trkpt lat="44.37782" lon="1.03056">
        <ele>149</ele>
        <time>2017-05-28T08:11:48.000Z</time>
      </trkpt>
      <trkpt lat="44.37783" lon="1.03048">
        <ele>149.1</ele>
        <time>2017-05-28T08:11:49.000Z</time>
      </trkpt>
      <trkpt lat="44.37784" lon="1.0304">
        <ele>149.2</ele>
        <time>2017-05-28T08:11:50.000Z</time>
      </trkpt>
      <trkpt lat="44.37785" lon="1.03032">
        <ele>149.3</ele>
        <time>2017-05-28T08:11:51.000Z</time>
      </trkpt>
      <trkpt lat="44.37786" lon="1.03024">
        <ele>149.4</ele>
        <time>2017-05-28T08:11:52.000Z</time>
      </trkpt>
      <trkpt lat="44.37787" lon="1.03017">
        <ele>149.5</ele>
        <time>2017-05-28T08:11:53.000Z</time>
      </trkpt>
      <trkpt lat="44.37788" lon="1.03009">
        <ele>149.5</ele>
        <time>2017-05-28T08:11:54.000Z</time>
      </trkpt>
      <trkpt lat="44.37789" lon="1.03001">
        <ele>149.6</ele>
        <time>2017-05-28T08:11:55.000Z</time>
      </trkpt>
      <trkpt lat="44.37791" lon="1.02994">
        <ele>149.6</ele>
        <time>2017-05-28T08:11:56.000Z</time>
      </trkpt>
      <trkpt lat="44.37792" lon="1.02987">
        <ele>149.6</ele>
        <time>2017-05-28T08:11:57.000Z</time>
      </trkpt>
      <trkpt lat="44.37794" lon="1.0298">
        <ele>149.5</ele>
        <time>2017-05-28T08:11:58.000Z</time>
      </trkpt>
      <trkpt lat="44.37796" lon="1.02974">
        <ele>149.4</ele>
        <time>2017-05-28T08:11:59.000Z</time>
      </trkpt>
      <trkpt lat="44.37797" lon="1.02967">
        <ele>149.3</ele>
        <time>2017-05-28T08:12:00.000Z</time>
      </trkpt>
      <trkpt lat="44.37799" lon="1.02961">
        <ele>149.2</ele>
        <time>2017-05-28T08:12:01.000Z</time>
      </trkpt>
      <trkpt lat="44.37801" lon="1.02954">
        <ele>149.2</ele>
        <time>2017-05-28T08:12:02.000Z</time>
      </trkpt>
      <trkpt lat="44.37802" lon="1.02947">
        <ele>149.1</ele>
        <time>2017-05-28T08:12:03.000Z</time>
      </trkpt>
      <trkpt lat="44.37802" lon="1.0294">
        <ele>149.1</ele>
        <time>2017-05-28T08:12:04.000Z</time>
      </trkpt>
      <trkpt lat="44.37803" lon="1.02933">
        <ele>149.1</ele>
        <time>2017-05-28T08:12:05.000Z</time>
      </trkpt>
      <trkpt lat="44.37803" lon="1.02926">
        <ele>149.1</ele>
        <time>2017-05-28T08:12:06.000Z</time>
      </trkpt>
      <trkpt lat="44.37804" lon="1.02919">
        <ele>149.1</ele>
        <time>2017-05-28T08:12:07.000Z</time>
      </trkpt>
      <trkpt lat="44.37804" lon="1.02912">
        <ele>149.1</ele>
        <time>2017-05-28T08:12:08.000Z</time>
      </trkpt>
      <trkpt lat="44.37805" lon="1.02905">
        <ele>149</ele>
        <time>2017-05-28T08:12:09.000Z</time>
      </trkpt>
      <trkpt lat="44.37805" lon="1.02897">
        <ele>148.9</ele>
        <time>2017-05-28T08:12:10.000Z</time>
      </trkpt>
      <trkpt lat="44.37806" lon="1.0289">
        <ele>148.8</ele>
        <time>2017-05-28T08:12:11.000Z</time>
      </trkpt>
      <trkpt lat="44.37807" lon="1.02883">
        <ele>148.6</ele>
        <time>2017-05-28T08:12:12.000Z</time>
      </trkpt>
      <trkpt lat="44.37808" lon="1.02875">
        <ele>148.5</ele>
        <time>2017-05-28T08:12:13.000Z</time>
      </trkpt>
      <trkpt lat="44.3781" lon="1.02868">
        <ele>148.3</ele>
        <time>2017-05-28T08:12:14.000Z</time>
      </trkpt>
      <trkpt lat="44.37811" lon="1.0286">
        <ele>148.1</ele>
        <time>2017-05-28T08:12:15.000Z</time>
      </trkpt>
      <trkpt lat="44.37813" lon="1.02853">
        <ele>147.9</ele>
        <time>2017-05-28T08:12:16.000Z</time>
      </trkpt>
      <trkpt lat="44.37814" lon="1.02845">
        <ele>147.7</ele>
        <time>2017-05-28T08:12:17.000Z</time>
      </trkpt>
      <trkpt lat="44.37816" lon="1.02837">
        <ele>147.5</ele>
        <time>2017-05-28T08:12:18.000Z</time>
      </trkpt>
      <trkpt lat="44.37817" lon="1.0283">
        <ele>147.3</ele>
        <time>2017-05-28T08:12:19.000Z</time>
      </trkpt>
      <trkpt lat="44.37819" lon="1.02822">
        <ele>147.2</ele>
        <time>2017-05-28T08:12:20.000Z</time>
      </trkpt>
      <trkpt lat="44.3782" lon="1.02815">
        <ele>147.1</ele>
        <time>2017-05-28T08:12:21.000Z</time>
      </trkpt>
      <trkpt lat="44.37821" lon="1.02807">
        <ele>147</ele>
        <time>2017-05-28T08:12:22.000Z</time>
      </trkpt>
      <trkpt lat="44.37821" lon="1.028">
        <ele>147</ele>
        <time>2017-05-28T08:12:23.000Z</time>
      </trkpt>
      <trkpt lat="44.37822" lon="1.02792">
        <ele>146.9</ele>
        <time>2017-05-28T08:12:24.000Z</time>
      </trkpt>
      <trkpt lat="44.37823" lon="1.02784">
        <ele>146.8</ele>
        <time>2017-05-28T08:12:25.000Z</time>
      </trkpt>
      <trkpt lat="44.37823" lon="1.02776">
        <ele>146.8</ele>
        <time>2017-05-28T08:12:26.000Z</time>
      </trkpt>
      <trkpt lat="44.37823" lon="1.02769">
        <ele>146.8</ele>
        <time>2017-05-28T08:12:27.000Z</time>
      </trkpt>
      <trkpt lat="44.37823" lon="1.02761">
        <ele>146.7</ele>
        <time>2017-05-28T08:12:28.000Z</time>
      </trkpt>
      <trkpt lat="44.37823" lon="1.02753">
        <ele>146.7</ele>
        <time>2017-05-28T08:12:29.000Z</time>
      </trkpt>
      <trkpt lat="44.37823" lon="1.02745">
        <ele>146.8</ele>
        <time>2017-05-28T08:12:30.000Z</time>
      </trkpt>
      <trkpt lat="44.37823" lon="1.02737">
        <ele>146.8</ele>
        <time>2017-05-28T08:12:31.000Z</time>
      </trkpt>
      <trkpt lat="44.37824" lon="1.02729">
        <ele>146.9</ele>
        <time>2017-05-28T08:12:32.000Z</time>
      </trkpt>
      <trkpt lat="44.37824" lon="1.02721">
        <ele>146.9</ele>
        <time>2017-05-28T08:12:33.000Z</time>
      </trkpt>
      <trkpt lat="44.37824" lon="1.02714">
        <ele>147</ele>
        <time>2017-05-28T08:12:34.000Z</time>
      </trkpt>
      <trkpt lat="44.37825" lon="1.02706">
        <ele>147</ele>
        <time>2017-05-28T08:12:35.000Z</time>
      </trkpt>
      <trkpt lat="44.37825" lon="1.02699">
        <ele>147.1</ele>
        <time>2017-05-28T08:12:36.000Z</time>
      </trkpt>
      <trkpt lat="44.37826" lon="1.02692">
        <ele>147.1</ele>
        <time>2017-05-28T08:12:37.000Z</time>
      </trkpt>
      <trkpt lat="44.37826" lon="1.02685">
        <ele>147.2</ele>
        <time>2017-05-28T08:12:38.000Z</time>
      </trkpt>
      <trkpt lat="44.37825" lon="1.02679">
        <ele>147.3</ele>
        <time>2017-05-28T08:12:39.000Z</time>
      </trkpt>
      <trkpt lat="44.37824" lon="1.02675">
        <ele>147.4</ele>
        <time>2017-05-28T08:12:40.000Z</time>
      </trkpt>
      <trkpt lat="44.37823" lon="1.02671">
        <ele>147.5</ele>
        <time>2017-05-28T08:12:41.000Z</time>
      </trkpt>
      <trkpt lat="44.37822" lon="1.02667">
        <ele>147.5</ele>
        <time>2017-05-28T08:12:42.000Z</time>
      </trkpt>
      <trkpt lat="44.37822" lon="1.02661">
        <ele>147.6</ele>
        <time>2017-05-28T08:12:43.000Z</time>
      </trkpt>
      <trkpt lat="44.37822" lon="1.02656">
        <ele>147.5</ele>
        <time>2017-05-28T08:12:44.000Z</time>
      </trkpt>
      <trkpt lat="44.37823" lon="1.02651">
        <ele>147.5</ele>
        <time>2017-05-28T08:12:45.000Z</time>
      </trkpt>
      <trkpt lat="44.37825" lon="1.02645">
        <ele>147.4</ele>
        <time>2017-05-28T08:12:46.000Z</time>
      </trkpt>
      <trkpt lat="44.37827" lon="1.0264">
        <ele>147.3</ele>
        <time>2017-05-28T08:12:47.000Z</time>
      </trkpt>
      <trkpt lat="44.37829" lon="1.02634">
        <ele>147.2</ele>
        <time>2017-05-28T08:12:48.000Z</time>
      </trkpt>
      <trkpt lat="44.3783" lon="1.02628">
        <ele>147.2</ele>
        <time>2017-05-28T08:12:49.000Z</time>
      </trkpt>
      <trkpt lat="44.3783" lon="1.02622">
        <ele>147.1</ele>
        <time>2017-05-28T08:12:50.000Z</time>
      </trkpt>
      <trkpt lat="44.3783" lon="1.02615">
        <ele>147.1</ele>
        <time>2017-05-28T08:12:51.000Z</time>
      </trkpt>
      <trkpt lat="44.3783" lon="1.02608">
        <ele>147.1</ele>
        <time>2017-05-28T08:12:52.000Z</time>
      </trkpt>
      <trkpt lat="44.3783" lon="1.02601">
        <ele>147.1</ele>
        <time>2017-05-28T08:12:53.000Z</time>
      </trkpt>
      <trkpt lat="44.3783" lon="1.02594">
        <ele>147.1</ele>
        <time>2017-05-28T08:12:54.000Z</time>
      </trkpt>
      <trkpt lat="44.37831" lon="1.02587">
        <ele>147.1</ele>
        <time>2017-05-28T08:12:55.000Z</time>
      </trkpt>
      <trkpt lat="44.37832" lon="1.02579">
        <ele>147.2</ele>
        <time>2017-05-28T08:12:56.000Z</time>
      </trkpt>
      <trkpt lat="44.37833" lon="1.02572">
        <ele>147.3</ele>
        <time>2017-05-28T08:12:57.000Z</time>
      </trkpt>
      <trkpt lat="44.37834" lon="1.02565">
        <ele>147.4</ele>
        <time>2017-05-28T08:12:58.000Z</time>
      </trkpt>
      <trkpt lat="44.37834" lon="1.02559">
        <ele>147.5</ele>
        <time>2017-05-28T08:12:59.000Z</time>
      </trkpt>
      <trkpt lat="44.37835" lon="1.02552">
        <ele>147.6</ele>
        <time>2017-05-28T08:13:00.000Z</time>
      </trkpt>
      <trkpt lat="44.37836" lon="1.02546">
        <ele>147.7</ele>
        <time>2017-05-28T08:13:01.000Z</time>
      </trkpt>
      <trkpt lat="44.37837" lon="1.02539">
        <ele>147.8</ele>
        <time>2017-05-28T08:13:02.000Z</time>
      </trkpt>
      <trkpt lat="44.37838" lon="1.02532">
        <ele>147.9</ele>
        <time>2017-05-28T08:13:03.000Z</time>
      </trkpt>
      <trkpt lat="44.37839" lon="1.02525">
        <ele>148.1</ele>
        <time>2017-05-28T08:13:04.000Z</time>
      </trkpt>
      <trkpt lat="44.37839" lon="1.02517">
        <ele>148.2</ele>
        <time>2017-05-28T08:13:05.000Z</time>
      </trkpt>
      <trkpt lat="44.37839" lon="1.02511">
        <ele>148.4</ele>
        <time>2017-05-28T08:13:06.000Z</time>
      </trkpt>
      <trkpt lat="44.37839" lon="1.02505">
        <ele>148.5</ele>
        <time>2017-05-28T08:13:07.000Z</time>
      </trkpt>
      <trkpt lat="44.37839" lon="1.025">
        <ele>148.6</ele>
        <time>2017-05-28T08:13:08.000Z</time>
      </trkpt>
      <trkpt lat="44.3784" lon="1.02494">
        <ele>148.6</ele>
        <time>2017-05-28T08:13:09.000Z</time>
      </trkpt>
      <trkpt lat="44.3784" lon="1.02489">
        <ele>148.5</ele>
        <time>2017-05-28T08:13:10.000Z</time>
      </trkpt>
      <trkpt lat="44.3784" lon="1.02484">
        <ele>148.5</ele>
        <time>2017-05-28T08:13:11.000Z</time>
      </trkpt>
      <trkpt lat="44.3784" lon="1.02478">
        <ele>148.5</ele>
        <time>2017-05-28T08:13:12.000Z</time>
      </trkpt>
      <trkpt lat="44.3784" lon="1.02472">
        <ele>148.5</ele>
        <time>2017-05-28T08:13:13.000Z</time>
      </trkpt>
      <trkpt lat="44.3784" lon="1.02467">
        <ele>148.5</ele>
        <time>2017-05-28T08:13:14.000Z</time>
      </trkpt>
      <trkpt lat="44.3784" lon="1.02461">
        <ele>148.5</ele>
        <time>2017-05-28T08:13:15.000Z</time>
      </trkpt>
      <trkpt lat="44.3784" lon="1.02454">
        <ele>148.5</ele>
        <time>2017-05-28T08:13:16.000Z</time>
      </trkpt>
      <trkpt lat="44.37841" lon="1.02448">
        <ele>148.4</ele>
        <time>2017-05-28T08:13:17.000Z</time>
      </trkpt>
      <trkpt lat="44.37841" lon="1.02441">
        <ele>148.4</ele>
        <time>2017-05-28T08:13:18.000Z</time>
      </trkpt>
      <trkpt lat="44.37841" lon="1.02434">
        <ele>148.4</ele>
        <time>2017-05-28T08:13:19.000Z</time>
      </trkpt>
      <trkpt lat="44.37842" lon="1.02427">
        <ele>148.3</ele>
        <time>2017-05-28T08:13:20.000Z</time>
      </trkpt>
      <trkpt lat="44.37843" lon="1.02421">
        <ele>148.2</ele>
        <time>2017-05-28T08:13:21.000Z</time>
      </trkpt>
      <trkpt lat="44.37843" lon="1.02414">
        <ele>148.3</ele>
        <time>2017-05-28T08:13:22.000Z</time>
      </trkpt>
      <trkpt lat="44.37844" lon="1.02407">
        <ele>148.5</ele>
        <time>2017-05-28T08:13:23.000Z</time>
      </trkpt>
      <trkpt lat="44.37846" lon="1.02401">
        <ele>148.7</ele>
        <time>2017-05-28T08:13:24.000Z</time>
      </trkpt>
      <trkpt lat="44.37847" lon="1.02394">
        <ele>148.9</ele>
        <time>2017-05-28T08:13:25.000Z</time>
      </trkpt>
      <trkpt lat="44.37848" lon="1.02388">
        <ele>149</ele>
        <time>2017-05-28T08:13:26.000Z</time>
      </trkpt>
      <trkpt lat="44.3785" lon="1.02381">
        <ele>149.1</ele>
        <time>2017-05-28T08:13:27.000Z</time>
      </trkpt>
      <trkpt lat="44.37852" lon="1.02375">
        <ele>149.2</ele>
        <time>2017-05-28T08:13:28.000Z</time>
      </trkpt>
      <trkpt lat="44.37854" lon="1.0237">
        <ele>149.2</ele>
        <time>2017-05-28T08:13:29.000Z</time>
      </trkpt>
      <trkpt lat="44.37858" lon="1.02367">
        <ele>149</ele>
        <time>2017-05-28T08:13:30.000Z</time>
      </trkpt>
      <trkpt lat="44.37862" lon="1.02366">
        <ele>148.6</ele>
        <time>2017-05-28T08:13:31.000Z</time>
      </trkpt>
      <trkpt lat="44.37868" lon="1.02369">
        <ele>147.9</ele>
        <time>2017-05-28T08:13:32.000Z</time>
      </trkpt>
      <trkpt lat="44.37873" lon="1.02374">
        <ele>147.2</ele>
        <time>2017-05-28T08:13:33.000Z</time>
      </trkpt>
      <trkpt lat="44.3788" lon="1.02379">
        <ele>146.4</ele>
        <time>2017-05-28T08:13:34.000Z</time>
      </trkpt>
      <trkpt lat="44.37886" lon="1.02384">
        <ele>145.7</ele>
        <time>2017-05-28T08:13:35.000Z</time>
      </trkpt>
      <trkpt lat="44.37892" lon="1.02388">
        <ele>144.9</ele>
        <time>2017-05-28T08:13:36.000Z</time>
      </trkpt>
      <trkpt lat="44.37899" lon="1.02393">
        <ele>144.2</ele>
        <time>2017-05-28T08:13:37.000Z</time>
      </trkpt>
      <trkpt lat="44.37905" lon="1.02397">
        <ele>143.5</ele>
        <time>2017-05-28T08:13:38.000Z</time>
      </trkpt>
      <trkpt lat="44.37911" lon="1.02403">
        <ele>142.8</ele>
        <time>2017-05-28T08:13:39.000Z</time>
      </trkpt>
      <trkpt lat="44.37917" lon="1.02408">
        <ele>142.2</ele>
        <time>2017-05-28T08:13:40.000Z</time>
      </trkpt>
      <trkpt lat="44.37923" lon="1.02413">
        <ele>142</ele>
        <time>2017-05-28T08:13:41.000Z</time>
      </trkpt>
      <trkpt lat="44.37929" lon="1.02417">
        <ele>141.9</ele>
        <time>2017-05-28T08:13:42.000Z</time>
      </trkpt>
      <trkpt lat="44.37935" lon="1.02421">
        <ele>141.9</ele>
        <time>2017-05-28T08:13:43.000Z</time>
      </trkpt>
      <trkpt lat="44.37941" lon="1.02426">
        <ele>141.9</ele>
        <time>2017-05-28T08:13:44.000Z</time>
      </trkpt>
      <trkpt lat="44.37946" lon="1.0243">
        <ele>141.9</ele>
        <time>2017-05-28T08:13:45.000Z</time>
      </trkpt>
      <trkpt lat="44.37951" lon="1.02434">
        <ele>141.9</ele>
        <time>2017-05-28T08:13:46.000Z</time>
      </trkpt>
      <trkpt lat="44.37957" lon="1.02438">
        <ele>141.9</ele>
        <time>2017-05-28T08:13:47.000Z</time>
      </trkpt>
      <trkpt lat="44.37962" lon="1.02442">
        <ele>141.9</ele>
        <time>2017-05-28T08:13:48.000Z</time>
      </trkpt>
      <trkpt lat="44.37967" lon="1.02446">
        <ele>142</ele>
        <time>2017-05-28T08:13:49.000Z</time>
      </trkpt>
      <trkpt lat="44.37972" lon="1.0245">
        <ele>142</ele>
        <time>2017-05-28T08:13:50.000Z</time>
      </trkpt>
      <trkpt lat="44.37977" lon="1.02454">
        <ele>142</ele>
        <time>2017-05-28T08:13:51.000Z</time>
      </trkpt>
      <trkpt lat="44.37982" lon="1.02457">
        <ele>142.1</ele>
        <time>2017-05-28T08:13:52.000Z</time>
      </trkpt>
      <trkpt lat="44.37987" lon="1.02461">
        <ele>142.1</ele>
        <time>2017-05-28T08:13:53.000Z</time>
      </trkpt>
      <trkpt lat="44.37992" lon="1.02465">
        <ele>142.2</ele>
        <time>2017-05-28T08:13:54.000Z</time>
      </trkpt>
      <trkpt lat="44.37997" lon="1.02469">
        <ele>142.3</ele>
        <time>2017-05-28T08:13:55.000Z</time>
      </trkpt>
      <trkpt lat="44.38001" lon="1.02473">
        <ele>142.3</ele>
        <time>2017-05-28T08:13:56.000Z</time>
      </trkpt>
      <trkpt lat="44.38006" lon="1.02476">
        <ele>142.4</ele>
        <time>2017-05-28T08:13:57.000Z</time>
      </trkpt>
      <trkpt lat="44.38011" lon="1.02478">
        <ele>142.4</ele>
        <time>2017-05-28T08:13:58.000Z</time>
      </trkpt>
      <trkpt lat="44.38015" lon="1.02477">
        <ele>142.4</ele>
        <time>2017-05-28T08:13:59.000Z</time>
      </trkpt>
      <trkpt lat="44.3802" lon="1.02475">
        <ele>142.3</ele>
        <time>2017-05-28T08:14:00.000Z</time>
      </trkpt>
      <trkpt lat="44.38024" lon="1.0247">
        <ele>142.2</ele>
        <time>2017-05-28T08:14:01.000Z</time>
      </trkpt>
      <trkpt lat="44.38027" lon="1.02465">
        <ele>142.1</ele>
        <time>2017-05-28T08:14:02.000Z</time>
      </trkpt>
      <trkpt lat="44.38031" lon="1.02459">
        <ele>142</ele>
        <time>2017-05-28T08:14:03.000Z</time>
      </trkpt>
      <trkpt lat="44.38033" lon="1.02452">
        <ele>141.9</ele>
        <time>2017-05-28T08:14:04.000Z</time>
      </trkpt>
      <trkpt lat="44.38036" lon="1.02445">
        <ele>141.8</ele>
        <time>2017-05-28T08:14:05.000Z</time>
      </trkpt>
      <trkpt lat="44.38039" lon="1.02438">
        <ele>141.7</ele>
        <time>2017-05-28T08:14:06.000Z</time>
      </trkpt>
      <trkpt lat="44.38042" lon="1.02431">
        <ele>141.7</ele>
        <time>2017-05-28T08:14:07.000Z</time>
      </trkpt>
      <trkpt lat="44.38045" lon="1.02424">
        <ele>141.6</ele>
        <time>2017-05-28T08:14:08.000Z</time>
      </trkpt>
      <trkpt lat="44.38048" lon="1.02417">
        <ele>141.6</ele>
        <time>2017-05-28T08:14:09.000Z</time>
      </trkpt>
      <trkpt lat="44.38051" lon="1.0241">
        <ele>141.6</ele>
        <time>2017-05-28T08:14:10.000Z</time>
      </trkpt>
      <trkpt lat="44.38055" lon="1.02403">
        <ele>141.7</ele>
        <time>2017-05-28T08:14:11.000Z</time>
      </trkpt>
      <trkpt lat="44.38058" lon="1.02395">
        <ele>141.8</ele>
        <time>2017-05-28T08:14:12.000Z</time>
      </trkpt>
      <trkpt lat="44.38061" lon="1.02388">
        <ele>141.8</ele>
        <time>2017-05-28T08:14:13.000Z</time>
      </trkpt>
      <trkpt lat="44.38064" lon="1.02381">
        <ele>141.9</ele>
        <time>2017-05-28T08:14:14.000Z</time>
      </trkpt>
      <trkpt lat="44.38067" lon="1.02373">
        <ele>141.9</ele>
        <time>2017-05-28T08:14:15.000Z</time>
      </trkpt>
      <trkpt lat="44.3807" lon="1.02366">
        <ele>141.9</ele>
        <time>2017-05-28T08:14:16.000Z</time>
      </trkpt>
      <trkpt lat="44.38073" lon="1.02359">
        <ele>142</ele>
        <time>2017-05-28T08:14:17.000Z</time>
      </trkpt>
      <trkpt lat="44.38076" lon="1.02352">
        <ele>142</ele>
        <time>2017-05-28T08:14:18.000Z</time>
      </trkpt>
      <trkpt lat="44.38079" lon="1.02345">
        <ele>142</ele>
        <time>2017-05-28T08:14:19.000Z</time>
      </trkpt>
      <trkpt lat="44.38082" lon="1.02338">
        <ele>142</ele>
        <time>2017-05-28T08:14:20.000Z</time>
      </trkpt>
      <trkpt lat="44.38085" lon="1.02331">
        <ele>142</ele>
        <time>2017-05-28T08:14:21.000Z</time>
      </trkpt>
      <trkpt lat="44.38088" lon="1.02325">
        <ele>142</ele>
        <time>2017-05-28T08:14:22.000Z</time>
      </trkpt>
      <trkpt lat="44.38091" lon="1.02318">
        <ele>142</ele>
        <time>2017-05-28T08:14:23.000Z</time>
      </trkpt>
      <trkpt lat="44.38094" lon="1.02311">
        <ele>142</ele>
        <time>2017-05-28T08:14:24.000Z</time>
      </trkpt>
      <trkpt lat="44.38097" lon="1.02304">
        <ele>141.9</ele>
        <time>2017-05-28T08:14:25.000Z</time>
      </trkpt>
      <trkpt lat="44.381" lon="1.02298">
        <ele>141.9</ele>
        <time>2017-05-28T08:14:26.000Z</time>
      </trkpt>
      <trkpt lat="44.38103" lon="1.02291">
        <ele>141.9</ele>
        <time>2017-05-28T08:14:27.000Z</time>
      </trkpt>
      <trkpt lat="44.38106" lon="1.02285">
        <ele>141.8</ele>
        <time>2017-05-28T08:14:28.000Z</time>
      </trkpt>
      <trkpt lat="44.38108" lon="1.02278">
        <ele>141.8</ele>
        <time>2017-05-28T08:14:29.000Z</time>
      </trkpt>
      <trkpt lat="44.3811" lon="1.02271">
        <ele>141.8</ele>
        <time>2017-05-28T08:14:30.000Z</time>
      </trkpt>
      <trkpt lat="44.38112" lon="1.02264">
        <ele>141.7</ele>
        <time>2017-05-28T08:14:31.000Z</time>
      </trkpt>
      <trkpt lat="44.38114" lon="1.02256">
        <ele>141.7</ele>
        <time>2017-05-28T08:14:32.000Z</time>
      </trkpt>
      <trkpt lat="44.38115" lon="1.02248">
        <ele>141.6</ele>
        <time>2017-05-28T08:14:33.000Z</time>
      </trkpt>
      <trkpt lat="44.38117" lon="1.02241">
        <ele>141.5</ele>
        <time>2017-05-28T08:14:34.000Z</time>
      </trkpt>
      <trkpt lat="44.38119" lon="1.02233">
        <ele>141.4</ele>
        <time>2017-05-28T08:14:35.000Z</time>
      </trkpt>
      <trkpt lat="44.38121" lon="1.02225">
        <ele>141.2</ele>
        <time>2017-05-28T08:14:36.000Z</time>
      </trkpt>
      <trkpt lat="44.38124" lon="1.02217">
        <ele>141.1</ele>
        <time>2017-05-28T08:14:37.000Z</time>
      </trkpt>
      <trkpt lat="44.38126" lon="1.0221">
        <ele>141</ele>
        <time>2017-05-28T08:14:38.000Z</time>
      </trkpt>
      <trkpt lat="44.38129" lon="1.02202">
        <ele>140.9</ele>
        <time>2017-05-28T08:14:39.000Z</time>
      </trkpt>
      <trkpt lat="44.38132" lon="1.02195">
        <ele>140.8</ele>
        <time>2017-05-28T08:14:40.000Z</time>
      </trkpt>
      <trkpt lat="44.38135" lon="1.02187">
        <ele>140.6</ele>
        <time>2017-05-28T08:14:41.000Z</time>
      </trkpt>
      <trkpt lat="44.38137" lon="1.0218">
        <ele>140.5</ele>
        <time>2017-05-28T08:14:42.000Z</time>
      </trkpt>
      <trkpt lat="44.3814" lon="1.02173">
        <ele>140.4</ele>
        <time>2017-05-28T08:14:43.000Z</time>
      </trkpt>
      <trkpt lat="44.38143" lon="1.02166">
        <ele>140.3</ele>
        <time>2017-05-28T08:14:44.000Z</time>
      </trkpt>
      <trkpt lat="44.38146" lon="1.02159">
        <ele>140.2</ele>
        <time>2017-05-28T08:14:45.000Z</time>
      </trkpt>
      <trkpt lat="44.38149" lon="1.02152">
        <ele>140.1</ele>
        <time>2017-05-28T08:14:46.000Z</time>
      </trkpt>
      <trkpt lat="44.38151" lon="1.02145">
        <ele>140.1</ele>
        <time>2017-05-28T08:14:47.000Z</time>
      </trkpt>
      <trkpt lat="44.38153" lon="1.02138">
        <ele>140.1</ele>
        <time>2017-05-28T08:14:48.000Z</time>
      </trkpt>
      <trkpt lat="44.38156" lon="1.02131">
        <ele>140</ele>
        <time>2017-05-28T08:14:49.000Z</time>
      </trkpt>
      <trkpt lat="44.38158" lon="1.02125">
        <ele>140</ele>
        <time>2017-05-28T08:14:50.000Z</time>
      </trkpt>
      <trkpt lat="44.3816" lon="1.02118">
        <ele>140</ele>
        <time>2017-05-28T08:14:51.000Z</time>
      </trkpt>
      <trkpt lat="44.38162" lon="1.02112">
        <ele>140</ele>
        <time>2017-05-28T08:14:52.000Z</time>
      </trkpt>
      <trkpt lat="44.38165" lon="1.02105">
        <ele>140</ele>
        <time>2017-05-28T08:14:53.000Z</time>
      </trkpt>
      <trkpt lat="44.38168" lon="1.02099">
        <ele>140</ele>
        <time>2017-05-28T08:14:54.000Z</time>
      </trkpt>
      <trkpt lat="44.3817" lon="1.02093">
        <ele>140.1</ele>
        <time>2017-05-28T08:14:55.000Z</time>
      </trkpt>
      <trkpt lat="44.38173" lon="1.02086">
        <ele>140.1</ele>
        <time>2017-05-28T08:14:56.000Z</time>
      </trkpt>
      <trkpt lat="44.38175" lon="1.02079">
        <ele>140.1</ele>
        <time>2017-05-28T08:14:57.000Z</time>
      </trkpt>
      <trkpt lat="44.38177" lon="1.02073">
        <ele>140.1</ele>
        <time>2017-05-28T08:14:58.000Z</time>
      </trkpt>
      <trkpt lat="44.3818" lon="1.02066">
        <ele>140.1</ele>
        <time>2017-05-28T08:14:59.000Z</time>
      </trkpt>
      <trkpt lat="44.38183" lon="1.0206">
        <ele>140.1</ele>
        <time>2017-05-28T08:15:00.000Z</time>
      </trkpt>
      <trkpt lat="44.38186" lon="1.02055">
        <ele>140.1</ele>
        <time>2017-05-28T08:15:01.000Z</time>
      </trkpt>
      <trkpt lat="44.38189" lon="1.02052">
        <ele>140.2</ele>
        <time>2017-05-28T08:15:02.000Z</time>
      </trkpt>
      <trkpt lat="44.38192" lon="1.0205">
        <ele>140.2</ele>
        <time>2017-05-28T08:15:03.000Z</time>
      </trkpt>
      <trkpt lat="44.38194" lon="1.02049">
        <ele>140.2</ele>
        <time>2017-05-28T08:15:04.000Z</time>
      </trkpt>
      <trkpt lat="44.38193" lon="1.02046">
        <ele>140.2</ele>
        <time>2017-05-28T08:15:05.000Z</time>
      </trkpt>
      <trkpt lat="44.38192" lon="1.02044">
        <ele>140.1</ele>
        <time>2017-05-28T08:15:06.000Z</time>
      </trkpt>
      <trkpt lat="44.3819" lon="1.02044">
        <ele>140.1</ele>
        <time>2017-05-28T08:15:07.000Z</time>
      </trkpt>
      <trkpt lat="44.38188" lon="1.02046">
        <ele>140.1</ele>
        <time>2017-05-28T08:15:08.000Z</time>
      </trkpt>
      <trkpt lat="44.38187" lon="1.02049">
        <ele>140.1</ele>
        <time>2017-05-28T08:15:09.000Z</time>
      </trkpt>
      <trkpt lat="44.38186" lon="1.02052">
        <ele>140.1</ele>
        <time>2017-05-28T08:15:10.000Z</time>
      </trkpt>
      <trkpt lat="44.38185" lon="1.02056">
        <ele>140.1</ele>
        <time>2017-05-28T08:15:11.000Z</time>
      </trkpt>
      <trkpt lat="44.38184" lon="1.0206">
        <ele>140.1</ele>
        <time>2017-05-28T08:15:12.000Z</time>
      </trkpt>
      <trkpt lat="44.38183" lon="1.02063">
        <ele>140.2</ele>
        <time>2017-05-28T08:15:13.000Z</time>
      </trkpt>
      <trkpt lat="44.38182" lon="1.02067">
        <ele>140.2</ele>
        <time>2017-05-28T08:15:14.000Z</time>
      </trkpt>
      <trkpt lat="44.38181" lon="1.0207">
        <ele>140.2</ele>
        <time>2017-05-28T08:15:15.000Z</time>
      </trkpt>
      <trkpt lat="44.3818" lon="1.02073">
        <ele>140.2</ele>
        <time>2017-05-28T08:15:16.000Z</time>
      </trkpt>
      <trkpt lat="44.38178" lon="1.02076">
        <ele>140.2</ele>
        <time>2017-05-28T08:15:17.000Z</time>
      </trkpt>
      <trkpt lat="44.38177" lon="1.02079">
        <ele>140.2</ele>
        <time>2017-05-28T08:15:18.000Z</time>
      </trkpt>
      <trkpt lat="44.38175" lon="1.02082">
        <ele>140.2</ele>
        <time>2017-05-28T08:15:19.000Z</time>
      </trkpt>
      <trkpt lat="44.38174" lon="1.02082">
        <ele>140.2</ele>
        <time>2017-05-28T08:15:20.000Z</time>
      </trkpt>
      <trkpt lat="44.38173" lon="1.02082">
        <ele>140.1</ele>
        <time>2017-05-28T08:15:21.000Z</time>
      </trkpt>
      <trkpt lat="44.38173" lon="1.0208">
        <ele>140.1</ele>
        <time>2017-05-28T08:15:22.000Z</time>
      </trkpt>
      <trkpt lat="44.38174" lon="1.02077">
        <ele>140.1</ele>
        <time>2017-05-28T08:15:23.000Z</time>
      </trkpt>
      <trkpt lat="44.38175" lon="1.02075">
        <ele>140.1</ele>
        <time>2017-05-28T08:15:24.000Z</time>
      </trkpt>
      <trkpt lat="44.38177" lon="1.02073">
        <ele>140.1</ele>
        <time>2017-05-28T08:15:25.000Z</time>
      </trkpt>
      <trkpt lat="44.38179" lon="1.02071">
        <ele>140.1</ele>
        <time>2017-05-28T08:15:26.000Z</time>
      </trkpt>
      <trkpt lat="44.38181" lon="1.02068">
        <ele>140.2</ele>
        <time>2017-05-28T08:15:27.000Z</time>
      </trkpt>
      <trkpt lat="44.38183" lon="1.02065">
        <ele>140.2</ele>
        <time>2017-05-28T08:15:28.000Z</time>
      </trkpt>
      <trkpt lat="44.38184" lon="1.02062">
        <ele>140.2</ele>
        <time>2017-05-28T08:15:29.000Z</time>
      </trkpt>
      <trkpt lat="44.38185" lon="1.02059">
        <ele>140.1</ele>
        <time>2017-05-28T08:15:30.000Z</time>
      </trkpt>
      <trkpt lat="44.38185" lon="1.02056">
        <ele>140.1</ele>
        <time>2017-05-28T08:15:31.000Z</time>
      </trkpt>
      <trkpt lat="44.38185" lon="1.02053">
        <ele>140.1</ele>
        <time>2017-05-28T08:15:32.000Z</time>
      </trkpt>
      <trkpt lat="44.38186" lon="1.0205">
        <ele>140.1</ele>
        <time>2017-05-28T08:15:33.000Z</time>
      </trkpt>
      <trkpt lat="44.38187" lon="1.02049">
        <ele>140.1</ele>
        <time>2017-05-28T08:15:34.000Z</time>
      </trkpt>
      <trkpt lat="44.3819" lon="1.02049">
        <ele>140.1</ele>
        <time>2017-05-28T08:15:35.000Z</time>
      </trkpt>
      <trkpt lat="44.38191" lon="1.0205">
        <ele>140.2</ele>
        <time>2017-05-28T08:15:36.000Z</time>
      </trkpt>
      <trkpt lat="44.38193" lon="1.02051">
        <ele>140.2</ele>
        <time>2017-05-28T08:15:37.000Z</time>
      </trkpt>
      <trkpt lat="44.38194" lon="1.02054">
        <ele>140.3</ele>
        <time>2017-05-28T08:15:38.000Z</time>
      </trkpt>
      <trkpt lat="44.38196" lon="1.02056">
        <ele>140.4</ele>
        <time>2017-05-28T08:15:39.000Z</time>
      </trkpt>
      <trkpt lat="44.38197" lon="1.02059">
        <ele>140.4</ele>
        <time>2017-05-28T08:15:40.000Z</time>
      </trkpt>
      <trkpt lat="44.382" lon="1.02063">
        <ele>140.5</ele>
        <time>2017-05-28T08:15:41.000Z</time>
      </trkpt>
      <trkpt lat="44.38202" lon="1.02067">
        <ele>140.6</ele>
        <time>2017-05-28T08:15:42.000Z</time>
      </trkpt>
      <trkpt lat="44.38204" lon="1.02071">
        <ele>140.8</ele>
        <time>2017-05-28T08:15:43.000Z</time>
      </trkpt>
      <trkpt lat="44.38207" lon="1.02076">
        <ele>140.9</ele>
        <time>2017-05-28T08:15:44.000Z</time>
      </trkpt>
      <trkpt lat="44.3821" lon="1.02081">
        <ele>141</ele>
        <time>2017-05-28T08:15:45.000Z</time>
      </trkpt>
      <trkpt lat="44.38212" lon="1.02086">
        <ele>141.1</ele>
        <time>2017-05-28T08:15:46.000Z</time>
      </trkpt>
      <trkpt lat="44.38215" lon="1.02091">
        <ele>141.2</ele>
        <time>2017-05-28T08:15:47.000Z</time>
      </trkpt>
      <trkpt lat="44.38218" lon="1.02097">
        <ele>141.2</ele>
        <time>2017-05-28T08:15:48.000Z</time>
      </trkpt>
      <trkpt lat="44.38221" lon="1.02102">
        <ele>141.3</ele>
        <time>2017-05-28T08:15:49.000Z</time>
      </trkpt>
      <trkpt lat="44.38224" lon="1.02107">
        <ele>141.4</ele>
        <time>2017-05-28T08:15:50.000Z</time>
      </trkpt>
      <trkpt lat="44.38227" lon="1.02112">
        <ele>141.4</ele>
        <time>2017-05-28T08:15:51.000Z</time>
      </trkpt>
      <trkpt lat="44.3823" lon="1.02118">
        <ele>141.5</ele>
        <time>2017-05-28T08:15:52.000Z</time>
      </trkpt>
      <trkpt lat="44.38234" lon="1.02123">
        <ele>141.6</ele>
        <time>2017-05-28T08:15:53.000Z</time>
      </trkpt>
      <trkpt lat="44.38237" lon="1.02128">
        <ele>141.7</ele>
        <time>2017-05-28T08:15:54.000Z</time>
      </trkpt>
      <trkpt lat="44.3824" lon="1.02134">
        <ele>141.8</ele>
        <time>2017-05-28T08:15:55.000Z</time>
      </trkpt>
      <trkpt lat="44.38243" lon="1.02139">
        <ele>141.8</ele>
        <time>2017-05-28T08:15:56.000Z</time>
      </trkpt>
      <trkpt lat="44.38245" lon="1.02145">
        <ele>141.9</ele>
        <time>2017-05-28T08:15:57.000Z</time>
      </trkpt>
      <trkpt lat="44.38248" lon="1.02151">
        <ele>141.9</ele>
        <time>2017-05-28T08:15:58.000Z</time>
      </trkpt>
      <trkpt lat="44.38251" lon="1.02157">
        <ele>142.1</ele>
        <time>2017-05-28T08:15:59.000Z</time>
      </trkpt>
      <trkpt lat="44.38254" lon="1.02162">
        <ele>142.3</ele>
        <time>2017-05-28T08:16:00.000Z</time>
      </trkpt>
      <trkpt lat="44.38257" lon="1.02167">
        <ele>142.6</ele>
        <time>2017-05-28T08:16:01.000Z</time>
      </trkpt>
      <trkpt lat="44.3826" lon="1.02172">
        <ele>142.8</ele>
        <time>2017-05-28T08:16:02.000Z</time>
      </trkpt>
      <trkpt lat="44.38263" lon="1.02178">
        <ele>143.1</ele>
        <time>2017-05-28T08:16:03.000Z</time>
      </trkpt>
      <trkpt lat="44.38266" lon="1.02183">
        <ele>143.3</ele>
        <time>2017-05-28T08:16:04.000Z</time>
      </trkpt>
      <trkpt lat="44.38269" lon="1.02189">
        <ele>143.5</ele>
        <time>2017-05-28T08:16:05.000Z</time>
      </trkpt>
      <trkpt lat="44.38272" lon="1.02194">
        <ele>143.7</ele>
        <time>2017-05-28T08:16:06.000Z</time>
      </trkpt>
      <trkpt lat="44.38275" lon="1.022">
        <ele>143.9</ele>
        <time>2017-05-28T08:16:07.000Z</time>
      </trkpt>
      <trkpt lat="44.38278" lon="1.02205">
        <ele>144</ele>
        <time>2017-05-28T08:16:08.000Z</time>
      </trkpt>
      <trkpt lat="44.38281" lon="1.02211">
        <ele>144.2</ele>
        <time>2017-05-28T08:16:09.000Z</time>
      </trkpt>
      <trkpt lat="44.38284" lon="1.02216">
        <ele>144.4</ele>
        <time>2017-05-28T08:16:10.000Z</time>
      </trkpt>
      <trkpt lat="44.38287" lon="1.02221">
        <ele>144.5</ele>
        <time>2017-05-28T08:16:11.000Z</time>
      </trkpt>
      <trkpt lat="44.3829" lon="1.02226">
        <ele>144.7</ele>
        <time>2017-05-28T08:16:12.000Z</time>
      </trkpt>
      <trkpt lat="44.38293" lon="1.02231">
        <ele>144.8</ele>
        <time>2017-05-28T08:16:13.000Z</time>
      </trkpt>
      <trkpt lat="44.38296" lon="1.02236">
        <ele>144.9</ele>
        <time>2017-05-28T08:16:14.000Z</time>
      </trkpt>
      <trkpt lat="44.38299" lon="1.02241">
        <ele>145.1</ele>
        <time>2017-05-28T08:16:15.000Z</time>
      </trkpt>
      <trkpt lat="44.38302" lon="1.02245">
        <ele>145.2</ele>
        <time>2017-05-28T08:16:16.000Z</time>
      </trkpt>
      <trkpt lat="44.38304" lon="1.02249">
        <ele>145.3</ele>
        <time>2017-05-28T08:16:17.000Z</time>
      </trkpt>
      <trkpt lat="44.38307" lon="1.02253">
        <ele>145.4</ele>
        <time>2017-05-28T08:16:18.000Z</time>
      </trkpt>
      <trkpt lat="44.3831" lon="1.02256">
        <ele>145.5</ele>
        <time>2017-05-28T08:16:19.000Z</time>
      </trkpt>
      <trkpt lat="44.38313" lon="1.02259">
        <ele>145.6</ele>
        <time>2017-05-28T08:16:20.000Z</time>
      </trkpt>
      <trkpt lat="44.38316" lon="1.02261">
        <ele>145.7</ele>
        <time>2017-05-28T08:16:21.000Z</time>
      </trkpt>
      <trkpt lat="44.38319" lon="1.02263">
        <ele>145.9</ele>
        <time>2017-05-28T08:16:22.000Z</time>
      </trkpt>
      <trkpt lat="44.38322" lon="1.02265">
        <ele>146</ele>
        <time>2017-05-28T08:16:23.000Z</time>
      </trkpt>
      <trkpt lat="44.38324" lon="1.02267">
        <ele>146.1</ele>
        <time>2017-05-28T08:16:24.000Z</time>
      </trkpt>
      <trkpt lat="44.38327" lon="1.02269">
        <ele>146.2</ele>
        <time>2017-05-28T08:16:25.000Z</time>
      </trkpt>
      <trkpt lat="44.38329" lon="1.02271">
        <ele>146.3</ele>
        <time>2017-05-28T08:16:26.000Z</time>
      </trkpt>
      <trkpt lat="44.38331" lon="1.02273">
        <ele>146.3</ele>
        <time>2017-05-28T08:16:27.000Z</time>
      </trkpt>
      <trkpt lat="44.38334" lon="1.02274">
        <ele>146.5</ele>
        <time>2017-05-28T08:16:28.000Z</time>
      </trkpt>
      <trkpt lat="44.38337" lon="1.02276">
        <ele>146.7</ele>
        <time>2017-05-28T08:16:29.000Z</time>
      </trkpt>
      <trkpt lat="44.3834" lon="1.02277">
        <ele>147</ele>
        <time>2017-05-28T08:16:30.000Z</time>
      </trkpt>
      <trkpt lat="44.38343" lon="1.02279">
        <ele>147.3</ele>
        <time>2017-05-28T08:16:31.000Z</time>
      </trkpt>
      <trkpt lat="44.38346" lon="1.02281">
        <ele>147.5</ele>
        <time>2017-05-28T08:16:32.000Z</time>
      </trkpt>
      <trkpt lat="44.38349" lon="1.02283">
        <ele>147.7</ele>
        <time>2017-05-28T08:16:33.000Z</time>
      </trkpt>
      <trkpt lat="44.38351" lon="1.02286">
        <ele>147.8</ele>
        <time>2017-05-28T08:16:34.000Z</time>
      </trkpt>
      <trkpt lat="44.38354" lon="1.02287">
        <ele>148</ele>
        <time>2017-05-28T08:16:35.000Z</time>
      </trkpt>
      <trkpt lat="44.38356" lon="1.02288">
        <ele>148.2</ele>
        <time>2017-05-28T08:16:36.000Z</time>
      </trkpt>
      <trkpt lat="44.38358" lon="1.02289">
        <ele>148.3</ele>
        <time>2017-05-28T08:16:37.000Z</time>
      </trkpt>
      <trkpt lat="44.3836" lon="1.0229">
        <ele>148.5</ele>
        <time>2017-05-28T08:16:38.000Z</time>
      </trkpt>
      <trkpt lat="44.38362" lon="1.02291">
        <ele>148.6</ele>
        <time>2017-05-28T08:16:39.000Z</time>
      </trkpt>
      <trkpt lat="44.38364" lon="1.02293">
        <ele>148.7</ele>
        <time>2017-05-28T08:16:40.000Z</time>
      </trkpt>
      <trkpt lat="44.38365" lon="1.02294">
        <ele>148.8</ele>
        <time>2017-05-28T08:16:41.000Z</time>
      </trkpt>
      <trkpt lat="44.38367" lon="1.02296">
        <ele>148.8</ele>
        <time>2017-05-28T08:16:42.000Z</time>
      </trkpt>
      <trkpt lat="44.38369" lon="1.02297">
        <ele>149</ele>
        <time>2017-05-28T08:16:43.000Z</time>
      </trkpt>
      <trkpt lat="44.38372" lon="1.02299">
        <ele>149.1</ele>
        <time>2017-05-28T08:16:44.000Z</time>
      </trkpt>
      <trkpt lat="44.38375" lon="1.02301">
        <ele>149.2</ele>
        <time>2017-05-28T08:16:45.000Z</time>
      </trkpt>
      <trkpt lat="44.38377" lon="1.02303">
        <ele>149.3</ele>
        <time>2017-05-28T08:16:46.000Z</time>
      </trkpt>
      <trkpt lat="44.38381" lon="1.02305">
        <ele>149.5</ele>
        <time>2017-05-28T08:16:47.000Z</time>
      </trkpt>
      <trkpt lat="44.38384" lon="1.02307">
        <ele>149.6</ele>
        <time>2017-05-28T08:16:48.000Z</time>
      </trkpt>
      <trkpt lat="44.38387" lon="1.02308">
        <ele>149.8</ele>
        <time>2017-05-28T08:16:49.000Z</time>
      </trkpt>
      <trkpt lat="44.3839" lon="1.0231">
        <ele>149.9</ele>
        <time>2017-05-28T08:16:50.000Z</time>
      </trkpt>
      <trkpt lat="44.38393" lon="1.02312">
        <ele>150</ele>
        <time>2017-05-28T08:16:51.000Z</time>
      </trkpt>
      <trkpt lat="44.38396" lon="1.02313">
        <ele>150.2</ele>
        <time>2017-05-28T08:16:52.000Z</time>
      </trkpt>
      <trkpt lat="44.384" lon="1.02316">
        <ele>150.2</ele>
        <time>2017-05-28T08:16:53.000Z</time>
      </trkpt>
      <trkpt lat="44.38403" lon="1.02318">
        <ele>150.3</ele>
        <time>2017-05-28T08:16:54.000Z</time>
      </trkpt>
      <trkpt lat="44.38406" lon="1.02321">
        <ele>150.3</ele>
        <time>2017-05-28T08:16:55.000Z</time>
      </trkpt>
      <trkpt lat="44.3841" lon="1.02323">
        <ele>150.4</ele>
        <time>2017-05-28T08:16:56.000Z</time>
      </trkpt>
      <trkpt lat="44.38413" lon="1.02326">
        <ele>150.4</ele>
        <time>2017-05-28T08:16:57.000Z</time>
      </trkpt>
      <trkpt lat="44.38417" lon="1.02328">
        <ele>150.5</ele>
        <time>2017-05-28T08:16:58.000Z</time>
      </trkpt>
      <trkpt lat="44.38421" lon="1.02331">
        <ele>150.6</ele>
        <time>2017-05-28T08:16:59.000Z</time>
      </trkpt>
      <trkpt lat="44.38424" lon="1.02333">
        <ele>150.7</ele>
        <time>2017-05-28T08:17:00.000Z</time>
      </trkpt>
      <trkpt lat="44.38428" lon="1.02335">
        <ele>151</ele>
        <time>2017-05-28T08:17:01.000Z</time>
      </trkpt>
      <trkpt lat="44.38431" lon="1.02338">
        <ele>151.3</ele>
        <time>2017-05-28T08:17:02.000Z</time>
      </trkpt>
      <trkpt lat="44.38435" lon="1.0234">
        <ele>151.5</ele>
        <time>2017-05-28T08:17:03.000Z</time>
      </trkpt>
      <trkpt lat="44.38438" lon="1.02342">
        <ele>151.8</ele>
        <time>2017-05-28T08:17:04.000Z</time>
      </trkpt>
      <trkpt lat="44.38442" lon="1.02345">
        <ele>152</ele>
        <time>2017-05-28T08:17:05.000Z</time>
      </trkpt>
      <trkpt lat="44.38445" lon="1.02347">
        <ele>152.2</ele>
        <time>2017-05-28T08:17:06.000Z</time>
      </trkpt>
      <trkpt lat="44.38449" lon="1.02349">
        <ele>152.4</ele>
        <time>2017-05-28T08:17:07.000Z</time>
      </trkpt>
      <trkpt lat="44.38452" lon="1.02352">
        <ele>152.6</ele>
        <time>2017-05-28T08:17:08.000Z</time>
      </trkpt>
      <trkpt lat="44.38456" lon="1.02354">
        <ele>152.8</ele>
        <time>2017-05-28T08:17:09.000Z</time>
      </trkpt>
      <trkpt lat="44.38459" lon="1.02356">
        <ele>153</ele>
        <time>2017-05-28T08:17:10.000Z</time>
      </trkpt>
      <trkpt lat="44.38463" lon="1.02358">
        <ele>153.2</ele>
        <time>2017-05-28T08:17:11.000Z</time>
      </trkpt>
      <trkpt lat="44.38467" lon="1.0236">
        <ele>153.3</ele>
        <time>2017-05-28T08:17:12.000Z</time>
      </trkpt>
      <trkpt lat="44.3847" lon="1.02362">
        <ele>153.5</ele>
        <time>2017-05-28T08:17:13.000Z</time>
      </trkpt>
      <trkpt lat="44.38474" lon="1.02363">
        <ele>153.6</ele>
        <time>2017-05-28T08:17:14.000Z</time>
      </trkpt>
      <trkpt lat="44.38477" lon="1.02365">
        <ele>153.8</ele>
        <time>2017-05-28T08:17:15.000Z</time>
      </trkpt>
      <trkpt lat="44.38481" lon="1.02366">
        <ele>154</ele>
        <time>2017-05-28T08:17:16.000Z</time>
      </trkpt>
      <trkpt lat="44.38485" lon="1.02365">
        <ele>154.3</ele>
        <time>2017-05-28T08:17:17.000Z</time>
      </trkpt>
      <trkpt lat="44.38488" lon="1.02364">
        <ele>154.6</ele>
        <time>2017-05-28T08:17:18.000Z</time>
      </trkpt>
      <trkpt lat="44.38491" lon="1.02361">
        <ele>155</ele>
        <time>2017-05-28T08:17:19.000Z</time>
      </trkpt>
      <trkpt lat="44.38493" lon="1.02357">
        <ele>155.5</ele>
        <time>2017-05-28T08:17:20.000Z</time>
      </trkpt>
      <trkpt lat="44.38494" lon="1.02353">
        <ele>155.9</ele>
        <time>2017-05-28T08:17:21.000Z</time>
      </trkpt>
      <trkpt lat="44.38496" lon="1.02349">
        <ele>156.3</ele>
        <time>2017-05-28T08:17:22.000Z</time>
      </trkpt>
      <trkpt lat="44.38497" lon="1.02345">
        <ele>156.8</ele>
        <time>2017-05-28T08:17:23.000Z</time>
      </trkpt>
      <trkpt lat="44.38498" lon="1.02342">
        <ele>157.1</ele>
        <time>2017-05-28T08:17:24.000Z</time>
      </trkpt>
      <trkpt lat="44.38499" lon="1.02339">
        <ele>157.5</ele>
        <time>2017-05-28T08:17:25.000Z</time>
      </trkpt>
      <trkpt lat="44.385" lon="1.02336">
        <ele>157.8</ele>
        <time>2017-05-28T08:17:26.000Z</time>
      </trkpt>
      <trkpt lat="44.385" lon="1.02333">
        <ele>158.1</ele>
        <time>2017-05-28T08:17:27.000Z</time>
      </trkpt>
      <trkpt lat="44.385" lon="1.0233">
        <ele>158.3</ele>
        <time>2017-05-28T08:17:28.000Z</time>
      </trkpt>
      <trkpt lat="44.38501" lon="1.02328">
        <ele>158.6</ele>
        <time>2017-05-28T08:17:29.000Z</time>
      </trkpt>
      <trkpt lat="44.38501" lon="1.02325">
        <ele>158.9</ele>
        <time>2017-05-28T08:17:30.000Z</time>
      </trkpt>
      <trkpt lat="44.38502" lon="1.02323">
        <ele>159.2</ele>
        <time>2017-05-28T08:17:31.000Z</time>
      </trkpt>
      <trkpt lat="44.38502" lon="1.02321">
        <ele>159.4</ele>
        <time>2017-05-28T08:17:32.000Z</time>
      </trkpt>
      <trkpt lat="44.38503" lon="1.02319">
        <ele>159.7</ele>
        <time>2017-05-28T08:17:33.000Z</time>
      </trkpt>
      <trkpt lat="44.38504" lon="1.02316">
        <ele>160</ele>
        <time>2017-05-28T08:17:34.000Z</time>
      </trkpt>
      <trkpt lat="44.38505" lon="1.02314">
        <ele>160.2</ele>
        <time>2017-05-28T08:17:35.000Z</time>
      </trkpt>
      <trkpt lat="44.38505" lon="1.02312">
        <ele>160.5</ele>
        <time>2017-05-28T08:17:36.000Z</time>
      </trkpt>
      <trkpt lat="44.38506" lon="1.0231">
        <ele>160.7</ele>
        <time>2017-05-28T08:17:37.000Z</time>
      </trkpt>
      <trkpt lat="44.38506" lon="1.02308">
        <ele>161</ele>
        <time>2017-05-28T08:17:38.000Z</time>
      </trkpt>
      <trkpt lat="44.38507" lon="1.02306">
        <ele>161.2</ele>
        <time>2017-05-28T08:17:39.000Z</time>
      </trkpt>
      <trkpt lat="44.38507" lon="1.02304">
        <ele>161.4</ele>
        <time>2017-05-28T08:17:40.000Z</time>
      </trkpt>
      <trkpt lat="44.38508" lon="1.02302">
        <ele>161.7</ele>
        <time>2017-05-28T08:17:41.000Z</time>
      </trkpt>
      <trkpt lat="44.38509" lon="1.02299">
        <ele>162</ele>
        <time>2017-05-28T08:17:42.000Z</time>
      </trkpt>
      <trkpt lat="44.38509" lon="1.02297">
        <ele>162.3</ele>
        <time>2017-05-28T08:17:43.000Z</time>
      </trkpt>
      <trkpt lat="44.3851" lon="1.02294">
        <ele>162.6</ele>
        <time>2017-05-28T08:17:44.000Z</time>
      </trkpt>
      <trkpt lat="44.38511" lon="1.02292">
        <ele>162.8</ele>
        <time>2017-05-28T08:17:45.000Z</time>
      </trkpt>
      <trkpt lat="44.38511" lon="1.0229">
        <ele>163.1</ele>
        <time>2017-05-28T08:17:46.000Z</time>
      </trkpt>
      <trkpt lat="44.38511" lon="1.02288">
        <ele>163.3</ele>
        <time>2017-05-28T08:17:47.000Z</time>
      </trkpt>
      <trkpt lat="44.38512" lon="1.02286">
        <ele>163.5</ele>
        <time>2017-05-28T08:17:48.000Z</time>
      </trkpt>
      <trkpt lat="44.38512" lon="1.02284">
        <ele>163.7</ele>
        <time>2017-05-28T08:17:49.000Z</time>
      </trkpt>
      <trkpt lat="44.38512" lon="1.02283">
        <ele>163.8</ele>
        <time>2017-05-28T08:17:50.000Z</time>
      </trkpt>
      <trkpt lat="44.38512" lon="1.02281">
        <ele>164</ele>
        <time>2017-05-28T08:17:51.000Z</time>
      </trkpt>
      <trkpt lat="44.38512" lon="1.02279">
        <ele>164.2</ele>
        <time>2017-05-28T08:17:52.000Z</time>
      </trkpt>
      <trkpt lat="44.38513" lon="1.02277">
        <ele>164.5</ele>
        <time>2017-05-28T08:17:53.000Z</time>
      </trkpt>
      <trkpt lat="44.38513" lon="1.02274">
        <ele>164.7</ele>
        <time>2017-05-28T08:17:54.000Z</time>
      </trkpt>
      <trkpt lat="44.38514" lon="1.02272">
        <ele>164.9</ele>
        <time>2017-05-28T08:17:55.000Z</time>
      </trkpt>
      <trkpt lat="44.38514" lon="1.0227">
        <ele>165.2</ele>
        <time>2017-05-28T08:17:56.000Z</time>
      </trkpt>
      <trkpt lat="44.38515" lon="1.02268">
        <ele>165.4</ele>
        <time>2017-05-28T08:17:57.000Z</time>
      </trkpt>
      <trkpt lat="44.38515" lon="1.02265">
        <ele>165.7</ele>
        <time>2017-05-28T08:17:58.000Z</time>
      </trkpt>
      <trkpt lat="44.38515" lon="1.02263">
        <ele>165.9</ele>
        <time>2017-05-28T08:17:59.000Z</time>
      </trkpt>
      <trkpt lat="44.38516" lon="1.02261">
        <ele>166.1</ele>
        <time>2017-05-28T08:18:00.000Z</time>
      </trkpt>
      <trkpt lat="44.38516" lon="1.02259">
        <ele>166.4</ele>
        <time>2017-05-28T08:18:01.000Z</time>
      </trkpt>
      <trkpt lat="44.38516" lon="1.02256">
        <ele>166.6</ele>
        <time>2017-05-28T08:18:02.000Z</time>
      </trkpt>
      <trkpt lat="44.38517" lon="1.02254">
        <ele>166.9</ele>
        <time>2017-05-28T08:18:03.000Z</time>
      </trkpt>
      <trkpt lat="44.38517" lon="1.02251">
        <ele>167.1</ele>
        <time>2017-05-28T08:18:04.000Z</time>
      </trkpt>
      <trkpt lat="44.38517" lon="1.02249">
        <ele>167.3</ele>
        <time>2017-05-28T08:18:05.000Z</time>
      </trkpt>
      <trkpt lat="44.38518" lon="1.02247">
        <ele>167.5</ele>
        <time>2017-05-28T08:18:06.000Z</time>
      </trkpt>
      <trkpt lat="44.38518" lon="1.02244">
        <ele>167.7</ele>
        <time>2017-05-28T08:18:07.000Z</time>
      </trkpt>
      <trkpt lat="44.38519" lon="1.02242">
        <ele>167.8</ele>
        <time>2017-05-28T08:18:08.000Z</time>
      </trkpt>
      <trkpt lat="44.38519" lon="1.02239">
        <ele>168</ele>
        <time>2017-05-28T08:18:09.000Z</time>
      </trkpt>
      <trkpt lat="44.38519" lon="1.02236">
        <ele>168.2</ele>
        <time>2017-05-28T08:18:10.000Z</time>
      </trkpt>
      <trkpt lat="44.3852" lon="1.02234">
        <ele>168.4</ele>
        <time>2017-05-28T08:18:11.000Z</time>
      </trkpt>
      <trkpt lat="44.3852" lon="1.02231">
        <ele>168.5</ele>
        <time>2017-05-28T08:18:12.000Z</time>
      </trkpt>
      <trkpt lat="44.38521" lon="1.02229">
        <ele>168.7</ele>
        <time>2017-05-28T08:18:13.000Z</time>
      </trkpt>
      <trkpt lat="44.38521" lon="1.02226">
        <ele>168.9</ele>
        <time>2017-05-28T08:18:14.000Z</time>
      </trkpt>
      <trkpt lat="44.38522" lon="1.02223">
        <ele>169.1</ele>
        <time>2017-05-28T08:18:15.000Z</time>
      </trkpt>
      <trkpt lat="44.38522" lon="1.0222">
        <ele>169.3</ele>
        <time>2017-05-28T08:18:16.000Z</time>
      </trkpt>
      <trkpt lat="44.38523" lon="1.02217">
        <ele>169.5</ele>
        <time>2017-05-28T08:18:17.000Z</time>
      </trkpt>
      <trkpt lat="44.38524" lon="1.02214">
        <ele>169.7</ele>
        <time>2017-05-28T08:18:18.000Z</time>
      </trkpt>
      <trkpt lat="44.38524" lon="1.02211">
        <ele>169.9</ele>
        <time>2017-05-28T08:18:19.000Z</time>
      </trkpt>
      <trkpt lat="44.38525" lon="1.02208">
        <ele>170</ele>
        <time>2017-05-28T08:18:20.000Z</time>
      </trkpt>
      <trkpt lat="44.38525" lon="1.02205">
        <ele>170.2</ele>
        <time>2017-05-28T08:18:21.000Z</time>
      </trkpt>
      <trkpt lat="44.38526" lon="1.02202">
        <ele>170.4</ele>
        <time>2017-05-28T08:18:22.000Z</time>
      </trkpt>
      <trkpt lat="44.38527" lon="1.02199">
        <ele>170.6</ele>
        <time>2017-05-28T08:18:23.000Z</time>
      </trkpt>
      <trkpt lat="44.38528" lon="1.02195">
        <ele>170.8</ele>
        <time>2017-05-28T08:18:24.000Z</time>
      </trkpt>
      <trkpt lat="44.38528" lon="1.02192">
        <ele>171</ele>
        <time>2017-05-28T08:18:25.000Z</time>
      </trkpt>
      <trkpt lat="44.38529" lon="1.02189">
        <ele>171.2</ele>
        <time>2017-05-28T08:18:26.000Z</time>
      </trkpt>
      <trkpt lat="44.3853" lon="1.02186">
        <ele>171.4</ele>
        <time>2017-05-28T08:18:27.000Z</time>
      </trkpt>
      <trkpt lat="44.3853" lon="1.02183">
        <ele>171.5</ele>
        <time>2017-05-28T08:18:28.000Z</time>
      </trkpt>
      <trkpt lat="44.38531" lon="1.0218">
        <ele>171.7</ele>
        <time>2017-05-28T08:18:29.000Z</time>
      </trkpt>
      <trkpt lat="44.38532" lon="1.02177">
        <ele>171.9</ele>
        <time>2017-05-28T08:18:30.000Z</time>
      </trkpt>
      <trkpt lat="44.38532" lon="1.02175">
        <ele>172</ele>
        <time>2017-05-28T08:18:31.000Z</time>
      </trkpt>
      <trkpt lat="44.38533" lon="1.02172">
        <ele>172.1</ele>
        <time>2017-05-28T08:18:32.000Z</time>
      </trkpt>
      <trkpt lat="44.38533" lon="1.02169">
        <ele>172.3</ele>
        <time>2017-05-28T08:18:33.000Z</time>
      </trkpt>
      <trkpt lat="44.38534" lon="1.02167">
        <ele>172.4</ele>
        <time>2017-05-28T08:18:34.000Z</time>
      </trkpt>
      <trkpt lat="44.38535" lon="1.02164">
        <ele>172.4</ele>
        <time>2017-05-28T08:18:35.000Z</time>
      </trkpt>
      <trkpt lat="44.38535" lon="1.02162">
        <ele>172.3</ele>
        <time>2017-05-28T08:18:36.000Z</time>
      </trkpt>
      <trkpt lat="44.38536" lon="1.02159">
        <ele>172.3</ele>
        <time>2017-05-28T08:18:37.000Z</time>
      </trkpt>
      <trkpt lat="44.38537" lon="1.02157">
        <ele>172.2</ele>
        <time>2017-05-28T08:18:38.000Z</time>
      </trkpt>
      <trkpt lat="44.38537" lon="1.02154">
        <ele>172.2</ele>
        <time>2017-05-28T08:18:39.000Z</time>
      </trkpt>
      <trkpt lat="44.38538" lon="1.02152">
        <ele>172.1</ele>
        <time>2017-05-28T08:18:40.000Z</time>
      </trkpt>
      <trkpt lat="44.38539" lon="1.02149">
        <ele>172.1</ele>
        <time>2017-05-28T08:18:41.000Z</time>
      </trkpt>
      <trkpt lat="44.3854" lon="1.02147">
        <ele>172</ele>
        <time>2017-05-28T08:18:42.000Z</time>
      </trkpt>
      <trkpt lat="44.38541" lon="1.02144">
        <ele>172</ele>
        <time>2017-05-28T08:18:43.000Z</time>
      </trkpt>
      <trkpt lat="44.38541" lon="1.02142">
        <ele>171.9</ele>
        <time>2017-05-28T08:18:44.000Z</time>
      </trkpt>
      <trkpt lat="44.38542" lon="1.02139">
        <ele>171.8</ele>
        <time>2017-05-28T08:18:45.000Z</time>
      </trkpt>
      <trkpt lat="44.38543" lon="1.02137">
        <ele>171.8</ele>
        <time>2017-05-28T08:18:46.000Z</time>
      </trkpt>
      <trkpt lat="44.38544" lon="1.02134">
        <ele>171.7</ele>
        <time>2017-05-28T08:18:47.000Z</time>
      </trkpt>
      <trkpt lat="44.38545" lon="1.02132">
        <ele>171.7</ele>
        <time>2017-05-28T08:18:48.000Z</time>
      </trkpt>
      <trkpt lat="44.38546" lon="1.0213">
        <ele>171.6</ele>
        <time>2017-05-28T08:18:49.000Z</time>
      </trkpt>
      <trkpt lat="44.38546" lon="1.02128">
        <ele>171.6</ele>
        <time>2017-05-28T08:18:50.000Z</time>
      </trkpt>
      <trkpt lat="44.38547" lon="1.02126">
        <ele>171.5</ele>
        <time>2017-05-28T08:18:51.000Z</time>
      </trkpt>
      <trkpt lat="44.38547" lon="1.02124">
        <ele>171.5</ele>
        <time>2017-05-28T08:18:52.000Z</time>
      </trkpt>
      <trkpt lat="44.38548" lon="1.02122">
        <ele>171.4</ele>
        <time>2017-05-28T08:18:53.000Z</time>
      </trkpt>
      <trkpt lat="44.38548" lon="1.02121">
        <ele>171.4</ele>
        <time>2017-05-28T08:18:54.000Z</time>
      </trkpt>
      <trkpt lat="44.38549" lon="1.0212">
        <ele>171.4</ele>
        <time>2017-05-28T08:18:55.000Z</time>
      </trkpt>
      <trkpt lat="44.38549" lon="1.0212">
        <ele>171.4</ele>
        <time>2017-05-28T08:18:56.000Z</time>
      </trkpt>
      <trkpt lat="44.38549" lon="1.02119">
        <ele>171.4</ele>
        <time>2017-05-28T08:18:57.000Z</time>
      </trkpt>
      <trkpt lat="44.38549" lon="1.02119">
        <ele>171.3</ele>
        <time>2017-05-28T08:18:58.000Z</time>
      </trkpt>
      <trkpt lat="44.38549" lon="1.02119">
        <ele>171.3</ele>
        <time>2017-05-28T08:18:59.000Z</time>
      </trkpt>
      <trkpt lat="44.38549" lon="1.02119">
        <ele>171.3</ele>
        <time>2017-05-28T08:19:00.000Z</time>
      </trkpt>
      <trkpt lat="44.38549" lon="1.02119">
        <ele>171.3</ele>
        <time>2017-05-28T08:19:01.000Z</time>
      </trkpt>
      <trkpt lat="44.38549" lon="1.02119">
        <ele>171.3</ele>
        <time>2017-05-28T08:19:02.000Z</time>
      </trkpt>
      <trkpt lat="44.38549" lon="1.02118">
        <ele>171.3</ele>
        <time>2017-05-28T08:19:03.000Z</time>
      </trkpt>
      <trkpt lat="44.3855" lon="1.02117">
        <ele>171.3</ele>
        <time>2017-05-28T08:19:04.000Z</time>
      </trkpt>
      <trkpt lat="44.38552" lon="1.02115">
        <ele>171.2</ele>
        <time>2017-05-28T08:19:05.000Z</time>
      </trkpt>
      <trkpt lat="44.38553" lon="1.02113">
        <ele>171.2</ele>
        <time>2017-05-28T08:19:06.000Z</time>
      </trkpt>
      <trkpt lat="44.38555" lon="1.0211">
        <ele>171.1</ele>
        <time>2017-05-28T08:19:07.000Z</time>
      </trkpt>
      <trkpt lat="44.38558" lon="1.02106">
        <ele>171</ele>
        <time>2017-05-28T08:19:08.000Z</time>
      </trkpt>
      <trkpt lat="44.3856" lon="1.02102">
        <ele>170.8</ele>
        <time>2017-05-28T08:19:09.000Z</time>
      </trkpt>
      <trkpt lat="44.38563" lon="1.02098">
        <ele>170.7</ele>
        <time>2017-05-28T08:19:10.000Z</time>
      </trkpt>
      <trkpt lat="44.38567" lon="1.02093">
        <ele>170.5</ele>
        <time>2017-05-28T08:19:11.000Z</time>
      </trkpt>
      <trkpt lat="44.38571" lon="1.02088">
        <ele>170.3</ele>
        <time>2017-05-28T08:19:12.000Z</time>
      </trkpt>
      <trkpt lat="44.38576" lon="1.02082">
        <ele>170</ele>
        <time>2017-05-28T08:19:13.000Z</time>
      </trkpt>
      <trkpt lat="44.38582" lon="1.02076">
        <ele>169.5</ele>
        <time>2017-05-28T08:19:14.000Z</time>
      </trkpt>
      <trkpt lat="44.38589" lon="1.02069">
        <ele>169.1</ele>
        <time>2017-05-28T08:19:15.000Z</time>
      </trkpt>
      <trkpt lat="44.38595" lon="1.02061">
        <ele>168.8</ele>
        <time>2017-05-28T08:19:16.000Z</time>
      </trkpt>
      <trkpt lat="44.38601" lon="1.02053">
        <ele>168.5</ele>
        <time>2017-05-28T08:19:17.000Z</time>
      </trkpt>
      <trkpt lat="44.38607" lon="1.02046">
        <ele>168.1</ele>
        <time>2017-05-28T08:19:18.000Z</time>
      </trkpt>
      <trkpt lat="44.38613" lon="1.02038">
        <ele>167.8</ele>
        <time>2017-05-28T08:19:19.000Z</time>
      </trkpt>
      <trkpt lat="44.38619" lon="1.0203">
        <ele>167.4</ele>
        <time>2017-05-28T08:19:20.000Z</time>
      </trkpt>
      <trkpt lat="44.38624" lon="1.02024">
        <ele>167.1</ele>
        <time>2017-05-28T08:19:21.000Z</time>
      </trkpt>
      <trkpt lat="44.38628" lon="1.02018">
        <ele>166.9</ele>
        <time>2017-05-28T08:19:22.000Z</time>
      </trkpt>
      <trkpt lat="44.38632" lon="1.02013">
        <ele>166.7</ele>
        <time>2017-05-28T08:19:23.000Z</time>
      </trkpt>
      <trkpt lat="44.38636" lon="1.02009">
        <ele>166.6</ele>
        <time>2017-05-28T08:19:24.000Z</time>
      </trkpt>
      <trkpt lat="44.3864" lon="1.02006">
        <ele>166.5</ele>
        <time>2017-05-28T08:19:25.000Z</time>
      </trkpt>
      <trkpt lat="44.38644" lon="1.02002">
        <ele>166.3</ele>
        <time>2017-05-28T08:19:26.000Z</time>
      </trkpt>
      <trkpt lat="44.38648" lon="1.01998">
        <ele>166.3</ele>
        <time>2017-05-28T08:19:27.000Z</time>
      </trkpt>
      <trkpt lat="44.38652" lon="1.01993">
        <ele>166.3</ele>
        <time>2017-05-28T08:19:28.000Z</time>
      </trkpt>
      <trkpt lat="44.38656" lon="1.01988">
        <ele>166.3</ele>
        <time>2017-05-28T08:19:29.000Z</time>
      </trkpt>
      <trkpt lat="44.38661" lon="1.01982">
        <ele>166.3</ele>
        <time>2017-05-28T08:19:30.000Z</time>
      </trkpt>
      <trkpt lat="44.38666" lon="1.01978">
        <ele>166.4</ele>
        <time>2017-05-28T08:19:31.000Z</time>
      </trkpt>
      <trkpt lat="44.3867" lon="1.01975">
        <ele>166.8</ele>
        <time>2017-05-28T08:19:32.000Z</time>
      </trkpt>
      <trkpt lat="44.38675" lon="1.01972">
        <ele>167.2</ele>
        <time>2017-05-28T08:19:33.000Z</time>
      </trkpt>
      <trkpt lat="44.3868" lon="1.0197">
        <ele>167.6</ele>
        <time>2017-05-28T08:19:34.000Z</time>
      </trkpt>
      <trkpt lat="44.38685" lon="1.01968">
        <ele>168</ele>
        <time>2017-05-28T08:19:35.000Z</time>
      </trkpt>
      <trkpt lat="44.38691" lon="1.01966">
        <ele>168.4</ele>
        <time>2017-05-28T08:19:36.000Z</time>
      </trkpt>
      <trkpt lat="44.38695" lon="1.01963">
        <ele>168.8</ele>
        <time>2017-05-28T08:19:37.000Z</time>
      </trkpt>
      <trkpt lat="44.387" lon="1.01961">
        <ele>169.1</ele>
        <time>2017-05-28T08:19:38.000Z</time>
      </trkpt>
      <trkpt lat="44.38705" lon="1.01958">
        <ele>169.4</ele>
        <time>2017-05-28T08:19:39.000Z</time>
      </trkpt>
      <trkpt lat="44.38709" lon="1.01956">
        <ele>169.7</ele>
        <time>2017-05-28T08:19:40.000Z</time>
      </trkpt>
      <trkpt lat="44.38713" lon="1.01953">
        <ele>169.9</ele>
        <time>2017-05-28T08:19:41.000Z</time>
      </trkpt>
      <trkpt lat="44.38717" lon="1.01951">
        <ele>170.1</ele>
        <time>2017-05-28T08:19:42.000Z</time>
      </trkpt>
      <trkpt lat="44.38721" lon="1.01948">
        <ele>170.2</ele>
        <time>2017-05-28T08:19:43.000Z</time>
      </trkpt>
      <trkpt lat="44.38725" lon="1.01945">
        <ele>170.4</ele>
        <time>2017-05-28T08:19:44.000Z</time>
      </trkpt>
      <trkpt lat="44.38729" lon="1.01942">
        <ele>170.4</ele>
        <time>2017-05-28T08:19:45.000Z</time>
      </trkpt>
      <trkpt lat="44.38732" lon="1.01938">
        <ele>170.5</ele>
        <time>2017-05-28T08:19:46.000Z</time>
      </trkpt>
      <trkpt lat="44.38736" lon="1.01934">
        <ele>170.4</ele>
        <time>2017-05-28T08:19:47.000Z</time>
      </trkpt>
      <trkpt lat="44.3874" lon="1.0193">
        <ele>170.4</ele>
        <time>2017-05-28T08:19:48.000Z</time>
      </trkpt>
      <trkpt lat="44.38744" lon="1.01925">
        <ele>170.3</ele>
        <time>2017-05-28T08:19:49.000Z</time>
      </trkpt>
      <trkpt lat="44.38748" lon="1.0192">
        <ele>170.2</ele>
        <time>2017-05-28T08:19:50.000Z</time>
      </trkpt>
      <trkpt lat="44.38753" lon="1.01916">
        <ele>170.1</ele>
        <time>2017-05-28T08:19:51.000Z</time>
      </trkpt>
      <trkpt lat="44.38757" lon="1.01911">
        <ele>170.2</ele>
        <time>2017-05-28T08:19:52.000Z</time>
      </trkpt>
      <trkpt lat="44.38762" lon="1.01906">
        <ele>170.2</ele>
        <time>2017-05-28T08:19:53.000Z</time>
      </trkpt>
      <trkpt lat="44.38766" lon="1.01901">
        <ele>170.3</ele>
        <time>2017-05-28T08:19:54.000Z</time>
      </trkpt>
      <trkpt lat="44.38771" lon="1.01897">
        <ele>170.3</ele>
        <time>2017-05-28T08:19:55.000Z</time>
      </trkpt>
      <trkpt lat="44.38776" lon="1.01892">
        <ele>170.3</ele>
        <time>2017-05-28T08:19:56.000Z</time>
      </trkpt>
      <trkpt lat="44.38781" lon="1.01888">
        <ele>170.2</ele>
        <time>2017-05-28T08:19:57.000Z</time>
      </trkpt>
      <trkpt lat="44.38786" lon="1.01883">
        <ele>170.2</ele>
        <time>2017-05-28T08:19:58.000Z</time>
      </trkpt>
      <trkpt lat="44.38792" lon="1.01879">
        <ele>170.1</ele>
        <time>2017-05-28T08:19:59.000Z</time>
      </trkpt>
      <trkpt lat="44.38797" lon="1.01875">
        <ele>170</ele>
        <time>2017-05-28T08:20:00.000Z</time>
      </trkpt>
      <trkpt lat="44.38803" lon="1.01871">
        <ele>169.9</ele>
        <time>2017-05-28T08:20:01.000Z</time>
      </trkpt>
      <trkpt lat="44.38808" lon="1.01867">
        <ele>169.8</ele>
        <time>2017-05-28T08:20:02.000Z</time>
      </trkpt>
      <trkpt lat="44.38814" lon="1.01863">
        <ele>169.7</ele>
        <time>2017-05-28T08:20:03.000Z</time>
      </trkpt>
      <trkpt lat="44.38821" lon="1.0186">
        <ele>169.6</ele>
        <time>2017-05-28T08:20:04.000Z</time>
      </trkpt>
      <trkpt lat="44.38827" lon="1.01857">
        <ele>169.5</ele>
        <time>2017-05-28T08:20:05.000Z</time>
      </trkpt>
      <trkpt lat="44.38834" lon="1.01853">
        <ele>169.5</ele>
        <time>2017-05-28T08:20:06.000Z</time>
      </trkpt>
      <trkpt lat="44.38841" lon="1.01851">
        <ele>169.4</ele>
        <time>2017-05-28T08:20:07.000Z</time>
      </trkpt>
      <trkpt lat="44.38848" lon="1.01848">
        <ele>169.4</ele>
        <time>2017-05-28T08:20:08.000Z</time>
      </trkpt>
      <trkpt lat="44.38854" lon="1.01846">
        <ele>169.4</ele>
        <time>2017-05-28T08:20:09.000Z</time>
      </trkpt>
      <trkpt lat="44.38859" lon="1.01845">
        <ele>169.5</ele>
        <time>2017-05-28T08:20:10.000Z</time>
      </trkpt>
      <trkpt lat="44.38863" lon="1.01844">
        <ele>169.5</ele>
        <time>2017-05-28T08:20:11.000Z</time>
      </trkpt>
      <trkpt lat="44.38866" lon="1.01844">
        <ele>169.6</ele>
        <time>2017-05-28T08:20:12.000Z</time>
      </trkpt>
      <trkpt lat="44.38868" lon="1.01845">
        <ele>169.8</ele>
        <time>2017-05-28T08:20:13.000Z</time>
      </trkpt>
      <trkpt lat="44.38869" lon="1.01846">
        <ele>170</ele>
        <time>2017-05-28T08:20:14.000Z</time>
      </trkpt>
      <trkpt lat="44.3887" lon="1.01848">
        <ele>170.3</ele>
        <time>2017-05-28T08:20:15.000Z</time>
      </trkpt>
      <trkpt lat="44.3887" lon="1.0185">
        <ele>170.6</ele>
        <time>2017-05-28T08:20:16.000Z</time>
      </trkpt>
      <trkpt lat="44.3887" lon="1.01852">
        <ele>170.9</ele>
        <time>2017-05-28T08:20:17.000Z</time>
      </trkpt>
      <trkpt lat="44.38871" lon="1.01854">
        <ele>171.1</ele>
        <time>2017-05-28T08:20:18.000Z</time>
      </trkpt>
      <trkpt lat="44.38871" lon="1.01856">
        <ele>171.4</ele>
        <time>2017-05-28T08:20:19.000Z</time>
      </trkpt>
      <trkpt lat="44.38873" lon="1.01857">
        <ele>171.7</ele>
        <time>2017-05-28T08:20:20.000Z</time>
      </trkpt>
      <trkpt lat="44.38875" lon="1.01858">
        <ele>171.9</ele>
        <time>2017-05-28T08:20:21.000Z</time>
      </trkpt>
      <trkpt lat="44.38877" lon="1.01859">
        <ele>172.1</ele>
        <time>2017-05-28T08:20:22.000Z</time>
      </trkpt>
      <trkpt lat="44.3888" lon="1.01859">
        <ele>172.3</ele>
        <time>2017-05-28T08:20:23.000Z</time>
      </trkpt>
      <trkpt lat="44.38884" lon="1.01859">
        <ele>172.5</ele>
        <time>2017-05-28T08:20:24.000Z</time>
      </trkpt>
      <trkpt lat="44.38887" lon="1.0186">
        <ele>172.7</ele>
        <time>2017-05-28T08:20:25.000Z</time>
      </trkpt>
      <trkpt lat="44.3889" lon="1.0186">
        <ele>172.9</ele>
        <time>2017-05-28T08:20:26.000Z</time>
      </trkpt>
      <trkpt lat="44.38894" lon="1.0186">
        <ele>173</ele>
        <time>2017-05-28T08:20:27.000Z</time>
      </trkpt>
      <trkpt lat="44.38897" lon="1.0186">
        <ele>173.2</ele>
        <time>2017-05-28T08:20:28.000Z</time>
      </trkpt>
      <trkpt lat="44.38901" lon="1.0186">
        <ele>173.4</ele>
        <time>2017-05-28T08:20:29.000Z</time>
      </trkpt>
      <trkpt lat="44.38904" lon="1.0186">
        <ele>173.6</ele>
        <time>2017-05-28T08:20:30.000Z</time>
      </trkpt>
      <trkpt lat="44.38907" lon="1.0186">
        <ele>173.8</ele>
        <time>2017-05-28T08:20:31.000Z</time>
      </trkpt>
      <trkpt lat="44.3891" lon="1.01861">
        <ele>174</ele>
        <time>2017-05-28T08:20:32.000Z</time>
      </trkpt>
      <trkpt lat="44.38913" lon="1.01861">
        <ele>174.2</ele>
        <time>2017-05-28T08:20:33.000Z</time>
      </trkpt>
      <trkpt lat="44.38916" lon="1.01862">
        <ele>174.4</ele>
        <time>2017-05-28T08:20:34.000Z</time>
      </trkpt>
      <trkpt lat="44.38919" lon="1.01862">
        <ele>174.4</ele>
        <time>2017-05-28T08:20:35.000Z</time>
      </trkpt>
      <trkpt lat="44.38922" lon="1.01863">
        <ele>174.3</ele>
        <time>2017-05-28T08:20:36.000Z</time>
      </trkpt>
      <trkpt lat="44.38925" lon="1.01864">
        <ele>174.3</ele>
        <time>2017-05-28T08:20:37.000Z</time>
      </trkpt>
      <trkpt lat="44.38928" lon="1.01866">
        <ele>174.3</ele>
        <time>2017-05-28T08:20:38.000Z</time>
      </trkpt>
      <trkpt lat="44.3893" lon="1.01867">
        <ele>174.4</ele>
        <time>2017-05-28T08:20:39.000Z</time>
      </trkpt>
      <trkpt lat="44.38932" lon="1.01869">
        <ele>174.5</ele>
        <time>2017-05-28T08:20:40.000Z</time>
      </trkpt>
      <trkpt lat="44.38933" lon="1.0187">
        <ele>174.6</ele>
        <time>2017-05-28T08:20:41.000Z</time>
      </trkpt>
      <trkpt lat="44.38934" lon="1.01872">
        <ele>174.8</ele>
        <time>2017-05-28T08:20:42.000Z</time>
      </trkpt>
      <trkpt lat="44.38935" lon="1.01874">
        <ele>175.1</ele>
        <time>2017-05-28T08:20:43.000Z</time>
      </trkpt>
      <trkpt lat="44.38935" lon="1.01877">
        <ele>175.4</ele>
        <time>2017-05-28T08:20:44.000Z</time>
      </trkpt>
      <trkpt lat="44.38934" lon="1.01879">
        <ele>175.8</ele>
        <time>2017-05-28T08:20:45.000Z</time>
      </trkpt>
      <trkpt lat="44.38934" lon="1.01881">
        <ele>176.1</ele>
        <time>2017-05-28T08:20:46.000Z</time>
      </trkpt>
      <trkpt lat="44.38934" lon="1.01883">
        <ele>176.5</ele>
        <time>2017-05-28T08:20:47.000Z</time>
      </trkpt>
      <trkpt lat="44.38934" lon="1.01886">
        <ele>176.8</ele>
        <time>2017-05-28T08:20:48.000Z</time>
      </trkpt>
      <trkpt lat="44.38933" lon="1.01888">
        <ele>177.1</ele>
        <time>2017-05-28T08:20:49.000Z</time>
      </trkpt>
      <trkpt lat="44.38934" lon="1.0189">
        <ele>177.4</ele>
        <time>2017-05-28T08:20:50.000Z</time>
      </trkpt>
      <trkpt lat="44.38934" lon="1.01891">
        <ele>177.7</ele>
        <time>2017-05-28T08:20:51.000Z</time>
      </trkpt>
      <trkpt lat="44.38934" lon="1.01893">
        <ele>177.9</ele>
        <time>2017-05-28T08:20:52.000Z</time>
      </trkpt>
      <trkpt lat="44.38934" lon="1.01895">
        <ele>178.2</ele>
        <time>2017-05-28T08:20:53.000Z</time>
      </trkpt>
      <trkpt lat="44.38935" lon="1.01897">
        <ele>178.4</ele>
        <time>2017-05-28T08:20:54.000Z</time>
      </trkpt>
      <trkpt lat="44.38935" lon="1.01899">
        <ele>178.6</ele>
        <time>2017-05-28T08:20:55.000Z</time>
      </trkpt>
      <trkpt lat="44.38935" lon="1.01901">
        <ele>178.9</ele>
        <time>2017-05-28T08:20:56.000Z</time>
      </trkpt>
      <trkpt lat="44.38936" lon="1.01903">
        <ele>179.2</ele>
        <time>2017-05-28T08:20:57.000Z</time>
      </trkpt>
      <trkpt lat="44.38936" lon="1.01905">
        <ele>179.4</ele>
        <time>2017-05-28T08:20:58.000Z</time>
      </trkpt>
      <trkpt lat="44.38936" lon="1.01907">
        <ele>179.7</ele>
        <time>2017-05-28T08:20:59.000Z</time>
      </trkpt>
      <trkpt lat="44.38937" lon="1.01909">
        <ele>179.9</ele>
        <time>2017-05-28T08:21:00.000Z</time>
      </trkpt>
      <trkpt lat="44.38938" lon="1.0191">
        <ele>180</ele>
        <time>2017-05-28T08:21:01.000Z</time>
      </trkpt>
      <trkpt lat="44.38939" lon="1.01912">
        <ele>180.1</ele>
        <time>2017-05-28T08:21:02.000Z</time>
      </trkpt>
      <trkpt lat="44.38941" lon="1.01913">
        <ele>180.2</ele>
        <time>2017-05-28T08:21:03.000Z</time>
      </trkpt>
      <trkpt lat="44.38942" lon="1.01915">
        <ele>180.3</ele>
        <time>2017-05-28T08:21:04.000Z</time>
      </trkpt>
      <trkpt lat="44.38943" lon="1.01916">
        <ele>180.3</ele>
        <time>2017-05-28T08:21:05.000Z</time>
      </trkpt>
      <trkpt lat="44.38944" lon="1.01917">
        <ele>180.4</ele>
        <time>2017-05-28T08:21:06.000Z</time>
      </trkpt>
      <trkpt lat="44.38946" lon="1.01918">
        <ele>180.5</ele>
        <time>2017-05-28T08:21:07.000Z</time>
      </trkpt>
      <trkpt lat="44.38947" lon="1.01919">
        <ele>180.5</ele>
        <time>2017-05-28T08:21:08.000Z</time>
      </trkpt>
      <trkpt lat="44.38949" lon="1.0192">
        <ele>180.6</ele>
        <time>2017-05-28T08:21:09.000Z</time>
      </trkpt>
      <trkpt lat="44.3895" lon="1.01921">
        <ele>180.6</ele>
        <time>2017-05-28T08:21:10.000Z</time>
      </trkpt>
      <trkpt lat="44.38951" lon="1.01922">
        <ele>180.6</ele>
        <time>2017-05-28T08:21:11.000Z</time>
      </trkpt>
      <trkpt lat="44.38953" lon="1.01922">
        <ele>180.6</ele>
        <time>2017-05-28T08:21:12.000Z</time>
      </trkpt>
      <trkpt lat="44.38954" lon="1.01923">
        <ele>180.6</ele>
        <time>2017-05-28T08:21:13.000Z</time>
      </trkpt>
      <trkpt lat="44.38955" lon="1.01923">
        <ele>180.5</ele>
        <time>2017-05-28T08:21:14.000Z</time>
      </trkpt>
      <trkpt lat="44.38957" lon="1.01924">
        <ele>180.4</ele>
        <time>2017-05-28T08:21:15.000Z</time>
      </trkpt>
      <trkpt lat="44.38958" lon="1.01924">
        <ele>180.3</ele>
        <time>2017-05-28T08:21:16.000Z</time>
      </trkpt>
      <trkpt lat="44.3896" lon="1.01924">
        <ele>180.1</ele>
        <time>2017-05-28T08:21:17.000Z</time>
      </trkpt>
      <trkpt lat="44.38962" lon="1.01924">
        <ele>180</ele>
        <time>2017-05-28T08:21:18.000Z</time>
      </trkpt>
      <trkpt lat="44.38964" lon="1.01924">
        <ele>179.8</ele>
        <time>2017-05-28T08:21:19.000Z</time>
      </trkpt>
      <trkpt lat="44.38965" lon="1.01924">
        <ele>179.7</ele>
        <time>2017-05-28T08:21:20.000Z</time>
      </trkpt>
      <trkpt lat="44.38967" lon="1.01925">
        <ele>179.7</ele>
        <time>2017-05-28T08:21:21.000Z</time>
      </trkpt>
      <trkpt lat="44.38968" lon="1.01926">
        <ele>179.7</ele>
        <time>2017-05-28T08:21:22.000Z</time>
      </trkpt>
      <trkpt lat="44.3897" lon="1.01928">
        <ele>179.9</ele>
        <time>2017-05-28T08:21:23.000Z</time>
      </trkpt>
      <trkpt lat="44.38971" lon="1.0193">
        <ele>180.2</ele>
        <time>2017-05-28T08:21:24.000Z</time>
      </trkpt>
      <trkpt lat="44.38972" lon="1.01933">
        <ele>180.5</ele>
        <time>2017-05-28T08:21:25.000Z</time>
      </trkpt>
      <trkpt lat="44.38973" lon="1.01936">
        <ele>180.9</ele>
        <time>2017-05-28T08:21:26.000Z</time>
      </trkpt>
      <trkpt lat="44.38974" lon="1.01939">
        <ele>181.3</ele>
        <time>2017-05-28T08:21:27.000Z</time>
      </trkpt>
      <trkpt lat="44.38974" lon="1.01941">
        <ele>181.6</ele>
        <time>2017-05-28T08:21:28.000Z</time>
      </trkpt>
      <trkpt lat="44.38975" lon="1.01943">
        <ele>181.8</ele>
        <time>2017-05-28T08:21:29.000Z</time>
      </trkpt>
      <trkpt lat="44.38976" lon="1.01945">
        <ele>182.1</ele>
        <time>2017-05-28T08:21:30.000Z</time>
      </trkpt>
      <trkpt lat="44.38978" lon="1.01947">
        <ele>182.2</ele>
        <time>2017-05-28T08:21:31.000Z</time>
      </trkpt>
      <trkpt lat="44.38979" lon="1.01949">
        <ele>182.4</ele>
        <time>2017-05-28T08:21:32.000Z</time>
      </trkpt>
      <trkpt lat="44.3898" lon="1.01951">
        <ele>182.6</ele>
        <time>2017-05-28T08:21:33.000Z</time>
      </trkpt>
      <trkpt lat="44.38981" lon="1.01953">
        <ele>182.7</ele>
        <time>2017-05-28T08:21:34.000Z</time>
      </trkpt>
      <trkpt lat="44.38982" lon="1.01955">
        <ele>182.9</ele>
        <time>2017-05-28T08:21:35.000Z</time>
      </trkpt>
      <trkpt lat="44.38983" lon="1.01957">
        <ele>183</ele>
        <time>2017-05-28T08:21:36.000Z</time>
      </trkpt>
      <trkpt lat="44.38984" lon="1.01959">
        <ele>183.2</ele>
        <time>2017-05-28T08:21:37.000Z</time>
      </trkpt>
      <trkpt lat="44.38985" lon="1.0196">
        <ele>183.4</ele>
        <time>2017-05-28T08:21:38.000Z</time>
      </trkpt>
      <trkpt lat="44.38986" lon="1.01962">
        <ele>183.6</ele>
        <time>2017-05-28T08:21:39.000Z</time>
      </trkpt>
      <trkpt lat="44.38986" lon="1.01964">
        <ele>183.8</ele>
        <time>2017-05-28T08:21:40.000Z</time>
      </trkpt>
      <trkpt lat="44.38987" lon="1.01966">
        <ele>184</ele>
        <time>2017-05-28T08:21:41.000Z</time>
      </trkpt>
      <trkpt lat="44.38987" lon="1.01968">
        <ele>184.3</ele>
        <time>2017-05-28T08:21:42.000Z</time>
      </trkpt>
      <trkpt lat="44.38988" lon="1.0197">
        <ele>184.5</ele>
        <time>2017-05-28T08:21:43.000Z</time>
      </trkpt>
      <trkpt lat="44.38988" lon="1.01972">
        <ele>184.7</ele>
        <time>2017-05-28T08:21:44.000Z</time>
      </trkpt>
      <trkpt lat="44.38989" lon="1.01974">
        <ele>185</ele>
        <time>2017-05-28T08:21:45.000Z</time>
      </trkpt>
      <trkpt lat="44.3899" lon="1.01976">
        <ele>185.2</ele>
        <time>2017-05-28T08:21:46.000Z</time>
      </trkpt>
      <trkpt lat="44.3899" lon="1.01978">
        <ele>185.4</ele>
        <time>2017-05-28T08:21:47.000Z</time>
      </trkpt>
      <trkpt lat="44.38991" lon="1.01981">
        <ele>185.6</ele>
        <time>2017-05-28T08:21:48.000Z</time>
      </trkpt>
      <trkpt lat="44.38992" lon="1.01983">
        <ele>185.9</ele>
        <time>2017-05-28T08:21:49.000Z</time>
      </trkpt>
      <trkpt lat="44.38993" lon="1.01985">
        <ele>186.1</ele>
        <time>2017-05-28T08:21:50.000Z</time>
      </trkpt>
      <trkpt lat="44.38993" lon="1.01987">
        <ele>186.3</ele>
        <time>2017-05-28T08:21:51.000Z</time>
      </trkpt>
      <trkpt lat="44.38994" lon="1.01989">
        <ele>186.5</ele>
        <time>2017-05-28T08:21:52.000Z</time>
      </trkpt>
      <trkpt lat="44.38995" lon="1.01992">
        <ele>186.7</ele>
        <time>2017-05-28T08:21:53.000Z</time>
      </trkpt>
      <trkpt lat="44.38995" lon="1.01994">
        <ele>186.9</ele>
        <time>2017-05-28T08:21:54.000Z</time>
      </trkpt>
      <trkpt lat="44.38996" lon="1.01996">
        <ele>187.2</ele>
        <time>2017-05-28T08:21:55.000Z</time>
      </trkpt>
      <trkpt lat="44.38996" lon="1.01998">
        <ele>187.4</ele>
        <time>2017-05-28T08:21:56.000Z</time>
      </trkpt>
      <trkpt lat="44.38996" lon="1.02">
        <ele>187.6</ele>
        <time>2017-05-28T08:21:57.000Z</time>
      </trkpt>
      <trkpt lat="44.38997" lon="1.02001">
        <ele>187.8</ele>
        <time>2017-05-28T08:21:58.000Z</time>
      </trkpt>
      <trkpt lat="44.38997" lon="1.02003">
        <ele>188</ele>
        <time>2017-05-28T08:21:59.000Z</time>
      </trkpt>
      <trkpt lat="44.38997" lon="1.02005">
        <ele>188.2</ele>
        <time>2017-05-28T08:22:00.000Z</time>
      </trkpt>
      <trkpt lat="44.38997" lon="1.02006">
        <ele>188.4</ele>
        <time>2017-05-28T08:22:01.000Z</time>
      </trkpt>
      <trkpt lat="44.38997" lon="1.02008">
        <ele>188.6</ele>
        <time>2017-05-28T08:22:02.000Z</time>
      </trkpt>
      <trkpt lat="44.38997" lon="1.0201">
        <ele>188.7</ele>
        <time>2017-05-28T08:22:03.000Z</time>
      </trkpt>
      <trkpt lat="44.38997" lon="1.02011">
        <ele>188.9</ele>
        <time>2017-05-28T08:22:04.000Z</time>
      </trkpt>
      <trkpt lat="44.38997" lon="1.02013">
        <ele>189.1</ele>
        <time>2017-05-28T08:22:05.000Z</time>
      </trkpt>
      <trkpt lat="44.38998" lon="1.02015">
        <ele>189.3</ele>
        <time>2017-05-28T08:22:06.000Z</time>
      </trkpt>
      <trkpt lat="44.38998" lon="1.02017">
        <ele>189.5</ele>
        <time>2017-05-28T08:22:07.000Z</time>
      </trkpt>
      <trkpt lat="44.38999" lon="1.0202">
        <ele>189.7</ele>
        <time>2017-05-28T08:22:08.000Z</time>
      </trkpt>
      <trkpt lat="44.38999" lon="1.02022">
        <ele>189.9</ele>
        <time>2017-05-28T08:22:09.000Z</time>
      </trkpt>
      <trkpt lat="44.39" lon="1.02025">
        <ele>190.1</ele>
        <time>2017-05-28T08:22:10.000Z</time>
      </trkpt>
      <trkpt lat="44.39" lon="1.02027">
        <ele>190.2</ele>
        <time>2017-05-28T08:22:11.000Z</time>
      </trkpt>
      <trkpt lat="44.39001" lon="1.0203">
        <ele>190.5</ele>
        <time>2017-05-28T08:22:12.000Z</time>
      </trkpt>
      <trkpt lat="44.39001" lon="1.02033">
        <ele>190.8</ele>
        <time>2017-05-28T08:22:13.000Z</time>
      </trkpt>
      <trkpt lat="44.39002" lon="1.02036">
        <ele>191</ele>
        <time>2017-05-28T08:22:14.000Z</time>
      </trkpt>
      <trkpt lat="44.39002" lon="1.02039">
        <ele>191.3</ele>
        <time>2017-05-28T08:22:15.000Z</time>
      </trkpt>
      <trkpt lat="44.39003" lon="1.02042">
        <ele>191.6</ele>
        <time>2017-05-28T08:22:16.000Z</time>
      </trkpt>
      <trkpt lat="44.39003" lon="1.02045">
        <ele>191.9</ele>
        <time>2017-05-28T08:22:17.000Z</time>
      </trkpt>
      <trkpt lat="44.39003" lon="1.02048">
        <ele>192.2</ele>
        <time>2017-05-28T08:22:18.000Z</time>
      </trkpt>
      <trkpt lat="44.39004" lon="1.02051">
        <ele>192.6</ele>
        <time>2017-05-28T08:22:19.000Z</time>
      </trkpt>
      <trkpt lat="44.39004" lon="1.02054">
        <ele>192.8</ele>
        <time>2017-05-28T08:22:20.000Z</time>
      </trkpt>
      <trkpt lat="44.39004" lon="1.02057">
        <ele>193.1</ele>
        <time>2017-05-28T08:22:21.000Z</time>
      </trkpt>
      <trkpt lat="44.39004" lon="1.02059">
        <ele>193.4</ele>
        <time>2017-05-28T08:22:22.000Z</time>
      </trkpt>
      <trkpt lat="44.39004" lon="1.02062">
        <ele>193.7</ele>
        <time>2017-05-28T08:22:23.000Z</time>
      </trkpt>
      <trkpt lat="44.39005" lon="1.02065">
        <ele>194</ele>
        <time>2017-05-28T08:22:24.000Z</time>
      </trkpt>
      <trkpt lat="44.39005" lon="1.02067">
        <ele>194.2</ele>
        <time>2017-05-28T08:22:25.000Z</time>
      </trkpt>
      <trkpt lat="44.39005" lon="1.0207">
        <ele>194.5</ele>
        <time>2017-05-28T08:22:26.000Z</time>
      </trkpt>
      <trkpt lat="44.39005" lon="1.02072">
        <ele>194.8</ele>
        <time>2017-05-28T08:22:27.000Z</time>
      </trkpt>
      <trkpt lat="44.39005" lon="1.02074">
        <ele>195</ele>
        <time>2017-05-28T08:22:28.000Z</time>
      </trkpt>
      <trkpt lat="44.39005" lon="1.02077">
        <ele>195.3</ele>
        <time>2017-05-28T08:22:29.000Z</time>
      </trkpt>
      <trkpt lat="44.39005" lon="1.02079">
        <ele>195.6</ele>
        <time>2017-05-28T08:22:30.000Z</time>
      </trkpt>
      <trkpt lat="44.39005" lon="1.02082">
        <ele>195.9</ele>
        <time>2017-05-28T08:22:31.000Z</time>
      </trkpt>
      <trkpt lat="44.39005" lon="1.02084">
        <ele>196.1</ele>
        <time>2017-05-28T08:22:32.000Z</time>
      </trkpt>
      <trkpt lat="44.39005" lon="1.02086">
        <ele>196.2</ele>
        <time>2017-05-28T08:22:33.000Z</time>
      </trkpt>
      <trkpt lat="44.39004" lon="1.02089">
        <ele>196.3</ele>
        <time>2017-05-28T08:22:34.000Z</time>
      </trkpt>
      <trkpt lat="44.39004" lon="1.02091">
        <ele>196.3</ele>
        <time>2017-05-28T08:22:35.000Z</time>
      </trkpt>
      <trkpt lat="44.39004" lon="1.02093">
        <ele>196.4</ele>
        <time>2017-05-28T08:22:36.000Z</time>
      </trkpt>
      <trkpt lat="44.39004" lon="1.02095">
        <ele>196.6</ele>
        <time>2017-05-28T08:22:37.000Z</time>
      </trkpt>
      <trkpt lat="44.39004" lon="1.02098">
        <ele>196.7</ele>
        <time>2017-05-28T08:22:38.000Z</time>
      </trkpt>
      <trkpt lat="44.39003" lon="1.021">
        <ele>196.8</ele>
        <time>2017-05-28T08:22:39.000Z</time>
      </trkpt>
      <trkpt lat="44.39003" lon="1.02102">
        <ele>196.9</ele>
        <time>2017-05-28T08:22:40.000Z</time>
      </trkpt>
      <trkpt lat="44.39003" lon="1.02105">
        <ele>197</ele>
        <time>2017-05-28T08:22:41.000Z</time>
      </trkpt>
      <trkpt lat="44.39002" lon="1.02107">
        <ele>197.1</ele>
        <time>2017-05-28T08:22:42.000Z</time>
      </trkpt>
      <trkpt lat="44.39002" lon="1.02109">
        <ele>197.3</ele>
        <time>2017-05-28T08:22:43.000Z</time>
      </trkpt>
      <trkpt lat="44.39001" lon="1.02111">
        <ele>197.4</ele>
        <time>2017-05-28T08:22:44.000Z</time>
      </trkpt>
      <trkpt lat="44.39001" lon="1.02114">
        <ele>197.6</ele>
        <time>2017-05-28T08:22:45.000Z</time>
      </trkpt>
      <trkpt lat="44.39" lon="1.02116">
        <ele>197.7</ele>
        <time>2017-05-28T08:22:46.000Z</time>
      </trkpt>
      <trkpt lat="44.39" lon="1.02118">
        <ele>197.9</ele>
        <time>2017-05-28T08:22:47.000Z</time>
      </trkpt>
      <trkpt lat="44.38999" lon="1.0212">
        <ele>198.1</ele>
        <time>2017-05-28T08:22:48.000Z</time>
      </trkpt>
      <trkpt lat="44.38999" lon="1.02122">
        <ele>198.4</ele>
        <time>2017-05-28T08:22:49.000Z</time>
      </trkpt>
      <trkpt lat="44.38998" lon="1.02124">
        <ele>198.6</ele>
        <time>2017-05-28T08:22:50.000Z</time>
      </trkpt>
      <trkpt lat="44.38998" lon="1.02126">
        <ele>198.9</ele>
        <time>2017-05-28T08:22:51.000Z</time>
      </trkpt>
      <trkpt lat="44.38997" lon="1.02128">
        <ele>199.1</ele>
        <time>2017-05-28T08:22:52.000Z</time>
      </trkpt>
      <trkpt lat="44.38997" lon="1.0213">
        <ele>199.4</ele>
        <time>2017-05-28T08:22:53.000Z</time>
      </trkpt>
      <trkpt lat="44.38996" lon="1.02132">
        <ele>199.6</ele>
        <time>2017-05-28T08:22:54.000Z</time>
      </trkpt>
      <trkpt lat="44.38996" lon="1.02134">
        <ele>199.9</ele>
        <time>2017-05-28T08:22:55.000Z</time>
      </trkpt>
      <trkpt lat="44.38995" lon="1.02136">
        <ele>200.2</ele>
        <time>2017-05-28T08:22:56.000Z</time>
      </trkpt>
      <trkpt lat="44.38995" lon="1.02138">
        <ele>200.5</ele>
        <time>2017-05-28T08:22:57.000Z</time>
      </trkpt>
      <trkpt lat="44.38994" lon="1.0214">
        <ele>200.7</ele>
        <time>2017-05-28T08:22:58.000Z</time>
      </trkpt>
      <trkpt lat="44.38993" lon="1.02143">
        <ele>201</ele>
        <time>2017-05-28T08:22:59.000Z</time>
      </trkpt>
      <trkpt lat="44.38993" lon="1.02145">
        <ele>201.3</ele>
        <time>2017-05-28T08:23:00.000Z</time>
      </trkpt>
      <trkpt lat="44.38992" lon="1.02147">
        <ele>201.6</ele>
        <time>2017-05-28T08:23:01.000Z</time>
      </trkpt>
      <trkpt lat="44.38992" lon="1.02149">
        <ele>202</ele>
        <time>2017-05-28T08:23:02.000Z</time>
      </trkpt>
      <trkpt lat="44.38991" lon="1.02151">
        <ele>202.3</ele>
        <time>2017-05-28T08:23:03.000Z</time>
      </trkpt>
      <trkpt lat="44.3899" lon="1.02153">
        <ele>202.6</ele>
        <time>2017-05-28T08:23:04.000Z</time>
      </trkpt>
      <trkpt lat="44.3899" lon="1.02156">
        <ele>203</ele>
        <time>2017-05-28T08:23:05.000Z</time>
      </trkpt>
      <trkpt lat="44.38989" lon="1.02158">
        <ele>203.3</ele>
        <time>2017-05-28T08:23:06.000Z</time>
      </trkpt>
      <trkpt lat="44.38988" lon="1.0216">
        <ele>203.7</ele>
        <time>2017-05-28T08:23:07.000Z</time>
      </trkpt>
      <trkpt lat="44.38987" lon="1.02162">
        <ele>204.1</ele>
        <time>2017-05-28T08:23:08.000Z</time>
      </trkpt>
      <trkpt lat="44.38987" lon="1.02165">
        <ele>204.4</ele>
        <time>2017-05-28T08:23:09.000Z</time>
      </trkpt>
      <trkpt lat="44.38986" lon="1.02167">
        <ele>204.8</ele>
        <time>2017-05-28T08:23:10.000Z</time>
      </trkpt>
      <trkpt lat="44.38985" lon="1.0217">
        <ele>205.3</ele>
        <time>2017-05-28T08:23:11.000Z</time>
      </trkpt>
      <trkpt lat="44.38984" lon="1.02172">
        <ele>205.8</ele>
        <time>2017-05-28T08:23:12.000Z</time>
      </trkpt>
      <trkpt lat="44.38983" lon="1.02175">
        <ele>206.3</ele>
        <time>2017-05-28T08:23:13.000Z</time>
      </trkpt>
      <trkpt lat="44.38983" lon="1.02177">
        <ele>206.7</ele>
        <time>2017-05-28T08:23:14.000Z</time>
      </trkpt>
      <trkpt lat="44.38982" lon="1.02179">
        <ele>207.2</ele>
        <time>2017-05-28T08:23:15.000Z</time>
      </trkpt>
      <trkpt lat="44.38981" lon="1.02182">
        <ele>207.8</ele>
        <time>2017-05-28T08:23:16.000Z</time>
      </trkpt>
      <trkpt lat="44.3898" lon="1.02184">
        <ele>208.3</ele>
        <time>2017-05-28T08:23:17.000Z</time>
      </trkpt>
      <trkpt lat="44.38979" lon="1.02186">
        <ele>208.8</ele>
        <time>2017-05-28T08:23:18.000Z</time>
      </trkpt>
      <trkpt lat="44.38978" lon="1.02188">
        <ele>209.3</ele>
        <time>2017-05-28T08:23:19.000Z</time>
      </trkpt>
      <trkpt lat="44.38977" lon="1.02191">
        <ele>209.9</ele>
        <time>2017-05-28T08:23:20.000Z</time>
      </trkpt>
      <trkpt lat="44.38976" lon="1.02193">
        <ele>210.4</ele>
        <time>2017-05-28T08:23:21.000Z</time>
      </trkpt>
      <trkpt lat="44.38975" lon="1.02195">
        <ele>210.9</ele>
        <time>2017-05-28T08:23:22.000Z</time>
      </trkpt>
      <trkpt lat="44.38974" lon="1.02197">
        <ele>211.4</ele>
        <time>2017-05-28T08:23:23.000Z</time>
      </trkpt>
      <trkpt lat="44.38973" lon="1.02199">
        <ele>211.9</ele>
        <time>2017-05-28T08:23:24.000Z</time>
      </trkpt>
      <trkpt lat="44.38972" lon="1.02201">
        <ele>212.3</ele>
        <time>2017-05-28T08:23:25.000Z</time>
      </trkpt>
      <trkpt lat="44.38971" lon="1.02203">
        <ele>212.7</ele>
        <time>2017-05-28T08:23:26.000Z</time>
      </trkpt>
      <trkpt lat="44.38971" lon="1.02205">
        <ele>213.1</ele>
        <time>2017-05-28T08:23:27.000Z</time>
      </trkpt>
      <trkpt lat="44.3897" lon="1.02207">
        <ele>213.5</ele>
        <time>2017-05-28T08:23:28.000Z</time>
      </trkpt>
      <trkpt lat="44.38969" lon="1.0221">
        <ele>213.9</ele>
        <time>2017-05-28T08:23:29.000Z</time>
      </trkpt>
      <trkpt lat="44.38969" lon="1.02212">
        <ele>214.3</ele>
        <time>2017-05-28T08:23:30.000Z</time>
      </trkpt>
      <trkpt lat="44.38968" lon="1.02215">
        <ele>214.8</ele>
        <time>2017-05-28T08:23:31.000Z</time>
      </trkpt>
      <trkpt lat="44.38967" lon="1.02218">
        <ele>215.3</ele>
        <time>2017-05-28T08:23:32.000Z</time>
      </trkpt>
      <trkpt lat="44.38966" lon="1.02221">
        <ele>215.8</ele>
        <time>2017-05-28T08:23:33.000Z</time>
      </trkpt>
      <trkpt lat="44.38965" lon="1.02224">
        <ele>216.3</ele>
        <time>2017-05-28T08:23:34.000Z</time>
      </trkpt>
      <trkpt lat="44.38964" lon="1.02227">
        <ele>216.8</ele>
        <time>2017-05-28T08:23:35.000Z</time>
      </trkpt>
      <trkpt lat="44.38963" lon="1.0223">
        <ele>217.3</ele>
        <time>2017-05-28T08:23:36.000Z</time>
      </trkpt>
      <trkpt lat="44.38962" lon="1.02233">
        <ele>217.8</ele>
        <time>2017-05-28T08:23:37.000Z</time>
      </trkpt>
      <trkpt lat="44.38962" lon="1.02236">
        <ele>218.2</ele>
        <time>2017-05-28T08:23:38.000Z</time>
      </trkpt>
      <trkpt lat="44.38961" lon="1.02239">
        <ele>218.4</ele>
        <time>2017-05-28T08:23:39.000Z</time>
      </trkpt>
      <trkpt lat="44.38961" lon="1.02242">
        <ele>218.6</ele>
        <time>2017-05-28T08:23:40.000Z</time>
      </trkpt>
      <trkpt lat="44.38961" lon="1.02245">
        <ele>218.7</ele>
        <time>2017-05-28T08:23:41.000Z</time>
      </trkpt>
      <trkpt lat="44.38961" lon="1.02248">
        <ele>218.9</ele>
        <time>2017-05-28T08:23:42.000Z</time>
      </trkpt>
      <trkpt lat="44.38961" lon="1.02251">
        <ele>219.1</ele>
        <time>2017-05-28T08:23:43.000Z</time>
      </trkpt>
      <trkpt lat="44.38961" lon="1.02253">
        <ele>219.5</ele>
        <time>2017-05-28T08:23:44.000Z</time>
      </trkpt>
      <trkpt lat="44.38961" lon="1.02256">
        <ele>219.8</ele>
        <time>2017-05-28T08:23:45.000Z</time>
      </trkpt>
      <trkpt lat="44.38962" lon="1.02258">
        <ele>219.9</ele>
        <time>2017-05-28T08:23:46.000Z</time>
      </trkpt>
      <trkpt lat="44.38963" lon="1.02261">
        <ele>219.9</ele>
        <time>2017-05-28T08:23:47.000Z</time>
      </trkpt>
      <trkpt lat="44.38965" lon="1.02263">
        <ele>219.6</ele>
        <time>2017-05-28T08:23:48.000Z</time>
      </trkpt>
      <trkpt lat="44.38967" lon="1.02265">
        <ele>219.2</ele>
        <time>2017-05-28T08:23:49.000Z</time>
      </trkpt>
      <trkpt lat="44.3897" lon="1.02268">
        <ele>218.6</ele>
        <time>2017-05-28T08:23:50.000Z</time>
      </trkpt>
      <trkpt lat="44.38974" lon="1.02271">
        <ele>218.1</ele>
        <time>2017-05-28T08:23:51.000Z</time>
      </trkpt>
      <trkpt lat="44.38978" lon="1.02275">
        <ele>217.4</ele>
        <time>2017-05-28T08:23:52.000Z</time>
      </trkpt>
      <trkpt lat="44.38981" lon="1.02278">
        <ele>216.9</ele>
        <time>2017-05-28T08:23:53.000Z</time>
      </trkpt>
      <trkpt lat="44.38985" lon="1.02281">
        <ele>216.5</ele>
        <time>2017-05-28T08:23:54.000Z</time>
      </trkpt>
      <trkpt lat="44.38989" lon="1.02284">
        <ele>216.1</ele>
        <time>2017-05-28T08:23:55.000Z</time>
      </trkpt>
      <trkpt lat="44.38992" lon="1.02288">
        <ele>215.8</ele>
        <time>2017-05-28T08:23:56.000Z</time>
      </trkpt>
      <trkpt lat="44.38995" lon="1.02291">
        <ele>215.6</ele>
        <time>2017-05-28T08:23:57.000Z</time>
      </trkpt>
      <trkpt lat="44.38998" lon="1.02294">
        <ele>215.5</ele>
        <time>2017-05-28T08:23:58.000Z</time>
      </trkpt>
      <trkpt lat="44.39001" lon="1.02297">
        <ele>215.4</ele>
        <time>2017-05-28T08:23:59.000Z</time>
      </trkpt>
      <trkpt lat="44.39003" lon="1.02299">
        <ele>215.3</ele>
        <time>2017-05-28T08:24:00.000Z</time>
      </trkpt>
      <trkpt lat="44.39005" lon="1.02301">
        <ele>215.3</ele>
        <time>2017-05-28T08:24:01.000Z</time>
      </trkpt>
      <trkpt lat="44.39007" lon="1.02303">
        <ele>215.2</ele>
        <time>2017-05-28T08:24:02.000Z</time>
      </trkpt>
      <trkpt lat="44.39009" lon="1.02305">
        <ele>215.2</ele>
        <time>2017-05-28T08:24:03.000Z</time>
      </trkpt>
      <trkpt lat="44.3901" lon="1.02307">
        <ele>215.2</ele>
        <time>2017-05-28T08:24:04.000Z</time>
      </trkpt>
      <trkpt lat="44.39012" lon="1.02309">
        <ele>215.2</ele>
        <time>2017-05-28T08:24:05.000Z</time>
      </trkpt>
      <trkpt lat="44.39013" lon="1.02311">
        <ele>215.2</ele>
        <time>2017-05-28T08:24:06.000Z</time>
      </trkpt>
      <trkpt lat="44.39014" lon="1.02313">
        <ele>215.2</ele>
        <time>2017-05-28T08:24:07.000Z</time>
      </trkpt>
      <trkpt lat="44.39016" lon="1.02315">
        <ele>215.3</ele>
        <time>2017-05-28T08:24:08.000Z</time>
      </trkpt>
      <trkpt lat="44.39018" lon="1.02317">
        <ele>215.3</ele>
        <time>2017-05-28T08:24:09.000Z</time>
      </trkpt>
      <trkpt lat="44.39019" lon="1.02319">
        <ele>215.4</ele>
        <time>2017-05-28T08:24:10.000Z</time>
      </trkpt>
      <trkpt lat="44.39021" lon="1.02322">
        <ele>215.4</ele>
        <time>2017-05-28T08:24:11.000Z</time>
      </trkpt>
      <trkpt lat="44.39022" lon="1.02324">
        <ele>215.5</ele>
        <time>2017-05-28T08:24:12.000Z</time>
      </trkpt>
      <trkpt lat="44.39023" lon="1.02327">
        <ele>215.6</ele>
        <time>2017-05-28T08:24:13.000Z</time>
      </trkpt>
      <trkpt lat="44.39025" lon="1.02329">
        <ele>215.7</ele>
        <time>2017-05-28T08:24:14.000Z</time>
      </trkpt>
      <trkpt lat="44.39026" lon="1.02331">
        <ele>215.8</ele>
        <time>2017-05-28T08:24:15.000Z</time>
      </trkpt>
      <trkpt lat="44.39027" lon="1.02333">
        <ele>216</ele>
        <time>2017-05-28T08:24:16.000Z</time>
      </trkpt>
      <trkpt lat="44.39027" lon="1.02335">
        <ele>216.1</ele>
        <time>2017-05-28T08:24:17.000Z</time>
      </trkpt>
      <trkpt lat="44.39028" lon="1.02336">
        <ele>216.2</ele>
        <time>2017-05-28T08:24:18.000Z</time>
      </trkpt>
      <trkpt lat="44.39028" lon="1.02338">
        <ele>216.3</ele>
        <time>2017-05-28T08:24:19.000Z</time>
      </trkpt>
      <trkpt lat="44.39029" lon="1.02339">
        <ele>216.4</ele>
        <time>2017-05-28T08:24:20.000Z</time>
      </trkpt>
      <trkpt lat="44.39029" lon="1.0234">
        <ele>216.5</ele>
        <time>2017-05-28T08:24:21.000Z</time>
      </trkpt>
      <trkpt lat="44.3903" lon="1.02341">
        <ele>216.5</ele>
        <time>2017-05-28T08:24:22.000Z</time>
      </trkpt>
      <trkpt lat="44.39031" lon="1.02343">
        <ele>216.5</ele>
        <time>2017-05-28T08:24:23.000Z</time>
      </trkpt>
      <trkpt lat="44.39033" lon="1.02346">
        <ele>216.6</ele>
        <time>2017-05-28T08:24:24.000Z</time>
      </trkpt>
      <trkpt lat="44.39034" lon="1.0235">
        <ele>216.7</ele>
        <time>2017-05-28T08:24:25.000Z</time>
      </trkpt>
      <trkpt lat="44.39035" lon="1.02353">
        <ele>216.9</ele>
        <time>2017-05-28T08:24:26.000Z</time>
      </trkpt>
      <trkpt lat="44.39037" lon="1.02355">
        <ele>217</ele>
        <time>2017-05-28T08:24:27.000Z</time>
      </trkpt>
      <trkpt lat="44.39038" lon="1.02357">
        <ele>217.1</ele>
        <time>2017-05-28T08:24:28.000Z</time>
      </trkpt>
      <trkpt lat="44.39039" lon="1.02359">
        <ele>217.2</ele>
        <time>2017-05-28T08:24:29.000Z</time>
      </trkpt>
      <trkpt lat="44.3904" lon="1.02362">
        <ele>217.4</ele>
        <time>2017-05-28T08:24:30.000Z</time>
      </trkpt>
      <trkpt lat="44.3904" lon="1.02364">
        <ele>217.6</ele>
        <time>2017-05-28T08:24:31.000Z</time>
      </trkpt>
      <trkpt lat="44.39041" lon="1.02366">
        <ele>217.8</ele>
        <time>2017-05-28T08:24:32.000Z</time>
      </trkpt>
      <trkpt lat="44.39042" lon="1.02368">
        <ele>218</ele>
        <time>2017-05-28T08:24:33.000Z</time>
      </trkpt>
      <trkpt lat="44.39042" lon="1.02371">
        <ele>218.3</ele>
        <time>2017-05-28T08:24:34.000Z</time>
      </trkpt>
      <trkpt lat="44.39043" lon="1.02373">
        <ele>218.5</ele>
        <time>2017-05-28T08:24:35.000Z</time>
      </trkpt>
      <trkpt lat="44.39044" lon="1.02376">
        <ele>218.7</ele>
        <time>2017-05-28T08:24:36.000Z</time>
      </trkpt>
      <trkpt lat="44.39045" lon="1.02378">
        <ele>218.8</ele>
        <time>2017-05-28T08:24:37.000Z</time>
      </trkpt>
      <trkpt lat="44.39046" lon="1.0238">
        <ele>219</ele>
        <time>2017-05-28T08:24:38.000Z</time>
      </trkpt>
      <trkpt lat="44.39047" lon="1.02382">
        <ele>219.1</ele>
        <time>2017-05-28T08:24:39.000Z</time>
      </trkpt>
      <trkpt lat="44.39048" lon="1.02385">
        <ele>219.2</ele>
        <time>2017-05-28T08:24:40.000Z</time>
      </trkpt>
      <trkpt lat="44.39049" lon="1.02387">
        <ele>219.3</ele>
        <time>2017-05-28T08:24:41.000Z</time>
      </trkpt>
      <trkpt lat="44.3905" lon="1.02389">
        <ele>219.4</ele>
        <time>2017-05-28T08:24:42.000Z</time>
      </trkpt>
      <trkpt lat="44.39051" lon="1.02391">
        <ele>219.5</ele>
        <time>2017-05-28T08:24:43.000Z</time>
      </trkpt>
      <trkpt lat="44.39053" lon="1.02393">
        <ele>219.6</ele>
        <time>2017-05-28T08:24:44.000Z</time>
      </trkpt>
      <trkpt lat="44.39054" lon="1.02395">
        <ele>219.7</ele>
        <time>2017-05-28T08:24:45.000Z</time>
      </trkpt>
      <trkpt lat="44.39055" lon="1.02397">
        <ele>219.8</ele>
        <time>2017-05-28T08:24:46.000Z</time>
      </trkpt>
      <trkpt lat="44.39056" lon="1.024">
        <ele>220</ele>
        <time>2017-05-28T08:24:47.000Z</time>
      </trkpt>
      <trkpt lat="44.39057" lon="1.02402">
        <ele>220.1</ele>
        <time>2017-05-28T08:24:48.000Z</time>
      </trkpt>
      <trkpt lat="44.39058" lon="1.02404">
        <ele>220.3</ele>
        <time>2017-05-28T08:24:49.000Z</time>
      </trkpt>
      <trkpt lat="44.39059" lon="1.02406">
        <ele>220.5</ele>
        <time>2017-05-28T08:24:50.000Z</time>
      </trkpt>
      <trkpt lat="44.39059" lon="1.02408">
        <ele>220.6</ele>
        <time>2017-05-28T08:24:51.000Z</time>
      </trkpt>
      <trkpt lat="44.3906" lon="1.0241">
        <ele>220.8</ele>
        <time>2017-05-28T08:24:52.000Z</time>
      </trkpt>
      <trkpt lat="44.39061" lon="1.02412">
        <ele>221</ele>
        <time>2017-05-28T08:24:53.000Z</time>
      </trkpt>
      <trkpt lat="44.39062" lon="1.02414">
        <ele>221.1</ele>
        <time>2017-05-28T08:24:54.000Z</time>
      </trkpt>
      <trkpt lat="44.39063" lon="1.02416">
        <ele>221.2</ele>
        <time>2017-05-28T08:24:55.000Z</time>
      </trkpt>
      <trkpt lat="44.39064" lon="1.02418">
        <ele>221.4</ele>
        <time>2017-05-28T08:24:56.000Z</time>
      </trkpt>
      <trkpt lat="44.39065" lon="1.0242">
        <ele>221.5</ele>
        <time>2017-05-28T08:24:57.000Z</time>
      </trkpt>
      <trkpt lat="44.39066" lon="1.02423">
        <ele>221.7</ele>
        <time>2017-05-28T08:24:58.000Z</time>
      </trkpt>
      <trkpt lat="44.39067" lon="1.02426">
        <ele>221.9</ele>
        <time>2017-05-28T08:24:59.000Z</time>
      </trkpt>
      <trkpt lat="44.39068" lon="1.02429">
        <ele>222.1</ele>
        <time>2017-05-28T08:25:00.000Z</time>
      </trkpt>
      <trkpt lat="44.39069" lon="1.02432">
        <ele>222.4</ele>
        <time>2017-05-28T08:25:01.000Z</time>
      </trkpt>
      <trkpt lat="44.3907" lon="1.02435">
        <ele>222.6</ele>
        <time>2017-05-28T08:25:02.000Z</time>
      </trkpt>
      <trkpt lat="44.39071" lon="1.02438">
        <ele>222.8</ele>
        <time>2017-05-28T08:25:03.000Z</time>
      </trkpt>
      <trkpt lat="44.39072" lon="1.0244">
        <ele>223</ele>
        <time>2017-05-28T08:25:04.000Z</time>
      </trkpt>
      <trkpt lat="44.39073" lon="1.02442">
        <ele>223.2</ele>
        <time>2017-05-28T08:25:05.000Z</time>
      </trkpt>
      <trkpt lat="44.39074" lon="1.02444">
        <ele>223.4</ele>
        <time>2017-05-28T08:25:06.000Z</time>
      </trkpt>
      <trkpt lat="44.39074" lon="1.02446">
        <ele>223.6</ele>
        <time>2017-05-28T08:25:07.000Z</time>
      </trkpt>
      <trkpt lat="44.39075" lon="1.02448">
        <ele>223.8</ele>
        <time>2017-05-28T08:25:08.000Z</time>
      </trkpt>
      <trkpt lat="44.39075" lon="1.02449">
        <ele>224</ele>
        <time>2017-05-28T08:25:09.000Z</time>
      </trkpt>
      <trkpt lat="44.39076" lon="1.0245">
        <ele>224.1</ele>
        <time>2017-05-28T08:25:10.000Z</time>
      </trkpt>
      <trkpt lat="44.39077" lon="1.02454">
        <ele>224.5</ele>
        <time>2017-05-28T08:25:11.000Z</time>
      </trkpt>
      <trkpt lat="44.39078" lon="1.02458">
        <ele>224.8</ele>
        <time>2017-05-28T08:25:12.000Z</time>
      </trkpt>
      <trkpt lat="44.39079" lon="1.0246">
        <ele>225.2</ele>
        <time>2017-05-28T08:25:13.000Z</time>
      </trkpt>
      <trkpt lat="44.3908" lon="1.02463">
        <ele>225.4</ele>
        <time>2017-05-28T08:25:14.000Z</time>
      </trkpt>
      <trkpt lat="44.39081" lon="1.02465">
        <ele>225.7</ele>
        <time>2017-05-28T08:25:15.000Z</time>
      </trkpt>
      <trkpt lat="44.39082" lon="1.02467">
        <ele>225.9</ele>
        <time>2017-05-28T08:25:16.000Z</time>
      </trkpt>
      <trkpt lat="44.39083" lon="1.02469">
        <ele>226.2</ele>
        <time>2017-05-28T08:25:17.000Z</time>
      </trkpt>
      <trkpt lat="44.39084" lon="1.02472">
        <ele>226.4</ele>
        <time>2017-05-28T08:25:18.000Z</time>
      </trkpt>
      <trkpt lat="44.39085" lon="1.02474">
        <ele>226.6</ele>
        <time>2017-05-28T08:25:19.000Z</time>
      </trkpt>
      <trkpt lat="44.39086" lon="1.02477">
        <ele>226.8</ele>
        <time>2017-05-28T08:25:20.000Z</time>
      </trkpt>
      <trkpt lat="44.39087" lon="1.02479">
        <ele>227.1</ele>
        <time>2017-05-28T08:25:21.000Z</time>
      </trkpt>
      <trkpt lat="44.39089" lon="1.02482">
        <ele>227.3</ele>
        <time>2017-05-28T08:25:22.000Z</time>
      </trkpt>
      <trkpt lat="44.3909" lon="1.02485">
        <ele>227.5</ele>
        <time>2017-05-28T08:25:23.000Z</time>
      </trkpt>
      <trkpt lat="44.39091" lon="1.02487">
        <ele>227.8</ele>
        <time>2017-05-28T08:25:24.000Z</time>
      </trkpt>
      <trkpt lat="44.39092" lon="1.0249">
        <ele>228</ele>
        <time>2017-05-28T08:25:25.000Z</time>
      </trkpt>
      <trkpt lat="44.39093" lon="1.02493">
        <ele>228.3</ele>
        <time>2017-05-28T08:25:26.000Z</time>
      </trkpt>
      <trkpt lat="44.39094" lon="1.02495">
        <ele>228.5</ele>
        <time>2017-05-28T08:25:27.000Z</time>
      </trkpt>
      <trkpt lat="44.39095" lon="1.02498">
        <ele>228.8</ele>
        <time>2017-05-28T08:25:28.000Z</time>
      </trkpt>
      <trkpt lat="44.39096" lon="1.025">
        <ele>229</ele>
        <time>2017-05-28T08:25:29.000Z</time>
      </trkpt>
      <trkpt lat="44.39097" lon="1.02503">
        <ele>228.9</ele>
        <time>2017-05-28T08:25:30.000Z</time>
      </trkpt>
      <trkpt lat="44.39098" lon="1.02505">
        <ele>228.9</ele>
        <time>2017-05-28T08:25:31.000Z</time>
      </trkpt>
      <trkpt lat="44.39099" lon="1.02507">
        <ele>228.8</ele>
        <time>2017-05-28T08:25:32.000Z</time>
      </trkpt>
      <trkpt lat="44.391" lon="1.0251">
        <ele>228.7</ele>
        <time>2017-05-28T08:25:33.000Z</time>
      </trkpt>
      <trkpt lat="44.39101" lon="1.02512">
        <ele>228.7</ele>
        <time>2017-05-28T08:25:34.000Z</time>
      </trkpt>
      <trkpt lat="44.39102" lon="1.02514">
        <ele>228.6</ele>
        <time>2017-05-28T08:25:35.000Z</time>
      </trkpt>
      <trkpt lat="44.39103" lon="1.02517">
        <ele>228.6</ele>
        <time>2017-05-28T08:25:36.000Z</time>
      </trkpt>
      <trkpt lat="44.39104" lon="1.02519">
        <ele>228.6</ele>
        <time>2017-05-28T08:25:37.000Z</time>
      </trkpt>
      <trkpt lat="44.39105" lon="1.02521">
        <ele>228.5</ele>
        <time>2017-05-28T08:25:38.000Z</time>
      </trkpt>
      <trkpt lat="44.39106" lon="1.02523">
        <ele>228.5</ele>
        <time>2017-05-28T08:25:39.000Z</time>
      </trkpt>
      <trkpt lat="44.39107" lon="1.02526">
        <ele>228.5</ele>
        <time>2017-05-28T08:25:40.000Z</time>
      </trkpt>
      <trkpt lat="44.39108" lon="1.02528">
        <ele>228.6</ele>
        <time>2017-05-28T08:25:41.000Z</time>
      </trkpt>
      <trkpt lat="44.39109" lon="1.02531">
        <ele>228.6</ele>
        <time>2017-05-28T08:25:42.000Z</time>
      </trkpt>
      <trkpt lat="44.3911" lon="1.02533">
        <ele>228.7</ele>
        <time>2017-05-28T08:25:43.000Z</time>
      </trkpt>
      <trkpt lat="44.39111" lon="1.02536">
        <ele>228.7</ele>
        <time>2017-05-28T08:25:44.000Z</time>
      </trkpt>
      <trkpt lat="44.39112" lon="1.02538">
        <ele>228.8</ele>
        <time>2017-05-28T08:25:45.000Z</time>
      </trkpt>
      <trkpt lat="44.39113" lon="1.02541">
        <ele>228.9</ele>
        <time>2017-05-28T08:25:46.000Z</time>
      </trkpt>
      <trkpt lat="44.39114" lon="1.02544">
        <ele>229.1</ele>
        <time>2017-05-28T08:25:47.000Z</time>
      </trkpt>
      <trkpt lat="44.39115" lon="1.02546">
        <ele>229.2</ele>
        <time>2017-05-28T08:25:48.000Z</time>
      </trkpt>
      <trkpt lat="44.39116" lon="1.02549">
        <ele>229.3</ele>
        <time>2017-05-28T08:25:49.000Z</time>
      </trkpt>
      <trkpt lat="44.39118" lon="1.02552">
        <ele>229.5</ele>
        <time>2017-05-28T08:25:50.000Z</time>
      </trkpt>
      <trkpt lat="44.39119" lon="1.02555">
        <ele>229.6</ele>
        <time>2017-05-28T08:25:51.000Z</time>
      </trkpt>
      <trkpt lat="44.39121" lon="1.02557">
        <ele>229.8</ele>
        <time>2017-05-28T08:25:52.000Z</time>
      </trkpt>
      <trkpt lat="44.39122" lon="1.0256">
        <ele>229.9</ele>
        <time>2017-05-28T08:25:53.000Z</time>
      </trkpt>
      <trkpt lat="44.39124" lon="1.02563">
        <ele>230</ele>
        <time>2017-05-28T08:25:54.000Z</time>
      </trkpt>
      <trkpt lat="44.39126" lon="1.02566">
        <ele>230.2</ele>
        <time>2017-05-28T08:25:55.000Z</time>
      </trkpt>
      <trkpt lat="44.39129" lon="1.02568">
        <ele>230.3</ele>
        <time>2017-05-28T08:25:56.000Z</time>
      </trkpt>
      <trkpt lat="44.39131" lon="1.02571">
        <ele>230.4</ele>
        <time>2017-05-28T08:25:57.000Z</time>
      </trkpt>
      <trkpt lat="44.39133" lon="1.02573">
        <ele>230.5</ele>
        <time>2017-05-28T08:25:58.000Z</time>
      </trkpt>
      <trkpt lat="44.39136" lon="1.02575">
        <ele>230.7</ele>
        <time>2017-05-28T08:25:59.000Z</time>
      </trkpt>
      <trkpt lat="44.39138" lon="1.02577">
        <ele>230.7</ele>
        <time>2017-05-28T08:26:00.000Z</time>
      </trkpt>
      <trkpt lat="44.39141" lon="1.02579">
        <ele>230.8</ele>
        <time>2017-05-28T08:26:01.000Z</time>
      </trkpt>
      <trkpt lat="44.39143" lon="1.0258">
        <ele>230.9</ele>
        <time>2017-05-28T08:26:02.000Z</time>
      </trkpt>
      <trkpt lat="44.39145" lon="1.02582">
        <ele>231</ele>
        <time>2017-05-28T08:26:03.000Z</time>
      </trkpt>
      <trkpt lat="44.39148" lon="1.02583">
        <ele>231.1</ele>
        <time>2017-05-28T08:26:04.000Z</time>
      </trkpt>
      <trkpt lat="44.3915" lon="1.02584">
        <ele>230.9</ele>
        <time>2017-05-28T08:26:05.000Z</time>
      </trkpt>
      <trkpt lat="44.39153" lon="1.02586">
        <ele>230.5</ele>
        <time>2017-05-28T08:26:06.000Z</time>
      </trkpt>
      <trkpt lat="44.39155" lon="1.02588">
        <ele>230.1</ele>
        <time>2017-05-28T08:26:07.000Z</time>
      </trkpt>
      <trkpt lat="44.39158" lon="1.02591">
        <ele>229.7</ele>
        <time>2017-05-28T08:26:08.000Z</time>
      </trkpt>
      <trkpt lat="44.39161" lon="1.02593">
        <ele>229.3</ele>
        <time>2017-05-28T08:26:09.000Z</time>
      </trkpt>
      <trkpt lat="44.39164" lon="1.02595">
        <ele>229</ele>
        <time>2017-05-28T08:26:10.000Z</time>
      </trkpt>
      <trkpt lat="44.39167" lon="1.02597">
        <ele>228.7</ele>
        <time>2017-05-28T08:26:11.000Z</time>
      </trkpt>
      <trkpt lat="44.39169" lon="1.02599">
        <ele>228.6</ele>
        <time>2017-05-28T08:26:12.000Z</time>
      </trkpt>
      <trkpt lat="44.39171" lon="1.02602">
        <ele>228.6</ele>
        <time>2017-05-28T08:26:13.000Z</time>
      </trkpt>
      <trkpt lat="44.39173" lon="1.02604">
        <ele>228.5</ele>
        <time>2017-05-28T08:26:14.000Z</time>
      </trkpt>
      <trkpt lat="44.39175" lon="1.02606">
        <ele>228.5</ele>
        <time>2017-05-28T08:26:15.000Z</time>
      </trkpt>
      <trkpt lat="44.39177" lon="1.02608">
        <ele>228.5</ele>
        <time>2017-05-28T08:26:16.000Z</time>
      </trkpt>
      <trkpt lat="44.39178" lon="1.0261">
        <ele>228.5</ele>
        <time>2017-05-28T08:26:17.000Z</time>
      </trkpt>
      <trkpt lat="44.3918" lon="1.02611">
        <ele>228.6</ele>
        <time>2017-05-28T08:26:18.000Z</time>
      </trkpt>
      <trkpt lat="44.39182" lon="1.02613">
        <ele>228.6</ele>
        <time>2017-05-28T08:26:19.000Z</time>
      </trkpt>
      <trkpt lat="44.39184" lon="1.02614">
        <ele>228.7</ele>
        <time>2017-05-28T08:26:20.000Z</time>
      </trkpt>
      <trkpt lat="44.39186" lon="1.02616">
        <ele>228.8</ele>
        <time>2017-05-28T08:26:21.000Z</time>
      </trkpt>
      <trkpt lat="44.39188" lon="1.02617">
        <ele>229</ele>
        <time>2017-05-28T08:26:22.000Z</time>
      </trkpt>
      <trkpt lat="44.3919" lon="1.02618">
        <ele>229.1</ele>
        <time>2017-05-28T08:26:23.000Z</time>
      </trkpt>
      <trkpt lat="44.39192" lon="1.02619">
        <ele>229.3</ele>
        <time>2017-05-28T08:26:24.000Z</time>
      </trkpt>
      <trkpt lat="44.39194" lon="1.0262">
        <ele>229.4</ele>
        <time>2017-05-28T08:26:25.000Z</time>
      </trkpt>
      <trkpt lat="44.39196" lon="1.02621">
        <ele>229.6</ele>
        <time>2017-05-28T08:26:26.000Z</time>
      </trkpt>
      <trkpt lat="44.39197" lon="1.02622">
        <ele>229.8</ele>
        <time>2017-05-28T08:26:27.000Z</time>
      </trkpt>
      <trkpt lat="44.39199" lon="1.02623">
        <ele>230</ele>
        <time>2017-05-28T08:26:28.000Z</time>
      </trkpt>
      <trkpt lat="44.39201" lon="1.02624">
        <ele>230.2</ele>
        <time>2017-05-28T08:26:29.000Z</time>
      </trkpt>
      <trkpt lat="44.39203" lon="1.02625">
        <ele>230.4</ele>
        <time>2017-05-28T08:26:30.000Z</time>
      </trkpt>
      <trkpt lat="44.39205" lon="1.02626">
        <ele>230.5</ele>
        <time>2017-05-28T08:26:31.000Z</time>
      </trkpt>
      <trkpt lat="44.39207" lon="1.02628">
        <ele>230.8</ele>
        <time>2017-05-28T08:26:32.000Z</time>
      </trkpt>
      <trkpt lat="44.39209" lon="1.02629">
        <ele>231</ele>
        <time>2017-05-28T08:26:33.000Z</time>
      </trkpt>
      <trkpt lat="44.39211" lon="1.0263">
        <ele>231.2</ele>
        <time>2017-05-28T08:26:34.000Z</time>
      </trkpt>
      <trkpt lat="44.39213" lon="1.02632">
        <ele>231.5</ele>
        <time>2017-05-28T08:26:35.000Z</time>
      </trkpt>
      <trkpt lat="44.39215" lon="1.02633">
        <ele>231.8</ele>
        <time>2017-05-28T08:26:36.000Z</time>
      </trkpt>
      <trkpt lat="44.39217" lon="1.02635">
        <ele>232.2</ele>
        <time>2017-05-28T08:26:37.000Z</time>
      </trkpt>
      <trkpt lat="44.3922" lon="1.02637">
        <ele>232.5</ele>
        <time>2017-05-28T08:26:38.000Z</time>
      </trkpt>
      <trkpt lat="44.39223" lon="1.02638">
        <ele>232.9</ele>
        <time>2017-05-28T08:26:39.000Z</time>
      </trkpt>
      <trkpt lat="44.39225" lon="1.0264">
        <ele>233.3</ele>
        <time>2017-05-28T08:26:40.000Z</time>
      </trkpt>
      <trkpt lat="44.39228" lon="1.02641">
        <ele>233.8</ele>
        <time>2017-05-28T08:26:41.000Z</time>
      </trkpt>
      <trkpt lat="44.3923" lon="1.02642">
        <ele>234.1</ele>
        <time>2017-05-28T08:26:42.000Z</time>
      </trkpt>
      <trkpt lat="44.39232" lon="1.02643">
        <ele>234.4</ele>
        <time>2017-05-28T08:26:43.000Z</time>
      </trkpt>
      <trkpt lat="44.39233" lon="1.02643">
        <ele>234.7</ele>
        <time>2017-05-28T08:26:44.000Z</time>
      </trkpt>
      <trkpt lat="44.39235" lon="1.02644">
        <ele>235.1</ele>
        <time>2017-05-28T08:26:45.000Z</time>
      </trkpt>
      <trkpt lat="44.39238" lon="1.02646">
        <ele>235.5</ele>
        <time>2017-05-28T08:26:46.000Z</time>
      </trkpt>
      <trkpt lat="44.3924" lon="1.02647">
        <ele>236</ele>
        <time>2017-05-28T08:26:47.000Z</time>
      </trkpt>
      <trkpt lat="44.39242" lon="1.02648">
        <ele>236.4</ele>
        <time>2017-05-28T08:26:48.000Z</time>
      </trkpt>
      <trkpt lat="44.39245" lon="1.0265">
        <ele>236.9</ele>
        <time>2017-05-28T08:26:49.000Z</time>
      </trkpt>
      <trkpt lat="44.39247" lon="1.02651">
        <ele>237.4</ele>
        <time>2017-05-28T08:26:50.000Z</time>
      </trkpt>
      <trkpt lat="44.3925" lon="1.02653">
        <ele>238</ele>
        <time>2017-05-28T08:26:51.000Z</time>
      </trkpt>
      <trkpt lat="44.39253" lon="1.02654">
        <ele>238.2</ele>
        <time>2017-05-28T08:26:52.000Z</time>
      </trkpt>
      <trkpt lat="44.39256" lon="1.02656">
        <ele>238.5</ele>
        <time>2017-05-28T08:26:53.000Z</time>
      </trkpt>
      <trkpt lat="44.39259" lon="1.02657">
        <ele>238.8</ele>
        <time>2017-05-28T08:26:54.000Z</time>
      </trkpt>
      <trkpt lat="44.39262" lon="1.02659">
        <ele>239</ele>
        <time>2017-05-28T08:26:55.000Z</time>
      </trkpt>
      <trkpt lat="44.39266" lon="1.0266">
        <ele>239.3</ele>
        <time>2017-05-28T08:26:56.000Z</time>
      </trkpt>
      <trkpt lat="44.39269" lon="1.02662">
        <ele>239.6</ele>
        <time>2017-05-28T08:26:57.000Z</time>
      </trkpt>
      <trkpt lat="44.39272" lon="1.02664">
        <ele>239.9</ele>
        <time>2017-05-28T08:26:58.000Z</time>
      </trkpt>
      <trkpt lat="44.39276" lon="1.02666">
        <ele>240.2</ele>
        <time>2017-05-28T08:26:59.000Z</time>
      </trkpt>
      <trkpt lat="44.39279" lon="1.02668">
        <ele>240.3</ele>
        <time>2017-05-28T08:27:00.000Z</time>
      </trkpt>
      <trkpt lat="44.39282" lon="1.02669">
        <ele>240.3</ele>
        <time>2017-05-28T08:27:01.000Z</time>
      </trkpt>
      <trkpt lat="44.39285" lon="1.02671">
        <ele>240.3</ele>
        <time>2017-05-28T08:27:02.000Z</time>
      </trkpt>
      <trkpt lat="44.39289" lon="1.02673">
        <ele>240.3</ele>
        <time>2017-05-28T08:27:03.000Z</time>
      </trkpt>
      <trkpt lat="44.39291" lon="1.02675">
        <ele>240.3</ele>
        <time>2017-05-28T08:27:04.000Z</time>
      </trkpt>
      <trkpt lat="44.39294" lon="1.02677">
        <ele>240.3</ele>
        <time>2017-05-28T08:27:05.000Z</time>
      </trkpt>
      <trkpt lat="44.39297" lon="1.02679">
        <ele>240.4</ele>
        <time>2017-05-28T08:27:06.000Z</time>
      </trkpt>
      <trkpt lat="44.393" lon="1.02681">
        <ele>240.4</ele>
        <time>2017-05-28T08:27:07.000Z</time>
      </trkpt>
      <trkpt lat="44.39303" lon="1.02683">
        <ele>240.4</ele>
        <time>2017-05-28T08:27:08.000Z</time>
      </trkpt>
      <trkpt lat="44.39306" lon="1.02685">
        <ele>240.5</ele>
        <time>2017-05-28T08:27:09.000Z</time>
      </trkpt>
      <trkpt lat="44.39308" lon="1.02687">
        <ele>240.6</ele>
        <time>2017-05-28T08:27:10.000Z</time>
      </trkpt>
      <trkpt lat="44.39312" lon="1.02689">
        <ele>240.7</ele>
        <time>2017-05-28T08:27:11.000Z</time>
      </trkpt>
      <trkpt lat="44.39315" lon="1.02691">
        <ele>240.8</ele>
        <time>2017-05-28T08:27:12.000Z</time>
      </trkpt>
      <trkpt lat="44.39318" lon="1.02693">
        <ele>240.9</ele>
        <time>2017-05-28T08:27:13.000Z</time>
      </trkpt>
      <trkpt lat="44.39322" lon="1.02695">
        <ele>241.1</ele>
        <time>2017-05-28T08:27:14.000Z</time>
      </trkpt>
      <trkpt lat="44.39325" lon="1.02696">
        <ele>241.3</ele>
        <time>2017-05-28T08:27:15.000Z</time>
      </trkpt>
      <trkpt lat="44.39328" lon="1.02697">
        <ele>241.5</ele>
        <time>2017-05-28T08:27:16.000Z</time>
      </trkpt>
      <trkpt lat="44.39331" lon="1.02699">
        <ele>241.7</ele>
        <time>2017-05-28T08:27:17.000Z</time>
      </trkpt>
      <trkpt lat="44.39334" lon="1.027">
        <ele>241.8</ele>
        <time>2017-05-28T08:27:18.000Z</time>
      </trkpt>
      <trkpt lat="44.39337" lon="1.02702">
        <ele>242</ele>
        <time>2017-05-28T08:27:19.000Z</time>
      </trkpt>
      <trkpt lat="44.3934" lon="1.02703">
        <ele>242.1</ele>
        <time>2017-05-28T08:27:20.000Z</time>
      </trkpt>
      <trkpt lat="44.39343" lon="1.02705">
        <ele>242.2</ele>
        <time>2017-05-28T08:27:21.000Z</time>
      </trkpt>
      <trkpt lat="44.39346" lon="1.02707">
        <ele>242.3</ele>
        <time>2017-05-28T08:27:22.000Z</time>
      </trkpt>
      <trkpt lat="44.39349" lon="1.02708">
        <ele>242.5</ele>
        <time>2017-05-28T08:27:23.000Z</time>
      </trkpt>
      <trkpt lat="44.39352" lon="1.0271">
        <ele>242.6</ele>
        <time>2017-05-28T08:27:24.000Z</time>
      </trkpt>
      <trkpt lat="44.39355" lon="1.02712">
        <ele>242.7</ele>
        <time>2017-05-28T08:27:25.000Z</time>
      </trkpt>
      <trkpt lat="44.39358" lon="1.02713">
        <ele>242.9</ele>
        <time>2017-05-28T08:27:26.000Z</time>
      </trkpt>
      <trkpt lat="44.39361" lon="1.02715">
        <ele>243</ele>
        <time>2017-05-28T08:27:27.000Z</time>
      </trkpt>
      <trkpt lat="44.39364" lon="1.02717">
        <ele>243.2</ele>
        <time>2017-05-28T08:27:28.000Z</time>
      </trkpt>
      <trkpt lat="44.39367" lon="1.02718">
        <ele>243.4</ele>
        <time>2017-05-28T08:27:29.000Z</time>
      </trkpt>
      <trkpt lat="44.3937" lon="1.0272">
        <ele>243.6</ele>
        <time>2017-05-28T08:27:30.000Z</time>
      </trkpt>
      <trkpt lat="44.39373" lon="1.02722">
        <ele>243.7</ele>
        <time>2017-05-28T08:27:31.000Z</time>
      </trkpt>
      <trkpt lat="44.39376" lon="1.02723">
        <ele>243.9</ele>
        <time>2017-05-28T08:27:32.000Z</time>
      </trkpt>
      <trkpt lat="44.39379" lon="1.02725">
        <ele>244.1</ele>
        <time>2017-05-28T08:27:33.000Z</time>
      </trkpt>
      <trkpt lat="44.39382" lon="1.02727">
        <ele>244.3</ele>
        <time>2017-05-28T08:27:34.000Z</time>
      </trkpt>
      <trkpt lat="44.39385" lon="1.02729">
        <ele>244.4</ele>
        <time>2017-05-28T08:27:35.000Z</time>
      </trkpt>
      <trkpt lat="44.39387" lon="1.02731">
        <ele>244.6</ele>
        <time>2017-05-28T08:27:36.000Z</time>
      </trkpt>
      <trkpt lat="44.3939" lon="1.02732">
        <ele>244.8</ele>
        <time>2017-05-28T08:27:37.000Z</time>
      </trkpt>
      <trkpt lat="44.39393" lon="1.02734">
        <ele>245</ele>
        <time>2017-05-28T08:27:38.000Z</time>
      </trkpt>
      <trkpt lat="44.39396" lon="1.02736">
        <ele>245.2</ele>
        <time>2017-05-28T08:27:39.000Z</time>
      </trkpt>
      <trkpt lat="44.39399" lon="1.02738">
        <ele>245.5</ele>
        <time>2017-05-28T08:27:40.000Z</time>
      </trkpt>
      <trkpt lat="44.39402" lon="1.0274">
        <ele>245.7</ele>
        <time>2017-05-28T08:27:41.000Z</time>
      </trkpt>
      <trkpt lat="44.39405" lon="1.02742">
        <ele>246</ele>
        <time>2017-05-28T08:27:42.000Z</time>
      </trkpt>
      <trkpt lat="44.39408" lon="1.02743">
        <ele>246.2</ele>
        <time>2017-05-28T08:27:43.000Z</time>
      </trkpt>
      <trkpt lat="44.39411" lon="1.02745">
        <ele>246.5</ele>
        <time>2017-05-28T08:27:44.000Z</time>
      </trkpt>
      <trkpt lat="44.39414" lon="1.02746">
        <ele>246.8</ele>
        <time>2017-05-28T08:27:45.000Z</time>
      </trkpt>
      <trkpt lat="44.39418" lon="1.02748">
        <ele>247</ele>
        <time>2017-05-28T08:27:46.000Z</time>
      </trkpt>
      <trkpt lat="44.39421" lon="1.02749">
        <ele>247</ele>
        <time>2017-05-28T08:27:47.000Z</time>
      </trkpt>
      <trkpt lat="44.39424" lon="1.0275">
        <ele>247.1</ele>
        <time>2017-05-28T08:27:48.000Z</time>
      </trkpt>
      <trkpt lat="44.39428" lon="1.02751">
        <ele>247</ele>
        <time>2017-05-28T08:27:49.000Z</time>
      </trkpt>
      <trkpt lat="44.39431" lon="1.02753">
        <ele>246.9</ele>
        <time>2017-05-28T08:27:50.000Z</time>
      </trkpt>
      <trkpt lat="44.39434" lon="1.02755">
        <ele>246.7</ele>
        <time>2017-05-28T08:27:51.000Z</time>
      </trkpt>
      <trkpt lat="44.39437" lon="1.02757">
        <ele>246.5</ele>
        <time>2017-05-28T08:27:52.000Z</time>
      </trkpt>
      <trkpt lat="44.39441" lon="1.02759">
        <ele>246.3</ele>
        <time>2017-05-28T08:27:53.000Z</time>
      </trkpt>
      <trkpt lat="44.39444" lon="1.02761">
        <ele>246.1</ele>
        <time>2017-05-28T08:27:54.000Z</time>
      </trkpt>
      <trkpt lat="44.39448" lon="1.02764">
        <ele>246</ele>
        <time>2017-05-28T08:27:55.000Z</time>
      </trkpt>
      <trkpt lat="44.39452" lon="1.02766">
        <ele>245.9</ele>
        <time>2017-05-28T08:27:56.000Z</time>
      </trkpt>
      <trkpt lat="44.39456" lon="1.02768">
        <ele>245.8</ele>
        <time>2017-05-28T08:27:57.000Z</time>
      </trkpt>
      <trkpt lat="44.3946" lon="1.02771">
        <ele>245.7</ele>
        <time>2017-05-28T08:27:58.000Z</time>
      </trkpt>
      <trkpt lat="44.39464" lon="1.02773">
        <ele>245.6</ele>
        <time>2017-05-28T08:27:59.000Z</time>
      </trkpt>
      <trkpt lat="44.39468" lon="1.02776">
        <ele>245.5</ele>
        <time>2017-05-28T08:28:00.000Z</time>
      </trkpt>
      <trkpt lat="44.39471" lon="1.02778">
        <ele>245.5</ele>
        <time>2017-05-28T08:28:01.000Z</time>
      </trkpt>
      <trkpt lat="44.39475" lon="1.02781">
        <ele>245.5</ele>
        <time>2017-05-28T08:28:02.000Z</time>
      </trkpt>
      <trkpt lat="44.39478" lon="1.02783">
        <ele>245.4</ele>
        <time>2017-05-28T08:28:03.000Z</time>
      </trkpt>
      <trkpt lat="44.39482" lon="1.02785">
        <ele>245.5</ele>
        <time>2017-05-28T08:28:04.000Z</time>
      </trkpt>
      <trkpt lat="44.39486" lon="1.02787">
        <ele>245.5</ele>
        <time>2017-05-28T08:28:05.000Z</time>
      </trkpt>
      <trkpt lat="44.3949" lon="1.0279">
        <ele>245.6</ele>
        <time>2017-05-28T08:28:06.000Z</time>
      </trkpt>
      <trkpt lat="44.39494" lon="1.02792">
        <ele>245.7</ele>
        <time>2017-05-28T08:28:07.000Z</time>
      </trkpt>
      <trkpt lat="44.39498" lon="1.02794">
        <ele>245.7</ele>
        <time>2017-05-28T08:28:08.000Z</time>
      </trkpt>
      <trkpt lat="44.39502" lon="1.02797">
        <ele>245.8</ele>
        <time>2017-05-28T08:28:09.000Z</time>
      </trkpt>
      <trkpt lat="44.39506" lon="1.02799">
        <ele>245.7</ele>
        <time>2017-05-28T08:28:10.000Z</time>
      </trkpt>
      <trkpt lat="44.39509" lon="1.02802">
        <ele>245.6</ele>
        <time>2017-05-28T08:28:11.000Z</time>
      </trkpt>
      <trkpt lat="44.39513" lon="1.02804">
        <ele>245.5</ele>
        <time>2017-05-28T08:28:12.000Z</time>
      </trkpt>
      <trkpt lat="44.39517" lon="1.02807">
        <ele>245.4</ele>
        <time>2017-05-28T08:28:13.000Z</time>
      </trkpt>
      <trkpt lat="44.39521" lon="1.0281">
        <ele>245.3</ele>
        <time>2017-05-28T08:28:14.000Z</time>
      </trkpt>
      <trkpt lat="44.39525" lon="1.02813">
        <ele>245.2</ele>
        <time>2017-05-28T08:28:15.000Z</time>
      </trkpt>
      <trkpt lat="44.39529" lon="1.02815">
        <ele>245.1</ele>
        <time>2017-05-28T08:28:16.000Z</time>
      </trkpt>
      <trkpt lat="44.39533" lon="1.02818">
        <ele>245.1</ele>
        <time>2017-05-28T08:28:17.000Z</time>
      </trkpt>
      <trkpt lat="44.39537" lon="1.02821">
        <ele>245</ele>
        <time>2017-05-28T08:28:18.000Z</time>
      </trkpt>
      <trkpt lat="44.39541" lon="1.02824">
        <ele>244.9</ele>
        <time>2017-05-28T08:28:19.000Z</time>
      </trkpt>
      <trkpt lat="44.39546" lon="1.02827">
        <ele>244.8</ele>
        <time>2017-05-28T08:28:20.000Z</time>
      </trkpt>
      <trkpt lat="44.3955" lon="1.0283">
        <ele>244.7</ele>
        <time>2017-05-28T08:28:21.000Z</time>
      </trkpt>
      <trkpt lat="44.39555" lon="1.02833">
        <ele>244.7</ele>
        <time>2017-05-28T08:28:22.000Z</time>
      </trkpt>
      <trkpt lat="44.3956" lon="1.02836">
        <ele>244.4</ele>
        <time>2017-05-28T08:28:23.000Z</time>
      </trkpt>
      <trkpt lat="44.39565" lon="1.02839">
        <ele>244.1</ele>
        <time>2017-05-28T08:28:24.000Z</time>
      </trkpt>
      <trkpt lat="44.3957" lon="1.02843">
        <ele>243.8</ele>
        <time>2017-05-28T08:28:25.000Z</time>
      </trkpt>
      <trkpt lat="44.39576" lon="1.02846">
        <ele>243.5</ele>
        <time>2017-05-28T08:28:26.000Z</time>
      </trkpt>
      <trkpt lat="44.39581" lon="1.02849">
        <ele>243.4</ele>
        <time>2017-05-28T08:28:27.000Z</time>
      </trkpt>
      <trkpt lat="44.39587" lon="1.02853">
        <ele>243.2</ele>
        <time>2017-05-28T08:28:28.000Z</time>
      </trkpt>
      <trkpt lat="44.39593" lon="1.02856">
        <ele>243</ele>
        <time>2017-05-28T08:28:29.000Z</time>
      </trkpt>
      <trkpt lat="44.39598" lon="1.02858">
        <ele>242.9</ele>
        <time>2017-05-28T08:28:30.000Z</time>
      </trkpt>
      <trkpt lat="44.39604" lon="1.02861">
        <ele>242.8</ele>
        <time>2017-05-28T08:28:31.000Z</time>
      </trkpt>
      <trkpt lat="44.39609" lon="1.02863">
        <ele>242.7</ele>
        <time>2017-05-28T08:28:32.000Z</time>
      </trkpt>
      <trkpt lat="44.39614" lon="1.02866">
        <ele>242.7</ele>
        <time>2017-05-28T08:28:33.000Z</time>
      </trkpt>
      <trkpt lat="44.39619" lon="1.02868">
        <ele>242.7</ele>
        <time>2017-05-28T08:28:34.000Z</time>
      </trkpt>
      <trkpt lat="44.39623" lon="1.02871">
        <ele>242.6</ele>
        <time>2017-05-28T08:28:35.000Z</time>
      </trkpt>
      <trkpt lat="44.39628" lon="1.02874">
        <ele>242.6</ele>
        <time>2017-05-28T08:28:36.000Z</time>
      </trkpt>
      <trkpt lat="44.39632" lon="1.02878">
        <ele>242.6</ele>
        <time>2017-05-28T08:28:37.000Z</time>
      </trkpt>
      <trkpt lat="44.39636" lon="1.02882">
        <ele>242.6</ele>
        <time>2017-05-28T08:28:38.000Z</time>
      </trkpt>
      <trkpt lat="44.39639" lon="1.02886">
        <ele>242.6</ele>
        <time>2017-05-28T08:28:39.000Z</time>
      </trkpt>
      <trkpt lat="44.39642" lon="1.02891">
        <ele>242.6</ele>
        <time>2017-05-28T08:28:40.000Z</time>
      </trkpt>
      <trkpt lat="44.39644" lon="1.02896">
        <ele>242.6</ele>
        <time>2017-05-28T08:28:41.000Z</time>
      </trkpt>
      <trkpt lat="44.39646" lon="1.02902">
        <ele>242.6</ele>
        <time>2017-05-28T08:28:42.000Z</time>
      </trkpt>
      <trkpt lat="44.39648" lon="1.02909">
        <ele>242.6</ele>
        <time>2017-05-28T08:28:43.000Z</time>
      </trkpt>
      <trkpt lat="44.39649" lon="1.02915">
        <ele>242.5</ele>
        <time>2017-05-28T08:28:44.000Z</time>
      </trkpt>
      <trkpt lat="44.3965" lon="1.02921">
        <ele>242.5</ele>
        <time>2017-05-28T08:28:45.000Z</time>
      </trkpt>
      <trkpt lat="44.39653" lon="1.02926">
        <ele>242.7</ele>
        <time>2017-05-28T08:28:46.000Z</time>
      </trkpt>
      <trkpt lat="44.39656" lon="1.02929">
        <ele>243</ele>
        <time>2017-05-28T08:28:47.000Z</time>
      </trkpt>
      <trkpt lat="44.39661" lon="1.0293">
        <ele>243.4</ele>
        <time>2017-05-28T08:28:48.000Z</time>
      </trkpt>
      <trkpt lat="44.39665" lon="1.02931">
        <ele>243.9</ele>
        <time>2017-05-28T08:28:49.000Z</time>
      </trkpt>
      <trkpt lat="44.3967" lon="1.02931">
        <ele>243.9</ele>
        <time>2017-05-28T08:28:50.000Z</time>
      </trkpt>
      <trkpt lat="44.39675" lon="1.02931">
        <ele>243.8</ele>
        <time>2017-05-28T08:28:51.000Z</time>
      </trkpt>
      <trkpt lat="44.39679" lon="1.02931">
        <ele>243.8</ele>
        <time>2017-05-28T08:28:52.000Z</time>
      </trkpt>
      <trkpt lat="44.39683" lon="1.02931">
        <ele>243.7</ele>
        <time>2017-05-28T08:28:53.000Z</time>
      </trkpt>
      <trkpt lat="44.39686" lon="1.02931">
        <ele>243.6</ele>
        <time>2017-05-28T08:28:54.000Z</time>
      </trkpt>
      <trkpt lat="44.39689" lon="1.02931">
        <ele>243.6</ele>
        <time>2017-05-28T08:28:55.000Z</time>
      </trkpt>
      <trkpt lat="44.39691" lon="1.02931">
        <ele>243.6</ele>
        <time>2017-05-28T08:28:56.000Z</time>
      </trkpt>
      <trkpt lat="44.39692" lon="1.02931">
        <ele>243.5</ele>
        <time>2017-05-28T08:28:57.000Z</time>
      </trkpt>
      <trkpt lat="44.39694" lon="1.02931">
        <ele>243.5</ele>
        <time>2017-05-28T08:28:58.000Z</time>
      </trkpt>
      <trkpt lat="44.39694" lon="1.02931">
        <ele>243.5</ele>
        <time>2017-05-28T08:28:59.000Z</time>
      </trkpt>
      <trkpt lat="44.39695" lon="1.02931">
        <ele>243.5</ele>
        <time>2017-05-28T08:29:00.000Z</time>
      </trkpt>
      <trkpt lat="44.39695" lon="1.02931">
        <ele>243.5</ele>
        <time>2017-05-28T08:29:01.000Z</time>
      </trkpt>
      <trkpt lat="44.39695" lon="1.02931">
        <ele>243.5</ele>
        <time>2017-05-28T08:29:02.000Z</time>
      </trkpt>
      <trkpt lat="44.39695" lon="1.02931">
        <ele>243.5</ele>
        <time>2017-05-28T08:29:03.000Z</time>
      </trkpt>
      <trkpt lat="44.39695" lon="1.02931">
        <ele>243.5</ele>
        <time>2017-05-28T08:29:04.000Z</time>
      </trkpt>
      <trkpt lat="44.39695" lon="1.02931">
        <ele>243.5</ele>
        <time>2017-05-28T08:29:05.000Z</time>
      </trkpt>
      <trkpt lat="44.39695" lon="1.02931">
        <ele>243.5</ele>
        <time>2017-05-28T08:29:06.000Z</time>
      </trkpt>
      <trkpt lat="44.39696" lon="1.02931">
        <ele>243.5</ele>
        <time>2017-05-28T08:29:07.000Z</time>
      </trkpt>
      <trkpt lat="44.39696" lon="1.02931">
        <ele>243.5</ele>
        <time>2017-05-28T08:29:08.000Z</time>
      </trkpt>
      <trkpt lat="44.39696" lon="1.02931">
        <ele>243.5</ele>
        <time>2017-05-28T08:29:09.000Z</time>
      </trkpt>
      <trkpt lat="44.39697" lon="1.02931">
        <ele>243.5</ele>
        <time>2017-05-28T08:29:10.000Z</time>
      </trkpt>
      <trkpt lat="44.39698" lon="1.0293">
        <ele>243.4</ele>
        <time>2017-05-28T08:29:11.000Z</time>
      </trkpt>
      <trkpt lat="44.397" lon="1.0293">
        <ele>243.4</ele>
        <time>2017-05-28T08:29:12.000Z</time>
      </trkpt>
      <trkpt lat="44.39703" lon="1.02928">
        <ele>243.4</ele>
        <time>2017-05-28T08:29:13.000Z</time>
      </trkpt>
      <trkpt lat="44.39706" lon="1.02926">
        <ele>243.4</ele>
        <time>2017-05-28T08:29:14.000Z</time>
      </trkpt>
      <trkpt lat="44.39707" lon="1.02924">
        <ele>243.4</ele>
        <time>2017-05-28T08:29:15.000Z</time>
      </trkpt>
      <trkpt lat="44.39707" lon="1.02922">
        <ele>243.4</ele>
        <time>2017-05-28T08:29:16.000Z</time>
      </trkpt>
      <trkpt lat="44.39707" lon="1.02919">
        <ele>243.5</ele>
        <time>2017-05-28T08:29:17.000Z</time>
      </trkpt>
      <trkpt lat="44.39706" lon="1.02916">
        <ele>243.5</ele>
        <time>2017-05-28T08:29:18.000Z</time>
      </trkpt>
      <trkpt lat="44.39705" lon="1.02913">
        <ele>243.5</ele>
        <time>2017-05-28T08:29:19.000Z</time>
      </trkpt>
      <trkpt lat="44.39704" lon="1.0291">
        <ele>243.5</ele>
        <time>2017-05-28T08:29:20.000Z</time>
      </trkpt>
      <trkpt lat="44.39703" lon="1.02906">
        <ele>243.4</ele>
        <time>2017-05-28T08:29:21.000Z</time>
      </trkpt>
      <trkpt lat="44.39702" lon="1.02902">
        <ele>243.4</ele>
        <time>2017-05-28T08:29:22.000Z</time>
      </trkpt>
      <trkpt lat="44.39701" lon="1.02898">
        <ele>243.4</ele>
        <time>2017-05-28T08:29:23.000Z</time>
      </trkpt>
      <trkpt lat="44.39699" lon="1.02894">
        <ele>243.4</ele>
        <time>2017-05-28T08:29:24.000Z</time>
      </trkpt>
      <trkpt lat="44.39698" lon="1.02889">
        <ele>243.4</ele>
        <time>2017-05-28T08:29:25.000Z</time>
      </trkpt>
      <trkpt lat="44.39696" lon="1.02884">
        <ele>243.4</ele>
        <time>2017-05-28T08:29:26.000Z</time>
      </trkpt>
      <trkpt lat="44.39694" lon="1.02879">
        <ele>243.4</ele>
        <time>2017-05-28T08:29:27.000Z</time>
      </trkpt>
      <trkpt lat="44.39692" lon="1.02873">
        <ele>243.4</ele>
        <time>2017-05-28T08:29:28.000Z</time>
      </trkpt>
      <trkpt lat="44.39691" lon="1.02868">
        <ele>243.4</ele>
        <time>2017-05-28T08:29:29.000Z</time>
      </trkpt>
      <trkpt lat="44.39689" lon="1.02862">
        <ele>243.4</ele>
        <time>2017-05-28T08:29:30.000Z</time>
      </trkpt>
      <trkpt lat="44.39687" lon="1.02856">
        <ele>243.4</ele>
        <time>2017-05-28T08:29:31.000Z</time>
      </trkpt>
      <trkpt lat="44.39685" lon="1.0285">
        <ele>243.4</ele>
        <time>2017-05-28T08:29:32.000Z</time>
      </trkpt>
      <trkpt lat="44.39683" lon="1.02843">
        <ele>243.5</ele>
        <time>2017-05-28T08:29:33.000Z</time>
      </trkpt>
      <trkpt lat="44.39681" lon="1.02837">
        <ele>243.5</ele>
        <time>2017-05-28T08:29:34.000Z</time>
      </trkpt>
      <trkpt lat="44.39679" lon="1.0283">
        <ele>243.5</ele>
        <time>2017-05-28T08:29:35.000Z</time>
      </trkpt>
      <trkpt lat="44.39677" lon="1.02824">
        <ele>243.6</ele>
        <time>2017-05-28T08:29:36.000Z</time>
      </trkpt>
      <trkpt lat="44.39675" lon="1.02817">
        <ele>243.6</ele>
        <time>2017-05-28T08:29:37.000Z</time>
      </trkpt>
      <trkpt lat="44.39673" lon="1.02811">
        <ele>243.7</ele>
        <time>2017-05-28T08:29:38.000Z</time>
      </trkpt>
      <trkpt lat="44.39671" lon="1.02804">
        <ele>243.8</ele>
        <time>2017-05-28T08:29:39.000Z</time>
      </trkpt>
      <trkpt lat="44.39669" lon="1.02798">
        <ele>243.9</ele>
        <time>2017-05-28T08:29:40.000Z</time>
      </trkpt>
      <trkpt lat="44.39667" lon="1.02792">
        <ele>244</ele>
        <time>2017-05-28T08:29:41.000Z</time>
      </trkpt>
      <trkpt lat="44.39665" lon="1.02786">
        <ele>244</ele>
        <time>2017-05-28T08:29:42.000Z</time>
      </trkpt>
      <trkpt lat="44.39664" lon="1.02779">
        <ele>244.1</ele>
        <time>2017-05-28T08:29:43.000Z</time>
      </trkpt>
      <trkpt lat="44.39662" lon="1.02773">
        <ele>244.2</ele>
        <time>2017-05-28T08:29:44.000Z</time>
      </trkpt>
      <trkpt lat="44.3966" lon="1.02767">
        <ele>244.3</ele>
        <time>2017-05-28T08:29:45.000Z</time>
      </trkpt>
      <trkpt lat="44.39658" lon="1.02761">
        <ele>244.4</ele>
        <time>2017-05-28T08:29:46.000Z</time>
      </trkpt>
      <trkpt lat="44.39656" lon="1.02755">
        <ele>244.5</ele>
        <time>2017-05-28T08:29:47.000Z</time>
      </trkpt>
      <trkpt lat="44.39654" lon="1.02748">
        <ele>244.6</ele>
        <time>2017-05-28T08:29:48.000Z</time>
      </trkpt>
      <trkpt lat="44.39653" lon="1.02742">
        <ele>244.8</ele>
        <time>2017-05-28T08:29:49.000Z</time>
      </trkpt>
      <trkpt lat="44.39651" lon="1.02736">
        <ele>245</ele>
        <time>2017-05-28T08:29:50.000Z</time>
      </trkpt>
      <trkpt lat="44.39649" lon="1.02729">
        <ele>245.1</ele>
        <time>2017-05-28T08:29:51.000Z</time>
      </trkpt>
      <trkpt lat="44.39648" lon="1.02723">
        <ele>245.3</ele>
        <time>2017-05-28T08:29:52.000Z</time>
      </trkpt>
      <trkpt lat="44.39646" lon="1.02717">
        <ele>245.5</ele>
        <time>2017-05-28T08:29:53.000Z</time>
      </trkpt>
      <trkpt lat="44.39644" lon="1.0271">
        <ele>245.7</ele>
        <time>2017-05-28T08:29:54.000Z</time>
      </trkpt>
      <trkpt lat="44.39643" lon="1.02704">
        <ele>245.9</ele>
        <time>2017-05-28T08:29:55.000Z</time>
      </trkpt>
      <trkpt lat="44.39641" lon="1.02698">
        <ele>246</ele>
        <time>2017-05-28T08:29:56.000Z</time>
      </trkpt>
      <trkpt lat="44.39639" lon="1.02692">
        <ele>246.2</ele>
        <time>2017-05-28T08:29:57.000Z</time>
      </trkpt>
      <trkpt lat="44.39638" lon="1.02686">
        <ele>246.4</ele>
        <time>2017-05-28T08:29:58.000Z</time>
      </trkpt>
      <trkpt lat="44.39636" lon="1.0268">
        <ele>246.6</ele>
        <time>2017-05-28T08:29:59.000Z</time>
      </trkpt>
      <trkpt lat="44.39634" lon="1.02673">
        <ele>246.8</ele>
        <time>2017-05-28T08:30:00.000Z</time>
      </trkpt>
      <trkpt lat="44.39632" lon="1.02667">
        <ele>247.1</ele>
        <time>2017-05-28T08:30:01.000Z</time>
      </trkpt>
      <trkpt lat="44.3963" lon="1.0266">
        <ele>247.1</ele>
        <time>2017-05-28T08:30:02.000Z</time>
      </trkpt>
      <trkpt lat="44.39629" lon="1.02653">
        <ele>247</ele>
        <time>2017-05-28T08:30:03.000Z</time>
      </trkpt>
      <trkpt lat="44.39627" lon="1.02646">
        <ele>247</ele>
        <time>2017-05-28T08:30:04.000Z</time>
      </trkpt>
      <trkpt lat="44.39625" lon="1.0264">
        <ele>247</ele>
        <time>2017-05-28T08:30:05.000Z</time>
      </trkpt>
      <trkpt lat="44.39623" lon="1.02633">
        <ele>247</ele>
        <time>2017-05-28T08:30:06.000Z</time>
      </trkpt>
      <trkpt lat="44.39621" lon="1.02626">
        <ele>247</ele>
        <time>2017-05-28T08:30:07.000Z</time>
      </trkpt>
      <trkpt lat="44.39619" lon="1.0262">
        <ele>247</ele>
        <time>2017-05-28T08:30:08.000Z</time>
      </trkpt>
      <trkpt lat="44.39617" lon="1.02614">
        <ele>247</ele>
        <time>2017-05-28T08:30:09.000Z</time>
      </trkpt>
      <trkpt lat="44.39616" lon="1.02609">
        <ele>246.9</ele>
        <time>2017-05-28T08:30:10.000Z</time>
      </trkpt>
      <trkpt lat="44.39617" lon="1.02605">
        <ele>246.8</ele>
        <time>2017-05-28T08:30:11.000Z</time>
      </trkpt>
      <trkpt lat="44.39619" lon="1.02601">
        <ele>246.6</ele>
        <time>2017-05-28T08:30:12.000Z</time>
      </trkpt>
      <trkpt lat="44.39622" lon="1.02599">
        <ele>246.4</ele>
        <time>2017-05-28T08:30:13.000Z</time>
      </trkpt>
      <trkpt lat="44.39626" lon="1.02597">
        <ele>246.2</ele>
        <time>2017-05-28T08:30:14.000Z</time>
      </trkpt>
      <trkpt lat="44.3963" lon="1.02596">
        <ele>246</ele>
        <time>2017-05-28T08:30:15.000Z</time>
      </trkpt>
      <trkpt lat="44.39633" lon="1.02595">
        <ele>245.8</ele>
        <time>2017-05-28T08:30:16.000Z</time>
      </trkpt>
      <trkpt lat="44.39637" lon="1.02594">
        <ele>245.6</ele>
        <time>2017-05-28T08:30:17.000Z</time>
      </trkpt>
      <trkpt lat="44.39641" lon="1.02593">
        <ele>245.4</ele>
        <time>2017-05-28T08:30:18.000Z</time>
      </trkpt>
      <trkpt lat="44.39646" lon="1.02591">
        <ele>245.1</ele>
        <time>2017-05-28T08:30:19.000Z</time>
      </trkpt>
      <trkpt lat="44.39651" lon="1.02588">
        <ele>244.8</ele>
        <time>2017-05-28T08:30:20.000Z</time>
      </trkpt>
      <trkpt lat="44.39656" lon="1.02586">
        <ele>244.6</ele>
        <time>2017-05-28T08:30:21.000Z</time>
      </trkpt>
      <trkpt lat="44.39661" lon="1.02583">
        <ele>244.3</ele>
        <time>2017-05-28T08:30:22.000Z</time>
      </trkpt>
      <trkpt lat="44.39665" lon="1.02581">
        <ele>244</ele>
        <time>2017-05-28T08:30:23.000Z</time>
      </trkpt>
      <trkpt lat="44.3967" lon="1.02579">
        <ele>243.7</ele>
        <time>2017-05-28T08:30:24.000Z</time>
      </trkpt>
      <trkpt lat="44.39675" lon="1.02577">
        <ele>243.5</ele>
        <time>2017-05-28T08:30:25.000Z</time>
      </trkpt>
      <trkpt lat="44.3968" lon="1.02576">
        <ele>243.4</ele>
        <time>2017-05-28T08:30:26.000Z</time>
      </trkpt>
      <trkpt lat="44.39685" lon="1.02574">
        <ele>243.2</ele>
        <time>2017-05-28T08:30:27.000Z</time>
      </trkpt>
      <trkpt lat="44.3969" lon="1.02572">
        <ele>243.1</ele>
        <time>2017-05-28T08:30:28.000Z</time>
      </trkpt>
      <trkpt lat="44.39695" lon="1.02569">
        <ele>242.9</ele>
        <time>2017-05-28T08:30:29.000Z</time>
      </trkpt>
      <trkpt lat="44.397" lon="1.02567">
        <ele>242.8</ele>
        <time>2017-05-28T08:30:30.000Z</time>
      </trkpt>
      <trkpt lat="44.39705" lon="1.02564">
        <ele>242.7</ele>
        <time>2017-05-28T08:30:31.000Z</time>
      </trkpt>
      <trkpt lat="44.39711" lon="1.02561">
        <ele>242.6</ele>
        <time>2017-05-28T08:30:32.000Z</time>
      </trkpt>
      <trkpt lat="44.39716" lon="1.02558">
        <ele>242.5</ele>
        <time>2017-05-28T08:30:33.000Z</time>
      </trkpt>
      <trkpt lat="44.39721" lon="1.02555">
        <ele>242.4</ele>
        <time>2017-05-28T08:30:34.000Z</time>
      </trkpt>
      <trkpt lat="44.39726" lon="1.02552">
        <ele>242.4</ele>
        <time>2017-05-28T08:30:35.000Z</time>
      </trkpt>
      <trkpt lat="44.39731" lon="1.02548">
        <ele>242.4</ele>
        <time>2017-05-28T08:30:36.000Z</time>
      </trkpt>
      <trkpt lat="44.39736" lon="1.02545">
        <ele>242.4</ele>
        <time>2017-05-28T08:30:37.000Z</time>
      </trkpt>
      <trkpt lat="44.39741" lon="1.02541">
        <ele>242.5</ele>
        <time>2017-05-28T08:30:38.000Z</time>
      </trkpt>
      <trkpt lat="44.39746" lon="1.02538">
        <ele>242.5</ele>
        <time>2017-05-28T08:30:39.000Z</time>
      </trkpt>
      <trkpt lat="44.39751" lon="1.02534">
        <ele>242.6</ele>
        <time>2017-05-28T08:30:40.000Z</time>
      </trkpt>
      <trkpt lat="44.39756" lon="1.02531">
        <ele>242.5</ele>
        <time>2017-05-28T08:30:41.000Z</time>
      </trkpt>
      <trkpt lat="44.39761" lon="1.02528">
        <ele>242.4</ele>
        <time>2017-05-28T08:30:42.000Z</time>
      </trkpt>
      <trkpt lat="44.39765" lon="1.02526">
        <ele>242.3</ele>
        <time>2017-05-28T08:30:43.000Z</time>
      </trkpt>
      <trkpt lat="44.3977" lon="1.02524">
        <ele>242.2</ele>
        <time>2017-05-28T08:30:44.000Z</time>
      </trkpt>
      <trkpt lat="44.39775" lon="1.02522">
        <ele>242.1</ele>
        <time>2017-05-28T08:30:45.000Z</time>
      </trkpt>
      <trkpt lat="44.3978" lon="1.0252">
        <ele>242</ele>
        <time>2017-05-28T08:30:46.000Z</time>
      </trkpt>
      <trkpt lat="44.39785" lon="1.02518">
        <ele>241.9</ele>
        <time>2017-05-28T08:30:47.000Z</time>
      </trkpt>
      <trkpt lat="44.3979" lon="1.02517">
        <ele>241.8</ele>
        <time>2017-05-28T08:30:48.000Z</time>
      </trkpt>
      <trkpt lat="44.39796" lon="1.02515">
        <ele>241.7</ele>
        <time>2017-05-28T08:30:49.000Z</time>
      </trkpt>
      <trkpt lat="44.39802" lon="1.02513">
        <ele>241.6</ele>
        <time>2017-05-28T08:30:50.000Z</time>
      </trkpt>
      <trkpt lat="44.39808" lon="1.02512">
        <ele>241.5</ele>
        <time>2017-05-28T08:30:51.000Z</time>
      </trkpt>
      <trkpt lat="44.39814" lon="1.0251">
        <ele>241.3</ele>
        <time>2017-05-28T08:30:52.000Z</time>
      </trkpt>
      <trkpt lat="44.39821" lon="1.02509">
        <ele>241.2</ele>
        <time>2017-05-28T08:30:53.000Z</time>
      </trkpt>
      <trkpt lat="44.39827" lon="1.02508">
        <ele>241.1</ele>
        <time>2017-05-28T08:30:54.000Z</time>
      </trkpt>
      <trkpt lat="44.39834" lon="1.02506">
        <ele>240.9</ele>
        <time>2017-05-28T08:30:55.000Z</time>
      </trkpt>
      <trkpt lat="44.39842" lon="1.02506">
        <ele>240.6</ele>
        <time>2017-05-28T08:30:56.000Z</time>
      </trkpt>
      <trkpt lat="44.39849" lon="1.02505">
        <ele>240.4</ele>
        <time>2017-05-28T08:30:57.000Z</time>
      </trkpt>
      <trkpt lat="44.39857" lon="1.02504">
        <ele>240.1</ele>
        <time>2017-05-28T08:30:58.000Z</time>
      </trkpt>
      <trkpt lat="44.39864" lon="1.02504">
        <ele>239.8</ele>
        <time>2017-05-28T08:30:59.000Z</time>
      </trkpt>
      <trkpt lat="44.39871" lon="1.02503">
        <ele>239.6</ele>
        <time>2017-05-28T08:31:00.000Z</time>
      </trkpt>
      <trkpt lat="44.39878" lon="1.02502">
        <ele>239.3</ele>
        <time>2017-05-28T08:31:01.000Z</time>
      </trkpt>
      <trkpt lat="44.39885" lon="1.025">
        <ele>239.1</ele>
        <time>2017-05-28T08:31:02.000Z</time>
      </trkpt>
      <trkpt lat="44.39891" lon="1.02498">
        <ele>238.9</ele>
        <time>2017-05-28T08:31:03.000Z</time>
      </trkpt>
      <trkpt lat="44.39897" lon="1.02495">
        <ele>238.6</ele>
        <time>2017-05-28T08:31:04.000Z</time>
      </trkpt>
      <trkpt lat="44.39903" lon="1.02492">
        <ele>238.3</ele>
        <time>2017-05-28T08:31:05.000Z</time>
      </trkpt>
      <trkpt lat="44.3991" lon="1.0249">
        <ele>238</ele>
        <time>2017-05-28T08:31:06.000Z</time>
      </trkpt>
      <trkpt lat="44.39916" lon="1.02488">
        <ele>237.7</ele>
        <time>2017-05-28T08:31:07.000Z</time>
      </trkpt>
      <trkpt lat="44.39923" lon="1.02488">
        <ele>237.1</ele>
        <time>2017-05-28T08:31:08.000Z</time>
      </trkpt>
      <trkpt lat="44.39928" lon="1.02488">
        <ele>236.6</ele>
        <time>2017-05-28T08:31:09.000Z</time>
      </trkpt>
      <trkpt lat="44.39932" lon="1.02491">
        <ele>236.2</ele>
        <time>2017-05-28T08:31:10.000Z</time>
      </trkpt>
      <trkpt lat="44.39935" lon="1.02496">
        <ele>236</ele>
        <time>2017-05-28T08:31:11.000Z</time>
      </trkpt>
      <trkpt lat="44.39938" lon="1.02501">
        <ele>235.6</ele>
        <time>2017-05-28T08:31:12.000Z</time>
      </trkpt>
      <trkpt lat="44.39942" lon="1.02504">
        <ele>234.8</ele>
        <time>2017-05-28T08:31:13.000Z</time>
      </trkpt>
      <trkpt lat="44.39948" lon="1.02506">
        <ele>234</ele>
        <time>2017-05-28T08:31:14.000Z</time>
      </trkpt>
      <trkpt lat="44.39955" lon="1.02505">
        <ele>233.2</ele>
        <time>2017-05-28T08:31:15.000Z</time>
      </trkpt>
      <trkpt lat="44.39963" lon="1.02504">
        <ele>232.5</ele>
        <time>2017-05-28T08:31:16.000Z</time>
      </trkpt>
      <trkpt lat="44.3997" lon="1.02501">
        <ele>232.1</ele>
        <time>2017-05-28T08:31:17.000Z</time>
      </trkpt>
      <trkpt lat="44.39976" lon="1.02498">
        <ele>231.7</ele>
        <time>2017-05-28T08:31:18.000Z</time>
      </trkpt>
      <trkpt lat="44.39982" lon="1.02494">
        <ele>231.1</ele>
        <time>2017-05-28T08:31:19.000Z</time>
      </trkpt>
      <trkpt lat="44.39987" lon="1.02489">
        <ele>230.7</ele>
        <time>2017-05-28T08:31:20.000Z</time>
      </trkpt>
      <trkpt lat="44.39992" lon="1.02486">
        <ele>230.3</ele>
        <time>2017-05-28T08:31:21.000Z</time>
      </trkpt>
      <trkpt lat="44.39997" lon="1.02482">
        <ele>229.9</ele>
        <time>2017-05-28T08:31:22.000Z</time>
      </trkpt>
      <trkpt lat="44.40003" lon="1.02479">
        <ele>229.1</ele>
        <time>2017-05-28T08:31:23.000Z</time>
      </trkpt>
      <trkpt lat="44.40008" lon="1.02475">
        <ele>227.7</ele>
        <time>2017-05-28T08:31:24.000Z</time>
      </trkpt>
      <trkpt lat="44.40013" lon="1.02471">
        <ele>226.5</ele>
        <time>2017-05-28T08:31:25.000Z</time>
      </trkpt>
      <trkpt lat="44.40019" lon="1.02466">
        <ele>225.4</ele>
        <time>2017-05-28T08:31:26.000Z</time>
      </trkpt>
      <trkpt lat="44.40024" lon="1.02461">
        <ele>224.3</ele>
        <time>2017-05-28T08:31:27.000Z</time>
      </trkpt>
      <trkpt lat="44.4003" lon="1.02457">
        <ele>223.3</ele>
        <time>2017-05-28T08:31:28.000Z</time>
      </trkpt>
      <trkpt lat="44.40036" lon="1.02453">
        <ele>222.3</ele>
        <time>2017-05-28T08:31:29.000Z</time>
      </trkpt>
      <trkpt lat="44.40042" lon="1.02449">
        <ele>221.3</ele>
        <time>2017-05-28T08:31:30.000Z</time>
      </trkpt>
      <trkpt lat="44.40049" lon="1.02445">
        <ele>220.3</ele>
        <time>2017-05-28T08:31:31.000Z</time>
      </trkpt>
      <trkpt lat="44.40056" lon="1.0244">
        <ele>219.3</ele>
        <time>2017-05-28T08:31:32.000Z</time>
      </trkpt>
      <trkpt lat="44.40064" lon="1.02436">
        <ele>218.4</ele>
        <time>2017-05-28T08:31:33.000Z</time>
      </trkpt>
      <trkpt lat="44.40072" lon="1.02431">
        <ele>217.6</ele>
        <time>2017-05-28T08:31:34.000Z</time>
      </trkpt>
      <trkpt lat="44.4008" lon="1.02425">
        <ele>217.1</ele>
        <time>2017-05-28T08:31:35.000Z</time>
      </trkpt>
      <trkpt lat="44.40087" lon="1.0242">
        <ele>216.1</ele>
        <time>2017-05-28T08:31:36.000Z</time>
      </trkpt>
      <trkpt lat="44.40095" lon="1.02414">
        <ele>214.3</ele>
        <time>2017-05-28T08:31:37.000Z</time>
      </trkpt>
      <trkpt lat="44.40101" lon="1.02409">
        <ele>212.4</ele>
        <time>2017-05-28T08:31:38.000Z</time>
      </trkpt>
      <trkpt lat="44.40107" lon="1.02404">
        <ele>210.8</ele>
        <time>2017-05-28T08:31:39.000Z</time>
      </trkpt>
      <trkpt lat="44.40113" lon="1.02399">
        <ele>209.3</ele>
        <time>2017-05-28T08:31:40.000Z</time>
      </trkpt>
      <trkpt lat="44.40118" lon="1.02394">
        <ele>207.9</ele>
        <time>2017-05-28T08:31:41.000Z</time>
      </trkpt>
      <trkpt lat="44.40124" lon="1.02389">
        <ele>206.7</ele>
        <time>2017-05-28T08:31:42.000Z</time>
      </trkpt>
      <trkpt lat="44.40129" lon="1.02383">
        <ele>205.6</ele>
        <time>2017-05-28T08:31:43.000Z</time>
      </trkpt>
      <trkpt lat="44.40135" lon="1.02377">
        <ele>204.5</ele>
        <time>2017-05-28T08:31:44.000Z</time>
      </trkpt>
      <trkpt lat="44.40141" lon="1.0237">
        <ele>203.4</ele>
        <time>2017-05-28T08:31:45.000Z</time>
      </trkpt>
      <trkpt lat="44.40148" lon="1.02363">
        <ele>202.4</ele>
        <time>2017-05-28T08:31:46.000Z</time>
      </trkpt>
      <trkpt lat="44.40154" lon="1.02356">
        <ele>201.2</ele>
        <time>2017-05-28T08:31:47.000Z</time>
      </trkpt>
      <trkpt lat="44.4016" lon="1.02353">
        <ele>200.1</ele>
        <time>2017-05-28T08:31:48.000Z</time>
      </trkpt>
      <trkpt lat="44.40165" lon="1.02353">
        <ele>198.9</ele>
        <time>2017-05-28T08:31:49.000Z</time>
      </trkpt>
      <trkpt lat="44.40169" lon="1.02356">
        <ele>197.7</ele>
        <time>2017-05-28T08:31:50.000Z</time>
      </trkpt>
      <trkpt lat="44.40173" lon="1.0236">
        <ele>196.4</ele>
        <time>2017-05-28T08:31:51.000Z</time>
      </trkpt>
      <trkpt lat="44.40179" lon="1.02363">
        <ele>195.1</ele>
        <time>2017-05-28T08:31:52.000Z</time>
      </trkpt>
      <trkpt lat="44.40185" lon="1.02364">
        <ele>194.1</ele>
        <time>2017-05-28T08:31:53.000Z</time>
      </trkpt>
      <trkpt lat="44.4019" lon="1.02362">
        <ele>193.5</ele>
        <time>2017-05-28T08:31:54.000Z</time>
      </trkpt>
      <trkpt lat="44.40194" lon="1.02357">
        <ele>193.3</ele>
        <time>2017-05-28T08:31:55.000Z</time>
      </trkpt>
      <trkpt lat="44.40198" lon="1.02349">
        <ele>193.2</ele>
        <time>2017-05-28T08:31:56.000Z</time>
      </trkpt>
      <trkpt lat="44.40202" lon="1.0234">
        <ele>193.2</ele>
        <time>2017-05-28T08:31:57.000Z</time>
      </trkpt>
      <trkpt lat="44.40206" lon="1.0233">
        <ele>192.9</ele>
        <time>2017-05-28T08:31:58.000Z</time>
      </trkpt>
      <trkpt lat="44.40211" lon="1.0232">
        <ele>191.9</ele>
        <time>2017-05-28T08:31:59.000Z</time>
      </trkpt>
      <trkpt lat="44.40215" lon="1.0231">
        <ele>191</ele>
        <time>2017-05-28T08:32:00.000Z</time>
      </trkpt>
      <trkpt lat="44.4022" lon="1.02301">
        <ele>190</ele>
        <time>2017-05-28T08:32:01.000Z</time>
      </trkpt>
      <trkpt lat="44.40226" lon="1.02293">
        <ele>189</ele>
        <time>2017-05-28T08:32:02.000Z</time>
      </trkpt>
      <trkpt lat="44.40232" lon="1.02285">
        <ele>188.1</ele>
        <time>2017-05-28T08:32:03.000Z</time>
      </trkpt>
      <trkpt lat="44.40238" lon="1.02279">
        <ele>187.2</ele>
        <time>2017-05-28T08:32:04.000Z</time>
      </trkpt>
      <trkpt lat="44.40244" lon="1.02272">
        <ele>186.3</ele>
        <time>2017-05-28T08:32:05.000Z</time>
      </trkpt>
      <trkpt lat="44.4025" lon="1.02266">
        <ele>185.6</ele>
        <time>2017-05-28T08:32:06.000Z</time>
      </trkpt>
      <trkpt lat="44.40256" lon="1.0226">
        <ele>185.4</ele>
        <time>2017-05-28T08:32:07.000Z</time>
      </trkpt>
      <trkpt lat="44.40261" lon="1.02254">
        <ele>185.2</ele>
        <time>2017-05-28T08:32:08.000Z</time>
      </trkpt>
      <trkpt lat="44.40267" lon="1.02249">
        <ele>185</ele>
        <time>2017-05-28T08:32:09.000Z</time>
      </trkpt>
      <trkpt lat="44.40272" lon="1.02244">
        <ele>184.8</ele>
        <time>2017-05-28T08:32:10.000Z</time>
      </trkpt>
      <trkpt lat="44.40277" lon="1.02239">
        <ele>184.6</ele>
        <time>2017-05-28T08:32:11.000Z</time>
      </trkpt>
      <trkpt lat="44.40282" lon="1.02235">
        <ele>184.4</ele>
        <time>2017-05-28T08:32:12.000Z</time>
      </trkpt>
      <trkpt lat="44.40287" lon="1.02231">
        <ele>184.3</ele>
        <time>2017-05-28T08:32:13.000Z</time>
      </trkpt>
      <trkpt lat="44.40292" lon="1.02227">
        <ele>184.2</ele>
        <time>2017-05-28T08:32:14.000Z</time>
      </trkpt>
      <trkpt lat="44.40297" lon="1.02223">
        <ele>184.1</ele>
        <time>2017-05-28T08:32:15.000Z</time>
      </trkpt>
      <trkpt lat="44.40302" lon="1.02218">
        <ele>184.2</ele>
        <time>2017-05-28T08:32:16.000Z</time>
      </trkpt>
      <trkpt lat="44.40306" lon="1.02212">
        <ele>184.3</ele>
        <time>2017-05-28T08:32:17.000Z</time>
      </trkpt>
      <trkpt lat="44.4031" lon="1.02206">
        <ele>184.5</ele>
        <time>2017-05-28T08:32:18.000Z</time>
      </trkpt>
      <trkpt lat="44.40314" lon="1.02201">
        <ele>184.8</ele>
        <time>2017-05-28T08:32:19.000Z</time>
      </trkpt>
      <trkpt lat="44.40318" lon="1.02196">
        <ele>185</ele>
        <time>2017-05-28T08:32:20.000Z</time>
      </trkpt>
      <trkpt lat="44.40321" lon="1.02195">
        <ele>185</ele>
        <time>2017-05-28T08:32:21.000Z</time>
      </trkpt>
      <trkpt lat="44.40324" lon="1.02197">
        <ele>184.9</ele>
        <time>2017-05-28T08:32:22.000Z</time>
      </trkpt>
      <trkpt lat="44.40328" lon="1.02202">
        <ele>184.6</ele>
        <time>2017-05-28T08:32:23.000Z</time>
      </trkpt>
      <trkpt lat="44.40332" lon="1.02207">
        <ele>184.1</ele>
        <time>2017-05-28T08:32:24.000Z</time>
      </trkpt>
      <trkpt lat="44.40336" lon="1.02213">
        <ele>183.4</ele>
        <time>2017-05-28T08:32:25.000Z</time>
      </trkpt>
      <trkpt lat="44.40342" lon="1.0222">
        <ele>182.3</ele>
        <time>2017-05-28T08:32:26.000Z</time>
      </trkpt>
      <trkpt lat="44.40348" lon="1.02228">
        <ele>181.1</ele>
        <time>2017-05-28T08:32:27.000Z</time>
      </trkpt>
      <trkpt lat="44.40354" lon="1.02237">
        <ele>179.8</ele>
        <time>2017-05-28T08:32:28.000Z</time>
      </trkpt>
      <trkpt lat="44.40362" lon="1.02247">
        <ele>178.2</ele>
        <time>2017-05-28T08:32:29.000Z</time>
      </trkpt>
      <trkpt lat="44.40369" lon="1.02257">
        <ele>177</ele>
        <time>2017-05-28T08:32:30.000Z</time>
      </trkpt>
      <trkpt lat="44.40378" lon="1.02268">
        <ele>176</ele>
        <time>2017-05-28T08:32:31.000Z</time>
      </trkpt>
      <trkpt lat="44.40387" lon="1.02279">
        <ele>175.1</ele>
        <time>2017-05-28T08:32:32.000Z</time>
      </trkpt>
      <trkpt lat="44.40396" lon="1.0229">
        <ele>174.2</ele>
        <time>2017-05-28T08:32:33.000Z</time>
      </trkpt>
      <trkpt lat="44.40406" lon="1.02302">
        <ele>173.5</ele>
        <time>2017-05-28T08:32:34.000Z</time>
      </trkpt>
      <trkpt lat="44.40415" lon="1.02314">
        <ele>172.9</ele>
        <time>2017-05-28T08:32:35.000Z</time>
      </trkpt>
      <trkpt lat="44.40424" lon="1.02327">
        <ele>173.6</ele>
        <time>2017-05-28T08:32:36.000Z</time>
      </trkpt>
      <trkpt lat="44.40433" lon="1.0234">
        <ele>174.7</ele>
        <time>2017-05-28T08:32:37.000Z</time>
      </trkpt>
      <trkpt lat="44.4044" lon="1.02353">
        <ele>175.8</ele>
        <time>2017-05-28T08:32:38.000Z</time>
      </trkpt>
      <trkpt lat="44.40448" lon="1.02367">
        <ele>177</ele>
        <time>2017-05-28T08:32:39.000Z</time>
      </trkpt>
      <trkpt lat="44.40455" lon="1.02379">
        <ele>178.2</ele>
        <time>2017-05-28T08:32:40.000Z</time>
      </trkpt>
      <trkpt lat="44.40461" lon="1.02392">
        <ele>179.4</ele>
        <time>2017-05-28T08:32:41.000Z</time>
      </trkpt>
      <trkpt lat="44.40466" lon="1.02404">
        <ele>180.6</ele>
        <time>2017-05-28T08:32:42.000Z</time>
      </trkpt>
      <trkpt lat="44.4047" lon="1.02415">
        <ele>181.6</ele>
        <time>2017-05-28T08:32:43.000Z</time>
      </trkpt>
      <trkpt lat="44.40472" lon="1.02426">
        <ele>182.1</ele>
        <time>2017-05-28T08:32:44.000Z</time>
      </trkpt>
      <trkpt lat="44.40473" lon="1.02437">
        <ele>182.5</ele>
        <time>2017-05-28T08:32:45.000Z</time>
      </trkpt>
      <trkpt lat="44.40474" lon="1.02447">
        <ele>182.7</ele>
        <time>2017-05-28T08:32:46.000Z</time>
      </trkpt>
      <trkpt lat="44.40474" lon="1.02457">
        <ele>182.8</ele>
        <time>2017-05-28T08:32:47.000Z</time>
      </trkpt>
      <trkpt lat="44.40473" lon="1.02465">
        <ele>182.9</ele>
        <time>2017-05-28T08:32:48.000Z</time>
      </trkpt>
      <trkpt lat="44.40472" lon="1.02473">
        <ele>182.9</ele>
        <time>2017-05-28T08:32:49.000Z</time>
      </trkpt>
      <trkpt lat="44.40472" lon="1.02479">
        <ele>183</ele>
        <time>2017-05-28T08:32:50.000Z</time>
      </trkpt>
      <trkpt lat="44.40472" lon="1.02485">
        <ele>183</ele>
        <time>2017-05-28T08:32:51.000Z</time>
      </trkpt>
      <trkpt lat="44.40472" lon="1.0249">
        <ele>183.1</ele>
        <time>2017-05-28T08:32:52.000Z</time>
      </trkpt>
      <trkpt lat="44.40471" lon="1.02494">
        <ele>183.1</ele>
        <time>2017-05-28T08:32:53.000Z</time>
      </trkpt>
      <trkpt lat="44.40471" lon="1.02499">
        <ele>183.2</ele>
        <time>2017-05-28T08:32:54.000Z</time>
      </trkpt>
      <trkpt lat="44.40471" lon="1.02504">
        <ele>183.2</ele>
        <time>2017-05-28T08:32:55.000Z</time>
      </trkpt>
      <trkpt lat="44.40471" lon="1.02508">
        <ele>183.2</ele>
        <time>2017-05-28T08:32:56.000Z</time>
      </trkpt>
      <trkpt lat="44.40471" lon="1.02513">
        <ele>183.3</ele>
        <time>2017-05-28T08:32:57.000Z</time>
      </trkpt>
      <trkpt lat="44.40471" lon="1.02517">
        <ele>183.3</ele>
        <time>2017-05-28T08:32:58.000Z</time>
      </trkpt>
      <trkpt lat="44.40472" lon="1.0252">
        <ele>183.4</ele>
        <time>2017-05-28T08:32:59.000Z</time>
      </trkpt>
      <trkpt lat="44.40472" lon="1.02524">
        <ele>183.5</ele>
        <time>2017-05-28T08:33:00.000Z</time>
      </trkpt>
      <trkpt lat="44.40473" lon="1.02526">
        <ele>183.6</ele>
        <time>2017-05-28T08:33:01.000Z</time>
      </trkpt>
      <trkpt lat="44.40473" lon="1.02528">
        <ele>183.7</ele>
        <time>2017-05-28T08:33:02.000Z</time>
      </trkpt>
      <trkpt lat="44.40474" lon="1.0253">
        <ele>183.8</ele>
        <time>2017-05-28T08:33:03.000Z</time>
      </trkpt>
      <trkpt lat="44.40476" lon="1.02531">
        <ele>184</ele>
        <time>2017-05-28T08:33:04.000Z</time>
      </trkpt>
      <trkpt lat="44.40478" lon="1.02532">
        <ele>184.2</ele>
        <time>2017-05-28T08:33:05.000Z</time>
      </trkpt>
      <trkpt lat="44.4048" lon="1.02533">
        <ele>184.4</ele>
        <time>2017-05-28T08:33:06.000Z</time>
      </trkpt>
      <trkpt lat="44.40483" lon="1.02533">
        <ele>184.7</ele>
        <time>2017-05-28T08:33:07.000Z</time>
      </trkpt>
      <trkpt lat="44.40485" lon="1.02533">
        <ele>185</ele>
        <time>2017-05-28T08:33:08.000Z</time>
      </trkpt>
      <trkpt lat="44.40488" lon="1.02533">
        <ele>185.3</ele>
        <time>2017-05-28T08:33:09.000Z</time>
      </trkpt>
      <trkpt lat="44.40491" lon="1.02533">
        <ele>185.6</ele>
        <time>2017-05-28T08:33:10.000Z</time>
      </trkpt>
      <trkpt lat="44.40493" lon="1.02533">
        <ele>185.9</ele>
        <time>2017-05-28T08:33:11.000Z</time>
      </trkpt>
      <trkpt lat="44.40496" lon="1.02532">
        <ele>186.2</ele>
        <time>2017-05-28T08:33:12.000Z</time>
      </trkpt>
      <trkpt lat="44.40498" lon="1.02532">
        <ele>186.4</ele>
        <time>2017-05-28T08:33:13.000Z</time>
      </trkpt>
      <trkpt lat="44.40501" lon="1.02531">
        <ele>186.6</ele>
        <time>2017-05-28T08:33:14.000Z</time>
      </trkpt>
      <trkpt lat="44.40503" lon="1.0253">
        <ele>186.7</ele>
        <time>2017-05-28T08:33:15.000Z</time>
      </trkpt>
      <trkpt lat="44.40505" lon="1.0253">
        <ele>186.7</ele>
        <time>2017-05-28T08:33:16.000Z</time>
      </trkpt>
      <trkpt lat="44.40507" lon="1.02529">
        <ele>186.7</ele>
        <time>2017-05-28T08:33:17.000Z</time>
      </trkpt>
      <trkpt lat="44.4051" lon="1.02529">
        <ele>186.8</ele>
        <time>2017-05-28T08:33:18.000Z</time>
      </trkpt>
      <trkpt lat="44.40512" lon="1.02528">
        <ele>186.8</ele>
        <time>2017-05-28T08:33:19.000Z</time>
      </trkpt>
      <trkpt lat="44.40514" lon="1.02527">
        <ele>186.8</ele>
        <time>2017-05-28T08:33:20.000Z</time>
      </trkpt>
      <trkpt lat="44.40516" lon="1.02527">
        <ele>186.9</ele>
        <time>2017-05-28T08:33:21.000Z</time>
      </trkpt>
      <trkpt lat="44.40518" lon="1.02526">
        <ele>186.9</ele>
        <time>2017-05-28T08:33:22.000Z</time>
      </trkpt>
      <trkpt lat="44.4052" lon="1.02526">
        <ele>186.9</ele>
        <time>2017-05-28T08:33:23.000Z</time>
      </trkpt>
      <trkpt lat="44.40522" lon="1.02525">
        <ele>187</ele>
        <time>2017-05-28T08:33:24.000Z</time>
      </trkpt>
      <trkpt lat="44.40524" lon="1.02524">
        <ele>187</ele>
        <time>2017-05-28T08:33:25.000Z</time>
      </trkpt>
      <trkpt lat="44.40526" lon="1.02524">
        <ele>187</ele>
        <time>2017-05-28T08:33:26.000Z</time>
      </trkpt>
      <trkpt lat="44.40528" lon="1.02523">
        <ele>187.1</ele>
        <time>2017-05-28T08:33:27.000Z</time>
      </trkpt>
      <trkpt lat="44.4053" lon="1.02522">
        <ele>187.1</ele>
        <time>2017-05-28T08:33:28.000Z</time>
      </trkpt>
      <trkpt lat="44.40532" lon="1.02521">
        <ele>187.1</ele>
        <time>2017-05-28T08:33:29.000Z</time>
      </trkpt>
      <trkpt lat="44.40534" lon="1.0252">
        <ele>187.2</ele>
        <time>2017-05-28T08:33:30.000Z</time>
      </trkpt>
      <trkpt lat="44.40537" lon="1.02519">
        <ele>187.2</ele>
        <time>2017-05-28T08:33:31.000Z</time>
      </trkpt>
      <trkpt lat="44.40539" lon="1.02518">
        <ele>187.3</ele>
        <time>2017-05-28T08:33:32.000Z</time>
      </trkpt>
      <trkpt lat="44.40541" lon="1.02517">
        <ele>187.3</ele>
        <time>2017-05-28T08:33:33.000Z</time>
      </trkpt>
      <trkpt lat="44.40544" lon="1.02516">
        <ele>187.3</ele>
        <time>2017-05-28T08:33:34.000Z</time>
      </trkpt>
      <trkpt lat="44.40546" lon="1.02515">
        <ele>187.4</ele>
        <time>2017-05-28T08:33:35.000Z</time>
      </trkpt>
      <trkpt lat="44.40549" lon="1.02515">
        <ele>187.4</ele>
        <time>2017-05-28T08:33:36.000Z</time>
      </trkpt>
      <trkpt lat="44.40552" lon="1.02515">
        <ele>187.4</ele>
        <time>2017-05-28T08:33:37.000Z</time>
      </trkpt>
      <trkpt lat="44.40555" lon="1.02515">
        <ele>187.5</ele>
        <time>2017-05-28T08:33:38.000Z</time>
      </trkpt>
      <trkpt lat="44.40557" lon="1.02516">
        <ele>187.5</ele>
        <time>2017-05-28T08:33:39.000Z</time>
      </trkpt>
      <trkpt lat="44.4056" lon="1.02516">
        <ele>187.5</ele>
        <time>2017-05-28T08:33:40.000Z</time>
      </trkpt>
      <trkpt lat="44.40563" lon="1.02516">
        <ele>187.6</ele>
        <time>2017-05-28T08:33:41.000Z</time>
      </trkpt>
      <trkpt lat="44.40566" lon="1.02517">
        <ele>187.6</ele>
        <time>2017-05-28T08:33:42.000Z</time>
      </trkpt>
      <trkpt lat="44.40569" lon="1.02517">
        <ele>187.6</ele>
        <time>2017-05-28T08:33:43.000Z</time>
      </trkpt>
      <trkpt lat="44.40572" lon="1.02518">
        <ele>187.7</ele>
        <time>2017-05-28T08:33:44.000Z</time>
      </trkpt>
      <trkpt lat="44.40576" lon="1.02518">
        <ele>187.7</ele>
        <time>2017-05-28T08:33:45.000Z</time>
      </trkpt>
      <trkpt lat="44.40579" lon="1.02517">
        <ele>187.7</ele>
        <time>2017-05-28T08:33:46.000Z</time>
      </trkpt>
      <trkpt lat="44.40582" lon="1.02514">
        <ele>187.8</ele>
        <time>2017-05-28T08:33:47.000Z</time>
      </trkpt>
      <trkpt lat="44.40584" lon="1.0251">
        <ele>187.9</ele>
        <time>2017-05-28T08:33:48.000Z</time>
      </trkpt>
      <trkpt lat="44.40587" lon="1.02506">
        <ele>187.9</ele>
        <time>2017-05-28T08:33:49.000Z</time>
      </trkpt>
      <trkpt lat="44.40589" lon="1.025">
        <ele>187.9</ele>
        <time>2017-05-28T08:33:50.000Z</time>
      </trkpt>
      <trkpt lat="44.40591" lon="1.02495">
        <ele>187.9</ele>
        <time>2017-05-28T08:33:51.000Z</time>
      </trkpt>
      <trkpt lat="44.40594" lon="1.0249">
        <ele>187.9</ele>
        <time>2017-05-28T08:33:52.000Z</time>
      </trkpt>
      <trkpt lat="44.40596" lon="1.02485">
        <ele>188</ele>
        <time>2017-05-28T08:33:53.000Z</time>
      </trkpt>
      <trkpt lat="44.40598" lon="1.02479">
        <ele>188</ele>
        <time>2017-05-28T08:33:54.000Z</time>
      </trkpt>
      <trkpt lat="44.40601" lon="1.02474">
        <ele>188</ele>
        <time>2017-05-28T08:33:55.000Z</time>
      </trkpt>
      <trkpt lat="44.40603" lon="1.02468">
        <ele>187.9</ele>
        <time>2017-05-28T08:33:56.000Z</time>
      </trkpt>
      <trkpt lat="44.40606" lon="1.02463">
        <ele>187.9</ele>
        <time>2017-05-28T08:33:57.000Z</time>
      </trkpt>
      <trkpt lat="44.40608" lon="1.02457">
        <ele>187.8</ele>
        <time>2017-05-28T08:33:58.000Z</time>
      </trkpt>
      <trkpt lat="44.40611" lon="1.02452">
        <ele>187.7</ele>
        <time>2017-05-28T08:33:59.000Z</time>
      </trkpt>
      <trkpt lat="44.40614" lon="1.02446">
        <ele>187.6</ele>
        <time>2017-05-28T08:34:00.000Z</time>
      </trkpt>
      <trkpt lat="44.40617" lon="1.02439">
        <ele>187.5</ele>
        <time>2017-05-28T08:34:01.000Z</time>
      </trkpt>
      <trkpt lat="44.4062" lon="1.02432">
        <ele>187.3</ele>
        <time>2017-05-28T08:34:02.000Z</time>
      </trkpt>
      <trkpt lat="44.40623" lon="1.02425">
        <ele>187.1</ele>
        <time>2017-05-28T08:34:03.000Z</time>
      </trkpt>
      <trkpt lat="44.40627" lon="1.02417">
        <ele>186.9</ele>
        <time>2017-05-28T08:34:04.000Z</time>
      </trkpt>
      <trkpt lat="44.40631" lon="1.02408">
        <ele>186.7</ele>
        <time>2017-05-28T08:34:05.000Z</time>
      </trkpt>
      <trkpt lat="44.40635" lon="1.024">
        <ele>186.5</ele>
        <time>2017-05-28T08:34:06.000Z</time>
      </trkpt>
      <trkpt lat="44.40639" lon="1.02391">
        <ele>186.3</ele>
        <time>2017-05-28T08:34:07.000Z</time>
      </trkpt>
      <trkpt lat="44.40643" lon="1.02381">
        <ele>186.1</ele>
        <time>2017-05-28T08:34:08.000Z</time>
      </trkpt>
      <trkpt lat="44.40647" lon="1.02372">
        <ele>185.9</ele>
        <time>2017-05-28T08:34:09.000Z</time>
      </trkpt>
      <trkpt lat="44.40652" lon="1.02362">
        <ele>185.7</ele>
        <time>2017-05-28T08:34:10.000Z</time>
      </trkpt>
      <trkpt lat="44.40656" lon="1.02352">
        <ele>185.5</ele>
        <time>2017-05-28T08:34:11.000Z</time>
      </trkpt>
      <trkpt lat="44.40661" lon="1.02343">
        <ele>185.3</ele>
        <time>2017-05-28T08:34:12.000Z</time>
      </trkpt>
      <trkpt lat="44.40665" lon="1.02333">
        <ele>185.1</ele>
        <time>2017-05-28T08:34:13.000Z</time>
      </trkpt>
      <trkpt lat="44.4067" lon="1.02323">
        <ele>185</ele>
        <time>2017-05-28T08:34:14.000Z</time>
      </trkpt>
      <trkpt lat="44.40675" lon="1.02313">
        <ele>184.9</ele>
        <time>2017-05-28T08:34:15.000Z</time>
      </trkpt>
      <trkpt lat="44.40679" lon="1.02303">
        <ele>184.7</ele>
        <time>2017-05-28T08:34:16.000Z</time>
      </trkpt>
      <trkpt lat="44.40684" lon="1.02293">
        <ele>184.6</ele>
        <time>2017-05-28T08:34:17.000Z</time>
      </trkpt>
      <trkpt lat="44.40689" lon="1.02284">
        <ele>184.3</ele>
        <time>2017-05-28T08:34:18.000Z</time>
      </trkpt>
      <trkpt lat="44.40693" lon="1.02274">
        <ele>184.1</ele>
        <time>2017-05-28T08:34:19.000Z</time>
      </trkpt>
      <trkpt lat="44.40698" lon="1.02265">
        <ele>183.8</ele>
        <time>2017-05-28T08:34:20.000Z</time>
      </trkpt>
      <trkpt lat="44.40702" lon="1.02256">
        <ele>183.5</ele>
        <time>2017-05-28T08:34:21.000Z</time>
      </trkpt>
      <trkpt lat="44.40707" lon="1.02246">
        <ele>183</ele>
        <time>2017-05-28T08:34:22.000Z</time>
      </trkpt>
      <trkpt lat="44.40711" lon="1.02237">
        <ele>182.5</ele>
        <time>2017-05-28T08:34:23.000Z</time>
      </trkpt>
      <trkpt lat="44.40715" lon="1.02228">
        <ele>182.1</ele>
        <time>2017-05-28T08:34:24.000Z</time>
      </trkpt>
      <trkpt lat="44.40719" lon="1.02219">
        <ele>181.7</ele>
        <time>2017-05-28T08:34:25.000Z</time>
      </trkpt>
      <trkpt lat="44.40723" lon="1.0221">
        <ele>181.3</ele>
        <time>2017-05-28T08:34:26.000Z</time>
      </trkpt>
      <trkpt lat="44.40727" lon="1.02201">
        <ele>181</ele>
        <time>2017-05-28T08:34:27.000Z</time>
      </trkpt>
      <trkpt lat="44.40731" lon="1.02192">
        <ele>180.8</ele>
        <time>2017-05-28T08:34:28.000Z</time>
      </trkpt>
      <trkpt lat="44.40734" lon="1.02184">
        <ele>180.5</ele>
        <time>2017-05-28T08:34:29.000Z</time>
      </trkpt>
      <trkpt lat="44.40737" lon="1.02176">
        <ele>180.4</ele>
        <time>2017-05-28T08:34:30.000Z</time>
      </trkpt>
      <trkpt lat="44.40741" lon="1.02168">
        <ele>180.2</ele>
        <time>2017-05-28T08:34:31.000Z</time>
      </trkpt>
      <trkpt lat="44.40744" lon="1.02161">
        <ele>180.3</ele>
        <time>2017-05-28T08:34:32.000Z</time>
      </trkpt>
      <trkpt lat="44.40747" lon="1.02153">
        <ele>180.5</ele>
        <time>2017-05-28T08:34:33.000Z</time>
      </trkpt>
      <trkpt lat="44.40749" lon="1.02146">
        <ele>180.8</ele>
        <time>2017-05-28T08:34:34.000Z</time>
      </trkpt>
      <trkpt lat="44.40752" lon="1.02138">
        <ele>181.2</ele>
        <time>2017-05-28T08:34:35.000Z</time>
      </trkpt>
      <trkpt lat="44.40755" lon="1.02131">
        <ele>181.5</ele>
        <time>2017-05-28T08:34:36.000Z</time>
      </trkpt>
      <trkpt lat="44.40757" lon="1.02123">
        <ele>181.9</ele>
        <time>2017-05-28T08:34:37.000Z</time>
      </trkpt>
      <trkpt lat="44.40759" lon="1.02116">
        <ele>182.1</ele>
        <time>2017-05-28T08:34:38.000Z</time>
      </trkpt>
      <trkpt lat="44.40761" lon="1.02109">
        <ele>182.4</ele>
        <time>2017-05-28T08:34:39.000Z</time>
      </trkpt>
      <trkpt lat="44.40763" lon="1.02101">
        <ele>182.5</ele>
        <time>2017-05-28T08:34:40.000Z</time>
      </trkpt>
      <trkpt lat="44.40765" lon="1.02094">
        <ele>182.7</ele>
        <time>2017-05-28T08:34:41.000Z</time>
      </trkpt>
      <trkpt lat="44.40767" lon="1.02087">
        <ele>182.8</ele>
        <time>2017-05-28T08:34:42.000Z</time>
      </trkpt>
      <trkpt lat="44.40769" lon="1.0208">
        <ele>182.8</ele>
        <time>2017-05-28T08:34:43.000Z</time>
      </trkpt>
      <trkpt lat="44.40771" lon="1.02073">
        <ele>182.9</ele>
        <time>2017-05-28T08:34:44.000Z</time>
      </trkpt>
      <trkpt lat="44.40773" lon="1.02066">
        <ele>182.9</ele>
        <time>2017-05-28T08:34:45.000Z</time>
      </trkpt>
      <trkpt lat="44.40775" lon="1.02059">
        <ele>182.9</ele>
        <time>2017-05-28T08:34:46.000Z</time>
      </trkpt>
      <trkpt lat="44.40777" lon="1.02052">
        <ele>182.9</ele>
        <time>2017-05-28T08:34:47.000Z</time>
      </trkpt>
      <trkpt lat="44.40779" lon="1.02045">
        <ele>182.9</ele>
        <time>2017-05-28T08:34:48.000Z</time>
      </trkpt>
      <trkpt lat="44.40781" lon="1.02038">
        <ele>182.9</ele>
        <time>2017-05-28T08:34:49.000Z</time>
      </trkpt>
      <trkpt lat="44.40783" lon="1.0203">
        <ele>182.9</ele>
        <time>2017-05-28T08:34:50.000Z</time>
      </trkpt>
      <trkpt lat="44.40785" lon="1.02023">
        <ele>182.8</ele>
        <time>2017-05-28T08:34:51.000Z</time>
      </trkpt>
      <trkpt lat="44.40787" lon="1.02016">
        <ele>182.7</ele>
        <time>2017-05-28T08:34:52.000Z</time>
      </trkpt>
      <trkpt lat="44.40789" lon="1.02009">
        <ele>182.7</ele>
        <time>2017-05-28T08:34:53.000Z</time>
      </trkpt>
      <trkpt lat="44.40791" lon="1.02001">
        <ele>182.5</ele>
        <time>2017-05-28T08:34:54.000Z</time>
      </trkpt>
      <trkpt lat="44.40794" lon="1.01994">
        <ele>182.6</ele>
        <time>2017-05-28T08:34:55.000Z</time>
      </trkpt>
      <trkpt lat="44.40796" lon="1.01986">
        <ele>182.7</ele>
        <time>2017-05-28T08:34:56.000Z</time>
      </trkpt>
      <trkpt lat="44.40799" lon="1.01979">
        <ele>182.8</ele>
        <time>2017-05-28T08:34:57.000Z</time>
      </trkpt>
      <trkpt lat="44.40801" lon="1.01972">
        <ele>183</ele>
        <time>2017-05-28T08:34:58.000Z</time>
      </trkpt>
      <trkpt lat="44.40804" lon="1.01965">
        <ele>183.2</ele>
        <time>2017-05-28T08:34:59.000Z</time>
      </trkpt>
      <trkpt lat="44.40806" lon="1.01958">
        <ele>183.5</ele>
        <time>2017-05-28T08:35:00.000Z</time>
      </trkpt>
      <trkpt lat="44.40808" lon="1.01951">
        <ele>183.9</ele>
        <time>2017-05-28T08:35:01.000Z</time>
      </trkpt>
      <trkpt lat="44.4081" lon="1.01944">
        <ele>184.2</ele>
        <time>2017-05-28T08:35:02.000Z</time>
      </trkpt>
      <trkpt lat="44.40811" lon="1.01938">
        <ele>184.6</ele>
        <time>2017-05-28T08:35:03.000Z</time>
      </trkpt>
      <trkpt lat="44.40812" lon="1.01932">
        <ele>184.9</ele>
        <time>2017-05-28T08:35:04.000Z</time>
      </trkpt>
      <trkpt lat="44.40814" lon="1.01928">
        <ele>185.2</ele>
        <time>2017-05-28T08:35:05.000Z</time>
      </trkpt>
      <trkpt lat="44.40815" lon="1.01924">
        <ele>185.5</ele>
        <time>2017-05-28T08:35:06.000Z</time>
      </trkpt>
      <trkpt lat="44.40817" lon="1.0192">
        <ele>185.8</ele>
        <time>2017-05-28T08:35:07.000Z</time>
      </trkpt>
      <trkpt lat="44.40818" lon="1.01916">
        <ele>186.1</ele>
        <time>2017-05-28T08:35:08.000Z</time>
      </trkpt>
      <trkpt lat="44.4082" lon="1.01912">
        <ele>186.1</ele>
        <time>2017-05-28T08:35:09.000Z</time>
      </trkpt>
      <trkpt lat="44.40822" lon="1.01907">
        <ele>186.1</ele>
        <time>2017-05-28T08:35:10.000Z</time>
      </trkpt>
      <trkpt lat="44.40824" lon="1.01902">
        <ele>186.2</ele>
        <time>2017-05-28T08:35:11.000Z</time>
      </trkpt>
      <trkpt lat="44.40827" lon="1.01897">
        <ele>186.3</ele>
        <time>2017-05-28T08:35:12.000Z</time>
      </trkpt>
      <trkpt lat="44.4083" lon="1.01891">
        <ele>186.4</ele>
        <time>2017-05-28T08:35:13.000Z</time>
      </trkpt>
      <trkpt lat="44.40833" lon="1.01885">
        <ele>186.6</ele>
        <time>2017-05-28T08:35:14.000Z</time>
      </trkpt>
      <trkpt lat="44.40837" lon="1.01879">
        <ele>186.3</ele>
        <time>2017-05-28T08:35:15.000Z</time>
      </trkpt>
      <trkpt lat="44.40841" lon="1.01873">
        <ele>185.9</ele>
        <time>2017-05-28T08:35:16.000Z</time>
      </trkpt>
      <trkpt lat="44.40846" lon="1.01866">
        <ele>185.5</ele>
        <time>2017-05-28T08:35:17.000Z</time>
      </trkpt>
      <trkpt lat="44.40851" lon="1.01859">
        <ele>185.1</ele>
        <time>2017-05-28T08:35:18.000Z</time>
      </trkpt>
      <trkpt lat="44.40856" lon="1.01852">
        <ele>184.7</ele>
        <time>2017-05-28T08:35:19.000Z</time>
      </trkpt>
      <trkpt lat="44.40861" lon="1.01844">
        <ele>184.3</ele>
        <time>2017-05-28T08:35:20.000Z</time>
      </trkpt>
      <trkpt lat="44.40867" lon="1.01837">
        <ele>184</ele>
        <time>2017-05-28T08:35:21.000Z</time>
      </trkpt>
      <trkpt lat="44.40873" lon="1.0183">
        <ele>183.5</ele>
        <time>2017-05-28T08:35:22.000Z</time>
      </trkpt>
      <trkpt lat="44.4088" lon="1.01823">
        <ele>182.9</ele>
        <time>2017-05-28T08:35:23.000Z</time>
      </trkpt>
      <trkpt lat="44.40886" lon="1.01817">
        <ele>182.4</ele>
        <time>2017-05-28T08:35:24.000Z</time>
      </trkpt>
      <trkpt lat="44.40892" lon="1.01809">
        <ele>181.9</ele>
        <time>2017-05-28T08:35:25.000Z</time>
      </trkpt>
      <trkpt lat="44.40898" lon="1.01801">
        <ele>181.6</ele>
        <time>2017-05-28T08:35:26.000Z</time>
      </trkpt>
      <trkpt lat="44.40903" lon="1.01791">
        <ele>181.3</ele>
        <time>2017-05-28T08:35:27.000Z</time>
      </trkpt>
      <trkpt lat="44.40908" lon="1.01781">
        <ele>181.1</ele>
        <time>2017-05-28T08:35:28.000Z</time>
      </trkpt>
      <trkpt lat="44.40912" lon="1.0177">
        <ele>181</ele>
        <time>2017-05-28T08:35:29.000Z</time>
      </trkpt>
      <trkpt lat="44.40916" lon="1.0176">
        <ele>181</ele>
        <time>2017-05-28T08:35:30.000Z</time>
      </trkpt>
      <trkpt lat="44.40919" lon="1.0175">
        <ele>180.8</ele>
        <time>2017-05-28T08:35:31.000Z</time>
      </trkpt>
      <trkpt lat="44.40923" lon="1.0174">
        <ele>180.2</ele>
        <time>2017-05-28T08:35:32.000Z</time>
      </trkpt>
      <trkpt lat="44.40926" lon="1.01731">
        <ele>179.6</ele>
        <time>2017-05-28T08:35:33.000Z</time>
      </trkpt>
      <trkpt lat="44.4093" lon="1.01722">
        <ele>179</ele>
        <time>2017-05-28T08:35:34.000Z</time>
      </trkpt>
      <trkpt lat="44.40933" lon="1.01713">
        <ele>178.5</ele>
        <time>2017-05-28T08:35:35.000Z</time>
      </trkpt>
      <trkpt lat="44.40937" lon="1.01704">
        <ele>178</ele>
        <time>2017-05-28T08:35:36.000Z</time>
      </trkpt>
      <trkpt lat="44.40941" lon="1.01697">
        <ele>177.6</ele>
        <time>2017-05-28T08:35:37.000Z</time>
      </trkpt>
      <trkpt lat="44.40944" lon="1.01691">
        <ele>177.2</ele>
        <time>2017-05-28T08:35:38.000Z</time>
      </trkpt>
      <trkpt lat="44.40948" lon="1.01688">
        <ele>177</ele>
        <time>2017-05-28T08:35:39.000Z</time>
      </trkpt>
      <trkpt lat="44.40952" lon="1.01688">
        <ele>176.9</ele>
        <time>2017-05-28T08:35:40.000Z</time>
      </trkpt>
      <trkpt lat="44.40955" lon="1.0169">
        <ele>176.8</ele>
        <time>2017-05-28T08:35:41.000Z</time>
      </trkpt>
      <trkpt lat="44.40959" lon="1.01694">
        <ele>176.8</ele>
        <time>2017-05-28T08:35:42.000Z</time>
      </trkpt>
      <trkpt lat="44.40963" lon="1.01699">
        <ele>176.8</ele>
        <time>2017-05-28T08:35:43.000Z</time>
      </trkpt>
      <trkpt lat="44.40967" lon="1.01706">
        <ele>176.8</ele>
        <time>2017-05-28T08:35:44.000Z</time>
      </trkpt>
      <trkpt lat="44.40973" lon="1.01713">
        <ele>176.8</ele>
        <time>2017-05-28T08:35:45.000Z</time>
      </trkpt>
      <trkpt lat="44.40979" lon="1.0172">
        <ele>176.7</ele>
        <time>2017-05-28T08:35:46.000Z</time>
      </trkpt>
      <trkpt lat="44.40986" lon="1.01727">
        <ele>176.5</ele>
        <time>2017-05-28T08:35:47.000Z</time>
      </trkpt>
      <trkpt lat="44.40993" lon="1.01734">
        <ele>176.2</ele>
        <time>2017-05-28T08:35:48.000Z</time>
      </trkpt>
      <trkpt lat="44.41001" lon="1.0174">
        <ele>175.9</ele>
        <time>2017-05-28T08:35:49.000Z</time>
      </trkpt>
      <trkpt lat="44.41008" lon="1.01745">
        <ele>176</ele>
        <time>2017-05-28T08:35:50.000Z</time>
      </trkpt>
      <trkpt lat="44.41015" lon="1.01748">
        <ele>176.1</ele>
        <time>2017-05-28T08:35:51.000Z</time>
      </trkpt>
      <trkpt lat="44.4102" lon="1.01751">
        <ele>176.3</ele>
        <time>2017-05-28T08:35:52.000Z</time>
      </trkpt>
      <trkpt lat="44.41026" lon="1.01754">
        <ele>176.5</ele>
        <time>2017-05-28T08:35:53.000Z</time>
      </trkpt>
      <trkpt lat="44.41031" lon="1.01756">
        <ele>176.7</ele>
        <time>2017-05-28T08:35:54.000Z</time>
      </trkpt>
      <trkpt lat="44.41036" lon="1.01758">
        <ele>176.8</ele>
        <time>2017-05-28T08:35:55.000Z</time>
      </trkpt>
      <trkpt lat="44.41041" lon="1.01759">
        <ele>177</ele>
        <time>2017-05-28T08:35:56.000Z</time>
      </trkpt>
      <trkpt lat="44.41046" lon="1.01761">
        <ele>177.1</ele>
        <time>2017-05-28T08:35:57.000Z</time>
      </trkpt>
      <trkpt lat="44.41051" lon="1.01762">
        <ele>177.3</ele>
        <time>2017-05-28T08:35:58.000Z</time>
      </trkpt>
      <trkpt lat="44.41056" lon="1.01763">
        <ele>177.4</ele>
        <time>2017-05-28T08:35:59.000Z</time>
      </trkpt>
      <trkpt lat="44.4106" lon="1.01765">
        <ele>177.6</ele>
        <time>2017-05-28T08:36:00.000Z</time>
      </trkpt>
      <trkpt lat="44.41065" lon="1.01767">
        <ele>177.7</ele>
        <time>2017-05-28T08:36:01.000Z</time>
      </trkpt>
      <trkpt lat="44.41069" lon="1.01769">
        <ele>177.9</ele>
        <time>2017-05-28T08:36:02.000Z</time>
      </trkpt>
      <trkpt lat="44.41074" lon="1.01771">
        <ele>178.1</ele>
        <time>2017-05-28T08:36:03.000Z</time>
      </trkpt>
      <trkpt lat="44.41078" lon="1.01773">
        <ele>178.3</ele>
        <time>2017-05-28T08:36:04.000Z</time>
      </trkpt>
      <trkpt lat="44.41082" lon="1.01776">
        <ele>178.5</ele>
        <time>2017-05-28T08:36:05.000Z</time>
      </trkpt>
      <trkpt lat="44.41086" lon="1.01778">
        <ele>178.7</ele>
        <time>2017-05-28T08:36:06.000Z</time>
      </trkpt>
      <trkpt lat="44.41089" lon="1.0178">
        <ele>178.9</ele>
        <time>2017-05-28T08:36:07.000Z</time>
      </trkpt>
      <trkpt lat="44.41093" lon="1.01783">
        <ele>179</ele>
        <time>2017-05-28T08:36:08.000Z</time>
      </trkpt>
      <trkpt lat="44.41096" lon="1.01785">
        <ele>179.2</ele>
        <time>2017-05-28T08:36:09.000Z</time>
      </trkpt>
      <trkpt lat="44.411" lon="1.01787">
        <ele>179.4</ele>
        <time>2017-05-28T08:36:10.000Z</time>
      </trkpt>
      <trkpt lat="44.41103" lon="1.01789">
        <ele>179.6</ele>
        <time>2017-05-28T08:36:11.000Z</time>
      </trkpt>
      <trkpt lat="44.41106" lon="1.01792">
        <ele>179.8</ele>
        <time>2017-05-28T08:36:12.000Z</time>
      </trkpt>
      <trkpt lat="44.41108" lon="1.01794">
        <ele>179.9</ele>
        <time>2017-05-28T08:36:13.000Z</time>
      </trkpt>
      <trkpt lat="44.41111" lon="1.01796">
        <ele>180.1</ele>
        <time>2017-05-28T08:36:14.000Z</time>
      </trkpt>
      <trkpt lat="44.41114" lon="1.01799">
        <ele>180.4</ele>
        <time>2017-05-28T08:36:15.000Z</time>
      </trkpt>
      <trkpt lat="44.41116" lon="1.01801">
        <ele>180.6</ele>
        <time>2017-05-28T08:36:16.000Z</time>
      </trkpt>
      <trkpt lat="44.41118" lon="1.01804">
        <ele>180.8</ele>
        <time>2017-05-28T08:36:17.000Z</time>
      </trkpt>
      <trkpt lat="44.4112" lon="1.01807">
        <ele>181</ele>
        <time>2017-05-28T08:36:18.000Z</time>
      </trkpt>
      <trkpt lat="44.41122" lon="1.0181">
        <ele>181.2</ele>
        <time>2017-05-28T08:36:19.000Z</time>
      </trkpt>
      <trkpt lat="44.41124" lon="1.01812">
        <ele>181.5</ele>
        <time>2017-05-28T08:36:20.000Z</time>
      </trkpt>
      <trkpt lat="44.41126" lon="1.01815">
        <ele>181.7</ele>
        <time>2017-05-28T08:36:21.000Z</time>
      </trkpt>
      <trkpt lat="44.41128" lon="1.01817">
        <ele>181.9</ele>
        <time>2017-05-28T08:36:22.000Z</time>
      </trkpt>
      <trkpt lat="44.41129" lon="1.0182">
        <ele>182.1</ele>
        <time>2017-05-28T08:36:23.000Z</time>
      </trkpt>
      <trkpt lat="44.41131" lon="1.01822">
        <ele>182.3</ele>
        <time>2017-05-28T08:36:24.000Z</time>
      </trkpt>
      <trkpt lat="44.41133" lon="1.01824">
        <ele>182.5</ele>
        <time>2017-05-28T08:36:25.000Z</time>
      </trkpt>
      <trkpt lat="44.41135" lon="1.01826">
        <ele>182.7</ele>
        <time>2017-05-28T08:36:26.000Z</time>
      </trkpt>
      <trkpt lat="44.41136" lon="1.01828">
        <ele>182.9</ele>
        <time>2017-05-28T08:36:27.000Z</time>
      </trkpt>
      <trkpt lat="44.41138" lon="1.0183">
        <ele>183.1</ele>
        <time>2017-05-28T08:36:28.000Z</time>
      </trkpt>
      <trkpt lat="44.41141" lon="1.01832">
        <ele>183.2</ele>
        <time>2017-05-28T08:36:29.000Z</time>
      </trkpt>
      <trkpt lat="44.41143" lon="1.01833">
        <ele>183.4</ele>
        <time>2017-05-28T08:36:30.000Z</time>
      </trkpt>
      <trkpt lat="44.41145" lon="1.01835">
        <ele>183.6</ele>
        <time>2017-05-28T08:36:31.000Z</time>
      </trkpt>
      <trkpt lat="44.41148" lon="1.01836">
        <ele>183.7</ele>
        <time>2017-05-28T08:36:32.000Z</time>
      </trkpt>
      <trkpt lat="44.41151" lon="1.01838">
        <ele>183.9</ele>
        <time>2017-05-28T08:36:33.000Z</time>
      </trkpt>
      <trkpt lat="44.41153" lon="1.01839">
        <ele>184</ele>
        <time>2017-05-28T08:36:34.000Z</time>
      </trkpt>
      <trkpt lat="44.41156" lon="1.01841">
        <ele>184.2</ele>
        <time>2017-05-28T08:36:35.000Z</time>
      </trkpt>
      <trkpt lat="44.41159" lon="1.01842">
        <ele>184.3</ele>
        <time>2017-05-28T08:36:36.000Z</time>
      </trkpt>
      <trkpt lat="44.41163" lon="1.01843">
        <ele>184.5</ele>
        <time>2017-05-28T08:36:37.000Z</time>
      </trkpt>
      <trkpt lat="44.41166" lon="1.01844">
        <ele>184.6</ele>
        <time>2017-05-28T08:36:38.000Z</time>
      </trkpt>
      <trkpt lat="44.41169" lon="1.01846">
        <ele>184.7</ele>
        <time>2017-05-28T08:36:39.000Z</time>
      </trkpt>
      <trkpt lat="44.41172" lon="1.01847">
        <ele>184.7</ele>
        <time>2017-05-28T08:36:40.000Z</time>
      </trkpt>
      <trkpt lat="44.41176" lon="1.01849">
        <ele>184.8</ele>
        <time>2017-05-28T08:36:41.000Z</time>
      </trkpt>
      <trkpt lat="44.41179" lon="1.0185">
        <ele>184.8</ele>
        <time>2017-05-28T08:36:42.000Z</time>
      </trkpt>
      <trkpt lat="44.41183" lon="1.01852">
        <ele>184.9</ele>
        <time>2017-05-28T08:36:43.000Z</time>
      </trkpt>
      <trkpt lat="44.41186" lon="1.01854">
        <ele>184.9</ele>
        <time>2017-05-28T08:36:44.000Z</time>
      </trkpt>
      <trkpt lat="44.4119" lon="1.01856">
        <ele>185</ele>
        <time>2017-05-28T08:36:45.000Z</time>
      </trkpt>
      <trkpt lat="44.41193" lon="1.01859">
        <ele>185</ele>
        <time>2017-05-28T08:36:46.000Z</time>
      </trkpt>
      <trkpt lat="44.41197" lon="1.01862">
        <ele>185.1</ele>
        <time>2017-05-28T08:36:47.000Z</time>
      </trkpt>
      <trkpt lat="44.412" lon="1.01865">
        <ele>185.2</ele>
        <time>2017-05-28T08:36:48.000Z</time>
      </trkpt>
      <trkpt lat="44.41204" lon="1.01868">
        <ele>185.3</ele>
        <time>2017-05-28T08:36:49.000Z</time>
      </trkpt>
      <trkpt lat="44.41207" lon="1.01872">
        <ele>185.4</ele>
        <time>2017-05-28T08:36:50.000Z</time>
      </trkpt>
      <trkpt lat="44.41211" lon="1.01876">
        <ele>185.5</ele>
        <time>2017-05-28T08:36:51.000Z</time>
      </trkpt>
      <trkpt lat="44.41214" lon="1.0188">
        <ele>185.6</ele>
        <time>2017-05-28T08:36:52.000Z</time>
      </trkpt>
      <trkpt lat="44.41218" lon="1.01883">
        <ele>185.6</ele>
        <time>2017-05-28T08:36:53.000Z</time>
      </trkpt>
      <trkpt lat="44.41223" lon="1.01885">
        <ele>185.6</ele>
        <time>2017-05-28T08:36:54.000Z</time>
      </trkpt>
      <trkpt lat="44.41227" lon="1.01886">
        <ele>185.5</ele>
        <time>2017-05-28T08:36:55.000Z</time>
      </trkpt>
      <trkpt lat="44.41232" lon="1.01887">
        <ele>185.4</ele>
        <time>2017-05-28T08:36:56.000Z</time>
      </trkpt>
      <trkpt lat="44.41236" lon="1.01888">
        <ele>185.3</ele>
        <time>2017-05-28T08:36:57.000Z</time>
      </trkpt>
      <trkpt lat="44.41241" lon="1.01888">
        <ele>185.2</ele>
        <time>2017-05-28T08:36:58.000Z</time>
      </trkpt>
      <trkpt lat="44.41245" lon="1.01889">
        <ele>185.1</ele>
        <time>2017-05-28T08:36:59.000Z</time>
      </trkpt>
      <trkpt lat="44.41249" lon="1.0189">
        <ele>185.1</ele>
        <time>2017-05-28T08:37:00.000Z</time>
      </trkpt>
      <trkpt lat="44.41253" lon="1.01892">
        <ele>185</ele>
        <time>2017-05-28T08:37:01.000Z</time>
      </trkpt>
      <trkpt lat="44.41257" lon="1.01894">
        <ele>184.9</ele>
        <time>2017-05-28T08:37:02.000Z</time>
      </trkpt>
      <trkpt lat="44.4126" lon="1.01896">
        <ele>184.8</ele>
        <time>2017-05-28T08:37:03.000Z</time>
      </trkpt>
      <trkpt lat="44.41264" lon="1.01899">
        <ele>184.8</ele>
        <time>2017-05-28T08:37:04.000Z</time>
      </trkpt>
      <trkpt lat="44.41267" lon="1.01901">
        <ele>184.7</ele>
        <time>2017-05-28T08:37:05.000Z</time>
      </trkpt>
      <trkpt lat="44.41271" lon="1.01904">
        <ele>184.6</ele>
        <time>2017-05-28T08:37:06.000Z</time>
      </trkpt>
      <trkpt lat="44.41276" lon="1.01906">
        <ele>184.5</ele>
        <time>2017-05-28T08:37:07.000Z</time>
      </trkpt>
      <trkpt lat="44.4128" lon="1.01908">
        <ele>184.3</ele>
        <time>2017-05-28T08:37:08.000Z</time>
      </trkpt>
      <trkpt lat="44.41285" lon="1.01908">
        <ele>184.1</ele>
        <time>2017-05-28T08:37:09.000Z</time>
      </trkpt>
      <trkpt lat="44.4129" lon="1.01909">
        <ele>183.9</ele>
        <time>2017-05-28T08:37:10.000Z</time>
      </trkpt>
      <trkpt lat="44.41295" lon="1.01909">
        <ele>183.7</ele>
        <time>2017-05-28T08:37:11.000Z</time>
      </trkpt>
      <trkpt lat="44.413" lon="1.01909">
        <ele>183.4</ele>
        <time>2017-05-28T08:37:12.000Z</time>
      </trkpt>
      <trkpt lat="44.41305" lon="1.01909">
        <ele>183.2</ele>
        <time>2017-05-28T08:37:13.000Z</time>
      </trkpt>
      <trkpt lat="44.41311" lon="1.01909">
        <ele>183</ele>
        <time>2017-05-28T08:37:14.000Z</time>
      </trkpt>
      <trkpt lat="44.41316" lon="1.0191">
        <ele>182.7</ele>
        <time>2017-05-28T08:37:15.000Z</time>
      </trkpt>
      <trkpt lat="44.41321" lon="1.0191">
        <ele>182.5</ele>
        <time>2017-05-28T08:37:16.000Z</time>
      </trkpt>
      <trkpt lat="44.41326" lon="1.01911">
        <ele>182.3</ele>
        <time>2017-05-28T08:37:17.000Z</time>
      </trkpt>
      <trkpt lat="44.41332" lon="1.01913">
        <ele>182</ele>
        <time>2017-05-28T08:37:18.000Z</time>
      </trkpt>
      <trkpt lat="44.41337" lon="1.01916">
        <ele>181.7</ele>
        <time>2017-05-28T08:37:19.000Z</time>
      </trkpt>
      <trkpt lat="44.41342" lon="1.01918">
        <ele>181.1</ele>
        <time>2017-05-28T08:37:20.000Z</time>
      </trkpt>
      <trkpt lat="44.41348" lon="1.01922">
        <ele>180.5</ele>
        <time>2017-05-28T08:37:21.000Z</time>
      </trkpt>
      <trkpt lat="44.41352" lon="1.01924">
        <ele>179.9</ele>
        <time>2017-05-28T08:37:22.000Z</time>
      </trkpt>
      <trkpt lat="44.41357" lon="1.01927">
        <ele>179.4</ele>
        <time>2017-05-28T08:37:23.000Z</time>
      </trkpt>
      <trkpt lat="44.41361" lon="1.01929">
        <ele>179</ele>
        <time>2017-05-28T08:37:24.000Z</time>
      </trkpt>
      <trkpt lat="44.41365" lon="1.01929">
        <ele>178.6</ele>
        <time>2017-05-28T08:37:25.000Z</time>
      </trkpt>
      <trkpt lat="44.41367" lon="1.01928">
        <ele>178.5</ele>
        <time>2017-05-28T08:37:26.000Z</time>
      </trkpt>
      <trkpt lat="44.4137" lon="1.01926">
        <ele>178.4</ele>
        <time>2017-05-28T08:37:27.000Z</time>
      </trkpt>
      <trkpt lat="44.41371" lon="1.01923">
        <ele>178.5</ele>
        <time>2017-05-28T08:37:28.000Z</time>
      </trkpt>
      <trkpt lat="44.41372" lon="1.01919">
        <ele>178.6</ele>
        <time>2017-05-28T08:37:29.000Z</time>
      </trkpt>
      <trkpt lat="44.41372" lon="1.01915">
        <ele>178.7</ele>
        <time>2017-05-28T08:37:30.000Z</time>
      </trkpt>
      <trkpt lat="44.41372" lon="1.0191">
        <ele>178.7</ele>
        <time>2017-05-28T08:37:31.000Z</time>
      </trkpt>
      <trkpt lat="44.41371" lon="1.01906">
        <ele>178.7</ele>
        <time>2017-05-28T08:37:32.000Z</time>
      </trkpt>
      <trkpt lat="44.4137" lon="1.01902">
        <ele>178.7</ele>
        <time>2017-05-28T08:37:33.000Z</time>
      </trkpt>
      <trkpt lat="44.41368" lon="1.01898">
        <ele>178.7</ele>
        <time>2017-05-28T08:37:34.000Z</time>
      </trkpt>
      <trkpt lat="44.41367" lon="1.01894">
        <ele>178.8</ele>
        <time>2017-05-28T08:37:35.000Z</time>
      </trkpt>
      <trkpt lat="44.41365" lon="1.0189">
        <ele>178.9</ele>
        <time>2017-05-28T08:37:36.000Z</time>
      </trkpt>
      <trkpt lat="44.41363" lon="1.01887">
        <ele>179</ele>
        <time>2017-05-28T08:37:37.000Z</time>
      </trkpt>
      <trkpt lat="44.41361" lon="1.01883">
        <ele>179.1</ele>
        <time>2017-05-28T08:37:38.000Z</time>
      </trkpt>
      <trkpt lat="44.41359" lon="1.01878">
        <ele>179.2</ele>
        <time>2017-05-28T08:37:39.000Z</time>
      </trkpt>
      <trkpt lat="44.41358" lon="1.01874">
        <ele>179.3</ele>
        <time>2017-05-28T08:37:40.000Z</time>
      </trkpt>
      <trkpt lat="44.41356" lon="1.01869">
        <ele>179.4</ele>
        <time>2017-05-28T08:37:41.000Z</time>
      </trkpt>
      <trkpt lat="44.41354" lon="1.01864">
        <ele>179.5</ele>
        <time>2017-05-28T08:37:42.000Z</time>
      </trkpt>
      <trkpt lat="44.41352" lon="1.01859">
        <ele>179.6</ele>
        <time>2017-05-28T08:37:43.000Z</time>
      </trkpt>
      <trkpt lat="44.41348" lon="1.01854">
        <ele>179.9</ele>
        <time>2017-05-28T08:37:44.000Z</time>
      </trkpt>
      <trkpt lat="44.41345" lon="1.01849">
        <ele>180.1</ele>
        <time>2017-05-28T08:37:45.000Z</time>
      </trkpt>
      <trkpt lat="44.41341" lon="1.01844">
        <ele>180.4</ele>
        <time>2017-05-28T08:37:46.000Z</time>
      </trkpt>
      <trkpt lat="44.41338" lon="1.01838">
        <ele>180.6</ele>
        <time>2017-05-28T08:37:47.000Z</time>
      </trkpt>
      <trkpt lat="44.41336" lon="1.01832">
        <ele>180.6</ele>
        <time>2017-05-28T08:37:48.000Z</time>
      </trkpt>
      <trkpt lat="44.41335" lon="1.01824">
        <ele>180</ele>
        <time>2017-05-28T08:37:49.000Z</time>
      </trkpt>
      <trkpt lat="44.41334" lon="1.01817">
        <ele>179.3</ele>
        <time>2017-05-28T08:37:50.000Z</time>
      </trkpt>
      <trkpt lat="44.41335" lon="1.01808">
        <ele>178.4</ele>
        <time>2017-05-28T08:37:51.000Z</time>
      </trkpt>
      <trkpt lat="44.41336" lon="1.01799">
        <ele>177.5</ele>
        <time>2017-05-28T08:37:52.000Z</time>
      </trkpt>
      <trkpt lat="44.41339" lon="1.01791">
        <ele>176.6</ele>
        <time>2017-05-28T08:37:53.000Z</time>
      </trkpt>
      <trkpt lat="44.41341" lon="1.01784">
        <ele>175.8</ele>
        <time>2017-05-28T08:37:54.000Z</time>
      </trkpt>
      <trkpt lat="44.41344" lon="1.01778">
        <ele>175</ele>
        <time>2017-05-28T08:37:55.000Z</time>
      </trkpt>
      <trkpt lat="44.41347" lon="1.01773">
        <ele>174.4</ele>
        <time>2017-05-28T08:37:56.000Z</time>
      </trkpt>
      <trkpt lat="44.41349" lon="1.01768">
        <ele>173.8</ele>
        <time>2017-05-28T08:37:57.000Z</time>
      </trkpt>
      <trkpt lat="44.4135" lon="1.01764">
        <ele>173.4</ele>
        <time>2017-05-28T08:37:58.000Z</time>
      </trkpt>
      <trkpt lat="44.4135" lon="1.0176">
        <ele>173</ele>
        <time>2017-05-28T08:37:59.000Z</time>
      </trkpt>
      <trkpt lat="44.41348" lon="1.01756">
        <ele>172.8</ele>
        <time>2017-05-28T08:38:00.000Z</time>
      </trkpt>
      <trkpt lat="44.41344" lon="1.01752">
        <ele>172.7</ele>
        <time>2017-05-28T08:38:01.000Z</time>
      </trkpt>
      <trkpt lat="44.4134" lon="1.01748">
        <ele>172.6</ele>
        <time>2017-05-28T08:38:02.000Z</time>
      </trkpt>
      <trkpt lat="44.41334" lon="1.01744">
        <ele>172.5</ele>
        <time>2017-05-28T08:38:03.000Z</time>
      </trkpt>
      <trkpt lat="44.41328" lon="1.0174">
        <ele>172.3</ele>
        <time>2017-05-28T08:38:04.000Z</time>
      </trkpt>
      <trkpt lat="44.41322" lon="1.01735">
        <ele>171.9</ele>
        <time>2017-05-28T08:38:05.000Z</time>
      </trkpt>
      <trkpt lat="44.41316" lon="1.01729">
        <ele>171.5</ele>
        <time>2017-05-28T08:38:06.000Z</time>
      </trkpt>
      <trkpt lat="44.4131" lon="1.01723">
        <ele>171</ele>
        <time>2017-05-28T08:38:07.000Z</time>
      </trkpt>
      <trkpt lat="44.41305" lon="1.01715">
        <ele>170.3</ele>
        <time>2017-05-28T08:38:08.000Z</time>
      </trkpt>
      <trkpt lat="44.41302" lon="1.01705">
        <ele>169.4</ele>
        <time>2017-05-28T08:38:09.000Z</time>
      </trkpt>
      <trkpt lat="44.41299" lon="1.01695">
        <ele>168.4</ele>
        <time>2017-05-28T08:38:10.000Z</time>
      </trkpt>
      <trkpt lat="44.41297" lon="1.01685">
        <ele>167.3</ele>
        <time>2017-05-28T08:38:11.000Z</time>
      </trkpt>
      <trkpt lat="44.41294" lon="1.01674">
        <ele>166.2</ele>
        <time>2017-05-28T08:38:12.000Z</time>
      </trkpt>
      <trkpt lat="44.41291" lon="1.01663">
        <ele>165.3</ele>
        <time>2017-05-28T08:38:13.000Z</time>
      </trkpt>
      <trkpt lat="44.41287" lon="1.01653">
        <ele>164.9</ele>
        <time>2017-05-28T08:38:14.000Z</time>
      </trkpt>
      <trkpt lat="44.41283" lon="1.01644">
        <ele>164.5</ele>
        <time>2017-05-28T08:38:15.000Z</time>
      </trkpt>
      <trkpt lat="44.41278" lon="1.01638">
        <ele>164.1</ele>
        <time>2017-05-28T08:38:16.000Z</time>
      </trkpt>
      <trkpt lat="44.41274" lon="1.01632">
        <ele>163.7</ele>
        <time>2017-05-28T08:38:17.000Z</time>
      </trkpt>
      <trkpt lat="44.4127" lon="1.01628">
        <ele>163.4</ele>
        <time>2017-05-28T08:38:18.000Z</time>
      </trkpt>
      <trkpt lat="44.41266" lon="1.01625">
        <ele>163</ele>
        <time>2017-05-28T08:38:19.000Z</time>
      </trkpt>
      <trkpt lat="44.41261" lon="1.01622">
        <ele>162.7</ele>
        <time>2017-05-28T08:38:20.000Z</time>
      </trkpt>
      <trkpt lat="44.41257" lon="1.01619">
        <ele>162.4</ele>
        <time>2017-05-28T08:38:21.000Z</time>
      </trkpt>
      <trkpt lat="44.41253" lon="1.01616">
        <ele>162.1</ele>
        <time>2017-05-28T08:38:22.000Z</time>
      </trkpt>
      <trkpt lat="44.4125" lon="1.01614">
        <ele>161.9</ele>
        <time>2017-05-28T08:38:23.000Z</time>
      </trkpt>
      <trkpt lat="44.41246" lon="1.01612">
        <ele>161.9</ele>
        <time>2017-05-28T08:38:24.000Z</time>
      </trkpt>
      <trkpt lat="44.41243" lon="1.0161">
        <ele>161.9</ele>
        <time>2017-05-28T08:38:25.000Z</time>
      </trkpt>
      <trkpt lat="44.41241" lon="1.01607">
        <ele>161.8</ele>
        <time>2017-05-28T08:38:26.000Z</time>
      </trkpt>
      <trkpt lat="44.41239" lon="1.01603">
        <ele>161.6</ele>
        <time>2017-05-28T08:38:27.000Z</time>
      </trkpt>
      <trkpt lat="44.41238" lon="1.01599">
        <ele>161.4</ele>
        <time>2017-05-28T08:38:28.000Z</time>
      </trkpt>
      <trkpt lat="44.41237" lon="1.01596">
        <ele>161.3</ele>
        <time>2017-05-28T08:38:29.000Z</time>
      </trkpt>
      <trkpt lat="44.41236" lon="1.01594">
        <ele>161.2</ele>
        <time>2017-05-28T08:38:30.000Z</time>
      </trkpt>
      <trkpt lat="44.41235" lon="1.01591">
        <ele>161</ele>
        <time>2017-05-28T08:38:31.000Z</time>
      </trkpt>
      <trkpt lat="44.41234" lon="1.01586">
        <ele>160.7</ele>
        <time>2017-05-28T08:38:32.000Z</time>
      </trkpt>
      <trkpt lat="44.41233" lon="1.01579">
        <ele>160.6</ele>
        <time>2017-05-28T08:38:33.000Z</time>
      </trkpt>
      <trkpt lat="44.41231" lon="1.01573">
        <ele>160.6</ele>
        <time>2017-05-28T08:38:34.000Z</time>
      </trkpt>
      <trkpt lat="44.4123" lon="1.01567">
        <ele>160.6</ele>
        <time>2017-05-28T08:38:35.000Z</time>
      </trkpt>
      <trkpt lat="44.41228" lon="1.0156">
        <ele>160.6</ele>
        <time>2017-05-28T08:38:36.000Z</time>
      </trkpt>
      <trkpt lat="44.41227" lon="1.01554">
        <ele>160.5</ele>
        <time>2017-05-28T08:38:37.000Z</time>
      </trkpt>
      <trkpt lat="44.41226" lon="1.01547">
        <ele>160.5</ele>
        <time>2017-05-28T08:38:38.000Z</time>
      </trkpt>
      <trkpt lat="44.41225" lon="1.0154">
        <ele>160.4</ele>
        <time>2017-05-28T08:38:39.000Z</time>
      </trkpt>
      <trkpt lat="44.41225" lon="1.01533">
        <ele>160.4</ele>
        <time>2017-05-28T08:38:40.000Z</time>
      </trkpt>
      <trkpt lat="44.41224" lon="1.01526">
        <ele>160.3</ele>
        <time>2017-05-28T08:38:41.000Z</time>
      </trkpt>
      <trkpt lat="44.41224" lon="1.01519">
        <ele>160.2</ele>
        <time>2017-05-28T08:38:42.000Z</time>
      </trkpt>
      <trkpt lat="44.41224" lon="1.01512">
        <ele>160.1</ele>
        <time>2017-05-28T08:38:43.000Z</time>
      </trkpt>
      <trkpt lat="44.41224" lon="1.01506">
        <ele>160.1</ele>
        <time>2017-05-28T08:38:44.000Z</time>
      </trkpt>
      <trkpt lat="44.41224" lon="1.01499">
        <ele>160</ele>
        <time>2017-05-28T08:38:45.000Z</time>
      </trkpt>
      <trkpt lat="44.41224" lon="1.01493">
        <ele>160.2</ele>
        <time>2017-05-28T08:38:46.000Z</time>
      </trkpt>
      <trkpt lat="44.41224" lon="1.01487">
        <ele>160.4</ele>
        <time>2017-05-28T08:38:47.000Z</time>
      </trkpt>
      <trkpt lat="44.41225" lon="1.0148">
        <ele>160.6</ele>
        <time>2017-05-28T08:38:48.000Z</time>
      </trkpt>
      <trkpt lat="44.41225" lon="1.01474">
        <ele>160.8</ele>
        <time>2017-05-28T08:38:49.000Z</time>
      </trkpt>
      <trkpt lat="44.41226" lon="1.01468">
        <ele>161</ele>
        <time>2017-05-28T08:38:50.000Z</time>
      </trkpt>
      <trkpt lat="44.41226" lon="1.01461">
        <ele>161.3</ele>
        <time>2017-05-28T08:38:51.000Z</time>
      </trkpt>
      <trkpt lat="44.41227" lon="1.01455">
        <ele>161.5</ele>
        <time>2017-05-28T08:38:52.000Z</time>
      </trkpt>
      <trkpt lat="44.41228" lon="1.01448">
        <ele>161.7</ele>
        <time>2017-05-28T08:38:53.000Z</time>
      </trkpt>
      <trkpt lat="44.41228" lon="1.01441">
        <ele>162</ele>
        <time>2017-05-28T08:38:54.000Z</time>
      </trkpt>
      <trkpt lat="44.41229" lon="1.01434">
        <ele>162.2</ele>
        <time>2017-05-28T08:38:55.000Z</time>
      </trkpt>
      <trkpt lat="44.4123" lon="1.01426">
        <ele>162.4</ele>
        <time>2017-05-28T08:38:56.000Z</time>
      </trkpt>
      <trkpt lat="44.41231" lon="1.01419">
        <ele>162.7</ele>
        <time>2017-05-28T08:38:57.000Z</time>
      </trkpt>
      <trkpt lat="44.41232" lon="1.01412">
        <ele>162.9</ele>
        <time>2017-05-28T08:38:58.000Z</time>
      </trkpt>
      <trkpt lat="44.41233" lon="1.01405">
        <ele>163.2</ele>
        <time>2017-05-28T08:38:59.000Z</time>
      </trkpt>
      <trkpt lat="44.41234" lon="1.01398">
        <ele>163.4</ele>
        <time>2017-05-28T08:39:00.000Z</time>
      </trkpt>
      <trkpt lat="44.41235" lon="1.01392">
        <ele>163.6</ele>
        <time>2017-05-28T08:39:01.000Z</time>
      </trkpt>
      <trkpt lat="44.41236" lon="1.01385">
        <ele>163.9</ele>
        <time>2017-05-28T08:39:02.000Z</time>
      </trkpt>
      <trkpt lat="44.41237" lon="1.01379">
        <ele>164.2</ele>
        <time>2017-05-28T08:39:03.000Z</time>
      </trkpt>
      <trkpt lat="44.41238" lon="1.01373">
        <ele>164.4</ele>
        <time>2017-05-28T08:39:04.000Z</time>
      </trkpt>
      <trkpt lat="44.41239" lon="1.01367">
        <ele>164.7</ele>
        <time>2017-05-28T08:39:05.000Z</time>
      </trkpt>
      <trkpt lat="44.4124" lon="1.01361">
        <ele>165</ele>
        <time>2017-05-28T08:39:06.000Z</time>
      </trkpt>
      <trkpt lat="44.41242" lon="1.01355">
        <ele>165.3</ele>
        <time>2017-05-28T08:39:07.000Z</time>
      </trkpt>
      <trkpt lat="44.41243" lon="1.0135">
        <ele>165.6</ele>
        <time>2017-05-28T08:39:08.000Z</time>
      </trkpt>
      <trkpt lat="44.41244" lon="1.01347">
        <ele>165.9</ele>
        <time>2017-05-28T08:39:09.000Z</time>
      </trkpt>
      <trkpt lat="44.41245" lon="1.01344">
        <ele>166.1</ele>
        <time>2017-05-28T08:39:10.000Z</time>
      </trkpt>
      <trkpt lat="44.41247" lon="1.01343">
        <ele>166.3</ele>
        <time>2017-05-28T08:39:11.000Z</time>
      </trkpt>
      <trkpt lat="44.41248" lon="1.01342">
        <ele>166.5</ele>
        <time>2017-05-28T08:39:12.000Z</time>
      </trkpt>
      <trkpt lat="44.4125" lon="1.0134">
        <ele>166.6</ele>
        <time>2017-05-28T08:39:13.000Z</time>
      </trkpt>
      <trkpt lat="44.41251" lon="1.01339">
        <ele>166.9</ele>
        <time>2017-05-28T08:39:14.000Z</time>
      </trkpt>
      <trkpt lat="44.41253" lon="1.01338">
        <ele>167.1</ele>
        <time>2017-05-28T08:39:15.000Z</time>
      </trkpt>
      <trkpt lat="44.41255" lon="1.01337">
        <ele>167.3</ele>
        <time>2017-05-28T08:39:16.000Z</time>
      </trkpt>
      <trkpt lat="44.41257" lon="1.01336">
        <ele>167.6</ele>
        <time>2017-05-28T08:39:17.000Z</time>
      </trkpt>
      <trkpt lat="44.4126" lon="1.01336">
        <ele>167.8</ele>
        <time>2017-05-28T08:39:18.000Z</time>
      </trkpt>
      <trkpt lat="44.41262" lon="1.01336">
        <ele>168</ele>
        <time>2017-05-28T08:39:19.000Z</time>
      </trkpt>
      <trkpt lat="44.41264" lon="1.01336">
        <ele>168.2</ele>
        <time>2017-05-28T08:39:20.000Z</time>
      </trkpt>
      <trkpt lat="44.41265" lon="1.01337">
        <ele>168.3</ele>
        <time>2017-05-28T08:39:21.000Z</time>
      </trkpt>
      <trkpt lat="44.41267" lon="1.01337">
        <ele>168.4</ele>
        <time>2017-05-28T08:39:22.000Z</time>
      </trkpt>
      <trkpt lat="44.41268" lon="1.01337">
        <ele>168.6</ele>
        <time>2017-05-28T08:39:23.000Z</time>
      </trkpt>
      <trkpt lat="44.4127" lon="1.01338">
        <ele>168.7</ele>
        <time>2017-05-28T08:39:24.000Z</time>
      </trkpt>
      <trkpt lat="44.41271" lon="1.01338">
        <ele>168.8</ele>
        <time>2017-05-28T08:39:25.000Z</time>
      </trkpt>
      <trkpt lat="44.41273" lon="1.01338">
        <ele>168.9</ele>
        <time>2017-05-28T08:39:26.000Z</time>
      </trkpt>
      <trkpt lat="44.41274" lon="1.01339">
        <ele>169.1</ele>
        <time>2017-05-28T08:39:27.000Z</time>
      </trkpt>
      <trkpt lat="44.41276" lon="1.01339">
        <ele>169.2</ele>
        <time>2017-05-28T08:39:28.000Z</time>
      </trkpt>
      <trkpt lat="44.41278" lon="1.0134">
        <ele>169.3</ele>
        <time>2017-05-28T08:39:29.000Z</time>
      </trkpt>
      <trkpt lat="44.41279" lon="1.0134">
        <ele>169.4</ele>
        <time>2017-05-28T08:39:30.000Z</time>
      </trkpt>
      <trkpt lat="44.41281" lon="1.0134">
        <ele>169.6</ele>
        <time>2017-05-28T08:39:31.000Z</time>
      </trkpt>
      <trkpt lat="44.41282" lon="1.0134">
        <ele>169.7</ele>
        <time>2017-05-28T08:39:32.000Z</time>
      </trkpt>
      <trkpt lat="44.41284" lon="1.0134">
        <ele>169.9</ele>
        <time>2017-05-28T08:39:33.000Z</time>
      </trkpt>
      <trkpt lat="44.41286" lon="1.01339">
        <ele>170.1</ele>
        <time>2017-05-28T08:39:34.000Z</time>
      </trkpt>
      <trkpt lat="44.41287" lon="1.01339">
        <ele>170.3</ele>
        <time>2017-05-28T08:39:35.000Z</time>
      </trkpt>
      <trkpt lat="44.41289" lon="1.01338">
        <ele>170.5</ele>
        <time>2017-05-28T08:39:36.000Z</time>
      </trkpt>
      <trkpt lat="44.41291" lon="1.01337">
        <ele>170.7</ele>
        <time>2017-05-28T08:39:37.000Z</time>
      </trkpt>
      <trkpt lat="44.41292" lon="1.01336">
        <ele>170.9</ele>
        <time>2017-05-28T08:39:38.000Z</time>
      </trkpt>
      <trkpt lat="44.41294" lon="1.01335">
        <ele>171.1</ele>
        <time>2017-05-28T08:39:39.000Z</time>
      </trkpt>
      <trkpt lat="44.41296" lon="1.01335">
        <ele>171.3</ele>
        <time>2017-05-28T08:39:40.000Z</time>
      </trkpt>
      <trkpt lat="44.41297" lon="1.01335">
        <ele>171.4</ele>
        <time>2017-05-28T08:39:41.000Z</time>
      </trkpt>
      <trkpt lat="44.41299" lon="1.01336">
        <ele>171.5</ele>
        <time>2017-05-28T08:39:42.000Z</time>
      </trkpt>
      <trkpt lat="44.413" lon="1.01337">
        <ele>171.6</ele>
        <time>2017-05-28T08:39:43.000Z</time>
      </trkpt>
      <trkpt lat="44.41301" lon="1.01338">
        <ele>171.6</ele>
        <time>2017-05-28T08:39:44.000Z</time>
      </trkpt>
      <trkpt lat="44.41302" lon="1.0134">
        <ele>171.6</ele>
        <time>2017-05-28T08:39:45.000Z</time>
      </trkpt>
      <trkpt lat="44.41302" lon="1.01341">
        <ele>171.5</ele>
        <time>2017-05-28T08:39:46.000Z</time>
      </trkpt>
      <trkpt lat="44.41302" lon="1.01343">
        <ele>171.5</ele>
        <time>2017-05-28T08:39:47.000Z</time>
      </trkpt>
      <trkpt lat="44.41303" lon="1.01344">
        <ele>171.4</ele>
        <time>2017-05-28T08:39:48.000Z</time>
      </trkpt>
      <trkpt lat="44.41303" lon="1.01345">
        <ele>171.4</ele>
        <time>2017-05-28T08:39:49.000Z</time>
      </trkpt>
      <trkpt lat="44.41303" lon="1.01346">
        <ele>171.4</ele>
        <time>2017-05-28T08:39:50.000Z</time>
      </trkpt>
      <trkpt lat="44.41304" lon="1.01347">
        <ele>171.4</ele>
        <time>2017-05-28T08:39:51.000Z</time>
      </trkpt>
      <trkpt lat="44.41304" lon="1.01347">
        <ele>171.4</ele>
        <time>2017-05-28T08:39:52.000Z</time>
      </trkpt>
      <trkpt lat="44.41305" lon="1.01348">
        <ele>171.5</ele>
        <time>2017-05-28T08:39:53.000Z</time>
      </trkpt>
      <trkpt lat="44.41307" lon="1.01349">
        <ele>171.6</ele>
        <time>2017-05-28T08:39:54.000Z</time>
      </trkpt>
      <trkpt lat="44.41308" lon="1.01349">
        <ele>171.7</ele>
        <time>2017-05-28T08:39:55.000Z</time>
      </trkpt>
      <trkpt lat="44.4131" lon="1.01349">
        <ele>171.9</ele>
        <time>2017-05-28T08:39:56.000Z</time>
      </trkpt>
      <trkpt lat="44.41311" lon="1.01349">
        <ele>172</ele>
        <time>2017-05-28T08:39:57.000Z</time>
      </trkpt>
      <trkpt lat="44.41313" lon="1.01349">
        <ele>172.2</ele>
        <time>2017-05-28T08:39:58.000Z</time>
      </trkpt>
      <trkpt lat="44.41314" lon="1.01349">
        <ele>172.3</ele>
        <time>2017-05-28T08:39:59.000Z</time>
      </trkpt>
      <trkpt lat="44.41316" lon="1.01349">
        <ele>172.4</ele>
        <time>2017-05-28T08:40:00.000Z</time>
      </trkpt>
      <trkpt lat="44.41317" lon="1.0135">
        <ele>172.4</ele>
        <time>2017-05-28T08:40:01.000Z</time>
      </trkpt>
      <trkpt lat="44.41318" lon="1.01352">
        <ele>172.4</ele>
        <time>2017-05-28T08:40:02.000Z</time>
      </trkpt>
      <trkpt lat="44.41318" lon="1.01353">
        <ele>172.4</ele>
        <time>2017-05-28T08:40:03.000Z</time>
      </trkpt>
      <trkpt lat="44.41319" lon="1.01355">
        <ele>172.4</ele>
        <time>2017-05-28T08:40:04.000Z</time>
      </trkpt>
      <trkpt lat="44.4132" lon="1.01358">
        <ele>172.3</ele>
        <time>2017-05-28T08:40:05.000Z</time>
      </trkpt>
      <trkpt lat="44.41321" lon="1.0136">
        <ele>172.3</ele>
        <time>2017-05-28T08:40:06.000Z</time>
      </trkpt>
      <trkpt lat="44.41322" lon="1.01361">
        <ele>172.2</ele>
        <time>2017-05-28T08:40:07.000Z</time>
      </trkpt>
      <trkpt lat="44.41323" lon="1.01363">
        <ele>172.2</ele>
        <time>2017-05-28T08:40:08.000Z</time>
      </trkpt>
      <trkpt lat="44.41324" lon="1.01364">
        <ele>172.3</ele>
        <time>2017-05-28T08:40:09.000Z</time>
      </trkpt>
      <trkpt lat="44.41325" lon="1.01365">
        <ele>172.4</ele>
        <time>2017-05-28T08:40:10.000Z</time>
      </trkpt>
      <trkpt lat="44.41327" lon="1.01365">
        <ele>172.5</ele>
        <time>2017-05-28T08:40:11.000Z</time>
      </trkpt>
      <trkpt lat="44.41328" lon="1.01365">
        <ele>172.6</ele>
        <time>2017-05-28T08:40:12.000Z</time>
      </trkpt>
      <trkpt lat="44.4133" lon="1.01365">
        <ele>172.7</ele>
        <time>2017-05-28T08:40:13.000Z</time>
      </trkpt>
      <trkpt lat="44.41331" lon="1.01366">
        <ele>172.9</ele>
        <time>2017-05-28T08:40:14.000Z</time>
      </trkpt>
      <trkpt lat="44.41333" lon="1.01366">
        <ele>173</ele>
        <time>2017-05-28T08:40:15.000Z</time>
      </trkpt>
      <trkpt lat="44.41334" lon="1.01366">
        <ele>173.2</ele>
        <time>2017-05-28T08:40:16.000Z</time>
      </trkpt>
      <trkpt lat="44.41336" lon="1.01367">
        <ele>173.3</ele>
        <time>2017-05-28T08:40:17.000Z</time>
      </trkpt>
      <trkpt lat="44.41337" lon="1.01368">
        <ele>173.5</ele>
        <time>2017-05-28T08:40:18.000Z</time>
      </trkpt>
      <trkpt lat="44.41339" lon="1.01369">
        <ele>173.7</ele>
        <time>2017-05-28T08:40:19.000Z</time>
      </trkpt>
      <trkpt lat="44.4134" lon="1.01369">
        <ele>173.8</ele>
        <time>2017-05-28T08:40:20.000Z</time>
      </trkpt>
      <trkpt lat="44.41342" lon="1.0137">
        <ele>174</ele>
        <time>2017-05-28T08:40:21.000Z</time>
      </trkpt>
      <trkpt lat="44.41343" lon="1.0137">
        <ele>174.2</ele>
        <time>2017-05-28T08:40:22.000Z</time>
      </trkpt>
      <trkpt lat="44.41345" lon="1.0137">
        <ele>174.5</ele>
        <time>2017-05-28T08:40:23.000Z</time>
      </trkpt>
      <trkpt lat="44.41346" lon="1.01369">
        <ele>174.7</ele>
        <time>2017-05-28T08:40:24.000Z</time>
      </trkpt>
      <trkpt lat="44.41348" lon="1.01369">
        <ele>175</ele>
        <time>2017-05-28T08:40:25.000Z</time>
      </trkpt>
      <trkpt lat="44.41349" lon="1.01368">
        <ele>175.2</ele>
        <time>2017-05-28T08:40:26.000Z</time>
      </trkpt>
      <trkpt lat="44.41351" lon="1.01368">
        <ele>175.5</ele>
        <time>2017-05-28T08:40:27.000Z</time>
      </trkpt>
      <trkpt lat="44.41353" lon="1.01368">
        <ele>175.8</ele>
        <time>2017-05-28T08:40:28.000Z</time>
      </trkpt>
      <trkpt lat="44.41354" lon="1.01367">
        <ele>176</ele>
        <time>2017-05-28T08:40:29.000Z</time>
      </trkpt>
      <trkpt lat="44.41356" lon="1.01368">
        <ele>176.2</ele>
        <time>2017-05-28T08:40:30.000Z</time>
      </trkpt>
      <trkpt lat="44.41357" lon="1.01368">
        <ele>176.5</ele>
        <time>2017-05-28T08:40:31.000Z</time>
      </trkpt>
      <trkpt lat="44.41359" lon="1.01368">
        <ele>176.7</ele>
        <time>2017-05-28T08:40:32.000Z</time>
      </trkpt>
      <trkpt lat="44.4136" lon="1.01369">
        <ele>176.8</ele>
        <time>2017-05-28T08:40:33.000Z</time>
      </trkpt>
      <trkpt lat="44.41362" lon="1.01369">
        <ele>177</ele>
        <time>2017-05-28T08:40:34.000Z</time>
      </trkpt>
      <trkpt lat="44.41363" lon="1.0137">
        <ele>177.2</ele>
        <time>2017-05-28T08:40:35.000Z</time>
      </trkpt>
      <trkpt lat="44.41365" lon="1.0137">
        <ele>177.4</ele>
        <time>2017-05-28T08:40:36.000Z</time>
      </trkpt>
      <trkpt lat="44.41366" lon="1.01371">
        <ele>177.6</ele>
        <time>2017-05-28T08:40:37.000Z</time>
      </trkpt>
      <trkpt lat="44.41368" lon="1.01371">
        <ele>177.8</ele>
        <time>2017-05-28T08:40:38.000Z</time>
      </trkpt>
      <trkpt lat="44.41369" lon="1.01371">
        <ele>178</ele>
        <time>2017-05-28T08:40:39.000Z</time>
      </trkpt>
      <trkpt lat="44.41371" lon="1.01371">
        <ele>178.3</ele>
        <time>2017-05-28T08:40:40.000Z</time>
      </trkpt>
      <trkpt lat="44.41372" lon="1.01371">
        <ele>178.5</ele>
        <time>2017-05-28T08:40:41.000Z</time>
      </trkpt>
      <trkpt lat="44.41374" lon="1.01371">
        <ele>178.7</ele>
        <time>2017-05-28T08:40:42.000Z</time>
      </trkpt>
      <trkpt lat="44.41375" lon="1.01371">
        <ele>178.9</ele>
        <time>2017-05-28T08:40:43.000Z</time>
      </trkpt>
      <trkpt lat="44.41376" lon="1.0137">
        <ele>179.2</ele>
        <time>2017-05-28T08:40:44.000Z</time>
      </trkpt>
      <trkpt lat="44.41378" lon="1.01369">
        <ele>179.4</ele>
        <time>2017-05-28T08:40:45.000Z</time>
      </trkpt>
      <trkpt lat="44.41379" lon="1.01369">
        <ele>179.6</ele>
        <time>2017-05-28T08:40:46.000Z</time>
      </trkpt>
      <trkpt lat="44.4138" lon="1.01368">
        <ele>179.8</ele>
        <time>2017-05-28T08:40:47.000Z</time>
      </trkpt>
      <trkpt lat="44.41382" lon="1.01367">
        <ele>180</ele>
        <time>2017-05-28T08:40:48.000Z</time>
      </trkpt>
      <trkpt lat="44.41383" lon="1.01366">
        <ele>180.3</ele>
        <time>2017-05-28T08:40:49.000Z</time>
      </trkpt>
      <trkpt lat="44.41384" lon="1.01366">
        <ele>180.5</ele>
        <time>2017-05-28T08:40:50.000Z</time>
      </trkpt>
      <trkpt lat="44.41385" lon="1.01365">
        <ele>180.7</ele>
        <time>2017-05-28T08:40:51.000Z</time>
      </trkpt>
      <trkpt lat="44.41387" lon="1.01364">
        <ele>180.9</ele>
        <time>2017-05-28T08:40:52.000Z</time>
      </trkpt>
      <trkpt lat="44.41388" lon="1.01363">
        <ele>181.1</ele>
        <time>2017-05-28T08:40:53.000Z</time>
      </trkpt>
      <trkpt lat="44.41389" lon="1.01362">
        <ele>181.3</ele>
        <time>2017-05-28T08:40:54.000Z</time>
      </trkpt>
      <trkpt lat="44.4139" lon="1.01361">
        <ele>181.6</ele>
        <time>2017-05-28T08:40:55.000Z</time>
      </trkpt>
      <trkpt lat="44.41392" lon="1.0136">
        <ele>181.8</ele>
        <time>2017-05-28T08:40:56.000Z</time>
      </trkpt>
      <trkpt lat="44.41393" lon="1.0136">
        <ele>182</ele>
        <time>2017-05-28T08:40:57.000Z</time>
      </trkpt>
      <trkpt lat="44.41394" lon="1.01359">
        <ele>182.2</ele>
        <time>2017-05-28T08:40:58.000Z</time>
      </trkpt>
      <trkpt lat="44.41396" lon="1.01359">
        <ele>182.4</ele>
        <time>2017-05-28T08:40:59.000Z</time>
      </trkpt>
      <trkpt lat="44.41397" lon="1.01358">
        <ele>182.6</ele>
        <time>2017-05-28T08:41:00.000Z</time>
      </trkpt>
      <trkpt lat="44.41399" lon="1.01358">
        <ele>182.8</ele>
        <time>2017-05-28T08:41:01.000Z</time>
      </trkpt>
      <trkpt lat="44.414" lon="1.01357">
        <ele>183</ele>
        <time>2017-05-28T08:41:02.000Z</time>
      </trkpt>
      <trkpt lat="44.41401" lon="1.01357">
        <ele>183.3</ele>
        <time>2017-05-28T08:41:03.000Z</time>
      </trkpt>
      <trkpt lat="44.41403" lon="1.01356">
        <ele>183.5</ele>
        <time>2017-05-28T08:41:04.000Z</time>
      </trkpt>
      <trkpt lat="44.41404" lon="1.01355">
        <ele>183.7</ele>
        <time>2017-05-28T08:41:05.000Z</time>
      </trkpt>
      <trkpt lat="44.41406" lon="1.01354">
        <ele>183.9</ele>
        <time>2017-05-28T08:41:06.000Z</time>
      </trkpt>
      <trkpt lat="44.41407" lon="1.01353">
        <ele>184.1</ele>
        <time>2017-05-28T08:41:07.000Z</time>
      </trkpt>
      <trkpt lat="44.41408" lon="1.01352">
        <ele>184.4</ele>
        <time>2017-05-28T08:41:08.000Z</time>
      </trkpt>
      <trkpt lat="44.41409" lon="1.01351">
        <ele>184.6</ele>
        <time>2017-05-28T08:41:09.000Z</time>
      </trkpt>
      <trkpt lat="44.41411" lon="1.0135">
        <ele>184.8</ele>
        <time>2017-05-28T08:41:10.000Z</time>
      </trkpt>
      <trkpt lat="44.41412" lon="1.01349">
        <ele>185</ele>
        <time>2017-05-28T08:41:11.000Z</time>
      </trkpt>
      <trkpt lat="44.41413" lon="1.01348">
        <ele>185.2</ele>
        <time>2017-05-28T08:41:12.000Z</time>
      </trkpt>
      <trkpt lat="44.41415" lon="1.01347">
        <ele>185.4</ele>
        <time>2017-05-28T08:41:13.000Z</time>
      </trkpt>
      <trkpt lat="44.41416" lon="1.01346">
        <ele>185.6</ele>
        <time>2017-05-28T08:41:14.000Z</time>
      </trkpt>
      <trkpt lat="44.41417" lon="1.01345">
        <ele>185.7</ele>
        <time>2017-05-28T08:41:15.000Z</time>
      </trkpt>
      <trkpt lat="44.41418" lon="1.01345">
        <ele>185.9</ele>
        <time>2017-05-28T08:41:16.000Z</time>
      </trkpt>
      <trkpt lat="44.41419" lon="1.01344">
        <ele>186</ele>
        <time>2017-05-28T08:41:17.000Z</time>
      </trkpt>
      <trkpt lat="44.41421" lon="1.01343">
        <ele>186.1</ele>
        <time>2017-05-28T08:41:18.000Z</time>
      </trkpt>
      <trkpt lat="44.41422" lon="1.01343">
        <ele>186.2</ele>
        <time>2017-05-28T08:41:19.000Z</time>
      </trkpt>
      <trkpt lat="44.41423" lon="1.01342">
        <ele>186.3</ele>
        <time>2017-05-28T08:41:20.000Z</time>
      </trkpt>
      <trkpt lat="44.41424" lon="1.01341">
        <ele>186.5</ele>
        <time>2017-05-28T08:41:21.000Z</time>
      </trkpt>
      <trkpt lat="44.41425" lon="1.01339">
        <ele>186.6</ele>
        <time>2017-05-28T08:41:22.000Z</time>
      </trkpt>
      <trkpt lat="44.41427" lon="1.01338">
        <ele>186.7</ele>
        <time>2017-05-28T08:41:23.000Z</time>
      </trkpt>
      <trkpt lat="44.41428" lon="1.01337">
        <ele>186.9</ele>
        <time>2017-05-28T08:41:24.000Z</time>
      </trkpt>
      <trkpt lat="44.4143" lon="1.01336">
        <ele>187</ele>
        <time>2017-05-28T08:41:25.000Z</time>
      </trkpt>
      <trkpt lat="44.41431" lon="1.01335">
        <ele>187.2</ele>
        <time>2017-05-28T08:41:26.000Z</time>
      </trkpt>
      <trkpt lat="44.41433" lon="1.01334">
        <ele>187.3</ele>
        <time>2017-05-28T08:41:27.000Z</time>
      </trkpt>
      <trkpt lat="44.41434" lon="1.01333">
        <ele>187.5</ele>
        <time>2017-05-28T08:41:28.000Z</time>
      </trkpt>
      <trkpt lat="44.41435" lon="1.01331">
        <ele>187.6</ele>
        <time>2017-05-28T08:41:29.000Z</time>
      </trkpt>
      <trkpt lat="44.41437" lon="1.0133">
        <ele>187.7</ele>
        <time>2017-05-28T08:41:30.000Z</time>
      </trkpt>
      <trkpt lat="44.41438" lon="1.01329">
        <ele>187.8</ele>
        <time>2017-05-28T08:41:31.000Z</time>
      </trkpt>
      <trkpt lat="44.41439" lon="1.01328">
        <ele>187.9</ele>
        <time>2017-05-28T08:41:32.000Z</time>
      </trkpt>
      <trkpt lat="44.4144" lon="1.01326">
        <ele>188</ele>
        <time>2017-05-28T08:41:33.000Z</time>
      </trkpt>
      <trkpt lat="44.41442" lon="1.01325">
        <ele>188.1</ele>
        <time>2017-05-28T08:41:34.000Z</time>
      </trkpt>
      <trkpt lat="44.41443" lon="1.01324">
        <ele>188.2</ele>
        <time>2017-05-28T08:41:35.000Z</time>
      </trkpt>
      <trkpt lat="44.41444" lon="1.01323">
        <ele>188.3</ele>
        <time>2017-05-28T08:41:36.000Z</time>
      </trkpt>
      <trkpt lat="44.41445" lon="1.01321">
        <ele>188.5</ele>
        <time>2017-05-28T08:41:37.000Z</time>
      </trkpt>
      <trkpt lat="44.41446" lon="1.0132">
        <ele>188.6</ele>
        <time>2017-05-28T08:41:38.000Z</time>
      </trkpt>
      <trkpt lat="44.41448" lon="1.01319">
        <ele>188.7</ele>
        <time>2017-05-28T08:41:39.000Z</time>
      </trkpt>
      <trkpt lat="44.41449" lon="1.01318">
        <ele>188.8</ele>
        <time>2017-05-28T08:41:40.000Z</time>
      </trkpt>
      <trkpt lat="44.4145" lon="1.01316">
        <ele>188.9</ele>
        <time>2017-05-28T08:41:41.000Z</time>
      </trkpt>
      <trkpt lat="44.41451" lon="1.01315">
        <ele>189</ele>
        <time>2017-05-28T08:41:42.000Z</time>
      </trkpt>
      <trkpt lat="44.41452" lon="1.01314">
        <ele>189.1</ele>
        <time>2017-05-28T08:41:43.000Z</time>
      </trkpt>
      <trkpt lat="44.41454" lon="1.01312">
        <ele>189.2</ele>
        <time>2017-05-28T08:41:44.000Z</time>
      </trkpt>
      <trkpt lat="44.41455" lon="1.01311">
        <ele>189.3</ele>
        <time>2017-05-28T08:41:45.000Z</time>
      </trkpt>
      <trkpt lat="44.41456" lon="1.0131">
        <ele>189.4</ele>
        <time>2017-05-28T08:41:46.000Z</time>
      </trkpt>
      <trkpt lat="44.41457" lon="1.01308">
        <ele>189.5</ele>
        <time>2017-05-28T08:41:47.000Z</time>
      </trkpt>
      <trkpt lat="44.41458" lon="1.01307">
        <ele>189.6</ele>
        <time>2017-05-28T08:41:48.000Z</time>
      </trkpt>
      <trkpt lat="44.41459" lon="1.01306">
        <ele>189.8</ele>
        <time>2017-05-28T08:41:49.000Z</time>
      </trkpt>
      <trkpt lat="44.41461" lon="1.01304">
        <ele>189.9</ele>
        <time>2017-05-28T08:41:50.000Z</time>
      </trkpt>
      <trkpt lat="44.41462" lon="1.01303">
        <ele>190</ele>
        <time>2017-05-28T08:41:51.000Z</time>
      </trkpt>
      <trkpt lat="44.41463" lon="1.01301">
        <ele>190.1</ele>
        <time>2017-05-28T08:41:52.000Z</time>
      </trkpt>
      <trkpt lat="44.41464" lon="1.013">
        <ele>190.2</ele>
        <time>2017-05-28T08:41:53.000Z</time>
      </trkpt>
      <trkpt lat="44.41465" lon="1.01299">
        <ele>190.3</ele>
        <time>2017-05-28T08:41:54.000Z</time>
      </trkpt>
      <trkpt lat="44.41466" lon="1.01297">
        <ele>190.4</ele>
        <time>2017-05-28T08:41:55.000Z</time>
      </trkpt>
      <trkpt lat="44.41468" lon="1.01296">
        <ele>190.6</ele>
        <time>2017-05-28T08:41:56.000Z</time>
      </trkpt>
      <trkpt lat="44.41469" lon="1.01294">
        <ele>190.7</ele>
        <time>2017-05-28T08:41:57.000Z</time>
      </trkpt>
      <trkpt lat="44.4147" lon="1.01293">
        <ele>190.8</ele>
        <time>2017-05-28T08:41:58.000Z</time>
      </trkpt>
      <trkpt lat="44.41471" lon="1.01292">
        <ele>190.9</ele>
        <time>2017-05-28T08:41:59.000Z</time>
      </trkpt>
      <trkpt lat="44.41472" lon="1.0129">
        <ele>191</ele>
        <time>2017-05-28T08:42:00.000Z</time>
      </trkpt>
      <trkpt lat="44.41474" lon="1.01289">
        <ele>191.2</ele>
        <time>2017-05-28T08:42:01.000Z</time>
      </trkpt>
      <trkpt lat="44.41475" lon="1.01288">
        <ele>191.3</ele>
        <time>2017-05-28T08:42:02.000Z</time>
      </trkpt>
      <trkpt lat="44.41476" lon="1.01286">
        <ele>191.4</ele>
        <time>2017-05-28T08:42:03.000Z</time>
      </trkpt>
      <trkpt lat="44.41477" lon="1.01285">
        <ele>191.5</ele>
        <time>2017-05-28T08:42:04.000Z</time>
      </trkpt>
      <trkpt lat="44.41479" lon="1.01284">
        <ele>191.6</ele>
        <time>2017-05-28T08:42:05.000Z</time>
      </trkpt>
      <trkpt lat="44.4148" lon="1.01282">
        <ele>191.8</ele>
        <time>2017-05-28T08:42:06.000Z</time>
      </trkpt>
      <trkpt lat="44.41481" lon="1.01281">
        <ele>191.9</ele>
        <time>2017-05-28T08:42:07.000Z</time>
      </trkpt>
      <trkpt lat="44.41482" lon="1.0128">
        <ele>192</ele>
        <time>2017-05-28T08:42:08.000Z</time>
      </trkpt>
      <trkpt lat="44.41483" lon="1.01278">
        <ele>192.1</ele>
        <time>2017-05-28T08:42:09.000Z</time>
      </trkpt>
      <trkpt lat="44.41485" lon="1.01277">
        <ele>192.3</ele>
        <time>2017-05-28T08:42:10.000Z</time>
      </trkpt>
      <trkpt lat="44.41486" lon="1.01275">
        <ele>192.4</ele>
        <time>2017-05-28T08:42:11.000Z</time>
      </trkpt>
      <trkpt lat="44.41487" lon="1.01274">
        <ele>192.5</ele>
        <time>2017-05-28T08:42:12.000Z</time>
      </trkpt>
      <trkpt lat="44.41488" lon="1.01272">
        <ele>192.6</ele>
        <time>2017-05-28T08:42:13.000Z</time>
      </trkpt>
      <trkpt lat="44.4149" lon="1.01271">
        <ele>192.8</ele>
        <time>2017-05-28T08:42:14.000Z</time>
      </trkpt>
      <trkpt lat="44.41491" lon="1.01269">
        <ele>192.9</ele>
        <time>2017-05-28T08:42:15.000Z</time>
      </trkpt>
      <trkpt lat="44.41492" lon="1.01267">
        <ele>193</ele>
        <time>2017-05-28T08:42:16.000Z</time>
      </trkpt>
      <trkpt lat="44.41493" lon="1.01266">
        <ele>193.2</ele>
        <time>2017-05-28T08:42:17.000Z</time>
      </trkpt>
      <trkpt lat="44.41494" lon="1.01265">
        <ele>193.3</ele>
        <time>2017-05-28T08:42:18.000Z</time>
      </trkpt>
      <trkpt lat="44.41496" lon="1.01263">
        <ele>193.4</ele>
        <time>2017-05-28T08:42:19.000Z</time>
      </trkpt>
      <trkpt lat="44.41497" lon="1.01262">
        <ele>193.6</ele>
        <time>2017-05-28T08:42:20.000Z</time>
      </trkpt>
      <trkpt lat="44.41498" lon="1.0126">
        <ele>193.7</ele>
        <time>2017-05-28T08:42:21.000Z</time>
      </trkpt>
      <trkpt lat="44.41499" lon="1.01259">
        <ele>193.8</ele>
        <time>2017-05-28T08:42:22.000Z</time>
      </trkpt>
      <trkpt lat="44.41501" lon="1.01258">
        <ele>194</ele>
        <time>2017-05-28T08:42:23.000Z</time>
      </trkpt>
      <trkpt lat="44.41502" lon="1.01256">
        <ele>194.2</ele>
        <time>2017-05-28T08:42:24.000Z</time>
      </trkpt>
      <trkpt lat="44.41503" lon="1.01255">
        <ele>194.3</ele>
        <time>2017-05-28T08:42:25.000Z</time>
      </trkpt>
      <trkpt lat="44.41505" lon="1.01254">
        <ele>194.5</ele>
        <time>2017-05-28T08:42:26.000Z</time>
      </trkpt>
      <trkpt lat="44.41506" lon="1.01252">
        <ele>194.7</ele>
        <time>2017-05-28T08:42:27.000Z</time>
      </trkpt>
      <trkpt lat="44.41507" lon="1.0125">
        <ele>194.9</ele>
        <time>2017-05-28T08:42:28.000Z</time>
      </trkpt>
      <trkpt lat="44.41509" lon="1.01249">
        <ele>195</ele>
        <time>2017-05-28T08:42:29.000Z</time>
      </trkpt>
      <trkpt lat="44.4151" lon="1.01247">
        <ele>195.2</ele>
        <time>2017-05-28T08:42:30.000Z</time>
      </trkpt>
      <trkpt lat="44.41511" lon="1.01245">
        <ele>195.3</ele>
        <time>2017-05-28T08:42:31.000Z</time>
      </trkpt>
      <trkpt lat="44.41512" lon="1.01242">
        <ele>195.4</ele>
        <time>2017-05-28T08:42:32.000Z</time>
      </trkpt>
      <trkpt lat="44.41512" lon="1.0124">
        <ele>195.5</ele>
        <time>2017-05-28T08:42:33.000Z</time>
      </trkpt>
      <trkpt lat="44.41512" lon="1.01237">
        <ele>195.6</ele>
        <time>2017-05-28T08:42:34.000Z</time>
      </trkpt>
      <trkpt lat="44.41512" lon="1.01233">
        <ele>195.6</ele>
        <time>2017-05-28T08:42:35.000Z</time>
      </trkpt>
      <trkpt lat="44.41512" lon="1.01229">
        <ele>195.6</ele>
        <time>2017-05-28T08:42:36.000Z</time>
      </trkpt>
      <trkpt lat="44.41512" lon="1.01225">
        <ele>195.6</ele>
        <time>2017-05-28T08:42:37.000Z</time>
      </trkpt>
      <trkpt lat="44.41513" lon="1.0122">
        <ele>195.7</ele>
        <time>2017-05-28T08:42:38.000Z</time>
      </trkpt>
      <trkpt lat="44.41514" lon="1.01216">
        <ele>195.9</ele>
        <time>2017-05-28T08:42:39.000Z</time>
      </trkpt>
      <trkpt lat="44.41515" lon="1.01213">
        <ele>196</ele>
        <time>2017-05-28T08:42:40.000Z</time>
      </trkpt>
      <trkpt lat="44.41517" lon="1.0121">
        <ele>196.2</ele>
        <time>2017-05-28T08:42:41.000Z</time>
      </trkpt>
      <trkpt lat="44.41519" lon="1.01207">
        <ele>196.5</ele>
        <time>2017-05-28T08:42:42.000Z</time>
      </trkpt>
      <trkpt lat="44.41522" lon="1.01205">
        <ele>196.7</ele>
        <time>2017-05-28T08:42:43.000Z</time>
      </trkpt>
      <trkpt lat="44.41524" lon="1.01203">
        <ele>196.9</ele>
        <time>2017-05-28T08:42:44.000Z</time>
      </trkpt>
      <trkpt lat="44.41526" lon="1.01201">
        <ele>197.1</ele>
        <time>2017-05-28T08:42:45.000Z</time>
      </trkpt>
      <trkpt lat="44.41528" lon="1.01198">
        <ele>197.3</ele>
        <time>2017-05-28T08:42:46.000Z</time>
      </trkpt>
      <trkpt lat="44.4153" lon="1.01196">
        <ele>197.5</ele>
        <time>2017-05-28T08:42:47.000Z</time>
      </trkpt>
      <trkpt lat="44.41532" lon="1.01194">
        <ele>197.7</ele>
        <time>2017-05-28T08:42:48.000Z</time>
      </trkpt>
      <trkpt lat="44.41533" lon="1.01192">
        <ele>197.9</ele>
        <time>2017-05-28T08:42:49.000Z</time>
      </trkpt>
      <trkpt lat="44.41535" lon="1.0119">
        <ele>198</ele>
        <time>2017-05-28T08:42:50.000Z</time>
      </trkpt>
      <trkpt lat="44.41535" lon="1.01189">
        <ele>198</ele>
        <time>2017-05-28T08:42:51.000Z</time>
      </trkpt>
      <trkpt lat="44.41536" lon="1.01187">
        <ele>198.1</ele>
        <time>2017-05-28T08:42:52.000Z</time>
      </trkpt>
      <trkpt lat="44.41537" lon="1.01186">
        <ele>198.2</ele>
        <time>2017-05-28T08:42:53.000Z</time>
      </trkpt>
      <trkpt lat="44.41539" lon="1.01185">
        <ele>198.3</ele>
        <time>2017-05-28T08:42:54.000Z</time>
      </trkpt>
      <trkpt lat="44.41541" lon="1.01185">
        <ele>198.5</ele>
        <time>2017-05-28T08:42:55.000Z</time>
      </trkpt>
      <trkpt lat="44.41542" lon="1.01185">
        <ele>198.7</ele>
        <time>2017-05-28T08:42:56.000Z</time>
      </trkpt>
      <trkpt lat="44.41544" lon="1.01187">
        <ele>198.9</ele>
        <time>2017-05-28T08:42:57.000Z</time>
      </trkpt>
      <trkpt lat="44.41547" lon="1.01189">
        <ele>199.1</ele>
        <time>2017-05-28T08:42:58.000Z</time>
      </trkpt>
      <trkpt lat="44.41549" lon="1.0119">
        <ele>199.3</ele>
        <time>2017-05-28T08:42:59.000Z</time>
      </trkpt>
      <trkpt lat="44.41551" lon="1.01192">
        <ele>199.5</ele>
        <time>2017-05-28T08:43:00.000Z</time>
      </trkpt>
      <trkpt lat="44.41553" lon="1.01193">
        <ele>199.7</ele>
        <time>2017-05-28T08:43:01.000Z</time>
      </trkpt>
      <trkpt lat="44.41555" lon="1.01195">
        <ele>199.9</ele>
        <time>2017-05-28T08:43:02.000Z</time>
      </trkpt>
      <trkpt lat="44.41557" lon="1.01196">
        <ele>200.1</ele>
        <time>2017-05-28T08:43:03.000Z</time>
      </trkpt>
      <trkpt lat="44.41559" lon="1.01197">
        <ele>200.3</ele>
        <time>2017-05-28T08:43:04.000Z</time>
      </trkpt>
      <trkpt lat="44.41561" lon="1.01198">
        <ele>200.6</ele>
        <time>2017-05-28T08:43:05.000Z</time>
      </trkpt>
      <trkpt lat="44.41563" lon="1.012">
        <ele>200.7</ele>
        <time>2017-05-28T08:43:06.000Z</time>
      </trkpt>
      <trkpt lat="44.41564" lon="1.01201">
        <ele>200.9</ele>
        <time>2017-05-28T08:43:07.000Z</time>
      </trkpt>
      <trkpt lat="44.41566" lon="1.01202">
        <ele>201.1</ele>
        <time>2017-05-28T08:43:08.000Z</time>
      </trkpt>
      <trkpt lat="44.41568" lon="1.01203">
        <ele>201.3</ele>
        <time>2017-05-28T08:43:09.000Z</time>
      </trkpt>
      <trkpt lat="44.41569" lon="1.01204">
        <ele>201.5</ele>
        <time>2017-05-28T08:43:10.000Z</time>
      </trkpt>
      <trkpt lat="44.41571" lon="1.01205">
        <ele>201.7</ele>
        <time>2017-05-28T08:43:11.000Z</time>
      </trkpt>
      <trkpt lat="44.41573" lon="1.01206">
        <ele>201.9</ele>
        <time>2017-05-28T08:43:12.000Z</time>
      </trkpt>
      <trkpt lat="44.41575" lon="1.01207">
        <ele>202.1</ele>
        <time>2017-05-28T08:43:13.000Z</time>
      </trkpt>
      <trkpt lat="44.41577" lon="1.01208">
        <ele>202.3</ele>
        <time>2017-05-28T08:43:14.000Z</time>
      </trkpt>
      <trkpt lat="44.41578" lon="1.01209">
        <ele>202.5</ele>
        <time>2017-05-28T08:43:15.000Z</time>
      </trkpt>
      <trkpt lat="44.4158" lon="1.0121">
        <ele>202.7</ele>
        <time>2017-05-28T08:43:16.000Z</time>
      </trkpt>
      <trkpt lat="44.41582" lon="1.01211">
        <ele>202.9</ele>
        <time>2017-05-28T08:43:17.000Z</time>
      </trkpt>
      <trkpt lat="44.41584" lon="1.01212">
        <ele>203.1</ele>
        <time>2017-05-28T08:43:18.000Z</time>
      </trkpt>
      <trkpt lat="44.41585" lon="1.01212">
        <ele>203.2</ele>
        <time>2017-05-28T08:43:19.000Z</time>
      </trkpt>
      <trkpt lat="44.41587" lon="1.01213">
        <ele>203.4</ele>
        <time>2017-05-28T08:43:20.000Z</time>
      </trkpt>
      <trkpt lat="44.41589" lon="1.01214">
        <ele>203.5</ele>
        <time>2017-05-28T08:43:21.000Z</time>
      </trkpt>
      <trkpt lat="44.41591" lon="1.01215">
        <ele>203.6</ele>
        <time>2017-05-28T08:43:22.000Z</time>
      </trkpt>
      <trkpt lat="44.41591" lon="1.01215">
        <ele>203.6</ele>
        <time>2017-05-28T08:43:23.000Z</time>
      </trkpt>
      <trkpt lat="44.41592" lon="1.01215">
        <ele>203.7</ele>
        <time>2017-05-28T08:43:24.000Z</time>
      </trkpt>
      <trkpt lat="44.41594" lon="1.01216">
        <ele>203.9</ele>
        <time>2017-05-28T08:43:25.000Z</time>
      </trkpt>
      <trkpt lat="44.41597" lon="1.01217">
        <ele>204.1</ele>
        <time>2017-05-28T08:43:26.000Z</time>
      </trkpt>
      <trkpt lat="44.41599" lon="1.01218">
        <ele>204.2</ele>
        <time>2017-05-28T08:43:27.000Z</time>
      </trkpt>
      <trkpt lat="44.41601" lon="1.01218">
        <ele>204.3</ele>
        <time>2017-05-28T08:43:28.000Z</time>
      </trkpt>
      <trkpt lat="44.41602" lon="1.01218">
        <ele>204.5</ele>
        <time>2017-05-28T08:43:29.000Z</time>
      </trkpt>
      <trkpt lat="44.41604" lon="1.01219">
        <ele>204.6</ele>
        <time>2017-05-28T08:43:30.000Z</time>
      </trkpt>
      <trkpt lat="44.41606" lon="1.0122">
        <ele>204.7</ele>
        <time>2017-05-28T08:43:31.000Z</time>
      </trkpt>
      <trkpt lat="44.41608" lon="1.0122">
        <ele>204.8</ele>
        <time>2017-05-28T08:43:32.000Z</time>
      </trkpt>
      <trkpt lat="44.4161" lon="1.01221">
        <ele>205</ele>
        <time>2017-05-28T08:43:33.000Z</time>
      </trkpt>
      <trkpt lat="44.41612" lon="1.01222">
        <ele>205.1</ele>
        <time>2017-05-28T08:43:34.000Z</time>
      </trkpt>
      <trkpt lat="44.41613" lon="1.01222">
        <ele>205.3</ele>
        <time>2017-05-28T08:43:35.000Z</time>
      </trkpt>
      <trkpt lat="44.41615" lon="1.01223">
        <ele>205.4</ele>
        <time>2017-05-28T08:43:36.000Z</time>
      </trkpt>
      <trkpt lat="44.41617" lon="1.01224">
        <ele>205.5</ele>
        <time>2017-05-28T08:43:37.000Z</time>
      </trkpt>
      <trkpt lat="44.41619" lon="1.01224">
        <ele>205.6</ele>
        <time>2017-05-28T08:43:38.000Z</time>
      </trkpt>
      <trkpt lat="44.41621" lon="1.01225">
        <ele>205.8</ele>
        <time>2017-05-28T08:43:39.000Z</time>
      </trkpt>
      <trkpt lat="44.41622" lon="1.01225">
        <ele>205.9</ele>
        <time>2017-05-28T08:43:40.000Z</time>
      </trkpt>
      <trkpt lat="44.41624" lon="1.01226">
        <ele>206</ele>
        <time>2017-05-28T08:43:41.000Z</time>
      </trkpt>
      <trkpt lat="44.41626" lon="1.01226">
        <ele>206.1</ele>
        <time>2017-05-28T08:43:42.000Z</time>
      </trkpt>
      <trkpt lat="44.41628" lon="1.01227">
        <ele>206.3</ele>
        <time>2017-05-28T08:43:43.000Z</time>
      </trkpt>
      <trkpt lat="44.4163" lon="1.01228">
        <ele>206.4</ele>
        <time>2017-05-28T08:43:44.000Z</time>
      </trkpt>
      <trkpt lat="44.41631" lon="1.01229">
        <ele>206.5</ele>
        <time>2017-05-28T08:43:45.000Z</time>
      </trkpt>
      <trkpt lat="44.41633" lon="1.01229">
        <ele>206.6</ele>
        <time>2017-05-28T08:43:46.000Z</time>
      </trkpt>
      <trkpt lat="44.41634" lon="1.0123">
        <ele>206.7</ele>
        <time>2017-05-28T08:43:47.000Z</time>
      </trkpt>
      <trkpt lat="44.41636" lon="1.01231">
        <ele>206.8</ele>
        <time>2017-05-28T08:43:48.000Z</time>
      </trkpt>
      <trkpt lat="44.41638" lon="1.01231">
        <ele>207</ele>
        <time>2017-05-28T08:43:49.000Z</time>
      </trkpt>
      <trkpt lat="44.4164" lon="1.01232">
        <ele>207.1</ele>
        <time>2017-05-28T08:43:50.000Z</time>
      </trkpt>
      <trkpt lat="44.41641" lon="1.01233">
        <ele>207.2</ele>
        <time>2017-05-28T08:43:51.000Z</time>
      </trkpt>
      <trkpt lat="44.41643" lon="1.01233">
        <ele>207.3</ele>
        <time>2017-05-28T08:43:52.000Z</time>
      </trkpt>
      <trkpt lat="44.41645" lon="1.01235">
        <ele>207.4</ele>
        <time>2017-05-28T08:43:53.000Z</time>
      </trkpt>
      <trkpt lat="44.41646" lon="1.01236">
        <ele>207.6</ele>
        <time>2017-05-28T08:43:54.000Z</time>
      </trkpt>
      <trkpt lat="44.41648" lon="1.01237">
        <ele>207.7</ele>
        <time>2017-05-28T08:43:55.000Z</time>
      </trkpt>
      <trkpt lat="44.4165" lon="1.01238">
        <ele>207.8</ele>
        <time>2017-05-28T08:43:56.000Z</time>
      </trkpt>
      <trkpt lat="44.41652" lon="1.01238">
        <ele>207.9</ele>
        <time>2017-05-28T08:43:57.000Z</time>
      </trkpt>
      <trkpt lat="44.41654" lon="1.01239">
        <ele>208.1</ele>
        <time>2017-05-28T08:43:58.000Z</time>
      </trkpt>
      <trkpt lat="44.41656" lon="1.0124">
        <ele>208.2</ele>
        <time>2017-05-28T08:43:59.000Z</time>
      </trkpt>
      <trkpt lat="44.41658" lon="1.0124">
        <ele>208.3</ele>
        <time>2017-05-28T08:44:00.000Z</time>
      </trkpt>
      <trkpt lat="44.4166" lon="1.01241">
        <ele>208.5</ele>
        <time>2017-05-28T08:44:01.000Z</time>
      </trkpt>
      <trkpt lat="44.41662" lon="1.01241">
        <ele>208.6</ele>
        <time>2017-05-28T08:44:02.000Z</time>
      </trkpt>
      <trkpt lat="44.41664" lon="1.01241">
        <ele>208.8</ele>
        <time>2017-05-28T08:44:03.000Z</time>
      </trkpt>
      <trkpt lat="44.41667" lon="1.01242">
        <ele>208.9</ele>
        <time>2017-05-28T08:44:04.000Z</time>
      </trkpt>
      <trkpt lat="44.4167" lon="1.01242">
        <ele>209</ele>
        <time>2017-05-28T08:44:05.000Z</time>
      </trkpt>
      <trkpt lat="44.41672" lon="1.01242">
        <ele>209.2</ele>
        <time>2017-05-28T08:44:06.000Z</time>
      </trkpt>
      <trkpt lat="44.41675" lon="1.01242">
        <ele>209.3</ele>
        <time>2017-05-28T08:44:07.000Z</time>
      </trkpt>
      <trkpt lat="44.41677" lon="1.01242">
        <ele>209.4</ele>
        <time>2017-05-28T08:44:08.000Z</time>
      </trkpt>
      <trkpt lat="44.4168" lon="1.01242">
        <ele>209.6</ele>
        <time>2017-05-28T08:44:09.000Z</time>
      </trkpt>
      <trkpt lat="44.41682" lon="1.01242">
        <ele>209.7</ele>
        <time>2017-05-28T08:44:10.000Z</time>
      </trkpt>
      <trkpt lat="44.41685" lon="1.01243">
        <ele>209.8</ele>
        <time>2017-05-28T08:44:11.000Z</time>
      </trkpt>
      <trkpt lat="44.41687" lon="1.01243">
        <ele>209.9</ele>
        <time>2017-05-28T08:44:12.000Z</time>
      </trkpt>
      <trkpt lat="44.41689" lon="1.01243">
        <ele>210</ele>
        <time>2017-05-28T08:44:13.000Z</time>
      </trkpt>
      <trkpt lat="44.41691" lon="1.01243">
        <ele>210.2</ele>
        <time>2017-05-28T08:44:14.000Z</time>
      </trkpt>
      <trkpt lat="44.41694" lon="1.01243">
        <ele>210.3</ele>
        <time>2017-05-28T08:44:15.000Z</time>
      </trkpt>
      <trkpt lat="44.41696" lon="1.01243">
        <ele>210.4</ele>
        <time>2017-05-28T08:44:16.000Z</time>
      </trkpt>
      <trkpt lat="44.41698" lon="1.01243">
        <ele>210.5</ele>
        <time>2017-05-28T08:44:17.000Z</time>
      </trkpt>
      <trkpt lat="44.417" lon="1.01243">
        <ele>210.6</ele>
        <time>2017-05-28T08:44:18.000Z</time>
      </trkpt>
      <trkpt lat="44.41703" lon="1.01244">
        <ele>210.7</ele>
        <time>2017-05-28T08:44:19.000Z</time>
      </trkpt>
      <trkpt lat="44.41705" lon="1.01244">
        <ele>210.8</ele>
        <time>2017-05-28T08:44:20.000Z</time>
      </trkpt>
      <trkpt lat="44.41708" lon="1.01244">
        <ele>211</ele>
        <time>2017-05-28T08:44:21.000Z</time>
      </trkpt>
      <trkpt lat="44.4171" lon="1.01244">
        <ele>211.1</ele>
        <time>2017-05-28T08:44:22.000Z</time>
      </trkpt>
      <trkpt lat="44.41712" lon="1.01244">
        <ele>211.2</ele>
        <time>2017-05-28T08:44:23.000Z</time>
      </trkpt>
      <trkpt lat="44.41715" lon="1.01244">
        <ele>211.3</ele>
        <time>2017-05-28T08:44:24.000Z</time>
      </trkpt>
      <trkpt lat="44.41717" lon="1.01244">
        <ele>211.4</ele>
        <time>2017-05-28T08:44:25.000Z</time>
      </trkpt>
      <trkpt lat="44.41719" lon="1.01244">
        <ele>211.5</ele>
        <time>2017-05-28T08:44:26.000Z</time>
      </trkpt>
      <trkpt lat="44.41722" lon="1.01244">
        <ele>211.7</ele>
        <time>2017-05-28T08:44:27.000Z</time>
      </trkpt>
      <trkpt lat="44.41725" lon="1.01244">
        <ele>211.8</ele>
        <time>2017-05-28T08:44:28.000Z</time>
      </trkpt>
      <trkpt lat="44.41727" lon="1.01244">
        <ele>211.9</ele>
        <time>2017-05-28T08:44:29.000Z</time>
      </trkpt>
      <trkpt lat="44.4173" lon="1.01243">
        <ele>212.1</ele>
        <time>2017-05-28T08:44:30.000Z</time>
      </trkpt>
      <trkpt lat="44.41733" lon="1.01243">
        <ele>212.2</ele>
        <time>2017-05-28T08:44:31.000Z</time>
      </trkpt>
      <trkpt lat="44.41736" lon="1.01242">
        <ele>212.4</ele>
        <time>2017-05-28T08:44:32.000Z</time>
      </trkpt>
      <trkpt lat="44.41738" lon="1.01242">
        <ele>212.5</ele>
        <time>2017-05-28T08:44:33.000Z</time>
      </trkpt>
      <trkpt lat="44.41741" lon="1.01241">
        <ele>212.7</ele>
        <time>2017-05-28T08:44:34.000Z</time>
      </trkpt>
      <trkpt lat="44.41744" lon="1.0124">
        <ele>212.8</ele>
        <time>2017-05-28T08:44:35.000Z</time>
      </trkpt>
      <trkpt lat="44.41747" lon="1.0124">
        <ele>213</ele>
        <time>2017-05-28T08:44:36.000Z</time>
      </trkpt>
      <trkpt lat="44.4175" lon="1.01239">
        <ele>213.1</ele>
        <time>2017-05-28T08:44:37.000Z</time>
      </trkpt>
      <trkpt lat="44.41753" lon="1.01239">
        <ele>213.2</ele>
        <time>2017-05-28T08:44:38.000Z</time>
      </trkpt>
      <trkpt lat="44.41756" lon="1.01239">
        <ele>213.3</ele>
        <time>2017-05-28T08:44:39.000Z</time>
      </trkpt>
      <trkpt lat="44.41759" lon="1.01239">
        <ele>213.4</ele>
        <time>2017-05-28T08:44:40.000Z</time>
      </trkpt>
      <trkpt lat="44.41761" lon="1.01239">
        <ele>213.5</ele>
        <time>2017-05-28T08:44:41.000Z</time>
      </trkpt>
      <trkpt lat="44.41764" lon="1.01239">
        <ele>213.6</ele>
        <time>2017-05-28T08:44:42.000Z</time>
      </trkpt>
      <trkpt lat="44.41767" lon="1.0124">
        <ele>213.7</ele>
        <time>2017-05-28T08:44:43.000Z</time>
      </trkpt>
      <trkpt lat="44.4177" lon="1.0124">
        <ele>213.8</ele>
        <time>2017-05-28T08:44:44.000Z</time>
      </trkpt>
      <trkpt lat="44.41772" lon="1.01241">
        <ele>213.9</ele>
        <time>2017-05-28T08:44:45.000Z</time>
      </trkpt>
      <trkpt lat="44.41775" lon="1.01241">
        <ele>213.9</ele>
        <time>2017-05-28T08:44:46.000Z</time>
      </trkpt>
      <trkpt lat="44.41778" lon="1.01242">
        <ele>214</ele>
        <time>2017-05-28T08:44:47.000Z</time>
      </trkpt>
      <trkpt lat="44.4178" lon="1.01243">
        <ele>214.1</ele>
        <time>2017-05-28T08:44:48.000Z</time>
      </trkpt>
      <trkpt lat="44.41783" lon="1.01243">
        <ele>214.2</ele>
        <time>2017-05-28T08:44:49.000Z</time>
      </trkpt>
      <trkpt lat="44.41785" lon="1.01244">
        <ele>214.3</ele>
        <time>2017-05-28T08:44:50.000Z</time>
      </trkpt>
      <trkpt lat="44.41788" lon="1.01245">
        <ele>214.4</ele>
        <time>2017-05-28T08:44:51.000Z</time>
      </trkpt>
      <trkpt lat="44.41791" lon="1.01246">
        <ele>214.5</ele>
        <time>2017-05-28T08:44:52.000Z</time>
      </trkpt>
      <trkpt lat="44.41794" lon="1.01246">
        <ele>214.6</ele>
        <time>2017-05-28T08:44:53.000Z</time>
      </trkpt>
      <trkpt lat="44.41796" lon="1.01247">
        <ele>214.7</ele>
        <time>2017-05-28T08:44:54.000Z</time>
      </trkpt>
      <trkpt lat="44.41799" lon="1.01248">
        <ele>214.8</ele>
        <time>2017-05-28T08:44:55.000Z</time>
      </trkpt>
      <trkpt lat="44.41802" lon="1.01248">
        <ele>214.9</ele>
        <time>2017-05-28T08:44:56.000Z</time>
      </trkpt>
      <trkpt lat="44.41804" lon="1.01249">
        <ele>214.9</ele>
        <time>2017-05-28T08:44:57.000Z</time>
      </trkpt>
      <trkpt lat="44.41807" lon="1.0125">
        <ele>215</ele>
        <time>2017-05-28T08:44:58.000Z</time>
      </trkpt>
      <trkpt lat="44.41809" lon="1.0125">
        <ele>215.1</ele>
        <time>2017-05-28T08:44:59.000Z</time>
      </trkpt>
      <trkpt lat="44.41812" lon="1.01251">
        <ele>215.2</ele>
        <time>2017-05-28T08:45:00.000Z</time>
      </trkpt>
      <trkpt lat="44.41814" lon="1.01252">
        <ele>215.3</ele>
        <time>2017-05-28T08:45:01.000Z</time>
      </trkpt>
      <trkpt lat="44.41817" lon="1.01252">
        <ele>215.4</ele>
        <time>2017-05-28T08:45:02.000Z</time>
      </trkpt>
      <trkpt lat="44.41819" lon="1.01253">
        <ele>215.4</ele>
        <time>2017-05-28T08:45:03.000Z</time>
      </trkpt>
      <trkpt lat="44.41822" lon="1.01254">
        <ele>215.5</ele>
        <time>2017-05-28T08:45:04.000Z</time>
      </trkpt>
      <trkpt lat="44.41824" lon="1.01254">
        <ele>215.6</ele>
        <time>2017-05-28T08:45:05.000Z</time>
      </trkpt>
      <trkpt lat="44.41827" lon="1.01255">
        <ele>215.7</ele>
        <time>2017-05-28T08:45:06.000Z</time>
      </trkpt>
      <trkpt lat="44.4183" lon="1.01255">
        <ele>215.7</ele>
        <time>2017-05-28T08:45:07.000Z</time>
      </trkpt>
      <trkpt lat="44.41832" lon="1.01256">
        <ele>215.8</ele>
        <time>2017-05-28T08:45:08.000Z</time>
      </trkpt>
      <trkpt lat="44.41835" lon="1.01257">
        <ele>215.8</ele>
        <time>2017-05-28T08:45:09.000Z</time>
      </trkpt>
      <trkpt lat="44.41837" lon="1.01258">
        <ele>215.8</ele>
        <time>2017-05-28T08:45:10.000Z</time>
      </trkpt>
      <trkpt lat="44.4184" lon="1.01259">
        <ele>215.8</ele>
        <time>2017-05-28T08:45:11.000Z</time>
      </trkpt>
      <trkpt lat="44.41842" lon="1.0126">
        <ele>215.8</ele>
        <time>2017-05-28T08:45:12.000Z</time>
      </trkpt>
      <trkpt lat="44.41844" lon="1.01262">
        <ele>215.8</ele>
        <time>2017-05-28T08:45:13.000Z</time>
      </trkpt>
      <trkpt lat="44.41847" lon="1.01264">
        <ele>215.7</ele>
        <time>2017-05-28T08:45:14.000Z</time>
      </trkpt>
      <trkpt lat="44.41849" lon="1.01266">
        <ele>215.7</ele>
        <time>2017-05-28T08:45:15.000Z</time>
      </trkpt>
      <trkpt lat="44.41851" lon="1.01268">
        <ele>215.7</ele>
        <time>2017-05-28T08:45:16.000Z</time>
      </trkpt>
      <trkpt lat="44.41853" lon="1.0127">
        <ele>215.6</ele>
        <time>2017-05-28T08:45:17.000Z</time>
      </trkpt>
      <trkpt lat="44.41855" lon="1.01273">
        <ele>215.6</ele>
        <time>2017-05-28T08:45:18.000Z</time>
      </trkpt>
      <trkpt lat="44.41858" lon="1.01275">
        <ele>215.6</ele>
        <time>2017-05-28T08:45:19.000Z</time>
      </trkpt>
      <trkpt lat="44.4186" lon="1.01277">
        <ele>215.6</ele>
        <time>2017-05-28T08:45:20.000Z</time>
      </trkpt>
      <trkpt lat="44.41862" lon="1.01279">
        <ele>215.5</ele>
        <time>2017-05-28T08:45:21.000Z</time>
      </trkpt>
      <trkpt lat="44.41865" lon="1.01281">
        <ele>215.5</ele>
        <time>2017-05-28T08:45:22.000Z</time>
      </trkpt>
      <trkpt lat="44.41867" lon="1.01282">
        <ele>215.5</ele>
        <time>2017-05-28T08:45:23.000Z</time>
      </trkpt>
      <trkpt lat="44.41869" lon="1.01284">
        <ele>215.5</ele>
        <time>2017-05-28T08:45:24.000Z</time>
      </trkpt>
      <trkpt lat="44.41872" lon="1.01286">
        <ele>215.5</ele>
        <time>2017-05-28T08:45:25.000Z</time>
      </trkpt>
      <trkpt lat="44.41874" lon="1.01287">
        <ele>215.5</ele>
        <time>2017-05-28T08:45:26.000Z</time>
      </trkpt>
      <trkpt lat="44.41877" lon="1.01288">
        <ele>215.6</ele>
        <time>2017-05-28T08:45:27.000Z</time>
      </trkpt>
      <trkpt lat="44.4188" lon="1.0129">
        <ele>215.6</ele>
        <time>2017-05-28T08:45:28.000Z</time>
      </trkpt>
      <trkpt lat="44.41882" lon="1.01291">
        <ele>215.6</ele>
        <time>2017-05-28T08:45:29.000Z</time>
      </trkpt>
      <trkpt lat="44.41885" lon="1.01293">
        <ele>215.6</ele>
        <time>2017-05-28T08:45:30.000Z</time>
      </trkpt>
      <trkpt lat="44.41887" lon="1.01294">
        <ele>215.6</ele>
        <time>2017-05-28T08:45:31.000Z</time>
      </trkpt>
      <trkpt lat="44.4189" lon="1.01296">
        <ele>215.6</ele>
        <time>2017-05-28T08:45:32.000Z</time>
      </trkpt>
      <trkpt lat="44.41893" lon="1.01297">
        <ele>215.7</ele>
        <time>2017-05-28T08:45:33.000Z</time>
      </trkpt>
      <trkpt lat="44.41895" lon="1.01299">
        <ele>215.7</ele>
        <time>2017-05-28T08:45:34.000Z</time>
      </trkpt>
      <trkpt lat="44.41898" lon="1.013">
        <ele>215.7</ele>
        <time>2017-05-28T08:45:35.000Z</time>
      </trkpt>
      <trkpt lat="44.41901" lon="1.01302">
        <ele>215.8</ele>
        <time>2017-05-28T08:45:36.000Z</time>
      </trkpt>
      <trkpt lat="44.41904" lon="1.01304">
        <ele>215.8</ele>
        <time>2017-05-28T08:45:37.000Z</time>
      </trkpt>
      <trkpt lat="44.41906" lon="1.01305">
        <ele>215.8</ele>
        <time>2017-05-28T08:45:38.000Z</time>
      </trkpt>
      <trkpt lat="44.41909" lon="1.01307">
        <ele>215.9</ele>
        <time>2017-05-28T08:45:39.000Z</time>
      </trkpt>
      <trkpt lat="44.41912" lon="1.01309">
        <ele>215.9</ele>
        <time>2017-05-28T08:45:40.000Z</time>
      </trkpt>
      <trkpt lat="44.41915" lon="1.01311">
        <ele>216</ele>
        <time>2017-05-28T08:45:41.000Z</time>
      </trkpt>
      <trkpt lat="44.41918" lon="1.01313">
        <ele>216</ele>
        <time>2017-05-28T08:45:42.000Z</time>
      </trkpt>
      <trkpt lat="44.41921" lon="1.01315">
        <ele>216.1</ele>
        <time>2017-05-28T08:45:43.000Z</time>
      </trkpt>
      <trkpt lat="44.41924" lon="1.01317">
        <ele>216.1</ele>
        <time>2017-05-28T08:45:44.000Z</time>
      </trkpt>
      <trkpt lat="44.41927" lon="1.01318">
        <ele>216.2</ele>
        <time>2017-05-28T08:45:45.000Z</time>
      </trkpt>
      <trkpt lat="44.4193" lon="1.0132">
        <ele>216.2</ele>
        <time>2017-05-28T08:45:46.000Z</time>
      </trkpt>
      <trkpt lat="44.41932" lon="1.01322">
        <ele>216.3</ele>
        <time>2017-05-28T08:45:47.000Z</time>
      </trkpt>
      <trkpt lat="44.41936" lon="1.01324">
        <ele>216.4</ele>
        <time>2017-05-28T08:45:48.000Z</time>
      </trkpt>
      <trkpt lat="44.41939" lon="1.01327">
        <ele>216.4</ele>
        <time>2017-05-28T08:45:49.000Z</time>
      </trkpt>
      <trkpt lat="44.41942" lon="1.01329">
        <ele>216.5</ele>
        <time>2017-05-28T08:45:50.000Z</time>
      </trkpt>
      <trkpt lat="44.41946" lon="1.01331">
        <ele>216.7</ele>
        <time>2017-05-28T08:45:51.000Z</time>
      </trkpt>
      <trkpt lat="44.4195" lon="1.01334">
        <ele>216.8</ele>
        <time>2017-05-28T08:45:52.000Z</time>
      </trkpt>
      <trkpt lat="44.41954" lon="1.01337">
        <ele>216.9</ele>
        <time>2017-05-28T08:45:53.000Z</time>
      </trkpt>
      <trkpt lat="44.41957" lon="1.01339">
        <ele>217</ele>
        <time>2017-05-28T08:45:54.000Z</time>
      </trkpt>
      <trkpt lat="44.41961" lon="1.01342">
        <ele>217.1</ele>
        <time>2017-05-28T08:45:55.000Z</time>
      </trkpt>
      <trkpt lat="44.41965" lon="1.01344">
        <ele>217.2</ele>
        <time>2017-05-28T08:45:56.000Z</time>
      </trkpt>
      <trkpt lat="44.41968" lon="1.01347">
        <ele>217.2</ele>
        <time>2017-05-28T08:45:57.000Z</time>
      </trkpt>
      <trkpt lat="44.41972" lon="1.01349">
        <ele>217.3</ele>
        <time>2017-05-28T08:45:58.000Z</time>
      </trkpt>
      <trkpt lat="44.41976" lon="1.01352">
        <ele>217.4</ele>
        <time>2017-05-28T08:45:59.000Z</time>
      </trkpt>
      <trkpt lat="44.41979" lon="1.01355">
        <ele>217.5</ele>
        <time>2017-05-28T08:46:00.000Z</time>
      </trkpt>
      <trkpt lat="44.41983" lon="1.01357">
        <ele>217.6</ele>
        <time>2017-05-28T08:46:01.000Z</time>
      </trkpt>
      <trkpt lat="44.41987" lon="1.0136">
        <ele>217.7</ele>
        <time>2017-05-28T08:46:02.000Z</time>
      </trkpt>
      <trkpt lat="44.4199" lon="1.01363">
        <ele>217.8</ele>
        <time>2017-05-28T08:46:03.000Z</time>
      </trkpt>
      <trkpt lat="44.41994" lon="1.01366">
        <ele>217.9</ele>
        <time>2017-05-28T08:46:04.000Z</time>
      </trkpt>
      <trkpt lat="44.41998" lon="1.01369">
        <ele>217.9</ele>
        <time>2017-05-28T08:46:05.000Z</time>
      </trkpt>
      <trkpt lat="44.42002" lon="1.01372">
        <ele>218</ele>
        <time>2017-05-28T08:46:06.000Z</time>
      </trkpt>
      <trkpt lat="44.42005" lon="1.01375">
        <ele>218.1</ele>
        <time>2017-05-28T08:46:07.000Z</time>
      </trkpt>
      <trkpt lat="44.42009" lon="1.01379">
        <ele>218.1</ele>
        <time>2017-05-28T08:46:08.000Z</time>
      </trkpt>
      <trkpt lat="44.42013" lon="1.01382">
        <ele>218.2</ele>
        <time>2017-05-28T08:46:09.000Z</time>
      </trkpt>
      <trkpt lat="44.42016" lon="1.01385">
        <ele>218.2</ele>
        <time>2017-05-28T08:46:10.000Z</time>
      </trkpt>
      <trkpt lat="44.4202" lon="1.01388">
        <ele>218.3</ele>
        <time>2017-05-28T08:46:11.000Z</time>
      </trkpt>
      <trkpt lat="44.42023" lon="1.01391">
        <ele>218.4</ele>
        <time>2017-05-28T08:46:12.000Z</time>
      </trkpt>
      <trkpt lat="44.42027" lon="1.01394">
        <ele>218.5</ele>
        <time>2017-05-28T08:46:13.000Z</time>
      </trkpt>
      <trkpt lat="44.4203" lon="1.01397">
        <ele>218.6</ele>
        <time>2017-05-28T08:46:14.000Z</time>
      </trkpt>
      <trkpt lat="44.42034" lon="1.014">
        <ele>218.6</ele>
        <time>2017-05-28T08:46:15.000Z</time>
      </trkpt>
      <trkpt lat="44.42038" lon="1.01402">
        <ele>218.7</ele>
        <time>2017-05-28T08:46:16.000Z</time>
      </trkpt>
      <trkpt lat="44.42041" lon="1.01405">
        <ele>218.9</ele>
        <time>2017-05-28T08:46:17.000Z</time>
      </trkpt>
      <trkpt lat="44.42045" lon="1.01408">
        <ele>219</ele>
        <time>2017-05-28T08:46:18.000Z</time>
      </trkpt>
      <trkpt lat="44.42049" lon="1.0141">
        <ele>219.1</ele>
        <time>2017-05-28T08:46:19.000Z</time>
      </trkpt>
      <trkpt lat="44.42052" lon="1.01412">
        <ele>219.2</ele>
        <time>2017-05-28T08:46:20.000Z</time>
      </trkpt>
      <trkpt lat="44.42056" lon="1.01415">
        <ele>219.3</ele>
        <time>2017-05-28T08:46:21.000Z</time>
      </trkpt>
      <trkpt lat="44.42059" lon="1.01417">
        <ele>219.4</ele>
        <time>2017-05-28T08:46:22.000Z</time>
      </trkpt>
      <trkpt lat="44.42063" lon="1.01419">
        <ele>219.5</ele>
        <time>2017-05-28T08:46:23.000Z</time>
      </trkpt>
      <trkpt lat="44.42066" lon="1.01421">
        <ele>219.5</ele>
        <time>2017-05-28T08:46:24.000Z</time>
      </trkpt>
      <trkpt lat="44.42069" lon="1.01423">
        <ele>219.5</ele>
        <time>2017-05-28T08:46:25.000Z</time>
      </trkpt>
      <trkpt lat="44.42073" lon="1.01424">
        <ele>219.6</ele>
        <time>2017-05-28T08:46:26.000Z</time>
      </trkpt>
      <trkpt lat="44.42076" lon="1.01426">
        <ele>219.6</ele>
        <time>2017-05-28T08:46:27.000Z</time>
      </trkpt>
      <trkpt lat="44.42079" lon="1.01428">
        <ele>219.6</ele>
        <time>2017-05-28T08:46:28.000Z</time>
      </trkpt>
      <trkpt lat="44.42082" lon="1.01429">
        <ele>219.7</ele>
        <time>2017-05-28T08:46:29.000Z</time>
      </trkpt>
      <trkpt lat="44.42086" lon="1.01431">
        <ele>219.6</ele>
        <time>2017-05-28T08:46:30.000Z</time>
      </trkpt>
      <trkpt lat="44.42088" lon="1.01434">
        <ele>219.5</ele>
        <time>2017-05-28T08:46:31.000Z</time>
      </trkpt>
      <trkpt lat="44.42089" lon="1.01438">
        <ele>219.3</ele>
        <time>2017-05-28T08:46:32.000Z</time>
      </trkpt>
      <trkpt lat="44.42089" lon="1.01443">
        <ele>219.2</ele>
        <time>2017-05-28T08:46:33.000Z</time>
      </trkpt>
      <trkpt lat="44.42088" lon="1.01448">
        <ele>219.1</ele>
        <time>2017-05-28T08:46:34.000Z</time>
      </trkpt>
      <trkpt lat="44.42087" lon="1.01454">
        <ele>219</ele>
        <time>2017-05-28T08:46:35.000Z</time>
      </trkpt>
      <trkpt lat="44.42085" lon="1.0146">
        <ele>218.9</ele>
        <time>2017-05-28T08:46:36.000Z</time>
      </trkpt>
      <trkpt lat="44.42083" lon="1.01466">
        <ele>218.8</ele>
        <time>2017-05-28T08:46:37.000Z</time>
      </trkpt>
      <trkpt lat="44.42082" lon="1.01472">
        <ele>218.6</ele>
        <time>2017-05-28T08:46:38.000Z</time>
      </trkpt>
      <trkpt lat="44.4208" lon="1.01479">
        <ele>218.5</ele>
        <time>2017-05-28T08:46:39.000Z</time>
      </trkpt>
      <trkpt lat="44.42078" lon="1.01486">
        <ele>218.3</ele>
        <time>2017-05-28T08:46:40.000Z</time>
      </trkpt>
      <trkpt lat="44.42076" lon="1.01492">
        <ele>218.1</ele>
        <time>2017-05-28T08:46:41.000Z</time>
      </trkpt>
      <trkpt lat="44.42074" lon="1.01499">
        <ele>217.9</ele>
        <time>2017-05-28T08:46:42.000Z</time>
      </trkpt>
      <trkpt lat="44.42072" lon="1.01507">
        <ele>217.5</ele>
        <time>2017-05-28T08:46:43.000Z</time>
      </trkpt>
      <trkpt lat="44.4207" lon="1.01514">
        <ele>217.1</ele>
        <time>2017-05-28T08:46:44.000Z</time>
      </trkpt>
      <trkpt lat="44.42068" lon="1.01521">
        <ele>216.7</ele>
        <time>2017-05-28T08:46:45.000Z</time>
      </trkpt>
      <trkpt lat="44.42065" lon="1.01529">
        <ele>216.3</ele>
        <time>2017-05-28T08:46:46.000Z</time>
      </trkpt>
      <trkpt lat="44.42063" lon="1.01537">
        <ele>215.9</ele>
        <time>2017-05-28T08:46:47.000Z</time>
      </trkpt>
      <trkpt lat="44.42061" lon="1.01545">
        <ele>215.5</ele>
        <time>2017-05-28T08:46:48.000Z</time>
      </trkpt>
      <trkpt lat="44.42059" lon="1.01553">
        <ele>215.1</ele>
        <time>2017-05-28T08:46:49.000Z</time>
      </trkpt>
      <trkpt lat="44.42058" lon="1.01562">
        <ele>214.7</ele>
        <time>2017-05-28T08:46:50.000Z</time>
      </trkpt>
      <trkpt lat="44.42058" lon="1.0157">
        <ele>214.3</ele>
        <time>2017-05-28T08:46:51.000Z</time>
      </trkpt>
      <trkpt lat="44.42059" lon="1.01578">
        <ele>213.8</ele>
        <time>2017-05-28T08:46:52.000Z</time>
      </trkpt>
      <trkpt lat="44.42061" lon="1.01586">
        <ele>213.4</ele>
        <time>2017-05-28T08:46:53.000Z</time>
      </trkpt>
      <trkpt lat="44.42063" lon="1.01594">
        <ele>213</ele>
        <time>2017-05-28T08:46:54.000Z</time>
      </trkpt>
      <trkpt lat="44.42065" lon="1.016">
        <ele>212.6</ele>
        <time>2017-05-28T08:46:55.000Z</time>
      </trkpt>
      <trkpt lat="44.42069" lon="1.01603">
        <ele>212.4</ele>
        <time>2017-05-28T08:46:56.000Z</time>
      </trkpt>
      <trkpt lat="44.42072" lon="1.01604">
        <ele>212.2</ele>
        <time>2017-05-28T08:46:57.000Z</time>
      </trkpt>
      <trkpt lat="44.42076" lon="1.01604">
        <ele>212.2</ele>
        <time>2017-05-28T08:46:58.000Z</time>
      </trkpt>
      <trkpt lat="44.42081" lon="1.01603">
        <ele>212.1</ele>
        <time>2017-05-28T08:46:59.000Z</time>
      </trkpt>
      <trkpt lat="44.42084" lon="1.01602">
        <ele>212.1</ele>
        <time>2017-05-28T08:47:00.000Z</time>
      </trkpt>
      <trkpt lat="44.42086" lon="1.01599">
        <ele>212.2</ele>
        <time>2017-05-28T08:47:01.000Z</time>
      </trkpt>
      <trkpt lat="44.42088" lon="1.01594">
        <ele>212.3</ele>
        <time>2017-05-28T08:47:02.000Z</time>
      </trkpt>
      <trkpt lat="44.42089" lon="1.0159">
        <ele>212.5</ele>
        <time>2017-05-28T08:47:03.000Z</time>
      </trkpt>
      <trkpt lat="44.42091" lon="1.01588">
        <ele>212.5</ele>
        <time>2017-05-28T08:47:04.000Z</time>
      </trkpt>
      <trkpt lat="44.42094" lon="1.01588">
        <ele>212.4</ele>
        <time>2017-05-28T08:47:05.000Z</time>
      </trkpt>
      <trkpt lat="44.42098" lon="1.0159">
        <ele>212.1</ele>
        <time>2017-05-28T08:47:06.000Z</time>
      </trkpt>
      <trkpt lat="44.42102" lon="1.01591">
        <ele>211.9</ele>
        <time>2017-05-28T08:47:07.000Z</time>
      </trkpt>
      <trkpt lat="44.42106" lon="1.01592">
        <ele>211.7</ele>
        <time>2017-05-28T08:47:08.000Z</time>
      </trkpt>
      <trkpt lat="44.4211" lon="1.01594">
        <ele>211.5</ele>
        <time>2017-05-28T08:47:09.000Z</time>
      </trkpt>
      <trkpt lat="44.42114" lon="1.01595">
        <ele>211.3</ele>
        <time>2017-05-28T08:47:10.000Z</time>
      </trkpt>
      <trkpt lat="44.42119" lon="1.01595">
        <ele>211</ele>
        <time>2017-05-28T08:47:11.000Z</time>
      </trkpt>
      <trkpt lat="44.42123" lon="1.01596">
        <ele>210.8</ele>
        <time>2017-05-28T08:47:12.000Z</time>
      </trkpt>
      <trkpt lat="44.42128" lon="1.01597">
        <ele>210.6</ele>
        <time>2017-05-28T08:47:13.000Z</time>
      </trkpt>
      <trkpt lat="44.42133" lon="1.01597">
        <ele>210.4</ele>
        <time>2017-05-28T08:47:14.000Z</time>
      </trkpt>
      <trkpt lat="44.42138" lon="1.01598">
        <ele>210.1</ele>
        <time>2017-05-28T08:47:15.000Z</time>
      </trkpt>
      <trkpt lat="44.42143" lon="1.01598">
        <ele>209.9</ele>
        <time>2017-05-28T08:47:16.000Z</time>
      </trkpt>
      <trkpt lat="44.42148" lon="1.01598">
        <ele>209.7</ele>
        <time>2017-05-28T08:47:17.000Z</time>
      </trkpt>
      <trkpt lat="44.42153" lon="1.01598">
        <ele>209.5</ele>
        <time>2017-05-28T08:47:18.000Z</time>
      </trkpt>
      <trkpt lat="44.42158" lon="1.01598">
        <ele>209.3</ele>
        <time>2017-05-28T08:47:19.000Z</time>
      </trkpt>
      <trkpt lat="44.42164" lon="1.01598">
        <ele>209.1</ele>
        <time>2017-05-28T08:47:20.000Z</time>
      </trkpt>
      <trkpt lat="44.4217" lon="1.01598">
        <ele>208.8</ele>
        <time>2017-05-28T08:47:21.000Z</time>
      </trkpt>
      <trkpt lat="44.42175" lon="1.01597">
        <ele>208.4</ele>
        <time>2017-05-28T08:47:22.000Z</time>
      </trkpt>
      <trkpt lat="44.42181" lon="1.01597">
        <ele>208.1</ele>
        <time>2017-05-28T08:47:23.000Z</time>
      </trkpt>
      <trkpt lat="44.42187" lon="1.01596">
        <ele>207.7</ele>
        <time>2017-05-28T08:47:24.000Z</time>
      </trkpt>
      <trkpt lat="44.42194" lon="1.01595">
        <ele>207.4</ele>
        <time>2017-05-28T08:47:25.000Z</time>
      </trkpt>
      <trkpt lat="44.422" lon="1.01593">
        <ele>207</ele>
        <time>2017-05-28T08:47:26.000Z</time>
      </trkpt>
      <trkpt lat="44.42207" lon="1.0159">
        <ele>206.7</ele>
        <time>2017-05-28T08:47:27.000Z</time>
      </trkpt>
      <trkpt lat="44.42214" lon="1.01587">
        <ele>206.4</ele>
        <time>2017-05-28T08:47:28.000Z</time>
      </trkpt>
      <trkpt lat="44.42221" lon="1.01583">
        <ele>206.1</ele>
        <time>2017-05-28T08:47:29.000Z</time>
      </trkpt>
      <trkpt lat="44.42229" lon="1.01578">
        <ele>205.8</ele>
        <time>2017-05-28T08:47:30.000Z</time>
      </trkpt>
      <trkpt lat="44.42236" lon="1.01575">
        <ele>205.3</ele>
        <time>2017-05-28T08:47:31.000Z</time>
      </trkpt>
      <trkpt lat="44.42244" lon="1.01571">
        <ele>204.9</ele>
        <time>2017-05-28T08:47:32.000Z</time>
      </trkpt>
      <trkpt lat="44.42252" lon="1.01567">
        <ele>204.5</ele>
        <time>2017-05-28T08:47:33.000Z</time>
      </trkpt>
      <trkpt lat="44.42259" lon="1.0156">
        <ele>204.4</ele>
        <time>2017-05-28T08:47:34.000Z</time>
      </trkpt>
      <trkpt lat="44.42265" lon="1.01552">
        <ele>204.3</ele>
        <time>2017-05-28T08:47:35.000Z</time>
      </trkpt>
      <trkpt lat="44.42271" lon="1.01544">
        <ele>204.3</ele>
        <time>2017-05-28T08:47:36.000Z</time>
      </trkpt>
      <trkpt lat="44.42276" lon="1.01536">
        <ele>204.3</ele>
        <time>2017-05-28T08:47:37.000Z</time>
      </trkpt>
      <trkpt lat="44.42281" lon="1.01529">
        <ele>204.2</ele>
        <time>2017-05-28T08:47:38.000Z</time>
      </trkpt>
      <trkpt lat="44.42287" lon="1.01523">
        <ele>204.1</ele>
        <time>2017-05-28T08:47:39.000Z</time>
      </trkpt>
      <trkpt lat="44.42292" lon="1.01519">
        <ele>203.9</ele>
        <time>2017-05-28T08:47:40.000Z</time>
      </trkpt>
      <trkpt lat="44.42297" lon="1.01519">
        <ele>203.6</ele>
        <time>2017-05-28T08:47:41.000Z</time>
      </trkpt>
      <trkpt lat="44.42302" lon="1.0152">
        <ele>203.3</ele>
        <time>2017-05-28T08:47:42.000Z</time>
      </trkpt>
      <trkpt lat="44.42306" lon="1.01524">
        <ele>203</ele>
        <time>2017-05-28T08:47:43.000Z</time>
      </trkpt>
      <trkpt lat="44.4231" lon="1.01529">
        <ele>202.6</ele>
        <time>2017-05-28T08:47:44.000Z</time>
      </trkpt>
      <trkpt lat="44.42314" lon="1.01535">
        <ele>202.2</ele>
        <time>2017-05-28T08:47:45.000Z</time>
      </trkpt>
      <trkpt lat="44.42318" lon="1.01542">
        <ele>201.8</ele>
        <time>2017-05-28T08:47:46.000Z</time>
      </trkpt>
      <trkpt lat="44.42322" lon="1.01549">
        <ele>201.5</ele>
        <time>2017-05-28T08:47:47.000Z</time>
      </trkpt>
      <trkpt lat="44.42326" lon="1.01556">
        <ele>201.1</ele>
        <time>2017-05-28T08:47:48.000Z</time>
      </trkpt>
      <trkpt lat="44.4233" lon="1.01563">
        <ele>200.7</ele>
        <time>2017-05-28T08:47:49.000Z</time>
      </trkpt>
      <trkpt lat="44.42333" lon="1.0157">
        <ele>200.3</ele>
        <time>2017-05-28T08:47:50.000Z</time>
      </trkpt>
      <trkpt lat="44.42337" lon="1.01576">
        <ele>200.2</ele>
        <time>2017-05-28T08:47:51.000Z</time>
      </trkpt>
      <trkpt lat="44.42341" lon="1.01583">
        <ele>200.1</ele>
        <time>2017-05-28T08:47:52.000Z</time>
      </trkpt>
      <trkpt lat="44.42345" lon="1.0159">
        <ele>200</ele>
        <time>2017-05-28T08:47:53.000Z</time>
      </trkpt>
      <trkpt lat="44.42349" lon="1.01596">
        <ele>199.9</ele>
        <time>2017-05-28T08:47:54.000Z</time>
      </trkpt>
      <trkpt lat="44.42352" lon="1.01602">
        <ele>199.8</ele>
        <time>2017-05-28T08:47:55.000Z</time>
      </trkpt>
      <trkpt lat="44.42356" lon="1.01608">
        <ele>199.7</ele>
        <time>2017-05-28T08:47:56.000Z</time>
      </trkpt>
      <trkpt lat="44.42359" lon="1.01614">
        <ele>199.6</ele>
        <time>2017-05-28T08:47:57.000Z</time>
      </trkpt>
      <trkpt lat="44.42363" lon="1.0162">
        <ele>199.5</ele>
        <time>2017-05-28T08:47:58.000Z</time>
      </trkpt>
      <trkpt lat="44.42366" lon="1.01626">
        <ele>199.4</ele>
        <time>2017-05-28T08:47:59.000Z</time>
      </trkpt>
      <trkpt lat="44.4237" lon="1.01631">
        <ele>199.3</ele>
        <time>2017-05-28T08:48:00.000Z</time>
      </trkpt>
      <trkpt lat="44.42373" lon="1.01637">
        <ele>199.2</ele>
        <time>2017-05-28T08:48:01.000Z</time>
      </trkpt>
      <trkpt lat="44.42377" lon="1.01642">
        <ele>199.1</ele>
        <time>2017-05-28T08:48:02.000Z</time>
      </trkpt>
      <trkpt lat="44.42381" lon="1.01648">
        <ele>199</ele>
        <time>2017-05-28T08:48:03.000Z</time>
      </trkpt>
      <trkpt lat="44.42385" lon="1.01653">
        <ele>198.9</ele>
        <time>2017-05-28T08:48:04.000Z</time>
      </trkpt>
      <trkpt lat="44.42388" lon="1.01659">
        <ele>198.9</ele>
        <time>2017-05-28T08:48:05.000Z</time>
      </trkpt>
      <trkpt lat="44.42392" lon="1.01664">
        <ele>198.8</ele>
        <time>2017-05-28T08:48:06.000Z</time>
      </trkpt>
      <trkpt lat="44.42396" lon="1.01669">
        <ele>198.8</ele>
        <time>2017-05-28T08:48:07.000Z</time>
      </trkpt>
      <trkpt lat="44.424" lon="1.01675">
        <ele>198.8</ele>
        <time>2017-05-28T08:48:08.000Z</time>
      </trkpt>
      <trkpt lat="44.42404" lon="1.0168">
        <ele>198.9</ele>
        <time>2017-05-28T08:48:09.000Z</time>
      </trkpt>
      <trkpt lat="44.42408" lon="1.01685">
        <ele>198.9</ele>
        <time>2017-05-28T08:48:10.000Z</time>
      </trkpt>
      <trkpt lat="44.42411" lon="1.01691">
        <ele>199</ele>
        <time>2017-05-28T08:48:11.000Z</time>
      </trkpt>
      <trkpt lat="44.42415" lon="1.01696">
        <ele>199</ele>
        <time>2017-05-28T08:48:12.000Z</time>
      </trkpt>
      <trkpt lat="44.42419" lon="1.01701">
        <ele>199.1</ele>
        <time>2017-05-28T08:48:13.000Z</time>
      </trkpt>
      <trkpt lat="44.42423" lon="1.01706">
        <ele>199.2</ele>
        <time>2017-05-28T08:48:14.000Z</time>
      </trkpt>
      <trkpt lat="44.42427" lon="1.01712">
        <ele>199.2</ele>
        <time>2017-05-28T08:48:15.000Z</time>
      </trkpt>
      <trkpt lat="44.42431" lon="1.01717">
        <ele>199.3</ele>
        <time>2017-05-28T08:48:16.000Z</time>
      </trkpt>
      <trkpt lat="44.42434" lon="1.01722">
        <ele>199.4</ele>
        <time>2017-05-28T08:48:17.000Z</time>
      </trkpt>
      <trkpt lat="44.42438" lon="1.01727">
        <ele>199.5</ele>
        <time>2017-05-28T08:48:18.000Z</time>
      </trkpt>
      <trkpt lat="44.42442" lon="1.01732">
        <ele>199.6</ele>
        <time>2017-05-28T08:48:19.000Z</time>
      </trkpt>
      <trkpt lat="44.42446" lon="1.01737">
        <ele>199.7</ele>
        <time>2017-05-28T08:48:20.000Z</time>
      </trkpt>
      <trkpt lat="44.4245" lon="1.01741">
        <ele>199.8</ele>
        <time>2017-05-28T08:48:21.000Z</time>
      </trkpt>
      <trkpt lat="44.42454" lon="1.01746">
        <ele>199.9</ele>
        <time>2017-05-28T08:48:22.000Z</time>
      </trkpt>
      <trkpt lat="44.42458" lon="1.01751">
        <ele>200</ele>
        <time>2017-05-28T08:48:23.000Z</time>
      </trkpt>
      <trkpt lat="44.42461" lon="1.01756">
        <ele>200</ele>
        <time>2017-05-28T08:48:24.000Z</time>
      </trkpt>
      <trkpt lat="44.42465" lon="1.0176">
        <ele>200.1</ele>
        <time>2017-05-28T08:48:25.000Z</time>
      </trkpt>
      <trkpt lat="44.42469" lon="1.01765">
        <ele>200.1</ele>
        <time>2017-05-28T08:48:26.000Z</time>
      </trkpt>
      <trkpt lat="44.42473" lon="1.01769">
        <ele>200.2</ele>
        <time>2017-05-28T08:48:27.000Z</time>
      </trkpt>
      <trkpt lat="44.42477" lon="1.01773">
        <ele>200.2</ele>
        <time>2017-05-28T08:48:28.000Z</time>
      </trkpt>
      <trkpt lat="44.42481" lon="1.01776">
        <ele>200.3</ele>
        <time>2017-05-28T08:48:29.000Z</time>
      </trkpt>
      <trkpt lat="44.42485" lon="1.01779">
        <ele>200.3</ele>
        <time>2017-05-28T08:48:30.000Z</time>
      </trkpt>
      <trkpt lat="44.42489" lon="1.01782">
        <ele>200.4</ele>
        <time>2017-05-28T08:48:31.000Z</time>
      </trkpt>
      <trkpt lat="44.42493" lon="1.01785">
        <ele>200.5</ele>
        <time>2017-05-28T08:48:32.000Z</time>
      </trkpt>
      <trkpt lat="44.42497" lon="1.01788">
        <ele>200.5</ele>
        <time>2017-05-28T08:48:33.000Z</time>
      </trkpt>
      <trkpt lat="44.42502" lon="1.0179">
        <ele>200.6</ele>
        <time>2017-05-28T08:48:34.000Z</time>
      </trkpt>
      <trkpt lat="44.42505" lon="1.01793">
        <ele>200.7</ele>
        <time>2017-05-28T08:48:35.000Z</time>
      </trkpt>
      <trkpt lat="44.42509" lon="1.01795">
        <ele>200.8</ele>
        <time>2017-05-28T08:48:36.000Z</time>
      </trkpt>
      <trkpt lat="44.42513" lon="1.01797">
        <ele>201</ele>
        <time>2017-05-28T08:48:37.000Z</time>
      </trkpt>
      <trkpt lat="44.42517" lon="1.018">
        <ele>201.1</ele>
        <time>2017-05-28T08:48:38.000Z</time>
      </trkpt>
      <trkpt lat="44.42521" lon="1.01802">
        <ele>201.2</ele>
        <time>2017-05-28T08:48:39.000Z</time>
      </trkpt>
      <trkpt lat="44.42524" lon="1.01804">
        <ele>201.3</ele>
        <time>2017-05-28T08:48:40.000Z</time>
      </trkpt>
      <trkpt lat="44.42528" lon="1.01807">
        <ele>201.4</ele>
        <time>2017-05-28T08:48:41.000Z</time>
      </trkpt>
      <trkpt lat="44.42532" lon="1.01809">
        <ele>201.5</ele>
        <time>2017-05-28T08:48:42.000Z</time>
      </trkpt>
      <trkpt lat="44.42536" lon="1.01811">
        <ele>201.7</ele>
        <time>2017-05-28T08:48:43.000Z</time>
      </trkpt>
      <trkpt lat="44.42539" lon="1.01814">
        <ele>201.8</ele>
        <time>2017-05-28T08:48:44.000Z</time>
      </trkpt>
      <trkpt lat="44.42543" lon="1.01816">
        <ele>201.9</ele>
        <time>2017-05-28T08:48:45.000Z</time>
      </trkpt>
      <trkpt lat="44.42547" lon="1.01818">
        <ele>202</ele>
        <time>2017-05-28T08:48:46.000Z</time>
      </trkpt>
      <trkpt lat="44.42551" lon="1.01821">
        <ele>202.1</ele>
        <time>2017-05-28T08:48:47.000Z</time>
      </trkpt>
      <trkpt lat="44.42555" lon="1.01823">
        <ele>202.2</ele>
        <time>2017-05-28T08:48:48.000Z</time>
      </trkpt>
      <trkpt lat="44.42558" lon="1.01825">
        <ele>202.3</ele>
        <time>2017-05-28T08:48:49.000Z</time>
      </trkpt>
      <trkpt lat="44.42562" lon="1.01828">
        <ele>202.3</ele>
        <time>2017-05-28T08:48:50.000Z</time>
      </trkpt>
      <trkpt lat="44.42566" lon="1.0183">
        <ele>202.4</ele>
        <time>2017-05-28T08:48:51.000Z</time>
      </trkpt>
      <trkpt lat="44.4257" lon="1.01833">
        <ele>202.5</ele>
        <time>2017-05-28T08:48:52.000Z</time>
      </trkpt>
      <trkpt lat="44.42573" lon="1.01835">
        <ele>202.6</ele>
        <time>2017-05-28T08:48:53.000Z</time>
      </trkpt>
      <trkpt lat="44.42577" lon="1.01838">
        <ele>202.8</ele>
        <time>2017-05-28T08:48:54.000Z</time>
      </trkpt>
      <trkpt lat="44.42581" lon="1.0184">
        <ele>202.9</ele>
        <time>2017-05-28T08:48:55.000Z</time>
      </trkpt>
      <trkpt lat="44.42584" lon="1.01842">
        <ele>203</ele>
        <time>2017-05-28T08:48:56.000Z</time>
      </trkpt>
      <trkpt lat="44.42588" lon="1.01844">
        <ele>203.2</ele>
        <time>2017-05-28T08:48:57.000Z</time>
      </trkpt>
      <trkpt lat="44.42591" lon="1.01846">
        <ele>203.3</ele>
        <time>2017-05-28T08:48:58.000Z</time>
      </trkpt>
      <trkpt lat="44.42594" lon="1.01848">
        <ele>203.4</ele>
        <time>2017-05-28T08:48:59.000Z</time>
      </trkpt>
      <trkpt lat="44.42598" lon="1.0185">
        <ele>203.5</ele>
        <time>2017-05-28T08:49:00.000Z</time>
      </trkpt>
      <trkpt lat="44.42601" lon="1.01852">
        <ele>203.7</ele>
        <time>2017-05-28T08:49:01.000Z</time>
      </trkpt>
      <trkpt lat="44.42604" lon="1.01854">
        <ele>203.8</ele>
        <time>2017-05-28T08:49:02.000Z</time>
      </trkpt>
      <trkpt lat="44.42607" lon="1.01856">
        <ele>203.9</ele>
        <time>2017-05-28T08:49:03.000Z</time>
      </trkpt>
      <trkpt lat="44.4261" lon="1.01858">
        <ele>204.1</ele>
        <time>2017-05-28T08:49:04.000Z</time>
      </trkpt>
      <trkpt lat="44.42613" lon="1.01859">
        <ele>204.2</ele>
        <time>2017-05-28T08:49:05.000Z</time>
      </trkpt>
      <trkpt lat="44.42615" lon="1.0186">
        <ele>204.3</ele>
        <time>2017-05-28T08:49:06.000Z</time>
      </trkpt>
      <trkpt lat="44.42618" lon="1.01859">
        <ele>204.4</ele>
        <time>2017-05-28T08:49:07.000Z</time>
      </trkpt>
      <trkpt lat="44.4262" lon="1.01857">
        <ele>204.4</ele>
        <time>2017-05-28T08:49:08.000Z</time>
      </trkpt>
      <trkpt lat="44.42622" lon="1.01854">
        <ele>204.5</ele>
        <time>2017-05-28T08:49:09.000Z</time>
      </trkpt>
      <trkpt lat="44.42624" lon="1.01851">
        <ele>204.6</ele>
        <time>2017-05-28T08:49:10.000Z</time>
      </trkpt>
      <trkpt lat="44.42627" lon="1.01847">
        <ele>204.7</ele>
        <time>2017-05-28T08:49:11.000Z</time>
      </trkpt>
      <trkpt lat="44.4263" lon="1.01843">
        <ele>204.7</ele>
        <time>2017-05-28T08:49:12.000Z</time>
      </trkpt>
      <trkpt lat="44.42632" lon="1.01839">
        <ele>204.8</ele>
        <time>2017-05-28T08:49:13.000Z</time>
      </trkpt>
      <trkpt lat="44.42635" lon="1.01835">
        <ele>204.9</ele>
        <time>2017-05-28T08:49:14.000Z</time>
      </trkpt>
      <trkpt lat="44.42638" lon="1.01831">
        <ele>205</ele>
        <time>2017-05-28T08:49:15.000Z</time>
      </trkpt>
      <trkpt lat="44.42641" lon="1.01827">
        <ele>205.2</ele>
        <time>2017-05-28T08:49:16.000Z</time>
      </trkpt>
      <trkpt lat="44.42645" lon="1.01822">
        <ele>205.4</ele>
        <time>2017-05-28T08:49:17.000Z</time>
      </trkpt>
      <trkpt lat="44.42648" lon="1.01818">
        <ele>205.5</ele>
        <time>2017-05-28T08:49:18.000Z</time>
      </trkpt>
      <trkpt lat="44.42651" lon="1.01814">
        <ele>205.7</ele>
        <time>2017-05-28T08:49:19.000Z</time>
      </trkpt>
      <trkpt lat="44.42654" lon="1.0181">
        <ele>205.9</ele>
        <time>2017-05-28T08:49:20.000Z</time>
      </trkpt>
      <trkpt lat="44.42657" lon="1.01806">
        <ele>206</ele>
        <time>2017-05-28T08:49:21.000Z</time>
      </trkpt>
      <trkpt lat="44.42659" lon="1.01802">
        <ele>206.2</ele>
        <time>2017-05-28T08:49:22.000Z</time>
      </trkpt>
      <trkpt lat="44.42662" lon="1.01797">
        <ele>206.3</ele>
        <time>2017-05-28T08:49:23.000Z</time>
      </trkpt>
      <trkpt lat="44.42665" lon="1.01793">
        <ele>206.4</ele>
        <time>2017-05-28T08:49:24.000Z</time>
      </trkpt>
      <trkpt lat="44.42668" lon="1.01788">
        <ele>206.6</ele>
        <time>2017-05-28T08:49:25.000Z</time>
      </trkpt>
      <trkpt lat="44.4267" lon="1.01784">
        <ele>206.6</ele>
        <time>2017-05-28T08:49:26.000Z</time>
      </trkpt>
      <trkpt lat="44.42673" lon="1.0178">
        <ele>206.7</ele>
        <time>2017-05-28T08:49:27.000Z</time>
      </trkpt>
      <trkpt lat="44.42675" lon="1.01775">
        <ele>206.8</ele>
        <time>2017-05-28T08:49:28.000Z</time>
      </trkpt>
      <trkpt lat="44.42678" lon="1.01771">
        <ele>207</ele>
        <time>2017-05-28T08:49:29.000Z</time>
      </trkpt>
      <trkpt lat="44.42681" lon="1.01767">
        <ele>207.1</ele>
        <time>2017-05-28T08:49:30.000Z</time>
      </trkpt>
      <trkpt lat="44.42683" lon="1.01762">
        <ele>207.2</ele>
        <time>2017-05-28T08:49:31.000Z</time>
      </trkpt>
      <trkpt lat="44.42686" lon="1.01758">
        <ele>207.3</ele>
        <time>2017-05-28T08:49:32.000Z</time>
      </trkpt>
      <trkpt lat="44.42688" lon="1.01754">
        <ele>207.4</ele>
        <time>2017-05-28T08:49:33.000Z</time>
      </trkpt>
      <trkpt lat="44.42691" lon="1.01751">
        <ele>207.6</ele>
        <time>2017-05-28T08:49:34.000Z</time>
      </trkpt>
      <trkpt lat="44.42693" lon="1.01747">
        <ele>207.7</ele>
        <time>2017-05-28T08:49:35.000Z</time>
      </trkpt>
      <trkpt lat="44.42695" lon="1.01744">
        <ele>207.9</ele>
        <time>2017-05-28T08:49:36.000Z</time>
      </trkpt>
      <trkpt lat="44.42698" lon="1.0174">
        <ele>208.1</ele>
        <time>2017-05-28T08:49:37.000Z</time>
      </trkpt>
      <trkpt lat="44.427" lon="1.01737">
        <ele>208.3</ele>
        <time>2017-05-28T08:49:38.000Z</time>
      </trkpt>
      <trkpt lat="44.42702" lon="1.01734">
        <ele>208.4</ele>
        <time>2017-05-28T08:49:39.000Z</time>
      </trkpt>
      <trkpt lat="44.42704" lon="1.01731">
        <ele>208.6</ele>
        <time>2017-05-28T08:49:40.000Z</time>
      </trkpt>
      <trkpt lat="44.42706" lon="1.01728">
        <ele>208.7</ele>
        <time>2017-05-28T08:49:41.000Z</time>
      </trkpt>
      <trkpt lat="44.42708" lon="1.01725">
        <ele>208.9</ele>
        <time>2017-05-28T08:49:42.000Z</time>
      </trkpt>
      <trkpt lat="44.4271" lon="1.01722">
        <ele>209.1</ele>
        <time>2017-05-28T08:49:43.000Z</time>
      </trkpt>
      <trkpt lat="44.42712" lon="1.01719">
        <ele>209.2</ele>
        <time>2017-05-28T08:49:44.000Z</time>
      </trkpt>
      <trkpt lat="44.42714" lon="1.01716">
        <ele>209.4</ele>
        <time>2017-05-28T08:49:45.000Z</time>
      </trkpt>
      <trkpt lat="44.42716" lon="1.01713">
        <ele>209.5</ele>
        <time>2017-05-28T08:49:46.000Z</time>
      </trkpt>
      <trkpt lat="44.42718" lon="1.01711">
        <ele>209.7</ele>
        <time>2017-05-28T08:49:47.000Z</time>
      </trkpt>
      <trkpt lat="44.42721" lon="1.01708">
        <ele>209.8</ele>
        <time>2017-05-28T08:49:48.000Z</time>
      </trkpt>
      <trkpt lat="44.42723" lon="1.01706">
        <ele>209.9</ele>
        <time>2017-05-28T08:49:49.000Z</time>
      </trkpt>
      <trkpt lat="44.42725" lon="1.01703">
        <ele>210.1</ele>
        <time>2017-05-28T08:49:50.000Z</time>
      </trkpt>
      <trkpt lat="44.42727" lon="1.017">
        <ele>210.2</ele>
        <time>2017-05-28T08:49:51.000Z</time>
      </trkpt>
      <trkpt lat="44.42729" lon="1.01697">
        <ele>210.4</ele>
        <time>2017-05-28T08:49:52.000Z</time>
      </trkpt>
      <trkpt lat="44.42731" lon="1.01694">
        <ele>210.6</ele>
        <time>2017-05-28T08:49:53.000Z</time>
      </trkpt>
      <trkpt lat="44.42733" lon="1.01691">
        <ele>210.7</ele>
        <time>2017-05-28T08:49:54.000Z</time>
      </trkpt>
      <trkpt lat="44.42735" lon="1.01689">
        <ele>210.8</ele>
        <time>2017-05-28T08:49:55.000Z</time>
      </trkpt>
      <trkpt lat="44.42737" lon="1.01687">
        <ele>210.9</ele>
        <time>2017-05-28T08:49:56.000Z</time>
      </trkpt>
      <trkpt lat="44.42739" lon="1.01686">
        <ele>211</ele>
        <time>2017-05-28T08:49:57.000Z</time>
      </trkpt>
      <trkpt lat="44.4274" lon="1.01684">
        <ele>211.2</ele>
        <time>2017-05-28T08:49:58.000Z</time>
      </trkpt>
      <trkpt lat="44.42742" lon="1.01681">
        <ele>211.3</ele>
        <time>2017-05-28T08:49:59.000Z</time>
      </trkpt>
      <trkpt lat="44.42743" lon="1.01679">
        <ele>211.4</ele>
        <time>2017-05-28T08:50:00.000Z</time>
      </trkpt>
      <trkpt lat="44.42744" lon="1.01676">
        <ele>211.5</ele>
        <time>2017-05-28T08:50:01.000Z</time>
      </trkpt>
      <trkpt lat="44.42745" lon="1.01674">
        <ele>211.6</ele>
        <time>2017-05-28T08:50:02.000Z</time>
      </trkpt>
      <trkpt lat="44.42746" lon="1.01672">
        <ele>211.7</ele>
        <time>2017-05-28T08:50:03.000Z</time>
      </trkpt>
      <trkpt lat="44.42748" lon="1.0167">
        <ele>211.8</ele>
        <time>2017-05-28T08:50:04.000Z</time>
      </trkpt>
      <trkpt lat="44.4275" lon="1.01669">
        <ele>211.9</ele>
        <time>2017-05-28T08:50:05.000Z</time>
      </trkpt>
      <trkpt lat="44.42752" lon="1.01668">
        <ele>212</ele>
        <time>2017-05-28T08:50:06.000Z</time>
      </trkpt>
      <trkpt lat="44.42754" lon="1.01667">
        <ele>212.2</ele>
        <time>2017-05-28T08:50:07.000Z</time>
      </trkpt>
      <trkpt lat="44.42756" lon="1.01665">
        <ele>212.3</ele>
        <time>2017-05-28T08:50:08.000Z</time>
      </trkpt>
      <trkpt lat="44.42757" lon="1.01664">
        <ele>212.5</ele>
        <time>2017-05-28T08:50:09.000Z</time>
      </trkpt>
      <trkpt lat="44.42759" lon="1.01662">
        <ele>212.6</ele>
        <time>2017-05-28T08:50:10.000Z</time>
      </trkpt>
      <trkpt lat="44.4276" lon="1.01661">
        <ele>212.7</ele>
        <time>2017-05-28T08:50:11.000Z</time>
      </trkpt>
      <trkpt lat="44.42761" lon="1.01659">
        <ele>212.8</ele>
        <time>2017-05-28T08:50:12.000Z</time>
      </trkpt>
      <trkpt lat="44.42763" lon="1.01658">
        <ele>212.9</ele>
        <time>2017-05-28T08:50:13.000Z</time>
      </trkpt>
      <trkpt lat="44.42764" lon="1.01657">
        <ele>213.1</ele>
        <time>2017-05-28T08:50:14.000Z</time>
      </trkpt>
      <trkpt lat="44.42766" lon="1.01655">
        <ele>213.2</ele>
        <time>2017-05-28T08:50:15.000Z</time>
      </trkpt>
      <trkpt lat="44.42767" lon="1.01654">
        <ele>213.3</ele>
        <time>2017-05-28T08:50:16.000Z</time>
      </trkpt>
      <trkpt lat="44.42769" lon="1.01652">
        <ele>213.4</ele>
        <time>2017-05-28T08:50:17.000Z</time>
      </trkpt>
      <trkpt lat="44.42771" lon="1.01651">
        <ele>213.6</ele>
        <time>2017-05-28T08:50:18.000Z</time>
      </trkpt>
      <trkpt lat="44.42772" lon="1.0165">
        <ele>213.7</ele>
        <time>2017-05-28T08:50:19.000Z</time>
      </trkpt>
      <trkpt lat="44.42774" lon="1.01649">
        <ele>213.9</ele>
        <time>2017-05-28T08:50:20.000Z</time>
      </trkpt>
      <trkpt lat="44.42776" lon="1.01647">
        <ele>214</ele>
        <time>2017-05-28T08:50:21.000Z</time>
      </trkpt>
      <trkpt lat="44.42778" lon="1.01646">
        <ele>214.2</ele>
        <time>2017-05-28T08:50:22.000Z</time>
      </trkpt>
      <trkpt lat="44.4278" lon="1.01645">
        <ele>214.3</ele>
        <time>2017-05-28T08:50:23.000Z</time>
      </trkpt>
      <trkpt lat="44.42783" lon="1.01644">
        <ele>214.5</ele>
        <time>2017-05-28T08:50:24.000Z</time>
      </trkpt>
      <trkpt lat="44.42785" lon="1.01642">
        <ele>214.7</ele>
        <time>2017-05-28T08:50:25.000Z</time>
      </trkpt>
      <trkpt lat="44.42787" lon="1.01641">
        <ele>214.8</ele>
        <time>2017-05-28T08:50:26.000Z</time>
      </trkpt>
      <trkpt lat="44.42789" lon="1.0164">
        <ele>215</ele>
        <time>2017-05-28T08:50:27.000Z</time>
      </trkpt>
      <trkpt lat="44.42791" lon="1.01639">
        <ele>215.1</ele>
        <time>2017-05-28T08:50:28.000Z</time>
      </trkpt>
      <trkpt lat="44.42793" lon="1.01638">
        <ele>215.3</ele>
        <time>2017-05-28T08:50:29.000Z</time>
      </trkpt>
      <trkpt lat="44.42795" lon="1.01637">
        <ele>215.4</ele>
        <time>2017-05-28T08:50:30.000Z</time>
      </trkpt>
      <trkpt lat="44.42797" lon="1.01636">
        <ele>215.6</ele>
        <time>2017-05-28T08:50:31.000Z</time>
      </trkpt>
      <trkpt lat="44.42799" lon="1.01635">
        <ele>215.7</ele>
        <time>2017-05-28T08:50:32.000Z</time>
      </trkpt>
      <trkpt lat="44.42801" lon="1.01635">
        <ele>215.8</ele>
        <time>2017-05-28T08:50:33.000Z</time>
      </trkpt>
      <trkpt lat="44.42803" lon="1.01634">
        <ele>216</ele>
        <time>2017-05-28T08:50:34.000Z</time>
      </trkpt>
      <trkpt lat="44.42805" lon="1.01633">
        <ele>216.1</ele>
        <time>2017-05-28T08:50:35.000Z</time>
      </trkpt>
      <trkpt lat="44.42807" lon="1.01633">
        <ele>216.2</ele>
        <time>2017-05-28T08:50:36.000Z</time>
      </trkpt>
      <trkpt lat="44.42809" lon="1.01632">
        <ele>216.4</ele>
        <time>2017-05-28T08:50:37.000Z</time>
      </trkpt>
      <trkpt lat="44.42811" lon="1.0163">
        <ele>216.6</ele>
        <time>2017-05-28T08:50:38.000Z</time>
      </trkpt>
      <trkpt lat="44.42813" lon="1.01629">
        <ele>216.7</ele>
        <time>2017-05-28T08:50:39.000Z</time>
      </trkpt>
      <trkpt lat="44.42815" lon="1.01628">
        <ele>216.8</ele>
        <time>2017-05-28T08:50:40.000Z</time>
      </trkpt>
      <trkpt lat="44.42816" lon="1.01628">
        <ele>217</ele>
        <time>2017-05-28T08:50:41.000Z</time>
      </trkpt>
      <trkpt lat="44.42818" lon="1.01627">
        <ele>217.1</ele>
        <time>2017-05-28T08:50:42.000Z</time>
      </trkpt>
      <trkpt lat="44.4282" lon="1.01626">
        <ele>217.2</ele>
        <time>2017-05-28T08:50:43.000Z</time>
      </trkpt>
      <trkpt lat="44.42822" lon="1.01626">
        <ele>217.3</ele>
        <time>2017-05-28T08:50:44.000Z</time>
      </trkpt>
      <trkpt lat="44.42824" lon="1.01625">
        <ele>217.5</ele>
        <time>2017-05-28T08:50:45.000Z</time>
      </trkpt>
      <trkpt lat="44.42826" lon="1.01625">
        <ele>217.6</ele>
        <time>2017-05-28T08:50:46.000Z</time>
      </trkpt>
      <trkpt lat="44.42828" lon="1.01624">
        <ele>217.7</ele>
        <time>2017-05-28T08:50:47.000Z</time>
      </trkpt>
      <trkpt lat="44.4283" lon="1.01624">
        <ele>217.9</ele>
        <time>2017-05-28T08:50:48.000Z</time>
      </trkpt>
      <trkpt lat="44.42832" lon="1.01624">
        <ele>218</ele>
        <time>2017-05-28T08:50:49.000Z</time>
      </trkpt>
      <trkpt lat="44.42834" lon="1.01623">
        <ele>218.1</ele>
        <time>2017-05-28T08:50:50.000Z</time>
      </trkpt>
      <trkpt lat="44.42835" lon="1.01623">
        <ele>218.2</ele>
        <time>2017-05-28T08:50:51.000Z</time>
      </trkpt>
      <trkpt lat="44.42837" lon="1.01623">
        <ele>218.2</ele>
        <time>2017-05-28T08:50:52.000Z</time>
      </trkpt>
      <trkpt lat="44.42839" lon="1.01623">
        <ele>218.3</ele>
        <time>2017-05-28T08:50:53.000Z</time>
      </trkpt>
      <trkpt lat="44.4284" lon="1.01623">
        <ele>218.3</ele>
        <time>2017-05-28T08:50:54.000Z</time>
      </trkpt>
      <trkpt lat="44.42842" lon="1.01623">
        <ele>218.4</ele>
        <time>2017-05-28T08:50:55.000Z</time>
      </trkpt>
      <trkpt lat="44.42844" lon="1.01622">
        <ele>218.5</ele>
        <time>2017-05-28T08:50:56.000Z</time>
      </trkpt>
      <trkpt lat="44.42846" lon="1.01622">
        <ele>218.6</ele>
        <time>2017-05-28T08:50:57.000Z</time>
      </trkpt>
      <trkpt lat="44.42848" lon="1.01622">
        <ele>218.6</ele>
        <time>2017-05-28T08:50:58.000Z</time>
      </trkpt>
      <trkpt lat="44.4285" lon="1.01622">
        <ele>218.7</ele>
        <time>2017-05-28T08:50:59.000Z</time>
      </trkpt>
      <trkpt lat="44.42852" lon="1.01622">
        <ele>218.8</ele>
        <time>2017-05-28T08:51:00.000Z</time>
      </trkpt>
      <trkpt lat="44.42854" lon="1.01622">
        <ele>218.8</ele>
        <time>2017-05-28T08:51:01.000Z</time>
      </trkpt>
      <trkpt lat="44.42855" lon="1.01622">
        <ele>218.8</ele>
        <time>2017-05-28T08:51:02.000Z</time>
      </trkpt>
      <trkpt lat="44.42857" lon="1.01622">
        <ele>218.9</ele>
        <time>2017-05-28T08:51:03.000Z</time>
      </trkpt>
      <trkpt lat="44.42859" lon="1.01623">
        <ele>218.9</ele>
        <time>2017-05-28T08:51:04.000Z</time>
      </trkpt>
      <trkpt lat="44.42861" lon="1.01623">
        <ele>219</ele>
        <time>2017-05-28T08:51:05.000Z</time>
      </trkpt>
      <trkpt lat="44.42863" lon="1.01623">
        <ele>219</ele>
        <time>2017-05-28T08:51:06.000Z</time>
      </trkpt>
      <trkpt lat="44.42865" lon="1.01623">
        <ele>219.1</ele>
        <time>2017-05-28T08:51:07.000Z</time>
      </trkpt>
      <trkpt lat="44.42867" lon="1.01623">
        <ele>219.2</ele>
        <time>2017-05-28T08:51:08.000Z</time>
      </trkpt>
      <trkpt lat="44.42869" lon="1.01622">
        <ele>219.2</ele>
        <time>2017-05-28T08:51:09.000Z</time>
      </trkpt>
      <trkpt lat="44.42872" lon="1.01622">
        <ele>219.3</ele>
        <time>2017-05-28T08:51:10.000Z</time>
      </trkpt>
      <trkpt lat="44.42874" lon="1.01622">
        <ele>219.4</ele>
        <time>2017-05-28T08:51:11.000Z</time>
      </trkpt>
      <trkpt lat="44.42876" lon="1.01622">
        <ele>219.5</ele>
        <time>2017-05-28T08:51:12.000Z</time>
      </trkpt>
      <trkpt lat="44.42879" lon="1.01622">
        <ele>219.6</ele>
        <time>2017-05-28T08:51:13.000Z</time>
      </trkpt>
      <trkpt lat="44.42881" lon="1.01622">
        <ele>219.6</ele>
        <time>2017-05-28T08:51:14.000Z</time>
      </trkpt>
      <trkpt lat="44.42883" lon="1.01622">
        <ele>219.7</ele>
        <time>2017-05-28T08:51:15.000Z</time>
      </trkpt>
      <trkpt lat="44.42886" lon="1.01622">
        <ele>219.8</ele>
        <time>2017-05-28T08:51:16.000Z</time>
      </trkpt>
      <trkpt lat="44.42888" lon="1.01622">
        <ele>219.8</ele>
        <time>2017-05-28T08:51:17.000Z</time>
      </trkpt>
      <trkpt lat="44.4289" lon="1.01622">
        <ele>219.9</ele>
        <time>2017-05-28T08:51:18.000Z</time>
      </trkpt>
      <trkpt lat="44.42892" lon="1.01622">
        <ele>220</ele>
        <time>2017-05-28T08:51:19.000Z</time>
      </trkpt>
      <trkpt lat="44.42894" lon="1.01621">
        <ele>220.1</ele>
        <time>2017-05-28T08:51:20.000Z</time>
      </trkpt>
      <trkpt lat="44.42896" lon="1.01621">
        <ele>220.2</ele>
        <time>2017-05-28T08:51:21.000Z</time>
      </trkpt>
      <trkpt lat="44.42898" lon="1.0162">
        <ele>220.3</ele>
        <time>2017-05-28T08:51:22.000Z</time>
      </trkpt>
      <trkpt lat="44.429" lon="1.0162">
        <ele>220.4</ele>
        <time>2017-05-28T08:51:23.000Z</time>
      </trkpt>
      <trkpt lat="44.42902" lon="1.0162">
        <ele>220.4</ele>
        <time>2017-05-28T08:51:24.000Z</time>
      </trkpt>
      <trkpt lat="44.42904" lon="1.0162">
        <ele>220.5</ele>
        <time>2017-05-28T08:51:25.000Z</time>
      </trkpt>
      <trkpt lat="44.42905" lon="1.0162">
        <ele>220.5</ele>
        <time>2017-05-28T08:51:26.000Z</time>
      </trkpt>
      <trkpt lat="44.42907" lon="1.0162">
        <ele>220.6</ele>
        <time>2017-05-28T08:51:27.000Z</time>
      </trkpt>
      <trkpt lat="44.42909" lon="1.01619">
        <ele>220.8</ele>
        <time>2017-05-28T08:51:28.000Z</time>
      </trkpt>
      <trkpt lat="44.4291" lon="1.01617">
        <ele>221</ele>
        <time>2017-05-28T08:51:29.000Z</time>
      </trkpt>
      <trkpt lat="44.42911" lon="1.01614">
        <ele>221.2</ele>
        <time>2017-05-28T08:51:30.000Z</time>
      </trkpt>
      <trkpt lat="44.42911" lon="1.01612">
        <ele>221.4</ele>
        <time>2017-05-28T08:51:31.000Z</time>
      </trkpt>
      <trkpt lat="44.42911" lon="1.0161">
        <ele>221.6</ele>
        <time>2017-05-28T08:51:32.000Z</time>
      </trkpt>
      <trkpt lat="44.4291" lon="1.01607">
        <ele>221.8</ele>
        <time>2017-05-28T08:51:33.000Z</time>
      </trkpt>
      <trkpt lat="44.4291" lon="1.01605">
        <ele>222</ele>
        <time>2017-05-28T08:51:34.000Z</time>
      </trkpt>
      <trkpt lat="44.4291" lon="1.01602">
        <ele>222.2</ele>
        <time>2017-05-28T08:51:35.000Z</time>
      </trkpt>
      <trkpt lat="44.4291" lon="1.01599">
        <ele>222.4</ele>
        <time>2017-05-28T08:51:36.000Z</time>
      </trkpt>
      <trkpt lat="44.4291" lon="1.01596">
        <ele>222.6</ele>
        <time>2017-05-28T08:51:37.000Z</time>
      </trkpt>
      <trkpt lat="44.42909" lon="1.01593">
        <ele>222.8</ele>
        <time>2017-05-28T08:51:38.000Z</time>
      </trkpt>
      <trkpt lat="44.42908" lon="1.01591">
        <ele>223</ele>
        <time>2017-05-28T08:51:39.000Z</time>
      </trkpt>
      <trkpt lat="44.42907" lon="1.01587">
        <ele>223.2</ele>
        <time>2017-05-28T08:51:40.000Z</time>
      </trkpt>
      <trkpt lat="44.42907" lon="1.01584">
        <ele>223.5</ele>
        <time>2017-05-28T08:51:41.000Z</time>
      </trkpt>
      <trkpt lat="44.42906" lon="1.01581">
        <ele>223.6</ele>
        <time>2017-05-28T08:51:42.000Z</time>
      </trkpt>
      <trkpt lat="44.42906" lon="1.01577">
        <ele>223.6</ele>
        <time>2017-05-28T08:51:43.000Z</time>
      </trkpt>
      <trkpt lat="44.42906" lon="1.01574">
        <ele>223.7</ele>
        <time>2017-05-28T08:51:44.000Z</time>
      </trkpt>
      <trkpt lat="44.42906" lon="1.0157">
        <ele>223.8</ele>
        <time>2017-05-28T08:51:45.000Z</time>
      </trkpt>
      <trkpt lat="44.42907" lon="1.01567">
        <ele>223.9</ele>
        <time>2017-05-28T08:51:46.000Z</time>
      </trkpt>
      <trkpt lat="44.42907" lon="1.01564">
        <ele>224</ele>
        <time>2017-05-28T08:51:47.000Z</time>
      </trkpt>
      <trkpt lat="44.42908" lon="1.01561">
        <ele>224.1</ele>
        <time>2017-05-28T08:51:48.000Z</time>
      </trkpt>
      <trkpt lat="44.42908" lon="1.01558">
        <ele>224.2</ele>
        <time>2017-05-28T08:51:49.000Z</time>
      </trkpt>
      <trkpt lat="44.42909" lon="1.01556">
        <ele>224.3</ele>
        <time>2017-05-28T08:51:50.000Z</time>
      </trkpt>
      <trkpt lat="44.4291" lon="1.01553">
        <ele>224.4</ele>
        <time>2017-05-28T08:51:51.000Z</time>
      </trkpt>
      <trkpt lat="44.4291" lon="1.01551">
        <ele>224.5</ele>
        <time>2017-05-28T08:51:52.000Z</time>
      </trkpt>
      <trkpt lat="44.42911" lon="1.01548">
        <ele>224.6</ele>
        <time>2017-05-28T08:51:53.000Z</time>
      </trkpt>
      <trkpt lat="44.42912" lon="1.01546">
        <ele>224.7</ele>
        <time>2017-05-28T08:51:54.000Z</time>
      </trkpt>
      <trkpt lat="44.42913" lon="1.01543">
        <ele>224.8</ele>
        <time>2017-05-28T08:51:55.000Z</time>
      </trkpt>
      <trkpt lat="44.42913" lon="1.01541">
        <ele>224.9</ele>
        <time>2017-05-28T08:51:56.000Z</time>
      </trkpt>
      <trkpt lat="44.42914" lon="1.01538">
        <ele>225</ele>
        <time>2017-05-28T08:51:57.000Z</time>
      </trkpt>
      <trkpt lat="44.42915" lon="1.01536">
        <ele>225</ele>
        <time>2017-05-28T08:51:58.000Z</time>
      </trkpt>
      <trkpt lat="44.42915" lon="1.01533">
        <ele>225.1</ele>
        <time>2017-05-28T08:51:59.000Z</time>
      </trkpt>
      <trkpt lat="44.42916" lon="1.01531">
        <ele>225.2</ele>
        <time>2017-05-28T08:52:00.000Z</time>
      </trkpt>
      <trkpt lat="44.42916" lon="1.01528">
        <ele>225.3</ele>
        <time>2017-05-28T08:52:01.000Z</time>
      </trkpt>
      <trkpt lat="44.42917" lon="1.01526">
        <ele>225.4</ele>
        <time>2017-05-28T08:52:02.000Z</time>
      </trkpt>
      <trkpt lat="44.42917" lon="1.01523">
        <ele>225.4</ele>
        <time>2017-05-28T08:52:03.000Z</time>
      </trkpt>
      <trkpt lat="44.42918" lon="1.01521">
        <ele>225.5</ele>
        <time>2017-05-28T08:52:04.000Z</time>
      </trkpt>
      <trkpt lat="44.42918" lon="1.01519">
        <ele>225.5</ele>
        <time>2017-05-28T08:52:05.000Z</time>
      </trkpt>
      <trkpt lat="44.42918" lon="1.01517">
        <ele>225.6</ele>
        <time>2017-05-28T08:52:06.000Z</time>
      </trkpt>
      <trkpt lat="44.42919" lon="1.01515">
        <ele>225.6</ele>
        <time>2017-05-28T08:52:07.000Z</time>
      </trkpt>
      <trkpt lat="44.42919" lon="1.01513">
        <ele>225.6</ele>
        <time>2017-05-28T08:52:08.000Z</time>
      </trkpt>
    </trkseg>
  </trk>
</gpx>